<?xml version="1.0" encoding="UTF-8" standalone="no" ?>
<gpx xmlns="http://www.topografix.com/GPX/1/1" xmlns:xsi="http://www.w3.org/2001/XMLSchema-instance" xsi:schemaLocation="http://www.topografix.com/GPX/1/1 http://www.topografix.com/GPX/1/1/gpx.xsd" version="1.1" creator="VisuGPX - https://www.visugpx.com">
  <metadata>
    <name>La Planèze de Saint-Flour</name>
    <desc><![CDATA[Parcours de 57 km permettant de découvrir la Planèze de Saint-Flour en passant notamment par les villages de Roffiac, Valuéjols, Paulhac, Tanavelle. ]]></desc>
  </metadata>
  <trk>
    <name><![CDATA[Move]]></name>
    <trkseg>
      <trkpt lat="45.03071" lon="3.04215">
        <ele>985</ele>
        <time>2016-12-30T11:35:38.008Z</time>
      </trkpt>
      <trkpt lat="45.03075" lon="3.04209">
        <ele>985</ele>
        <time>2016-12-30T11:35:41.008Z</time>
      </trkpt>
      <trkpt lat="45.0308" lon="3.04199">
        <ele>985</ele>
        <time>2016-12-30T11:35:44.008Z</time>
      </trkpt>
      <trkpt lat="45.03081" lon="3.0419">
        <ele>985</ele>
        <time>2016-12-30T11:35:46.008Z</time>
      </trkpt>
      <trkpt lat="45.03082" lon="3.04177">
        <ele>985</ele>
        <time>2016-12-30T11:35:49.008Z</time>
      </trkpt>
      <trkpt lat="45.03083" lon="3.04169">
        <ele>989</ele>
        <time>2016-12-30T11:35:51.008Z</time>
      </trkpt>
      <trkpt lat="45.03083" lon="3.0416">
        <ele>989</ele>
        <time>2016-12-30T11:35:53.008Z</time>
      </trkpt>
      <trkpt lat="45.03084" lon="3.04152">
        <ele>990.73600942092</ele>
        <time>2016-12-30T11:35:55.008Z</time>
      </trkpt>
      <trkpt lat="45.03089" lon="3.04146">
        <ele>991</ele>
        <time>2016-12-30T11:35:57.008Z</time>
      </trkpt>
      <trkpt lat="45.03095" lon="3.04142">
        <ele>991</ele>
        <time>2016-12-30T11:35:59.008Z</time>
      </trkpt>
      <trkpt lat="45.03103" lon="3.0414">
        <ele>991</ele>
        <time>2016-12-30T11:36:01.008Z</time>
      </trkpt>
      <trkpt lat="45.03106" lon="3.04138">
        <ele>991</ele>
        <time>2016-12-30T11:36:02.008Z</time>
      </trkpt>
      <trkpt lat="45.0311" lon="3.04137">
        <ele>991</ele>
        <time>2016-12-30T11:36:03.008Z</time>
      </trkpt>
      <trkpt lat="45.03114" lon="3.04135">
        <ele>991</ele>
        <time>2016-12-30T11:36:04.008Z</time>
      </trkpt>
      <trkpt lat="45.03118" lon="3.04134">
        <ele>991</ele>
        <time>2016-12-30T11:36:05.008Z</time>
      </trkpt>
      <trkpt lat="45.03123" lon="3.04132">
        <ele>991</ele>
        <time>2016-12-30T11:36:06.008Z</time>
      </trkpt>
      <trkpt lat="45.03131" lon="3.04129">
        <ele>991</ele>
        <time>2016-12-30T11:36:08.008Z</time>
      </trkpt>
      <trkpt lat="45.03138" lon="3.04126">
        <ele>991.86799528966</ele>
        <time>2016-12-30T11:36:10.008Z</time>
      </trkpt>
      <trkpt lat="45.03145" lon="3.04123">
        <ele>992</ele>
        <time>2016-12-30T11:36:12.008Z</time>
      </trkpt>
      <trkpt lat="45.03149" lon="3.04121">
        <ele>992</ele>
        <time>2016-12-30T11:36:13.008Z</time>
      </trkpt>
      <trkpt lat="45.03153" lon="3.0412">
        <ele>992</ele>
        <time>2016-12-30T11:36:14.008Z</time>
      </trkpt>
      <trkpt lat="45.03156" lon="3.04119">
        <ele>992</ele>
        <time>2016-12-30T11:36:15.008Z</time>
      </trkpt>
      <trkpt lat="45.0316" lon="3.04118">
        <ele>992</ele>
        <time>2016-12-30T11:36:16.008Z</time>
      </trkpt>
      <trkpt lat="45.03164" lon="3.04117">
        <ele>992</ele>
        <time>2016-12-30T11:36:17.008Z</time>
      </trkpt>
      <trkpt lat="45.03173" lon="3.04115">
        <ele>992</ele>
        <time>2016-12-30T11:36:19.008Z</time>
      </trkpt>
      <trkpt lat="45.03182" lon="3.04115">
        <ele>992</ele>
        <time>2016-12-30T11:36:21.008Z</time>
      </trkpt>
      <trkpt lat="45.03191" lon="3.04116">
        <ele>992</ele>
        <time>2016-12-30T11:36:23.008Z</time>
      </trkpt>
      <trkpt lat="45.03201" lon="3.04119">
        <ele>992</ele>
        <time>2016-12-30T11:36:25.008Z</time>
      </trkpt>
      <trkpt lat="45.03206" lon="3.0412">
        <ele>992</ele>
        <time>2016-12-30T11:36:26.008Z</time>
      </trkpt>
      <trkpt lat="45.03212" lon="3.04122">
        <ele>992</ele>
        <time>2016-12-30T11:36:27.008Z</time>
      </trkpt>
      <trkpt lat="45.03217" lon="3.04124">
        <ele>992</ele>
        <time>2016-12-30T11:36:28.008Z</time>
      </trkpt>
      <trkpt lat="45.03223" lon="3.04126">
        <ele>992</ele>
        <time>2016-12-30T11:36:29.008Z</time>
      </trkpt>
      <trkpt lat="45.03229" lon="3.04128">
        <ele>991.13200471034</ele>
        <time>2016-12-30T11:36:30.008Z</time>
      </trkpt>
      <trkpt lat="45.03234" lon="3.04129">
        <ele>991</ele>
        <time>2016-12-30T11:36:31.008Z</time>
      </trkpt>
      <trkpt lat="45.03243" lon="3.0413">
        <ele>991</ele>
        <time>2016-12-30T11:36:33.008Z</time>
      </trkpt>
      <trkpt lat="45.03249" lon="3.04129">
        <ele>991</ele>
        <time>2016-12-30T11:36:35.008Z</time>
      </trkpt>
      <trkpt lat="45.03256" lon="3.04128">
        <ele>991</ele>
        <time>2016-12-30T11:36:37.008Z</time>
      </trkpt>
      <trkpt lat="45.03264" lon="3.04126">
        <ele>991</ele>
        <time>2016-12-30T11:36:39.008Z</time>
      </trkpt>
      <trkpt lat="45.03273" lon="3.04123">
        <ele>989</ele>
        <time>2016-12-30T11:36:41.008Z</time>
      </trkpt>
      <trkpt lat="45.03284" lon="3.04119">
        <ele>989</ele>
        <time>2016-12-30T11:36:43.008Z</time>
      </trkpt>
      <trkpt lat="45.0329" lon="3.04117">
        <ele>989</ele>
        <time>2016-12-30T11:36:44.008Z</time>
      </trkpt>
      <trkpt lat="45.03297" lon="3.04115">
        <ele>989</ele>
        <time>2016-12-30T11:36:45.008Z</time>
      </trkpt>
      <trkpt lat="45.03303" lon="3.04112">
        <ele>989</ele>
        <time>2016-12-30T11:36:46.008Z</time>
      </trkpt>
      <trkpt lat="45.0331" lon="3.04108">
        <ele>989</ele>
        <time>2016-12-30T11:36:47.008Z</time>
      </trkpt>
      <trkpt lat="45.03316" lon="3.04104">
        <ele>989</ele>
        <time>2016-12-30T11:36:48.008Z</time>
      </trkpt>
      <trkpt lat="45.03322" lon="3.04097">
        <ele>989</ele>
        <time>2016-12-30T11:36:49.008Z</time>
      </trkpt>
      <trkpt lat="45.03325" lon="3.04088">
        <ele>986.4217876741</ele>
        <time>2016-12-30T11:36:50.008Z</time>
      </trkpt>
      <trkpt lat="45.03327" lon="3.04078">
        <ele>986</ele>
        <time>2016-12-30T11:36:51.008Z</time>
      </trkpt>
      <trkpt lat="45.0333" lon="3.04056">
        <ele>986</ele>
        <time>2016-12-30T11:36:53.008Z</time>
      </trkpt>
      <trkpt lat="45.03331" lon="3.04046">
        <ele>986</ele>
        <time>2016-12-30T11:36:54.008Z</time>
      </trkpt>
      <trkpt lat="45.03333" lon="3.04035">
        <ele>985.13199528954</ele>
        <time>2016-12-30T11:36:55.008Z</time>
      </trkpt>
      <trkpt lat="45.03334" lon="3.04024">
        <ele>985</ele>
        <time>2016-12-30T11:36:56.008Z</time>
      </trkpt>
      <trkpt lat="45.03336" lon="3.04013">
        <ele>985</ele>
        <time>2016-12-30T11:36:57.008Z</time>
      </trkpt>
      <trkpt lat="45.03339" lon="3.04003">
        <ele>985</ele>
        <time>2016-12-30T11:36:58.008Z</time>
      </trkpt>
      <trkpt lat="45.03342" lon="3.03993">
        <ele>985</ele>
        <time>2016-12-30T11:36:59.008Z</time>
      </trkpt>
      <trkpt lat="45.03347" lon="3.03985">
        <ele>983.29803734565</ele>
        <time>2016-12-30T11:37:00.008Z</time>
      </trkpt>
      <trkpt lat="45.03353" lon="3.03979">
        <ele>983</ele>
        <time>2016-12-30T11:37:01.008Z</time>
      </trkpt>
      <trkpt lat="45.0336" lon="3.03975">
        <ele>983</ele>
        <time>2016-12-30T11:37:02.008Z</time>
      </trkpt>
      <trkpt lat="45.03368" lon="3.03971">
        <ele>983</ele>
        <time>2016-12-30T11:37:03.008Z</time>
      </trkpt>
      <trkpt lat="45.03375" lon="3.03967">
        <ele>983</ele>
        <time>2016-12-30T11:37:04.008Z</time>
      </trkpt>
      <trkpt lat="45.03382" lon="3.03962">
        <ele>982.13199528954</ele>
        <time>2016-12-30T11:37:05.008Z</time>
      </trkpt>
      <trkpt lat="45.03389" lon="3.03957">
        <ele>982</ele>
        <time>2016-12-30T11:37:06.008Z</time>
      </trkpt>
      <trkpt lat="45.03395" lon="3.03951">
        <ele>982</ele>
        <time>2016-12-30T11:37:07.008Z</time>
      </trkpt>
      <trkpt lat="45.03401" lon="3.03944">
        <ele>982</ele>
        <time>2016-12-30T11:37:08.008Z</time>
      </trkpt>
      <trkpt lat="45.03407" lon="3.03938">
        <ele>982</ele>
        <time>2016-12-30T11:37:09.008Z</time>
      </trkpt>
      <trkpt lat="45.03413" lon="3.03931">
        <ele>981.13200471034</ele>
        <time>2016-12-30T11:37:10.008Z</time>
      </trkpt>
      <trkpt lat="45.03419" lon="3.03924">
        <ele>981</ele>
        <time>2016-12-30T11:37:11.008Z</time>
      </trkpt>
      <trkpt lat="45.03426" lon="3.03919">
        <ele>981</ele>
        <time>2016-12-30T11:37:12.008Z</time>
      </trkpt>
      <trkpt lat="45.03432" lon="3.03914">
        <ele>981</ele>
        <time>2016-12-30T11:37:13.008Z</time>
      </trkpt>
      <trkpt lat="45.03438" lon="3.03912">
        <ele>981</ele>
        <time>2016-12-30T11:37:14.008Z</time>
      </trkpt>
      <trkpt lat="45.03444" lon="3.03912">
        <ele>981</ele>
        <time>2016-12-30T11:37:15.008Z</time>
      </trkpt>
      <trkpt lat="45.03455" lon="3.03918">
        <ele>981</ele>
        <time>2016-12-30T11:37:17.008Z</time>
      </trkpt>
      <trkpt lat="45.03457" lon="3.03928">
        <ele>981</ele>
        <time>2016-12-30T11:37:18.008Z</time>
      </trkpt>
      <trkpt lat="45.03461" lon="3.03946">
        <ele>978.4217876741</ele>
        <time>2016-12-30T11:37:20.008Z</time>
      </trkpt>
      <trkpt lat="45.03463" lon="3.03955">
        <ele>978</ele>
        <time>2016-12-30T11:37:21.008Z</time>
      </trkpt>
      <trkpt lat="45.03465" lon="3.03964">
        <ele>978</ele>
        <time>2016-12-30T11:37:22.008Z</time>
      </trkpt>
      <trkpt lat="45.03467" lon="3.03972">
        <ele>978</ele>
        <time>2016-12-30T11:37:23.008Z</time>
      </trkpt>
      <trkpt lat="45.03469" lon="3.0398">
        <ele>978</ele>
        <time>2016-12-30T11:37:24.008Z</time>
      </trkpt>
      <trkpt lat="45.03473" lon="3.03986">
        <ele>977.13199528954</ele>
        <time>2016-12-30T11:37:25.008Z</time>
      </trkpt>
      <trkpt lat="45.03484" lon="3.03993">
        <ele>977</ele>
        <time>2016-12-30T11:37:27.008Z</time>
      </trkpt>
      <trkpt lat="45.0349" lon="3.03993">
        <ele>977</ele>
        <time>2016-12-30T11:37:28.008Z</time>
      </trkpt>
      <trkpt lat="45.03496" lon="3.03993">
        <ele>977</ele>
        <time>2016-12-30T11:37:29.008Z</time>
      </trkpt>
      <trkpt lat="45.03508" lon="3.03994">
        <ele>977</ele>
        <time>2016-12-30T11:37:31.008Z</time>
      </trkpt>
      <trkpt lat="45.03519" lon="3.04002">
        <ele>977</ele>
        <time>2016-12-30T11:37:33.008Z</time>
      </trkpt>
      <trkpt lat="45.03528" lon="3.04014">
        <ele>977</ele>
        <time>2016-12-30T11:37:35.008Z</time>
      </trkpt>
      <trkpt lat="45.03532" lon="3.0402">
        <ele>977</ele>
        <time>2016-12-30T11:37:36.008Z</time>
      </trkpt>
      <trkpt lat="45.03537" lon="3.04026">
        <ele>977</ele>
        <time>2016-12-30T11:37:37.008Z</time>
      </trkpt>
      <trkpt lat="45.03541" lon="3.04032">
        <ele>977</ele>
        <time>2016-12-30T11:37:38.008Z</time>
      </trkpt>
      <trkpt lat="45.03545" lon="3.04038">
        <ele>977</ele>
        <time>2016-12-30T11:37:39.008Z</time>
      </trkpt>
      <trkpt lat="45.03549" lon="3.04044">
        <ele>977</ele>
        <time>2016-12-30T11:37:40.008Z</time>
      </trkpt>
      <trkpt lat="45.03553" lon="3.0405">
        <ele>977</ele>
        <time>2016-12-30T11:37:41.008Z</time>
      </trkpt>
      <trkpt lat="45.03558" lon="3.04056">
        <ele>977</ele>
        <time>2016-12-30T11:37:42.008Z</time>
      </trkpt>
      <trkpt lat="45.03562" lon="3.04062">
        <ele>977</ele>
        <time>2016-12-30T11:37:43.008Z</time>
      </trkpt>
      <trkpt lat="45.03566" lon="3.04069">
        <ele>977</ele>
        <time>2016-12-30T11:37:44.008Z</time>
      </trkpt>
      <trkpt lat="45.03569" lon="3.04075">
        <ele>977</ele>
        <time>2016-12-30T11:37:45.008Z</time>
      </trkpt>
      <trkpt lat="45.03573" lon="3.04081">
        <ele>977</ele>
        <time>2016-12-30T11:37:46.008Z</time>
      </trkpt>
      <trkpt lat="45.03577" lon="3.04086">
        <ele>977</ele>
        <time>2016-12-30T11:37:47.008Z</time>
      </trkpt>
      <trkpt lat="45.03581" lon="3.04091">
        <ele>977</ele>
        <time>2016-12-30T11:37:48.008Z</time>
      </trkpt>
      <trkpt lat="45.03585" lon="3.04096">
        <ele>977</ele>
        <time>2016-12-30T11:37:49.008Z</time>
      </trkpt>
      <trkpt lat="45.03589" lon="3.041">
        <ele>978.71880821727</ele>
        <time>2016-12-30T11:37:50.008Z</time>
      </trkpt>
      <trkpt lat="45.03594" lon="3.04102">
        <ele>979</ele>
        <time>2016-12-30T11:37:51.008Z</time>
      </trkpt>
      <trkpt lat="45.03599" lon="3.04105">
        <ele>979</ele>
        <time>2016-12-30T11:37:52.008Z</time>
      </trkpt>
      <trkpt lat="45.03603" lon="3.04106">
        <ele>979</ele>
        <time>2016-12-30T11:37:53.008Z</time>
      </trkpt>
      <trkpt lat="45.03608" lon="3.04108">
        <ele>979</ele>
        <time>2016-12-30T11:37:54.008Z</time>
      </trkpt>
      <trkpt lat="45.03617" lon="3.0411">
        <ele>979</ele>
        <time>2016-12-30T11:37:56.008Z</time>
      </trkpt>
      <trkpt lat="45.03627" lon="3.04114">
        <ele>979</ele>
        <time>2016-12-30T11:37:58.008Z</time>
      </trkpt>
      <trkpt lat="45.03631" lon="3.04115">
        <ele>979</ele>
        <time>2016-12-30T11:37:59.008Z</time>
      </trkpt>
      <trkpt lat="45.03635" lon="3.04116">
        <ele>981.60398586898</ele>
        <time>2016-12-30T11:38:00.008Z</time>
      </trkpt>
      <trkpt lat="45.03643" lon="3.04114">
        <ele>982</ele>
        <time>2016-12-30T11:38:02.008Z</time>
      </trkpt>
      <trkpt lat="45.03646" lon="3.04112">
        <ele>982</ele>
        <time>2016-12-30T11:38:03.008Z</time>
      </trkpt>
      <trkpt lat="45.03649" lon="3.04109">
        <ele>982</ele>
        <time>2016-12-30T11:38:04.008Z</time>
      </trkpt>
      <trkpt lat="45.0365" lon="3.04101">
        <ele>983</ele>
        <time>2016-12-30T11:38:06.008Z</time>
      </trkpt>
      <trkpt lat="45.03648" lon="3.04094">
        <ele>983</ele>
        <time>2016-12-30T11:38:08.008Z</time>
      </trkpt>
      <trkpt lat="45.03647" lon="3.04086">
        <ele>983.86799528966</ele>
        <time>2016-12-30T11:38:10.008Z</time>
      </trkpt>
      <trkpt lat="45.03647" lon="3.04078">
        <ele>984</ele>
        <time>2016-12-30T11:38:12.008Z</time>
      </trkpt>
      <trkpt lat="45.03649" lon="3.04069">
        <ele>984</ele>
        <time>2016-12-30T11:38:14.008Z</time>
      </trkpt>
      <trkpt lat="45.03652" lon="3.0406">
        <ele>984</ele>
        <time>2016-12-30T11:38:16.008Z</time>
      </trkpt>
      <trkpt lat="45.03654" lon="3.0405">
        <ele>984</ele>
        <time>2016-12-30T11:38:18.008Z</time>
      </trkpt>
      <trkpt lat="45.03655" lon="3.0404">
        <ele>984.85940410863</ele>
        <time>2016-12-30T11:38:20.008Z</time>
      </trkpt>
      <trkpt lat="45.03653" lon="3.04029">
        <ele>985</ele>
        <time>2016-12-30T11:38:22.008Z</time>
      </trkpt>
      <trkpt lat="45.03653" lon="3.04024">
        <ele>985</ele>
        <time>2016-12-30T11:38:23.008Z</time>
      </trkpt>
      <trkpt lat="45.03652" lon="3.04018">
        <ele>985</ele>
        <time>2016-12-30T11:38:24.008Z</time>
      </trkpt>
      <trkpt lat="45.03651" lon="3.04012">
        <ele>985</ele>
        <time>2016-12-30T11:38:25.008Z</time>
      </trkpt>
      <trkpt lat="45.0365" lon="3.04007">
        <ele>985</ele>
        <time>2016-12-30T11:38:26.008Z</time>
      </trkpt>
      <trkpt lat="45.0365" lon="3.04001">
        <ele>985</ele>
        <time>2016-12-30T11:38:27.008Z</time>
      </trkpt>
      <trkpt lat="45.03649" lon="3.03994">
        <ele>985</ele>
        <time>2016-12-30T11:38:28.008Z</time>
      </trkpt>
      <trkpt lat="45.03648" lon="3.03988">
        <ele>985</ele>
        <time>2016-12-30T11:38:29.008Z</time>
      </trkpt>
      <trkpt lat="45.03648" lon="3.03981">
        <ele>985.86799528966</ele>
        <time>2016-12-30T11:38:30.008Z</time>
      </trkpt>
      <trkpt lat="45.03647" lon="3.03975">
        <ele>986</ele>
        <time>2016-12-30T11:38:31.008Z</time>
      </trkpt>
      <trkpt lat="45.03647" lon="3.03968">
        <ele>986</ele>
        <time>2016-12-30T11:38:32.008Z</time>
      </trkpt>
      <trkpt lat="45.03646" lon="3.03962">
        <ele>986</ele>
        <time>2016-12-30T11:38:33.008Z</time>
      </trkpt>
      <trkpt lat="45.03646" lon="3.03955">
        <ele>986</ele>
        <time>2016-12-30T11:38:34.008Z</time>
      </trkpt>
      <trkpt lat="45.03645" lon="3.03942">
        <ele>986</ele>
        <time>2016-12-30T11:38:36.008Z</time>
      </trkpt>
      <trkpt lat="45.03645" lon="3.03936">
        <ele>986</ele>
        <time>2016-12-30T11:38:37.008Z</time>
      </trkpt>
      <trkpt lat="45.03645" lon="3.03929">
        <ele>986</ele>
        <time>2016-12-30T11:38:38.008Z</time>
      </trkpt>
      <trkpt lat="45.03644" lon="3.03923">
        <ele>986</ele>
        <time>2016-12-30T11:38:39.008Z</time>
      </trkpt>
      <trkpt lat="45.03644" lon="3.03917">
        <ele>987.73599057932</ele>
        <time>2016-12-30T11:38:40.008Z</time>
      </trkpt>
      <trkpt lat="45.03643" lon="3.0391">
        <ele>988</ele>
        <time>2016-12-30T11:38:41.008Z</time>
      </trkpt>
      <trkpt lat="45.03643" lon="3.03904">
        <ele>988</ele>
        <time>2016-12-30T11:38:42.008Z</time>
      </trkpt>
      <trkpt lat="45.03642" lon="3.03897">
        <ele>988</ele>
        <time>2016-12-30T11:38:43.008Z</time>
      </trkpt>
      <trkpt lat="45.03641" lon="3.03891">
        <ele>988</ele>
        <time>2016-12-30T11:38:44.008Z</time>
      </trkpt>
      <trkpt lat="45.0364" lon="3.03885">
        <ele>988</ele>
        <time>2016-12-30T11:38:45.008Z</time>
      </trkpt>
      <trkpt lat="45.03639" lon="3.03872">
        <ele>988</ele>
        <time>2016-12-30T11:38:47.008Z</time>
      </trkpt>
      <trkpt lat="45.03637" lon="3.03859">
        <ele>988</ele>
        <time>2016-12-30T11:38:49.008Z</time>
      </trkpt>
      <trkpt lat="45.03636" lon="3.03846">
        <ele>989</ele>
        <time>2016-12-30T11:38:51.008Z</time>
      </trkpt>
      <trkpt lat="45.03635" lon="3.03839">
        <ele>989</ele>
        <time>2016-12-30T11:38:52.008Z</time>
      </trkpt>
      <trkpt lat="45.03633" lon="3.03826">
        <ele>989</ele>
        <time>2016-12-30T11:38:54.008Z</time>
      </trkpt>
      <trkpt lat="45.03633" lon="3.0382">
        <ele>989</ele>
        <time>2016-12-30T11:38:55.008Z</time>
      </trkpt>
      <trkpt lat="45.03631" lon="3.03807">
        <ele>989</ele>
        <time>2016-12-30T11:38:57.008Z</time>
      </trkpt>
      <trkpt lat="45.0363" lon="3.038">
        <ele>989</ele>
        <time>2016-12-30T11:38:58.008Z</time>
      </trkpt>
      <trkpt lat="45.03625" lon="3.03789">
        <ele>990.73599057932</ele>
        <time>2016-12-30T11:39:00.008Z</time>
      </trkpt>
      <trkpt lat="45.03619" lon="3.03779">
        <ele>991</ele>
        <time>2016-12-30T11:39:02.008Z</time>
      </trkpt>
      <trkpt lat="45.03612" lon="3.0377">
        <ele>991</ele>
        <time>2016-12-30T11:39:04.008Z</time>
      </trkpt>
      <trkpt lat="45.03609" lon="3.03766">
        <ele>991</ele>
        <time>2016-12-30T11:39:05.008Z</time>
      </trkpt>
      <trkpt lat="45.03602" lon="3.03757">
        <ele>991</ele>
        <time>2016-12-30T11:39:07.008Z</time>
      </trkpt>
      <trkpt lat="45.03596" lon="3.03751">
        <ele>991</ele>
        <time>2016-12-30T11:39:09.008Z</time>
      </trkpt>
      <trkpt lat="45.03589" lon="3.03744">
        <ele>993</ele>
        <time>2016-12-30T11:39:11.008Z</time>
      </trkpt>
      <trkpt lat="45.03582" lon="3.03738">
        <ele>993</ele>
        <time>2016-12-30T11:39:13.008Z</time>
      </trkpt>
      <trkpt lat="45.03576" lon="3.03731">
        <ele>993</ele>
        <time>2016-12-30T11:39:15.008Z</time>
      </trkpt>
      <trkpt lat="45.03569" lon="3.03725">
        <ele>993</ele>
        <time>2016-12-30T11:39:17.008Z</time>
      </trkpt>
      <trkpt lat="45.03563" lon="3.03718">
        <ele>993</ele>
        <time>2016-12-30T11:39:19.008Z</time>
      </trkpt>
      <trkpt lat="45.03558" lon="3.03711">
        <ele>996</ele>
        <time>2016-12-30T11:39:21.008Z</time>
      </trkpt>
      <trkpt lat="45.03552" lon="3.03703">
        <ele>996</ele>
        <time>2016-12-30T11:39:23.008Z</time>
      </trkpt>
      <trkpt lat="45.03546" lon="3.03694">
        <ele>996</ele>
        <time>2016-12-30T11:39:25.008Z</time>
      </trkpt>
      <trkpt lat="45.03539" lon="3.03684">
        <ele>996</ele>
        <time>2016-12-30T11:39:27.008Z</time>
      </trkpt>
      <trkpt lat="45.03532" lon="3.03673">
        <ele>996</ele>
        <time>2016-12-30T11:39:29.008Z</time>
      </trkpt>
      <trkpt lat="45.03526" lon="3.03662">
        <ele>996</ele>
        <time>2016-12-30T11:39:31.008Z</time>
      </trkpt>
      <trkpt lat="45.03523" lon="3.03657">
        <ele>996</ele>
        <time>2016-12-30T11:39:32.008Z</time>
      </trkpt>
      <trkpt lat="45.03515" lon="3.03647">
        <ele>996</ele>
        <time>2016-12-30T11:39:34.008Z</time>
      </trkpt>
      <trkpt lat="45.03511" lon="3.03642">
        <ele>996</ele>
        <time>2016-12-30T11:39:35.008Z</time>
      </trkpt>
      <trkpt lat="45.03508" lon="3.03638">
        <ele>996</ele>
        <time>2016-12-30T11:39:36.008Z</time>
      </trkpt>
      <trkpt lat="45.03504" lon="3.03633">
        <ele>996</ele>
        <time>2016-12-30T11:39:37.008Z</time>
      </trkpt>
      <trkpt lat="45.03501" lon="3.03628">
        <ele>996</ele>
        <time>2016-12-30T11:39:38.008Z</time>
      </trkpt>
      <trkpt lat="45.03497" lon="3.03623">
        <ele>996</ele>
        <time>2016-12-30T11:39:39.008Z</time>
      </trkpt>
      <trkpt lat="45.03494" lon="3.03618">
        <ele>996</ele>
        <time>2016-12-30T11:39:40.008Z</time>
      </trkpt>
      <trkpt lat="45.0349" lon="3.03613">
        <ele>996</ele>
        <time>2016-12-30T11:39:41.008Z</time>
      </trkpt>
      <trkpt lat="45.03484" lon="3.03603">
        <ele>996</ele>
        <time>2016-12-30T11:39:43.008Z</time>
      </trkpt>
      <trkpt lat="45.03478" lon="3.03594">
        <ele>996</ele>
        <time>2016-12-30T11:39:45.008Z</time>
      </trkpt>
      <trkpt lat="45.03475" lon="3.03589">
        <ele>996</ele>
        <time>2016-12-30T11:39:46.008Z</time>
      </trkpt>
      <trkpt lat="45.03472" lon="3.03584">
        <ele>996</ele>
        <time>2016-12-30T11:39:47.008Z</time>
      </trkpt>
      <trkpt lat="45.03469" lon="3.03579">
        <ele>996</ele>
        <time>2016-12-30T11:39:48.008Z</time>
      </trkpt>
      <trkpt lat="45.03466" lon="3.03574">
        <ele>996</ele>
        <time>2016-12-30T11:39:49.008Z</time>
      </trkpt>
      <trkpt lat="45.03463" lon="3.0357">
        <ele>996</ele>
        <time>2016-12-30T11:39:50.008Z</time>
      </trkpt>
      <trkpt lat="45.0346" lon="3.03565">
        <ele>996</ele>
        <time>2016-12-30T11:39:51.008Z</time>
      </trkpt>
      <trkpt lat="45.03457" lon="3.0356">
        <ele>996</ele>
        <time>2016-12-30T11:39:52.008Z</time>
      </trkpt>
      <trkpt lat="45.03455" lon="3.03555">
        <ele>996</ele>
        <time>2016-12-30T11:39:53.008Z</time>
      </trkpt>
      <trkpt lat="45.03452" lon="3.0355">
        <ele>996</ele>
        <time>2016-12-30T11:39:54.008Z</time>
      </trkpt>
      <trkpt lat="45.03449" lon="3.03546">
        <ele>996</ele>
        <time>2016-12-30T11:39:55.008Z</time>
      </trkpt>
      <trkpt lat="45.03446" lon="3.03541">
        <ele>996</ele>
        <time>2016-12-30T11:39:56.008Z</time>
      </trkpt>
      <trkpt lat="45.03443" lon="3.03535">
        <ele>996</ele>
        <time>2016-12-30T11:39:57.008Z</time>
      </trkpt>
      <trkpt lat="45.03439" lon="3.03529">
        <ele>996</ele>
        <time>2016-12-30T11:39:58.008Z</time>
      </trkpt>
      <trkpt lat="45.03436" lon="3.03523">
        <ele>996</ele>
        <time>2016-12-30T11:39:59.008Z</time>
      </trkpt>
      <trkpt lat="45.03433" lon="3.03517">
        <ele>996</ele>
        <time>2016-12-30T11:40:00.008Z</time>
      </trkpt>
      <trkpt lat="45.03431" lon="3.03511">
        <ele>996</ele>
        <time>2016-12-30T11:40:01.008Z</time>
      </trkpt>
      <trkpt lat="45.03428" lon="3.03505">
        <ele>996</ele>
        <time>2016-12-30T11:40:02.008Z</time>
      </trkpt>
      <trkpt lat="45.03426" lon="3.03499">
        <ele>996</ele>
        <time>2016-12-30T11:40:03.008Z</time>
      </trkpt>
      <trkpt lat="45.03423" lon="3.03493">
        <ele>996</ele>
        <time>2016-12-30T11:40:04.008Z</time>
      </trkpt>
      <trkpt lat="45.0342" lon="3.03487">
        <ele>996</ele>
        <time>2016-12-30T11:40:05.008Z</time>
      </trkpt>
      <trkpt lat="45.03417" lon="3.03481">
        <ele>996</ele>
        <time>2016-12-30T11:40:06.008Z</time>
      </trkpt>
      <trkpt lat="45.03415" lon="3.03476">
        <ele>996</ele>
        <time>2016-12-30T11:40:07.008Z</time>
      </trkpt>
      <trkpt lat="45.03412" lon="3.03471">
        <ele>996</ele>
        <time>2016-12-30T11:40:08.008Z</time>
      </trkpt>
      <trkpt lat="45.0341" lon="3.03465">
        <ele>996</ele>
        <time>2016-12-30T11:40:09.008Z</time>
      </trkpt>
      <trkpt lat="45.03407" lon="3.03459">
        <ele>996.86799528966</ele>
        <time>2016-12-30T11:40:10.008Z</time>
      </trkpt>
      <trkpt lat="45.03405" lon="3.03454">
        <ele>997</ele>
        <time>2016-12-30T11:40:11.008Z</time>
      </trkpt>
      <trkpt lat="45.03402" lon="3.03449">
        <ele>997</ele>
        <time>2016-12-30T11:40:12.008Z</time>
      </trkpt>
      <trkpt lat="45.034" lon="3.03443">
        <ele>997</ele>
        <time>2016-12-30T11:40:13.008Z</time>
      </trkpt>
      <trkpt lat="45.03397" lon="3.03438">
        <ele>997</ele>
        <time>2016-12-30T11:40:14.008Z</time>
      </trkpt>
      <trkpt lat="45.03392" lon="3.03427">
        <ele>997</ele>
        <time>2016-12-30T11:40:16.008Z</time>
      </trkpt>
      <trkpt lat="45.03389" lon="3.03422">
        <ele>997</ele>
        <time>2016-12-30T11:40:17.008Z</time>
      </trkpt>
      <trkpt lat="45.03386" lon="3.03417">
        <ele>997</ele>
        <time>2016-12-30T11:40:18.008Z</time>
      </trkpt>
      <trkpt lat="45.03383" lon="3.03412">
        <ele>997</ele>
        <time>2016-12-30T11:40:19.008Z</time>
      </trkpt>
      <trkpt lat="45.0338" lon="3.03408">
        <ele>997</ele>
        <time>2016-12-30T11:40:20.008Z</time>
      </trkpt>
      <trkpt lat="45.03376" lon="3.03404">
        <ele>997</ele>
        <time>2016-12-30T11:40:21.008Z</time>
      </trkpt>
      <trkpt lat="45.03372" lon="3.034">
        <ele>997</ele>
        <time>2016-12-30T11:40:22.008Z</time>
      </trkpt>
      <trkpt lat="45.03369" lon="3.03397">
        <ele>997</ele>
        <time>2016-12-30T11:40:23.008Z</time>
      </trkpt>
      <trkpt lat="45.03361" lon="3.03389">
        <ele>997</ele>
        <time>2016-12-30T11:40:25.008Z</time>
      </trkpt>
      <trkpt lat="45.03354" lon="3.0338">
        <ele>997</ele>
        <time>2016-12-30T11:40:27.008Z</time>
      </trkpt>
      <trkpt lat="45.03347" lon="3.0337">
        <ele>997</ele>
        <time>2016-12-30T11:40:29.008Z</time>
      </trkpt>
      <trkpt lat="45.0334" lon="3.03361">
        <ele>997</ele>
        <time>2016-12-30T11:40:31.008Z</time>
      </trkpt>
      <trkpt lat="45.03331" lon="3.03352">
        <ele>997</ele>
        <time>2016-12-30T11:40:33.008Z</time>
      </trkpt>
      <trkpt lat="45.03327" lon="3.03348">
        <ele>997</ele>
        <time>2016-12-30T11:40:34.008Z</time>
      </trkpt>
      <trkpt lat="45.03318" lon="3.0334">
        <ele>997</ele>
        <time>2016-12-30T11:40:36.008Z</time>
      </trkpt>
      <trkpt lat="45.03309" lon="3.03333">
        <ele>997</ele>
        <time>2016-12-30T11:40:38.008Z</time>
      </trkpt>
      <trkpt lat="45.033" lon="3.03326">
        <ele>997</ele>
        <time>2016-12-30T11:40:40.008Z</time>
      </trkpt>
      <trkpt lat="45.03291" lon="3.0332">
        <ele>997</ele>
        <time>2016-12-30T11:40:42.008Z</time>
      </trkpt>
      <trkpt lat="45.03282" lon="3.03314">
        <ele>997</ele>
        <time>2016-12-30T11:40:44.008Z</time>
      </trkpt>
      <trkpt lat="45.03273" lon="3.03308">
        <ele>997</ele>
        <time>2016-12-30T11:40:46.008Z</time>
      </trkpt>
      <trkpt lat="45.03264" lon="3.03301">
        <ele>997</ele>
        <time>2016-12-30T11:40:48.008Z</time>
      </trkpt>
      <trkpt lat="45.03256" lon="3.03295">
        <ele>997.86799528966</ele>
        <time>2016-12-30T11:40:50.008Z</time>
      </trkpt>
      <trkpt lat="45.03252" lon="3.03292">
        <ele>998</ele>
        <time>2016-12-30T11:40:51.008Z</time>
      </trkpt>
      <trkpt lat="45.03247" lon="3.03289">
        <ele>998</ele>
        <time>2016-12-30T11:40:52.008Z</time>
      </trkpt>
      <trkpt lat="45.0324" lon="3.03282">
        <ele>998</ele>
        <time>2016-12-30T11:40:54.008Z</time>
      </trkpt>
      <trkpt lat="45.03233" lon="3.03276">
        <ele>998</ele>
        <time>2016-12-30T11:40:56.008Z</time>
      </trkpt>
      <trkpt lat="45.03226" lon="3.0327">
        <ele>998</ele>
        <time>2016-12-30T11:40:58.008Z</time>
      </trkpt>
      <trkpt lat="45.0322" lon="3.03264">
        <ele>998.86799528966</ele>
        <time>2016-12-30T11:41:00.008Z</time>
      </trkpt>
      <trkpt lat="45.03216" lon="3.03258">
        <ele>999</ele>
        <time>2016-12-30T11:41:02.008Z</time>
      </trkpt>
      <trkpt lat="45.03211" lon="3.03252">
        <ele>999</ele>
        <time>2016-12-30T11:41:05.008Z</time>
      </trkpt>
      <trkpt lat="45.0321" lon="3.03246">
        <ele>999</ele>
        <time>2016-12-30T11:41:09.008Z</time>
      </trkpt>
      <trkpt lat="45.03205" lon="3.03236">
        <ele>999</ele>
        <time>2016-12-30T11:41:15.008Z</time>
      </trkpt>
      <trkpt lat="45.03202" lon="3.03231">
        <ele>999</ele>
        <time>2016-12-30T11:41:19.008Z</time>
      </trkpt>
      <trkpt lat="45.03197" lon="3.03222">
        <ele>1001</ele>
        <time>2016-12-30T11:41:27.008Z</time>
      </trkpt>
      <trkpt lat="45.03193" lon="3.03214">
        <ele>1001.8679952897</ele>
        <time>2016-12-30T11:41:30.008Z</time>
      </trkpt>
      <trkpt lat="45.03188" lon="3.03207">
        <ele>1002</ele>
        <time>2016-12-30T11:41:33.008Z</time>
      </trkpt>
      <trkpt lat="45.03185" lon="3.03203">
        <ele>1002</ele>
        <time>2016-12-30T11:41:37.008Z</time>
      </trkpt>
      <trkpt lat="45.0318" lon="3.032">
        <ele>1003</ele>
        <time>2016-12-30T11:41:42.008Z</time>
      </trkpt>
      <trkpt lat="45.03178" lon="3.03196">
        <ele>1003</ele>
        <time>2016-12-30T11:41:45.008Z</time>
      </trkpt>
      <trkpt lat="45.03174" lon="3.0319">
        <ele>1003</ele>
        <time>2016-12-30T11:41:49.008Z</time>
      </trkpt>
      <trkpt lat="45.03171" lon="3.03185">
        <ele>1004</ele>
        <time>2016-12-30T11:41:53.008Z</time>
      </trkpt>
      <trkpt lat="45.03165" lon="3.03177">
        <ele>1004</ele>
        <time>2016-12-30T11:41:59.008Z</time>
      </trkpt>
      <trkpt lat="45.03161" lon="3.03171">
        <ele>1005</ele>
        <time>2016-12-30T11:42:03.008Z</time>
      </trkpt>
      <trkpt lat="45.03157" lon="3.03165">
        <ele>1005</ele>
        <time>2016-12-30T11:42:08.008Z</time>
      </trkpt>
      <trkpt lat="45.03153" lon="3.03158">
        <ele>1005</ele>
        <time>2016-12-30T11:42:12.008Z</time>
      </trkpt>
      <trkpt lat="45.03151" lon="3.03153">
        <ele>1005</ele>
        <time>2016-12-30T11:42:15.008Z</time>
      </trkpt>
      <trkpt lat="45.03149" lon="3.03148">
        <ele>1005</ele>
        <time>2016-12-30T11:42:19.008Z</time>
      </trkpt>
      <trkpt lat="45.03146" lon="3.03143">
        <ele>1007</ele>
        <time>2016-12-30T11:42:23.008Z</time>
      </trkpt>
      <trkpt lat="45.03142" lon="3.03136">
        <ele>1007</ele>
        <time>2016-12-30T11:42:28.008Z</time>
      </trkpt>
      <trkpt lat="45.0314" lon="3.0313">
        <ele>1008</ele>
        <time>2016-12-30T11:42:32.008Z</time>
      </trkpt>
      <trkpt lat="45.03136" lon="3.03123">
        <ele>1008</ele>
        <time>2016-12-30T11:42:38.008Z</time>
      </trkpt>
      <trkpt lat="45.03131" lon="3.03118">
        <ele>1009</ele>
        <time>2016-12-30T11:42:46.008Z</time>
      </trkpt>
      <trkpt lat="45.03129" lon="3.03113">
        <ele>1009</ele>
        <time>2016-12-30T11:42:52.008Z</time>
      </trkpt>
      <trkpt lat="45.03126" lon="3.03107">
        <ele>1009</ele>
        <time>2016-12-30T11:42:57.008Z</time>
      </trkpt>
      <trkpt lat="45.03122" lon="3.03097">
        <ele>1010</ele>
        <time>2016-12-30T11:43:12.008Z</time>
      </trkpt>
      <trkpt lat="45.03118" lon="3.03088">
        <ele>1010</ele>
        <time>2016-12-30T11:43:16.008Z</time>
      </trkpt>
      <trkpt lat="45.03116" lon="3.03081">
        <ele>1010</ele>
        <time>2016-12-30T11:43:19.008Z</time>
      </trkpt>
      <trkpt lat="45.03113" lon="3.03074">
        <ele>1011</ele>
        <time>2016-12-30T11:43:22.008Z</time>
      </trkpt>
      <trkpt lat="45.03113" lon="3.03068">
        <ele>1011</ele>
        <time>2016-12-30T11:43:24.008Z</time>
      </trkpt>
      <trkpt lat="45.03111" lon="3.03058">
        <ele>1011</ele>
        <time>2016-12-30T11:43:28.008Z</time>
      </trkpt>
      <trkpt lat="45.03108" lon="3.0305">
        <ele>1011</ele>
        <time>2016-12-30T11:43:31.008Z</time>
      </trkpt>
      <trkpt lat="45.03106" lon="3.03043">
        <ele>1011</ele>
        <time>2016-12-30T11:43:34.008Z</time>
      </trkpt>
      <trkpt lat="45.03103" lon="3.03036">
        <ele>1011</ele>
        <time>2016-12-30T11:43:37.008Z</time>
      </trkpt>
      <trkpt lat="45.03101" lon="3.0303">
        <ele>1011.8594041086</ele>
        <time>2016-12-30T11:43:40.008Z</time>
      </trkpt>
      <trkpt lat="45.03098" lon="3.03024">
        <ele>1012</ele>
        <time>2016-12-30T11:43:43.008Z</time>
      </trkpt>
      <trkpt lat="45.03094" lon="3.03018">
        <ele>1012</ele>
        <time>2016-12-30T11:43:46.008Z</time>
      </trkpt>
      <trkpt lat="45.0309" lon="3.03012">
        <ele>1012</ele>
        <time>2016-12-30T11:43:49.008Z</time>
      </trkpt>
      <trkpt lat="45.03086" lon="3.03007">
        <ele>1012</ele>
        <time>2016-12-30T11:43:52.008Z</time>
      </trkpt>
      <trkpt lat="45.03082" lon="3.03001">
        <ele>1012</ele>
        <time>2016-12-30T11:43:55.008Z</time>
      </trkpt>
      <trkpt lat="45.03078" lon="3.02994">
        <ele>1012</ele>
        <time>2016-12-30T11:43:59.008Z</time>
      </trkpt>
      <trkpt lat="45.03073" lon="3.02988">
        <ele>1014</ele>
        <time>2016-12-30T11:44:02.008Z</time>
      </trkpt>
      <trkpt lat="45.03069" lon="3.02981">
        <ele>1014</ele>
        <time>2016-12-30T11:44:05.008Z</time>
      </trkpt>
      <trkpt lat="45.03067" lon="3.02977">
        <ele>1014</ele>
        <time>2016-12-30T11:44:07.008Z</time>
      </trkpt>
      <trkpt lat="45.03063" lon="3.02968">
        <ele>1015</ele>
        <time>2016-12-30T11:44:11.008Z</time>
      </trkpt>
      <trkpt lat="45.03059" lon="3.02961">
        <ele>1015</ele>
        <time>2016-12-30T11:44:14.008Z</time>
      </trkpt>
      <trkpt lat="45.03054" lon="3.0295">
        <ele>1015</ele>
        <time>2016-12-30T11:44:18.008Z</time>
      </trkpt>
      <trkpt lat="45.03048" lon="3.02941">
        <ele>1016</ele>
        <time>2016-12-30T11:44:22.008Z</time>
      </trkpt>
      <trkpt lat="45.03043" lon="3.02936">
        <ele>1016</ele>
        <time>2016-12-30T11:44:25.008Z</time>
      </trkpt>
      <trkpt lat="45.03038" lon="3.0293">
        <ele>1016</ele>
        <time>2016-12-30T11:44:28.008Z</time>
      </trkpt>
      <trkpt lat="45.03037" lon="3.02928">
        <ele>1018</ele>
        <time>2016-12-30T11:45:07.008Z</time>
      </trkpt>
      <trkpt lat="45.03035" lon="3.0292">
        <ele>1020</ele>
        <time>2016-12-30T11:45:23.008Z</time>
      </trkpt>
      <trkpt lat="45.03032" lon="3.02912">
        <ele>1020</ele>
        <time>2016-12-30T11:45:26.008Z</time>
      </trkpt>
      <trkpt lat="45.03028" lon="3.02906">
        <ele>1020</ele>
        <time>2016-12-30T11:45:28.008Z</time>
      </trkpt>
      <trkpt lat="45.03025" lon="3.029">
        <ele>1020</ele>
        <time>2016-12-30T11:45:30.008Z</time>
      </trkpt>
      <trkpt lat="45.03022" lon="3.02893">
        <ele>1020</ele>
        <time>2016-12-30T11:45:32.008Z</time>
      </trkpt>
      <trkpt lat="45.03018" lon="3.02887">
        <ele>1020</ele>
        <time>2016-12-30T11:45:34.008Z</time>
      </trkpt>
      <trkpt lat="45.03014" lon="3.02881">
        <ele>1020</ele>
        <time>2016-12-30T11:45:36.008Z</time>
      </trkpt>
      <trkpt lat="45.0301" lon="3.02875">
        <ele>1020</ele>
        <time>2016-12-30T11:45:38.008Z</time>
      </trkpt>
      <trkpt lat="45.03006" lon="3.0287">
        <ele>1021.7359905793</ele>
        <time>2016-12-30T11:45:40.008Z</time>
      </trkpt>
      <trkpt lat="45.03001" lon="3.02866">
        <ele>1022</ele>
        <time>2016-12-30T11:45:42.008Z</time>
      </trkpt>
      <trkpt lat="45.02996" lon="3.02861">
        <ele>1022</ele>
        <time>2016-12-30T11:45:44.008Z</time>
      </trkpt>
      <trkpt lat="45.02991" lon="3.02856">
        <ele>1022</ele>
        <time>2016-12-30T11:45:46.008Z</time>
      </trkpt>
      <trkpt lat="45.02986" lon="3.02851">
        <ele>1022</ele>
        <time>2016-12-30T11:45:48.008Z</time>
      </trkpt>
      <trkpt lat="45.02984" lon="3.02848">
        <ele>1022</ele>
        <time>2016-12-30T11:45:49.008Z</time>
      </trkpt>
      <trkpt lat="45.02981" lon="3.02842">
        <ele>1022</ele>
        <time>2016-12-30T11:45:51.008Z</time>
      </trkpt>
      <trkpt lat="45.02977" lon="3.02836">
        <ele>1022</ele>
        <time>2016-12-30T11:45:53.008Z</time>
      </trkpt>
      <trkpt lat="45.02974" lon="3.02829">
        <ele>1022</ele>
        <time>2016-12-30T11:45:55.008Z</time>
      </trkpt>
      <trkpt lat="45.02971" lon="3.02824">
        <ele>1022</ele>
        <time>2016-12-30T11:45:57.008Z</time>
      </trkpt>
      <trkpt lat="45.02967" lon="3.02818">
        <ele>1022</ele>
        <time>2016-12-30T11:45:59.008Z</time>
      </trkpt>
      <trkpt lat="45.02964" lon="3.02812">
        <ele>1023</ele>
        <time>2016-12-30T11:46:01.008Z</time>
      </trkpt>
      <trkpt lat="45.0296" lon="3.02806">
        <ele>1023</ele>
        <time>2016-12-30T11:46:03.008Z</time>
      </trkpt>
      <trkpt lat="45.02957" lon="3.02801">
        <ele>1023</ele>
        <time>2016-12-30T11:46:05.008Z</time>
      </trkpt>
      <trkpt lat="45.02953" lon="3.02796">
        <ele>1023</ele>
        <time>2016-12-30T11:46:07.008Z</time>
      </trkpt>
      <trkpt lat="45.02949" lon="3.0279">
        <ele>1023</ele>
        <time>2016-12-30T11:46:09.008Z</time>
      </trkpt>
      <trkpt lat="45.02945" lon="3.02785">
        <ele>1025</ele>
        <time>2016-12-30T11:46:11.008Z</time>
      </trkpt>
      <trkpt lat="45.02942" lon="3.0278">
        <ele>1025</ele>
        <time>2016-12-30T11:46:13.008Z</time>
      </trkpt>
      <trkpt lat="45.02938" lon="3.02774">
        <ele>1025</ele>
        <time>2016-12-30T11:46:15.008Z</time>
      </trkpt>
      <trkpt lat="45.02935" lon="3.02768">
        <ele>1025</ele>
        <time>2016-12-30T11:46:17.008Z</time>
      </trkpt>
      <trkpt lat="45.02933" lon="3.02762">
        <ele>1025</ele>
        <time>2016-12-30T11:46:19.008Z</time>
      </trkpt>
      <trkpt lat="45.02929" lon="3.02754">
        <ele>1027</ele>
        <time>2016-12-30T11:46:22.008Z</time>
      </trkpt>
      <trkpt lat="45.02927" lon="3.02745">
        <ele>1027</ele>
        <time>2016-12-30T11:46:25.008Z</time>
      </trkpt>
      <trkpt lat="45.02924" lon="3.02737">
        <ele>1027</ele>
        <time>2016-12-30T11:46:28.008Z</time>
      </trkpt>
      <trkpt lat="45.02922" lon="3.02728">
        <ele>1029</ele>
        <time>2016-12-30T11:46:31.008Z</time>
      </trkpt>
      <trkpt lat="45.02924" lon="3.02724">
        <ele>1029</ele>
        <time>2016-12-30T11:46:33.008Z</time>
      </trkpt>
      <trkpt lat="45.02928" lon="3.02722">
        <ele>1029.8680047105</ele>
        <time>2016-12-30T11:46:35.008Z</time>
      </trkpt>
      <trkpt lat="45.0293" lon="3.02722">
        <ele>1030</ele>
        <time>2016-12-30T11:46:36.008Z</time>
      </trkpt>
      <trkpt lat="45.02933" lon="3.02723">
        <ele>1030</ele>
        <time>2016-12-30T11:46:37.008Z</time>
      </trkpt>
      <trkpt lat="45.02936" lon="3.02724">
        <ele>1030</ele>
        <time>2016-12-30T11:46:38.008Z</time>
      </trkpt>
      <trkpt lat="45.0294" lon="3.02724">
        <ele>1030</ele>
        <time>2016-12-30T11:46:39.008Z</time>
      </trkpt>
      <trkpt lat="45.02943" lon="3.02724">
        <ele>1030</ele>
        <time>2016-12-30T11:46:40.008Z</time>
      </trkpt>
      <trkpt lat="45.02947" lon="3.02723">
        <ele>1030</ele>
        <time>2016-12-30T11:46:41.008Z</time>
      </trkpt>
      <trkpt lat="45.02954" lon="3.02721">
        <ele>1030</ele>
        <time>2016-12-30T11:46:43.008Z</time>
      </trkpt>
      <trkpt lat="45.02961" lon="3.02719">
        <ele>1030</ele>
        <time>2016-12-30T11:46:45.008Z</time>
      </trkpt>
      <trkpt lat="45.02967" lon="3.02716">
        <ele>1030</ele>
        <time>2016-12-30T11:46:47.008Z</time>
      </trkpt>
      <trkpt lat="45.02973" lon="3.02714">
        <ele>1030</ele>
        <time>2016-12-30T11:46:49.008Z</time>
      </trkpt>
      <trkpt lat="45.02982" lon="3.02711">
        <ele>1031</ele>
        <time>2016-12-30T11:46:52.008Z</time>
      </trkpt>
      <trkpt lat="45.02989" lon="3.02708">
        <ele>1031</ele>
        <time>2016-12-30T11:46:55.008Z</time>
      </trkpt>
      <trkpt lat="45.02995" lon="3.02705">
        <ele>1031</ele>
        <time>2016-12-30T11:46:57.008Z</time>
      </trkpt>
      <trkpt lat="45.03001" lon="3.02703">
        <ele>1031</ele>
        <time>2016-12-30T11:46:59.008Z</time>
      </trkpt>
      <trkpt lat="45.03007" lon="3.027">
        <ele>1031</ele>
        <time>2016-12-30T11:47:01.008Z</time>
      </trkpt>
      <trkpt lat="45.03013" lon="3.02697">
        <ele>1031</ele>
        <time>2016-12-30T11:47:03.008Z</time>
      </trkpt>
      <trkpt lat="45.03019" lon="3.02695">
        <ele>1031</ele>
        <time>2016-12-30T11:47:05.008Z</time>
      </trkpt>
      <trkpt lat="45.03024" lon="3.02692">
        <ele>1031</ele>
        <time>2016-12-30T11:47:07.008Z</time>
      </trkpt>
      <trkpt lat="45.0303" lon="3.02689">
        <ele>1031</ele>
        <time>2016-12-30T11:47:09.008Z</time>
      </trkpt>
      <trkpt lat="45.03035" lon="3.02687">
        <ele>1032</ele>
        <time>2016-12-30T11:47:11.008Z</time>
      </trkpt>
      <trkpt lat="45.03041" lon="3.02684">
        <ele>1032</ele>
        <time>2016-12-30T11:47:13.008Z</time>
      </trkpt>
      <trkpt lat="45.03044" lon="3.02683">
        <ele>1032</ele>
        <time>2016-12-30T11:47:14.008Z</time>
      </trkpt>
      <trkpt lat="45.03047" lon="3.02682">
        <ele>1032</ele>
        <time>2016-12-30T11:47:15.008Z</time>
      </trkpt>
      <trkpt lat="45.03051" lon="3.02681">
        <ele>1032</ele>
        <time>2016-12-30T11:47:16.008Z</time>
      </trkpt>
      <trkpt lat="45.03054" lon="3.02679">
        <ele>1032</ele>
        <time>2016-12-30T11:47:17.008Z</time>
      </trkpt>
      <trkpt lat="45.0306" lon="3.02677">
        <ele>1032</ele>
        <time>2016-12-30T11:47:19.008Z</time>
      </trkpt>
      <trkpt lat="45.03065" lon="3.02674">
        <ele>1034</ele>
        <time>2016-12-30T11:47:21.008Z</time>
      </trkpt>
      <trkpt lat="45.03071" lon="3.02672">
        <ele>1034</ele>
        <time>2016-12-30T11:47:23.008Z</time>
      </trkpt>
      <trkpt lat="45.03078" lon="3.02669">
        <ele>1034</ele>
        <time>2016-12-30T11:47:25.008Z</time>
      </trkpt>
      <trkpt lat="45.03084" lon="3.02666">
        <ele>1034</ele>
        <time>2016-12-30T11:47:27.008Z</time>
      </trkpt>
      <trkpt lat="45.03091" lon="3.02663">
        <ele>1034</ele>
        <time>2016-12-30T11:47:29.008Z</time>
      </trkpt>
      <trkpt lat="45.03099" lon="3.02659">
        <ele>1035</ele>
        <time>2016-12-30T11:47:31.008Z</time>
      </trkpt>
      <trkpt lat="45.03107" lon="3.02655">
        <ele>1035</ele>
        <time>2016-12-30T11:47:33.008Z</time>
      </trkpt>
      <trkpt lat="45.03111" lon="3.02653">
        <ele>1035</ele>
        <time>2016-12-30T11:47:34.008Z</time>
      </trkpt>
      <trkpt lat="45.03115" lon="3.02651">
        <ele>1035</ele>
        <time>2016-12-30T11:47:35.008Z</time>
      </trkpt>
      <trkpt lat="45.03119" lon="3.0265">
        <ele>1035</ele>
        <time>2016-12-30T11:47:36.008Z</time>
      </trkpt>
      <trkpt lat="45.03128" lon="3.02646">
        <ele>1035</ele>
        <time>2016-12-30T11:47:38.008Z</time>
      </trkpt>
      <trkpt lat="45.03136" lon="3.02642">
        <ele>1035</ele>
        <time>2016-12-30T11:47:40.008Z</time>
      </trkpt>
      <trkpt lat="45.03141" lon="3.0264">
        <ele>1035</ele>
        <time>2016-12-30T11:47:41.008Z</time>
      </trkpt>
      <trkpt lat="45.0315" lon="3.02636">
        <ele>1035</ele>
        <time>2016-12-30T11:47:43.008Z</time>
      </trkpt>
      <trkpt lat="45.03161" lon="3.02632">
        <ele>1035</ele>
        <time>2016-12-30T11:47:45.008Z</time>
      </trkpt>
      <trkpt lat="45.03166" lon="3.02629">
        <ele>1035</ele>
        <time>2016-12-30T11:47:46.008Z</time>
      </trkpt>
      <trkpt lat="45.03172" lon="3.02627">
        <ele>1035</ele>
        <time>2016-12-30T11:47:47.008Z</time>
      </trkpt>
      <trkpt lat="45.03178" lon="3.02624">
        <ele>1035</ele>
        <time>2016-12-30T11:47:48.008Z</time>
      </trkpt>
      <trkpt lat="45.03183" lon="3.02622">
        <ele>1035</ele>
        <time>2016-12-30T11:47:49.008Z</time>
      </trkpt>
      <trkpt lat="45.03189" lon="3.02619">
        <ele>1035</ele>
        <time>2016-12-30T11:47:50.008Z</time>
      </trkpt>
      <trkpt lat="45.03201" lon="3.02614">
        <ele>1035</ele>
        <time>2016-12-30T11:47:52.008Z</time>
      </trkpt>
      <trkpt lat="45.03207" lon="3.02612">
        <ele>1035</ele>
        <time>2016-12-30T11:47:53.008Z</time>
      </trkpt>
      <trkpt lat="45.03213" lon="3.02609">
        <ele>1035</ele>
        <time>2016-12-30T11:47:54.008Z</time>
      </trkpt>
      <trkpt lat="45.0322" lon="3.02607">
        <ele>1035</ele>
        <time>2016-12-30T11:47:55.008Z</time>
      </trkpt>
      <trkpt lat="45.03226" lon="3.02604">
        <ele>1035</ele>
        <time>2016-12-30T11:47:56.008Z</time>
      </trkpt>
      <trkpt lat="45.03232" lon="3.02602">
        <ele>1035</ele>
        <time>2016-12-30T11:47:57.008Z</time>
      </trkpt>
      <trkpt lat="45.03239" lon="3.026">
        <ele>1035</ele>
        <time>2016-12-30T11:47:58.008Z</time>
      </trkpt>
      <trkpt lat="45.03246" lon="3.02599">
        <ele>1035</ele>
        <time>2016-12-30T11:47:59.008Z</time>
      </trkpt>
      <trkpt lat="45.03252" lon="3.02598">
        <ele>1032.396014131</ele>
        <time>2016-12-30T11:48:00.008Z</time>
      </trkpt>
      <trkpt lat="45.03259" lon="3.02597">
        <ele>1032</ele>
        <time>2016-12-30T11:48:01.008Z</time>
      </trkpt>
      <trkpt lat="45.03266" lon="3.02597">
        <ele>1032</ele>
        <time>2016-12-30T11:48:02.008Z</time>
      </trkpt>
      <trkpt lat="45.03272" lon="3.02596">
        <ele>1032</ele>
        <time>2016-12-30T11:48:03.008Z</time>
      </trkpt>
      <trkpt lat="45.03279" lon="3.02596">
        <ele>1032</ele>
        <time>2016-12-30T11:48:04.008Z</time>
      </trkpt>
      <trkpt lat="45.03286" lon="3.02596">
        <ele>1032</ele>
        <time>2016-12-30T11:48:05.008Z</time>
      </trkpt>
      <trkpt lat="45.03292" lon="3.02597">
        <ele>1032</ele>
        <time>2016-12-30T11:48:06.008Z</time>
      </trkpt>
      <trkpt lat="45.03299" lon="3.02598">
        <ele>1032</ele>
        <time>2016-12-30T11:48:07.008Z</time>
      </trkpt>
      <trkpt lat="45.03306" lon="3.02599">
        <ele>1032</ele>
        <time>2016-12-30T11:48:08.008Z</time>
      </trkpt>
      <trkpt lat="45.03312" lon="3.02601">
        <ele>1032</ele>
        <time>2016-12-30T11:48:09.008Z</time>
      </trkpt>
      <trkpt lat="45.03318" lon="3.02602">
        <ele>1032</ele>
        <time>2016-12-30T11:48:10.008Z</time>
      </trkpt>
      <trkpt lat="45.03325" lon="3.02604">
        <ele>1032</ele>
        <time>2016-12-30T11:48:11.008Z</time>
      </trkpt>
      <trkpt lat="45.03331" lon="3.02605">
        <ele>1032</ele>
        <time>2016-12-30T11:48:12.008Z</time>
      </trkpt>
      <trkpt lat="45.03337" lon="3.02606">
        <ele>1032</ele>
        <time>2016-12-30T11:48:13.008Z</time>
      </trkpt>
      <trkpt lat="45.03343" lon="3.02608">
        <ele>1032</ele>
        <time>2016-12-30T11:48:14.008Z</time>
      </trkpt>
      <trkpt lat="45.0335" lon="3.02609">
        <ele>1032</ele>
        <time>2016-12-30T11:48:15.008Z</time>
      </trkpt>
      <trkpt lat="45.03356" lon="3.02611">
        <ele>1032</ele>
        <time>2016-12-30T11:48:16.008Z</time>
      </trkpt>
      <trkpt lat="45.03362" lon="3.02613">
        <ele>1032</ele>
        <time>2016-12-30T11:48:17.008Z</time>
      </trkpt>
      <trkpt lat="45.03369" lon="3.02615">
        <ele>1032</ele>
        <time>2016-12-30T11:48:18.008Z</time>
      </trkpt>
      <trkpt lat="45.03375" lon="3.02617">
        <ele>1032</ele>
        <time>2016-12-30T11:48:19.008Z</time>
      </trkpt>
      <trkpt lat="45.03381" lon="3.02619">
        <ele>1031.1405958914</ele>
        <time>2016-12-30T11:48:20.008Z</time>
      </trkpt>
      <trkpt lat="45.03387" lon="3.02622">
        <ele>1031</ele>
        <time>2016-12-30T11:48:21.008Z</time>
      </trkpt>
      <trkpt lat="45.03394" lon="3.02624">
        <ele>1031</ele>
        <time>2016-12-30T11:48:22.008Z</time>
      </trkpt>
      <trkpt lat="45.034" lon="3.02626">
        <ele>1031</ele>
        <time>2016-12-30T11:48:23.008Z</time>
      </trkpt>
      <trkpt lat="45.03406" lon="3.02629">
        <ele>1031</ele>
        <time>2016-12-30T11:48:24.008Z</time>
      </trkpt>
      <trkpt lat="45.03413" lon="3.02631">
        <ele>1031</ele>
        <time>2016-12-30T11:48:25.008Z</time>
      </trkpt>
      <trkpt lat="45.0342" lon="3.02633">
        <ele>1031</ele>
        <time>2016-12-30T11:48:26.008Z</time>
      </trkpt>
      <trkpt lat="45.03426" lon="3.02635">
        <ele>1031</ele>
        <time>2016-12-30T11:48:27.008Z</time>
      </trkpt>
      <trkpt lat="45.03433" lon="3.02638">
        <ele>1031</ele>
        <time>2016-12-30T11:48:28.008Z</time>
      </trkpt>
      <trkpt lat="45.0344" lon="3.0264">
        <ele>1031</ele>
        <time>2016-12-30T11:48:29.008Z</time>
      </trkpt>
      <trkpt lat="45.03447" lon="3.02643">
        <ele>1030.1320047103</ele>
        <time>2016-12-30T11:48:30.008Z</time>
      </trkpt>
      <trkpt lat="45.03454" lon="3.02645">
        <ele>1030</ele>
        <time>2016-12-30T11:48:31.008Z</time>
      </trkpt>
      <trkpt lat="45.03461" lon="3.02648">
        <ele>1030</ele>
        <time>2016-12-30T11:48:32.008Z</time>
      </trkpt>
      <trkpt lat="45.03469" lon="3.0265">
        <ele>1030</ele>
        <time>2016-12-30T11:48:33.008Z</time>
      </trkpt>
      <trkpt lat="45.03476" lon="3.02652">
        <ele>1030</ele>
        <time>2016-12-30T11:48:34.008Z</time>
      </trkpt>
      <trkpt lat="45.03484" lon="3.02655">
        <ele>1030</ele>
        <time>2016-12-30T11:48:35.008Z</time>
      </trkpt>
      <trkpt lat="45.03492" lon="3.02658">
        <ele>1030</ele>
        <time>2016-12-30T11:48:36.008Z</time>
      </trkpt>
      <trkpt lat="45.035" lon="3.0266">
        <ele>1030</ele>
        <time>2016-12-30T11:48:37.008Z</time>
      </trkpt>
      <trkpt lat="45.03509" lon="3.02663">
        <ele>1030</ele>
        <time>2016-12-30T11:48:38.008Z</time>
      </trkpt>
      <trkpt lat="45.03517" lon="3.02666">
        <ele>1030</ele>
        <time>2016-12-30T11:48:39.008Z</time>
      </trkpt>
      <trkpt lat="45.03526" lon="3.02669">
        <ele>1026.5280188414</ele>
        <time>2016-12-30T11:48:40.008Z</time>
      </trkpt>
      <trkpt lat="45.03535" lon="3.02672">
        <ele>1026</ele>
        <time>2016-12-30T11:48:41.008Z</time>
      </trkpt>
      <trkpt lat="45.03544" lon="3.02676">
        <ele>1026</ele>
        <time>2016-12-30T11:48:42.008Z</time>
      </trkpt>
      <trkpt lat="45.03553" lon="3.02679">
        <ele>1026</ele>
        <time>2016-12-30T11:48:43.008Z</time>
      </trkpt>
      <trkpt lat="45.03563" lon="3.02682">
        <ele>1026</ele>
        <time>2016-12-30T11:48:44.008Z</time>
      </trkpt>
      <trkpt lat="45.03573" lon="3.02685">
        <ele>1021.6666408078</ele>
        <time>2016-12-30T11:48:45.008Z</time>
      </trkpt>
      <trkpt lat="45.03582" lon="3.02687">
        <ele>1021</ele>
        <time>2016-12-30T11:48:46.008Z</time>
      </trkpt>
      <trkpt lat="45.03592" lon="3.02689">
        <ele>1021</ele>
        <time>2016-12-30T11:48:47.008Z</time>
      </trkpt>
      <trkpt lat="45.03601" lon="3.02689">
        <ele>1021</ele>
        <time>2016-12-30T11:48:48.008Z</time>
      </trkpt>
      <trkpt lat="45.03611" lon="3.02686">
        <ele>1021</ele>
        <time>2016-12-30T11:48:49.008Z</time>
      </trkpt>
      <trkpt lat="45.0362" lon="3.02683">
        <ele>1017.5623835655</ele>
        <time>2016-12-30T11:48:50.008Z</time>
      </trkpt>
      <trkpt lat="45.03629" lon="3.02678">
        <ele>1015.2666563231</ele>
        <time>2016-12-30T11:48:51.008Z</time>
      </trkpt>
      <trkpt lat="45.03637" lon="3.02675">
        <ele>1015</ele>
        <time>2016-12-30T11:48:52.008Z</time>
      </trkpt>
      <trkpt lat="45.03646" lon="3.02671">
        <ele>1014.1319952895</ele>
        <time>2016-12-30T11:48:53.008Z</time>
      </trkpt>
      <trkpt lat="45.03654" lon="3.02667">
        <ele>1013.1320047103</ele>
        <time>2016-12-30T11:48:54.008Z</time>
      </trkpt>
      <trkpt lat="45.03661" lon="3.02664">
        <ele>1013</ele>
        <time>2016-12-30T11:48:55.008Z</time>
      </trkpt>
      <trkpt lat="45.03668" lon="3.02664">
        <ele>1012.1405958914</ele>
        <time>2016-12-30T11:48:56.008Z</time>
      </trkpt>
      <trkpt lat="45.03675" lon="3.02667">
        <ele>1012</ele>
        <time>2016-12-30T11:48:57.008Z</time>
      </trkpt>
      <trkpt lat="45.03682" lon="3.02672">
        <ele>1012</ele>
        <time>2016-12-30T11:48:58.008Z</time>
      </trkpt>
      <trkpt lat="45.03687" lon="3.02676">
        <ele>1012</ele>
        <time>2016-12-30T11:48:59.008Z</time>
      </trkpt>
      <trkpt lat="45.03694" lon="3.02679">
        <ele>1012</ele>
        <time>2016-12-30T11:49:00.008Z</time>
      </trkpt>
      <trkpt lat="45.03701" lon="3.02679">
        <ele>1012</ele>
        <time>2016-12-30T11:49:01.008Z</time>
      </trkpt>
      <trkpt lat="45.03708" lon="3.02679">
        <ele>1012</ele>
        <time>2016-12-30T11:49:02.008Z</time>
      </trkpt>
      <trkpt lat="45.03715" lon="3.02678">
        <ele>1012</ele>
        <time>2016-12-30T11:49:03.008Z</time>
      </trkpt>
      <trkpt lat="45.03721" lon="3.02677">
        <ele>1012</ele>
        <time>2016-12-30T11:49:04.008Z</time>
      </trkpt>
      <trkpt lat="45.03728" lon="3.02677">
        <ele>1012</ele>
        <time>2016-12-30T11:49:05.008Z</time>
      </trkpt>
      <trkpt lat="45.03733" lon="3.02676">
        <ele>1012</ele>
        <time>2016-12-30T11:49:06.008Z</time>
      </trkpt>
      <trkpt lat="45.03738" lon="3.02676">
        <ele>1012</ele>
        <time>2016-12-30T11:49:07.008Z</time>
      </trkpt>
      <trkpt lat="45.03743" lon="3.02676">
        <ele>1012</ele>
        <time>2016-12-30T11:49:08.008Z</time>
      </trkpt>
      <trkpt lat="45.03747" lon="3.02674">
        <ele>1012</ele>
        <time>2016-12-30T11:49:09.008Z</time>
      </trkpt>
      <trkpt lat="45.03751" lon="3.02671">
        <ele>1013.7359905793</ele>
        <time>2016-12-30T11:49:10.008Z</time>
      </trkpt>
      <trkpt lat="45.03754" lon="3.02667">
        <ele>1014</ele>
        <time>2016-12-30T11:49:11.008Z</time>
      </trkpt>
      <trkpt lat="45.03757" lon="3.02664">
        <ele>1014</ele>
        <time>2016-12-30T11:49:12.008Z</time>
      </trkpt>
      <trkpt lat="45.03762" lon="3.02661">
        <ele>1014</ele>
        <time>2016-12-30T11:49:14.008Z</time>
      </trkpt>
      <trkpt lat="45.03768" lon="3.02659">
        <ele>1014</ele>
        <time>2016-12-30T11:49:16.008Z</time>
      </trkpt>
      <trkpt lat="45.03775" lon="3.02658">
        <ele>1014</ele>
        <time>2016-12-30T11:49:18.008Z</time>
      </trkpt>
      <trkpt lat="45.03782" lon="3.02656">
        <ele>1017.4376164345</ele>
        <time>2016-12-30T11:49:20.008Z</time>
      </trkpt>
      <trkpt lat="45.03789" lon="3.02655">
        <ele>1018</ele>
        <time>2016-12-30T11:49:22.008Z</time>
      </trkpt>
      <trkpt lat="45.03795" lon="3.02654">
        <ele>1018</ele>
        <time>2016-12-30T11:49:24.008Z</time>
      </trkpt>
      <trkpt lat="45.03801" lon="3.02653">
        <ele>1022</ele>
        <time>2016-12-30T11:49:26.008Z</time>
      </trkpt>
      <trkpt lat="45.03807" lon="3.0265">
        <ele>1022</ele>
        <time>2016-12-30T11:49:28.008Z</time>
      </trkpt>
      <trkpt lat="45.03813" lon="3.02647">
        <ele>1023.7359905793</ele>
        <time>2016-12-30T11:49:30.008Z</time>
      </trkpt>
      <trkpt lat="45.03819" lon="3.02644">
        <ele>1025</ele>
        <time>2016-12-30T11:49:32.008Z</time>
      </trkpt>
      <trkpt lat="45.03822" lon="3.02642">
        <ele>1025</ele>
        <time>2016-12-30T11:49:33.008Z</time>
      </trkpt>
      <trkpt lat="45.03824" lon="3.02639">
        <ele>1025</ele>
        <time>2016-12-30T11:49:34.008Z</time>
      </trkpt>
      <trkpt lat="45.03828" lon="3.02633">
        <ele>1026</ele>
        <time>2016-12-30T11:49:36.008Z</time>
      </trkpt>
      <trkpt lat="45.03832" lon="3.02627">
        <ele>1027</ele>
        <time>2016-12-30T11:49:38.008Z</time>
      </trkpt>
      <trkpt lat="45.03835" lon="3.02625">
        <ele>1027</ele>
        <time>2016-12-30T11:49:39.008Z</time>
      </trkpt>
      <trkpt lat="45.03838" lon="3.02624">
        <ele>1027</ele>
        <time>2016-12-30T11:49:40.008Z</time>
      </trkpt>
      <trkpt lat="45.03841" lon="3.02624">
        <ele>1027</ele>
        <time>2016-12-30T11:49:41.008Z</time>
      </trkpt>
      <trkpt lat="45.03844" lon="3.02624">
        <ele>1027</ele>
        <time>2016-12-30T11:49:42.008Z</time>
      </trkpt>
      <trkpt lat="45.03847" lon="3.02625">
        <ele>1027</ele>
        <time>2016-12-30T11:49:43.008Z</time>
      </trkpt>
      <trkpt lat="45.03851" lon="3.02626">
        <ele>1027</ele>
        <time>2016-12-30T11:49:44.008Z</time>
      </trkpt>
      <trkpt lat="45.03854" lon="3.02627">
        <ele>1027</ele>
        <time>2016-12-30T11:49:45.008Z</time>
      </trkpt>
      <trkpt lat="45.03858" lon="3.02628">
        <ele>1027</ele>
        <time>2016-12-30T11:49:46.008Z</time>
      </trkpt>
      <trkpt lat="45.03862" lon="3.02629">
        <ele>1027</ele>
        <time>2016-12-30T11:49:47.008Z</time>
      </trkpt>
      <trkpt lat="45.03866" lon="3.02629">
        <ele>1027</ele>
        <time>2016-12-30T11:49:48.008Z</time>
      </trkpt>
      <trkpt lat="45.0387" lon="3.0263">
        <ele>1027</ele>
        <time>2016-12-30T11:49:49.008Z</time>
      </trkpt>
      <trkpt lat="45.03878" lon="3.02632">
        <ele>1027</ele>
        <time>2016-12-30T11:49:51.008Z</time>
      </trkpt>
      <trkpt lat="45.03887" lon="3.02633">
        <ele>1027</ele>
        <time>2016-12-30T11:49:53.008Z</time>
      </trkpt>
      <trkpt lat="45.03895" lon="3.02635">
        <ele>1027</ele>
        <time>2016-12-30T11:49:55.008Z</time>
      </trkpt>
      <trkpt lat="45.039" lon="3.02636">
        <ele>1027</ele>
        <time>2016-12-30T11:49:56.008Z</time>
      </trkpt>
      <trkpt lat="45.03909" lon="3.02639">
        <ele>1027</ele>
        <time>2016-12-30T11:49:58.008Z</time>
      </trkpt>
      <trkpt lat="45.03918" lon="3.02646">
        <ele>1027.8679952897</ele>
        <time>2016-12-30T11:50:00.008Z</time>
      </trkpt>
      <trkpt lat="45.03922" lon="3.02651">
        <ele>1028</ele>
        <time>2016-12-30T11:50:01.008Z</time>
      </trkpt>
      <trkpt lat="45.03926" lon="3.02656">
        <ele>1028</ele>
        <time>2016-12-30T11:50:02.008Z</time>
      </trkpt>
      <trkpt lat="45.0393" lon="3.02662">
        <ele>1028</ele>
        <time>2016-12-30T11:50:03.008Z</time>
      </trkpt>
      <trkpt lat="45.03934" lon="3.02667">
        <ele>1028</ele>
        <time>2016-12-30T11:50:04.008Z</time>
      </trkpt>
      <trkpt lat="45.03938" lon="3.02673">
        <ele>1028</ele>
        <time>2016-12-30T11:50:05.008Z</time>
      </trkpt>
      <trkpt lat="45.03942" lon="3.02678">
        <ele>1028</ele>
        <time>2016-12-30T11:50:06.008Z</time>
      </trkpt>
      <trkpt lat="45.03947" lon="3.02683">
        <ele>1028</ele>
        <time>2016-12-30T11:50:07.008Z</time>
      </trkpt>
      <trkpt lat="45.03952" lon="3.02687">
        <ele>1028</ele>
        <time>2016-12-30T11:50:08.008Z</time>
      </trkpt>
      <trkpt lat="45.03957" lon="3.02691">
        <ele>1028</ele>
        <time>2016-12-30T11:50:09.008Z</time>
      </trkpt>
      <trkpt lat="45.03962" lon="3.02694">
        <ele>1028</ele>
        <time>2016-12-30T11:50:10.008Z</time>
      </trkpt>
      <trkpt lat="45.03968" lon="3.02696">
        <ele>1028</ele>
        <time>2016-12-30T11:50:11.008Z</time>
      </trkpt>
      <trkpt lat="45.03974" lon="3.02698">
        <ele>1028</ele>
        <time>2016-12-30T11:50:12.008Z</time>
      </trkpt>
      <trkpt lat="45.03979" lon="3.027">
        <ele>1028</ele>
        <time>2016-12-30T11:50:13.008Z</time>
      </trkpt>
      <trkpt lat="45.03985" lon="3.02702">
        <ele>1028</ele>
        <time>2016-12-30T11:50:14.008Z</time>
      </trkpt>
      <trkpt lat="45.0399" lon="3.02704">
        <ele>1028</ele>
        <time>2016-12-30T11:50:15.008Z</time>
      </trkpt>
      <trkpt lat="45.03995" lon="3.02705">
        <ele>1028</ele>
        <time>2016-12-30T11:50:16.008Z</time>
      </trkpt>
      <trkpt lat="45.04001" lon="3.02707">
        <ele>1028</ele>
        <time>2016-12-30T11:50:17.008Z</time>
      </trkpt>
      <trkpt lat="45.04006" lon="3.02708">
        <ele>1028</ele>
        <time>2016-12-30T11:50:18.008Z</time>
      </trkpt>
      <trkpt lat="45.04011" lon="3.0271">
        <ele>1028</ele>
        <time>2016-12-30T11:50:19.008Z</time>
      </trkpt>
      <trkpt lat="45.04021" lon="3.02715">
        <ele>1029</ele>
        <time>2016-12-30T11:50:21.008Z</time>
      </trkpt>
      <trkpt lat="45.04025" lon="3.02718">
        <ele>1029</ele>
        <time>2016-12-30T11:50:22.008Z</time>
      </trkpt>
      <trkpt lat="45.0403" lon="3.02722">
        <ele>1029</ele>
        <time>2016-12-30T11:50:23.008Z</time>
      </trkpt>
      <trkpt lat="45.04035" lon="3.02725">
        <ele>1029</ele>
        <time>2016-12-30T11:50:24.008Z</time>
      </trkpt>
      <trkpt lat="45.04039" lon="3.02729">
        <ele>1029</ele>
        <time>2016-12-30T11:50:25.008Z</time>
      </trkpt>
      <trkpt lat="45.04043" lon="3.02733">
        <ele>1029</ele>
        <time>2016-12-30T11:50:26.008Z</time>
      </trkpt>
      <trkpt lat="45.04047" lon="3.02736">
        <ele>1029</ele>
        <time>2016-12-30T11:50:27.008Z</time>
      </trkpt>
      <trkpt lat="45.04051" lon="3.0274">
        <ele>1029</ele>
        <time>2016-12-30T11:50:28.008Z</time>
      </trkpt>
      <trkpt lat="45.04055" lon="3.02745">
        <ele>1029</ele>
        <time>2016-12-30T11:50:29.008Z</time>
      </trkpt>
      <trkpt lat="45.04059" lon="3.02749">
        <ele>1029</ele>
        <time>2016-12-30T11:50:30.008Z</time>
      </trkpt>
      <trkpt lat="45.04063" lon="3.02754">
        <ele>1029</ele>
        <time>2016-12-30T11:50:31.008Z</time>
      </trkpt>
      <trkpt lat="45.04066" lon="3.02759">
        <ele>1029</ele>
        <time>2016-12-30T11:50:32.008Z</time>
      </trkpt>
      <trkpt lat="45.0407" lon="3.02764">
        <ele>1029</ele>
        <time>2016-12-30T11:50:33.008Z</time>
      </trkpt>
      <trkpt lat="45.04073" lon="3.02768">
        <ele>1029</ele>
        <time>2016-12-30T11:50:34.008Z</time>
      </trkpt>
      <trkpt lat="45.04076" lon="3.02773">
        <ele>1029</ele>
        <time>2016-12-30T11:50:35.008Z</time>
      </trkpt>
      <trkpt lat="45.04079" lon="3.02778">
        <ele>1029</ele>
        <time>2016-12-30T11:50:36.008Z</time>
      </trkpt>
      <trkpt lat="45.04082" lon="3.02783">
        <ele>1029</ele>
        <time>2016-12-30T11:50:37.008Z</time>
      </trkpt>
      <trkpt lat="45.04085" lon="3.02788">
        <ele>1029</ele>
        <time>2016-12-30T11:50:38.008Z</time>
      </trkpt>
      <trkpt lat="45.04088" lon="3.02792">
        <ele>1029</ele>
        <time>2016-12-30T11:50:39.008Z</time>
      </trkpt>
      <trkpt lat="45.04091" lon="3.02797">
        <ele>1030.7359905793</ele>
        <time>2016-12-30T11:50:40.008Z</time>
      </trkpt>
      <trkpt lat="45.04094" lon="3.02801">
        <ele>1031</ele>
        <time>2016-12-30T11:50:41.008Z</time>
      </trkpt>
      <trkpt lat="45.04097" lon="3.02805">
        <ele>1031</ele>
        <time>2016-12-30T11:50:42.008Z</time>
      </trkpt>
      <trkpt lat="45.041" lon="3.02809">
        <ele>1031</ele>
        <time>2016-12-30T11:50:43.008Z</time>
      </trkpt>
      <trkpt lat="45.04107" lon="3.02816">
        <ele>1031</ele>
        <time>2016-12-30T11:50:45.008Z</time>
      </trkpt>
      <trkpt lat="45.04113" lon="3.02823">
        <ele>1031</ele>
        <time>2016-12-30T11:50:47.008Z</time>
      </trkpt>
      <trkpt lat="45.04117" lon="3.02826">
        <ele>1031</ele>
        <time>2016-12-30T11:50:48.008Z</time>
      </trkpt>
      <trkpt lat="45.0412" lon="3.0283">
        <ele>1031</ele>
        <time>2016-12-30T11:50:49.008Z</time>
      </trkpt>
      <trkpt lat="45.04124" lon="3.02833">
        <ele>1031.8594041086</ele>
        <time>2016-12-30T11:50:50.008Z</time>
      </trkpt>
      <trkpt lat="45.04127" lon="3.02836">
        <ele>1032</ele>
        <time>2016-12-30T11:50:51.008Z</time>
      </trkpt>
      <trkpt lat="45.04131" lon="3.0284">
        <ele>1032</ele>
        <time>2016-12-30T11:50:52.008Z</time>
      </trkpt>
      <trkpt lat="45.04135" lon="3.02844">
        <ele>1032</ele>
        <time>2016-12-30T11:50:53.008Z</time>
      </trkpt>
      <trkpt lat="45.04139" lon="3.02848">
        <ele>1032</ele>
        <time>2016-12-30T11:50:54.008Z</time>
      </trkpt>
      <trkpt lat="45.04143" lon="3.02853">
        <ele>1032</ele>
        <time>2016-12-30T11:50:55.008Z</time>
      </trkpt>
      <trkpt lat="45.04147" lon="3.02857">
        <ele>1032</ele>
        <time>2016-12-30T11:50:56.008Z</time>
      </trkpt>
      <trkpt lat="45.04151" lon="3.02862">
        <ele>1032</ele>
        <time>2016-12-30T11:50:57.008Z</time>
      </trkpt>
      <trkpt lat="45.04155" lon="3.02867">
        <ele>1032</ele>
        <time>2016-12-30T11:50:58.008Z</time>
      </trkpt>
      <trkpt lat="45.0416" lon="3.02872">
        <ele>1032</ele>
        <time>2016-12-30T11:50:59.008Z</time>
      </trkpt>
      <trkpt lat="45.04164" lon="3.02877">
        <ele>1032</ele>
        <time>2016-12-30T11:51:00.008Z</time>
      </trkpt>
      <trkpt lat="45.04168" lon="3.02881">
        <ele>1032</ele>
        <time>2016-12-30T11:51:01.008Z</time>
      </trkpt>
      <trkpt lat="45.04173" lon="3.02886">
        <ele>1032</ele>
        <time>2016-12-30T11:51:02.008Z</time>
      </trkpt>
      <trkpt lat="45.04177" lon="3.0289">
        <ele>1032</ele>
        <time>2016-12-30T11:51:03.008Z</time>
      </trkpt>
      <trkpt lat="45.04181" lon="3.02895">
        <ele>1032</ele>
        <time>2016-12-30T11:51:04.008Z</time>
      </trkpt>
      <trkpt lat="45.04185" lon="3.02899">
        <ele>1032</ele>
        <time>2016-12-30T11:51:05.008Z</time>
      </trkpt>
      <trkpt lat="45.0419" lon="3.02904">
        <ele>1032</ele>
        <time>2016-12-30T11:51:06.008Z</time>
      </trkpt>
      <trkpt lat="45.04194" lon="3.02909">
        <ele>1032</ele>
        <time>2016-12-30T11:51:07.008Z</time>
      </trkpt>
      <trkpt lat="45.04198" lon="3.02914">
        <ele>1032</ele>
        <time>2016-12-30T11:51:08.008Z</time>
      </trkpt>
      <trkpt lat="45.04202" lon="3.02919">
        <ele>1032</ele>
        <time>2016-12-30T11:51:09.008Z</time>
      </trkpt>
      <trkpt lat="45.04207" lon="3.02923">
        <ele>1032</ele>
        <time>2016-12-30T11:51:10.008Z</time>
      </trkpt>
      <trkpt lat="45.04211" lon="3.02928">
        <ele>1032</ele>
        <time>2016-12-30T11:51:11.008Z</time>
      </trkpt>
      <trkpt lat="45.04215" lon="3.02933">
        <ele>1032</ele>
        <time>2016-12-30T11:51:12.008Z</time>
      </trkpt>
      <trkpt lat="45.04219" lon="3.02938">
        <ele>1032</ele>
        <time>2016-12-30T11:51:13.008Z</time>
      </trkpt>
      <trkpt lat="45.04223" lon="3.02943">
        <ele>1032</ele>
        <time>2016-12-30T11:51:14.008Z</time>
      </trkpt>
      <trkpt lat="45.04227" lon="3.02948">
        <ele>1032</ele>
        <time>2016-12-30T11:51:15.008Z</time>
      </trkpt>
      <trkpt lat="45.04231" lon="3.02954">
        <ele>1032</ele>
        <time>2016-12-30T11:51:16.008Z</time>
      </trkpt>
      <trkpt lat="45.04235" lon="3.0296">
        <ele>1032</ele>
        <time>2016-12-30T11:51:17.008Z</time>
      </trkpt>
      <trkpt lat="45.04239" lon="3.02966">
        <ele>1032</ele>
        <time>2016-12-30T11:51:18.008Z</time>
      </trkpt>
      <trkpt lat="45.04243" lon="3.02972">
        <ele>1032</ele>
        <time>2016-12-30T11:51:19.008Z</time>
      </trkpt>
      <trkpt lat="45.04249" lon="3.02986">
        <ele>1031</ele>
        <time>2016-12-30T11:51:21.008Z</time>
      </trkpt>
      <trkpt lat="45.04252" lon="3.02993">
        <ele>1031</ele>
        <time>2016-12-30T11:51:22.008Z</time>
      </trkpt>
      <trkpt lat="45.04255" lon="3.03001">
        <ele>1031</ele>
        <time>2016-12-30T11:51:23.008Z</time>
      </trkpt>
      <trkpt lat="45.04258" lon="3.03009">
        <ele>1031</ele>
        <time>2016-12-30T11:51:24.008Z</time>
      </trkpt>
      <trkpt lat="45.0426" lon="3.03016">
        <ele>1031</ele>
        <time>2016-12-30T11:51:25.008Z</time>
      </trkpt>
      <trkpt lat="45.04263" lon="3.03024">
        <ele>1031</ele>
        <time>2016-12-30T11:51:26.008Z</time>
      </trkpt>
      <trkpt lat="45.04266" lon="3.03032">
        <ele>1031</ele>
        <time>2016-12-30T11:51:27.008Z</time>
      </trkpt>
      <trkpt lat="45.04269" lon="3.03039">
        <ele>1031</ele>
        <time>2016-12-30T11:51:28.008Z</time>
      </trkpt>
      <trkpt lat="45.04272" lon="3.03047">
        <ele>1031</ele>
        <time>2016-12-30T11:51:29.008Z</time>
      </trkpt>
      <trkpt lat="45.04275" lon="3.03054">
        <ele>1030.1320047103</ele>
        <time>2016-12-30T11:51:30.008Z</time>
      </trkpt>
      <trkpt lat="45.04282" lon="3.03068">
        <ele>1030</ele>
        <time>2016-12-30T11:51:32.008Z</time>
      </trkpt>
      <trkpt lat="45.04289" lon="3.03081">
        <ele>1030</ele>
        <time>2016-12-30T11:51:34.008Z</time>
      </trkpt>
      <trkpt lat="45.04295" lon="3.03095">
        <ele>1030</ele>
        <time>2016-12-30T11:51:36.008Z</time>
      </trkpt>
      <trkpt lat="45.04302" lon="3.03109">
        <ele>1030</ele>
        <time>2016-12-30T11:51:38.008Z</time>
      </trkpt>
      <trkpt lat="45.04305" lon="3.03115">
        <ele>1030</ele>
        <time>2016-12-30T11:51:39.008Z</time>
      </trkpt>
      <trkpt lat="45.04311" lon="3.03129">
        <ele>1029</ele>
        <time>2016-12-30T11:51:41.008Z</time>
      </trkpt>
      <trkpt lat="45.04315" lon="3.03136">
        <ele>1029</ele>
        <time>2016-12-30T11:51:42.008Z</time>
      </trkpt>
      <trkpt lat="45.04318" lon="3.03142">
        <ele>1029</ele>
        <time>2016-12-30T11:51:43.008Z</time>
      </trkpt>
      <trkpt lat="45.04325" lon="3.03156">
        <ele>1029</ele>
        <time>2016-12-30T11:51:45.008Z</time>
      </trkpt>
      <trkpt lat="45.04329" lon="3.03163">
        <ele>1029</ele>
        <time>2016-12-30T11:51:46.008Z</time>
      </trkpt>
      <trkpt lat="45.04332" lon="3.0317">
        <ele>1029</ele>
        <time>2016-12-30T11:51:47.008Z</time>
      </trkpt>
      <trkpt lat="45.04336" lon="3.03177">
        <ele>1029</ele>
        <time>2016-12-30T11:51:48.008Z</time>
      </trkpt>
      <trkpt lat="45.0434" lon="3.03184">
        <ele>1029</ele>
        <time>2016-12-30T11:51:49.008Z</time>
      </trkpt>
      <trkpt lat="45.04343" lon="3.03192">
        <ele>1028.1405958914</ele>
        <time>2016-12-30T11:51:50.008Z</time>
      </trkpt>
      <trkpt lat="45.04347" lon="3.032">
        <ele>1028</ele>
        <time>2016-12-30T11:51:51.008Z</time>
      </trkpt>
      <trkpt lat="45.0435" lon="3.03208">
        <ele>1028</ele>
        <time>2016-12-30T11:51:52.008Z</time>
      </trkpt>
      <trkpt lat="45.04352" lon="3.03217">
        <ele>1028</ele>
        <time>2016-12-30T11:51:53.008Z</time>
      </trkpt>
      <trkpt lat="45.04355" lon="3.03226">
        <ele>1028</ele>
        <time>2016-12-30T11:51:54.008Z</time>
      </trkpt>
      <trkpt lat="45.04357" lon="3.03235">
        <ele>1028</ele>
        <time>2016-12-30T11:51:55.008Z</time>
      </trkpt>
      <trkpt lat="45.04359" lon="3.03243">
        <ele>1028</ele>
        <time>2016-12-30T11:51:56.008Z</time>
      </trkpt>
      <trkpt lat="45.04361" lon="3.03251">
        <ele>1028</ele>
        <time>2016-12-30T11:51:57.008Z</time>
      </trkpt>
      <trkpt lat="45.04362" lon="3.03259">
        <ele>1028</ele>
        <time>2016-12-30T11:51:58.008Z</time>
      </trkpt>
      <trkpt lat="45.04364" lon="3.03267">
        <ele>1028</ele>
        <time>2016-12-30T11:51:59.008Z</time>
      </trkpt>
      <trkpt lat="45.04366" lon="3.03275">
        <ele>1026.3473794126</ele>
        <time>2016-12-30T11:52:00.008Z</time>
      </trkpt>
      <trkpt lat="45.04369" lon="3.03283">
        <ele>1026</ele>
        <time>2016-12-30T11:52:01.008Z</time>
      </trkpt>
      <trkpt lat="45.04373" lon="3.03299">
        <ele>1026</ele>
        <time>2016-12-30T11:52:03.008Z</time>
      </trkpt>
      <trkpt lat="45.04375" lon="3.03308">
        <ele>1026</ele>
        <time>2016-12-30T11:52:04.008Z</time>
      </trkpt>
      <trkpt lat="45.04378" lon="3.03316">
        <ele>1025.1319952895</ele>
        <time>2016-12-30T11:52:05.008Z</time>
      </trkpt>
      <trkpt lat="45.0438" lon="3.03325">
        <ele>1025</ele>
        <time>2016-12-30T11:52:06.008Z</time>
      </trkpt>
      <trkpt lat="45.04382" lon="3.03334">
        <ele>1025</ele>
        <time>2016-12-30T11:52:07.008Z</time>
      </trkpt>
      <trkpt lat="45.04385" lon="3.03343">
        <ele>1025</ele>
        <time>2016-12-30T11:52:08.008Z</time>
      </trkpt>
      <trkpt lat="45.04388" lon="3.03351">
        <ele>1025</ele>
        <time>2016-12-30T11:52:09.008Z</time>
      </trkpt>
      <trkpt lat="45.0439" lon="3.0336">
        <ele>1024.1320047103</ele>
        <time>2016-12-30T11:52:10.008Z</time>
      </trkpt>
      <trkpt lat="45.04393" lon="3.03369">
        <ele>1024</ele>
        <time>2016-12-30T11:52:11.008Z</time>
      </trkpt>
      <trkpt lat="45.04395" lon="3.03378">
        <ele>1024</ele>
        <time>2016-12-30T11:52:12.008Z</time>
      </trkpt>
      <trkpt lat="45.04398" lon="3.03386">
        <ele>1024</ele>
        <time>2016-12-30T11:52:13.008Z</time>
      </trkpt>
      <trkpt lat="45.044" lon="3.03395">
        <ele>1024</ele>
        <time>2016-12-30T11:52:14.008Z</time>
      </trkpt>
      <trkpt lat="45.04402" lon="3.03403">
        <ele>1024</ele>
        <time>2016-12-30T11:52:15.008Z</time>
      </trkpt>
      <trkpt lat="45.04404" lon="3.03411">
        <ele>1024</ele>
        <time>2016-12-30T11:52:16.008Z</time>
      </trkpt>
      <trkpt lat="45.04407" lon="3.03419">
        <ele>1024</ele>
        <time>2016-12-30T11:52:17.008Z</time>
      </trkpt>
      <trkpt lat="45.0441" lon="3.03426">
        <ele>1024</ele>
        <time>2016-12-30T11:52:18.008Z</time>
      </trkpt>
      <trkpt lat="45.04413" lon="3.03433">
        <ele>1024</ele>
        <time>2016-12-30T11:52:19.008Z</time>
      </trkpt>
      <trkpt lat="45.04418" lon="3.03438">
        <ele>1023.1405958914</ele>
        <time>2016-12-30T11:52:20.008Z</time>
      </trkpt>
      <trkpt lat="45.04423" lon="3.03444">
        <ele>1023</ele>
        <time>2016-12-30T11:52:21.008Z</time>
      </trkpt>
      <trkpt lat="45.04428" lon="3.03449">
        <ele>1023</ele>
        <time>2016-12-30T11:52:22.008Z</time>
      </trkpt>
      <trkpt lat="45.04439" lon="3.03459">
        <ele>1023</ele>
        <time>2016-12-30T11:52:24.008Z</time>
      </trkpt>
      <trkpt lat="45.04451" lon="3.03464">
        <ele>1023</ele>
        <time>2016-12-30T11:52:26.008Z</time>
      </trkpt>
      <trkpt lat="45.04464" lon="3.03465">
        <ele>1023</ele>
        <time>2016-12-30T11:52:28.008Z</time>
      </trkpt>
      <trkpt lat="45.04475" lon="3.03462">
        <ele>1022.1320047103</ele>
        <time>2016-12-30T11:52:30.008Z</time>
      </trkpt>
      <trkpt lat="45.04484" lon="3.03464">
        <ele>1022</ele>
        <time>2016-12-30T11:52:34.008Z</time>
      </trkpt>
      <trkpt lat="45.04477" lon="3.03477">
        <ele>1022</ele>
        <time>2016-12-30T11:52:37.008Z</time>
      </trkpt>
      <trkpt lat="45.04469" lon="3.03495">
        <ele>1017.6600235517</ele>
        <time>2016-12-30T11:52:40.008Z</time>
      </trkpt>
      <trkpt lat="45.04466" lon="3.03513">
        <ele>1017</ele>
        <time>2016-12-30T11:52:42.008Z</time>
      </trkpt>
      <trkpt lat="45.04467" lon="3.03525">
        <ele>1017</ele>
        <time>2016-12-30T11:52:44.008Z</time>
      </trkpt>
      <trkpt lat="45.04474" lon="3.0353">
        <ele>1012</ele>
        <time>2016-12-30T11:52:46.008Z</time>
      </trkpt>
      <trkpt lat="45.04484" lon="3.03524">
        <ele>1012</ele>
        <time>2016-12-30T11:52:48.008Z</time>
      </trkpt>
      <trkpt lat="45.04495" lon="3.03512">
        <ele>1010.2811917827</ele>
        <time>2016-12-30T11:52:50.008Z</time>
      </trkpt>
      <trkpt lat="45.04504" lon="3.03499">
        <ele>1007.1320047103</ele>
        <time>2016-12-30T11:52:52.008Z</time>
      </trkpt>
      <trkpt lat="45.04513" lon="3.03484">
        <ele>1005.1320047103</ele>
        <time>2016-12-30T11:52:54.008Z</time>
      </trkpt>
      <trkpt lat="45.04521" lon="3.03468">
        <ele>1002.1405958914</ele>
        <time>2016-12-30T11:52:56.008Z</time>
      </trkpt>
      <trkpt lat="45.04527" lon="3.03449">
        <ele>1001</ele>
        <time>2016-12-30T11:52:58.008Z</time>
      </trkpt>
      <trkpt lat="45.04531" lon="3.03434">
        <ele>1001</ele>
        <time>2016-12-30T11:53:00.008Z</time>
      </trkpt>
      <trkpt lat="45.0453" lon="3.03417">
        <ele>1001</ele>
        <time>2016-12-30T11:53:03.008Z</time>
      </trkpt>
      <trkpt lat="45.04533" lon="3.03398">
        <ele>999</ele>
        <time>2016-12-30T11:53:06.008Z</time>
      </trkpt>
      <trkpt lat="45.04537" lon="3.03389">
        <ele>998</ele>
        <time>2016-12-30T11:53:08.008Z</time>
      </trkpt>
      <trkpt lat="45.04547" lon="3.03381">
        <ele>997</ele>
        <time>2016-12-30T11:53:11.008Z</time>
      </trkpt>
      <trkpt lat="45.04555" lon="3.03372">
        <ele>997</ele>
        <time>2016-12-30T11:53:13.008Z</time>
      </trkpt>
      <trkpt lat="45.04562" lon="3.03362">
        <ele>995.26665632313</ele>
        <time>2016-12-30T11:53:15.008Z</time>
      </trkpt>
      <trkpt lat="45.04567" lon="3.0335">
        <ele>995</ele>
        <time>2016-12-30T11:53:17.008Z</time>
      </trkpt>
      <trkpt lat="45.04567" lon="3.03328">
        <ele>990.70297945683</ele>
        <time>2016-12-30T11:53:20.008Z</time>
      </trkpt>
      <trkpt lat="45.04577" lon="3.03303">
        <ele>989</ele>
        <time>2016-12-30T11:53:24.008Z</time>
      </trkpt>
      <trkpt lat="45.04582" lon="3.03289">
        <ele>988</ele>
        <time>2016-12-30T11:53:26.008Z</time>
      </trkpt>
      <trkpt lat="45.04587" lon="3.03272">
        <ele>988.13199528954</ele>
        <time>2016-12-30T11:53:29.008Z</time>
      </trkpt>
      <trkpt lat="45.04592" lon="3.03256">
        <ele>988</ele>
        <time>2016-12-30T11:53:32.008Z</time>
      </trkpt>
      <trkpt lat="45.046" lon="3.0326">
        <ele>988</ele>
        <time>2016-12-30T11:53:37.008Z</time>
      </trkpt>
      <trkpt lat="45.04596" lon="3.03278">
        <ele>987</ele>
        <time>2016-12-30T11:53:44.008Z</time>
      </trkpt>
      <trkpt lat="45.04601" lon="3.03283">
        <ele>987</ele>
        <time>2016-12-30T11:54:24.008Z</time>
      </trkpt>
      <trkpt lat="45.04601" lon="3.03293">
        <ele>986</ele>
        <time>2016-12-30T11:54:32.008Z</time>
      </trkpt>
      <trkpt lat="45.04601" lon="3.03306">
        <ele>986</ele>
        <time>2016-12-30T11:54:35.008Z</time>
      </trkpt>
      <trkpt lat="45.04602" lon="3.03317">
        <ele>986</ele>
        <time>2016-12-30T11:54:37.008Z</time>
      </trkpt>
      <trkpt lat="45.04604" lon="3.03331">
        <ele>986</ele>
        <time>2016-12-30T11:54:39.008Z</time>
      </trkpt>
      <trkpt lat="45.04609" lon="3.03348">
        <ele>978.39598586862</ele>
        <time>2016-12-30T11:54:41.008Z</time>
      </trkpt>
      <trkpt lat="45.04614" lon="3.03363">
        <ele>976.26399057908</ele>
        <time>2016-12-30T11:54:43.008Z</time>
      </trkpt>
      <trkpt lat="45.04621" lon="3.03385">
        <ele>975.13200471034</ele>
        <time>2016-12-30T11:54:46.008Z</time>
      </trkpt>
      <trkpt lat="45.04626" lon="3.03399">
        <ele>973.13200471034</ele>
        <time>2016-12-30T11:54:48.008Z</time>
      </trkpt>
      <trkpt lat="45.04628" lon="3.03417">
        <ele>969.28119178273</ele>
        <time>2016-12-30T11:54:50.008Z</time>
      </trkpt>
      <trkpt lat="45.0463" lon="3.03434">
        <ele>967.13200471034</ele>
        <time>2016-12-30T11:54:52.008Z</time>
      </trkpt>
      <trkpt lat="45.04632" lon="3.03452">
        <ele>966.13200471034</ele>
        <time>2016-12-30T11:54:54.008Z</time>
      </trkpt>
      <trkpt lat="45.04632" lon="3.03469">
        <ele>965</ele>
        <time>2016-12-30T11:54:56.008Z</time>
      </trkpt>
      <trkpt lat="45.0463" lon="3.03486">
        <ele>964.14059589137</ele>
        <time>2016-12-30T11:54:58.008Z</time>
      </trkpt>
      <trkpt lat="45.04629" lon="3.03503">
        <ele>962.26400942068</ele>
        <time>2016-12-30T11:55:00.008Z</time>
      </trkpt>
      <trkpt lat="45.04629" lon="3.0352">
        <ele>960.28119178273</ele>
        <time>2016-12-30T11:55:02.008Z</time>
      </trkpt>
      <trkpt lat="45.04632" lon="3.03546">
        <ele>958</ele>
        <time>2016-12-30T11:55:05.008Z</time>
      </trkpt>
      <trkpt lat="45.04635" lon="3.03563">
        <ele>955.13199528954</ele>
        <time>2016-12-30T11:55:07.008Z</time>
      </trkpt>
      <trkpt lat="45.04639" lon="3.03581">
        <ele>952.26665632313</ele>
        <time>2016-12-30T11:55:09.008Z</time>
      </trkpt>
      <trkpt lat="45.04643" lon="3.03597">
        <ele>951.86800471046</ele>
        <time>2016-12-30T11:55:11.008Z</time>
      </trkpt>
      <trkpt lat="45.04645" lon="3.03611">
        <ele>951.13199528954</ele>
        <time>2016-12-30T11:55:13.008Z</time>
      </trkpt>
      <trkpt lat="45.04641" lon="3.03625">
        <ele>951</ele>
        <time>2016-12-30T11:55:15.008Z</time>
      </trkpt>
      <trkpt lat="45.04638" lon="3.03638">
        <ele>952</ele>
        <time>2016-12-30T11:55:17.008Z</time>
      </trkpt>
      <trkpt lat="45.04637" lon="3.0365">
        <ele>952</ele>
        <time>2016-12-30T11:55:19.008Z</time>
      </trkpt>
      <trkpt lat="45.04635" lon="3.03664">
        <ele>953</ele>
        <time>2016-12-30T11:55:21.008Z</time>
      </trkpt>
      <trkpt lat="45.04634" lon="3.03676">
        <ele>953</ele>
        <time>2016-12-30T11:55:23.008Z</time>
      </trkpt>
      <trkpt lat="45.04636" lon="3.03688">
        <ele>953</ele>
        <time>2016-12-30T11:55:25.008Z</time>
      </trkpt>
      <trkpt lat="45.04641" lon="3.03705">
        <ele>953</ele>
        <time>2016-12-30T11:55:28.008Z</time>
      </trkpt>
      <trkpt lat="45.04653" lon="3.03707">
        <ele>949</ele>
        <time>2016-12-30T11:55:31.008Z</time>
      </trkpt>
      <trkpt lat="45.04671" lon="3.03706">
        <ele>949</ele>
        <time>2016-12-30T11:55:34.008Z</time>
      </trkpt>
      <trkpt lat="45.04682" lon="3.03707">
        <ele>943</ele>
        <time>2016-12-30T11:55:36.008Z</time>
      </trkpt>
      <trkpt lat="45.04692" lon="3.03707">
        <ele>943</ele>
        <time>2016-12-30T11:55:38.008Z</time>
      </trkpt>
      <trkpt lat="45.04703" lon="3.03709">
        <ele>937.26399057908</ele>
        <time>2016-12-30T11:55:41.008Z</time>
      </trkpt>
      <trkpt lat="45.04713" lon="3.0371">
        <ele>934.26399057908</ele>
        <time>2016-12-30T11:55:43.008Z</time>
      </trkpt>
      <trkpt lat="45.04722" lon="3.03711">
        <ele>933</ele>
        <time>2016-12-30T11:55:45.008Z</time>
      </trkpt>
      <trkpt lat="45.0473" lon="3.03707">
        <ele>932.13332816157</ele>
        <time>2016-12-30T11:55:47.008Z</time>
      </trkpt>
      <trkpt lat="45.04736" lon="3.03701">
        <ele>931</ele>
        <time>2016-12-30T11:55:49.008Z</time>
      </trkpt>
      <trkpt lat="45.04742" lon="3.03695">
        <ele>929.26665632313</ele>
        <time>2016-12-30T11:55:51.008Z</time>
      </trkpt>
      <trkpt lat="45.04749" lon="3.03692">
        <ele>928</ele>
        <time>2016-12-30T11:55:53.008Z</time>
      </trkpt>
      <trkpt lat="45.04758" lon="3.03695">
        <ele>926.26400942068</ele>
        <time>2016-12-30T11:56:10.008Z</time>
      </trkpt>
      <trkpt lat="45.04776" lon="3.03694">
        <ele>926</ele>
        <time>2016-12-30T11:56:14.008Z</time>
      </trkpt>
      <trkpt lat="45.04785" lon="3.03697">
        <ele>926</ele>
        <time>2016-12-30T11:56:16.008Z</time>
      </trkpt>
      <trkpt lat="45.04793" lon="3.03702">
        <ele>926</ele>
        <time>2016-12-30T11:56:18.008Z</time>
      </trkpt>
      <trkpt lat="45.04799" lon="3.03705">
        <ele>926</ele>
        <time>2016-12-30T11:56:19.008Z</time>
      </trkpt>
      <trkpt lat="45.04804" lon="3.03709">
        <ele>919.98417123956</ele>
        <time>2016-12-30T11:56:20.008Z</time>
      </trkpt>
      <trkpt lat="45.0481" lon="3.03713">
        <ele>915.53331264626</ele>
        <time>2016-12-30T11:56:21.008Z</time>
      </trkpt>
      <trkpt lat="45.04819" lon="3.03722">
        <ele>913</ele>
        <time>2016-12-30T11:56:23.008Z</time>
      </trkpt>
      <trkpt lat="45.04825" lon="3.03736">
        <ele>910.13199528954</ele>
        <time>2016-12-30T11:56:25.008Z</time>
      </trkpt>
      <trkpt lat="45.04832" lon="3.0375">
        <ele>907.26665632313</ele>
        <time>2016-12-30T11:56:27.008Z</time>
      </trkpt>
      <trkpt lat="45.04841" lon="3.03759">
        <ele>904.14059767318</ele>
        <time>2016-12-30T11:56:29.008Z</time>
      </trkpt>
      <trkpt lat="45.04852" lon="3.03759">
        <ele>904</ele>
        <time>2016-12-30T11:56:31.008Z</time>
      </trkpt>
      <trkpt lat="45.04864" lon="3.03752">
        <ele>903</ele>
        <time>2016-12-30T11:56:33.008Z</time>
      </trkpt>
      <trkpt lat="45.04875" lon="3.03746">
        <ele>899.13199528954</ele>
        <time>2016-12-30T11:56:35.008Z</time>
      </trkpt>
      <trkpt lat="45.04887" lon="3.03746">
        <ele>897.13199528954</ele>
        <time>2016-12-30T11:56:37.008Z</time>
      </trkpt>
      <trkpt lat="45.04905" lon="3.03754">
        <ele>893.26400942068</ele>
        <time>2016-12-30T11:56:40.008Z</time>
      </trkpt>
      <trkpt lat="45.04911" lon="3.03758">
        <ele>893</ele>
        <time>2016-12-30T11:56:41.008Z</time>
      </trkpt>
      <trkpt lat="45.04924" lon="3.03769">
        <ele>891.13199528954</ele>
        <time>2016-12-30T11:56:43.008Z</time>
      </trkpt>
      <trkpt lat="45.04931" lon="3.03775">
        <ele>890.14059589137</ele>
        <time>2016-12-30T11:56:44.008Z</time>
      </trkpt>
      <trkpt lat="45.04939" lon="3.03781">
        <ele>889.13332816157</ele>
        <time>2016-12-30T11:56:45.008Z</time>
      </trkpt>
      <trkpt lat="45.04945" lon="3.03788">
        <ele>888.13200471034</ele>
        <time>2016-12-30T11:56:46.008Z</time>
      </trkpt>
      <trkpt lat="45.04952" lon="3.03795">
        <ele>888</ele>
        <time>2016-12-30T11:56:47.008Z</time>
      </trkpt>
      <trkpt lat="45.04957" lon="3.03802">
        <ele>886.26400942068</ele>
        <time>2016-12-30T11:56:48.008Z</time>
      </trkpt>
      <trkpt lat="45.04963" lon="3.03809">
        <ele>885.13199528954</ele>
        <time>2016-12-30T11:56:49.008Z</time>
      </trkpt>
      <trkpt lat="45.04974" lon="3.03823">
        <ele>883.26665632313</ele>
        <time>2016-12-30T11:56:51.008Z</time>
      </trkpt>
      <trkpt lat="45.04986" lon="3.03835">
        <ele>881.13199528954</ele>
        <time>2016-12-30T11:56:53.008Z</time>
      </trkpt>
      <trkpt lat="45.04998" lon="3.03843">
        <ele>879.26399057908</ele>
        <time>2016-12-30T11:56:55.008Z</time>
      </trkpt>
      <trkpt lat="45.05014" lon="3.03844">
        <ele>877.13332816157</ele>
        <time>2016-12-30T11:56:57.008Z</time>
      </trkpt>
      <trkpt lat="45.0503" lon="3.03843">
        <ele>877</ele>
        <time>2016-12-30T11:56:59.008Z</time>
      </trkpt>
      <trkpt lat="45.05045" lon="3.03844">
        <ele>876</ele>
        <time>2016-12-30T11:57:01.008Z</time>
      </trkpt>
      <trkpt lat="45.05059" lon="3.03842">
        <ele>875</ele>
        <time>2016-12-30T11:57:03.008Z</time>
      </trkpt>
      <trkpt lat="45.05064" lon="3.03839">
        <ele>875</ele>
        <time>2016-12-30T11:57:04.008Z</time>
      </trkpt>
      <trkpt lat="45.0507" lon="3.03835">
        <ele>874.13199528954</ele>
        <time>2016-12-30T11:57:05.008Z</time>
      </trkpt>
      <trkpt lat="45.05079" lon="3.03827">
        <ele>873.13199528954</ele>
        <time>2016-12-30T11:57:07.008Z</time>
      </trkpt>
      <trkpt lat="45.05084" lon="3.03823">
        <ele>873</ele>
        <time>2016-12-30T11:57:08.008Z</time>
      </trkpt>
      <trkpt lat="45.05089" lon="3.03822">
        <ele>872.13332816157</ele>
        <time>2016-12-30T11:57:09.008Z</time>
      </trkpt>
      <trkpt lat="45.05095" lon="3.03822">
        <ele>871.13200471034</ele>
        <time>2016-12-30T11:57:10.008Z</time>
      </trkpt>
      <trkpt lat="45.05105" lon="3.0383">
        <ele>871</ele>
        <time>2016-12-30T11:57:12.008Z</time>
      </trkpt>
      <trkpt lat="45.05109" lon="3.03835">
        <ele>871</ele>
        <time>2016-12-30T11:57:13.008Z</time>
      </trkpt>
      <trkpt lat="45.05113" lon="3.03841">
        <ele>871</ele>
        <time>2016-12-30T11:57:14.008Z</time>
      </trkpt>
      <trkpt lat="45.05117" lon="3.03846">
        <ele>871</ele>
        <time>2016-12-30T11:57:15.008Z</time>
      </trkpt>
      <trkpt lat="45.05121" lon="3.03852">
        <ele>871</ele>
        <time>2016-12-30T11:57:16.008Z</time>
      </trkpt>
      <trkpt lat="45.05124" lon="3.03858">
        <ele>871</ele>
        <time>2016-12-30T11:57:17.008Z</time>
      </trkpt>
      <trkpt lat="45.05128" lon="3.03863">
        <ele>871</ele>
        <time>2016-12-30T11:57:18.008Z</time>
      </trkpt>
      <trkpt lat="45.05131" lon="3.03869">
        <ele>871</ele>
        <time>2016-12-30T11:57:19.008Z</time>
      </trkpt>
      <trkpt lat="45.05138" lon="3.03882">
        <ele>870</ele>
        <time>2016-12-30T11:57:21.008Z</time>
      </trkpt>
      <trkpt lat="45.0514" lon="3.03888">
        <ele>870</ele>
        <time>2016-12-30T11:57:22.008Z</time>
      </trkpt>
      <trkpt lat="45.0514" lon="3.03895">
        <ele>870</ele>
        <time>2016-12-30T11:57:23.008Z</time>
      </trkpt>
      <trkpt lat="45.05142" lon="3.03901">
        <ele>870</ele>
        <time>2016-12-30T11:57:24.008Z</time>
      </trkpt>
      <trkpt lat="45.05144" lon="3.03905">
        <ele>870</ele>
        <time>2016-12-30T11:57:25.008Z</time>
      </trkpt>
      <trkpt lat="45.05148" lon="3.03908">
        <ele>870</ele>
        <time>2016-12-30T11:57:27.008Z</time>
      </trkpt>
      <trkpt lat="45.05152" lon="3.03906">
        <ele>870</ele>
        <time>2016-12-30T11:57:29.008Z</time>
      </trkpt>
      <trkpt lat="45.05155" lon="3.03905">
        <ele>870</ele>
        <time>2016-12-30T11:57:32.008Z</time>
      </trkpt>
      <trkpt lat="45.05161" lon="3.03902">
        <ele>870</ele>
        <time>2016-12-30T11:57:36.008Z</time>
      </trkpt>
      <trkpt lat="45.05166" lon="3.039">
        <ele>870</ele>
        <time>2016-12-30T11:57:39.008Z</time>
      </trkpt>
      <trkpt lat="45.0517" lon="3.03898">
        <ele>870</ele>
        <time>2016-12-30T11:57:57.008Z</time>
      </trkpt>
      <trkpt lat="45.05176" lon="3.03896">
        <ele>870</ele>
        <time>2016-12-30T11:57:59.008Z</time>
      </trkpt>
      <trkpt lat="45.05179" lon="3.03895">
        <ele>871.73599057932</ele>
        <time>2016-12-30T11:58:00.008Z</time>
      </trkpt>
      <trkpt lat="45.05182" lon="3.03893">
        <ele>872</ele>
        <time>2016-12-30T11:58:01.008Z</time>
      </trkpt>
      <trkpt lat="45.05185" lon="3.03892">
        <ele>872</ele>
        <time>2016-12-30T11:58:02.008Z</time>
      </trkpt>
      <trkpt lat="45.05188" lon="3.03892">
        <ele>872</ele>
        <time>2016-12-30T11:58:03.008Z</time>
      </trkpt>
      <trkpt lat="45.05191" lon="3.03892">
        <ele>872</ele>
        <time>2016-12-30T11:58:04.008Z</time>
      </trkpt>
      <trkpt lat="45.05199" lon="3.03896">
        <ele>872</ele>
        <time>2016-12-30T11:58:07.008Z</time>
      </trkpt>
      <trkpt lat="45.05204" lon="3.039">
        <ele>872</ele>
        <time>2016-12-30T11:58:09.008Z</time>
      </trkpt>
      <trkpt lat="45.05208" lon="3.03903">
        <ele>873</ele>
        <time>2016-12-30T11:58:11.008Z</time>
      </trkpt>
      <trkpt lat="45.05212" lon="3.03904">
        <ele>873</ele>
        <time>2016-12-30T11:58:13.008Z</time>
      </trkpt>
      <trkpt lat="45.05215" lon="3.03905">
        <ele>873</ele>
        <time>2016-12-30T11:58:15.008Z</time>
      </trkpt>
      <trkpt lat="45.0522" lon="3.03903">
        <ele>873</ele>
        <time>2016-12-30T11:58:17.008Z</time>
      </trkpt>
      <trkpt lat="45.05224" lon="3.03903">
        <ele>874</ele>
        <time>2016-12-30T11:58:24.008Z</time>
      </trkpt>
      <trkpt lat="45.05227" lon="3.03902">
        <ele>874</ele>
        <time>2016-12-30T11:58:26.008Z</time>
      </trkpt>
      <trkpt lat="45.05232" lon="3.039">
        <ele>874</ele>
        <time>2016-12-30T11:58:28.008Z</time>
      </trkpt>
      <trkpt lat="45.0524" lon="3.03897">
        <ele>876</ele>
        <time>2016-12-30T11:58:31.008Z</time>
      </trkpt>
      <trkpt lat="45.05243" lon="3.03896">
        <ele>876</ele>
        <time>2016-12-30T11:58:32.008Z</time>
      </trkpt>
      <trkpt lat="45.05249" lon="3.03897">
        <ele>876</ele>
        <time>2016-12-30T11:58:34.008Z</time>
      </trkpt>
      <trkpt lat="45.05253" lon="3.03904">
        <ele>876</ele>
        <time>2016-12-30T11:58:36.008Z</time>
      </trkpt>
      <trkpt lat="45.05255" lon="3.03914">
        <ele>876</ele>
        <time>2016-12-30T11:58:38.008Z</time>
      </trkpt>
      <trkpt lat="45.05256" lon="3.03921">
        <ele>876</ele>
        <time>2016-12-30T11:58:39.008Z</time>
      </trkpt>
      <trkpt lat="45.05257" lon="3.03928">
        <ele>876.86799528966</ele>
        <time>2016-12-30T11:58:40.008Z</time>
      </trkpt>
      <trkpt lat="45.05258" lon="3.03941">
        <ele>877</ele>
        <time>2016-12-30T11:58:42.008Z</time>
      </trkpt>
      <trkpt lat="45.05259" lon="3.03948">
        <ele>877</ele>
        <time>2016-12-30T11:58:43.008Z</time>
      </trkpt>
      <trkpt lat="45.0526" lon="3.03955">
        <ele>877</ele>
        <time>2016-12-30T11:58:44.008Z</time>
      </trkpt>
      <trkpt lat="45.05261" lon="3.03963">
        <ele>877</ele>
        <time>2016-12-30T11:58:45.008Z</time>
      </trkpt>
      <trkpt lat="45.05263" lon="3.0397">
        <ele>877</ele>
        <time>2016-12-30T11:58:46.008Z</time>
      </trkpt>
      <trkpt lat="45.05267" lon="3.03984">
        <ele>877</ele>
        <time>2016-12-30T11:58:48.008Z</time>
      </trkpt>
      <trkpt lat="45.05268" lon="3.03991">
        <ele>877</ele>
        <time>2016-12-30T11:58:49.008Z</time>
      </trkpt>
      <trkpt lat="45.05269" lon="3.03999">
        <ele>876.14059589137</ele>
        <time>2016-12-30T11:58:50.008Z</time>
      </trkpt>
      <trkpt lat="45.0527" lon="3.04006">
        <ele>876</ele>
        <time>2016-12-30T11:58:51.008Z</time>
      </trkpt>
      <trkpt lat="45.05271" lon="3.04014">
        <ele>876</ele>
        <time>2016-12-30T11:58:52.008Z</time>
      </trkpt>
      <trkpt lat="45.05272" lon="3.04021">
        <ele>876</ele>
        <time>2016-12-30T11:58:53.008Z</time>
      </trkpt>
      <trkpt lat="45.05273" lon="3.04029">
        <ele>876</ele>
        <time>2016-12-30T11:58:54.008Z</time>
      </trkpt>
      <trkpt lat="45.05274" lon="3.04036">
        <ele>876</ele>
        <time>2016-12-30T11:58:55.008Z</time>
      </trkpt>
      <trkpt lat="45.05275" lon="3.04043">
        <ele>876</ele>
        <time>2016-12-30T11:58:56.008Z</time>
      </trkpt>
      <trkpt lat="45.05278" lon="3.04057">
        <ele>876</ele>
        <time>2016-12-30T11:58:58.008Z</time>
      </trkpt>
      <trkpt lat="45.05283" lon="3.04069">
        <ele>875.13333936698</ele>
        <time>2016-12-30T11:59:00.008Z</time>
      </trkpt>
      <trkpt lat="45.05286" lon="3.04075">
        <ele>875</ele>
        <time>2016-12-30T11:59:01.008Z</time>
      </trkpt>
      <trkpt lat="45.05289" lon="3.0408">
        <ele>875</ele>
        <time>2016-12-30T11:59:02.008Z</time>
      </trkpt>
      <trkpt lat="45.05292" lon="3.04085">
        <ele>875</ele>
        <time>2016-12-30T11:59:03.008Z</time>
      </trkpt>
      <trkpt lat="45.05295" lon="3.0409">
        <ele>875</ele>
        <time>2016-12-30T11:59:04.008Z</time>
      </trkpt>
      <trkpt lat="45.05298" lon="3.04094">
        <ele>875</ele>
        <time>2016-12-30T11:59:05.008Z</time>
      </trkpt>
      <trkpt lat="45.05305" lon="3.04102">
        <ele>875</ele>
        <time>2016-12-30T11:59:07.008Z</time>
      </trkpt>
      <trkpt lat="45.05309" lon="3.04106">
        <ele>875</ele>
        <time>2016-12-30T11:59:08.008Z</time>
      </trkpt>
      <trkpt lat="45.05312" lon="3.0411">
        <ele>875</ele>
        <time>2016-12-30T11:59:09.008Z</time>
      </trkpt>
      <trkpt lat="45.05316" lon="3.04114">
        <ele>875.86799528966</ele>
        <time>2016-12-30T11:59:10.008Z</time>
      </trkpt>
      <trkpt lat="45.05319" lon="3.04119">
        <ele>876</ele>
        <time>2016-12-30T11:59:11.008Z</time>
      </trkpt>
      <trkpt lat="45.05324" lon="3.04123">
        <ele>876</ele>
        <time>2016-12-30T11:59:12.008Z</time>
      </trkpt>
      <trkpt lat="45.05328" lon="3.04127">
        <ele>876</ele>
        <time>2016-12-30T11:59:13.008Z</time>
      </trkpt>
      <trkpt lat="45.05332" lon="3.0413">
        <ele>876</ele>
        <time>2016-12-30T11:59:14.008Z</time>
      </trkpt>
      <trkpt lat="45.05342" lon="3.04137">
        <ele>876</ele>
        <time>2016-12-30T11:59:16.008Z</time>
      </trkpt>
      <trkpt lat="45.05351" lon="3.04143">
        <ele>876</ele>
        <time>2016-12-30T11:59:18.008Z</time>
      </trkpt>
      <trkpt lat="45.05361" lon="3.04148">
        <ele>876.85940410863</ele>
        <time>2016-12-30T11:59:20.008Z</time>
      </trkpt>
      <trkpt lat="45.05366" lon="3.04151">
        <ele>877</ele>
        <time>2016-12-30T11:59:21.008Z</time>
      </trkpt>
      <trkpt lat="45.05375" lon="3.04156">
        <ele>877</ele>
        <time>2016-12-30T11:59:23.008Z</time>
      </trkpt>
      <trkpt lat="45.05384" lon="3.04162">
        <ele>877</ele>
        <time>2016-12-30T11:59:25.008Z</time>
      </trkpt>
      <trkpt lat="45.05389" lon="3.04165">
        <ele>877</ele>
        <time>2016-12-30T11:59:26.008Z</time>
      </trkpt>
      <trkpt lat="45.05394" lon="3.04167">
        <ele>877</ele>
        <time>2016-12-30T11:59:27.008Z</time>
      </trkpt>
      <trkpt lat="45.05399" lon="3.0417">
        <ele>877</ele>
        <time>2016-12-30T11:59:28.008Z</time>
      </trkpt>
      <trkpt lat="45.05404" lon="3.04172">
        <ele>877</ele>
        <time>2016-12-30T11:59:29.008Z</time>
      </trkpt>
      <trkpt lat="45.05409" lon="3.04174">
        <ele>877.86799528966</ele>
        <time>2016-12-30T11:59:30.008Z</time>
      </trkpt>
      <trkpt lat="45.05413" lon="3.04176">
        <ele>878</ele>
        <time>2016-12-30T11:59:31.008Z</time>
      </trkpt>
      <trkpt lat="45.05418" lon="3.04179">
        <ele>878</ele>
        <time>2016-12-30T11:59:32.008Z</time>
      </trkpt>
      <trkpt lat="45.05423" lon="3.04181">
        <ele>878</ele>
        <time>2016-12-30T11:59:33.008Z</time>
      </trkpt>
      <trkpt lat="45.05428" lon="3.04183">
        <ele>878</ele>
        <time>2016-12-30T11:59:34.008Z</time>
      </trkpt>
      <trkpt lat="45.05432" lon="3.04185">
        <ele>878</ele>
        <time>2016-12-30T11:59:35.008Z</time>
      </trkpt>
      <trkpt lat="45.05437" lon="3.04187">
        <ele>878</ele>
        <time>2016-12-30T11:59:36.008Z</time>
      </trkpt>
      <trkpt lat="45.05441" lon="3.0419">
        <ele>878</ele>
        <time>2016-12-30T11:59:37.008Z</time>
      </trkpt>
      <trkpt lat="45.05446" lon="3.04192">
        <ele>878</ele>
        <time>2016-12-30T11:59:38.008Z</time>
      </trkpt>
      <trkpt lat="45.0545" lon="3.04194">
        <ele>878</ele>
        <time>2016-12-30T11:59:39.008Z</time>
      </trkpt>
      <trkpt lat="45.05455" lon="3.04196">
        <ele>880.60398586898</ele>
        <time>2016-12-30T11:59:40.008Z</time>
      </trkpt>
      <trkpt lat="45.0546" lon="3.04198">
        <ele>881</ele>
        <time>2016-12-30T11:59:41.008Z</time>
      </trkpt>
      <trkpt lat="45.05465" lon="3.04201">
        <ele>881</ele>
        <time>2016-12-30T11:59:42.008Z</time>
      </trkpt>
      <trkpt lat="45.05469" lon="3.04203">
        <ele>881</ele>
        <time>2016-12-30T11:59:43.008Z</time>
      </trkpt>
      <trkpt lat="45.05474" lon="3.04205">
        <ele>881</ele>
        <time>2016-12-30T11:59:44.008Z</time>
      </trkpt>
      <trkpt lat="45.05479" lon="3.04207">
        <ele>882.73334367687</ele>
        <time>2016-12-30T11:59:45.008Z</time>
      </trkpt>
      <trkpt lat="45.05483" lon="3.04209">
        <ele>883</ele>
        <time>2016-12-30T11:59:46.008Z</time>
      </trkpt>
      <trkpt lat="45.05488" lon="3.04211">
        <ele>883</ele>
        <time>2016-12-30T11:59:47.008Z</time>
      </trkpt>
      <trkpt lat="45.05492" lon="3.04213">
        <ele>883</ele>
        <time>2016-12-30T11:59:48.008Z</time>
      </trkpt>
      <trkpt lat="45.05497" lon="3.04215">
        <ele>883</ele>
        <time>2016-12-30T11:59:49.008Z</time>
      </trkpt>
      <trkpt lat="45.05501" lon="3.04216">
        <ele>884.71880821727</ele>
        <time>2016-12-30T11:59:50.008Z</time>
      </trkpt>
      <trkpt lat="45.05505" lon="3.04218">
        <ele>885</ele>
        <time>2016-12-30T11:59:51.008Z</time>
      </trkpt>
      <trkpt lat="45.0551" lon="3.0422">
        <ele>885</ele>
        <time>2016-12-30T11:59:52.008Z</time>
      </trkpt>
      <trkpt lat="45.05514" lon="3.04222">
        <ele>885</ele>
        <time>2016-12-30T11:59:53.008Z</time>
      </trkpt>
      <trkpt lat="45.05518" lon="3.04224">
        <ele>885</ele>
        <time>2016-12-30T11:59:54.008Z</time>
      </trkpt>
      <trkpt lat="45.05521" lon="3.04226">
        <ele>885.86800471046</ele>
        <time>2016-12-30T11:59:55.008Z</time>
      </trkpt>
      <trkpt lat="45.05525" lon="3.04229">
        <ele>886</ele>
        <time>2016-12-30T11:59:56.008Z</time>
      </trkpt>
      <trkpt lat="45.05529" lon="3.04232">
        <ele>886</ele>
        <time>2016-12-30T11:59:57.008Z</time>
      </trkpt>
      <trkpt lat="45.05533" lon="3.04235">
        <ele>886</ele>
        <time>2016-12-30T11:59:58.008Z</time>
      </trkpt>
      <trkpt lat="45.05536" lon="3.04239">
        <ele>886</ele>
        <time>2016-12-30T11:59:59.008Z</time>
      </trkpt>
      <trkpt lat="45.05538" lon="3.04243">
        <ele>887.73599057932</ele>
        <time>2016-12-30T12:00:00.008Z</time>
      </trkpt>
      <trkpt lat="45.05541" lon="3.04248">
        <ele>888</ele>
        <time>2016-12-30T12:00:01.008Z</time>
      </trkpt>
      <trkpt lat="45.05544" lon="3.04252">
        <ele>888</ele>
        <time>2016-12-30T12:00:02.008Z</time>
      </trkpt>
      <trkpt lat="45.05548" lon="3.04262">
        <ele>888</ele>
        <time>2016-12-30T12:00:04.008Z</time>
      </trkpt>
      <trkpt lat="45.0555" lon="3.04267">
        <ele>888</ele>
        <time>2016-12-30T12:00:05.008Z</time>
      </trkpt>
      <trkpt lat="45.05551" lon="3.04273">
        <ele>888</ele>
        <time>2016-12-30T12:00:06.008Z</time>
      </trkpt>
      <trkpt lat="45.05553" lon="3.04278">
        <ele>888</ele>
        <time>2016-12-30T12:00:07.008Z</time>
      </trkpt>
      <trkpt lat="45.05555" lon="3.04283">
        <ele>888</ele>
        <time>2016-12-30T12:00:08.008Z</time>
      </trkpt>
      <trkpt lat="45.05557" lon="3.04288">
        <ele>888</ele>
        <time>2016-12-30T12:00:09.008Z</time>
      </trkpt>
      <trkpt lat="45.05559" lon="3.04294">
        <ele>889.73599057932</ele>
        <time>2016-12-30T12:00:10.008Z</time>
      </trkpt>
      <trkpt lat="45.05561" lon="3.04299">
        <ele>890</ele>
        <time>2016-12-30T12:00:11.008Z</time>
      </trkpt>
      <trkpt lat="45.05563" lon="3.04304">
        <ele>890</ele>
        <time>2016-12-30T12:00:12.008Z</time>
      </trkpt>
      <trkpt lat="45.05564" lon="3.04309">
        <ele>890</ele>
        <time>2016-12-30T12:00:13.008Z</time>
      </trkpt>
      <trkpt lat="45.05566" lon="3.04314">
        <ele>890</ele>
        <time>2016-12-30T12:00:14.008Z</time>
      </trkpt>
      <trkpt lat="45.05567" lon="3.04319">
        <ele>890</ele>
        <time>2016-12-30T12:00:15.008Z</time>
      </trkpt>
      <trkpt lat="45.05569" lon="3.04324">
        <ele>890</ele>
        <time>2016-12-30T12:00:16.008Z</time>
      </trkpt>
      <trkpt lat="45.05571" lon="3.0433">
        <ele>890</ele>
        <time>2016-12-30T12:00:17.008Z</time>
      </trkpt>
      <trkpt lat="45.05572" lon="3.04335">
        <ele>890</ele>
        <time>2016-12-30T12:00:18.008Z</time>
      </trkpt>
      <trkpt lat="45.05574" lon="3.04341">
        <ele>890</ele>
        <time>2016-12-30T12:00:19.008Z</time>
      </trkpt>
      <trkpt lat="45.05576" lon="3.04346">
        <ele>892.5782123259</ele>
        <time>2016-12-30T12:00:20.008Z</time>
      </trkpt>
      <trkpt lat="45.05578" lon="3.04351">
        <ele>893</ele>
        <time>2016-12-30T12:00:21.008Z</time>
      </trkpt>
      <trkpt lat="45.0558" lon="3.04356">
        <ele>893</ele>
        <time>2016-12-30T12:00:22.008Z</time>
      </trkpt>
      <trkpt lat="45.05582" lon="3.04361">
        <ele>893</ele>
        <time>2016-12-30T12:00:23.008Z</time>
      </trkpt>
      <trkpt lat="45.05583" lon="3.04365">
        <ele>893</ele>
        <time>2016-12-30T12:00:24.008Z</time>
      </trkpt>
      <trkpt lat="45.05585" lon="3.0437">
        <ele>893.86800471046</ele>
        <time>2016-12-30T12:00:25.008Z</time>
      </trkpt>
      <trkpt lat="45.05587" lon="3.04374">
        <ele>894</ele>
        <time>2016-12-30T12:00:26.008Z</time>
      </trkpt>
      <trkpt lat="45.05589" lon="3.04379">
        <ele>894</ele>
        <time>2016-12-30T12:00:27.008Z</time>
      </trkpt>
      <trkpt lat="45.05591" lon="3.04384">
        <ele>894</ele>
        <time>2016-12-30T12:00:28.008Z</time>
      </trkpt>
      <trkpt lat="45.05593" lon="3.04389">
        <ele>894</ele>
        <time>2016-12-30T12:00:29.008Z</time>
      </trkpt>
      <trkpt lat="45.05595" lon="3.04394">
        <ele>894.86799528966</ele>
        <time>2016-12-30T12:00:30.008Z</time>
      </trkpt>
      <trkpt lat="45.05597" lon="3.04399">
        <ele>895</ele>
        <time>2016-12-30T12:00:31.008Z</time>
      </trkpt>
      <trkpt lat="45.056" lon="3.04404">
        <ele>895</ele>
        <time>2016-12-30T12:00:32.008Z</time>
      </trkpt>
      <trkpt lat="45.05602" lon="3.04408">
        <ele>895</ele>
        <time>2016-12-30T12:00:33.008Z</time>
      </trkpt>
      <trkpt lat="45.05605" lon="3.04413">
        <ele>895</ele>
        <time>2016-12-30T12:00:34.008Z</time>
      </trkpt>
      <trkpt lat="45.05608" lon="3.04417">
        <ele>895</ele>
        <time>2016-12-30T12:00:35.008Z</time>
      </trkpt>
      <trkpt lat="45.05612" lon="3.04425">
        <ele>895</ele>
        <time>2016-12-30T12:00:37.008Z</time>
      </trkpt>
      <trkpt lat="45.05618" lon="3.04433">
        <ele>895</ele>
        <time>2016-12-30T12:00:39.008Z</time>
      </trkpt>
      <trkpt lat="45.05625" lon="3.0444">
        <ele>896</ele>
        <time>2016-12-30T12:00:41.008Z</time>
      </trkpt>
      <trkpt lat="45.05631" lon="3.04447">
        <ele>896</ele>
        <time>2016-12-30T12:00:43.008Z</time>
      </trkpt>
      <trkpt lat="45.05637" lon="3.04454">
        <ele>896</ele>
        <time>2016-12-30T12:00:45.008Z</time>
      </trkpt>
      <trkpt lat="45.05644" lon="3.0446">
        <ele>896</ele>
        <time>2016-12-30T12:00:47.008Z</time>
      </trkpt>
      <trkpt lat="45.05651" lon="3.04465">
        <ele>896</ele>
        <time>2016-12-30T12:00:49.008Z</time>
      </trkpt>
      <trkpt lat="45.05657" lon="3.04472">
        <ele>899</ele>
        <time>2016-12-30T12:00:51.008Z</time>
      </trkpt>
      <trkpt lat="45.0566" lon="3.04474">
        <ele>899</ele>
        <time>2016-12-30T12:00:52.008Z</time>
      </trkpt>
      <trkpt lat="45.05663" lon="3.04477">
        <ele>899</ele>
        <time>2016-12-30T12:00:53.008Z</time>
      </trkpt>
      <trkpt lat="45.05667" lon="3.04478">
        <ele>899</ele>
        <time>2016-12-30T12:00:54.008Z</time>
      </trkpt>
      <trkpt lat="45.05673" lon="3.04475">
        <ele>901</ele>
        <time>2016-12-30T12:00:56.008Z</time>
      </trkpt>
      <trkpt lat="45.05674" lon="3.04469">
        <ele>901</ele>
        <time>2016-12-30T12:00:58.008Z</time>
      </trkpt>
      <trkpt lat="45.05672" lon="3.04461">
        <ele>903.60398586898</ele>
        <time>2016-12-30T12:01:00.008Z</time>
      </trkpt>
      <trkpt lat="45.0567" lon="3.04454">
        <ele>904</ele>
        <time>2016-12-30T12:01:02.008Z</time>
      </trkpt>
      <trkpt lat="45.05667" lon="3.04448">
        <ele>904</ele>
        <time>2016-12-30T12:01:04.008Z</time>
      </trkpt>
      <trkpt lat="45.05664" lon="3.0444">
        <ele>905</ele>
        <time>2016-12-30T12:01:06.008Z</time>
      </trkpt>
      <trkpt lat="45.05662" lon="3.04432">
        <ele>905</ele>
        <time>2016-12-30T12:01:08.008Z</time>
      </trkpt>
      <trkpt lat="45.05662" lon="3.04424">
        <ele>907.60398586898</ele>
        <time>2016-12-30T12:01:10.008Z</time>
      </trkpt>
      <trkpt lat="45.05661" lon="3.04415">
        <ele>908</ele>
        <time>2016-12-30T12:01:12.008Z</time>
      </trkpt>
      <trkpt lat="45.05662" lon="3.04405">
        <ele>908</ele>
        <time>2016-12-30T12:01:14.008Z</time>
      </trkpt>
      <trkpt lat="45.05663" lon="3.04395">
        <ele>911</ele>
        <time>2016-12-30T12:01:16.008Z</time>
      </trkpt>
      <trkpt lat="45.05664" lon="3.04387">
        <ele>911</ele>
        <time>2016-12-30T12:01:18.008Z</time>
      </trkpt>
      <trkpt lat="45.05666" lon="3.04379">
        <ele>912.70196265435</ele>
        <time>2016-12-30T12:01:20.008Z</time>
      </trkpt>
      <trkpt lat="45.05668" lon="3.04372">
        <ele>915</ele>
        <time>2016-12-30T12:01:22.008Z</time>
      </trkpt>
      <trkpt lat="45.0567" lon="3.04365">
        <ele>916</ele>
        <time>2016-12-30T12:01:24.008Z</time>
      </trkpt>
      <trkpt lat="45.05672" lon="3.04357">
        <ele>917</ele>
        <time>2016-12-30T12:01:26.008Z</time>
      </trkpt>
      <trkpt lat="45.05673" lon="3.0435">
        <ele>917.86799528966</ele>
        <time>2016-12-30T12:01:28.008Z</time>
      </trkpt>
      <trkpt lat="45.05674" lon="3.04343">
        <ele>918</ele>
        <time>2016-12-30T12:01:30.008Z</time>
      </trkpt>
      <trkpt lat="45.05676" lon="3.04335">
        <ele>918</ele>
        <time>2016-12-30T12:01:32.008Z</time>
      </trkpt>
      <trkpt lat="45.05678" lon="3.04328">
        <ele>918</ele>
        <time>2016-12-30T12:01:34.008Z</time>
      </trkpt>
      <trkpt lat="45.05679" lon="3.0432">
        <ele>920</ele>
        <time>2016-12-30T12:01:36.008Z</time>
      </trkpt>
      <trkpt lat="45.0568" lon="3.04313">
        <ele>920</ele>
        <time>2016-12-30T12:01:38.008Z</time>
      </trkpt>
      <trkpt lat="45.0568" lon="3.04305">
        <ele>921.73599057932</ele>
        <time>2016-12-30T12:01:40.008Z</time>
      </trkpt>
      <trkpt lat="45.0568" lon="3.04297">
        <ele>922</ele>
        <time>2016-12-30T12:01:42.008Z</time>
      </trkpt>
      <trkpt lat="45.05681" lon="3.04289">
        <ele>922</ele>
        <time>2016-12-30T12:01:44.008Z</time>
      </trkpt>
      <trkpt lat="45.05681" lon="3.04281">
        <ele>923</ele>
        <time>2016-12-30T12:01:46.008Z</time>
      </trkpt>
      <trkpt lat="45.05681" lon="3.04273">
        <ele>923</ele>
        <time>2016-12-30T12:01:48.008Z</time>
      </trkpt>
      <trkpt lat="45.0568" lon="3.04265">
        <ele>923.85940410863</ele>
        <time>2016-12-30T12:01:50.008Z</time>
      </trkpt>
      <trkpt lat="45.0568" lon="3.04257">
        <ele>924</ele>
        <time>2016-12-30T12:01:52.008Z</time>
      </trkpt>
      <trkpt lat="45.05679" lon="3.0425">
        <ele>924</ele>
        <time>2016-12-30T12:01:54.008Z</time>
      </trkpt>
      <trkpt lat="45.05679" lon="3.04241">
        <ele>926</ele>
        <time>2016-12-30T12:01:56.008Z</time>
      </trkpt>
      <trkpt lat="45.05678" lon="3.04233">
        <ele>926</ele>
        <time>2016-12-30T12:01:58.008Z</time>
      </trkpt>
      <trkpt lat="45.05679" lon="3.04225">
        <ele>928.59998189905</ele>
        <time>2016-12-30T12:02:00.008Z</time>
      </trkpt>
      <trkpt lat="45.05679" lon="3.04218">
        <ele>929</ele>
        <time>2016-12-30T12:02:02.008Z</time>
      </trkpt>
      <trkpt lat="45.0568" lon="3.0421">
        <ele>929</ele>
        <time>2016-12-30T12:02:04.008Z</time>
      </trkpt>
      <trkpt lat="45.05681" lon="3.04203">
        <ele>931</ele>
        <time>2016-12-30T12:02:06.008Z</time>
      </trkpt>
      <trkpt lat="45.05682" lon="3.04197">
        <ele>931</ele>
        <time>2016-12-30T12:02:08.008Z</time>
      </trkpt>
      <trkpt lat="45.05684" lon="3.0419">
        <ele>931.86799528966</ele>
        <time>2016-12-30T12:02:10.008Z</time>
      </trkpt>
      <trkpt lat="45.05686" lon="3.04184">
        <ele>932</ele>
        <time>2016-12-30T12:02:12.008Z</time>
      </trkpt>
      <trkpt lat="45.05688" lon="3.04177">
        <ele>932</ele>
        <time>2016-12-30T12:02:14.008Z</time>
      </trkpt>
      <trkpt lat="45.0569" lon="3.04171">
        <ele>934</ele>
        <time>2016-12-30T12:02:16.008Z</time>
      </trkpt>
      <trkpt lat="45.05692" lon="3.04164">
        <ele>934</ele>
        <time>2016-12-30T12:02:18.008Z</time>
      </trkpt>
      <trkpt lat="45.05694" lon="3.04158">
        <ele>936.5782123259</ele>
        <time>2016-12-30T12:02:20.008Z</time>
      </trkpt>
      <trkpt lat="45.05696" lon="3.04152">
        <ele>937</ele>
        <time>2016-12-30T12:02:22.008Z</time>
      </trkpt>
      <trkpt lat="45.05699" lon="3.04145">
        <ele>937</ele>
        <time>2016-12-30T12:02:24.008Z</time>
      </trkpt>
      <trkpt lat="45.05701" lon="3.04139">
        <ele>940</ele>
        <time>2016-12-30T12:02:26.008Z</time>
      </trkpt>
      <trkpt lat="45.05703" lon="3.04133">
        <ele>940</ele>
        <time>2016-12-30T12:02:28.008Z</time>
      </trkpt>
      <trkpt lat="45.05705" lon="3.04127">
        <ele>940.86799528966</ele>
        <time>2016-12-30T12:02:30.008Z</time>
      </trkpt>
      <trkpt lat="45.05707" lon="3.0412">
        <ele>941</ele>
        <time>2016-12-30T12:02:32.008Z</time>
      </trkpt>
      <trkpt lat="45.05708" lon="3.04114">
        <ele>941</ele>
        <time>2016-12-30T12:02:34.008Z</time>
      </trkpt>
      <trkpt lat="45.05709" lon="3.04107">
        <ele>944</ele>
        <time>2016-12-30T12:02:36.008Z</time>
      </trkpt>
      <trkpt lat="45.0571" lon="3.04101">
        <ele>944</ele>
        <time>2016-12-30T12:02:38.008Z</time>
      </trkpt>
      <trkpt lat="45.05711" lon="3.04094">
        <ele>945.73599057932</ele>
        <time>2016-12-30T12:02:40.008Z</time>
      </trkpt>
      <trkpt lat="45.05711" lon="3.04088">
        <ele>946</ele>
        <time>2016-12-30T12:02:42.008Z</time>
      </trkpt>
      <trkpt lat="45.05712" lon="3.04081">
        <ele>946</ele>
        <time>2016-12-30T12:02:44.008Z</time>
      </trkpt>
      <trkpt lat="45.05713" lon="3.04074">
        <ele>947</ele>
        <time>2016-12-30T12:02:46.008Z</time>
      </trkpt>
      <trkpt lat="45.05713" lon="3.04067">
        <ele>947</ele>
        <time>2016-12-30T12:02:48.008Z</time>
      </trkpt>
      <trkpt lat="45.05714" lon="3.0406">
        <ele>947.85940410863</ele>
        <time>2016-12-30T12:02:50.008Z</time>
      </trkpt>
      <trkpt lat="45.05715" lon="3.04053">
        <ele>948</ele>
        <time>2016-12-30T12:02:52.008Z</time>
      </trkpt>
      <trkpt lat="45.05716" lon="3.04046">
        <ele>948</ele>
        <time>2016-12-30T12:02:54.008Z</time>
      </trkpt>
      <trkpt lat="45.05717" lon="3.04039">
        <ele>948</ele>
        <time>2016-12-30T12:02:56.008Z</time>
      </trkpt>
      <trkpt lat="45.05719" lon="3.04032">
        <ele>948</ele>
        <time>2016-12-30T12:02:58.008Z</time>
      </trkpt>
      <trkpt lat="45.05721" lon="3.04026">
        <ele>949.73599057932</ele>
        <time>2016-12-30T12:03:00.008Z</time>
      </trkpt>
      <trkpt lat="45.05722" lon="3.04019">
        <ele>950</ele>
        <time>2016-12-30T12:03:02.008Z</time>
      </trkpt>
      <trkpt lat="45.05723" lon="3.04013">
        <ele>950</ele>
        <time>2016-12-30T12:03:04.008Z</time>
      </trkpt>
      <trkpt lat="45.05725" lon="3.04006">
        <ele>952</ele>
        <time>2016-12-30T12:03:06.008Z</time>
      </trkpt>
      <trkpt lat="45.05728" lon="3.04">
        <ele>952</ele>
        <time>2016-12-30T12:03:08.008Z</time>
      </trkpt>
      <trkpt lat="45.05729" lon="3.03993">
        <ele>953.73599057932</ele>
        <time>2016-12-30T12:03:10.008Z</time>
      </trkpt>
      <trkpt lat="45.05731" lon="3.03987">
        <ele>954</ele>
        <time>2016-12-30T12:03:12.008Z</time>
      </trkpt>
      <trkpt lat="45.05734" lon="3.03982">
        <ele>954</ele>
        <time>2016-12-30T12:03:14.008Z</time>
      </trkpt>
      <trkpt lat="45.05735" lon="3.03975">
        <ele>956</ele>
        <time>2016-12-30T12:03:16.008Z</time>
      </trkpt>
      <trkpt lat="45.05737" lon="3.03969">
        <ele>956</ele>
        <time>2016-12-30T12:03:18.008Z</time>
      </trkpt>
      <trkpt lat="45.05739" lon="3.03962">
        <ele>957.71880821727</ele>
        <time>2016-12-30T12:03:20.008Z</time>
      </trkpt>
      <trkpt lat="45.05741" lon="3.03956">
        <ele>958</ele>
        <time>2016-12-30T12:03:22.008Z</time>
      </trkpt>
      <trkpt lat="45.05743" lon="3.0395">
        <ele>958</ele>
        <time>2016-12-30T12:03:24.008Z</time>
      </trkpt>
      <trkpt lat="45.05744" lon="3.03943">
        <ele>959</ele>
        <time>2016-12-30T12:03:26.008Z</time>
      </trkpt>
      <trkpt lat="45.05746" lon="3.03936">
        <ele>959</ele>
        <time>2016-12-30T12:03:28.008Z</time>
      </trkpt>
      <trkpt lat="45.05747" lon="3.03929">
        <ele>960.73599057932</ele>
        <time>2016-12-30T12:03:30.008Z</time>
      </trkpt>
      <trkpt lat="45.05748" lon="3.03926">
        <ele>961</ele>
        <time>2016-12-30T12:03:31.008Z</time>
      </trkpt>
      <trkpt lat="45.05749" lon="3.03922">
        <ele>961</ele>
        <time>2016-12-30T12:03:32.008Z</time>
      </trkpt>
      <trkpt lat="45.0575" lon="3.03919">
        <ele>961</ele>
        <time>2016-12-30T12:03:33.008Z</time>
      </trkpt>
      <trkpt lat="45.05751" lon="3.03915">
        <ele>961</ele>
        <time>2016-12-30T12:03:34.008Z</time>
      </trkpt>
      <trkpt lat="45.05752" lon="3.03912">
        <ele>961</ele>
        <time>2016-12-30T12:03:35.008Z</time>
      </trkpt>
      <trkpt lat="45.05753" lon="3.03905">
        <ele>961</ele>
        <time>2016-12-30T12:03:37.008Z</time>
      </trkpt>
      <trkpt lat="45.05754" lon="3.03901">
        <ele>961</ele>
        <time>2016-12-30T12:03:38.008Z</time>
      </trkpt>
      <trkpt lat="45.05756" lon="3.03894">
        <ele>962.71880821727</ele>
        <time>2016-12-30T12:03:40.008Z</time>
      </trkpt>
      <trkpt lat="45.05758" lon="3.03884">
        <ele>963</ele>
        <time>2016-12-30T12:03:43.008Z</time>
      </trkpt>
      <trkpt lat="45.05758" lon="3.03879">
        <ele>963</ele>
        <time>2016-12-30T12:03:45.008Z</time>
      </trkpt>
      <trkpt lat="45.05759" lon="3.03871">
        <ele>964</ele>
        <time>2016-12-30T12:04:43.008Z</time>
      </trkpt>
      <trkpt lat="45.05761" lon="3.03864">
        <ele>964</ele>
        <time>2016-12-30T12:04:45.008Z</time>
      </trkpt>
      <trkpt lat="45.05763" lon="3.03857">
        <ele>964</ele>
        <time>2016-12-30T12:04:47.008Z</time>
      </trkpt>
      <trkpt lat="45.05764" lon="3.03849">
        <ele>964</ele>
        <time>2016-12-30T12:04:49.008Z</time>
      </trkpt>
      <trkpt lat="45.05765" lon="3.03841">
        <ele>966</ele>
        <time>2016-12-30T12:04:51.008Z</time>
      </trkpt>
      <trkpt lat="45.05765" lon="3.03837">
        <ele>966</ele>
        <time>2016-12-30T12:04:52.008Z</time>
      </trkpt>
      <trkpt lat="45.05765" lon="3.03833">
        <ele>966</ele>
        <time>2016-12-30T12:04:53.008Z</time>
      </trkpt>
      <trkpt lat="45.05765" lon="3.03829">
        <ele>966</ele>
        <time>2016-12-30T12:04:54.008Z</time>
      </trkpt>
      <trkpt lat="45.05765" lon="3.03825">
        <ele>966</ele>
        <time>2016-12-30T12:04:55.008Z</time>
      </trkpt>
      <trkpt lat="45.05765" lon="3.03821">
        <ele>966</ele>
        <time>2016-12-30T12:04:56.008Z</time>
      </trkpt>
      <trkpt lat="45.05765" lon="3.03817">
        <ele>966</ele>
        <time>2016-12-30T12:04:57.008Z</time>
      </trkpt>
      <trkpt lat="45.05765" lon="3.03812">
        <ele>966</ele>
        <time>2016-12-30T12:04:58.008Z</time>
      </trkpt>
      <trkpt lat="45.05765" lon="3.03808">
        <ele>966</ele>
        <time>2016-12-30T12:04:59.008Z</time>
      </trkpt>
      <trkpt lat="45.05764" lon="3.03804">
        <ele>966.86799528966</ele>
        <time>2016-12-30T12:05:00.008Z</time>
      </trkpt>
      <trkpt lat="45.05764" lon="3.038">
        <ele>967</ele>
        <time>2016-12-30T12:05:01.008Z</time>
      </trkpt>
      <trkpt lat="45.05763" lon="3.03796">
        <ele>967</ele>
        <time>2016-12-30T12:05:02.008Z</time>
      </trkpt>
      <trkpt lat="45.05763" lon="3.03791">
        <ele>967</ele>
        <time>2016-12-30T12:05:03.008Z</time>
      </trkpt>
      <trkpt lat="45.05762" lon="3.03786">
        <ele>967</ele>
        <time>2016-12-30T12:05:04.008Z</time>
      </trkpt>
      <trkpt lat="45.05762" lon="3.0378">
        <ele>967</ele>
        <time>2016-12-30T12:05:06.008Z</time>
      </trkpt>
      <trkpt lat="45.05761" lon="3.03775">
        <ele>967</ele>
        <time>2016-12-30T12:05:07.008Z</time>
      </trkpt>
      <trkpt lat="45.0576" lon="3.0377">
        <ele>967</ele>
        <time>2016-12-30T12:05:08.008Z</time>
      </trkpt>
      <trkpt lat="45.05759" lon="3.03766">
        <ele>967</ele>
        <time>2016-12-30T12:05:09.008Z</time>
      </trkpt>
      <trkpt lat="45.05758" lon="3.03761">
        <ele>967.85098132718</ele>
        <time>2016-12-30T12:05:10.008Z</time>
      </trkpt>
      <trkpt lat="45.05756" lon="3.03757">
        <ele>968</ele>
        <time>2016-12-30T12:05:11.008Z</time>
      </trkpt>
      <trkpt lat="45.05754" lon="3.03753">
        <ele>968</ele>
        <time>2016-12-30T12:05:12.008Z</time>
      </trkpt>
      <trkpt lat="45.05753" lon="3.0375">
        <ele>968</ele>
        <time>2016-12-30T12:05:13.008Z</time>
      </trkpt>
      <trkpt lat="45.05748" lon="3.03743">
        <ele>968</ele>
        <time>2016-12-30T12:05:15.008Z</time>
      </trkpt>
      <trkpt lat="45.05747" lon="3.03739">
        <ele>968</ele>
        <time>2016-12-30T12:05:16.008Z</time>
      </trkpt>
      <trkpt lat="45.05745" lon="3.03735">
        <ele>968</ele>
        <time>2016-12-30T12:05:17.008Z</time>
      </trkpt>
      <trkpt lat="45.05744" lon="3.03726">
        <ele>968</ele>
        <time>2016-12-30T12:05:19.008Z</time>
      </trkpt>
      <trkpt lat="45.05743" lon="3.03718">
        <ele>970</ele>
        <time>2016-12-30T12:05:21.008Z</time>
      </trkpt>
      <trkpt lat="45.05743" lon="3.03709">
        <ele>970</ele>
        <time>2016-12-30T12:05:23.008Z</time>
      </trkpt>
      <trkpt lat="45.05743" lon="3.03701">
        <ele>970</ele>
        <time>2016-12-30T12:05:25.008Z</time>
      </trkpt>
      <trkpt lat="45.05743" lon="3.03692">
        <ele>970</ele>
        <time>2016-12-30T12:05:27.008Z</time>
      </trkpt>
      <trkpt lat="45.05743" lon="3.03683">
        <ele>970</ele>
        <time>2016-12-30T12:05:29.008Z</time>
      </trkpt>
      <trkpt lat="45.05743" lon="3.03675">
        <ele>973</ele>
        <time>2016-12-30T12:05:31.008Z</time>
      </trkpt>
      <trkpt lat="45.05742" lon="3.03666">
        <ele>973</ele>
        <time>2016-12-30T12:05:33.008Z</time>
      </trkpt>
      <trkpt lat="45.05742" lon="3.03658">
        <ele>975.60401413138</ele>
        <time>2016-12-30T12:05:35.008Z</time>
      </trkpt>
      <trkpt lat="45.05741" lon="3.03647">
        <ele>976</ele>
        <time>2016-12-30T12:05:38.008Z</time>
      </trkpt>
      <trkpt lat="45.05742" lon="3.03639">
        <ele>976</ele>
        <time>2016-12-30T12:05:40.008Z</time>
      </trkpt>
      <trkpt lat="45.05742" lon="3.03631">
        <ele>976</ele>
        <time>2016-12-30T12:05:42.008Z</time>
      </trkpt>
      <trkpt lat="45.05743" lon="3.03624">
        <ele>976</ele>
        <time>2016-12-30T12:05:44.008Z</time>
      </trkpt>
      <trkpt lat="45.05744" lon="3.03616">
        <ele>977</ele>
        <time>2016-12-30T12:05:46.008Z</time>
      </trkpt>
      <trkpt lat="45.05745" lon="3.03609">
        <ele>977</ele>
        <time>2016-12-30T12:05:48.008Z</time>
      </trkpt>
      <trkpt lat="45.05745" lon="3.03598">
        <ele>979</ele>
        <time>2016-12-30T12:05:51.008Z</time>
      </trkpt>
      <trkpt lat="45.05745" lon="3.03588">
        <ele>979</ele>
        <time>2016-12-30T12:05:53.008Z</time>
      </trkpt>
      <trkpt lat="45.05746" lon="3.03581">
        <ele>980.73600942092</ele>
        <time>2016-12-30T12:05:55.008Z</time>
      </trkpt>
      <trkpt lat="45.05745" lon="3.03573">
        <ele>981</ele>
        <time>2016-12-30T12:05:57.008Z</time>
      </trkpt>
      <trkpt lat="45.05744" lon="3.03566">
        <ele>981</ele>
        <time>2016-12-30T12:05:59.008Z</time>
      </trkpt>
      <trkpt lat="45.05743" lon="3.03557">
        <ele>981</ele>
        <time>2016-12-30T12:06:01.008Z</time>
      </trkpt>
      <trkpt lat="45.05742" lon="3.0355">
        <ele>981</ele>
        <time>2016-12-30T12:06:03.008Z</time>
      </trkpt>
      <trkpt lat="45.0574" lon="3.03543">
        <ele>981</ele>
        <time>2016-12-30T12:06:05.008Z</time>
      </trkpt>
      <trkpt lat="45.05739" lon="3.03535">
        <ele>981</ele>
        <time>2016-12-30T12:06:07.008Z</time>
      </trkpt>
      <trkpt lat="45.05737" lon="3.03528">
        <ele>981</ele>
        <time>2016-12-30T12:06:09.008Z</time>
      </trkpt>
      <trkpt lat="45.05735" lon="3.03521">
        <ele>983</ele>
        <time>2016-12-30T12:06:11.008Z</time>
      </trkpt>
      <trkpt lat="45.05733" lon="3.03515">
        <ele>983</ele>
        <time>2016-12-30T12:06:13.008Z</time>
      </trkpt>
      <trkpt lat="45.05731" lon="3.03508">
        <ele>983</ele>
        <time>2016-12-30T12:06:15.008Z</time>
      </trkpt>
      <trkpt lat="45.05728" lon="3.03502">
        <ele>983</ele>
        <time>2016-12-30T12:06:17.008Z</time>
      </trkpt>
      <trkpt lat="45.05725" lon="3.03497">
        <ele>983</ele>
        <time>2016-12-30T12:06:19.008Z</time>
      </trkpt>
      <trkpt lat="45.05722" lon="3.03492">
        <ele>985</ele>
        <time>2016-12-30T12:06:21.008Z</time>
      </trkpt>
      <trkpt lat="45.05719" lon="3.03487">
        <ele>985</ele>
        <time>2016-12-30T12:06:23.008Z</time>
      </trkpt>
      <trkpt lat="45.05716" lon="3.03482">
        <ele>986.73600942092</ele>
        <time>2016-12-30T12:06:25.008Z</time>
      </trkpt>
      <trkpt lat="45.05713" lon="3.03477">
        <ele>987</ele>
        <time>2016-12-30T12:06:27.008Z</time>
      </trkpt>
      <trkpt lat="45.05711" lon="3.03471">
        <ele>987</ele>
        <time>2016-12-30T12:06:29.008Z</time>
      </trkpt>
      <trkpt lat="45.05708" lon="3.03466">
        <ele>987</ele>
        <time>2016-12-30T12:06:31.008Z</time>
      </trkpt>
      <trkpt lat="45.05706" lon="3.03462">
        <ele>987</ele>
        <time>2016-12-30T12:06:33.008Z</time>
      </trkpt>
      <trkpt lat="45.05705" lon="3.03457">
        <ele>988</ele>
        <time>2016-12-30T12:06:44.008Z</time>
      </trkpt>
      <trkpt lat="45.05703" lon="3.03453">
        <ele>988</ele>
        <time>2016-12-30T12:06:46.008Z</time>
      </trkpt>
      <trkpt lat="45.05701" lon="3.03447">
        <ele>988</ele>
        <time>2016-12-30T12:06:48.008Z</time>
      </trkpt>
      <trkpt lat="45.05698" lon="3.03441">
        <ele>988.85940410863</ele>
        <time>2016-12-30T12:06:50.008Z</time>
      </trkpt>
      <trkpt lat="45.05697" lon="3.03438">
        <ele>989</ele>
        <time>2016-12-30T12:06:51.008Z</time>
      </trkpt>
      <trkpt lat="45.05695" lon="3.03435">
        <ele>989</ele>
        <time>2016-12-30T12:06:52.008Z</time>
      </trkpt>
      <trkpt lat="45.05693" lon="3.03431">
        <ele>989</ele>
        <time>2016-12-30T12:06:53.008Z</time>
      </trkpt>
      <trkpt lat="45.05691" lon="3.03428">
        <ele>989</ele>
        <time>2016-12-30T12:06:54.008Z</time>
      </trkpt>
      <trkpt lat="45.05688" lon="3.03424">
        <ele>989</ele>
        <time>2016-12-30T12:06:55.008Z</time>
      </trkpt>
      <trkpt lat="45.05686" lon="3.0342">
        <ele>989</ele>
        <time>2016-12-30T12:06:56.008Z</time>
      </trkpt>
      <trkpt lat="45.05684" lon="3.03416">
        <ele>989</ele>
        <time>2016-12-30T12:06:57.008Z</time>
      </trkpt>
      <trkpt lat="45.05682" lon="3.03412">
        <ele>989</ele>
        <time>2016-12-30T12:06:58.008Z</time>
      </trkpt>
      <trkpt lat="45.0568" lon="3.03408">
        <ele>989</ele>
        <time>2016-12-30T12:06:59.008Z</time>
      </trkpt>
      <trkpt lat="45.05678" lon="3.03404">
        <ele>990.73599057932</ele>
        <time>2016-12-30T12:07:00.008Z</time>
      </trkpt>
      <trkpt lat="45.05675" lon="3.034">
        <ele>991</ele>
        <time>2016-12-30T12:07:01.008Z</time>
      </trkpt>
      <trkpt lat="45.05673" lon="3.03395">
        <ele>991</ele>
        <time>2016-12-30T12:07:02.008Z</time>
      </trkpt>
      <trkpt lat="45.05671" lon="3.03391">
        <ele>991</ele>
        <time>2016-12-30T12:07:03.008Z</time>
      </trkpt>
      <trkpt lat="45.05669" lon="3.03387">
        <ele>991</ele>
        <time>2016-12-30T12:07:04.008Z</time>
      </trkpt>
      <trkpt lat="45.05665" lon="3.03379">
        <ele>991</ele>
        <time>2016-12-30T12:07:06.008Z</time>
      </trkpt>
      <trkpt lat="45.0566" lon="3.03371">
        <ele>991</ele>
        <time>2016-12-30T12:07:08.008Z</time>
      </trkpt>
      <trkpt lat="45.05656" lon="3.03363">
        <ele>991.86666063302</ele>
        <time>2016-12-30T12:07:10.008Z</time>
      </trkpt>
      <trkpt lat="45.05651" lon="3.03355">
        <ele>992</ele>
        <time>2016-12-30T12:07:12.008Z</time>
      </trkpt>
      <trkpt lat="45.05648" lon="3.03346">
        <ele>992</ele>
        <time>2016-12-30T12:07:14.008Z</time>
      </trkpt>
      <trkpt lat="45.05646" lon="3.03338">
        <ele>992</ele>
        <time>2016-12-30T12:07:16.008Z</time>
      </trkpt>
      <trkpt lat="45.05646" lon="3.0333">
        <ele>992</ele>
        <time>2016-12-30T12:07:18.008Z</time>
      </trkpt>
      <trkpt lat="45.05645" lon="3.03323">
        <ele>993.71880821727</ele>
        <time>2016-12-30T12:07:20.008Z</time>
      </trkpt>
      <trkpt lat="45.05645" lon="3.03316">
        <ele>994</ele>
        <time>2016-12-30T12:07:22.008Z</time>
      </trkpt>
      <trkpt lat="45.05647" lon="3.03306">
        <ele>994</ele>
        <time>2016-12-30T12:07:25.008Z</time>
      </trkpt>
      <trkpt lat="45.05649" lon="3.03298">
        <ele>994</ele>
        <time>2016-12-30T12:07:28.008Z</time>
      </trkpt>
      <trkpt lat="45.05656" lon="3.03294">
        <ele>996</ele>
        <time>2016-12-30T12:07:32.008Z</time>
      </trkpt>
      <trkpt lat="45.05662" lon="3.03293">
        <ele>998.60401413138</ele>
        <time>2016-12-30T12:07:35.008Z</time>
      </trkpt>
      <trkpt lat="45.05668" lon="3.03292">
        <ele>999</ele>
        <time>2016-12-30T12:07:39.008Z</time>
      </trkpt>
      <trkpt lat="45.05673" lon="3.03291">
        <ele>1001</ele>
        <time>2016-12-30T12:07:42.008Z</time>
      </trkpt>
      <trkpt lat="45.05679" lon="3.03292">
        <ele>1003</ele>
        <time>2016-12-30T12:07:46.008Z</time>
      </trkpt>
      <trkpt lat="45.05686" lon="3.03291">
        <ele>1005.5782123259</ele>
        <time>2016-12-30T12:07:50.008Z</time>
      </trkpt>
      <trkpt lat="45.05692" lon="3.03291">
        <ele>1006</ele>
        <time>2016-12-30T12:07:54.008Z</time>
      </trkpt>
      <trkpt lat="45.05696" lon="3.03289">
        <ele>1008</ele>
        <time>2016-12-30T12:07:57.008Z</time>
      </trkpt>
      <trkpt lat="45.05702" lon="3.03288">
        <ele>1008.8679952897</ele>
        <time>2016-12-30T12:08:00.008Z</time>
      </trkpt>
      <trkpt lat="45.05706" lon="3.03289">
        <ele>1011</ele>
        <time>2016-12-30T12:08:06.008Z</time>
      </trkpt>
      <trkpt lat="45.05711" lon="3.03287">
        <ele>1012</ele>
        <time>2016-12-30T12:08:12.008Z</time>
      </trkpt>
      <trkpt lat="45.05715" lon="3.03283">
        <ele>1012</ele>
        <time>2016-12-30T12:08:18.008Z</time>
      </trkpt>
      <trkpt lat="45.05719" lon="3.0328">
        <ele>1013</ele>
        <time>2016-12-30T12:08:23.008Z</time>
      </trkpt>
      <trkpt lat="45.05721" lon="3.03274">
        <ele>1013</ele>
        <time>2016-12-30T12:08:28.008Z</time>
      </trkpt>
      <trkpt lat="45.05724" lon="3.03269">
        <ele>1015</ele>
        <time>2016-12-30T12:08:33.008Z</time>
      </trkpt>
      <trkpt lat="45.05728" lon="3.03263">
        <ele>1015</ele>
        <time>2016-12-30T12:08:38.008Z</time>
      </trkpt>
      <trkpt lat="45.05731" lon="3.03257">
        <ele>1018</ele>
        <time>2016-12-30T12:08:44.008Z</time>
      </trkpt>
      <trkpt lat="45.05734" lon="3.03252">
        <ele>1020</ele>
        <time>2016-12-30T12:08:47.008Z</time>
      </trkpt>
      <trkpt lat="45.05737" lon="3.03245">
        <ele>1022</ele>
        <time>2016-12-30T12:08:51.008Z</time>
      </trkpt>
      <trkpt lat="45.0574" lon="3.03239">
        <ele>1022</ele>
        <time>2016-12-30T12:08:54.008Z</time>
      </trkpt>
      <trkpt lat="45.05743" lon="3.03233">
        <ele>1023</ele>
        <time>2016-12-30T12:08:57.008Z</time>
      </trkpt>
      <trkpt lat="45.05745" lon="3.03227">
        <ele>1024.7359905793</ele>
        <time>2016-12-30T12:09:00.008Z</time>
      </trkpt>
      <trkpt lat="45.05748" lon="3.0322">
        <ele>1025</ele>
        <time>2016-12-30T12:09:04.008Z</time>
      </trkpt>
      <trkpt lat="45.05748" lon="3.03213">
        <ele>1027</ele>
        <time>2016-12-30T12:09:07.008Z</time>
      </trkpt>
      <trkpt lat="45.05749" lon="3.03205">
        <ele>1027</ele>
        <time>2016-12-30T12:09:10.008Z</time>
      </trkpt>
      <trkpt lat="45.0575" lon="3.03199">
        <ele>1027</ele>
        <time>2016-12-30T12:09:12.008Z</time>
      </trkpt>
      <trkpt lat="45.0575" lon="3.03193">
        <ele>1027</ele>
        <time>2016-12-30T12:09:14.008Z</time>
      </trkpt>
      <trkpt lat="45.05751" lon="3.03185">
        <ele>1027</ele>
        <time>2016-12-30T12:09:17.008Z</time>
      </trkpt>
      <trkpt lat="45.0575" lon="3.03178">
        <ele>1027.8594041086</ele>
        <time>2016-12-30T12:09:20.008Z</time>
      </trkpt>
      <trkpt lat="45.0575" lon="3.03168">
        <ele>1028</ele>
        <time>2016-12-30T12:09:23.008Z</time>
      </trkpt>
      <trkpt lat="45.0575" lon="3.03159">
        <ele>1028</ele>
        <time>2016-12-30T12:09:26.008Z</time>
      </trkpt>
      <trkpt lat="45.05749" lon="3.03152">
        <ele>1028</ele>
        <time>2016-12-30T12:09:28.008Z</time>
      </trkpt>
      <trkpt lat="45.05749" lon="3.03145">
        <ele>1029.730600943</ele>
        <time>2016-12-30T12:09:30.008Z</time>
      </trkpt>
      <trkpt lat="45.05749" lon="3.03139">
        <ele>1030</ele>
        <time>2016-12-30T12:09:32.008Z</time>
      </trkpt>
      <trkpt lat="45.05748" lon="3.03133">
        <ele>1030</ele>
        <time>2016-12-30T12:09:34.008Z</time>
      </trkpt>
      <trkpt lat="45.05748" lon="3.03126">
        <ele>1030</ele>
        <time>2016-12-30T12:09:37.008Z</time>
      </trkpt>
      <trkpt lat="45.05748" lon="3.03123">
        <ele>1032</ele>
        <time>2016-12-30T12:11:19.008Z</time>
      </trkpt>
      <trkpt lat="45.05749" lon="3.03116">
        <ele>1032</ele>
        <time>2016-12-30T12:11:29.008Z</time>
      </trkpt>
      <trkpt lat="45.05749" lon="3.03108">
        <ele>1032</ele>
        <time>2016-12-30T12:11:32.008Z</time>
      </trkpt>
      <trkpt lat="45.05749" lon="3.03102">
        <ele>1032</ele>
        <time>2016-12-30T12:11:34.008Z</time>
      </trkpt>
      <trkpt lat="45.05749" lon="3.03096">
        <ele>1032</ele>
        <time>2016-12-30T12:11:36.008Z</time>
      </trkpt>
      <trkpt lat="45.05749" lon="3.03088">
        <ele>1032</ele>
        <time>2016-12-30T12:11:39.008Z</time>
      </trkpt>
      <trkpt lat="45.05749" lon="3.0308">
        <ele>1033</ele>
        <time>2016-12-30T12:11:42.008Z</time>
      </trkpt>
      <trkpt lat="45.05748" lon="3.03073">
        <ele>1033</ele>
        <time>2016-12-30T12:11:44.008Z</time>
      </trkpt>
      <trkpt lat="45.05747" lon="3.03065">
        <ele>1033</ele>
        <time>2016-12-30T12:11:46.008Z</time>
      </trkpt>
      <trkpt lat="45.05746" lon="3.03058">
        <ele>1033</ele>
        <time>2016-12-30T12:11:48.008Z</time>
      </trkpt>
      <trkpt lat="45.05745" lon="3.0305">
        <ele>1033</ele>
        <time>2016-12-30T12:11:50.008Z</time>
      </trkpt>
      <trkpt lat="45.05745" lon="3.03042">
        <ele>1033</ele>
        <time>2016-12-30T12:11:52.008Z</time>
      </trkpt>
      <trkpt lat="45.05744" lon="3.03033">
        <ele>1033</ele>
        <time>2016-12-30T12:11:54.008Z</time>
      </trkpt>
      <trkpt lat="45.05743" lon="3.03028">
        <ele>1033</ele>
        <time>2016-12-30T12:11:55.008Z</time>
      </trkpt>
      <trkpt lat="45.05742" lon="3.03018">
        <ele>1033</ele>
        <time>2016-12-30T12:11:57.008Z</time>
      </trkpt>
      <trkpt lat="45.05741" lon="3.03013">
        <ele>1033</ele>
        <time>2016-12-30T12:11:58.008Z</time>
      </trkpt>
      <trkpt lat="45.05741" lon="3.03008">
        <ele>1033</ele>
        <time>2016-12-30T12:11:59.008Z</time>
      </trkpt>
      <trkpt lat="45.05741" lon="3.03003">
        <ele>1033</ele>
        <time>2016-12-30T12:12:00.008Z</time>
      </trkpt>
      <trkpt lat="45.05741" lon="3.02998">
        <ele>1033</ele>
        <time>2016-12-30T12:12:01.008Z</time>
      </trkpt>
      <trkpt lat="45.0574" lon="3.02994">
        <ele>1033</ele>
        <time>2016-12-30T12:12:02.008Z</time>
      </trkpt>
      <trkpt lat="45.0574" lon="3.02989">
        <ele>1033</ele>
        <time>2016-12-30T12:12:03.008Z</time>
      </trkpt>
      <trkpt lat="45.05738" lon="3.0298">
        <ele>1033</ele>
        <time>2016-12-30T12:12:05.008Z</time>
      </trkpt>
      <trkpt lat="45.05737" lon="3.02971">
        <ele>1033</ele>
        <time>2016-12-30T12:12:07.008Z</time>
      </trkpt>
      <trkpt lat="45.05736" lon="3.02962">
        <ele>1033</ele>
        <time>2016-12-30T12:12:09.008Z</time>
      </trkpt>
      <trkpt lat="45.05735" lon="3.02957">
        <ele>1033.8679952897</ele>
        <time>2016-12-30T12:12:10.008Z</time>
      </trkpt>
      <trkpt lat="45.05735" lon="3.02952">
        <ele>1034</ele>
        <time>2016-12-30T12:12:11.008Z</time>
      </trkpt>
      <trkpt lat="45.05734" lon="3.02947">
        <ele>1034</ele>
        <time>2016-12-30T12:12:12.008Z</time>
      </trkpt>
      <trkpt lat="45.05734" lon="3.02943">
        <ele>1034</ele>
        <time>2016-12-30T12:12:13.008Z</time>
      </trkpt>
      <trkpt lat="45.05734" lon="3.02938">
        <ele>1034</ele>
        <time>2016-12-30T12:12:14.008Z</time>
      </trkpt>
      <trkpt lat="45.05734" lon="3.0293">
        <ele>1034</ele>
        <time>2016-12-30T12:12:16.008Z</time>
      </trkpt>
      <trkpt lat="45.05733" lon="3.02921">
        <ele>1034</ele>
        <time>2016-12-30T12:12:18.008Z</time>
      </trkpt>
      <trkpt lat="45.05733" lon="3.02916">
        <ele>1034</ele>
        <time>2016-12-30T12:12:19.008Z</time>
      </trkpt>
      <trkpt lat="45.05732" lon="3.02908">
        <ele>1035</ele>
        <time>2016-12-30T12:12:21.008Z</time>
      </trkpt>
      <trkpt lat="45.05732" lon="3.02903">
        <ele>1035</ele>
        <time>2016-12-30T12:12:22.008Z</time>
      </trkpt>
      <trkpt lat="45.05731" lon="3.02898">
        <ele>1035</ele>
        <time>2016-12-30T12:12:23.008Z</time>
      </trkpt>
      <trkpt lat="45.05731" lon="3.02894">
        <ele>1035</ele>
        <time>2016-12-30T12:12:24.008Z</time>
      </trkpt>
      <trkpt lat="45.05731" lon="3.02889">
        <ele>1035</ele>
        <time>2016-12-30T12:12:25.008Z</time>
      </trkpt>
      <trkpt lat="45.0573" lon="3.02884">
        <ele>1035</ele>
        <time>2016-12-30T12:12:26.008Z</time>
      </trkpt>
      <trkpt lat="45.05729" lon="3.02879">
        <ele>1035</ele>
        <time>2016-12-30T12:12:27.008Z</time>
      </trkpt>
      <trkpt lat="45.05729" lon="3.02875">
        <ele>1035</ele>
        <time>2016-12-30T12:12:28.008Z</time>
      </trkpt>
      <trkpt lat="45.05728" lon="3.0287">
        <ele>1035</ele>
        <time>2016-12-30T12:12:29.008Z</time>
      </trkpt>
      <trkpt lat="45.05728" lon="3.02865">
        <ele>1035</ele>
        <time>2016-12-30T12:12:30.008Z</time>
      </trkpt>
      <trkpt lat="45.05726" lon="3.02856">
        <ele>1035</ele>
        <time>2016-12-30T12:12:32.008Z</time>
      </trkpt>
      <trkpt lat="45.05725" lon="3.02847">
        <ele>1035</ele>
        <time>2016-12-30T12:12:34.008Z</time>
      </trkpt>
      <trkpt lat="45.05724" lon="3.02842">
        <ele>1035</ele>
        <time>2016-12-30T12:12:35.008Z</time>
      </trkpt>
      <trkpt lat="45.05724" lon="3.02837">
        <ele>1035</ele>
        <time>2016-12-30T12:12:36.008Z</time>
      </trkpt>
      <trkpt lat="45.05723" lon="3.02828">
        <ele>1035</ele>
        <time>2016-12-30T12:12:38.008Z</time>
      </trkpt>
      <trkpt lat="45.05722" lon="3.02823">
        <ele>1035</ele>
        <time>2016-12-30T12:12:39.008Z</time>
      </trkpt>
      <trkpt lat="45.05722" lon="3.02818">
        <ele>1035</ele>
        <time>2016-12-30T12:12:40.008Z</time>
      </trkpt>
      <trkpt lat="45.05723" lon="3.02812">
        <ele>1035</ele>
        <time>2016-12-30T12:12:41.008Z</time>
      </trkpt>
      <trkpt lat="45.05723" lon="3.02807">
        <ele>1035</ele>
        <time>2016-12-30T12:12:42.008Z</time>
      </trkpt>
      <trkpt lat="45.05724" lon="3.02801">
        <ele>1035</ele>
        <time>2016-12-30T12:12:43.008Z</time>
      </trkpt>
      <trkpt lat="45.05725" lon="3.02796">
        <ele>1035</ele>
        <time>2016-12-30T12:12:44.008Z</time>
      </trkpt>
      <trkpt lat="45.05728" lon="3.02784">
        <ele>1035</ele>
        <time>2016-12-30T12:12:46.008Z</time>
      </trkpt>
      <trkpt lat="45.05729" lon="3.02779">
        <ele>1035</ele>
        <time>2016-12-30T12:12:47.008Z</time>
      </trkpt>
      <trkpt lat="45.0573" lon="3.02773">
        <ele>1035</ele>
        <time>2016-12-30T12:12:48.008Z</time>
      </trkpt>
      <trkpt lat="45.05731" lon="3.02767">
        <ele>1035</ele>
        <time>2016-12-30T12:12:49.008Z</time>
      </trkpt>
      <trkpt lat="45.05732" lon="3.02761">
        <ele>1035</ele>
        <time>2016-12-30T12:12:50.008Z</time>
      </trkpt>
      <trkpt lat="45.05733" lon="3.02755">
        <ele>1035</ele>
        <time>2016-12-30T12:12:51.008Z</time>
      </trkpt>
      <trkpt lat="45.05735" lon="3.02749">
        <ele>1035</ele>
        <time>2016-12-30T12:12:52.008Z</time>
      </trkpt>
      <trkpt lat="45.05736" lon="3.02743">
        <ele>1035</ele>
        <time>2016-12-30T12:12:53.008Z</time>
      </trkpt>
      <trkpt lat="45.05737" lon="3.02737">
        <ele>1035</ele>
        <time>2016-12-30T12:12:54.008Z</time>
      </trkpt>
      <trkpt lat="45.05739" lon="3.02731">
        <ele>1035</ele>
        <time>2016-12-30T12:12:55.008Z</time>
      </trkpt>
      <trkpt lat="45.05741" lon="3.02725">
        <ele>1035</ele>
        <time>2016-12-30T12:12:56.008Z</time>
      </trkpt>
      <trkpt lat="45.05743" lon="3.02719">
        <ele>1035</ele>
        <time>2016-12-30T12:12:57.008Z</time>
      </trkpt>
      <trkpt lat="45.05745" lon="3.02712">
        <ele>1035</ele>
        <time>2016-12-30T12:12:58.008Z</time>
      </trkpt>
      <trkpt lat="45.05748" lon="3.02707">
        <ele>1035</ele>
        <time>2016-12-30T12:12:59.008Z</time>
      </trkpt>
      <trkpt lat="45.0575" lon="3.02701">
        <ele>1035</ele>
        <time>2016-12-30T12:13:00.008Z</time>
      </trkpt>
      <trkpt lat="45.05753" lon="3.02696">
        <ele>1035</ele>
        <time>2016-12-30T12:13:01.008Z</time>
      </trkpt>
      <trkpt lat="45.05756" lon="3.02691">
        <ele>1035</ele>
        <time>2016-12-30T12:13:02.008Z</time>
      </trkpt>
      <trkpt lat="45.05759" lon="3.02685">
        <ele>1035</ele>
        <time>2016-12-30T12:13:03.008Z</time>
      </trkpt>
      <trkpt lat="45.05763" lon="3.0268">
        <ele>1035</ele>
        <time>2016-12-30T12:13:04.008Z</time>
      </trkpt>
      <trkpt lat="45.05766" lon="3.02675">
        <ele>1035</ele>
        <time>2016-12-30T12:13:05.008Z</time>
      </trkpt>
      <trkpt lat="45.05769" lon="3.0267">
        <ele>1035</ele>
        <time>2016-12-30T12:13:06.008Z</time>
      </trkpt>
      <trkpt lat="45.05773" lon="3.02665">
        <ele>1035</ele>
        <time>2016-12-30T12:13:07.008Z</time>
      </trkpt>
      <trkpt lat="45.05776" lon="3.0266">
        <ele>1035</ele>
        <time>2016-12-30T12:13:08.008Z</time>
      </trkpt>
      <trkpt lat="45.05779" lon="3.02654">
        <ele>1035</ele>
        <time>2016-12-30T12:13:09.008Z</time>
      </trkpt>
      <trkpt lat="45.05782" lon="3.02649">
        <ele>1035.8679952897</ele>
        <time>2016-12-30T12:13:10.008Z</time>
      </trkpt>
      <trkpt lat="45.05784" lon="3.02644">
        <ele>1036</ele>
        <time>2016-12-30T12:13:11.008Z</time>
      </trkpt>
      <trkpt lat="45.05787" lon="3.02638">
        <ele>1036</ele>
        <time>2016-12-30T12:13:12.008Z</time>
      </trkpt>
      <trkpt lat="45.05788" lon="3.02632">
        <ele>1036</ele>
        <time>2016-12-30T12:13:13.008Z</time>
      </trkpt>
      <trkpt lat="45.0579" lon="3.0262">
        <ele>1036</ele>
        <time>2016-12-30T12:13:15.008Z</time>
      </trkpt>
      <trkpt lat="45.05791" lon="3.02613">
        <ele>1036</ele>
        <time>2016-12-30T12:13:16.008Z</time>
      </trkpt>
      <trkpt lat="45.05792" lon="3.02607">
        <ele>1036</ele>
        <time>2016-12-30T12:13:17.008Z</time>
      </trkpt>
      <trkpt lat="45.05792" lon="3.026">
        <ele>1036</ele>
        <time>2016-12-30T12:13:18.008Z</time>
      </trkpt>
      <trkpt lat="45.05793" lon="3.02594">
        <ele>1036</ele>
        <time>2016-12-30T12:13:19.008Z</time>
      </trkpt>
      <trkpt lat="45.05793" lon="3.02587">
        <ele>1036.8594041086</ele>
        <time>2016-12-30T12:13:20.008Z</time>
      </trkpt>
      <trkpt lat="45.05793" lon="3.0258">
        <ele>1037</ele>
        <time>2016-12-30T12:13:21.008Z</time>
      </trkpt>
      <trkpt lat="45.05793" lon="3.02574">
        <ele>1037</ele>
        <time>2016-12-30T12:13:22.008Z</time>
      </trkpt>
      <trkpt lat="45.05793" lon="3.02567">
        <ele>1037</ele>
        <time>2016-12-30T12:13:23.008Z</time>
      </trkpt>
      <trkpt lat="45.05793" lon="3.02561">
        <ele>1037</ele>
        <time>2016-12-30T12:13:24.008Z</time>
      </trkpt>
      <trkpt lat="45.05793" lon="3.02554">
        <ele>1037</ele>
        <time>2016-12-30T12:13:25.008Z</time>
      </trkpt>
      <trkpt lat="45.05793" lon="3.02547">
        <ele>1037</ele>
        <time>2016-12-30T12:13:26.008Z</time>
      </trkpt>
      <trkpt lat="45.05794" lon="3.02541">
        <ele>1037</ele>
        <time>2016-12-30T12:13:27.008Z</time>
      </trkpt>
      <trkpt lat="45.05795" lon="3.02534">
        <ele>1037</ele>
        <time>2016-12-30T12:13:28.008Z</time>
      </trkpt>
      <trkpt lat="45.05796" lon="3.02528">
        <ele>1037</ele>
        <time>2016-12-30T12:13:29.008Z</time>
      </trkpt>
      <trkpt lat="45.05798" lon="3.02521">
        <ele>1037</ele>
        <time>2016-12-30T12:13:30.008Z</time>
      </trkpt>
      <trkpt lat="45.058" lon="3.02516">
        <ele>1037</ele>
        <time>2016-12-30T12:13:31.008Z</time>
      </trkpt>
      <trkpt lat="45.05802" lon="3.0251">
        <ele>1037</ele>
        <time>2016-12-30T12:13:32.008Z</time>
      </trkpt>
      <trkpt lat="45.05806" lon="3.02498">
        <ele>1037</ele>
        <time>2016-12-30T12:13:34.008Z</time>
      </trkpt>
      <trkpt lat="45.05808" lon="3.02492">
        <ele>1037</ele>
        <time>2016-12-30T12:13:35.008Z</time>
      </trkpt>
      <trkpt lat="45.0581" lon="3.02487">
        <ele>1037</ele>
        <time>2016-12-30T12:13:36.008Z</time>
      </trkpt>
      <trkpt lat="45.05812" lon="3.02481">
        <ele>1037</ele>
        <time>2016-12-30T12:13:37.008Z</time>
      </trkpt>
      <trkpt lat="45.05814" lon="3.02475">
        <ele>1037</ele>
        <time>2016-12-30T12:13:38.008Z</time>
      </trkpt>
      <trkpt lat="45.05816" lon="3.02469">
        <ele>1037</ele>
        <time>2016-12-30T12:13:39.008Z</time>
      </trkpt>
      <trkpt lat="45.05818" lon="3.02463">
        <ele>1038.7359905793</ele>
        <time>2016-12-30T12:13:40.008Z</time>
      </trkpt>
      <trkpt lat="45.05822" lon="3.0245">
        <ele>1039</ele>
        <time>2016-12-30T12:13:42.008Z</time>
      </trkpt>
      <trkpt lat="45.05825" lon="3.02437">
        <ele>1039</ele>
        <time>2016-12-30T12:13:44.008Z</time>
      </trkpt>
      <trkpt lat="45.05827" lon="3.02431">
        <ele>1039</ele>
        <time>2016-12-30T12:13:45.008Z</time>
      </trkpt>
      <trkpt lat="45.05831" lon="3.02418">
        <ele>1039</ele>
        <time>2016-12-30T12:13:47.008Z</time>
      </trkpt>
      <trkpt lat="45.05834" lon="3.02405">
        <ele>1039</ele>
        <time>2016-12-30T12:13:49.008Z</time>
      </trkpt>
      <trkpt lat="45.05837" lon="3.02392">
        <ele>1039</ele>
        <time>2016-12-30T12:13:51.008Z</time>
      </trkpt>
      <trkpt lat="45.0584" lon="3.02378">
        <ele>1039</ele>
        <time>2016-12-30T12:13:53.008Z</time>
      </trkpt>
      <trkpt lat="45.05841" lon="3.02371">
        <ele>1039</ele>
        <time>2016-12-30T12:13:54.008Z</time>
      </trkpt>
      <trkpt lat="45.05843" lon="3.02365">
        <ele>1039</ele>
        <time>2016-12-30T12:13:55.008Z</time>
      </trkpt>
      <trkpt lat="45.05848" lon="3.02352">
        <ele>1039</ele>
        <time>2016-12-30T12:13:57.008Z</time>
      </trkpt>
      <trkpt lat="45.05851" lon="3.02346">
        <ele>1039</ele>
        <time>2016-12-30T12:13:58.008Z</time>
      </trkpt>
      <trkpt lat="45.05854" lon="3.0234">
        <ele>1039</ele>
        <time>2016-12-30T12:13:59.008Z</time>
      </trkpt>
      <trkpt lat="45.05856" lon="3.02334">
        <ele>1039</ele>
        <time>2016-12-30T12:14:00.008Z</time>
      </trkpt>
      <trkpt lat="45.05859" lon="3.02328">
        <ele>1039</ele>
        <time>2016-12-30T12:14:01.008Z</time>
      </trkpt>
      <trkpt lat="45.05865" lon="3.02317">
        <ele>1039</ele>
        <time>2016-12-30T12:14:03.008Z</time>
      </trkpt>
      <trkpt lat="45.05868" lon="3.02311">
        <ele>1039</ele>
        <time>2016-12-30T12:14:04.008Z</time>
      </trkpt>
      <trkpt lat="45.05871" lon="3.02305">
        <ele>1039</ele>
        <time>2016-12-30T12:14:05.008Z</time>
      </trkpt>
      <trkpt lat="45.05873" lon="3.023">
        <ele>1039</ele>
        <time>2016-12-30T12:14:06.008Z</time>
      </trkpt>
      <trkpt lat="45.05876" lon="3.02294">
        <ele>1039</ele>
        <time>2016-12-30T12:14:07.008Z</time>
      </trkpt>
      <trkpt lat="45.05878" lon="3.02288">
        <ele>1039</ele>
        <time>2016-12-30T12:14:08.008Z</time>
      </trkpt>
      <trkpt lat="45.0588" lon="3.02281">
        <ele>1039</ele>
        <time>2016-12-30T12:14:09.008Z</time>
      </trkpt>
      <trkpt lat="45.05882" lon="3.02275">
        <ele>1039.8679952897</ele>
        <time>2016-12-30T12:14:10.008Z</time>
      </trkpt>
      <trkpt lat="45.05884" lon="3.02268">
        <ele>1040</ele>
        <time>2016-12-30T12:14:11.008Z</time>
      </trkpt>
      <trkpt lat="45.05885" lon="3.02261">
        <ele>1040</ele>
        <time>2016-12-30T12:14:12.008Z</time>
      </trkpt>
      <trkpt lat="45.05886" lon="3.02254">
        <ele>1040</ele>
        <time>2016-12-30T12:14:13.008Z</time>
      </trkpt>
      <trkpt lat="45.05887" lon="3.02247">
        <ele>1040</ele>
        <time>2016-12-30T12:14:14.008Z</time>
      </trkpt>
      <trkpt lat="45.05887" lon="3.0224">
        <ele>1040</ele>
        <time>2016-12-30T12:14:15.008Z</time>
      </trkpt>
      <trkpt lat="45.05888" lon="3.02233">
        <ele>1040</ele>
        <time>2016-12-30T12:14:16.008Z</time>
      </trkpt>
      <trkpt lat="45.05889" lon="3.02226">
        <ele>1040</ele>
        <time>2016-12-30T12:14:17.008Z</time>
      </trkpt>
      <trkpt lat="45.0589" lon="3.02219">
        <ele>1040</ele>
        <time>2016-12-30T12:14:18.008Z</time>
      </trkpt>
      <trkpt lat="45.05891" lon="3.02212">
        <ele>1040</ele>
        <time>2016-12-30T12:14:19.008Z</time>
      </trkpt>
      <trkpt lat="45.05891" lon="3.02205">
        <ele>1040</ele>
        <time>2016-12-30T12:14:20.008Z</time>
      </trkpt>
      <trkpt lat="45.05892" lon="3.02198">
        <ele>1040</ele>
        <time>2016-12-30T12:14:21.008Z</time>
      </trkpt>
      <trkpt lat="45.05893" lon="3.02192">
        <ele>1040</ele>
        <time>2016-12-30T12:14:22.008Z</time>
      </trkpt>
      <trkpt lat="45.05893" lon="3.02185">
        <ele>1040</ele>
        <time>2016-12-30T12:14:23.008Z</time>
      </trkpt>
      <trkpt lat="45.05894" lon="3.02178">
        <ele>1040</ele>
        <time>2016-12-30T12:14:24.008Z</time>
      </trkpt>
      <trkpt lat="45.05894" lon="3.02171">
        <ele>1040</ele>
        <time>2016-12-30T12:14:25.008Z</time>
      </trkpt>
      <trkpt lat="45.05895" lon="3.02164">
        <ele>1040</ele>
        <time>2016-12-30T12:14:26.008Z</time>
      </trkpt>
      <trkpt lat="45.05895" lon="3.02158">
        <ele>1040</ele>
        <time>2016-12-30T12:14:27.008Z</time>
      </trkpt>
      <trkpt lat="45.05896" lon="3.02151">
        <ele>1040</ele>
        <time>2016-12-30T12:14:28.008Z</time>
      </trkpt>
      <trkpt lat="45.05896" lon="3.02144">
        <ele>1040</ele>
        <time>2016-12-30T12:14:29.008Z</time>
      </trkpt>
      <trkpt lat="45.05896" lon="3.02138">
        <ele>1041.7359905793</ele>
        <time>2016-12-30T12:14:30.008Z</time>
      </trkpt>
      <trkpt lat="45.05897" lon="3.02131">
        <ele>1042</ele>
        <time>2016-12-30T12:14:31.008Z</time>
      </trkpt>
      <trkpt lat="45.05897" lon="3.02124">
        <ele>1042</ele>
        <time>2016-12-30T12:14:32.008Z</time>
      </trkpt>
      <trkpt lat="45.05898" lon="3.02117">
        <ele>1042</ele>
        <time>2016-12-30T12:14:33.008Z</time>
      </trkpt>
      <trkpt lat="45.05898" lon="3.02111">
        <ele>1042</ele>
        <time>2016-12-30T12:14:34.008Z</time>
      </trkpt>
      <trkpt lat="45.05899" lon="3.02104">
        <ele>1042</ele>
        <time>2016-12-30T12:14:35.008Z</time>
      </trkpt>
      <trkpt lat="45.05899" lon="3.02097">
        <ele>1042</ele>
        <time>2016-12-30T12:14:36.008Z</time>
      </trkpt>
      <trkpt lat="45.05899" lon="3.0209">
        <ele>1042</ele>
        <time>2016-12-30T12:14:37.008Z</time>
      </trkpt>
      <trkpt lat="45.05899" lon="3.02083">
        <ele>1042</ele>
        <time>2016-12-30T12:14:38.008Z</time>
      </trkpt>
      <trkpt lat="45.059" lon="3.02076">
        <ele>1042</ele>
        <time>2016-12-30T12:14:39.008Z</time>
      </trkpt>
      <trkpt lat="45.059" lon="3.02069">
        <ele>1042.8679952897</ele>
        <time>2016-12-30T12:14:40.008Z</time>
      </trkpt>
      <trkpt lat="45.05901" lon="3.02062">
        <ele>1043</ele>
        <time>2016-12-30T12:14:41.008Z</time>
      </trkpt>
      <trkpt lat="45.05901" lon="3.02055">
        <ele>1043</ele>
        <time>2016-12-30T12:14:42.008Z</time>
      </trkpt>
      <trkpt lat="45.05902" lon="3.02049">
        <ele>1043</ele>
        <time>2016-12-30T12:14:43.008Z</time>
      </trkpt>
      <trkpt lat="45.05903" lon="3.02042">
        <ele>1043</ele>
        <time>2016-12-30T12:14:44.008Z</time>
      </trkpt>
      <trkpt lat="45.05904" lon="3.02035">
        <ele>1043</ele>
        <time>2016-12-30T12:14:45.008Z</time>
      </trkpt>
      <trkpt lat="45.05906" lon="3.02029">
        <ele>1043</ele>
        <time>2016-12-30T12:14:46.008Z</time>
      </trkpt>
      <trkpt lat="45.05907" lon="3.02023">
        <ele>1043</ele>
        <time>2016-12-30T12:14:47.008Z</time>
      </trkpt>
      <trkpt lat="45.05909" lon="3.02017">
        <ele>1043</ele>
        <time>2016-12-30T12:14:48.008Z</time>
      </trkpt>
      <trkpt lat="45.0591" lon="3.0201">
        <ele>1043</ele>
        <time>2016-12-30T12:14:49.008Z</time>
      </trkpt>
      <trkpt lat="45.05912" lon="3.02004">
        <ele>1043</ele>
        <time>2016-12-30T12:14:50.008Z</time>
      </trkpt>
      <trkpt lat="45.05912" lon="3.01997">
        <ele>1043</ele>
        <time>2016-12-30T12:14:51.008Z</time>
      </trkpt>
      <trkpt lat="45.05913" lon="3.01991">
        <ele>1043</ele>
        <time>2016-12-30T12:14:52.008Z</time>
      </trkpt>
      <trkpt lat="45.05913" lon="3.01984">
        <ele>1043</ele>
        <time>2016-12-30T12:14:53.008Z</time>
      </trkpt>
      <trkpt lat="45.05914" lon="3.01977">
        <ele>1043</ele>
        <time>2016-12-30T12:14:54.008Z</time>
      </trkpt>
      <trkpt lat="45.05914" lon="3.01971">
        <ele>1043</ele>
        <time>2016-12-30T12:14:55.008Z</time>
      </trkpt>
      <trkpt lat="45.05914" lon="3.01964">
        <ele>1043</ele>
        <time>2016-12-30T12:14:56.008Z</time>
      </trkpt>
      <trkpt lat="45.05913" lon="3.01958">
        <ele>1043</ele>
        <time>2016-12-30T12:14:57.008Z</time>
      </trkpt>
      <trkpt lat="45.05913" lon="3.01951">
        <ele>1043</ele>
        <time>2016-12-30T12:14:58.008Z</time>
      </trkpt>
      <trkpt lat="45.05912" lon="3.01945">
        <ele>1043</ele>
        <time>2016-12-30T12:14:59.008Z</time>
      </trkpt>
      <trkpt lat="45.05912" lon="3.01939">
        <ele>1043.8679952897</ele>
        <time>2016-12-30T12:15:00.008Z</time>
      </trkpt>
      <trkpt lat="45.05911" lon="3.01932">
        <ele>1044</ele>
        <time>2016-12-30T12:15:01.008Z</time>
      </trkpt>
      <trkpt lat="45.05911" lon="3.01926">
        <ele>1044</ele>
        <time>2016-12-30T12:15:02.008Z</time>
      </trkpt>
      <trkpt lat="45.05911" lon="3.0192">
        <ele>1044</ele>
        <time>2016-12-30T12:15:03.008Z</time>
      </trkpt>
      <trkpt lat="45.0591" lon="3.01913">
        <ele>1044</ele>
        <time>2016-12-30T12:15:04.008Z</time>
      </trkpt>
      <trkpt lat="45.0591" lon="3.01907">
        <ele>1044</ele>
        <time>2016-12-30T12:15:05.008Z</time>
      </trkpt>
      <trkpt lat="45.05909" lon="3.01901">
        <ele>1044</ele>
        <time>2016-12-30T12:15:06.008Z</time>
      </trkpt>
      <trkpt lat="45.05909" lon="3.01895">
        <ele>1044</ele>
        <time>2016-12-30T12:15:07.008Z</time>
      </trkpt>
      <trkpt lat="45.05909" lon="3.01889">
        <ele>1044</ele>
        <time>2016-12-30T12:15:08.008Z</time>
      </trkpt>
      <trkpt lat="45.05909" lon="3.01882">
        <ele>1044</ele>
        <time>2016-12-30T12:15:09.008Z</time>
      </trkpt>
      <trkpt lat="45.05909" lon="3.01876">
        <ele>1044</ele>
        <time>2016-12-30T12:15:10.008Z</time>
      </trkpt>
      <trkpt lat="45.05909" lon="3.0187">
        <ele>1044</ele>
        <time>2016-12-30T12:15:11.008Z</time>
      </trkpt>
      <trkpt lat="45.05909" lon="3.01864">
        <ele>1044</ele>
        <time>2016-12-30T12:15:12.008Z</time>
      </trkpt>
      <trkpt lat="45.05909" lon="3.01858">
        <ele>1044</ele>
        <time>2016-12-30T12:15:13.008Z</time>
      </trkpt>
      <trkpt lat="45.0591" lon="3.01852">
        <ele>1044</ele>
        <time>2016-12-30T12:15:14.008Z</time>
      </trkpt>
      <trkpt lat="45.0591" lon="3.01846">
        <ele>1044</ele>
        <time>2016-12-30T12:15:15.008Z</time>
      </trkpt>
      <trkpt lat="45.0591" lon="3.0184">
        <ele>1044</ele>
        <time>2016-12-30T12:15:16.008Z</time>
      </trkpt>
      <trkpt lat="45.0591" lon="3.01835">
        <ele>1044</ele>
        <time>2016-12-30T12:15:17.008Z</time>
      </trkpt>
      <trkpt lat="45.05909" lon="3.01829">
        <ele>1044</ele>
        <time>2016-12-30T12:15:18.008Z</time>
      </trkpt>
      <trkpt lat="45.05909" lon="3.01823">
        <ele>1044</ele>
        <time>2016-12-30T12:15:19.008Z</time>
      </trkpt>
      <trkpt lat="45.05909" lon="3.01817">
        <ele>1045.7188082173</ele>
        <time>2016-12-30T12:15:20.008Z</time>
      </trkpt>
      <trkpt lat="45.05909" lon="3.01811">
        <ele>1046</ele>
        <time>2016-12-30T12:15:21.008Z</time>
      </trkpt>
      <trkpt lat="45.05908" lon="3.01805">
        <ele>1046</ele>
        <time>2016-12-30T12:15:22.008Z</time>
      </trkpt>
      <trkpt lat="45.05908" lon="3.018">
        <ele>1046</ele>
        <time>2016-12-30T12:15:23.008Z</time>
      </trkpt>
      <trkpt lat="45.05908" lon="3.01794">
        <ele>1046</ele>
        <time>2016-12-30T12:15:24.008Z</time>
      </trkpt>
      <trkpt lat="45.05908" lon="3.01788">
        <ele>1046</ele>
        <time>2016-12-30T12:15:25.008Z</time>
      </trkpt>
      <trkpt lat="45.05908" lon="3.01783">
        <ele>1046</ele>
        <time>2016-12-30T12:15:26.008Z</time>
      </trkpt>
      <trkpt lat="45.05907" lon="3.01772">
        <ele>1046</ele>
        <time>2016-12-30T12:15:28.008Z</time>
      </trkpt>
      <trkpt lat="45.05907" lon="3.01766">
        <ele>1046</ele>
        <time>2016-12-30T12:15:29.008Z</time>
      </trkpt>
      <trkpt lat="45.05907" lon="3.01755">
        <ele>1048</ele>
        <time>2016-12-30T12:15:31.008Z</time>
      </trkpt>
      <trkpt lat="45.05907" lon="3.0175">
        <ele>1048</ele>
        <time>2016-12-30T12:15:32.008Z</time>
      </trkpt>
      <trkpt lat="45.05906" lon="3.01744">
        <ele>1048</ele>
        <time>2016-12-30T12:15:33.008Z</time>
      </trkpt>
      <trkpt lat="45.05906" lon="3.01739">
        <ele>1048</ele>
        <time>2016-12-30T12:15:34.008Z</time>
      </trkpt>
      <trkpt lat="45.05906" lon="3.01733">
        <ele>1048</ele>
        <time>2016-12-30T12:15:35.008Z</time>
      </trkpt>
      <trkpt lat="45.05905" lon="3.01728">
        <ele>1048</ele>
        <time>2016-12-30T12:15:36.008Z</time>
      </trkpt>
      <trkpt lat="45.05904" lon="3.01722">
        <ele>1048</ele>
        <time>2016-12-30T12:15:37.008Z</time>
      </trkpt>
      <trkpt lat="45.05904" lon="3.01716">
        <ele>1048</ele>
        <time>2016-12-30T12:15:38.008Z</time>
      </trkpt>
      <trkpt lat="45.05903" lon="3.01711">
        <ele>1048</ele>
        <time>2016-12-30T12:15:39.008Z</time>
      </trkpt>
      <trkpt lat="45.05903" lon="3.01705">
        <ele>1049.7359905793</ele>
        <time>2016-12-30T12:15:40.008Z</time>
      </trkpt>
      <trkpt lat="45.05902" lon="3.017">
        <ele>1050</ele>
        <time>2016-12-30T12:15:41.008Z</time>
      </trkpt>
      <trkpt lat="45.05901" lon="3.01694">
        <ele>1050</ele>
        <time>2016-12-30T12:15:42.008Z</time>
      </trkpt>
      <trkpt lat="45.059" lon="3.01689">
        <ele>1050</ele>
        <time>2016-12-30T12:15:43.008Z</time>
      </trkpt>
      <trkpt lat="45.05899" lon="3.01683">
        <ele>1050</ele>
        <time>2016-12-30T12:15:44.008Z</time>
      </trkpt>
      <trkpt lat="45.05899" lon="3.01678">
        <ele>1050</ele>
        <time>2016-12-30T12:15:45.008Z</time>
      </trkpt>
      <trkpt lat="45.05898" lon="3.01673">
        <ele>1050</ele>
        <time>2016-12-30T12:15:46.008Z</time>
      </trkpt>
      <trkpt lat="45.05897" lon="3.01667">
        <ele>1050</ele>
        <time>2016-12-30T12:15:47.008Z</time>
      </trkpt>
      <trkpt lat="45.05896" lon="3.01662">
        <ele>1050</ele>
        <time>2016-12-30T12:15:48.008Z</time>
      </trkpt>
      <trkpt lat="45.05895" lon="3.01657">
        <ele>1050</ele>
        <time>2016-12-30T12:15:49.008Z</time>
      </trkpt>
      <trkpt lat="45.05894" lon="3.01652">
        <ele>1051.7188082173</ele>
        <time>2016-12-30T12:15:50.008Z</time>
      </trkpt>
      <trkpt lat="45.05893" lon="3.01647">
        <ele>1052</ele>
        <time>2016-12-30T12:15:51.008Z</time>
      </trkpt>
      <trkpt lat="45.05893" lon="3.01641">
        <ele>1052</ele>
        <time>2016-12-30T12:15:52.008Z</time>
      </trkpt>
      <trkpt lat="45.05892" lon="3.01636">
        <ele>1052</ele>
        <time>2016-12-30T12:15:53.008Z</time>
      </trkpt>
      <trkpt lat="45.05891" lon="3.01631">
        <ele>1052</ele>
        <time>2016-12-30T12:15:54.008Z</time>
      </trkpt>
      <trkpt lat="45.0589" lon="3.01625">
        <ele>1052</ele>
        <time>2016-12-30T12:15:55.008Z</time>
      </trkpt>
      <trkpt lat="45.05889" lon="3.0162">
        <ele>1052</ele>
        <time>2016-12-30T12:15:56.008Z</time>
      </trkpt>
      <trkpt lat="45.05889" lon="3.01615">
        <ele>1052</ele>
        <time>2016-12-30T12:15:57.008Z</time>
      </trkpt>
      <trkpt lat="45.05888" lon="3.0161">
        <ele>1052</ele>
        <time>2016-12-30T12:15:58.008Z</time>
      </trkpt>
      <trkpt lat="45.05887" lon="3.01599">
        <ele>1054.5529439815</ele>
        <time>2016-12-30T12:16:00.008Z</time>
      </trkpt>
      <trkpt lat="45.05887" lon="3.01594">
        <ele>1055</ele>
        <time>2016-12-30T12:16:01.008Z</time>
      </trkpt>
      <trkpt lat="45.05886" lon="3.01589">
        <ele>1055</ele>
        <time>2016-12-30T12:16:02.008Z</time>
      </trkpt>
      <trkpt lat="45.05886" lon="3.01584">
        <ele>1055</ele>
        <time>2016-12-30T12:16:03.008Z</time>
      </trkpt>
      <trkpt lat="45.05885" lon="3.01578">
        <ele>1055</ele>
        <time>2016-12-30T12:16:04.008Z</time>
      </trkpt>
      <trkpt lat="45.05885" lon="3.01568">
        <ele>1057</ele>
        <time>2016-12-30T12:16:06.008Z</time>
      </trkpt>
      <trkpt lat="45.05885" lon="3.01562">
        <ele>1057</ele>
        <time>2016-12-30T12:16:07.008Z</time>
      </trkpt>
      <trkpt lat="45.05885" lon="3.01557">
        <ele>1057</ele>
        <time>2016-12-30T12:16:08.008Z</time>
      </trkpt>
      <trkpt lat="45.05886" lon="3.01546">
        <ele>1057.8679952897</ele>
        <time>2016-12-30T12:16:10.008Z</time>
      </trkpt>
      <trkpt lat="45.05887" lon="3.01535">
        <ele>1058</ele>
        <time>2016-12-30T12:16:12.008Z</time>
      </trkpt>
      <trkpt lat="45.05888" lon="3.01529">
        <ele>1058</ele>
        <time>2016-12-30T12:16:13.008Z</time>
      </trkpt>
      <trkpt lat="45.05891" lon="3.01519">
        <ele>1058</ele>
        <time>2016-12-30T12:16:15.008Z</time>
      </trkpt>
      <trkpt lat="45.05892" lon="3.01514">
        <ele>1058</ele>
        <time>2016-12-30T12:16:16.008Z</time>
      </trkpt>
      <trkpt lat="45.05895" lon="3.01503">
        <ele>1058</ele>
        <time>2016-12-30T12:16:18.008Z</time>
      </trkpt>
      <trkpt lat="45.05896" lon="3.01497">
        <ele>1058</ele>
        <time>2016-12-30T12:16:19.008Z</time>
      </trkpt>
      <trkpt lat="45.05897" lon="3.01491">
        <ele>1058</ele>
        <time>2016-12-30T12:16:20.008Z</time>
      </trkpt>
      <trkpt lat="45.05899" lon="3.01486">
        <ele>1058</ele>
        <time>2016-12-30T12:16:21.008Z</time>
      </trkpt>
      <trkpt lat="45.059" lon="3.0148">
        <ele>1058</ele>
        <time>2016-12-30T12:16:22.008Z</time>
      </trkpt>
      <trkpt lat="45.05902" lon="3.01474">
        <ele>1058</ele>
        <time>2016-12-30T12:16:23.008Z</time>
      </trkpt>
      <trkpt lat="45.05903" lon="3.01468">
        <ele>1058</ele>
        <time>2016-12-30T12:16:24.008Z</time>
      </trkpt>
      <trkpt lat="45.05905" lon="3.01462">
        <ele>1058</ele>
        <time>2016-12-30T12:16:25.008Z</time>
      </trkpt>
      <trkpt lat="45.05906" lon="3.01456">
        <ele>1058</ele>
        <time>2016-12-30T12:16:26.008Z</time>
      </trkpt>
      <trkpt lat="45.05907" lon="3.01451">
        <ele>1058</ele>
        <time>2016-12-30T12:16:27.008Z</time>
      </trkpt>
      <trkpt lat="45.05909" lon="3.01445">
        <ele>1058</ele>
        <time>2016-12-30T12:16:28.008Z</time>
      </trkpt>
      <trkpt lat="45.0591" lon="3.01439">
        <ele>1058</ele>
        <time>2016-12-30T12:16:29.008Z</time>
      </trkpt>
      <trkpt lat="45.05911" lon="3.01432">
        <ele>1058.8679952897</ele>
        <time>2016-12-30T12:16:30.008Z</time>
      </trkpt>
      <trkpt lat="45.05912" lon="3.01426">
        <ele>1059</ele>
        <time>2016-12-30T12:16:31.008Z</time>
      </trkpt>
      <trkpt lat="45.05913" lon="3.0142">
        <ele>1059</ele>
        <time>2016-12-30T12:16:32.008Z</time>
      </trkpt>
      <trkpt lat="45.05914" lon="3.01414">
        <ele>1059</ele>
        <time>2016-12-30T12:16:33.008Z</time>
      </trkpt>
      <trkpt lat="45.05915" lon="3.01408">
        <ele>1059</ele>
        <time>2016-12-30T12:16:34.008Z</time>
      </trkpt>
      <trkpt lat="45.05916" lon="3.01402">
        <ele>1059</ele>
        <time>2016-12-30T12:16:35.008Z</time>
      </trkpt>
      <trkpt lat="45.05917" lon="3.01395">
        <ele>1059</ele>
        <time>2016-12-30T12:16:36.008Z</time>
      </trkpt>
      <trkpt lat="45.05918" lon="3.01389">
        <ele>1059</ele>
        <time>2016-12-30T12:16:37.008Z</time>
      </trkpt>
      <trkpt lat="45.05919" lon="3.01382">
        <ele>1059</ele>
        <time>2016-12-30T12:16:38.008Z</time>
      </trkpt>
      <trkpt lat="45.0592" lon="3.01376">
        <ele>1059</ele>
        <time>2016-12-30T12:16:39.008Z</time>
      </trkpt>
      <trkpt lat="45.0592" lon="3.01369">
        <ele>1059</ele>
        <time>2016-12-30T12:16:40.008Z</time>
      </trkpt>
      <trkpt lat="45.0592" lon="3.01362">
        <ele>1059</ele>
        <time>2016-12-30T12:16:41.008Z</time>
      </trkpt>
      <trkpt lat="45.05921" lon="3.01355">
        <ele>1059</ele>
        <time>2016-12-30T12:16:42.008Z</time>
      </trkpt>
      <trkpt lat="45.05921" lon="3.01349">
        <ele>1059</ele>
        <time>2016-12-30T12:16:43.008Z</time>
      </trkpt>
      <trkpt lat="45.05921" lon="3.01342">
        <ele>1059</ele>
        <time>2016-12-30T12:16:44.008Z</time>
      </trkpt>
      <trkpt lat="45.05922" lon="3.01335">
        <ele>1059</ele>
        <time>2016-12-30T12:16:45.008Z</time>
      </trkpt>
      <trkpt lat="45.05922" lon="3.01328">
        <ele>1059</ele>
        <time>2016-12-30T12:16:46.008Z</time>
      </trkpt>
      <trkpt lat="45.05921" lon="3.01322">
        <ele>1059</ele>
        <time>2016-12-30T12:16:47.008Z</time>
      </trkpt>
      <trkpt lat="45.05921" lon="3.01315">
        <ele>1059</ele>
        <time>2016-12-30T12:16:48.008Z</time>
      </trkpt>
      <trkpt lat="45.05921" lon="3.01308">
        <ele>1059</ele>
        <time>2016-12-30T12:16:49.008Z</time>
      </trkpt>
      <trkpt lat="45.05921" lon="3.01301">
        <ele>1059</ele>
        <time>2016-12-30T12:16:50.008Z</time>
      </trkpt>
      <trkpt lat="45.05921" lon="3.01294">
        <ele>1059</ele>
        <time>2016-12-30T12:16:51.008Z</time>
      </trkpt>
      <trkpt lat="45.0592" lon="3.01287">
        <ele>1059</ele>
        <time>2016-12-30T12:16:52.008Z</time>
      </trkpt>
      <trkpt lat="45.0592" lon="3.0128">
        <ele>1059</ele>
        <time>2016-12-30T12:16:53.008Z</time>
      </trkpt>
      <trkpt lat="45.05919" lon="3.01273">
        <ele>1059</ele>
        <time>2016-12-30T12:16:54.008Z</time>
      </trkpt>
      <trkpt lat="45.05918" lon="3.01266">
        <ele>1059</ele>
        <time>2016-12-30T12:16:55.008Z</time>
      </trkpt>
      <trkpt lat="45.05918" lon="3.01259">
        <ele>1059</ele>
        <time>2016-12-30T12:16:56.008Z</time>
      </trkpt>
      <trkpt lat="45.05917" lon="3.01252">
        <ele>1059</ele>
        <time>2016-12-30T12:16:57.008Z</time>
      </trkpt>
      <trkpt lat="45.05917" lon="3.01245">
        <ele>1059</ele>
        <time>2016-12-30T12:16:58.008Z</time>
      </trkpt>
      <trkpt lat="45.05916" lon="3.01239">
        <ele>1059</ele>
        <time>2016-12-30T12:16:59.008Z</time>
      </trkpt>
      <trkpt lat="45.05916" lon="3.01232">
        <ele>1059.8679952897</ele>
        <time>2016-12-30T12:17:00.008Z</time>
      </trkpt>
      <trkpt lat="45.05915" lon="3.01225">
        <ele>1060</ele>
        <time>2016-12-30T12:17:01.008Z</time>
      </trkpt>
      <trkpt lat="45.05915" lon="3.01218">
        <ele>1060</ele>
        <time>2016-12-30T12:17:02.008Z</time>
      </trkpt>
      <trkpt lat="45.05915" lon="3.01211">
        <ele>1060</ele>
        <time>2016-12-30T12:17:03.008Z</time>
      </trkpt>
      <trkpt lat="45.05914" lon="3.01204">
        <ele>1060</ele>
        <time>2016-12-30T12:17:04.008Z</time>
      </trkpt>
      <trkpt lat="45.05914" lon="3.01197">
        <ele>1060</ele>
        <time>2016-12-30T12:17:05.008Z</time>
      </trkpt>
      <trkpt lat="45.05914" lon="3.0119">
        <ele>1060</ele>
        <time>2016-12-30T12:17:06.008Z</time>
      </trkpt>
      <trkpt lat="45.05914" lon="3.01183">
        <ele>1060</ele>
        <time>2016-12-30T12:17:07.008Z</time>
      </trkpt>
      <trkpt lat="45.05913" lon="3.01176">
        <ele>1060</ele>
        <time>2016-12-30T12:17:08.008Z</time>
      </trkpt>
      <trkpt lat="45.05913" lon="3.01169">
        <ele>1060</ele>
        <time>2016-12-30T12:17:09.008Z</time>
      </trkpt>
      <trkpt lat="45.05913" lon="3.01162">
        <ele>1060</ele>
        <time>2016-12-30T12:17:10.008Z</time>
      </trkpt>
      <trkpt lat="45.05912" lon="3.01156">
        <ele>1060</ele>
        <time>2016-12-30T12:17:11.008Z</time>
      </trkpt>
      <trkpt lat="45.05911" lon="3.0115">
        <ele>1060</ele>
        <time>2016-12-30T12:17:12.008Z</time>
      </trkpt>
      <trkpt lat="45.05909" lon="3.01145">
        <ele>1060</ele>
        <time>2016-12-30T12:17:13.008Z</time>
      </trkpt>
      <trkpt lat="45.05902" lon="3.01136">
        <ele>1060</ele>
        <time>2016-12-30T12:17:15.008Z</time>
      </trkpt>
      <trkpt lat="45.05897" lon="3.01133">
        <ele>1060</ele>
        <time>2016-12-30T12:17:16.008Z</time>
      </trkpt>
      <trkpt lat="45.05893" lon="3.01131">
        <ele>1060</ele>
        <time>2016-12-30T12:17:17.008Z</time>
      </trkpt>
      <trkpt lat="45.05883" lon="3.01128">
        <ele>1060</ele>
        <time>2016-12-30T12:17:19.008Z</time>
      </trkpt>
      <trkpt lat="45.05874" lon="3.01124">
        <ele>1061</ele>
        <time>2016-12-30T12:17:21.008Z</time>
      </trkpt>
      <trkpt lat="45.05869" lon="3.01122">
        <ele>1061</ele>
        <time>2016-12-30T12:17:22.008Z</time>
      </trkpt>
      <trkpt lat="45.05864" lon="3.0112">
        <ele>1061</ele>
        <time>2016-12-30T12:17:23.008Z</time>
      </trkpt>
      <trkpt lat="45.05854" lon="3.01117">
        <ele>1061</ele>
        <time>2016-12-30T12:17:25.008Z</time>
      </trkpt>
      <trkpt lat="45.0585" lon="3.01116">
        <ele>1061</ele>
        <time>2016-12-30T12:17:26.008Z</time>
      </trkpt>
      <trkpt lat="45.05845" lon="3.01114">
        <ele>1061</ele>
        <time>2016-12-30T12:17:27.008Z</time>
      </trkpt>
      <trkpt lat="45.0584" lon="3.01113">
        <ele>1061</ele>
        <time>2016-12-30T12:17:28.008Z</time>
      </trkpt>
      <trkpt lat="45.05835" lon="3.01111">
        <ele>1061</ele>
        <time>2016-12-30T12:17:29.008Z</time>
      </trkpt>
      <trkpt lat="45.05825" lon="3.01107">
        <ele>1061</ele>
        <time>2016-12-30T12:17:31.008Z</time>
      </trkpt>
      <trkpt lat="45.0582" lon="3.01105">
        <ele>1061</ele>
        <time>2016-12-30T12:17:32.008Z</time>
      </trkpt>
      <trkpt lat="45.05815" lon="3.01103">
        <ele>1061</ele>
        <time>2016-12-30T12:17:33.008Z</time>
      </trkpt>
      <trkpt lat="45.05809" lon="3.01102">
        <ele>1061</ele>
        <time>2016-12-30T12:17:34.008Z</time>
      </trkpt>
      <trkpt lat="45.05804" lon="3.011">
        <ele>1061</ele>
        <time>2016-12-30T12:17:35.008Z</time>
      </trkpt>
      <trkpt lat="45.05798" lon="3.01098">
        <ele>1061</ele>
        <time>2016-12-30T12:17:36.008Z</time>
      </trkpt>
      <trkpt lat="45.05793" lon="3.01095">
        <ele>1061</ele>
        <time>2016-12-30T12:17:37.008Z</time>
      </trkpt>
      <trkpt lat="45.05787" lon="3.01093">
        <ele>1061</ele>
        <time>2016-12-30T12:17:38.008Z</time>
      </trkpt>
      <trkpt lat="45.05781" lon="3.01091">
        <ele>1061</ele>
        <time>2016-12-30T12:17:39.008Z</time>
      </trkpt>
      <trkpt lat="45.05775" lon="3.01088">
        <ele>1059.2640094207</ele>
        <time>2016-12-30T12:17:40.008Z</time>
      </trkpt>
      <trkpt lat="45.05769" lon="3.01086">
        <ele>1059</ele>
        <time>2016-12-30T12:17:41.008Z</time>
      </trkpt>
      <trkpt lat="45.05763" lon="3.01083">
        <ele>1059</ele>
        <time>2016-12-30T12:17:42.008Z</time>
      </trkpt>
      <trkpt lat="45.05756" lon="3.01081">
        <ele>1059</ele>
        <time>2016-12-30T12:17:43.008Z</time>
      </trkpt>
      <trkpt lat="45.0575" lon="3.01078">
        <ele>1059</ele>
        <time>2016-12-30T12:17:44.008Z</time>
      </trkpt>
      <trkpt lat="45.05744" lon="3.01076">
        <ele>1059</ele>
        <time>2016-12-30T12:17:45.008Z</time>
      </trkpt>
      <trkpt lat="45.05738" lon="3.01073">
        <ele>1059</ele>
        <time>2016-12-30T12:17:46.008Z</time>
      </trkpt>
      <trkpt lat="45.05732" lon="3.01069">
        <ele>1059</ele>
        <time>2016-12-30T12:17:47.008Z</time>
      </trkpt>
      <trkpt lat="45.05726" lon="3.01064">
        <ele>1059</ele>
        <time>2016-12-30T12:17:48.008Z</time>
      </trkpt>
      <trkpt lat="45.05721" lon="3.01059">
        <ele>1059</ele>
        <time>2016-12-30T12:17:49.008Z</time>
      </trkpt>
      <trkpt lat="45.05717" lon="3.01054">
        <ele>1056.4217876741</ele>
        <time>2016-12-30T12:17:50.008Z</time>
      </trkpt>
      <trkpt lat="45.05712" lon="3.01048">
        <ele>1056</ele>
        <time>2016-12-30T12:17:51.008Z</time>
      </trkpt>
      <trkpt lat="45.05707" lon="3.01044">
        <ele>1056</ele>
        <time>2016-12-30T12:17:52.008Z</time>
      </trkpt>
      <trkpt lat="45.05703" lon="3.01039">
        <ele>1056</ele>
        <time>2016-12-30T12:17:53.008Z</time>
      </trkpt>
      <trkpt lat="45.05697" lon="3.01031">
        <ele>1053.3959858686</ele>
        <time>2016-12-30T12:17:55.008Z</time>
      </trkpt>
      <trkpt lat="45.05694" lon="3.01024">
        <ele>1053</ele>
        <time>2016-12-30T12:17:57.008Z</time>
      </trkpt>
      <trkpt lat="45.0569" lon="3.01023">
        <ele>1053</ele>
        <time>2016-12-30T12:17:59.008Z</time>
      </trkpt>
      <trkpt lat="45.05689" lon="3.0103">
        <ele>1052</ele>
        <time>2016-12-30T12:18:01.008Z</time>
      </trkpt>
      <trkpt lat="45.0569" lon="3.0104">
        <ele>1052</ele>
        <time>2016-12-30T12:18:03.008Z</time>
      </trkpt>
      <trkpt lat="45.0569" lon="3.01046">
        <ele>1052</ele>
        <time>2016-12-30T12:18:04.008Z</time>
      </trkpt>
      <trkpt lat="45.0569" lon="3.01052">
        <ele>1052.8680047105</ele>
        <time>2016-12-30T12:18:05.008Z</time>
      </trkpt>
      <trkpt lat="45.05689" lon="3.01058">
        <ele>1053</ele>
        <time>2016-12-30T12:18:06.008Z</time>
      </trkpt>
      <trkpt lat="45.05688" lon="3.01064">
        <ele>1053</ele>
        <time>2016-12-30T12:18:07.008Z</time>
      </trkpt>
      <trkpt lat="45.05687" lon="3.01069">
        <ele>1053</ele>
        <time>2016-12-30T12:18:08.008Z</time>
      </trkpt>
      <trkpt lat="45.05687" lon="3.01075">
        <ele>1053</ele>
        <time>2016-12-30T12:18:09.008Z</time>
      </trkpt>
      <trkpt lat="45.05686" lon="3.0108">
        <ele>1053</ele>
        <time>2016-12-30T12:18:10.008Z</time>
      </trkpt>
      <trkpt lat="45.05685" lon="3.01086">
        <ele>1053</ele>
        <time>2016-12-30T12:18:11.008Z</time>
      </trkpt>
      <trkpt lat="45.05682" lon="3.01098">
        <ele>1053</ele>
        <time>2016-12-30T12:18:13.008Z</time>
      </trkpt>
      <trkpt lat="45.05681" lon="3.01104">
        <ele>1053</ele>
        <time>2016-12-30T12:18:14.008Z</time>
      </trkpt>
      <trkpt lat="45.0568" lon="3.0111">
        <ele>1053</ele>
        <time>2016-12-30T12:18:15.008Z</time>
      </trkpt>
      <trkpt lat="45.05678" lon="3.01116">
        <ele>1053</ele>
        <time>2016-12-30T12:18:16.008Z</time>
      </trkpt>
      <trkpt lat="45.05677" lon="3.01122">
        <ele>1053</ele>
        <time>2016-12-30T12:18:17.008Z</time>
      </trkpt>
      <trkpt lat="45.05675" lon="3.01129">
        <ele>1053</ele>
        <time>2016-12-30T12:18:18.008Z</time>
      </trkpt>
      <trkpt lat="45.05673" lon="3.01136">
        <ele>1053</ele>
        <time>2016-12-30T12:18:19.008Z</time>
      </trkpt>
      <trkpt lat="45.0567" lon="3.01143">
        <ele>1053</ele>
        <time>2016-12-30T12:18:20.008Z</time>
      </trkpt>
      <trkpt lat="45.05667" lon="3.01148">
        <ele>1053</ele>
        <time>2016-12-30T12:18:21.008Z</time>
      </trkpt>
      <trkpt lat="45.05662" lon="3.01152">
        <ele>1053</ele>
        <time>2016-12-30T12:18:22.008Z</time>
      </trkpt>
      <trkpt lat="45.05657" lon="3.01153">
        <ele>1053</ele>
        <time>2016-12-30T12:18:23.008Z</time>
      </trkpt>
      <trkpt lat="45.05646" lon="3.01152">
        <ele>1053</ele>
        <time>2016-12-30T12:18:25.008Z</time>
      </trkpt>
      <trkpt lat="45.05633" lon="3.01154">
        <ele>1053</ele>
        <time>2016-12-30T12:18:27.008Z</time>
      </trkpt>
      <trkpt lat="45.05627" lon="3.01157">
        <ele>1053</ele>
        <time>2016-12-30T12:18:28.008Z</time>
      </trkpt>
      <trkpt lat="45.05621" lon="3.0116">
        <ele>1053</ele>
        <time>2016-12-30T12:18:29.008Z</time>
      </trkpt>
      <trkpt lat="45.05616" lon="3.01165">
        <ele>1049.5280188414</ele>
        <time>2016-12-30T12:18:30.008Z</time>
      </trkpt>
      <trkpt lat="45.0561" lon="3.0117">
        <ele>1049</ele>
        <time>2016-12-30T12:18:31.008Z</time>
      </trkpt>
      <trkpt lat="45.05604" lon="3.01175">
        <ele>1049</ele>
        <time>2016-12-30T12:18:32.008Z</time>
      </trkpt>
      <trkpt lat="45.05598" lon="3.01181">
        <ele>1049</ele>
        <time>2016-12-30T12:18:33.008Z</time>
      </trkpt>
      <trkpt lat="45.05592" lon="3.01186">
        <ele>1049</ele>
        <time>2016-12-30T12:18:34.008Z</time>
      </trkpt>
      <trkpt lat="45.05586" lon="3.01191">
        <ele>1047.2639905791</ele>
        <time>2016-12-30T12:18:35.008Z</time>
      </trkpt>
      <trkpt lat="45.05579" lon="3.01194">
        <ele>1047</ele>
        <time>2016-12-30T12:18:36.008Z</time>
      </trkpt>
      <trkpt lat="45.05572" lon="3.01196">
        <ele>1047</ele>
        <time>2016-12-30T12:18:37.008Z</time>
      </trkpt>
      <trkpt lat="45.05565" lon="3.01196">
        <ele>1047</ele>
        <time>2016-12-30T12:18:38.008Z</time>
      </trkpt>
      <trkpt lat="45.05558" lon="3.01195">
        <ele>1047</ele>
        <time>2016-12-30T12:18:39.008Z</time>
      </trkpt>
      <trkpt lat="45.05551" lon="3.01193">
        <ele>1046.1320047103</ele>
        <time>2016-12-30T12:18:40.008Z</time>
      </trkpt>
      <trkpt lat="45.05545" lon="3.01191">
        <ele>1046</ele>
        <time>2016-12-30T12:18:41.008Z</time>
      </trkpt>
      <trkpt lat="45.05538" lon="3.01187">
        <ele>1046</ele>
        <time>2016-12-30T12:18:42.008Z</time>
      </trkpt>
      <trkpt lat="45.05531" lon="3.01183">
        <ele>1046</ele>
        <time>2016-12-30T12:18:43.008Z</time>
      </trkpt>
      <trkpt lat="45.05525" lon="3.01177">
        <ele>1046</ele>
        <time>2016-12-30T12:18:44.008Z</time>
      </trkpt>
      <trkpt lat="45.0552" lon="3.0117">
        <ele>1043.3999844847</ele>
        <time>2016-12-30T12:18:45.008Z</time>
      </trkpt>
      <trkpt lat="45.05515" lon="3.01162">
        <ele>1043</ele>
        <time>2016-12-30T12:18:46.008Z</time>
      </trkpt>
      <trkpt lat="45.05511" lon="3.01152">
        <ele>1043</ele>
        <time>2016-12-30T12:18:47.008Z</time>
      </trkpt>
      <trkpt lat="45.05509" lon="3.01142">
        <ele>1043</ele>
        <time>2016-12-30T12:18:48.008Z</time>
      </trkpt>
      <trkpt lat="45.05509" lon="3.01131">
        <ele>1043</ele>
        <time>2016-12-30T12:18:49.008Z</time>
      </trkpt>
      <trkpt lat="45.0551" lon="3.0112">
        <ele>1039.5623835655</ele>
        <time>2016-12-30T12:18:50.008Z</time>
      </trkpt>
      <trkpt lat="45.05512" lon="3.0111">
        <ele>1037.2666563231</ele>
        <time>2016-12-30T12:18:51.008Z</time>
      </trkpt>
      <trkpt lat="45.05516" lon="3.011">
        <ele>1036.1320047103</ele>
        <time>2016-12-30T12:18:52.008Z</time>
      </trkpt>
      <trkpt lat="45.0552" lon="3.01091">
        <ele>1036</ele>
        <time>2016-12-30T12:18:53.008Z</time>
      </trkpt>
      <trkpt lat="45.05524" lon="3.01084">
        <ele>1035.1320047103</ele>
        <time>2016-12-30T12:18:54.008Z</time>
      </trkpt>
      <trkpt lat="45.05529" lon="3.01069">
        <ele>1034</ele>
        <time>2016-12-30T12:18:56.008Z</time>
      </trkpt>
      <trkpt lat="45.05528" lon="3.01064">
        <ele>1034</ele>
        <time>2016-12-30T12:18:57.008Z</time>
      </trkpt>
      <trkpt lat="45.05524" lon="3.01061">
        <ele>1034</ele>
        <time>2016-12-30T12:18:59.008Z</time>
      </trkpt>
      <trkpt lat="45.05517" lon="3.01063">
        <ele>1035</ele>
        <time>2016-12-30T12:19:01.008Z</time>
      </trkpt>
      <trkpt lat="45.05508" lon="3.01071">
        <ele>1035</ele>
        <time>2016-12-30T12:19:03.008Z</time>
      </trkpt>
      <trkpt lat="45.05504" lon="3.01077">
        <ele>1035</ele>
        <time>2016-12-30T12:19:04.008Z</time>
      </trkpt>
      <trkpt lat="45.055" lon="3.01083">
        <ele>1034.1333281616</ele>
        <time>2016-12-30T12:19:05.008Z</time>
      </trkpt>
      <trkpt lat="45.05497" lon="3.0109">
        <ele>1034</ele>
        <time>2016-12-30T12:19:06.008Z</time>
      </trkpt>
      <trkpt lat="45.05493" lon="3.01097">
        <ele>1034</ele>
        <time>2016-12-30T12:19:07.008Z</time>
      </trkpt>
      <trkpt lat="45.05488" lon="3.01105">
        <ele>1034</ele>
        <time>2016-12-30T12:19:08.008Z</time>
      </trkpt>
      <trkpt lat="45.05484" lon="3.01112">
        <ele>1034</ele>
        <time>2016-12-30T12:19:09.008Z</time>
      </trkpt>
      <trkpt lat="45.0548" lon="3.0112">
        <ele>1031.396014131</ele>
        <time>2016-12-30T12:19:10.008Z</time>
      </trkpt>
      <trkpt lat="45.05475" lon="3.01128">
        <ele>1031</ele>
        <time>2016-12-30T12:19:11.008Z</time>
      </trkpt>
      <trkpt lat="45.05471" lon="3.01137">
        <ele>1031</ele>
        <time>2016-12-30T12:19:12.008Z</time>
      </trkpt>
      <trkpt lat="45.05466" lon="3.01145">
        <ele>1031</ele>
        <time>2016-12-30T12:19:13.008Z</time>
      </trkpt>
      <trkpt lat="45.05462" lon="3.01152">
        <ele>1031</ele>
        <time>2016-12-30T12:19:14.008Z</time>
      </trkpt>
      <trkpt lat="45.05459" lon="3.01159">
        <ele>1027.5333126463</ele>
        <time>2016-12-30T12:19:15.008Z</time>
      </trkpt>
      <trkpt lat="45.05456" lon="3.01164">
        <ele>1027</ele>
        <time>2016-12-30T12:19:16.008Z</time>
      </trkpt>
      <trkpt lat="45.05454" lon="3.01168">
        <ele>1027</ele>
        <time>2016-12-30T12:19:17.008Z</time>
      </trkpt>
      <trkpt lat="45.05449" lon="3.01174">
        <ele>1027</ele>
        <time>2016-12-30T12:19:19.008Z</time>
      </trkpt>
      <trkpt lat="45.05446" lon="3.01177">
        <ele>1025.2811917827</ele>
        <time>2016-12-30T12:19:20.008Z</time>
      </trkpt>
      <trkpt lat="45.05443" lon="3.01182">
        <ele>1024.1333281616</ele>
        <time>2016-12-30T12:19:21.008Z</time>
      </trkpt>
      <trkpt lat="45.05439" lon="3.0119">
        <ele>1022.1319952895</ele>
        <time>2016-12-30T12:19:23.008Z</time>
      </trkpt>
      <trkpt lat="45.05434" lon="3.01197">
        <ele>1021</ele>
        <time>2016-12-30T12:19:25.008Z</time>
      </trkpt>
      <trkpt lat="45.05429" lon="3.01205">
        <ele>1020.1333281616</ele>
        <time>2016-12-30T12:19:27.008Z</time>
      </trkpt>
      <trkpt lat="45.05423" lon="3.01213">
        <ele>1018.1319952895</ele>
        <time>2016-12-30T12:19:29.008Z</time>
      </trkpt>
      <trkpt lat="45.05417" lon="3.0122">
        <ele>1016.2639905791</ele>
        <time>2016-12-30T12:19:31.008Z</time>
      </trkpt>
      <trkpt lat="45.05409" lon="3.01227">
        <ele>1015.1333281616</ele>
        <time>2016-12-30T12:19:33.008Z</time>
      </trkpt>
      <trkpt lat="45.05402" lon="3.01234">
        <ele>1013.1319952895</ele>
        <time>2016-12-30T12:19:35.008Z</time>
      </trkpt>
      <trkpt lat="45.05396" lon="3.01241">
        <ele>1012</ele>
        <time>2016-12-30T12:19:37.008Z</time>
      </trkpt>
      <trkpt lat="45.05389" lon="3.01247">
        <ele>1011.1333281616</ele>
        <time>2016-12-30T12:19:39.008Z</time>
      </trkpt>
      <trkpt lat="45.0538" lon="3.01255">
        <ele>1010.1490186728</ele>
        <time>2016-12-30T12:19:42.008Z</time>
      </trkpt>
      <trkpt lat="45.05373" lon="3.01261">
        <ele>1007.1405958914</ele>
        <time>2016-12-30T12:19:44.008Z</time>
      </trkpt>
      <trkpt lat="45.05366" lon="3.01266">
        <ele>1006</ele>
        <time>2016-12-30T12:19:46.008Z</time>
      </trkpt>
      <trkpt lat="45.0536" lon="3.01272">
        <ele>1004.1320047103</ele>
        <time>2016-12-30T12:19:48.008Z</time>
      </trkpt>
      <trkpt lat="45.05353" lon="3.01278">
        <ele>1003.1405958914</ele>
        <time>2016-12-30T12:19:50.008Z</time>
      </trkpt>
      <trkpt lat="45.05343" lon="3.01284">
        <ele>999.13199528954</ele>
        <time>2016-12-30T12:19:53.008Z</time>
      </trkpt>
      <trkpt lat="45.05331" lon="3.01288">
        <ele>996.14059589137</ele>
        <time>2016-12-30T12:19:56.008Z</time>
      </trkpt>
      <trkpt lat="45.05316" lon="3.01291">
        <ele>993.13199528954</ele>
        <time>2016-12-30T12:19:59.008Z</time>
      </trkpt>
      <trkpt lat="45.05308" lon="3.01295">
        <ele>991.86800471046</ele>
        <time>2016-12-30T12:20:01.008Z</time>
      </trkpt>
      <trkpt lat="45.05298" lon="3.01304">
        <ele>989.13200471034</ele>
        <time>2016-12-30T12:20:04.008Z</time>
      </trkpt>
      <trkpt lat="45.05286" lon="3.0131">
        <ele>986.13199528954</ele>
        <time>2016-12-30T12:20:07.008Z</time>
      </trkpt>
      <trkpt lat="45.05275" lon="3.01313">
        <ele>984.13200471034</ele>
        <time>2016-12-30T12:20:10.008Z</time>
      </trkpt>
      <trkpt lat="45.05261" lon="3.01317">
        <ele>982.13199528954</ele>
        <time>2016-12-30T12:20:13.008Z</time>
      </trkpt>
      <trkpt lat="45.0525" lon="3.01322">
        <ele>979.1420032</ele>
        <time>2016-12-30T12:20:15.008Z</time>
      </trkpt>
      <trkpt lat="45.0524" lon="3.01326">
        <ele>980</ele>
        <time>2016-12-30T12:20:17.008Z</time>
      </trkpt>
      <trkpt lat="45.05229" lon="3.01336">
        <ele>976.14059589137</ele>
        <time>2016-12-30T12:20:20.008Z</time>
      </trkpt>
      <trkpt lat="45.05222" lon="3.01342">
        <ele>976</ele>
        <time>2016-12-30T12:20:22.008Z</time>
      </trkpt>
      <trkpt lat="45.05215" lon="3.01349">
        <ele>974.13200471034</ele>
        <time>2016-12-30T12:20:24.008Z</time>
      </trkpt>
      <trkpt lat="45.05207" lon="3.0136">
        <ele>973.14059589137</ele>
        <time>2016-12-30T12:20:26.008Z</time>
      </trkpt>
      <trkpt lat="45.05201" lon="3.0137">
        <ele>974</ele>
        <time>2016-12-30T12:20:28.008Z</time>
      </trkpt>
      <trkpt lat="45.05198" lon="3.01385">
        <ele>973.13200471034</ele>
        <time>2016-12-30T12:20:30.008Z</time>
      </trkpt>
      <trkpt lat="45.05195" lon="3.01397">
        <ele>973</ele>
        <time>2016-12-30T12:20:32.008Z</time>
      </trkpt>
      <trkpt lat="45.0519" lon="3.01404">
        <ele>971.26399057908</ele>
        <time>2016-12-30T12:20:35.008Z</time>
      </trkpt>
      <trkpt lat="45.05188" lon="3.01396">
        <ele>971</ele>
        <time>2016-12-30T12:20:38.008Z</time>
      </trkpt>
      <trkpt lat="45.0519" lon="3.01388">
        <ele>970</ele>
        <time>2016-12-30T12:20:41.008Z</time>
      </trkpt>
      <trkpt lat="45.0519" lon="3.0138">
        <ele>970</ele>
        <time>2016-12-30T12:20:59.008Z</time>
      </trkpt>
      <trkpt lat="45.05189" lon="3.01376">
        <ele>971</ele>
        <time>2016-12-30T12:22:21.008Z</time>
      </trkpt>
      <trkpt lat="45.05193" lon="3.01369">
        <ele>972</ele>
        <time>2016-12-30T12:22:58.008Z</time>
      </trkpt>
      <trkpt lat="45.05194" lon="3.01358">
        <ele>971</ele>
        <time>2016-12-30T12:23:01.008Z</time>
      </trkpt>
      <trkpt lat="45.05195" lon="3.01348">
        <ele>971</ele>
        <time>2016-12-30T12:23:03.008Z</time>
      </trkpt>
      <trkpt lat="45.05196" lon="3.01338">
        <ele>971</ele>
        <time>2016-12-30T12:23:05.008Z</time>
      </trkpt>
      <trkpt lat="45.05199" lon="3.01327">
        <ele>971</ele>
        <time>2016-12-30T12:23:07.008Z</time>
      </trkpt>
      <trkpt lat="45.05204" lon="3.01314">
        <ele>971</ele>
        <time>2016-12-30T12:23:09.008Z</time>
      </trkpt>
      <trkpt lat="45.05206" lon="3.01306">
        <ele>970.13200471034</ele>
        <time>2016-12-30T12:23:10.008Z</time>
      </trkpt>
      <trkpt lat="45.0521" lon="3.013">
        <ele>970</ele>
        <time>2016-12-30T12:23:11.008Z</time>
      </trkpt>
      <trkpt lat="45.05213" lon="3.01293">
        <ele>970</ele>
        <time>2016-12-30T12:23:12.008Z</time>
      </trkpt>
      <trkpt lat="45.05217" lon="3.01286">
        <ele>970</ele>
        <time>2016-12-30T12:23:13.008Z</time>
      </trkpt>
      <trkpt lat="45.05222" lon="3.0128">
        <ele>970</ele>
        <time>2016-12-30T12:23:14.008Z</time>
      </trkpt>
      <trkpt lat="45.05226" lon="3.01274">
        <ele>970</ele>
        <time>2016-12-30T12:23:15.008Z</time>
      </trkpt>
      <trkpt lat="45.05231" lon="3.01268">
        <ele>970</ele>
        <time>2016-12-30T12:23:16.008Z</time>
      </trkpt>
      <trkpt lat="45.05236" lon="3.01261">
        <ele>970</ele>
        <time>2016-12-30T12:23:17.008Z</time>
      </trkpt>
      <trkpt lat="45.0524" lon="3.01255">
        <ele>970</ele>
        <time>2016-12-30T12:23:18.008Z</time>
      </trkpt>
      <trkpt lat="45.05245" lon="3.01248">
        <ele>970</ele>
        <time>2016-12-30T12:23:19.008Z</time>
      </trkpt>
      <trkpt lat="45.05249" lon="3.0124">
        <ele>967.4217876741</ele>
        <time>2016-12-30T12:23:20.008Z</time>
      </trkpt>
      <trkpt lat="45.05252" lon="3.01231">
        <ele>967</ele>
        <time>2016-12-30T12:23:21.008Z</time>
      </trkpt>
      <trkpt lat="45.05255" lon="3.0121">
        <ele>967</ele>
        <time>2016-12-30T12:23:23.008Z</time>
      </trkpt>
      <trkpt lat="45.05255" lon="3.01199">
        <ele>967</ele>
        <time>2016-12-30T12:23:24.008Z</time>
      </trkpt>
      <trkpt lat="45.05253" lon="3.01189">
        <ele>965.26399057908</ele>
        <time>2016-12-30T12:23:25.008Z</time>
      </trkpt>
      <trkpt lat="45.05246" lon="3.0117">
        <ele>965</ele>
        <time>2016-12-30T12:23:27.008Z</time>
      </trkpt>
      <trkpt lat="45.05238" lon="3.01153">
        <ele>965</ele>
        <time>2016-12-30T12:23:29.008Z</time>
      </trkpt>
      <trkpt lat="45.05234" lon="3.01144">
        <ele>965</ele>
        <time>2016-12-30T12:23:30.008Z</time>
      </trkpt>
      <trkpt lat="45.05232" lon="3.01135">
        <ele>965</ele>
        <time>2016-12-30T12:23:31.008Z</time>
      </trkpt>
      <trkpt lat="45.05231" lon="3.01126">
        <ele>965</ele>
        <time>2016-12-30T12:23:32.008Z</time>
      </trkpt>
      <trkpt lat="45.05231" lon="3.01117">
        <ele>965</ele>
        <time>2016-12-30T12:23:33.008Z</time>
      </trkpt>
      <trkpt lat="45.05232" lon="3.01108">
        <ele>965</ele>
        <time>2016-12-30T12:23:34.008Z</time>
      </trkpt>
      <trkpt lat="45.05234" lon="3.011">
        <ele>965</ele>
        <time>2016-12-30T12:23:35.008Z</time>
      </trkpt>
      <trkpt lat="45.05235" lon="3.01092">
        <ele>965</ele>
        <time>2016-12-30T12:23:36.008Z</time>
      </trkpt>
      <trkpt lat="45.05236" lon="3.01083">
        <ele>965</ele>
        <time>2016-12-30T12:23:37.008Z</time>
      </trkpt>
      <trkpt lat="45.05237" lon="3.01075">
        <ele>965</ele>
        <time>2016-12-30T12:23:38.008Z</time>
      </trkpt>
      <trkpt lat="45.05239" lon="3.01067">
        <ele>965</ele>
        <time>2016-12-30T12:23:39.008Z</time>
      </trkpt>
      <trkpt lat="45.0524" lon="3.01059">
        <ele>965</ele>
        <time>2016-12-30T12:23:40.008Z</time>
      </trkpt>
      <trkpt lat="45.05241" lon="3.01052">
        <ele>965</ele>
        <time>2016-12-30T12:23:41.008Z</time>
      </trkpt>
      <trkpt lat="45.05243" lon="3.01045">
        <ele>965</ele>
        <time>2016-12-30T12:23:42.008Z</time>
      </trkpt>
      <trkpt lat="45.05245" lon="3.01031">
        <ele>965</ele>
        <time>2016-12-30T12:23:44.008Z</time>
      </trkpt>
      <trkpt lat="45.05246" lon="3.01017">
        <ele>965</ele>
        <time>2016-12-30T12:23:46.008Z</time>
      </trkpt>
      <trkpt lat="45.05247" lon="3.01011">
        <ele>965</ele>
        <time>2016-12-30T12:23:47.008Z</time>
      </trkpt>
      <trkpt lat="45.05247" lon="3.01004">
        <ele>965</ele>
        <time>2016-12-30T12:23:48.008Z</time>
      </trkpt>
      <trkpt lat="45.05247" lon="3.00998">
        <ele>965</ele>
        <time>2016-12-30T12:23:49.008Z</time>
      </trkpt>
      <trkpt lat="45.05246" lon="3.00992">
        <ele>966.71880821727</ele>
        <time>2016-12-30T12:23:50.008Z</time>
      </trkpt>
      <trkpt lat="45.05246" lon="3.00986">
        <ele>967</ele>
        <time>2016-12-30T12:23:51.008Z</time>
      </trkpt>
      <trkpt lat="45.05245" lon="3.0098">
        <ele>967</ele>
        <time>2016-12-30T12:23:52.008Z</time>
      </trkpt>
      <trkpt lat="45.05244" lon="3.0097">
        <ele>967</ele>
        <time>2016-12-30T12:23:54.008Z</time>
      </trkpt>
      <trkpt lat="45.05242" lon="3.00961">
        <ele>967</ele>
        <time>2016-12-30T12:23:56.008Z</time>
      </trkpt>
      <trkpt lat="45.05241" lon="3.00957">
        <ele>967</ele>
        <time>2016-12-30T12:23:57.008Z</time>
      </trkpt>
      <trkpt lat="45.0524" lon="3.00952">
        <ele>967</ele>
        <time>2016-12-30T12:23:58.008Z</time>
      </trkpt>
      <trkpt lat="45.05237" lon="3.00944">
        <ele>968.73599057932</ele>
        <time>2016-12-30T12:24:00.008Z</time>
      </trkpt>
      <trkpt lat="45.05234" lon="3.00936">
        <ele>969</ele>
        <time>2016-12-30T12:24:02.008Z</time>
      </trkpt>
      <trkpt lat="45.05232" lon="3.00932">
        <ele>969</ele>
        <time>2016-12-30T12:24:03.008Z</time>
      </trkpt>
      <trkpt lat="45.05228" lon="3.00925">
        <ele>969.86800471046</ele>
        <time>2016-12-30T12:24:05.008Z</time>
      </trkpt>
      <trkpt lat="45.05222" lon="3.0092">
        <ele>970</ele>
        <time>2016-12-30T12:24:07.008Z</time>
      </trkpt>
      <trkpt lat="45.05217" lon="3.00916">
        <ele>970</ele>
        <time>2016-12-30T12:24:09.008Z</time>
      </trkpt>
      <trkpt lat="45.05212" lon="3.00911">
        <ele>972</ele>
        <time>2016-12-30T12:24:11.008Z</time>
      </trkpt>
      <trkpt lat="45.05206" lon="3.00907">
        <ele>972</ele>
        <time>2016-12-30T12:24:13.008Z</time>
      </trkpt>
      <trkpt lat="45.05201" lon="3.00903">
        <ele>973.73334367687</ele>
        <time>2016-12-30T12:24:15.008Z</time>
      </trkpt>
      <trkpt lat="45.05197" lon="3.00899">
        <ele>974</ele>
        <time>2016-12-30T12:24:17.008Z</time>
      </trkpt>
      <trkpt lat="45.05191" lon="3.00895">
        <ele>974</ele>
        <time>2016-12-30T12:24:19.008Z</time>
      </trkpt>
      <trkpt lat="45.05186" lon="3.00891">
        <ele>976</ele>
        <time>2016-12-30T12:24:21.008Z</time>
      </trkpt>
      <trkpt lat="45.05181" lon="3.00886">
        <ele>976</ele>
        <time>2016-12-30T12:24:23.008Z</time>
      </trkpt>
      <trkpt lat="45.05176" lon="3.00882">
        <ele>976</ele>
        <time>2016-12-30T12:24:25.008Z</time>
      </trkpt>
      <trkpt lat="45.0517" lon="3.00877">
        <ele>976</ele>
        <time>2016-12-30T12:24:27.008Z</time>
      </trkpt>
      <trkpt lat="45.05163" lon="3.0087">
        <ele>977.73599057932</ele>
        <time>2016-12-30T12:24:30.008Z</time>
      </trkpt>
      <trkpt lat="45.05155" lon="3.00863">
        <ele>978</ele>
        <time>2016-12-30T12:24:33.008Z</time>
      </trkpt>
      <trkpt lat="45.05145" lon="3.00855">
        <ele>979</ele>
        <time>2016-12-30T12:24:37.008Z</time>
      </trkpt>
      <trkpt lat="45.05137" lon="3.00848">
        <ele>980.73599057932</ele>
        <time>2016-12-30T12:24:40.008Z</time>
      </trkpt>
      <trkpt lat="45.05127" lon="3.0084">
        <ele>981</ele>
        <time>2016-12-30T12:24:44.008Z</time>
      </trkpt>
      <trkpt lat="45.0512" lon="3.00832">
        <ele>983</ele>
        <time>2016-12-30T12:24:47.008Z</time>
      </trkpt>
      <trkpt lat="45.05117" lon="3.00825">
        <ele>983</ele>
        <time>2016-12-30T12:24:49.008Z</time>
      </trkpt>
      <trkpt lat="45.05113" lon="3.00819">
        <ele>984</ele>
        <time>2016-12-30T12:24:51.008Z</time>
      </trkpt>
      <trkpt lat="45.05109" lon="3.00813">
        <ele>984</ele>
        <time>2016-12-30T12:24:53.008Z</time>
      </trkpt>
      <trkpt lat="45.05105" lon="3.00804">
        <ele>985</ele>
        <time>2016-12-30T12:24:56.008Z</time>
      </trkpt>
      <trkpt lat="45.05102" lon="3.00799">
        <ele>985</ele>
        <time>2016-12-30T12:25:00.008Z</time>
      </trkpt>
      <trkpt lat="45.05095" lon="3.00792">
        <ele>985</ele>
        <time>2016-12-30T12:25:07.008Z</time>
      </trkpt>
      <trkpt lat="45.05087" lon="3.00787">
        <ele>985</ele>
        <time>2016-12-30T12:25:09.008Z</time>
      </trkpt>
      <trkpt lat="45.05083" lon="3.00782">
        <ele>983.26400942068</ele>
        <time>2016-12-30T12:25:10.008Z</time>
      </trkpt>
      <trkpt lat="45.05079" lon="3.00776">
        <ele>983</ele>
        <time>2016-12-30T12:25:11.008Z</time>
      </trkpt>
      <trkpt lat="45.05075" lon="3.00769">
        <ele>983</ele>
        <time>2016-12-30T12:25:12.008Z</time>
      </trkpt>
      <trkpt lat="45.05071" lon="3.00764">
        <ele>983</ele>
        <time>2016-12-30T12:25:13.008Z</time>
      </trkpt>
      <trkpt lat="45.05062" lon="3.00764">
        <ele>983</ele>
        <time>2016-12-30T12:25:15.008Z</time>
      </trkpt>
      <trkpt lat="45.05054" lon="3.00775">
        <ele>983</ele>
        <time>2016-12-30T12:25:17.008Z</time>
      </trkpt>
      <trkpt lat="45.05046" lon="3.00787">
        <ele>983</ele>
        <time>2016-12-30T12:25:19.008Z</time>
      </trkpt>
      <trkpt lat="45.05037" lon="3.00793">
        <ele>981</ele>
        <time>2016-12-30T12:25:21.008Z</time>
      </trkpt>
      <trkpt lat="45.0503" lon="3.00795">
        <ele>981</ele>
        <time>2016-12-30T12:25:23.008Z</time>
      </trkpt>
      <trkpt lat="45.05021" lon="3.00797">
        <ele>981</ele>
        <time>2016-12-30T12:25:26.008Z</time>
      </trkpt>
      <trkpt lat="45.05014" lon="3.00803">
        <ele>981</ele>
        <time>2016-12-30T12:25:29.008Z</time>
      </trkpt>
      <trkpt lat="45.05008" lon="3.00811">
        <ele>983</ele>
        <time>2016-12-30T12:25:32.008Z</time>
      </trkpt>
      <trkpt lat="45.05004" lon="3.00816">
        <ele>983</ele>
        <time>2016-12-30T12:25:35.008Z</time>
      </trkpt>
      <trkpt lat="45.04999" lon="3.00822">
        <ele>983</ele>
        <time>2016-12-30T12:25:38.008Z</time>
      </trkpt>
      <trkpt lat="45.04994" lon="3.00827">
        <ele>985</ele>
        <time>2016-12-30T12:25:41.008Z</time>
      </trkpt>
      <trkpt lat="45.04987" lon="3.00833">
        <ele>985</ele>
        <time>2016-12-30T12:25:44.008Z</time>
      </trkpt>
      <trkpt lat="45.04981" lon="3.00838">
        <ele>987</ele>
        <time>2016-12-30T12:25:47.008Z</time>
      </trkpt>
      <trkpt lat="45.04976" lon="3.00843">
        <ele>987</ele>
        <time>2016-12-30T12:25:49.008Z</time>
      </trkpt>
      <trkpt lat="45.04972" lon="3.00848">
        <ele>988</ele>
        <time>2016-12-30T12:25:51.008Z</time>
      </trkpt>
      <trkpt lat="45.04968" lon="3.00852">
        <ele>988</ele>
        <time>2016-12-30T12:25:53.008Z</time>
      </trkpt>
      <trkpt lat="45.04961" lon="3.00859">
        <ele>989</ele>
        <time>2016-12-30T12:25:56.008Z</time>
      </trkpt>
      <trkpt lat="45.04955" lon="3.00866">
        <ele>989</ele>
        <time>2016-12-30T12:25:59.008Z</time>
      </trkpt>
      <trkpt lat="45.04951" lon="3.00871">
        <ele>989</ele>
        <time>2016-12-30T12:26:01.008Z</time>
      </trkpt>
      <trkpt lat="45.04947" lon="3.00877">
        <ele>989</ele>
        <time>2016-12-30T12:26:03.008Z</time>
      </trkpt>
      <trkpt lat="45.04943" lon="3.00884">
        <ele>989</ele>
        <time>2016-12-30T12:26:05.008Z</time>
      </trkpt>
      <trkpt lat="45.04938" lon="3.0089">
        <ele>989</ele>
        <time>2016-12-30T12:26:07.008Z</time>
      </trkpt>
      <trkpt lat="45.04933" lon="3.009">
        <ele>989</ele>
        <time>2016-12-30T12:26:10.008Z</time>
      </trkpt>
      <trkpt lat="45.04927" lon="3.00908">
        <ele>989</ele>
        <time>2016-12-30T12:26:13.008Z</time>
      </trkpt>
      <trkpt lat="45.04921" lon="3.0091">
        <ele>989</ele>
        <time>2016-12-30T12:26:16.008Z</time>
      </trkpt>
      <trkpt lat="45.04916" lon="3.00907">
        <ele>989</ele>
        <time>2016-12-30T12:26:19.008Z</time>
      </trkpt>
      <trkpt lat="45.04914" lon="3.00901">
        <ele>990</ele>
        <time>2016-12-30T12:26:22.008Z</time>
      </trkpt>
      <trkpt lat="45.04911" lon="3.00895">
        <ele>990</ele>
        <time>2016-12-30T12:26:25.008Z</time>
      </trkpt>
      <trkpt lat="45.04908" lon="3.00889">
        <ele>990</ele>
        <time>2016-12-30T12:26:28.008Z</time>
      </trkpt>
      <trkpt lat="45.04905" lon="3.00883">
        <ele>995</ele>
        <time>2016-12-30T12:26:31.008Z</time>
      </trkpt>
      <trkpt lat="45.04901" lon="3.00878">
        <ele>995</ele>
        <time>2016-12-30T12:26:34.008Z</time>
      </trkpt>
      <trkpt lat="45.04898" lon="3.00872">
        <ele>997</ele>
        <time>2016-12-30T12:26:37.008Z</time>
      </trkpt>
      <trkpt lat="45.04894" lon="3.00867">
        <ele>999.55294398153</ele>
        <time>2016-12-30T12:26:40.008Z</time>
      </trkpt>
      <trkpt lat="45.04892" lon="3.0086">
        <ele>1000.8680047105</ele>
        <time>2016-12-30T12:26:43.008Z</time>
      </trkpt>
      <trkpt lat="45.04891" lon="3.00855">
        <ele>1001</ele>
        <time>2016-12-30T12:26:45.008Z</time>
      </trkpt>
      <trkpt lat="45.04891" lon="3.00848">
        <ele>1002</ele>
        <time>2016-12-30T12:26:48.008Z</time>
      </trkpt>
      <trkpt lat="45.04892" lon="3.00841">
        <ele>1002</ele>
        <time>2016-12-30T12:26:51.008Z</time>
      </trkpt>
      <trkpt lat="45.04893" lon="3.00835">
        <ele>1002</ele>
        <time>2016-12-30T12:26:53.008Z</time>
      </trkpt>
      <trkpt lat="45.04894" lon="3.00828">
        <ele>1002</ele>
        <time>2016-12-30T12:26:56.008Z</time>
      </trkpt>
      <trkpt lat="45.04896" lon="3.00822">
        <ele>1002</ele>
        <time>2016-12-30T12:26:59.008Z</time>
      </trkpt>
      <trkpt lat="45.04898" lon="3.00813">
        <ele>1007</ele>
        <time>2016-12-30T12:27:03.008Z</time>
      </trkpt>
      <trkpt lat="45.04899" lon="3.00805">
        <ele>1008</ele>
        <time>2016-12-30T12:27:07.008Z</time>
      </trkpt>
      <trkpt lat="45.04902" lon="3.00796">
        <ele>1010</ele>
        <time>2016-12-30T12:27:11.008Z</time>
      </trkpt>
      <trkpt lat="45.04903" lon="3.00787">
        <ele>1010</ele>
        <time>2016-12-30T12:27:15.008Z</time>
      </trkpt>
      <trkpt lat="45.04904" lon="3.00781">
        <ele>1010</ele>
        <time>2016-12-30T12:27:18.008Z</time>
      </trkpt>
      <trkpt lat="45.04905" lon="3.00772">
        <ele>1012</ele>
        <time>2016-12-30T12:27:22.008Z</time>
      </trkpt>
      <trkpt lat="45.04906" lon="3.00763">
        <ele>1012</ele>
        <time>2016-12-30T12:27:26.008Z</time>
      </trkpt>
      <trkpt lat="45.04906" lon="3.00756">
        <ele>1012</ele>
        <time>2016-12-30T12:27:29.008Z</time>
      </trkpt>
      <trkpt lat="45.04906" lon="3.00749">
        <ele>1013</ele>
        <time>2016-12-30T12:27:32.008Z</time>
      </trkpt>
      <trkpt lat="45.04906" lon="3.00742">
        <ele>1013</ele>
        <time>2016-12-30T12:27:35.008Z</time>
      </trkpt>
      <trkpt lat="45.04907" lon="3.00735">
        <ele>1013</ele>
        <time>2016-12-30T12:27:38.008Z</time>
      </trkpt>
      <trkpt lat="45.04907" lon="3.00725">
        <ele>1015</ele>
        <time>2016-12-30T12:27:42.008Z</time>
      </trkpt>
      <trkpt lat="45.04908" lon="3.00716">
        <ele>1015</ele>
        <time>2016-12-30T12:27:46.008Z</time>
      </trkpt>
      <trkpt lat="45.04909" lon="3.00707">
        <ele>1016.7188082173</ele>
        <time>2016-12-30T12:27:50.008Z</time>
      </trkpt>
      <trkpt lat="45.04908" lon="3.00699">
        <ele>1017</ele>
        <time>2016-12-30T12:27:53.008Z</time>
      </trkpt>
      <trkpt lat="45.04908" lon="3.0069">
        <ele>1017</ele>
        <time>2016-12-30T12:27:57.008Z</time>
      </trkpt>
      <trkpt lat="45.04908" lon="3.00681">
        <ele>1021</ele>
        <time>2016-12-30T12:28:01.008Z</time>
      </trkpt>
      <trkpt lat="45.04908" lon="3.00673">
        <ele>1021</ele>
        <time>2016-12-30T12:28:04.008Z</time>
      </trkpt>
      <trkpt lat="45.04908" lon="3.00666">
        <ele>1023</ele>
        <time>2016-12-30T12:28:07.008Z</time>
      </trkpt>
      <trkpt lat="45.04908" lon="3.00658">
        <ele>1023.8679952897</ele>
        <time>2016-12-30T12:28:10.008Z</time>
      </trkpt>
      <trkpt lat="45.04907" lon="3.00651">
        <ele>1024</ele>
        <time>2016-12-30T12:28:13.008Z</time>
      </trkpt>
      <trkpt lat="45.04904" lon="3.00645">
        <ele>1025</ele>
        <time>2016-12-30T12:28:16.008Z</time>
      </trkpt>
      <trkpt lat="45.049" lon="3.0064">
        <ele>1025</ele>
        <time>2016-12-30T12:28:19.008Z</time>
      </trkpt>
      <trkpt lat="45.04897" lon="3.00635">
        <ele>1027</ele>
        <time>2016-12-30T12:28:22.008Z</time>
      </trkpt>
      <trkpt lat="45.04893" lon="3.0063">
        <ele>1027.8680047105</ele>
        <time>2016-12-30T12:28:25.008Z</time>
      </trkpt>
      <trkpt lat="45.04889" lon="3.00626">
        <ele>1028</ele>
        <time>2016-12-30T12:28:28.008Z</time>
      </trkpt>
      <trkpt lat="45.04886" lon="3.00621">
        <ele>1030</ele>
        <time>2016-12-30T12:28:31.008Z</time>
      </trkpt>
      <trkpt lat="45.04882" lon="3.00616">
        <ele>1030</ele>
        <time>2016-12-30T12:28:34.008Z</time>
      </trkpt>
      <trkpt lat="45.04879" lon="3.00611">
        <ele>1032</ele>
        <time>2016-12-30T12:28:37.008Z</time>
      </trkpt>
      <trkpt lat="45.04876" lon="3.00604">
        <ele>1032</ele>
        <time>2016-12-30T12:28:41.008Z</time>
      </trkpt>
      <trkpt lat="45.04873" lon="3.00598">
        <ele>1032</ele>
        <time>2016-12-30T12:28:45.008Z</time>
      </trkpt>
      <trkpt lat="45.04872" lon="3.0059">
        <ele>1035</ele>
        <time>2016-12-30T12:31:45.008Z</time>
      </trkpt>
      <trkpt lat="45.04871" lon="3.00581">
        <ele>1035</ele>
        <time>2016-12-30T12:31:49.008Z</time>
      </trkpt>
      <trkpt lat="45.04871" lon="3.00572">
        <ele>1035</ele>
        <time>2016-12-30T12:31:53.008Z</time>
      </trkpt>
      <trkpt lat="45.04871" lon="3.00563">
        <ele>1035</ele>
        <time>2016-12-30T12:31:56.008Z</time>
      </trkpt>
      <trkpt lat="45.0487" lon="3.00554">
        <ele>1035</ele>
        <time>2016-12-30T12:31:59.008Z</time>
      </trkpt>
      <trkpt lat="45.0487" lon="3.00546">
        <ele>1036</ele>
        <time>2016-12-30T12:32:02.008Z</time>
      </trkpt>
      <trkpt lat="45.0487" lon="3.00538">
        <ele>1036</ele>
        <time>2016-12-30T12:32:05.008Z</time>
      </trkpt>
      <trkpt lat="45.0487" lon="3.0053">
        <ele>1036</ele>
        <time>2016-12-30T12:32:08.008Z</time>
      </trkpt>
      <trkpt lat="45.04872" lon="3.0052">
        <ele>1036</ele>
        <time>2016-12-30T12:32:12.008Z</time>
      </trkpt>
      <trkpt lat="45.04875" lon="3.00508">
        <ele>1036</ele>
        <time>2016-12-30T12:32:16.008Z</time>
      </trkpt>
      <trkpt lat="45.04878" lon="3.00497">
        <ele>1036</ele>
        <time>2016-12-30T12:32:19.008Z</time>
      </trkpt>
      <trkpt lat="45.04881" lon="3.00486">
        <ele>1036</ele>
        <time>2016-12-30T12:32:22.008Z</time>
      </trkpt>
      <trkpt lat="45.04883" lon="3.00475">
        <ele>1036</ele>
        <time>2016-12-30T12:32:26.008Z</time>
      </trkpt>
      <trkpt lat="45.04887" lon="3.00463">
        <ele>1036.8679952897</ele>
        <time>2016-12-30T12:32:30.008Z</time>
      </trkpt>
      <trkpt lat="45.04893" lon="3.00452">
        <ele>1037</ele>
        <time>2016-12-30T12:32:36.008Z</time>
      </trkpt>
      <trkpt lat="45.04905" lon="3.00452">
        <ele>1035.2640094207</ele>
        <time>2016-12-30T12:32:40.008Z</time>
      </trkpt>
      <trkpt lat="45.04916" lon="3.00451">
        <ele>1035</ele>
        <time>2016-12-30T12:32:43.008Z</time>
      </trkpt>
      <trkpt lat="45.04924" lon="3.00447">
        <ele>1035</ele>
        <time>2016-12-30T12:32:45.008Z</time>
      </trkpt>
      <trkpt lat="45.04931" lon="3.00439">
        <ele>1035</ele>
        <time>2016-12-30T12:32:47.008Z</time>
      </trkpt>
      <trkpt lat="45.04932" lon="3.00423">
        <ele>1032.4217876741</ele>
        <time>2016-12-30T12:32:50.008Z</time>
      </trkpt>
      <trkpt lat="45.04932" lon="3.00411">
        <ele>1032</ele>
        <time>2016-12-30T12:32:52.008Z</time>
      </trkpt>
      <trkpt lat="45.04932" lon="3.00397">
        <ele>1032</ele>
        <time>2016-12-30T12:32:54.008Z</time>
      </trkpt>
      <trkpt lat="45.04932" lon="3.00385">
        <ele>1031</ele>
        <time>2016-12-30T12:32:56.008Z</time>
      </trkpt>
      <trkpt lat="45.04935" lon="3.00374">
        <ele>1031</ele>
        <time>2016-12-30T12:32:59.008Z</time>
      </trkpt>
      <trkpt lat="45.0494" lon="3.00363">
        <ele>1031</ele>
        <time>2016-12-30T12:33:04.008Z</time>
      </trkpt>
      <trkpt lat="45.04944" lon="3.00352">
        <ele>1031</ele>
        <time>2016-12-30T12:33:08.008Z</time>
      </trkpt>
      <trkpt lat="45.04951" lon="3.00341">
        <ele>1031</ele>
        <time>2016-12-30T12:33:12.008Z</time>
      </trkpt>
      <trkpt lat="45.04955" lon="3.00326">
        <ele>1031</ele>
        <time>2016-12-30T12:33:16.008Z</time>
      </trkpt>
      <trkpt lat="45.04956" lon="3.00311">
        <ele>1031.8594041086</ele>
        <time>2016-12-30T12:33:20.008Z</time>
      </trkpt>
      <trkpt lat="45.04956" lon="3.00298">
        <ele>1032</ele>
        <time>2016-12-30T12:33:24.008Z</time>
      </trkpt>
      <trkpt lat="45.04957" lon="3.00286">
        <ele>1032</ele>
        <time>2016-12-30T12:33:28.008Z</time>
      </trkpt>
      <trkpt lat="45.04954" lon="3.00273">
        <ele>1035</ele>
        <time>2016-12-30T12:33:32.008Z</time>
      </trkpt>
      <trkpt lat="45.0495" lon="3.00263">
        <ele>1037</ele>
        <time>2016-12-30T12:33:36.008Z</time>
      </trkpt>
      <trkpt lat="45.04946" lon="3.00253">
        <ele>1037</ele>
        <time>2016-12-30T12:33:39.008Z</time>
      </trkpt>
      <trkpt lat="45.04944" lon="3.00242">
        <ele>1037</ele>
        <time>2016-12-30T12:33:42.008Z</time>
      </trkpt>
      <trkpt lat="45.04942" lon="3.00233">
        <ele>1037</ele>
        <time>2016-12-30T12:33:45.008Z</time>
      </trkpt>
      <trkpt lat="45.04939" lon="3.00223">
        <ele>1037</ele>
        <time>2016-12-30T12:33:48.008Z</time>
      </trkpt>
      <trkpt lat="45.04936" lon="3.00214">
        <ele>1038</ele>
        <time>2016-12-30T12:33:51.008Z</time>
      </trkpt>
      <trkpt lat="45.04934" lon="3.00205">
        <ele>1038</ele>
        <time>2016-12-30T12:33:54.008Z</time>
      </trkpt>
      <trkpt lat="45.04933" lon="3.00199">
        <ele>1038</ele>
        <time>2016-12-30T12:33:56.008Z</time>
      </trkpt>
      <trkpt lat="45.04931" lon="3.00193">
        <ele>1038</ele>
        <time>2016-12-30T12:33:58.008Z</time>
      </trkpt>
      <trkpt lat="45.0493" lon="3.00186">
        <ele>1038.8679952897</ele>
        <time>2016-12-30T12:34:00.008Z</time>
      </trkpt>
      <trkpt lat="45.04928" lon="3.00179">
        <ele>1039</ele>
        <time>2016-12-30T12:34:02.008Z</time>
      </trkpt>
      <trkpt lat="45.04927" lon="3.00172">
        <ele>1039</ele>
        <time>2016-12-30T12:34:04.008Z</time>
      </trkpt>
      <trkpt lat="45.04925" lon="3.00166">
        <ele>1039</ele>
        <time>2016-12-30T12:34:06.008Z</time>
      </trkpt>
      <trkpt lat="45.04923" lon="3.00159">
        <ele>1039</ele>
        <time>2016-12-30T12:34:09.008Z</time>
      </trkpt>
      <trkpt lat="45.04921" lon="3.00154">
        <ele>1039</ele>
        <time>2016-12-30T12:34:13.008Z</time>
      </trkpt>
      <trkpt lat="45.04918" lon="3.00147">
        <ele>1039</ele>
        <time>2016-12-30T12:34:18.008Z</time>
      </trkpt>
      <trkpt lat="45.04915" lon="3.00139">
        <ele>1039</ele>
        <time>2016-12-30T12:34:21.008Z</time>
      </trkpt>
      <trkpt lat="45.04913" lon="3.00133">
        <ele>1039</ele>
        <time>2016-12-30T12:34:23.008Z</time>
      </trkpt>
      <trkpt lat="45.0491" lon="3.00127">
        <ele>1039</ele>
        <time>2016-12-30T12:34:25.008Z</time>
      </trkpt>
      <trkpt lat="45.04907" lon="3.00121">
        <ele>1039</ele>
        <time>2016-12-30T12:34:27.008Z</time>
      </trkpt>
      <trkpt lat="45.04902" lon="3.00116">
        <ele>1039</ele>
        <time>2016-12-30T12:34:29.008Z</time>
      </trkpt>
      <trkpt lat="45.04898" lon="3.00112">
        <ele>1040</ele>
        <time>2016-12-30T12:34:31.008Z</time>
      </trkpt>
      <trkpt lat="45.04894" lon="3.00109">
        <ele>1040</ele>
        <time>2016-12-30T12:34:33.008Z</time>
      </trkpt>
      <trkpt lat="45.04891" lon="3.00104">
        <ele>1040</ele>
        <time>2016-12-30T12:34:35.008Z</time>
      </trkpt>
      <trkpt lat="45.04888" lon="3.001">
        <ele>1040</ele>
        <time>2016-12-30T12:34:37.008Z</time>
      </trkpt>
      <trkpt lat="45.04885" lon="3.00094">
        <ele>1040</ele>
        <time>2016-12-30T12:34:39.008Z</time>
      </trkpt>
      <trkpt lat="45.04883" lon="3.0009">
        <ele>1041</ele>
        <time>2016-12-30T12:34:41.008Z</time>
      </trkpt>
      <trkpt lat="45.04881" lon="3.00084">
        <ele>1041</ele>
        <time>2016-12-30T12:34:43.008Z</time>
      </trkpt>
      <trkpt lat="45.04879" lon="3.00079">
        <ele>1041</ele>
        <time>2016-12-30T12:34:45.008Z</time>
      </trkpt>
      <trkpt lat="45.04877" lon="3.00073">
        <ele>1041</ele>
        <time>2016-12-30T12:34:47.008Z</time>
      </trkpt>
      <trkpt lat="45.04875" lon="3.00068">
        <ele>1041</ele>
        <time>2016-12-30T12:34:49.008Z</time>
      </trkpt>
      <trkpt lat="45.04873" lon="3.00062">
        <ele>1041</ele>
        <time>2016-12-30T12:34:51.008Z</time>
      </trkpt>
      <trkpt lat="45.04871" lon="3.00056">
        <ele>1041</ele>
        <time>2016-12-30T12:34:53.008Z</time>
      </trkpt>
      <trkpt lat="45.0487" lon="3.00051">
        <ele>1041</ele>
        <time>2016-12-30T12:34:55.008Z</time>
      </trkpt>
      <trkpt lat="45.04867" lon="3.00043">
        <ele>1041</ele>
        <time>2016-12-30T12:34:58.008Z</time>
      </trkpt>
      <trkpt lat="45.04865" lon="3.00037">
        <ele>1041</ele>
        <time>2016-12-30T12:35:00.008Z</time>
      </trkpt>
      <trkpt lat="45.04863" lon="3.00031">
        <ele>1041</ele>
        <time>2016-12-30T12:35:02.008Z</time>
      </trkpt>
      <trkpt lat="45.04861" lon="3.00022">
        <ele>1041</ele>
        <time>2016-12-30T12:35:05.008Z</time>
      </trkpt>
      <trkpt lat="45.04859" lon="3.00016">
        <ele>1041</ele>
        <time>2016-12-30T12:35:07.008Z</time>
      </trkpt>
      <trkpt lat="45.04857" lon="3.0001">
        <ele>1041</ele>
        <time>2016-12-30T12:35:09.008Z</time>
      </trkpt>
      <trkpt lat="45.04853" lon="3.00003">
        <ele>1042</ele>
        <time>2016-12-30T12:35:12.008Z</time>
      </trkpt>
      <trkpt lat="45.04851" lon="2.99997">
        <ele>1042</ele>
        <time>2016-12-30T12:35:14.008Z</time>
      </trkpt>
      <trkpt lat="45.04848" lon="2.99992">
        <ele>1042</ele>
        <time>2016-12-30T12:35:16.008Z</time>
      </trkpt>
      <trkpt lat="45.04845" lon="2.99986">
        <ele>1042</ele>
        <time>2016-12-30T12:35:18.008Z</time>
      </trkpt>
      <trkpt lat="45.04842" lon="2.9998">
        <ele>1042</ele>
        <time>2016-12-30T12:35:20.008Z</time>
      </trkpt>
      <trkpt lat="45.04839" lon="2.99974">
        <ele>1042</ele>
        <time>2016-12-30T12:35:22.008Z</time>
      </trkpt>
      <trkpt lat="45.04837" lon="2.99969">
        <ele>1042</ele>
        <time>2016-12-30T12:35:24.008Z</time>
      </trkpt>
      <trkpt lat="45.04833" lon="2.99961">
        <ele>1042</ele>
        <time>2016-12-30T12:35:27.008Z</time>
      </trkpt>
      <trkpt lat="45.04829" lon="2.99953">
        <ele>1042.8679952897</ele>
        <time>2016-12-30T12:35:30.008Z</time>
      </trkpt>
      <trkpt lat="45.04826" lon="2.99944">
        <ele>1043</ele>
        <time>2016-12-30T12:35:33.008Z</time>
      </trkpt>
      <trkpt lat="45.04824" lon="2.99937">
        <ele>1043</ele>
        <time>2016-12-30T12:35:35.008Z</time>
      </trkpt>
      <trkpt lat="45.04822" lon="2.99931">
        <ele>1043</ele>
        <time>2016-12-30T12:35:37.008Z</time>
      </trkpt>
      <trkpt lat="45.04821" lon="2.99925">
        <ele>1043</ele>
        <time>2016-12-30T12:35:39.008Z</time>
      </trkpt>
      <trkpt lat="45.04821" lon="2.99918">
        <ele>1044</ele>
        <time>2016-12-30T12:35:41.008Z</time>
      </trkpt>
      <trkpt lat="45.0482" lon="2.9991">
        <ele>1044</ele>
        <time>2016-12-30T12:35:43.008Z</time>
      </trkpt>
      <trkpt lat="45.04819" lon="2.99903">
        <ele>1044</ele>
        <time>2016-12-30T12:35:45.008Z</time>
      </trkpt>
      <trkpt lat="45.04818" lon="2.99896">
        <ele>1044</ele>
        <time>2016-12-30T12:35:47.008Z</time>
      </trkpt>
      <trkpt lat="45.04817" lon="2.99889">
        <ele>1044</ele>
        <time>2016-12-30T12:35:49.008Z</time>
      </trkpt>
      <trkpt lat="45.04816" lon="2.99882">
        <ele>1046</ele>
        <time>2016-12-30T12:35:51.008Z</time>
      </trkpt>
      <trkpt lat="45.04815" lon="2.99876">
        <ele>1046</ele>
        <time>2016-12-30T12:35:53.008Z</time>
      </trkpt>
      <trkpt lat="45.04814" lon="2.9987">
        <ele>1046</ele>
        <time>2016-12-30T12:35:55.008Z</time>
      </trkpt>
      <trkpt lat="45.04813" lon="2.99864">
        <ele>1046</ele>
        <time>2016-12-30T12:35:57.008Z</time>
      </trkpt>
      <trkpt lat="45.04812" lon="2.99857">
        <ele>1046</ele>
        <time>2016-12-30T12:35:59.008Z</time>
      </trkpt>
      <trkpt lat="45.04811" lon="2.9985">
        <ele>1046</ele>
        <time>2016-12-30T12:36:01.008Z</time>
      </trkpt>
      <trkpt lat="45.0481" lon="2.99845">
        <ele>1046</ele>
        <time>2016-12-30T12:36:03.008Z</time>
      </trkpt>
      <trkpt lat="45.04808" lon="2.99837">
        <ele>1046</ele>
        <time>2016-12-30T12:36:06.008Z</time>
      </trkpt>
      <trkpt lat="45.04807" lon="2.9983">
        <ele>1046</ele>
        <time>2016-12-30T12:36:08.008Z</time>
      </trkpt>
      <trkpt lat="45.04807" lon="2.9982">
        <ele>1046</ele>
        <time>2016-12-30T12:36:10.008Z</time>
      </trkpt>
      <trkpt lat="45.04807" lon="2.9981">
        <ele>1046</ele>
        <time>2016-12-30T12:36:12.008Z</time>
      </trkpt>
      <trkpt lat="45.04807" lon="2.99803">
        <ele>1046</ele>
        <time>2016-12-30T12:36:13.008Z</time>
      </trkpt>
      <trkpt lat="45.04808" lon="2.99797">
        <ele>1046</ele>
        <time>2016-12-30T12:36:14.008Z</time>
      </trkpt>
      <trkpt lat="45.04809" lon="2.9979">
        <ele>1046</ele>
        <time>2016-12-30T12:36:15.008Z</time>
      </trkpt>
      <trkpt lat="45.04811" lon="2.99783">
        <ele>1046</ele>
        <time>2016-12-30T12:36:16.008Z</time>
      </trkpt>
      <trkpt lat="45.04815" lon="2.99778">
        <ele>1046</ele>
        <time>2016-12-30T12:36:17.008Z</time>
      </trkpt>
      <trkpt lat="45.04819" lon="2.99774">
        <ele>1046</ele>
        <time>2016-12-30T12:36:18.008Z</time>
      </trkpt>
      <trkpt lat="45.04824" lon="2.99773">
        <ele>1046</ele>
        <time>2016-12-30T12:36:19.008Z</time>
      </trkpt>
      <trkpt lat="45.04829" lon="2.99773">
        <ele>1045.1405958914</ele>
        <time>2016-12-30T12:36:20.008Z</time>
      </trkpt>
      <trkpt lat="45.04837" lon="2.99772">
        <ele>1045</ele>
        <time>2016-12-30T12:36:22.008Z</time>
      </trkpt>
      <trkpt lat="45.04845" lon="2.99772">
        <ele>1045</ele>
        <time>2016-12-30T12:36:24.008Z</time>
      </trkpt>
      <trkpt lat="45.04852" lon="2.99772">
        <ele>1045</ele>
        <time>2016-12-30T12:36:26.008Z</time>
      </trkpt>
      <trkpt lat="45.04858" lon="2.99772">
        <ele>1045</ele>
        <time>2016-12-30T12:36:28.008Z</time>
      </trkpt>
      <trkpt lat="45.04866" lon="2.99767">
        <ele>1049</ele>
        <time>2016-12-30T12:36:31.008Z</time>
      </trkpt>
      <trkpt lat="45.04866" lon="2.9976">
        <ele>1049</ele>
        <time>2016-12-30T12:36:33.008Z</time>
      </trkpt>
      <trkpt lat="45.04864" lon="2.99752">
        <ele>1050.7360094209</ele>
        <time>2016-12-30T12:36:35.008Z</time>
      </trkpt>
      <trkpt lat="45.04862" lon="2.99745">
        <ele>1051</ele>
        <time>2016-12-30T12:36:37.008Z</time>
      </trkpt>
      <trkpt lat="45.04859" lon="2.99737">
        <ele>1051</ele>
        <time>2016-12-30T12:36:39.008Z</time>
      </trkpt>
      <trkpt lat="45.04857" lon="2.9973">
        <ele>1052</ele>
        <time>2016-12-30T12:36:41.008Z</time>
      </trkpt>
      <trkpt lat="45.04854" lon="2.99722">
        <ele>1052</ele>
        <time>2016-12-30T12:36:43.008Z</time>
      </trkpt>
      <trkpt lat="45.04852" lon="2.99714">
        <ele>1052</ele>
        <time>2016-12-30T12:36:45.008Z</time>
      </trkpt>
      <trkpt lat="45.0485" lon="2.99705">
        <ele>1052</ele>
        <time>2016-12-30T12:36:47.008Z</time>
      </trkpt>
      <trkpt lat="45.04849" lon="2.997">
        <ele>1052</ele>
        <time>2016-12-30T12:36:48.008Z</time>
      </trkpt>
      <trkpt lat="45.04848" lon="2.99691">
        <ele>1052.8594041086</ele>
        <time>2016-12-30T12:36:50.008Z</time>
      </trkpt>
      <trkpt lat="45.04847" lon="2.99681">
        <ele>1053</ele>
        <time>2016-12-30T12:36:52.008Z</time>
      </trkpt>
      <trkpt lat="45.04847" lon="2.99676">
        <ele>1053</ele>
        <time>2016-12-30T12:36:53.008Z</time>
      </trkpt>
      <trkpt lat="45.04847" lon="2.9967">
        <ele>1053</ele>
        <time>2016-12-30T12:36:54.008Z</time>
      </trkpt>
      <trkpt lat="45.04847" lon="2.9966">
        <ele>1053</ele>
        <time>2016-12-30T12:36:56.008Z</time>
      </trkpt>
      <trkpt lat="45.04848" lon="2.9965">
        <ele>1053</ele>
        <time>2016-12-30T12:36:58.008Z</time>
      </trkpt>
      <trkpt lat="45.04849" lon="2.99645">
        <ele>1053</ele>
        <time>2016-12-30T12:36:59.008Z</time>
      </trkpt>
      <trkpt lat="45.04849" lon="2.9964">
        <ele>1053.8679952897</ele>
        <time>2016-12-30T12:37:00.008Z</time>
      </trkpt>
      <trkpt lat="45.0485" lon="2.99635">
        <ele>1054</ele>
        <time>2016-12-30T12:37:01.008Z</time>
      </trkpt>
      <trkpt lat="45.04851" lon="2.99631">
        <ele>1054</ele>
        <time>2016-12-30T12:37:02.008Z</time>
      </trkpt>
      <trkpt lat="45.04852" lon="2.99626">
        <ele>1054</ele>
        <time>2016-12-30T12:37:03.008Z</time>
      </trkpt>
      <trkpt lat="45.04853" lon="2.99622">
        <ele>1054</ele>
        <time>2016-12-30T12:37:04.008Z</time>
      </trkpt>
      <trkpt lat="45.04855" lon="2.99618">
        <ele>1054</ele>
        <time>2016-12-30T12:37:05.008Z</time>
      </trkpt>
      <trkpt lat="45.04859" lon="2.99611">
        <ele>1054</ele>
        <time>2016-12-30T12:37:07.008Z</time>
      </trkpt>
      <trkpt lat="45.04864" lon="2.99604">
        <ele>1054</ele>
        <time>2016-12-30T12:37:09.008Z</time>
      </trkpt>
      <trkpt lat="45.04866" lon="2.996">
        <ele>1057.4719811586</ele>
        <time>2016-12-30T12:37:10.008Z</time>
      </trkpt>
      <trkpt lat="45.04868" lon="2.99597">
        <ele>1058</ele>
        <time>2016-12-30T12:37:11.008Z</time>
      </trkpt>
      <trkpt lat="45.04871" lon="2.99593">
        <ele>1058</ele>
        <time>2016-12-30T12:37:12.008Z</time>
      </trkpt>
      <trkpt lat="45.04873" lon="2.9959">
        <ele>1058</ele>
        <time>2016-12-30T12:37:13.008Z</time>
      </trkpt>
      <trkpt lat="45.04875" lon="2.99586">
        <ele>1058</ele>
        <time>2016-12-30T12:37:14.008Z</time>
      </trkpt>
      <trkpt lat="45.04877" lon="2.99582">
        <ele>1058.8666718384</ele>
        <time>2016-12-30T12:37:15.008Z</time>
      </trkpt>
      <trkpt lat="45.04879" lon="2.99577">
        <ele>1059</ele>
        <time>2016-12-30T12:37:16.008Z</time>
      </trkpt>
      <trkpt lat="45.04881" lon="2.99573">
        <ele>1059</ele>
        <time>2016-12-30T12:37:17.008Z</time>
      </trkpt>
      <trkpt lat="45.04882" lon="2.99568">
        <ele>1059</ele>
        <time>2016-12-30T12:37:18.008Z</time>
      </trkpt>
      <trkpt lat="45.04884" lon="2.99564">
        <ele>1059</ele>
        <time>2016-12-30T12:37:19.008Z</time>
      </trkpt>
      <trkpt lat="45.04885" lon="2.99559">
        <ele>1060.7188082173</ele>
        <time>2016-12-30T12:37:20.008Z</time>
      </trkpt>
      <trkpt lat="45.04887" lon="2.99555">
        <ele>1061</ele>
        <time>2016-12-30T12:37:21.008Z</time>
      </trkpt>
      <trkpt lat="45.04888" lon="2.9955">
        <ele>1061</ele>
        <time>2016-12-30T12:37:22.008Z</time>
      </trkpt>
      <trkpt lat="45.0489" lon="2.99546">
        <ele>1061</ele>
        <time>2016-12-30T12:37:23.008Z</time>
      </trkpt>
      <trkpt lat="45.04891" lon="2.99541">
        <ele>1061</ele>
        <time>2016-12-30T12:37:24.008Z</time>
      </trkpt>
      <trkpt lat="45.04892" lon="2.99536">
        <ele>1061.8680047105</ele>
        <time>2016-12-30T12:37:25.008Z</time>
      </trkpt>
      <trkpt lat="45.04893" lon="2.99531">
        <ele>1062</ele>
        <time>2016-12-30T12:37:26.008Z</time>
      </trkpt>
      <trkpt lat="45.04895" lon="2.99521">
        <ele>1062</ele>
        <time>2016-12-30T12:37:28.008Z</time>
      </trkpt>
      <trkpt lat="45.04897" lon="2.99512">
        <ele>1062.8679952897</ele>
        <time>2016-12-30T12:37:30.008Z</time>
      </trkpt>
      <trkpt lat="45.04898" lon="2.99502">
        <ele>1063</ele>
        <time>2016-12-30T12:37:32.008Z</time>
      </trkpt>
      <trkpt lat="45.04898" lon="2.99493">
        <ele>1063</ele>
        <time>2016-12-30T12:37:34.008Z</time>
      </trkpt>
      <trkpt lat="45.049" lon="2.99484">
        <ele>1063</ele>
        <time>2016-12-30T12:37:36.008Z</time>
      </trkpt>
      <trkpt lat="45.04901" lon="2.99475">
        <ele>1063</ele>
        <time>2016-12-30T12:37:38.008Z</time>
      </trkpt>
      <trkpt lat="45.04902" lon="2.99466">
        <ele>1064.7359905793</ele>
        <time>2016-12-30T12:37:40.008Z</time>
      </trkpt>
      <trkpt lat="45.04903" lon="2.99457">
        <ele>1065</ele>
        <time>2016-12-30T12:37:42.008Z</time>
      </trkpt>
      <trkpt lat="45.04903" lon="2.99448">
        <ele>1065</ele>
        <time>2016-12-30T12:37:44.008Z</time>
      </trkpt>
      <trkpt lat="45.04903" lon="2.99439">
        <ele>1065</ele>
        <time>2016-12-30T12:37:46.008Z</time>
      </trkpt>
      <trkpt lat="45.04903" lon="2.99431">
        <ele>1065</ele>
        <time>2016-12-30T12:37:48.008Z</time>
      </trkpt>
      <trkpt lat="45.04903" lon="2.99424">
        <ele>1066.7188082173</ele>
        <time>2016-12-30T12:37:50.008Z</time>
      </trkpt>
      <trkpt lat="45.04902" lon="2.99415">
        <ele>1067</ele>
        <time>2016-12-30T12:37:52.008Z</time>
      </trkpt>
      <trkpt lat="45.04902" lon="2.99411">
        <ele>1067</ele>
        <time>2016-12-30T12:37:53.008Z</time>
      </trkpt>
      <trkpt lat="45.04901" lon="2.99402">
        <ele>1067</ele>
        <time>2016-12-30T12:37:55.008Z</time>
      </trkpt>
      <trkpt lat="45.049" lon="2.99392">
        <ele>1067</ele>
        <time>2016-12-30T12:37:57.008Z</time>
      </trkpt>
      <trkpt lat="45.04899" lon="2.99383">
        <ele>1067</ele>
        <time>2016-12-30T12:37:59.008Z</time>
      </trkpt>
      <trkpt lat="45.04897" lon="2.99374">
        <ele>1067</ele>
        <time>2016-12-30T12:38:01.008Z</time>
      </trkpt>
      <trkpt lat="45.04897" lon="2.99365">
        <ele>1067</ele>
        <time>2016-12-30T12:38:03.008Z</time>
      </trkpt>
      <trkpt lat="45.04896" lon="2.99356">
        <ele>1067</ele>
        <time>2016-12-30T12:38:05.008Z</time>
      </trkpt>
      <trkpt lat="45.04895" lon="2.99346">
        <ele>1067</ele>
        <time>2016-12-30T12:38:07.008Z</time>
      </trkpt>
      <trkpt lat="45.04895" lon="2.99341">
        <ele>1067</ele>
        <time>2016-12-30T12:38:08.008Z</time>
      </trkpt>
      <trkpt lat="45.04895" lon="2.99335">
        <ele>1067</ele>
        <time>2016-12-30T12:38:09.008Z</time>
      </trkpt>
      <trkpt lat="45.04894" lon="2.9933">
        <ele>1067</ele>
        <time>2016-12-30T12:38:10.008Z</time>
      </trkpt>
      <trkpt lat="45.04894" lon="2.99324">
        <ele>1067</ele>
        <time>2016-12-30T12:38:11.008Z</time>
      </trkpt>
      <trkpt lat="45.04894" lon="2.99317">
        <ele>1067</ele>
        <time>2016-12-30T12:38:12.008Z</time>
      </trkpt>
      <trkpt lat="45.04893" lon="2.9931">
        <ele>1067</ele>
        <time>2016-12-30T12:38:13.008Z</time>
      </trkpt>
      <trkpt lat="45.04893" lon="2.99303">
        <ele>1067</ele>
        <time>2016-12-30T12:38:14.008Z</time>
      </trkpt>
      <trkpt lat="45.04893" lon="2.99296">
        <ele>1067</ele>
        <time>2016-12-30T12:38:15.008Z</time>
      </trkpt>
      <trkpt lat="45.04893" lon="2.99289">
        <ele>1067</ele>
        <time>2016-12-30T12:38:16.008Z</time>
      </trkpt>
      <trkpt lat="45.04892" lon="2.99282">
        <ele>1067</ele>
        <time>2016-12-30T12:38:17.008Z</time>
      </trkpt>
      <trkpt lat="45.04891" lon="2.99274">
        <ele>1067</ele>
        <time>2016-12-30T12:38:18.008Z</time>
      </trkpt>
      <trkpt lat="45.0489" lon="2.99267">
        <ele>1067</ele>
        <time>2016-12-30T12:38:19.008Z</time>
      </trkpt>
      <trkpt lat="45.04889" lon="2.99259">
        <ele>1066.1405958914</ele>
        <time>2016-12-30T12:38:20.008Z</time>
      </trkpt>
      <trkpt lat="45.04888" lon="2.99252">
        <ele>1066</ele>
        <time>2016-12-30T12:38:21.008Z</time>
      </trkpt>
      <trkpt lat="45.04887" lon="2.99244">
        <ele>1066</ele>
        <time>2016-12-30T12:38:22.008Z</time>
      </trkpt>
      <trkpt lat="45.04886" lon="2.99237">
        <ele>1066</ele>
        <time>2016-12-30T12:38:23.008Z</time>
      </trkpt>
      <trkpt lat="45.04885" lon="2.99229">
        <ele>1066</ele>
        <time>2016-12-30T12:38:24.008Z</time>
      </trkpt>
      <trkpt lat="45.04884" lon="2.99222">
        <ele>1066</ele>
        <time>2016-12-30T12:38:25.008Z</time>
      </trkpt>
      <trkpt lat="45.04883" lon="2.99215">
        <ele>1066</ele>
        <time>2016-12-30T12:38:26.008Z</time>
      </trkpt>
      <trkpt lat="45.04883" lon="2.99207">
        <ele>1066</ele>
        <time>2016-12-30T12:38:27.008Z</time>
      </trkpt>
      <trkpt lat="45.04882" lon="2.992">
        <ele>1066</ele>
        <time>2016-12-30T12:38:28.008Z</time>
      </trkpt>
      <trkpt lat="45.04882" lon="2.99192">
        <ele>1066</ele>
        <time>2016-12-30T12:38:29.008Z</time>
      </trkpt>
      <trkpt lat="45.04881" lon="2.99185">
        <ele>1066</ele>
        <time>2016-12-30T12:38:30.008Z</time>
      </trkpt>
      <trkpt lat="45.04881" lon="2.99177">
        <ele>1066</ele>
        <time>2016-12-30T12:38:31.008Z</time>
      </trkpt>
      <trkpt lat="45.0488" lon="2.9917">
        <ele>1066</ele>
        <time>2016-12-30T12:38:32.008Z</time>
      </trkpt>
      <trkpt lat="45.0488" lon="2.99162">
        <ele>1066</ele>
        <time>2016-12-30T12:38:33.008Z</time>
      </trkpt>
      <trkpt lat="45.04879" lon="2.99155">
        <ele>1066</ele>
        <time>2016-12-30T12:38:34.008Z</time>
      </trkpt>
      <trkpt lat="45.04878" lon="2.99141">
        <ele>1066</ele>
        <time>2016-12-30T12:38:36.008Z</time>
      </trkpt>
      <trkpt lat="45.04878" lon="2.99133">
        <ele>1066</ele>
        <time>2016-12-30T12:38:37.008Z</time>
      </trkpt>
      <trkpt lat="45.04878" lon="2.99126">
        <ele>1066</ele>
        <time>2016-12-30T12:38:38.008Z</time>
      </trkpt>
      <trkpt lat="45.04877" lon="2.99119">
        <ele>1066</ele>
        <time>2016-12-30T12:38:39.008Z</time>
      </trkpt>
      <trkpt lat="45.04876" lon="2.99111">
        <ele>1066</ele>
        <time>2016-12-30T12:38:40.008Z</time>
      </trkpt>
      <trkpt lat="45.04876" lon="2.99103">
        <ele>1066</ele>
        <time>2016-12-30T12:38:41.008Z</time>
      </trkpt>
      <trkpt lat="45.04876" lon="2.99095">
        <ele>1066</ele>
        <time>2016-12-30T12:38:42.008Z</time>
      </trkpt>
      <trkpt lat="45.04875" lon="2.99087">
        <ele>1066</ele>
        <time>2016-12-30T12:38:43.008Z</time>
      </trkpt>
      <trkpt lat="45.04874" lon="2.99079">
        <ele>1066</ele>
        <time>2016-12-30T12:38:44.008Z</time>
      </trkpt>
      <trkpt lat="45.04874" lon="2.99072">
        <ele>1066</ele>
        <time>2016-12-30T12:38:45.008Z</time>
      </trkpt>
      <trkpt lat="45.04873" lon="2.99064">
        <ele>1066</ele>
        <time>2016-12-30T12:38:46.008Z</time>
      </trkpt>
      <trkpt lat="45.04873" lon="2.99055">
        <ele>1066</ele>
        <time>2016-12-30T12:38:47.008Z</time>
      </trkpt>
      <trkpt lat="45.04871" lon="2.99039">
        <ele>1066</ele>
        <time>2016-12-30T12:38:49.008Z</time>
      </trkpt>
      <trkpt lat="45.0487" lon="2.99031">
        <ele>1066</ele>
        <time>2016-12-30T12:38:50.008Z</time>
      </trkpt>
      <trkpt lat="45.04869" lon="2.99023">
        <ele>1066</ele>
        <time>2016-12-30T12:38:51.008Z</time>
      </trkpt>
      <trkpt lat="45.04869" lon="2.99015">
        <ele>1066</ele>
        <time>2016-12-30T12:38:52.008Z</time>
      </trkpt>
      <trkpt lat="45.04868" lon="2.99007">
        <ele>1066</ele>
        <time>2016-12-30T12:38:53.008Z</time>
      </trkpt>
      <trkpt lat="45.04867" lon="2.98999">
        <ele>1066</ele>
        <time>2016-12-30T12:38:54.008Z</time>
      </trkpt>
      <trkpt lat="45.04867" lon="2.98991">
        <ele>1066</ele>
        <time>2016-12-30T12:38:55.008Z</time>
      </trkpt>
      <trkpt lat="45.04866" lon="2.98983">
        <ele>1066</ele>
        <time>2016-12-30T12:38:56.008Z</time>
      </trkpt>
      <trkpt lat="45.04866" lon="2.98975">
        <ele>1066</ele>
        <time>2016-12-30T12:38:57.008Z</time>
      </trkpt>
      <trkpt lat="45.04866" lon="2.98968">
        <ele>1066</ele>
        <time>2016-12-30T12:38:58.008Z</time>
      </trkpt>
      <trkpt lat="45.04865" lon="2.9896">
        <ele>1066</ele>
        <time>2016-12-30T12:38:59.008Z</time>
      </trkpt>
      <trkpt lat="45.04865" lon="2.98953">
        <ele>1065.1320047103</ele>
        <time>2016-12-30T12:39:00.008Z</time>
      </trkpt>
      <trkpt lat="45.04864" lon="2.98946">
        <ele>1065</ele>
        <time>2016-12-30T12:39:01.008Z</time>
      </trkpt>
      <trkpt lat="45.04863" lon="2.98938">
        <ele>1065</ele>
        <time>2016-12-30T12:39:02.008Z</time>
      </trkpt>
      <trkpt lat="45.04863" lon="2.98931">
        <ele>1065</ele>
        <time>2016-12-30T12:39:03.008Z</time>
      </trkpt>
      <trkpt lat="45.04862" lon="2.98924">
        <ele>1065</ele>
        <time>2016-12-30T12:39:04.008Z</time>
      </trkpt>
      <trkpt lat="45.04861" lon="2.98917">
        <ele>1065</ele>
        <time>2016-12-30T12:39:05.008Z</time>
      </trkpt>
      <trkpt lat="45.04861" lon="2.9891">
        <ele>1065</ele>
        <time>2016-12-30T12:39:06.008Z</time>
      </trkpt>
      <trkpt lat="45.04861" lon="2.98903">
        <ele>1065</ele>
        <time>2016-12-30T12:39:07.008Z</time>
      </trkpt>
      <trkpt lat="45.0486" lon="2.98897">
        <ele>1065</ele>
        <time>2016-12-30T12:39:08.008Z</time>
      </trkpt>
      <trkpt lat="45.0486" lon="2.9889">
        <ele>1065</ele>
        <time>2016-12-30T12:39:09.008Z</time>
      </trkpt>
      <trkpt lat="45.04859" lon="2.98883">
        <ele>1065.8679952897</ele>
        <time>2016-12-30T12:39:10.008Z</time>
      </trkpt>
      <trkpt lat="45.04859" lon="2.98876">
        <ele>1066</ele>
        <time>2016-12-30T12:39:11.008Z</time>
      </trkpt>
      <trkpt lat="45.04858" lon="2.98869">
        <ele>1066</ele>
        <time>2016-12-30T12:39:12.008Z</time>
      </trkpt>
      <trkpt lat="45.04857" lon="2.98862">
        <ele>1066</ele>
        <time>2016-12-30T12:39:13.008Z</time>
      </trkpt>
      <trkpt lat="45.04857" lon="2.98855">
        <ele>1066</ele>
        <time>2016-12-30T12:39:14.008Z</time>
      </trkpt>
      <trkpt lat="45.04856" lon="2.98849">
        <ele>1066</ele>
        <time>2016-12-30T12:39:15.008Z</time>
      </trkpt>
      <trkpt lat="45.04855" lon="2.98842">
        <ele>1066</ele>
        <time>2016-12-30T12:39:16.008Z</time>
      </trkpt>
      <trkpt lat="45.04855" lon="2.98835">
        <ele>1066</ele>
        <time>2016-12-30T12:39:17.008Z</time>
      </trkpt>
      <trkpt lat="45.04854" lon="2.98829">
        <ele>1066</ele>
        <time>2016-12-30T12:39:18.008Z</time>
      </trkpt>
      <trkpt lat="45.04853" lon="2.98822">
        <ele>1066</ele>
        <time>2016-12-30T12:39:19.008Z</time>
      </trkpt>
      <trkpt lat="45.04853" lon="2.98816">
        <ele>1066.8594041086</ele>
        <time>2016-12-30T12:39:20.008Z</time>
      </trkpt>
      <trkpt lat="45.04852" lon="2.98809">
        <ele>1067</ele>
        <time>2016-12-30T12:39:21.008Z</time>
      </trkpt>
      <trkpt lat="45.04852" lon="2.98802">
        <ele>1067</ele>
        <time>2016-12-30T12:39:22.008Z</time>
      </trkpt>
      <trkpt lat="45.04851" lon="2.98796">
        <ele>1067</ele>
        <time>2016-12-30T12:39:23.008Z</time>
      </trkpt>
      <trkpt lat="45.04851" lon="2.98789">
        <ele>1067</ele>
        <time>2016-12-30T12:39:24.008Z</time>
      </trkpt>
      <trkpt lat="45.0485" lon="2.98782">
        <ele>1067</ele>
        <time>2016-12-30T12:39:25.008Z</time>
      </trkpt>
      <trkpt lat="45.0485" lon="2.98775">
        <ele>1067</ele>
        <time>2016-12-30T12:39:26.008Z</time>
      </trkpt>
      <trkpt lat="45.04849" lon="2.98769">
        <ele>1067</ele>
        <time>2016-12-30T12:39:27.008Z</time>
      </trkpt>
      <trkpt lat="45.04849" lon="2.98762">
        <ele>1067</ele>
        <time>2016-12-30T12:39:28.008Z</time>
      </trkpt>
      <trkpt lat="45.04849" lon="2.98755">
        <ele>1067</ele>
        <time>2016-12-30T12:39:29.008Z</time>
      </trkpt>
      <trkpt lat="45.04849" lon="2.98748">
        <ele>1067.8679952897</ele>
        <time>2016-12-30T12:39:30.008Z</time>
      </trkpt>
      <trkpt lat="45.04849" lon="2.98741">
        <ele>1068</ele>
        <time>2016-12-30T12:39:31.008Z</time>
      </trkpt>
      <trkpt lat="45.04848" lon="2.98734">
        <ele>1068</ele>
        <time>2016-12-30T12:39:32.008Z</time>
      </trkpt>
      <trkpt lat="45.04849" lon="2.98726">
        <ele>1068</ele>
        <time>2016-12-30T12:39:33.008Z</time>
      </trkpt>
      <trkpt lat="45.04849" lon="2.98719">
        <ele>1068</ele>
        <time>2016-12-30T12:39:34.008Z</time>
      </trkpt>
      <trkpt lat="45.04849" lon="2.98712">
        <ele>1068</ele>
        <time>2016-12-30T12:39:35.008Z</time>
      </trkpt>
      <trkpt lat="45.04849" lon="2.98705">
        <ele>1068</ele>
        <time>2016-12-30T12:39:36.008Z</time>
      </trkpt>
      <trkpt lat="45.0485" lon="2.98697">
        <ele>1068</ele>
        <time>2016-12-30T12:39:37.008Z</time>
      </trkpt>
      <trkpt lat="45.0485" lon="2.98689">
        <ele>1068</ele>
        <time>2016-12-30T12:39:38.008Z</time>
      </trkpt>
      <trkpt lat="45.0485" lon="2.98682">
        <ele>1068</ele>
        <time>2016-12-30T12:39:39.008Z</time>
      </trkpt>
      <trkpt lat="45.04851" lon="2.98674">
        <ele>1068</ele>
        <time>2016-12-30T12:39:40.008Z</time>
      </trkpt>
      <trkpt lat="45.04851" lon="2.98667">
        <ele>1068</ele>
        <time>2016-12-30T12:39:41.008Z</time>
      </trkpt>
      <trkpt lat="45.04852" lon="2.98659">
        <ele>1068</ele>
        <time>2016-12-30T12:39:42.008Z</time>
      </trkpt>
      <trkpt lat="45.04854" lon="2.98645">
        <ele>1068</ele>
        <time>2016-12-30T12:39:44.008Z</time>
      </trkpt>
      <trkpt lat="45.04856" lon="2.98631">
        <ele>1068</ele>
        <time>2016-12-30T12:39:46.008Z</time>
      </trkpt>
      <trkpt lat="45.04856" lon="2.98623">
        <ele>1068</ele>
        <time>2016-12-30T12:39:47.008Z</time>
      </trkpt>
      <trkpt lat="45.04857" lon="2.98616">
        <ele>1068</ele>
        <time>2016-12-30T12:39:48.008Z</time>
      </trkpt>
      <trkpt lat="45.04858" lon="2.98608">
        <ele>1068</ele>
        <time>2016-12-30T12:39:49.008Z</time>
      </trkpt>
      <trkpt lat="45.04859" lon="2.98601">
        <ele>1068</ele>
        <time>2016-12-30T12:39:50.008Z</time>
      </trkpt>
      <trkpt lat="45.04859" lon="2.98594">
        <ele>1068</ele>
        <time>2016-12-30T12:39:51.008Z</time>
      </trkpt>
      <trkpt lat="45.0486" lon="2.98586">
        <ele>1068</ele>
        <time>2016-12-30T12:39:52.008Z</time>
      </trkpt>
      <trkpt lat="45.0486" lon="2.98579">
        <ele>1068</ele>
        <time>2016-12-30T12:39:53.008Z</time>
      </trkpt>
      <trkpt lat="45.04861" lon="2.98571">
        <ele>1068</ele>
        <time>2016-12-30T12:39:54.008Z</time>
      </trkpt>
      <trkpt lat="45.04861" lon="2.98564">
        <ele>1068</ele>
        <time>2016-12-30T12:39:55.008Z</time>
      </trkpt>
      <trkpt lat="45.04862" lon="2.98557">
        <ele>1068</ele>
        <time>2016-12-30T12:39:56.008Z</time>
      </trkpt>
      <trkpt lat="45.04863" lon="2.9855">
        <ele>1068</ele>
        <time>2016-12-30T12:39:57.008Z</time>
      </trkpt>
      <trkpt lat="45.04863" lon="2.98542">
        <ele>1068</ele>
        <time>2016-12-30T12:39:58.008Z</time>
      </trkpt>
      <trkpt lat="45.04864" lon="2.98535">
        <ele>1068</ele>
        <time>2016-12-30T12:39:59.008Z</time>
      </trkpt>
      <trkpt lat="45.04864" lon="2.98528">
        <ele>1068</ele>
        <time>2016-12-30T12:40:00.008Z</time>
      </trkpt>
      <trkpt lat="45.04865" lon="2.9852">
        <ele>1068</ele>
        <time>2016-12-30T12:40:01.008Z</time>
      </trkpt>
      <trkpt lat="45.04865" lon="2.98513">
        <ele>1068</ele>
        <time>2016-12-30T12:40:02.008Z</time>
      </trkpt>
      <trkpt lat="45.04865" lon="2.98506">
        <ele>1068</ele>
        <time>2016-12-30T12:40:03.008Z</time>
      </trkpt>
      <trkpt lat="45.04865" lon="2.98498">
        <ele>1068</ele>
        <time>2016-12-30T12:40:04.008Z</time>
      </trkpt>
      <trkpt lat="45.04865" lon="2.98491">
        <ele>1068</ele>
        <time>2016-12-30T12:40:05.008Z</time>
      </trkpt>
      <trkpt lat="45.04865" lon="2.98483">
        <ele>1068</ele>
        <time>2016-12-30T12:40:06.008Z</time>
      </trkpt>
      <trkpt lat="45.04864" lon="2.98476">
        <ele>1068</ele>
        <time>2016-12-30T12:40:07.008Z</time>
      </trkpt>
      <trkpt lat="45.04863" lon="2.98468">
        <ele>1068</ele>
        <time>2016-12-30T12:40:08.008Z</time>
      </trkpt>
      <trkpt lat="45.04863" lon="2.98461">
        <ele>1068</ele>
        <time>2016-12-30T12:40:09.008Z</time>
      </trkpt>
      <trkpt lat="45.04862" lon="2.98454">
        <ele>1068.8679952897</ele>
        <time>2016-12-30T12:40:10.008Z</time>
      </trkpt>
      <trkpt lat="45.04862" lon="2.98446">
        <ele>1069</ele>
        <time>2016-12-30T12:40:11.008Z</time>
      </trkpt>
      <trkpt lat="45.04861" lon="2.98439">
        <ele>1069</ele>
        <time>2016-12-30T12:40:12.008Z</time>
      </trkpt>
      <trkpt lat="45.04862" lon="2.98432">
        <ele>1069</ele>
        <time>2016-12-30T12:40:13.008Z</time>
      </trkpt>
      <trkpt lat="45.04862" lon="2.98425">
        <ele>1069</ele>
        <time>2016-12-30T12:40:14.008Z</time>
      </trkpt>
      <trkpt lat="45.04862" lon="2.98418">
        <ele>1069</ele>
        <time>2016-12-30T12:40:15.008Z</time>
      </trkpt>
      <trkpt lat="45.04861" lon="2.9841">
        <ele>1069</ele>
        <time>2016-12-30T12:40:16.008Z</time>
      </trkpt>
      <trkpt lat="45.04861" lon="2.98403">
        <ele>1069</ele>
        <time>2016-12-30T12:40:17.008Z</time>
      </trkpt>
      <trkpt lat="45.04861" lon="2.98396">
        <ele>1069</ele>
        <time>2016-12-30T12:40:18.008Z</time>
      </trkpt>
      <trkpt lat="45.0486" lon="2.98389">
        <ele>1069</ele>
        <time>2016-12-30T12:40:19.008Z</time>
      </trkpt>
      <trkpt lat="45.0486" lon="2.98382">
        <ele>1069.8594041086</ele>
        <time>2016-12-30T12:40:20.008Z</time>
      </trkpt>
      <trkpt lat="45.0486" lon="2.98375">
        <ele>1070</ele>
        <time>2016-12-30T12:40:21.008Z</time>
      </trkpt>
      <trkpt lat="45.04859" lon="2.98368">
        <ele>1070</ele>
        <time>2016-12-30T12:40:22.008Z</time>
      </trkpt>
      <trkpt lat="45.04859" lon="2.98361">
        <ele>1070</ele>
        <time>2016-12-30T12:40:23.008Z</time>
      </trkpt>
      <trkpt lat="45.04859" lon="2.98353">
        <ele>1070</ele>
        <time>2016-12-30T12:40:24.008Z</time>
      </trkpt>
      <trkpt lat="45.04859" lon="2.98346">
        <ele>1070</ele>
        <time>2016-12-30T12:40:25.008Z</time>
      </trkpt>
      <trkpt lat="45.04859" lon="2.98339">
        <ele>1070</ele>
        <time>2016-12-30T12:40:26.008Z</time>
      </trkpt>
      <trkpt lat="45.04859" lon="2.98332">
        <ele>1070</ele>
        <time>2016-12-30T12:40:27.008Z</time>
      </trkpt>
      <trkpt lat="45.04859" lon="2.98325">
        <ele>1070</ele>
        <time>2016-12-30T12:40:28.008Z</time>
      </trkpt>
      <trkpt lat="45.04859" lon="2.98312">
        <ele>1070.8679952897</ele>
        <time>2016-12-30T12:40:30.008Z</time>
      </trkpt>
      <trkpt lat="45.0486" lon="2.98298">
        <ele>1071</ele>
        <time>2016-12-30T12:40:32.008Z</time>
      </trkpt>
      <trkpt lat="45.0486" lon="2.98292">
        <ele>1071</ele>
        <time>2016-12-30T12:40:33.008Z</time>
      </trkpt>
      <trkpt lat="45.0486" lon="2.98285">
        <ele>1071</ele>
        <time>2016-12-30T12:40:34.008Z</time>
      </trkpt>
      <trkpt lat="45.0486" lon="2.98278">
        <ele>1071</ele>
        <time>2016-12-30T12:40:35.008Z</time>
      </trkpt>
      <trkpt lat="45.0486" lon="2.98272">
        <ele>1071</ele>
        <time>2016-12-30T12:40:36.008Z</time>
      </trkpt>
      <trkpt lat="45.04861" lon="2.98265">
        <ele>1071</ele>
        <time>2016-12-30T12:40:37.008Z</time>
      </trkpt>
      <trkpt lat="45.04861" lon="2.98258">
        <ele>1071</ele>
        <time>2016-12-30T12:40:38.008Z</time>
      </trkpt>
      <trkpt lat="45.04861" lon="2.98251">
        <ele>1071</ele>
        <time>2016-12-30T12:40:39.008Z</time>
      </trkpt>
      <trkpt lat="45.04861" lon="2.98244">
        <ele>1071</ele>
        <time>2016-12-30T12:40:40.008Z</time>
      </trkpt>
      <trkpt lat="45.04861" lon="2.98237">
        <ele>1071</ele>
        <time>2016-12-30T12:40:41.008Z</time>
      </trkpt>
      <trkpt lat="45.04861" lon="2.9823">
        <ele>1071</ele>
        <time>2016-12-30T12:40:42.008Z</time>
      </trkpt>
      <trkpt lat="45.04861" lon="2.98223">
        <ele>1071</ele>
        <time>2016-12-30T12:40:43.008Z</time>
      </trkpt>
      <trkpt lat="45.04861" lon="2.9821">
        <ele>1071</ele>
        <time>2016-12-30T12:40:45.008Z</time>
      </trkpt>
      <trkpt lat="45.04861" lon="2.98202">
        <ele>1071</ele>
        <time>2016-12-30T12:40:46.008Z</time>
      </trkpt>
      <trkpt lat="45.04861" lon="2.98195">
        <ele>1071</ele>
        <time>2016-12-30T12:40:47.008Z</time>
      </trkpt>
      <trkpt lat="45.04861" lon="2.98188">
        <ele>1071</ele>
        <time>2016-12-30T12:40:48.008Z</time>
      </trkpt>
      <trkpt lat="45.04861" lon="2.9818">
        <ele>1071</ele>
        <time>2016-12-30T12:40:49.008Z</time>
      </trkpt>
      <trkpt lat="45.04861" lon="2.98173">
        <ele>1072.7188082173</ele>
        <time>2016-12-30T12:40:50.008Z</time>
      </trkpt>
      <trkpt lat="45.04861" lon="2.98165">
        <ele>1073</ele>
        <time>2016-12-30T12:40:51.008Z</time>
      </trkpt>
      <trkpt lat="45.0486" lon="2.9815">
        <ele>1073</ele>
        <time>2016-12-30T12:40:53.008Z</time>
      </trkpt>
      <trkpt lat="45.0486" lon="2.98142">
        <ele>1073</ele>
        <time>2016-12-30T12:40:54.008Z</time>
      </trkpt>
      <trkpt lat="45.04859" lon="2.98134">
        <ele>1073</ele>
        <time>2016-12-30T12:40:55.008Z</time>
      </trkpt>
      <trkpt lat="45.04859" lon="2.98126">
        <ele>1073</ele>
        <time>2016-12-30T12:40:56.008Z</time>
      </trkpt>
      <trkpt lat="45.04859" lon="2.98119">
        <ele>1073</ele>
        <time>2016-12-30T12:40:57.008Z</time>
      </trkpt>
      <trkpt lat="45.0486" lon="2.98111">
        <ele>1073</ele>
        <time>2016-12-30T12:40:58.008Z</time>
      </trkpt>
      <trkpt lat="45.0486" lon="2.98103">
        <ele>1073</ele>
        <time>2016-12-30T12:40:59.008Z</time>
      </trkpt>
      <trkpt lat="45.0486" lon="2.98095">
        <ele>1072.1320047103</ele>
        <time>2016-12-30T12:41:00.008Z</time>
      </trkpt>
      <trkpt lat="45.0486" lon="2.98088">
        <ele>1072</ele>
        <time>2016-12-30T12:41:01.008Z</time>
      </trkpt>
      <trkpt lat="45.0486" lon="2.9808">
        <ele>1072</ele>
        <time>2016-12-30T12:41:02.008Z</time>
      </trkpt>
      <trkpt lat="45.0486" lon="2.98072">
        <ele>1072</ele>
        <time>2016-12-30T12:41:03.008Z</time>
      </trkpt>
      <trkpt lat="45.04861" lon="2.98065">
        <ele>1072</ele>
        <time>2016-12-30T12:41:04.008Z</time>
      </trkpt>
      <trkpt lat="45.04861" lon="2.98057">
        <ele>1072</ele>
        <time>2016-12-30T12:41:05.008Z</time>
      </trkpt>
      <trkpt lat="45.0486" lon="2.9805">
        <ele>1072</ele>
        <time>2016-12-30T12:41:06.008Z</time>
      </trkpt>
      <trkpt lat="45.0486" lon="2.98042">
        <ele>1072</ele>
        <time>2016-12-30T12:41:07.008Z</time>
      </trkpt>
      <trkpt lat="45.0486" lon="2.98035">
        <ele>1072</ele>
        <time>2016-12-30T12:41:08.008Z</time>
      </trkpt>
      <trkpt lat="45.04859" lon="2.98027">
        <ele>1072</ele>
        <time>2016-12-30T12:41:09.008Z</time>
      </trkpt>
      <trkpt lat="45.04859" lon="2.98019">
        <ele>1072</ele>
        <time>2016-12-30T12:41:10.008Z</time>
      </trkpt>
      <trkpt lat="45.04859" lon="2.98012">
        <ele>1072</ele>
        <time>2016-12-30T12:41:11.008Z</time>
      </trkpt>
      <trkpt lat="45.04858" lon="2.98004">
        <ele>1072</ele>
        <time>2016-12-30T12:41:12.008Z</time>
      </trkpt>
      <trkpt lat="45.04858" lon="2.97997">
        <ele>1072</ele>
        <time>2016-12-30T12:41:13.008Z</time>
      </trkpt>
      <trkpt lat="45.04857" lon="2.97989">
        <ele>1072</ele>
        <time>2016-12-30T12:41:14.008Z</time>
      </trkpt>
      <trkpt lat="45.04857" lon="2.97982">
        <ele>1072</ele>
        <time>2016-12-30T12:41:15.008Z</time>
      </trkpt>
      <trkpt lat="45.04857" lon="2.97974">
        <ele>1072</ele>
        <time>2016-12-30T12:41:16.008Z</time>
      </trkpt>
      <trkpt lat="45.04856" lon="2.97967">
        <ele>1072</ele>
        <time>2016-12-30T12:41:17.008Z</time>
      </trkpt>
      <trkpt lat="45.04856" lon="2.97959">
        <ele>1072</ele>
        <time>2016-12-30T12:41:18.008Z</time>
      </trkpt>
      <trkpt lat="45.04856" lon="2.97951">
        <ele>1072</ele>
        <time>2016-12-30T12:41:19.008Z</time>
      </trkpt>
      <trkpt lat="45.04855" lon="2.97943">
        <ele>1072.8594041086</ele>
        <time>2016-12-30T12:41:20.008Z</time>
      </trkpt>
      <trkpt lat="45.04855" lon="2.97935">
        <ele>1073</ele>
        <time>2016-12-30T12:41:21.008Z</time>
      </trkpt>
      <trkpt lat="45.04854" lon="2.97927">
        <ele>1073</ele>
        <time>2016-12-30T12:41:22.008Z</time>
      </trkpt>
      <trkpt lat="45.04854" lon="2.97919">
        <ele>1073</ele>
        <time>2016-12-30T12:41:23.008Z</time>
      </trkpt>
      <trkpt lat="45.04853" lon="2.97911">
        <ele>1073</ele>
        <time>2016-12-30T12:41:24.008Z</time>
      </trkpt>
      <trkpt lat="45.04853" lon="2.97903">
        <ele>1073</ele>
        <time>2016-12-30T12:41:25.008Z</time>
      </trkpt>
      <trkpt lat="45.04853" lon="2.97896">
        <ele>1073</ele>
        <time>2016-12-30T12:41:26.008Z</time>
      </trkpt>
      <trkpt lat="45.04852" lon="2.97888">
        <ele>1073</ele>
        <time>2016-12-30T12:41:27.008Z</time>
      </trkpt>
      <trkpt lat="45.04852" lon="2.9788">
        <ele>1073</ele>
        <time>2016-12-30T12:41:28.008Z</time>
      </trkpt>
      <trkpt lat="45.04851" lon="2.97872">
        <ele>1073</ele>
        <time>2016-12-30T12:41:29.008Z</time>
      </trkpt>
      <trkpt lat="45.04851" lon="2.97864">
        <ele>1073</ele>
        <time>2016-12-30T12:41:30.008Z</time>
      </trkpt>
      <trkpt lat="45.0485" lon="2.97857">
        <ele>1073</ele>
        <time>2016-12-30T12:41:31.008Z</time>
      </trkpt>
      <trkpt lat="45.04849" lon="2.97849">
        <ele>1073</ele>
        <time>2016-12-30T12:41:32.008Z</time>
      </trkpt>
      <trkpt lat="45.04849" lon="2.97841">
        <ele>1073</ele>
        <time>2016-12-30T12:41:33.008Z</time>
      </trkpt>
      <trkpt lat="45.04848" lon="2.97834">
        <ele>1073</ele>
        <time>2016-12-30T12:41:34.008Z</time>
      </trkpt>
      <trkpt lat="45.04848" lon="2.97826">
        <ele>1073</ele>
        <time>2016-12-30T12:41:35.008Z</time>
      </trkpt>
      <trkpt lat="45.04847" lon="2.97818">
        <ele>1073</ele>
        <time>2016-12-30T12:41:36.008Z</time>
      </trkpt>
      <trkpt lat="45.04847" lon="2.97811">
        <ele>1073</ele>
        <time>2016-12-30T12:41:37.008Z</time>
      </trkpt>
      <trkpt lat="45.04846" lon="2.97803">
        <ele>1073</ele>
        <time>2016-12-30T12:41:38.008Z</time>
      </trkpt>
      <trkpt lat="45.04846" lon="2.97795">
        <ele>1073</ele>
        <time>2016-12-30T12:41:39.008Z</time>
      </trkpt>
      <trkpt lat="45.04846" lon="2.97788">
        <ele>1073.8679952897</ele>
        <time>2016-12-30T12:41:40.008Z</time>
      </trkpt>
      <trkpt lat="45.04846" lon="2.9778">
        <ele>1074</ele>
        <time>2016-12-30T12:41:41.008Z</time>
      </trkpt>
      <trkpt lat="45.04846" lon="2.97772">
        <ele>1074</ele>
        <time>2016-12-30T12:41:42.008Z</time>
      </trkpt>
      <trkpt lat="45.04846" lon="2.97764">
        <ele>1074</ele>
        <time>2016-12-30T12:41:43.008Z</time>
      </trkpt>
      <trkpt lat="45.04846" lon="2.97756">
        <ele>1074</ele>
        <time>2016-12-30T12:41:44.008Z</time>
      </trkpt>
      <trkpt lat="45.04846" lon="2.97748">
        <ele>1074</ele>
        <time>2016-12-30T12:41:45.008Z</time>
      </trkpt>
      <trkpt lat="45.04846" lon="2.9774">
        <ele>1074</ele>
        <time>2016-12-30T12:41:46.008Z</time>
      </trkpt>
      <trkpt lat="45.04845" lon="2.97733">
        <ele>1074</ele>
        <time>2016-12-30T12:41:47.008Z</time>
      </trkpt>
      <trkpt lat="45.04845" lon="2.97725">
        <ele>1074</ele>
        <time>2016-12-30T12:41:48.008Z</time>
      </trkpt>
      <trkpt lat="45.04845" lon="2.97717">
        <ele>1074</ele>
        <time>2016-12-30T12:41:49.008Z</time>
      </trkpt>
      <trkpt lat="45.04845" lon="2.97709">
        <ele>1074</ele>
        <time>2016-12-30T12:41:50.008Z</time>
      </trkpt>
      <trkpt lat="45.04845" lon="2.97702">
        <ele>1074</ele>
        <time>2016-12-30T12:41:51.008Z</time>
      </trkpt>
      <trkpt lat="45.04845" lon="2.97694">
        <ele>1074</ele>
        <time>2016-12-30T12:41:52.008Z</time>
      </trkpt>
      <trkpt lat="45.04845" lon="2.97687">
        <ele>1074</ele>
        <time>2016-12-30T12:41:53.008Z</time>
      </trkpt>
      <trkpt lat="45.04845" lon="2.97679">
        <ele>1074</ele>
        <time>2016-12-30T12:41:54.008Z</time>
      </trkpt>
      <trkpt lat="45.04845" lon="2.97672">
        <ele>1074</ele>
        <time>2016-12-30T12:41:55.008Z</time>
      </trkpt>
      <trkpt lat="45.04845" lon="2.97664">
        <ele>1074</ele>
        <time>2016-12-30T12:41:56.008Z</time>
      </trkpt>
      <trkpt lat="45.04845" lon="2.97656">
        <ele>1074</ele>
        <time>2016-12-30T12:41:57.008Z</time>
      </trkpt>
      <trkpt lat="45.04845" lon="2.97649">
        <ele>1074</ele>
        <time>2016-12-30T12:41:58.008Z</time>
      </trkpt>
      <trkpt lat="45.04845" lon="2.97641">
        <ele>1074</ele>
        <time>2016-12-30T12:41:59.008Z</time>
      </trkpt>
      <trkpt lat="45.04845" lon="2.97634">
        <ele>1074</ele>
        <time>2016-12-30T12:42:00.008Z</time>
      </trkpt>
      <trkpt lat="45.04845" lon="2.97626">
        <ele>1074</ele>
        <time>2016-12-30T12:42:01.008Z</time>
      </trkpt>
      <trkpt lat="45.04845" lon="2.97619">
        <ele>1074</ele>
        <time>2016-12-30T12:42:02.008Z</time>
      </trkpt>
      <trkpt lat="45.04845" lon="2.97612">
        <ele>1074</ele>
        <time>2016-12-30T12:42:03.008Z</time>
      </trkpt>
      <trkpt lat="45.04845" lon="2.97605">
        <ele>1074</ele>
        <time>2016-12-30T12:42:04.008Z</time>
      </trkpt>
      <trkpt lat="45.04845" lon="2.97598">
        <ele>1074</ele>
        <time>2016-12-30T12:42:05.008Z</time>
      </trkpt>
      <trkpt lat="45.04845" lon="2.97591">
        <ele>1074</ele>
        <time>2016-12-30T12:42:06.008Z</time>
      </trkpt>
      <trkpt lat="45.04845" lon="2.97584">
        <ele>1074</ele>
        <time>2016-12-30T12:42:07.008Z</time>
      </trkpt>
      <trkpt lat="45.04845" lon="2.97577">
        <ele>1074</ele>
        <time>2016-12-30T12:42:08.008Z</time>
      </trkpt>
      <trkpt lat="45.04846" lon="2.97571">
        <ele>1074</ele>
        <time>2016-12-30T12:42:09.008Z</time>
      </trkpt>
      <trkpt lat="45.04847" lon="2.97565">
        <ele>1074.8679952897</ele>
        <time>2016-12-30T12:42:10.008Z</time>
      </trkpt>
      <trkpt lat="45.04849" lon="2.97552">
        <ele>1075</ele>
        <time>2016-12-30T12:42:12.008Z</time>
      </trkpt>
      <trkpt lat="45.04851" lon="2.9754">
        <ele>1075</ele>
        <time>2016-12-30T12:42:14.008Z</time>
      </trkpt>
      <trkpt lat="45.04853" lon="2.97527">
        <ele>1075</ele>
        <time>2016-12-30T12:42:16.008Z</time>
      </trkpt>
      <trkpt lat="45.04855" lon="2.97515">
        <ele>1075</ele>
        <time>2016-12-30T12:42:18.008Z</time>
      </trkpt>
      <trkpt lat="45.04857" lon="2.97503">
        <ele>1075.8594041086</ele>
        <time>2016-12-30T12:42:20.008Z</time>
      </trkpt>
      <trkpt lat="45.04858" lon="2.97497">
        <ele>1076</ele>
        <time>2016-12-30T12:42:21.008Z</time>
      </trkpt>
      <trkpt lat="45.04859" lon="2.9749">
        <ele>1076</ele>
        <time>2016-12-30T12:42:22.008Z</time>
      </trkpt>
      <trkpt lat="45.0486" lon="2.97484">
        <ele>1076</ele>
        <time>2016-12-30T12:42:23.008Z</time>
      </trkpt>
      <trkpt lat="45.04862" lon="2.97478">
        <ele>1076</ele>
        <time>2016-12-30T12:42:24.008Z</time>
      </trkpt>
      <trkpt lat="45.04865" lon="2.97465">
        <ele>1076</ele>
        <time>2016-12-30T12:42:26.008Z</time>
      </trkpt>
      <trkpt lat="45.04867" lon="2.97459">
        <ele>1076</ele>
        <time>2016-12-30T12:42:27.008Z</time>
      </trkpt>
      <trkpt lat="45.04869" lon="2.97453">
        <ele>1076</ele>
        <time>2016-12-30T12:42:28.008Z</time>
      </trkpt>
      <trkpt lat="45.04871" lon="2.97446">
        <ele>1076</ele>
        <time>2016-12-30T12:42:29.008Z</time>
      </trkpt>
      <trkpt lat="45.04872" lon="2.9744">
        <ele>1076</ele>
        <time>2016-12-30T12:42:30.008Z</time>
      </trkpt>
      <trkpt lat="45.04874" lon="2.97433">
        <ele>1076</ele>
        <time>2016-12-30T12:42:31.008Z</time>
      </trkpt>
      <trkpt lat="45.04876" lon="2.97426">
        <ele>1076</ele>
        <time>2016-12-30T12:42:32.008Z</time>
      </trkpt>
      <trkpt lat="45.04877" lon="2.9742">
        <ele>1076</ele>
        <time>2016-12-30T12:42:33.008Z</time>
      </trkpt>
      <trkpt lat="45.04879" lon="2.97414">
        <ele>1076</ele>
        <time>2016-12-30T12:42:34.008Z</time>
      </trkpt>
      <trkpt lat="45.04881" lon="2.97407">
        <ele>1076</ele>
        <time>2016-12-30T12:42:35.008Z</time>
      </trkpt>
      <trkpt lat="45.04882" lon="2.97401">
        <ele>1076</ele>
        <time>2016-12-30T12:42:36.008Z</time>
      </trkpt>
      <trkpt lat="45.04884" lon="2.97395">
        <ele>1076</ele>
        <time>2016-12-30T12:42:37.008Z</time>
      </trkpt>
      <trkpt lat="45.04885" lon="2.97388">
        <ele>1076</ele>
        <time>2016-12-30T12:42:38.008Z</time>
      </trkpt>
      <trkpt lat="45.04887" lon="2.97381">
        <ele>1076</ele>
        <time>2016-12-30T12:42:39.008Z</time>
      </trkpt>
      <trkpt lat="45.04888" lon="2.97375">
        <ele>1076</ele>
        <time>2016-12-30T12:42:40.008Z</time>
      </trkpt>
      <trkpt lat="45.0489" lon="2.97368">
        <ele>1076</ele>
        <time>2016-12-30T12:42:41.008Z</time>
      </trkpt>
      <trkpt lat="45.04892" lon="2.97362">
        <ele>1076</ele>
        <time>2016-12-30T12:42:42.008Z</time>
      </trkpt>
      <trkpt lat="45.04893" lon="2.97355">
        <ele>1076</ele>
        <time>2016-12-30T12:42:43.008Z</time>
      </trkpt>
      <trkpt lat="45.04895" lon="2.97349">
        <ele>1076</ele>
        <time>2016-12-30T12:42:44.008Z</time>
      </trkpt>
      <trkpt lat="45.04896" lon="2.97342">
        <ele>1076</ele>
        <time>2016-12-30T12:42:45.008Z</time>
      </trkpt>
      <trkpt lat="45.04899" lon="2.97329">
        <ele>1076</ele>
        <time>2016-12-30T12:42:47.008Z</time>
      </trkpt>
      <trkpt lat="45.04902" lon="2.97317">
        <ele>1076</ele>
        <time>2016-12-30T12:42:49.008Z</time>
      </trkpt>
      <trkpt lat="45.04906" lon="2.97305">
        <ele>1077</ele>
        <time>2016-12-30T12:42:51.008Z</time>
      </trkpt>
      <trkpt lat="45.04909" lon="2.97293">
        <ele>1077</ele>
        <time>2016-12-30T12:42:53.008Z</time>
      </trkpt>
      <trkpt lat="45.04912" lon="2.97281">
        <ele>1077</ele>
        <time>2016-12-30T12:42:55.008Z</time>
      </trkpt>
      <trkpt lat="45.04915" lon="2.97269">
        <ele>1077</ele>
        <time>2016-12-30T12:42:57.008Z</time>
      </trkpt>
      <trkpt lat="45.04918" lon="2.97257">
        <ele>1077</ele>
        <time>2016-12-30T12:42:59.008Z</time>
      </trkpt>
      <trkpt lat="45.04921" lon="2.97245">
        <ele>1079</ele>
        <time>2016-12-30T12:43:01.008Z</time>
      </trkpt>
      <trkpt lat="45.04924" lon="2.97234">
        <ele>1079</ele>
        <time>2016-12-30T12:43:03.008Z</time>
      </trkpt>
      <trkpt lat="45.04927" lon="2.97221">
        <ele>1079</ele>
        <time>2016-12-30T12:43:05.008Z</time>
      </trkpt>
      <trkpt lat="45.0493" lon="2.97209">
        <ele>1079</ele>
        <time>2016-12-30T12:43:07.008Z</time>
      </trkpt>
      <trkpt lat="45.04932" lon="2.97203">
        <ele>1079</ele>
        <time>2016-12-30T12:43:08.008Z</time>
      </trkpt>
      <trkpt lat="45.04933" lon="2.97197">
        <ele>1079</ele>
        <time>2016-12-30T12:43:09.008Z</time>
      </trkpt>
      <trkpt lat="45.04937" lon="2.97185">
        <ele>1079</ele>
        <time>2016-12-30T12:43:11.008Z</time>
      </trkpt>
      <trkpt lat="45.04942" lon="2.97173">
        <ele>1079</ele>
        <time>2016-12-30T12:43:13.008Z</time>
      </trkpt>
      <trkpt lat="45.04946" lon="2.97162">
        <ele>1079</ele>
        <time>2016-12-30T12:43:15.008Z</time>
      </trkpt>
      <trkpt lat="45.04948" lon="2.97156">
        <ele>1079</ele>
        <time>2016-12-30T12:43:16.008Z</time>
      </trkpt>
      <trkpt lat="45.0495" lon="2.9715">
        <ele>1079</ele>
        <time>2016-12-30T12:43:17.008Z</time>
      </trkpt>
      <trkpt lat="45.04952" lon="2.97145">
        <ele>1079</ele>
        <time>2016-12-30T12:43:18.008Z</time>
      </trkpt>
      <trkpt lat="45.04954" lon="2.97139">
        <ele>1079</ele>
        <time>2016-12-30T12:43:19.008Z</time>
      </trkpt>
      <trkpt lat="45.04958" lon="2.97128">
        <ele>1079</ele>
        <time>2016-12-30T12:43:21.008Z</time>
      </trkpt>
      <trkpt lat="45.04963" lon="2.97117">
        <ele>1079</ele>
        <time>2016-12-30T12:43:23.008Z</time>
      </trkpt>
      <trkpt lat="45.04967" lon="2.97108">
        <ele>1079</ele>
        <time>2016-12-30T12:43:25.008Z</time>
      </trkpt>
      <trkpt lat="45.04972" lon="2.97098">
        <ele>1079</ele>
        <time>2016-12-30T12:43:27.008Z</time>
      </trkpt>
      <trkpt lat="45.04977" lon="2.97089">
        <ele>1079</ele>
        <time>2016-12-30T12:43:29.008Z</time>
      </trkpt>
      <trkpt lat="45.04981" lon="2.97079">
        <ele>1079</ele>
        <time>2016-12-30T12:43:31.008Z</time>
      </trkpt>
      <trkpt lat="45.04985" lon="2.9707">
        <ele>1079</ele>
        <time>2016-12-30T12:43:33.008Z</time>
      </trkpt>
      <trkpt lat="45.04988" lon="2.9706">
        <ele>1079</ele>
        <time>2016-12-30T12:43:35.008Z</time>
      </trkpt>
      <trkpt lat="45.04991" lon="2.97049">
        <ele>1079</ele>
        <time>2016-12-30T12:43:37.008Z</time>
      </trkpt>
      <trkpt lat="45.04995" lon="2.9704">
        <ele>1079</ele>
        <time>2016-12-30T12:43:39.008Z</time>
      </trkpt>
      <trkpt lat="45.04999" lon="2.97031">
        <ele>1079</ele>
        <time>2016-12-30T12:43:41.008Z</time>
      </trkpt>
      <trkpt lat="45.05003" lon="2.97022">
        <ele>1079</ele>
        <time>2016-12-30T12:43:43.008Z</time>
      </trkpt>
      <trkpt lat="45.05007" lon="2.97014">
        <ele>1079</ele>
        <time>2016-12-30T12:43:45.008Z</time>
      </trkpt>
      <trkpt lat="45.05011" lon="2.97005">
        <ele>1079</ele>
        <time>2016-12-30T12:43:47.008Z</time>
      </trkpt>
      <trkpt lat="45.05015" lon="2.96997">
        <ele>1079</ele>
        <time>2016-12-30T12:43:49.008Z</time>
      </trkpt>
      <trkpt lat="45.05018" lon="2.96988">
        <ele>1078</ele>
        <time>2016-12-30T12:43:51.008Z</time>
      </trkpt>
      <trkpt lat="45.05023" lon="2.96979">
        <ele>1078</ele>
        <time>2016-12-30T12:43:53.008Z</time>
      </trkpt>
      <trkpt lat="45.05027" lon="2.96971">
        <ele>1078</ele>
        <time>2016-12-30T12:43:55.008Z</time>
      </trkpt>
      <trkpt lat="45.05031" lon="2.96962">
        <ele>1078</ele>
        <time>2016-12-30T12:43:57.008Z</time>
      </trkpt>
      <trkpt lat="45.05036" lon="2.96953">
        <ele>1078</ele>
        <time>2016-12-30T12:43:59.008Z</time>
      </trkpt>
      <trkpt lat="45.0504" lon="2.96944">
        <ele>1078</ele>
        <time>2016-12-30T12:44:01.008Z</time>
      </trkpt>
      <trkpt lat="45.05045" lon="2.96936">
        <ele>1078</ele>
        <time>2016-12-30T12:44:03.008Z</time>
      </trkpt>
      <trkpt lat="45.0505" lon="2.96929">
        <ele>1078</ele>
        <time>2016-12-30T12:44:05.008Z</time>
      </trkpt>
      <trkpt lat="45.05056" lon="2.96923">
        <ele>1078</ele>
        <time>2016-12-30T12:44:07.008Z</time>
      </trkpt>
      <trkpt lat="45.05063" lon="2.96918">
        <ele>1078</ele>
        <time>2016-12-30T12:44:09.008Z</time>
      </trkpt>
      <trkpt lat="45.0507" lon="2.96914">
        <ele>1078</ele>
        <time>2016-12-30T12:44:11.008Z</time>
      </trkpt>
      <trkpt lat="45.05077" lon="2.96909">
        <ele>1078</ele>
        <time>2016-12-30T12:44:13.008Z</time>
      </trkpt>
      <trkpt lat="45.05084" lon="2.96906">
        <ele>1078</ele>
        <time>2016-12-30T12:44:15.008Z</time>
      </trkpt>
      <trkpt lat="45.05091" lon="2.96902">
        <ele>1078</ele>
        <time>2016-12-30T12:44:17.008Z</time>
      </trkpt>
      <trkpt lat="45.05097" lon="2.96897">
        <ele>1077</ele>
        <time>2016-12-30T12:44:41.008Z</time>
      </trkpt>
      <trkpt lat="45.05104" lon="2.96889">
        <ele>1077</ele>
        <time>2016-12-30T12:44:44.008Z</time>
      </trkpt>
      <trkpt lat="45.05108" lon="2.96883">
        <ele>1077</ele>
        <time>2016-12-30T12:44:46.008Z</time>
      </trkpt>
      <trkpt lat="45.05113" lon="2.96875">
        <ele>1077</ele>
        <time>2016-12-30T12:44:49.008Z</time>
      </trkpt>
      <trkpt lat="45.05118" lon="2.9687">
        <ele>1077</ele>
        <time>2016-12-30T12:44:51.008Z</time>
      </trkpt>
      <trkpt lat="45.05124" lon="2.96864">
        <ele>1077</ele>
        <time>2016-12-30T12:44:53.008Z</time>
      </trkpt>
      <trkpt lat="45.05129" lon="2.96858">
        <ele>1077</ele>
        <time>2016-12-30T12:44:55.008Z</time>
      </trkpt>
      <trkpt lat="45.05133" lon="2.96852">
        <ele>1077</ele>
        <time>2016-12-30T12:44:57.008Z</time>
      </trkpt>
      <trkpt lat="45.05139" lon="2.96846">
        <ele>1077</ele>
        <time>2016-12-30T12:45:00.008Z</time>
      </trkpt>
      <trkpt lat="45.05143" lon="2.96839">
        <ele>1077</ele>
        <time>2016-12-30T12:45:04.008Z</time>
      </trkpt>
      <trkpt lat="45.05148" lon="2.96833">
        <ele>1077</ele>
        <time>2016-12-30T12:45:06.008Z</time>
      </trkpt>
      <trkpt lat="45.05155" lon="2.96824">
        <ele>1077</ele>
        <time>2016-12-30T12:45:08.008Z</time>
      </trkpt>
      <trkpt lat="45.05162" lon="2.96816">
        <ele>1077</ele>
        <time>2016-12-30T12:45:10.008Z</time>
      </trkpt>
      <trkpt lat="45.05167" lon="2.96808">
        <ele>1077</ele>
        <time>2016-12-30T12:45:12.008Z</time>
      </trkpt>
      <trkpt lat="45.05172" lon="2.968">
        <ele>1077</ele>
        <time>2016-12-30T12:45:14.008Z</time>
      </trkpt>
      <trkpt lat="45.05178" lon="2.96793">
        <ele>1077</ele>
        <time>2016-12-30T12:45:16.008Z</time>
      </trkpt>
      <trkpt lat="45.05183" lon="2.96786">
        <ele>1077</ele>
        <time>2016-12-30T12:45:18.008Z</time>
      </trkpt>
      <trkpt lat="45.05188" lon="2.9678">
        <ele>1077</ele>
        <time>2016-12-30T12:45:20.008Z</time>
      </trkpt>
      <trkpt lat="45.05193" lon="2.96773">
        <ele>1077</ele>
        <time>2016-12-30T12:45:22.008Z</time>
      </trkpt>
      <trkpt lat="45.05198" lon="2.96765">
        <ele>1077</ele>
        <time>2016-12-30T12:45:24.008Z</time>
      </trkpt>
      <trkpt lat="45.05202" lon="2.96758">
        <ele>1077</ele>
        <time>2016-12-30T12:45:26.008Z</time>
      </trkpt>
      <trkpt lat="45.05206" lon="2.96751">
        <ele>1077</ele>
        <time>2016-12-30T12:45:28.008Z</time>
      </trkpt>
      <trkpt lat="45.0521" lon="2.96743">
        <ele>1077</ele>
        <time>2016-12-30T12:45:30.008Z</time>
      </trkpt>
      <trkpt lat="45.05213" lon="2.96735">
        <ele>1077</ele>
        <time>2016-12-30T12:45:32.008Z</time>
      </trkpt>
      <trkpt lat="45.05216" lon="2.96727">
        <ele>1077</ele>
        <time>2016-12-30T12:45:34.008Z</time>
      </trkpt>
      <trkpt lat="45.05217" lon="2.9672">
        <ele>1077</ele>
        <time>2016-12-30T12:45:37.008Z</time>
      </trkpt>
      <trkpt lat="45.05219" lon="2.9671">
        <ele>1076</ele>
        <time>2016-12-30T12:45:41.008Z</time>
      </trkpt>
      <trkpt lat="45.05223" lon="2.96701">
        <ele>1076</ele>
        <time>2016-12-30T12:45:44.008Z</time>
      </trkpt>
      <trkpt lat="45.05224" lon="2.96691">
        <ele>1076</ele>
        <time>2016-12-30T12:45:47.008Z</time>
      </trkpt>
      <trkpt lat="45.05227" lon="2.96681">
        <ele>1076.8679952897</ele>
        <time>2016-12-30T12:45:50.008Z</time>
      </trkpt>
      <trkpt lat="45.05228" lon="2.96673">
        <ele>1077</ele>
        <time>2016-12-30T12:45:52.008Z</time>
      </trkpt>
      <trkpt lat="45.05228" lon="2.96665">
        <ele>1077</ele>
        <time>2016-12-30T12:45:54.008Z</time>
      </trkpt>
      <trkpt lat="45.05231" lon="2.96654">
        <ele>1077</ele>
        <time>2016-12-30T12:45:57.008Z</time>
      </trkpt>
      <trkpt lat="45.05232" lon="2.96647">
        <ele>1077</ele>
        <time>2016-12-30T12:45:59.008Z</time>
      </trkpt>
      <trkpt lat="45.05233" lon="2.96639">
        <ele>1078</ele>
        <time>2016-12-30T12:46:01.008Z</time>
      </trkpt>
      <trkpt lat="45.05235" lon="2.96628">
        <ele>1078</ele>
        <time>2016-12-30T12:46:04.008Z</time>
      </trkpt>
      <trkpt lat="45.05235" lon="2.9662">
        <ele>1078</ele>
        <time>2016-12-30T12:46:06.008Z</time>
      </trkpt>
      <trkpt lat="45.05237" lon="2.96608">
        <ele>1078</ele>
        <time>2016-12-30T12:46:09.008Z</time>
      </trkpt>
      <trkpt lat="45.0524" lon="2.96596">
        <ele>1079</ele>
        <time>2016-12-30T12:46:12.008Z</time>
      </trkpt>
      <trkpt lat="45.05242" lon="2.96588">
        <ele>1079</ele>
        <time>2016-12-30T12:46:14.008Z</time>
      </trkpt>
      <trkpt lat="45.05245" lon="2.9658">
        <ele>1079</ele>
        <time>2016-12-30T12:46:16.008Z</time>
      </trkpt>
      <trkpt lat="45.05248" lon="2.96573">
        <ele>1079</ele>
        <time>2016-12-30T12:46:18.008Z</time>
      </trkpt>
      <trkpt lat="45.05253" lon="2.96567">
        <ele>1080.7359905793</ele>
        <time>2016-12-30T12:46:20.008Z</time>
      </trkpt>
      <trkpt lat="45.05255" lon="2.96564">
        <ele>1081</ele>
        <time>2016-12-30T12:46:21.008Z</time>
      </trkpt>
      <trkpt lat="45.05257" lon="2.96561">
        <ele>1081</ele>
        <time>2016-12-30T12:46:22.008Z</time>
      </trkpt>
      <trkpt lat="45.05259" lon="2.96558">
        <ele>1081</ele>
        <time>2016-12-30T12:46:23.008Z</time>
      </trkpt>
      <trkpt lat="45.05264" lon="2.96552">
        <ele>1081</ele>
        <time>2016-12-30T12:46:25.008Z</time>
      </trkpt>
      <trkpt lat="45.05268" lon="2.96547">
        <ele>1081</ele>
        <time>2016-12-30T12:46:27.008Z</time>
      </trkpt>
      <trkpt lat="45.05271" lon="2.96541">
        <ele>1081</ele>
        <time>2016-12-30T12:46:29.008Z</time>
      </trkpt>
      <trkpt lat="45.05273" lon="2.96538">
        <ele>1081.8679952897</ele>
        <time>2016-12-30T12:46:30.008Z</time>
      </trkpt>
      <trkpt lat="45.05275" lon="2.96535">
        <ele>1082</ele>
        <time>2016-12-30T12:46:31.008Z</time>
      </trkpt>
      <trkpt lat="45.05277" lon="2.96532">
        <ele>1082</ele>
        <time>2016-12-30T12:46:32.008Z</time>
      </trkpt>
      <trkpt lat="45.05278" lon="2.96529">
        <ele>1082</ele>
        <time>2016-12-30T12:46:33.008Z</time>
      </trkpt>
      <trkpt lat="45.0528" lon="2.96527">
        <ele>1082</ele>
        <time>2016-12-30T12:46:34.008Z</time>
      </trkpt>
      <trkpt lat="45.05282" lon="2.96524">
        <ele>1082</ele>
        <time>2016-12-30T12:46:35.008Z</time>
      </trkpt>
      <trkpt lat="45.05283" lon="2.96521">
        <ele>1082</ele>
        <time>2016-12-30T12:46:36.008Z</time>
      </trkpt>
      <trkpt lat="45.05285" lon="2.96518">
        <ele>1082</ele>
        <time>2016-12-30T12:46:37.008Z</time>
      </trkpt>
      <trkpt lat="45.05286" lon="2.96515">
        <ele>1082</ele>
        <time>2016-12-30T12:46:38.008Z</time>
      </trkpt>
      <trkpt lat="45.05288" lon="2.96512">
        <ele>1082</ele>
        <time>2016-12-30T12:46:39.008Z</time>
      </trkpt>
      <trkpt lat="45.0529" lon="2.96505">
        <ele>1084</ele>
        <time>2016-12-30T12:46:41.008Z</time>
      </trkpt>
      <trkpt lat="45.05292" lon="2.96499">
        <ele>1084</ele>
        <time>2016-12-30T12:46:43.008Z</time>
      </trkpt>
      <trkpt lat="45.05294" lon="2.96492">
        <ele>1084</ele>
        <time>2016-12-30T12:46:45.008Z</time>
      </trkpt>
      <trkpt lat="45.05296" lon="2.96485">
        <ele>1084</ele>
        <time>2016-12-30T12:46:47.008Z</time>
      </trkpt>
      <trkpt lat="45.05297" lon="2.96481">
        <ele>1084</ele>
        <time>2016-12-30T12:46:48.008Z</time>
      </trkpt>
      <trkpt lat="45.05298" lon="2.96478">
        <ele>1084</ele>
        <time>2016-12-30T12:46:49.008Z</time>
      </trkpt>
      <trkpt lat="45.05298" lon="2.96474">
        <ele>1085.7359905793</ele>
        <time>2016-12-30T12:46:50.008Z</time>
      </trkpt>
      <trkpt lat="45.05299" lon="2.9647">
        <ele>1086</ele>
        <time>2016-12-30T12:46:51.008Z</time>
      </trkpt>
      <trkpt lat="45.053" lon="2.96466">
        <ele>1086</ele>
        <time>2016-12-30T12:46:52.008Z</time>
      </trkpt>
      <trkpt lat="45.053" lon="2.96462">
        <ele>1086</ele>
        <time>2016-12-30T12:46:53.008Z</time>
      </trkpt>
      <trkpt lat="45.05301" lon="2.96458">
        <ele>1086</ele>
        <time>2016-12-30T12:46:54.008Z</time>
      </trkpt>
      <trkpt lat="45.05301" lon="2.96454">
        <ele>1086</ele>
        <time>2016-12-30T12:46:55.008Z</time>
      </trkpt>
      <trkpt lat="45.05302" lon="2.9645">
        <ele>1086</ele>
        <time>2016-12-30T12:46:56.008Z</time>
      </trkpt>
      <trkpt lat="45.05302" lon="2.96446">
        <ele>1086</ele>
        <time>2016-12-30T12:46:57.008Z</time>
      </trkpt>
      <trkpt lat="45.05302" lon="2.96441">
        <ele>1086</ele>
        <time>2016-12-30T12:46:58.008Z</time>
      </trkpt>
      <trkpt lat="45.05302" lon="2.96437">
        <ele>1086</ele>
        <time>2016-12-30T12:46:59.008Z</time>
      </trkpt>
      <trkpt lat="45.05302" lon="2.96433">
        <ele>1087.7359905793</ele>
        <time>2016-12-30T12:47:00.008Z</time>
      </trkpt>
      <trkpt lat="45.05303" lon="2.96429">
        <ele>1088</ele>
        <time>2016-12-30T12:47:01.008Z</time>
      </trkpt>
      <trkpt lat="45.05303" lon="2.96425">
        <ele>1088</ele>
        <time>2016-12-30T12:47:02.008Z</time>
      </trkpt>
      <trkpt lat="45.05302" lon="2.96416">
        <ele>1088</ele>
        <time>2016-12-30T12:47:04.008Z</time>
      </trkpt>
      <trkpt lat="45.05302" lon="2.96408">
        <ele>1088</ele>
        <time>2016-12-30T12:47:06.008Z</time>
      </trkpt>
      <trkpt lat="45.05301" lon="2.964">
        <ele>1088</ele>
        <time>2016-12-30T12:47:08.008Z</time>
      </trkpt>
      <trkpt lat="45.05299" lon="2.96388">
        <ele>1089</ele>
        <time>2016-12-30T12:47:11.008Z</time>
      </trkpt>
      <trkpt lat="45.05297" lon="2.9638">
        <ele>1089</ele>
        <time>2016-12-30T12:47:13.008Z</time>
      </trkpt>
      <trkpt lat="45.05295" lon="2.96372">
        <ele>1089</ele>
        <time>2016-12-30T12:47:15.008Z</time>
      </trkpt>
      <trkpt lat="45.05293" lon="2.96365">
        <ele>1089</ele>
        <time>2016-12-30T12:47:17.008Z</time>
      </trkpt>
      <trkpt lat="45.0529" lon="2.96356">
        <ele>1089</ele>
        <time>2016-12-30T12:47:19.008Z</time>
      </trkpt>
      <trkpt lat="45.05288" lon="2.96348">
        <ele>1090</ele>
        <time>2016-12-30T12:47:21.008Z</time>
      </trkpt>
      <trkpt lat="45.05285" lon="2.96339">
        <ele>1090</ele>
        <time>2016-12-30T12:47:23.008Z</time>
      </trkpt>
      <trkpt lat="45.05283" lon="2.96331">
        <ele>1090</ele>
        <time>2016-12-30T12:47:25.008Z</time>
      </trkpt>
      <trkpt lat="45.05282" lon="2.96322">
        <ele>1090</ele>
        <time>2016-12-30T12:48:50.008Z</time>
      </trkpt>
      <trkpt lat="45.05281" lon="2.96314">
        <ele>1090</ele>
        <time>2016-12-30T12:48:52.008Z</time>
      </trkpt>
      <trkpt lat="45.05279" lon="2.96305">
        <ele>1090</ele>
        <time>2016-12-30T12:48:54.008Z</time>
      </trkpt>
      <trkpt lat="45.05278" lon="2.96294">
        <ele>1090</ele>
        <time>2016-12-30T12:48:56.008Z</time>
      </trkpt>
      <trkpt lat="45.05277" lon="2.96284">
        <ele>1090</ele>
        <time>2016-12-30T12:48:58.008Z</time>
      </trkpt>
      <trkpt lat="45.05275" lon="2.96274">
        <ele>1091.7359905793</ele>
        <time>2016-12-30T12:49:00.008Z</time>
      </trkpt>
      <trkpt lat="45.05274" lon="2.96269">
        <ele>1092</ele>
        <time>2016-12-30T12:49:01.008Z</time>
      </trkpt>
      <trkpt lat="45.05273" lon="2.96258">
        <ele>1092</ele>
        <time>2016-12-30T12:49:03.008Z</time>
      </trkpt>
      <trkpt lat="45.05272" lon="2.96252">
        <ele>1092</ele>
        <time>2016-12-30T12:49:04.008Z</time>
      </trkpt>
      <trkpt lat="45.05271" lon="2.96247">
        <ele>1092</ele>
        <time>2016-12-30T12:49:05.008Z</time>
      </trkpt>
      <trkpt lat="45.0527" lon="2.9624">
        <ele>1092</ele>
        <time>2016-12-30T12:49:06.008Z</time>
      </trkpt>
      <trkpt lat="45.05269" lon="2.96234">
        <ele>1092</ele>
        <time>2016-12-30T12:49:07.008Z</time>
      </trkpt>
      <trkpt lat="45.05267" lon="2.96228">
        <ele>1092</ele>
        <time>2016-12-30T12:49:08.008Z</time>
      </trkpt>
      <trkpt lat="45.05266" lon="2.96222">
        <ele>1092</ele>
        <time>2016-12-30T12:49:09.008Z</time>
      </trkpt>
      <trkpt lat="45.05265" lon="2.96215">
        <ele>1092.8679952897</ele>
        <time>2016-12-30T12:49:10.008Z</time>
      </trkpt>
      <trkpt lat="45.05264" lon="2.96209">
        <ele>1093</ele>
        <time>2016-12-30T12:49:11.008Z</time>
      </trkpt>
      <trkpt lat="45.05263" lon="2.96203">
        <ele>1093</ele>
        <time>2016-12-30T12:49:12.008Z</time>
      </trkpt>
      <trkpt lat="45.05262" lon="2.96196">
        <ele>1093</ele>
        <time>2016-12-30T12:49:13.008Z</time>
      </trkpt>
      <trkpt lat="45.05261" lon="2.9619">
        <ele>1093</ele>
        <time>2016-12-30T12:49:14.008Z</time>
      </trkpt>
      <trkpt lat="45.0526" lon="2.96183">
        <ele>1093</ele>
        <time>2016-12-30T12:49:15.008Z</time>
      </trkpt>
      <trkpt lat="45.05259" lon="2.96177">
        <ele>1093</ele>
        <time>2016-12-30T12:49:16.008Z</time>
      </trkpt>
      <trkpt lat="45.05258" lon="2.9617">
        <ele>1093</ele>
        <time>2016-12-30T12:49:17.008Z</time>
      </trkpt>
      <trkpt lat="45.05257" lon="2.96164">
        <ele>1093</ele>
        <time>2016-12-30T12:49:18.008Z</time>
      </trkpt>
      <trkpt lat="45.05256" lon="2.96157">
        <ele>1093</ele>
        <time>2016-12-30T12:49:19.008Z</time>
      </trkpt>
      <trkpt lat="45.05255" lon="2.9615">
        <ele>1093</ele>
        <time>2016-12-30T12:49:20.008Z</time>
      </trkpt>
      <trkpt lat="45.05254" lon="2.96143">
        <ele>1093</ele>
        <time>2016-12-30T12:49:21.008Z</time>
      </trkpt>
      <trkpt lat="45.05252" lon="2.96136">
        <ele>1093</ele>
        <time>2016-12-30T12:49:22.008Z</time>
      </trkpt>
      <trkpt lat="45.05251" lon="2.96128">
        <ele>1093</ele>
        <time>2016-12-30T12:49:23.008Z</time>
      </trkpt>
      <trkpt lat="45.05249" lon="2.9612">
        <ele>1093</ele>
        <time>2016-12-30T12:49:24.008Z</time>
      </trkpt>
      <trkpt lat="45.05247" lon="2.96112">
        <ele>1093</ele>
        <time>2016-12-30T12:49:25.008Z</time>
      </trkpt>
      <trkpt lat="45.05246" lon="2.96104">
        <ele>1093</ele>
        <time>2016-12-30T12:49:26.008Z</time>
      </trkpt>
      <trkpt lat="45.05244" lon="2.96097">
        <ele>1093</ele>
        <time>2016-12-30T12:49:27.008Z</time>
      </trkpt>
      <trkpt lat="45.05242" lon="2.96088">
        <ele>1093</ele>
        <time>2016-12-30T12:49:28.008Z</time>
      </trkpt>
      <trkpt lat="45.05241" lon="2.9608">
        <ele>1093</ele>
        <time>2016-12-30T12:49:29.008Z</time>
      </trkpt>
      <trkpt lat="45.05239" lon="2.96072">
        <ele>1092.1320047103</ele>
        <time>2016-12-30T12:49:30.008Z</time>
      </trkpt>
      <trkpt lat="45.05238" lon="2.96064">
        <ele>1092</ele>
        <time>2016-12-30T12:49:31.008Z</time>
      </trkpt>
      <trkpt lat="45.05236" lon="2.96056">
        <ele>1092</ele>
        <time>2016-12-30T12:49:32.008Z</time>
      </trkpt>
      <trkpt lat="45.05235" lon="2.96047">
        <ele>1092</ele>
        <time>2016-12-30T12:49:33.008Z</time>
      </trkpt>
      <trkpt lat="45.05232" lon="2.96032">
        <ele>1092</ele>
        <time>2016-12-30T12:49:35.008Z</time>
      </trkpt>
      <trkpt lat="45.0523" lon="2.96016">
        <ele>1092</ele>
        <time>2016-12-30T12:49:37.008Z</time>
      </trkpt>
      <trkpt lat="45.05228" lon="2.95999">
        <ele>1092</ele>
        <time>2016-12-30T12:49:39.008Z</time>
      </trkpt>
      <trkpt lat="45.05226" lon="2.9599">
        <ele>1092.8679952897</ele>
        <time>2016-12-30T12:49:40.008Z</time>
      </trkpt>
      <trkpt lat="45.05225" lon="2.95981">
        <ele>1093</ele>
        <time>2016-12-30T12:49:41.008Z</time>
      </trkpt>
      <trkpt lat="45.05224" lon="2.95971">
        <ele>1093</ele>
        <time>2016-12-30T12:49:42.008Z</time>
      </trkpt>
      <trkpt lat="45.05223" lon="2.95962">
        <ele>1093</ele>
        <time>2016-12-30T12:49:43.008Z</time>
      </trkpt>
      <trkpt lat="45.05222" lon="2.95953">
        <ele>1093</ele>
        <time>2016-12-30T12:49:44.008Z</time>
      </trkpt>
      <trkpt lat="45.0522" lon="2.95944">
        <ele>1093</ele>
        <time>2016-12-30T12:49:45.008Z</time>
      </trkpt>
      <trkpt lat="45.05219" lon="2.95934">
        <ele>1093</ele>
        <time>2016-12-30T12:49:46.008Z</time>
      </trkpt>
      <trkpt lat="45.05217" lon="2.95926">
        <ele>1093</ele>
        <time>2016-12-30T12:49:47.008Z</time>
      </trkpt>
      <trkpt lat="45.05214" lon="2.95908">
        <ele>1093</ele>
        <time>2016-12-30T12:49:49.008Z</time>
      </trkpt>
      <trkpt lat="45.05211" lon="2.95892">
        <ele>1094</ele>
        <time>2016-12-30T12:49:51.008Z</time>
      </trkpt>
      <trkpt lat="45.05209" lon="2.95875">
        <ele>1094</ele>
        <time>2016-12-30T12:49:53.008Z</time>
      </trkpt>
      <trkpt lat="45.05207" lon="2.95861">
        <ele>1094</ele>
        <time>2016-12-30T12:49:55.008Z</time>
      </trkpt>
      <trkpt lat="45.05204" lon="2.95849">
        <ele>1094</ele>
        <time>2016-12-30T12:49:57.008Z</time>
      </trkpt>
      <trkpt lat="45.05202" lon="2.95838">
        <ele>1094</ele>
        <time>2016-12-30T12:49:59.008Z</time>
      </trkpt>
      <trkpt lat="45.05199" lon="2.95828">
        <ele>1095</ele>
        <time>2016-12-30T12:50:01.008Z</time>
      </trkpt>
      <trkpt lat="45.05197" lon="2.95818">
        <ele>1095</ele>
        <time>2016-12-30T12:50:03.008Z</time>
      </trkpt>
      <trkpt lat="45.05195" lon="2.95808">
        <ele>1095</ele>
        <time>2016-12-30T12:50:05.008Z</time>
      </trkpt>
      <trkpt lat="45.05192" lon="2.95799">
        <ele>1095</ele>
        <time>2016-12-30T12:50:07.008Z</time>
      </trkpt>
      <trkpt lat="45.0519" lon="2.95789">
        <ele>1095</ele>
        <time>2016-12-30T12:50:09.008Z</time>
      </trkpt>
      <trkpt lat="45.05188" lon="2.9578">
        <ele>1097</ele>
        <time>2016-12-30T12:50:11.008Z</time>
      </trkpt>
      <trkpt lat="45.05187" lon="2.95771">
        <ele>1097</ele>
        <time>2016-12-30T12:50:13.008Z</time>
      </trkpt>
      <trkpt lat="45.05185" lon="2.95762">
        <ele>1097</ele>
        <time>2016-12-30T12:50:15.008Z</time>
      </trkpt>
      <trkpt lat="45.05183" lon="2.95753">
        <ele>1097</ele>
        <time>2016-12-30T12:50:17.008Z</time>
      </trkpt>
      <trkpt lat="45.05181" lon="2.95744">
        <ele>1097</ele>
        <time>2016-12-30T12:50:19.008Z</time>
      </trkpt>
      <trkpt lat="45.05179" lon="2.95735">
        <ele>1099</ele>
        <time>2016-12-30T12:50:21.008Z</time>
      </trkpt>
      <trkpt lat="45.05177" lon="2.95726">
        <ele>1099</ele>
        <time>2016-12-30T12:50:23.008Z</time>
      </trkpt>
      <trkpt lat="45.05175" lon="2.95717">
        <ele>1099</ele>
        <time>2016-12-30T12:50:25.008Z</time>
      </trkpt>
      <trkpt lat="45.05174" lon="2.95712">
        <ele>1099</ele>
        <time>2016-12-30T12:50:26.008Z</time>
      </trkpt>
      <trkpt lat="45.05174" lon="2.95707">
        <ele>1099</ele>
        <time>2016-12-30T12:50:27.008Z</time>
      </trkpt>
      <trkpt lat="45.05173" lon="2.95702">
        <ele>1099</ele>
        <time>2016-12-30T12:50:28.008Z</time>
      </trkpt>
      <trkpt lat="45.05172" lon="2.95698">
        <ele>1099</ele>
        <time>2016-12-30T12:50:29.008Z</time>
      </trkpt>
      <trkpt lat="45.05171" lon="2.95689">
        <ele>1101</ele>
        <time>2016-12-30T12:50:31.008Z</time>
      </trkpt>
      <trkpt lat="45.05171" lon="2.9568">
        <ele>1101</ele>
        <time>2016-12-30T12:50:33.008Z</time>
      </trkpt>
      <trkpt lat="45.0517" lon="2.95671">
        <ele>1101</ele>
        <time>2016-12-30T12:50:35.008Z</time>
      </trkpt>
      <trkpt lat="45.05169" lon="2.95662">
        <ele>1101</ele>
        <time>2016-12-30T12:50:37.008Z</time>
      </trkpt>
      <trkpt lat="45.0517" lon="2.95653">
        <ele>1101</ele>
        <time>2016-12-30T12:50:39.008Z</time>
      </trkpt>
      <trkpt lat="45.0517" lon="2.95643">
        <ele>1104</ele>
        <time>2016-12-30T12:50:41.008Z</time>
      </trkpt>
      <trkpt lat="45.05171" lon="2.95634">
        <ele>1104</ele>
        <time>2016-12-30T12:50:43.008Z</time>
      </trkpt>
      <trkpt lat="45.05172" lon="2.95625">
        <ele>1105.7360094209</ele>
        <time>2016-12-30T12:50:45.008Z</time>
      </trkpt>
      <trkpt lat="45.05173" lon="2.95616">
        <ele>1106</ele>
        <time>2016-12-30T12:50:47.008Z</time>
      </trkpt>
      <trkpt lat="45.05174" lon="2.95607">
        <ele>1106</ele>
        <time>2016-12-30T12:50:49.008Z</time>
      </trkpt>
      <trkpt lat="45.05175" lon="2.95598">
        <ele>1107</ele>
        <time>2016-12-30T12:50:51.008Z</time>
      </trkpt>
      <trkpt lat="45.05176" lon="2.95593">
        <ele>1107</ele>
        <time>2016-12-30T12:50:52.008Z</time>
      </trkpt>
      <trkpt lat="45.05177" lon="2.95584">
        <ele>1107</ele>
        <time>2016-12-30T12:50:54.008Z</time>
      </trkpt>
      <trkpt lat="45.05178" lon="2.9558">
        <ele>1108.7360094209</ele>
        <time>2016-12-30T12:50:55.008Z</time>
      </trkpt>
      <trkpt lat="45.05179" lon="2.95571">
        <ele>1109</ele>
        <time>2016-12-30T12:50:57.008Z</time>
      </trkpt>
      <trkpt lat="45.0518" lon="2.95563">
        <ele>1109</ele>
        <time>2016-12-30T12:50:59.008Z</time>
      </trkpt>
      <trkpt lat="45.05182" lon="2.95555">
        <ele>1111</ele>
        <time>2016-12-30T12:51:01.008Z</time>
      </trkpt>
      <trkpt lat="45.05182" lon="2.95547">
        <ele>1111</ele>
        <time>2016-12-30T12:51:03.008Z</time>
      </trkpt>
      <trkpt lat="45.05183" lon="2.95537">
        <ele>1113</ele>
        <time>2016-12-30T12:51:06.008Z</time>
      </trkpt>
      <trkpt lat="45.05182" lon="2.95531">
        <ele>1113</ele>
        <time>2016-12-30T12:51:08.008Z</time>
      </trkpt>
      <trkpt lat="45.05181" lon="2.95526">
        <ele>1113</ele>
        <time>2016-12-30T12:51:10.008Z</time>
      </trkpt>
      <trkpt lat="45.0518" lon="2.95523">
        <ele>1113</ele>
        <time>2016-12-30T12:51:12.008Z</time>
      </trkpt>
      <trkpt lat="45.05176" lon="2.95521">
        <ele>1113</ele>
        <time>2016-12-30T12:51:58.008Z</time>
      </trkpt>
      <trkpt lat="45.05173" lon="2.95518">
        <ele>1113</ele>
        <time>2016-12-30T12:52:00.008Z</time>
      </trkpt>
      <trkpt lat="45.0517" lon="2.95514">
        <ele>1113</ele>
        <time>2016-12-30T12:52:02.008Z</time>
      </trkpt>
      <trkpt lat="45.05168" lon="2.95511">
        <ele>1113</ele>
        <time>2016-12-30T12:52:03.008Z</time>
      </trkpt>
      <trkpt lat="45.05165" lon="2.95509">
        <ele>1113</ele>
        <time>2016-12-30T12:52:04.008Z</time>
      </trkpt>
      <trkpt lat="45.05163" lon="2.95506">
        <ele>1113</ele>
        <time>2016-12-30T12:52:05.008Z</time>
      </trkpt>
      <trkpt lat="45.05161" lon="2.95503">
        <ele>1113</ele>
        <time>2016-12-30T12:52:06.008Z</time>
      </trkpt>
      <trkpt lat="45.05158" lon="2.955">
        <ele>1113</ele>
        <time>2016-12-30T12:52:07.008Z</time>
      </trkpt>
      <trkpt lat="45.05156" lon="2.95497">
        <ele>1113</ele>
        <time>2016-12-30T12:52:08.008Z</time>
      </trkpt>
      <trkpt lat="45.05153" lon="2.95495">
        <ele>1113</ele>
        <time>2016-12-30T12:52:09.008Z</time>
      </trkpt>
      <trkpt lat="45.05148" lon="2.95489">
        <ele>1114</ele>
        <time>2016-12-30T12:52:11.008Z</time>
      </trkpt>
      <trkpt lat="45.05142" lon="2.95482">
        <ele>1114</ele>
        <time>2016-12-30T12:52:13.008Z</time>
      </trkpt>
      <trkpt lat="45.05136" lon="2.95475">
        <ele>1114</ele>
        <time>2016-12-30T12:52:15.008Z</time>
      </trkpt>
      <trkpt lat="45.05133" lon="2.95472">
        <ele>1114</ele>
        <time>2016-12-30T12:52:16.008Z</time>
      </trkpt>
      <trkpt lat="45.05131" lon="2.95469">
        <ele>1114</ele>
        <time>2016-12-30T12:52:17.008Z</time>
      </trkpt>
      <trkpt lat="45.05128" lon="2.95466">
        <ele>1114</ele>
        <time>2016-12-30T12:52:18.008Z</time>
      </trkpt>
      <trkpt lat="45.05125" lon="2.95462">
        <ele>1114</ele>
        <time>2016-12-30T12:52:19.008Z</time>
      </trkpt>
      <trkpt lat="45.05122" lon="2.95459">
        <ele>1114.8679952897</ele>
        <time>2016-12-30T12:52:20.008Z</time>
      </trkpt>
      <trkpt lat="45.05119" lon="2.95456">
        <ele>1115</ele>
        <time>2016-12-30T12:52:21.008Z</time>
      </trkpt>
      <trkpt lat="45.05116" lon="2.95452">
        <ele>1115</ele>
        <time>2016-12-30T12:52:22.008Z</time>
      </trkpt>
      <trkpt lat="45.05113" lon="2.95449">
        <ele>1115</ele>
        <time>2016-12-30T12:52:23.008Z</time>
      </trkpt>
      <trkpt lat="45.0511" lon="2.95445">
        <ele>1115</ele>
        <time>2016-12-30T12:52:24.008Z</time>
      </trkpt>
      <trkpt lat="45.05107" lon="2.95442">
        <ele>1115</ele>
        <time>2016-12-30T12:52:25.008Z</time>
      </trkpt>
      <trkpt lat="45.05104" lon="2.95439">
        <ele>1115</ele>
        <time>2016-12-30T12:52:26.008Z</time>
      </trkpt>
      <trkpt lat="45.051" lon="2.95436">
        <ele>1115</ele>
        <time>2016-12-30T12:52:27.008Z</time>
      </trkpt>
      <trkpt lat="45.05097" lon="2.95433">
        <ele>1115</ele>
        <time>2016-12-30T12:52:28.008Z</time>
      </trkpt>
      <trkpt lat="45.05094" lon="2.9543">
        <ele>1115</ele>
        <time>2016-12-30T12:52:29.008Z</time>
      </trkpt>
      <trkpt lat="45.0509" lon="2.95427">
        <ele>1115</ele>
        <time>2016-12-30T12:52:30.008Z</time>
      </trkpt>
      <trkpt lat="45.05087" lon="2.95423">
        <ele>1115</ele>
        <time>2016-12-30T12:52:31.008Z</time>
      </trkpt>
      <trkpt lat="45.05084" lon="2.9542">
        <ele>1115</ele>
        <time>2016-12-30T12:52:32.008Z</time>
      </trkpt>
      <trkpt lat="45.0508" lon="2.95417">
        <ele>1115</ele>
        <time>2016-12-30T12:52:33.008Z</time>
      </trkpt>
      <trkpt lat="45.05076" lon="2.95414">
        <ele>1115</ele>
        <time>2016-12-30T12:52:34.008Z</time>
      </trkpt>
      <trkpt lat="45.05073" lon="2.95411">
        <ele>1115</ele>
        <time>2016-12-30T12:52:35.008Z</time>
      </trkpt>
      <trkpt lat="45.05069" lon="2.95408">
        <ele>1115</ele>
        <time>2016-12-30T12:52:36.008Z</time>
      </trkpt>
      <trkpt lat="45.05065" lon="2.95405">
        <ele>1115</ele>
        <time>2016-12-30T12:52:37.008Z</time>
      </trkpt>
      <trkpt lat="45.05062" lon="2.95401">
        <ele>1115</ele>
        <time>2016-12-30T12:52:38.008Z</time>
      </trkpt>
      <trkpt lat="45.05059" lon="2.95397">
        <ele>1115</ele>
        <time>2016-12-30T12:52:39.008Z</time>
      </trkpt>
      <trkpt lat="45.05056" lon="2.95393">
        <ele>1116.7359905793</ele>
        <time>2016-12-30T12:52:40.008Z</time>
      </trkpt>
      <trkpt lat="45.05054" lon="2.95388">
        <ele>1117</ele>
        <time>2016-12-30T12:52:41.008Z</time>
      </trkpt>
      <trkpt lat="45.05051" lon="2.95383">
        <ele>1117</ele>
        <time>2016-12-30T12:52:42.008Z</time>
      </trkpt>
      <trkpt lat="45.05049" lon="2.95378">
        <ele>1117</ele>
        <time>2016-12-30T12:52:43.008Z</time>
      </trkpt>
      <trkpt lat="45.05047" lon="2.95373">
        <ele>1117</ele>
        <time>2016-12-30T12:52:44.008Z</time>
      </trkpt>
      <trkpt lat="45.05045" lon="2.95367">
        <ele>1117</ele>
        <time>2016-12-30T12:52:45.008Z</time>
      </trkpt>
      <trkpt lat="45.05043" lon="2.95362">
        <ele>1117</ele>
        <time>2016-12-30T12:52:46.008Z</time>
      </trkpt>
      <trkpt lat="45.05041" lon="2.95356">
        <ele>1117</ele>
        <time>2016-12-30T12:52:47.008Z</time>
      </trkpt>
      <trkpt lat="45.05039" lon="2.95351">
        <ele>1117</ele>
        <time>2016-12-30T12:52:48.008Z</time>
      </trkpt>
      <trkpt lat="45.05037" lon="2.95345">
        <ele>1117</ele>
        <time>2016-12-30T12:52:49.008Z</time>
      </trkpt>
      <trkpt lat="45.05035" lon="2.9534">
        <ele>1118.7359905793</ele>
        <time>2016-12-30T12:52:50.008Z</time>
      </trkpt>
      <trkpt lat="45.05034" lon="2.95335">
        <ele>1119</ele>
        <time>2016-12-30T12:52:51.008Z</time>
      </trkpt>
      <trkpt lat="45.05032" lon="2.95329">
        <ele>1119</ele>
        <time>2016-12-30T12:52:52.008Z</time>
      </trkpt>
      <trkpt lat="45.05031" lon="2.95324">
        <ele>1119</ele>
        <time>2016-12-30T12:52:53.008Z</time>
      </trkpt>
      <trkpt lat="45.05029" lon="2.9532">
        <ele>1119</ele>
        <time>2016-12-30T12:52:54.008Z</time>
      </trkpt>
      <trkpt lat="45.05028" lon="2.95315">
        <ele>1119</ele>
        <time>2016-12-30T12:52:55.008Z</time>
      </trkpt>
      <trkpt lat="45.05027" lon="2.9531">
        <ele>1119</ele>
        <time>2016-12-30T12:52:56.008Z</time>
      </trkpt>
      <trkpt lat="45.05025" lon="2.95305">
        <ele>1119</ele>
        <time>2016-12-30T12:52:57.008Z</time>
      </trkpt>
      <trkpt lat="45.05024" lon="2.95299">
        <ele>1119</ele>
        <time>2016-12-30T12:52:58.008Z</time>
      </trkpt>
      <trkpt lat="45.05023" lon="2.95294">
        <ele>1119</ele>
        <time>2016-12-30T12:52:59.008Z</time>
      </trkpt>
      <trkpt lat="45.05021" lon="2.95289">
        <ele>1119.8679952897</ele>
        <time>2016-12-30T12:53:00.008Z</time>
      </trkpt>
      <trkpt lat="45.0502" lon="2.95283">
        <ele>1120</ele>
        <time>2016-12-30T12:53:01.008Z</time>
      </trkpt>
      <trkpt lat="45.05019" lon="2.95278">
        <ele>1120</ele>
        <time>2016-12-30T12:53:02.008Z</time>
      </trkpt>
      <trkpt lat="45.05018" lon="2.95273">
        <ele>1120</ele>
        <time>2016-12-30T12:53:03.008Z</time>
      </trkpt>
      <trkpt lat="45.05016" lon="2.95267">
        <ele>1120</ele>
        <time>2016-12-30T12:53:04.008Z</time>
      </trkpt>
      <trkpt lat="45.05015" lon="2.95262">
        <ele>1120</ele>
        <time>2016-12-30T12:53:05.008Z</time>
      </trkpt>
      <trkpt lat="45.05014" lon="2.95256">
        <ele>1120</ele>
        <time>2016-12-30T12:53:06.008Z</time>
      </trkpt>
      <trkpt lat="45.05012" lon="2.9525">
        <ele>1120</ele>
        <time>2016-12-30T12:53:07.008Z</time>
      </trkpt>
      <trkpt lat="45.05011" lon="2.95244">
        <ele>1120</ele>
        <time>2016-12-30T12:53:08.008Z</time>
      </trkpt>
      <trkpt lat="45.05009" lon="2.95238">
        <ele>1120</ele>
        <time>2016-12-30T12:53:09.008Z</time>
      </trkpt>
      <trkpt lat="45.05007" lon="2.95233">
        <ele>1120.8679952897</ele>
        <time>2016-12-30T12:53:10.008Z</time>
      </trkpt>
      <trkpt lat="45.05005" lon="2.95227">
        <ele>1121</ele>
        <time>2016-12-30T12:53:11.008Z</time>
      </trkpt>
      <trkpt lat="45.05003" lon="2.95221">
        <ele>1121</ele>
        <time>2016-12-30T12:53:12.008Z</time>
      </trkpt>
      <trkpt lat="45.05001" lon="2.95216">
        <ele>1121</ele>
        <time>2016-12-30T12:53:13.008Z</time>
      </trkpt>
      <trkpt lat="45.04998" lon="2.9521">
        <ele>1121</ele>
        <time>2016-12-30T12:53:14.008Z</time>
      </trkpt>
      <trkpt lat="45.04992" lon="2.952">
        <ele>1121</ele>
        <time>2016-12-30T12:53:16.008Z</time>
      </trkpt>
      <trkpt lat="45.04989" lon="2.95196">
        <ele>1121</ele>
        <time>2016-12-30T12:53:17.008Z</time>
      </trkpt>
      <trkpt lat="45.04986" lon="2.95191">
        <ele>1121</ele>
        <time>2016-12-30T12:53:18.008Z</time>
      </trkpt>
      <trkpt lat="45.04982" lon="2.95187">
        <ele>1121</ele>
        <time>2016-12-30T12:53:19.008Z</time>
      </trkpt>
      <trkpt lat="45.04979" lon="2.95183">
        <ele>1121</ele>
        <time>2016-12-30T12:53:20.008Z</time>
      </trkpt>
      <trkpt lat="45.04976" lon="2.95178">
        <ele>1121</ele>
        <time>2016-12-30T12:53:21.008Z</time>
      </trkpt>
      <trkpt lat="45.04973" lon="2.95173">
        <ele>1121</ele>
        <time>2016-12-30T12:53:22.008Z</time>
      </trkpt>
      <trkpt lat="45.04971" lon="2.95168">
        <ele>1121</ele>
        <time>2016-12-30T12:53:23.008Z</time>
      </trkpt>
      <trkpt lat="45.04969" lon="2.95162">
        <ele>1121</ele>
        <time>2016-12-30T12:53:24.008Z</time>
      </trkpt>
      <trkpt lat="45.04968" lon="2.95156">
        <ele>1121</ele>
        <time>2016-12-30T12:53:25.008Z</time>
      </trkpt>
      <trkpt lat="45.04967" lon="2.9515">
        <ele>1121</ele>
        <time>2016-12-30T12:53:26.008Z</time>
      </trkpt>
      <trkpt lat="45.04967" lon="2.95145">
        <ele>1121</ele>
        <time>2016-12-30T12:53:27.008Z</time>
      </trkpt>
      <trkpt lat="45.04966" lon="2.95139">
        <ele>1121</ele>
        <time>2016-12-30T12:53:28.008Z</time>
      </trkpt>
      <trkpt lat="45.04966" lon="2.95133">
        <ele>1121</ele>
        <time>2016-12-30T12:53:29.008Z</time>
      </trkpt>
      <trkpt lat="45.04967" lon="2.95127">
        <ele>1121.8679952897</ele>
        <time>2016-12-30T12:53:30.008Z</time>
      </trkpt>
      <trkpt lat="45.04967" lon="2.95122">
        <ele>1122</ele>
        <time>2016-12-30T12:53:31.008Z</time>
      </trkpt>
      <trkpt lat="45.04968" lon="2.95116">
        <ele>1122</ele>
        <time>2016-12-30T12:53:32.008Z</time>
      </trkpt>
      <trkpt lat="45.04971" lon="2.95106">
        <ele>1122</ele>
        <time>2016-12-30T12:53:34.008Z</time>
      </trkpt>
      <trkpt lat="45.04976" lon="2.95096">
        <ele>1122</ele>
        <time>2016-12-30T12:53:36.008Z</time>
      </trkpt>
      <trkpt lat="45.04978" lon="2.95091">
        <ele>1122</ele>
        <time>2016-12-30T12:53:37.008Z</time>
      </trkpt>
      <trkpt lat="45.04983" lon="2.95083">
        <ele>1122</ele>
        <time>2016-12-30T12:53:39.008Z</time>
      </trkpt>
      <trkpt lat="45.04987" lon="2.95073">
        <ele>1126</ele>
        <time>2016-12-30T12:53:41.008Z</time>
      </trkpt>
      <trkpt lat="45.04989" lon="2.95067">
        <ele>1126</ele>
        <time>2016-12-30T12:53:42.008Z</time>
      </trkpt>
      <trkpt lat="45.04991" lon="2.95062">
        <ele>1126</ele>
        <time>2016-12-30T12:53:43.008Z</time>
      </trkpt>
      <trkpt lat="45.04993" lon="2.95056">
        <ele>1126</ele>
        <time>2016-12-30T12:53:44.008Z</time>
      </trkpt>
      <trkpt lat="45.04994" lon="2.95051">
        <ele>1126.8680047105</ele>
        <time>2016-12-30T12:53:45.008Z</time>
      </trkpt>
      <trkpt lat="45.04997" lon="2.95039">
        <ele>1127</ele>
        <time>2016-12-30T12:53:47.008Z</time>
      </trkpt>
      <trkpt lat="45.05" lon="2.95028">
        <ele>1127</ele>
        <time>2016-12-30T12:53:49.008Z</time>
      </trkpt>
      <trkpt lat="45.05003" lon="2.95018">
        <ele>1128</ele>
        <time>2016-12-30T12:53:51.008Z</time>
      </trkpt>
      <trkpt lat="45.05005" lon="2.95007">
        <ele>1128</ele>
        <time>2016-12-30T12:53:53.008Z</time>
      </trkpt>
      <trkpt lat="45.05006" lon="2.94997">
        <ele>1128</ele>
        <time>2016-12-30T12:53:55.008Z</time>
      </trkpt>
      <trkpt lat="45.05006" lon="2.94992">
        <ele>1128</ele>
        <time>2016-12-30T12:53:56.008Z</time>
      </trkpt>
      <trkpt lat="45.05006" lon="2.94981">
        <ele>1128</ele>
        <time>2016-12-30T12:53:58.008Z</time>
      </trkpt>
      <trkpt lat="45.05005" lon="2.94971">
        <ele>1129.7359905793</ele>
        <time>2016-12-30T12:54:00.008Z</time>
      </trkpt>
      <trkpt lat="45.05005" lon="2.9496">
        <ele>1130</ele>
        <time>2016-12-30T12:54:02.008Z</time>
      </trkpt>
      <trkpt lat="45.05004" lon="2.94955">
        <ele>1130</ele>
        <time>2016-12-30T12:54:03.008Z</time>
      </trkpt>
      <trkpt lat="45.05003" lon="2.94949">
        <ele>1130</ele>
        <time>2016-12-30T12:54:04.008Z</time>
      </trkpt>
      <trkpt lat="45.05002" lon="2.94944">
        <ele>1130</ele>
        <time>2016-12-30T12:54:05.008Z</time>
      </trkpt>
      <trkpt lat="45.05001" lon="2.94934">
        <ele>1130</ele>
        <time>2016-12-30T12:54:07.008Z</time>
      </trkpt>
      <trkpt lat="45.04999" lon="2.94924">
        <ele>1130</ele>
        <time>2016-12-30T12:54:09.008Z</time>
      </trkpt>
      <trkpt lat="45.04997" lon="2.94914">
        <ele>1132</ele>
        <time>2016-12-30T12:54:11.008Z</time>
      </trkpt>
      <trkpt lat="45.04996" lon="2.94904">
        <ele>1132</ele>
        <time>2016-12-30T12:54:13.008Z</time>
      </trkpt>
      <trkpt lat="45.04994" lon="2.94894">
        <ele>1132</ele>
        <time>2016-12-30T12:54:15.008Z</time>
      </trkpt>
      <trkpt lat="45.04992" lon="2.94883">
        <ele>1132</ele>
        <time>2016-12-30T12:54:17.008Z</time>
      </trkpt>
      <trkpt lat="45.0499" lon="2.94873">
        <ele>1132</ele>
        <time>2016-12-30T12:54:19.008Z</time>
      </trkpt>
      <trkpt lat="45.04988" lon="2.94862">
        <ele>1135</ele>
        <time>2016-12-30T12:54:21.008Z</time>
      </trkpt>
      <trkpt lat="45.04985" lon="2.94851">
        <ele>1135</ele>
        <time>2016-12-30T12:54:23.008Z</time>
      </trkpt>
      <trkpt lat="45.04983" lon="2.9484">
        <ele>1135</ele>
        <time>2016-12-30T12:54:25.008Z</time>
      </trkpt>
      <trkpt lat="45.04981" lon="2.9483">
        <ele>1135</ele>
        <time>2016-12-30T12:54:27.008Z</time>
      </trkpt>
      <trkpt lat="45.04979" lon="2.94819">
        <ele>1135</ele>
        <time>2016-12-30T12:54:29.008Z</time>
      </trkpt>
      <trkpt lat="45.04977" lon="2.94809">
        <ele>1137</ele>
        <time>2016-12-30T12:54:31.008Z</time>
      </trkpt>
      <trkpt lat="45.04976" lon="2.94804">
        <ele>1137</ele>
        <time>2016-12-30T12:54:32.008Z</time>
      </trkpt>
      <trkpt lat="45.04975" lon="2.94798">
        <ele>1137</ele>
        <time>2016-12-30T12:54:33.008Z</time>
      </trkpt>
      <trkpt lat="45.04974" lon="2.94793">
        <ele>1137</ele>
        <time>2016-12-30T12:54:34.008Z</time>
      </trkpt>
      <trkpt lat="45.04973" lon="2.94788">
        <ele>1137</ele>
        <time>2016-12-30T12:54:35.008Z</time>
      </trkpt>
      <trkpt lat="45.04972" lon="2.94782">
        <ele>1137</ele>
        <time>2016-12-30T12:54:36.008Z</time>
      </trkpt>
      <trkpt lat="45.04971" lon="2.94777">
        <ele>1137</ele>
        <time>2016-12-30T12:54:37.008Z</time>
      </trkpt>
      <trkpt lat="45.0497" lon="2.94772">
        <ele>1137</ele>
        <time>2016-12-30T12:54:38.008Z</time>
      </trkpt>
      <trkpt lat="45.04969" lon="2.94766">
        <ele>1137</ele>
        <time>2016-12-30T12:54:39.008Z</time>
      </trkpt>
      <trkpt lat="45.04969" lon="2.94761">
        <ele>1137.8679952897</ele>
        <time>2016-12-30T12:54:40.008Z</time>
      </trkpt>
      <trkpt lat="45.04968" lon="2.94756">
        <ele>1138</ele>
        <time>2016-12-30T12:54:41.008Z</time>
      </trkpt>
      <trkpt lat="45.04967" lon="2.9475">
        <ele>1138</ele>
        <time>2016-12-30T12:54:42.008Z</time>
      </trkpt>
      <trkpt lat="45.04966" lon="2.94745">
        <ele>1138</ele>
        <time>2016-12-30T12:54:43.008Z</time>
      </trkpt>
      <trkpt lat="45.04966" lon="2.94739">
        <ele>1138</ele>
        <time>2016-12-30T12:54:44.008Z</time>
      </trkpt>
      <trkpt lat="45.04965" lon="2.94734">
        <ele>1138</ele>
        <time>2016-12-30T12:54:45.008Z</time>
      </trkpt>
      <trkpt lat="45.04965" lon="2.94729">
        <ele>1138</ele>
        <time>2016-12-30T12:54:46.008Z</time>
      </trkpt>
      <trkpt lat="45.04965" lon="2.94719">
        <ele>1138</ele>
        <time>2016-12-30T12:54:48.008Z</time>
      </trkpt>
      <trkpt lat="45.04964" lon="2.94709">
        <ele>1140.603985869</ele>
        <time>2016-12-30T12:54:50.008Z</time>
      </trkpt>
      <trkpt lat="45.04964" lon="2.94704">
        <ele>1141</ele>
        <time>2016-12-30T12:54:51.008Z</time>
      </trkpt>
      <trkpt lat="45.04964" lon="2.94699">
        <ele>1141</ele>
        <time>2016-12-30T12:54:52.008Z</time>
      </trkpt>
      <trkpt lat="45.04964" lon="2.94694">
        <ele>1141</ele>
        <time>2016-12-30T12:54:53.008Z</time>
      </trkpt>
      <trkpt lat="45.04964" lon="2.94689">
        <ele>1141</ele>
        <time>2016-12-30T12:54:54.008Z</time>
      </trkpt>
      <trkpt lat="45.04964" lon="2.9468">
        <ele>1142</ele>
        <time>2016-12-30T12:54:56.008Z</time>
      </trkpt>
      <trkpt lat="45.04965" lon="2.9467">
        <ele>1142</ele>
        <time>2016-12-30T12:54:58.008Z</time>
      </trkpt>
      <trkpt lat="45.04965" lon="2.9466">
        <ele>1142</ele>
        <time>2016-12-30T12:55:00.008Z</time>
      </trkpt>
      <trkpt lat="45.04965" lon="2.94655">
        <ele>1142</ele>
        <time>2016-12-30T12:55:01.008Z</time>
      </trkpt>
      <trkpt lat="45.04965" lon="2.9465">
        <ele>1142</ele>
        <time>2016-12-30T12:55:02.008Z</time>
      </trkpt>
      <trkpt lat="45.04966" lon="2.94639">
        <ele>1142</ele>
        <time>2016-12-30T12:55:04.008Z</time>
      </trkpt>
      <trkpt lat="45.04966" lon="2.94628">
        <ele>1142</ele>
        <time>2016-12-30T12:55:06.008Z</time>
      </trkpt>
      <trkpt lat="45.04967" lon="2.94618">
        <ele>1142</ele>
        <time>2016-12-30T12:55:08.008Z</time>
      </trkpt>
      <trkpt lat="45.04967" lon="2.94608">
        <ele>1143.7359905793</ele>
        <time>2016-12-30T12:55:10.008Z</time>
      </trkpt>
      <trkpt lat="45.04968" lon="2.94597">
        <ele>1144</ele>
        <time>2016-12-30T12:55:12.008Z</time>
      </trkpt>
      <trkpt lat="45.04969" lon="2.94588">
        <ele>1144</ele>
        <time>2016-12-30T12:55:14.008Z</time>
      </trkpt>
      <trkpt lat="45.0497" lon="2.94579">
        <ele>1144</ele>
        <time>2016-12-30T12:55:16.008Z</time>
      </trkpt>
      <trkpt lat="45.04972" lon="2.9457">
        <ele>1144</ele>
        <time>2016-12-30T12:55:18.008Z</time>
      </trkpt>
      <trkpt lat="45.04973" lon="2.9456">
        <ele>1145.7359905793</ele>
        <time>2016-12-30T12:55:20.008Z</time>
      </trkpt>
      <trkpt lat="45.04974" lon="2.9455">
        <ele>1146</ele>
        <time>2016-12-30T12:55:22.008Z</time>
      </trkpt>
      <trkpt lat="45.04975" lon="2.94539">
        <ele>1146</ele>
        <time>2016-12-30T12:55:24.008Z</time>
      </trkpt>
      <trkpt lat="45.04977" lon="2.94527">
        <ele>1146</ele>
        <time>2016-12-30T12:55:26.008Z</time>
      </trkpt>
      <trkpt lat="45.04978" lon="2.94516">
        <ele>1146</ele>
        <time>2016-12-30T12:55:28.008Z</time>
      </trkpt>
      <trkpt lat="45.04979" lon="2.94504">
        <ele>1147.7359905793</ele>
        <time>2016-12-30T12:55:30.008Z</time>
      </trkpt>
      <trkpt lat="45.0498" lon="2.94493">
        <ele>1148</ele>
        <time>2016-12-30T12:55:32.008Z</time>
      </trkpt>
      <trkpt lat="45.0498" lon="2.94481">
        <ele>1148</ele>
        <time>2016-12-30T12:55:34.008Z</time>
      </trkpt>
      <trkpt lat="45.04979" lon="2.94475">
        <ele>1148</ele>
        <time>2016-12-30T12:55:35.008Z</time>
      </trkpt>
      <trkpt lat="45.04978" lon="2.94469">
        <ele>1148</ele>
        <time>2016-12-30T12:55:36.008Z</time>
      </trkpt>
      <trkpt lat="45.04977" lon="2.94464">
        <ele>1148</ele>
        <time>2016-12-30T12:55:37.008Z</time>
      </trkpt>
      <trkpt lat="45.04977" lon="2.94458">
        <ele>1148</ele>
        <time>2016-12-30T12:55:38.008Z</time>
      </trkpt>
      <trkpt lat="45.04976" lon="2.94452">
        <ele>1148</ele>
        <time>2016-12-30T12:55:39.008Z</time>
      </trkpt>
      <trkpt lat="45.04976" lon="2.94446">
        <ele>1148.8679952897</ele>
        <time>2016-12-30T12:55:40.008Z</time>
      </trkpt>
      <trkpt lat="45.04976" lon="2.9444">
        <ele>1149</ele>
        <time>2016-12-30T12:55:41.008Z</time>
      </trkpt>
      <trkpt lat="45.04975" lon="2.94434">
        <ele>1149</ele>
        <time>2016-12-30T12:55:42.008Z</time>
      </trkpt>
      <trkpt lat="45.04976" lon="2.94427">
        <ele>1149</ele>
        <time>2016-12-30T12:55:43.008Z</time>
      </trkpt>
      <trkpt lat="45.04976" lon="2.94421">
        <ele>1149</ele>
        <time>2016-12-30T12:55:44.008Z</time>
      </trkpt>
      <trkpt lat="45.04977" lon="2.94415">
        <ele>1149</ele>
        <time>2016-12-30T12:55:45.008Z</time>
      </trkpt>
      <trkpt lat="45.04977" lon="2.94409">
        <ele>1149</ele>
        <time>2016-12-30T12:55:46.008Z</time>
      </trkpt>
      <trkpt lat="45.04978" lon="2.94403">
        <ele>1149</ele>
        <time>2016-12-30T12:55:47.008Z</time>
      </trkpt>
      <trkpt lat="45.04979" lon="2.9439">
        <ele>1149</ele>
        <time>2016-12-30T12:55:49.008Z</time>
      </trkpt>
      <trkpt lat="45.04981" lon="2.94377">
        <ele>1150</ele>
        <time>2016-12-30T12:55:51.008Z</time>
      </trkpt>
      <trkpt lat="45.04982" lon="2.94364">
        <ele>1150</ele>
        <time>2016-12-30T12:55:53.008Z</time>
      </trkpt>
      <trkpt lat="45.04983" lon="2.94351">
        <ele>1150</ele>
        <time>2016-12-30T12:55:55.008Z</time>
      </trkpt>
      <trkpt lat="45.04984" lon="2.94345">
        <ele>1150</ele>
        <time>2016-12-30T12:55:56.008Z</time>
      </trkpt>
      <trkpt lat="45.04984" lon="2.94338">
        <ele>1150</ele>
        <time>2016-12-30T12:55:57.008Z</time>
      </trkpt>
      <trkpt lat="45.04985" lon="2.94331">
        <ele>1150</ele>
        <time>2016-12-30T12:55:58.008Z</time>
      </trkpt>
      <trkpt lat="45.04985" lon="2.94325">
        <ele>1150</ele>
        <time>2016-12-30T12:55:59.008Z</time>
      </trkpt>
      <trkpt lat="45.04986" lon="2.94318">
        <ele>1150.8679952897</ele>
        <time>2016-12-30T12:56:00.008Z</time>
      </trkpt>
      <trkpt lat="45.04986" lon="2.94311">
        <ele>1151</ele>
        <time>2016-12-30T12:56:01.008Z</time>
      </trkpt>
      <trkpt lat="45.04986" lon="2.94304">
        <ele>1151</ele>
        <time>2016-12-30T12:56:02.008Z</time>
      </trkpt>
      <trkpt lat="45.04987" lon="2.94298">
        <ele>1151</ele>
        <time>2016-12-30T12:56:03.008Z</time>
      </trkpt>
      <trkpt lat="45.04987" lon="2.94291">
        <ele>1151</ele>
        <time>2016-12-30T12:56:04.008Z</time>
      </trkpt>
      <trkpt lat="45.04987" lon="2.94284">
        <ele>1151</ele>
        <time>2016-12-30T12:56:05.008Z</time>
      </trkpt>
      <trkpt lat="45.04987" lon="2.94277">
        <ele>1151</ele>
        <time>2016-12-30T12:56:06.008Z</time>
      </trkpt>
      <trkpt lat="45.04988" lon="2.94264">
        <ele>1151</ele>
        <time>2016-12-30T12:56:08.008Z</time>
      </trkpt>
      <trkpt lat="45.04988" lon="2.94257">
        <ele>1151</ele>
        <time>2016-12-30T12:56:09.008Z</time>
      </trkpt>
      <trkpt lat="45.04989" lon="2.94249">
        <ele>1151.8679952897</ele>
        <time>2016-12-30T12:56:10.008Z</time>
      </trkpt>
      <trkpt lat="45.04992" lon="2.94235">
        <ele>1152</ele>
        <time>2016-12-30T12:56:12.008Z</time>
      </trkpt>
      <trkpt lat="45.04995" lon="2.94221">
        <ele>1152</ele>
        <time>2016-12-30T12:56:14.008Z</time>
      </trkpt>
      <trkpt lat="45.04997" lon="2.94214">
        <ele>1152</ele>
        <time>2016-12-30T12:56:15.008Z</time>
      </trkpt>
      <trkpt lat="45.04998" lon="2.94208">
        <ele>1152</ele>
        <time>2016-12-30T12:56:16.008Z</time>
      </trkpt>
      <trkpt lat="45.05" lon="2.94202">
        <ele>1152</ele>
        <time>2016-12-30T12:56:17.008Z</time>
      </trkpt>
      <trkpt lat="45.05001" lon="2.94196">
        <ele>1152</ele>
        <time>2016-12-30T12:56:18.008Z</time>
      </trkpt>
      <trkpt lat="45.05004" lon="2.94189">
        <ele>1152</ele>
        <time>2016-12-30T12:56:19.008Z</time>
      </trkpt>
      <trkpt lat="45.05008" lon="2.94175">
        <ele>1152</ele>
        <time>2016-12-30T12:56:21.008Z</time>
      </trkpt>
      <trkpt lat="45.0501" lon="2.94169">
        <ele>1152</ele>
        <time>2016-12-30T12:56:22.008Z</time>
      </trkpt>
      <trkpt lat="45.05012" lon="2.94162">
        <ele>1152</ele>
        <time>2016-12-30T12:56:23.008Z</time>
      </trkpt>
      <trkpt lat="45.05017" lon="2.94148">
        <ele>1152</ele>
        <time>2016-12-30T12:56:25.008Z</time>
      </trkpt>
      <trkpt lat="45.05019" lon="2.94141">
        <ele>1152</ele>
        <time>2016-12-30T12:56:26.008Z</time>
      </trkpt>
      <trkpt lat="45.05021" lon="2.94134">
        <ele>1152</ele>
        <time>2016-12-30T12:56:27.008Z</time>
      </trkpt>
      <trkpt lat="45.05023" lon="2.94127">
        <ele>1152</ele>
        <time>2016-12-30T12:56:28.008Z</time>
      </trkpt>
      <trkpt lat="45.05025" lon="2.9412">
        <ele>1152</ele>
        <time>2016-12-30T12:56:29.008Z</time>
      </trkpt>
      <trkpt lat="45.05027" lon="2.94112">
        <ele>1152</ele>
        <time>2016-12-30T12:56:30.008Z</time>
      </trkpt>
      <trkpt lat="45.05029" lon="2.94105">
        <ele>1152</ele>
        <time>2016-12-30T12:56:31.008Z</time>
      </trkpt>
      <trkpt lat="45.05031" lon="2.94098">
        <ele>1152</ele>
        <time>2016-12-30T12:56:32.008Z</time>
      </trkpt>
      <trkpt lat="45.05033" lon="2.94091">
        <ele>1152</ele>
        <time>2016-12-30T12:56:33.008Z</time>
      </trkpt>
      <trkpt lat="45.05037" lon="2.94077">
        <ele>1152</ele>
        <time>2016-12-30T12:56:35.008Z</time>
      </trkpt>
      <trkpt lat="45.05041" lon="2.94062">
        <ele>1152</ele>
        <time>2016-12-30T12:56:37.008Z</time>
      </trkpt>
      <trkpt lat="45.05044" lon="2.94047">
        <ele>1152</ele>
        <time>2016-12-30T12:56:39.008Z</time>
      </trkpt>
      <trkpt lat="45.05046" lon="2.9404">
        <ele>1152.8679952897</ele>
        <time>2016-12-30T12:56:40.008Z</time>
      </trkpt>
      <trkpt lat="45.05048" lon="2.94032">
        <ele>1153</ele>
        <time>2016-12-30T12:56:41.008Z</time>
      </trkpt>
      <trkpt lat="45.0505" lon="2.94025">
        <ele>1153</ele>
        <time>2016-12-30T12:56:42.008Z</time>
      </trkpt>
      <trkpt lat="45.05052" lon="2.94018">
        <ele>1153</ele>
        <time>2016-12-30T12:56:43.008Z</time>
      </trkpt>
      <trkpt lat="45.05054" lon="2.94011">
        <ele>1153</ele>
        <time>2016-12-30T12:56:44.008Z</time>
      </trkpt>
      <trkpt lat="45.05055" lon="2.94004">
        <ele>1153</ele>
        <time>2016-12-30T12:56:45.008Z</time>
      </trkpt>
      <trkpt lat="45.05057" lon="2.93997">
        <ele>1153</ele>
        <time>2016-12-30T12:56:46.008Z</time>
      </trkpt>
      <trkpt lat="45.05059" lon="2.9399">
        <ele>1153</ele>
        <time>2016-12-30T12:56:47.008Z</time>
      </trkpt>
      <trkpt lat="45.05061" lon="2.93983">
        <ele>1153</ele>
        <time>2016-12-30T12:56:48.008Z</time>
      </trkpt>
      <trkpt lat="45.05063" lon="2.93976">
        <ele>1153</ele>
        <time>2016-12-30T12:56:49.008Z</time>
      </trkpt>
      <trkpt lat="45.05065" lon="2.93969">
        <ele>1154.7359905793</ele>
        <time>2016-12-30T12:56:50.008Z</time>
      </trkpt>
      <trkpt lat="45.05067" lon="2.93962">
        <ele>1155</ele>
        <time>2016-12-30T12:56:51.008Z</time>
      </trkpt>
      <trkpt lat="45.05069" lon="2.93955">
        <ele>1155</ele>
        <time>2016-12-30T12:56:52.008Z</time>
      </trkpt>
      <trkpt lat="45.05072" lon="2.93949">
        <ele>1155</ele>
        <time>2016-12-30T12:56:53.008Z</time>
      </trkpt>
      <trkpt lat="45.05076" lon="2.93936">
        <ele>1155</ele>
        <time>2016-12-30T12:56:55.008Z</time>
      </trkpt>
      <trkpt lat="45.05081" lon="2.93924">
        <ele>1155</ele>
        <time>2016-12-30T12:56:57.008Z</time>
      </trkpt>
      <trkpt lat="45.05086" lon="2.93913">
        <ele>1155</ele>
        <time>2016-12-30T12:56:59.008Z</time>
      </trkpt>
      <trkpt lat="45.05091" lon="2.93902">
        <ele>1157</ele>
        <time>2016-12-30T12:57:01.008Z</time>
      </trkpt>
      <trkpt lat="45.05096" lon="2.93892">
        <ele>1157</ele>
        <time>2016-12-30T12:57:03.008Z</time>
      </trkpt>
      <trkpt lat="45.051" lon="2.93882">
        <ele>1157</ele>
        <time>2016-12-30T12:57:05.008Z</time>
      </trkpt>
      <trkpt lat="45.05105" lon="2.93872">
        <ele>1157</ele>
        <time>2016-12-30T12:57:07.008Z</time>
      </trkpt>
      <trkpt lat="45.05109" lon="2.93863">
        <ele>1157</ele>
        <time>2016-12-30T12:57:09.008Z</time>
      </trkpt>
      <trkpt lat="45.05113" lon="2.93854">
        <ele>1159</ele>
        <time>2016-12-30T12:57:11.008Z</time>
      </trkpt>
      <trkpt lat="45.05116" lon="2.93845">
        <ele>1159</ele>
        <time>2016-12-30T12:57:13.008Z</time>
      </trkpt>
      <trkpt lat="45.05117" lon="2.93837">
        <ele>1159</ele>
        <time>2016-12-30T12:57:15.008Z</time>
      </trkpt>
      <trkpt lat="45.05119" lon="2.9383">
        <ele>1159</ele>
        <time>2016-12-30T12:57:18.008Z</time>
      </trkpt>
      <trkpt lat="45.05111" lon="2.9383">
        <ele>1163</ele>
        <time>2016-12-30T12:59:52.008Z</time>
      </trkpt>
      <trkpt lat="45.05104" lon="2.93827">
        <ele>1163</ele>
        <time>2016-12-30T12:59:55.008Z</time>
      </trkpt>
      <trkpt lat="45.05095" lon="2.9382">
        <ele>1163</ele>
        <time>2016-12-30T12:59:58.008Z</time>
      </trkpt>
      <trkpt lat="45.05091" lon="2.93813">
        <ele>1161.2640094207</ele>
        <time>2016-12-30T13:00:00.008Z</time>
      </trkpt>
      <trkpt lat="45.05087" lon="2.93805">
        <ele>1161</ele>
        <time>2016-12-30T13:00:02.008Z</time>
      </trkpt>
      <trkpt lat="45.05085" lon="2.93797">
        <ele>1161</ele>
        <time>2016-12-30T13:00:04.008Z</time>
      </trkpt>
      <trkpt lat="45.05083" lon="2.93789">
        <ele>1161</ele>
        <time>2016-12-30T13:00:06.008Z</time>
      </trkpt>
      <trkpt lat="45.05082" lon="2.9378">
        <ele>1161</ele>
        <time>2016-12-30T13:00:08.008Z</time>
      </trkpt>
      <trkpt lat="45.05081" lon="2.93771">
        <ele>1162.7359905793</ele>
        <time>2016-12-30T13:00:10.008Z</time>
      </trkpt>
      <trkpt lat="45.0508" lon="2.93761">
        <ele>1163</ele>
        <time>2016-12-30T13:00:12.008Z</time>
      </trkpt>
      <trkpt lat="45.05079" lon="2.93752">
        <ele>1163</ele>
        <time>2016-12-30T13:00:14.008Z</time>
      </trkpt>
      <trkpt lat="45.05078" lon="2.93743">
        <ele>1163</ele>
        <time>2016-12-30T13:00:16.008Z</time>
      </trkpt>
      <trkpt lat="45.05076" lon="2.93734">
        <ele>1163</ele>
        <time>2016-12-30T13:00:18.008Z</time>
      </trkpt>
      <trkpt lat="45.05074" lon="2.93725">
        <ele>1164.7359905793</ele>
        <time>2016-12-30T13:00:20.008Z</time>
      </trkpt>
      <trkpt lat="45.05073" lon="2.93717">
        <ele>1165</ele>
        <time>2016-12-30T13:00:22.008Z</time>
      </trkpt>
      <trkpt lat="45.05071" lon="2.93708">
        <ele>1165</ele>
        <time>2016-12-30T13:00:24.008Z</time>
      </trkpt>
      <trkpt lat="45.05069" lon="2.93699">
        <ele>1165</ele>
        <time>2016-12-30T13:00:26.008Z</time>
      </trkpt>
      <trkpt lat="45.05067" lon="2.93689">
        <ele>1165</ele>
        <time>2016-12-30T13:00:28.008Z</time>
      </trkpt>
      <trkpt lat="45.05066" lon="2.9368">
        <ele>1167.603985869</ele>
        <time>2016-12-30T13:00:30.008Z</time>
      </trkpt>
      <trkpt lat="45.05064" lon="2.9367">
        <ele>1168</ele>
        <time>2016-12-30T13:00:32.008Z</time>
      </trkpt>
      <trkpt lat="45.05062" lon="2.93661">
        <ele>1168</ele>
        <time>2016-12-30T13:00:34.008Z</time>
      </trkpt>
      <trkpt lat="45.0506" lon="2.93653">
        <ele>1169</ele>
        <time>2016-12-30T13:00:36.008Z</time>
      </trkpt>
      <trkpt lat="45.05059" lon="2.93644">
        <ele>1169</ele>
        <time>2016-12-30T13:00:38.008Z</time>
      </trkpt>
      <trkpt lat="45.05057" lon="2.93635">
        <ele>1169.8679952897</ele>
        <time>2016-12-30T13:00:40.008Z</time>
      </trkpt>
      <trkpt lat="45.05055" lon="2.93627">
        <ele>1170</ele>
        <time>2016-12-30T13:00:42.008Z</time>
      </trkpt>
      <trkpt lat="45.05054" lon="2.93618">
        <ele>1170</ele>
        <time>2016-12-30T13:00:44.008Z</time>
      </trkpt>
      <trkpt lat="45.05054" lon="2.93609">
        <ele>1171</ele>
        <time>2016-12-30T13:00:46.008Z</time>
      </trkpt>
      <trkpt lat="45.05053" lon="2.936">
        <ele>1171</ele>
        <time>2016-12-30T13:00:48.008Z</time>
      </trkpt>
      <trkpt lat="45.05052" lon="2.93591">
        <ele>1171.8679952897</ele>
        <time>2016-12-30T13:00:50.008Z</time>
      </trkpt>
      <trkpt lat="45.0505" lon="2.93583">
        <ele>1172</ele>
        <time>2016-12-30T13:00:52.008Z</time>
      </trkpt>
      <trkpt lat="45.05049" lon="2.93575">
        <ele>1172</ele>
        <time>2016-12-30T13:00:54.008Z</time>
      </trkpt>
      <trkpt lat="45.05047" lon="2.93567">
        <ele>1172</ele>
        <time>2016-12-30T13:00:56.008Z</time>
      </trkpt>
      <trkpt lat="45.05046" lon="2.93558">
        <ele>1172</ele>
        <time>2016-12-30T13:00:58.008Z</time>
      </trkpt>
      <trkpt lat="45.05044" lon="2.9355">
        <ele>1174.603985869</ele>
        <time>2016-12-30T13:01:00.008Z</time>
      </trkpt>
      <trkpt lat="45.05042" lon="2.93542">
        <ele>1175</ele>
        <time>2016-12-30T13:01:02.008Z</time>
      </trkpt>
      <trkpt lat="45.05041" lon="2.93533">
        <ele>1175</ele>
        <time>2016-12-30T13:01:04.008Z</time>
      </trkpt>
      <trkpt lat="45.05039" lon="2.93525">
        <ele>1175</ele>
        <time>2016-12-30T13:01:06.008Z</time>
      </trkpt>
      <trkpt lat="45.05038" lon="2.9352">
        <ele>1175</ele>
        <time>2016-12-30T13:01:07.008Z</time>
      </trkpt>
      <trkpt lat="45.05038" lon="2.93516">
        <ele>1175</ele>
        <time>2016-12-30T13:01:08.008Z</time>
      </trkpt>
      <trkpt lat="45.05037" lon="2.93511">
        <ele>1175</ele>
        <time>2016-12-30T13:01:09.008Z</time>
      </trkpt>
      <trkpt lat="45.05037" lon="2.93507">
        <ele>1176.7359905793</ele>
        <time>2016-12-30T13:01:10.008Z</time>
      </trkpt>
      <trkpt lat="45.05036" lon="2.93502">
        <ele>1177</ele>
        <time>2016-12-30T13:01:11.008Z</time>
      </trkpt>
      <trkpt lat="45.05036" lon="2.93497">
        <ele>1177</ele>
        <time>2016-12-30T13:01:12.008Z</time>
      </trkpt>
      <trkpt lat="45.05036" lon="2.93492">
        <ele>1177</ele>
        <time>2016-12-30T13:01:13.008Z</time>
      </trkpt>
      <trkpt lat="45.05038" lon="2.93482">
        <ele>1177</ele>
        <time>2016-12-30T13:01:15.008Z</time>
      </trkpt>
      <trkpt lat="45.0504" lon="2.93472">
        <ele>1177</ele>
        <time>2016-12-30T13:01:17.008Z</time>
      </trkpt>
      <trkpt lat="45.05043" lon="2.93463">
        <ele>1177</ele>
        <time>2016-12-30T13:01:19.008Z</time>
      </trkpt>
      <trkpt lat="45.05046" lon="2.93454">
        <ele>1177</ele>
        <time>2016-12-30T13:01:21.008Z</time>
      </trkpt>
      <trkpt lat="45.05049" lon="2.93445">
        <ele>1177</ele>
        <time>2016-12-30T13:01:23.008Z</time>
      </trkpt>
      <trkpt lat="45.05053" lon="2.93436">
        <ele>1177</ele>
        <time>2016-12-30T13:01:25.008Z</time>
      </trkpt>
      <trkpt lat="45.05057" lon="2.93428">
        <ele>1177</ele>
        <time>2016-12-30T13:01:27.008Z</time>
      </trkpt>
      <trkpt lat="45.05062" lon="2.93421">
        <ele>1177</ele>
        <time>2016-12-30T13:01:29.008Z</time>
      </trkpt>
      <trkpt lat="45.05068" lon="2.93414">
        <ele>1178</ele>
        <time>2016-12-30T13:01:31.008Z</time>
      </trkpt>
      <trkpt lat="45.05075" lon="2.93408">
        <ele>1178</ele>
        <time>2016-12-30T13:01:33.008Z</time>
      </trkpt>
      <trkpt lat="45.05081" lon="2.93401">
        <ele>1178</ele>
        <time>2016-12-30T13:01:35.008Z</time>
      </trkpt>
      <trkpt lat="45.05089" lon="2.93395">
        <ele>1178</ele>
        <time>2016-12-30T13:01:37.008Z</time>
      </trkpt>
      <trkpt lat="45.05096" lon="2.9339">
        <ele>1178</ele>
        <time>2016-12-30T13:01:39.008Z</time>
      </trkpt>
      <trkpt lat="45.0511" lon="2.93384">
        <ele>1180</ele>
        <time>2016-12-30T13:01:42.008Z</time>
      </trkpt>
      <trkpt lat="45.0512" lon="2.93381">
        <ele>1180</ele>
        <time>2016-12-30T13:01:44.008Z</time>
      </trkpt>
      <trkpt lat="45.05129" lon="2.93378">
        <ele>1180</ele>
        <time>2016-12-30T13:01:46.008Z</time>
      </trkpt>
      <trkpt lat="45.05139" lon="2.93375">
        <ele>1180</ele>
        <time>2016-12-30T13:01:48.008Z</time>
      </trkpt>
      <trkpt lat="45.05148" lon="2.93372">
        <ele>1180</ele>
        <time>2016-12-30T13:01:50.008Z</time>
      </trkpt>
      <trkpt lat="45.05152" lon="2.93371">
        <ele>1180</ele>
        <time>2016-12-30T13:01:51.008Z</time>
      </trkpt>
      <trkpt lat="45.05157" lon="2.93368">
        <ele>1180</ele>
        <time>2016-12-30T13:01:52.008Z</time>
      </trkpt>
      <trkpt lat="45.05163" lon="2.93364">
        <ele>1180</ele>
        <time>2016-12-30T13:01:54.008Z</time>
      </trkpt>
      <trkpt lat="45.0517" lon="2.9336">
        <ele>1180</ele>
        <time>2016-12-30T13:01:56.008Z</time>
      </trkpt>
      <trkpt lat="45.05181" lon="2.93358">
        <ele>1180</ele>
        <time>2016-12-30T13:01:59.008Z</time>
      </trkpt>
      <trkpt lat="45.05189" lon="2.93357">
        <ele>1182</ele>
        <time>2016-12-30T13:02:01.008Z</time>
      </trkpt>
      <trkpt lat="45.05193" lon="2.93358">
        <ele>1182</ele>
        <time>2016-12-30T13:02:02.008Z</time>
      </trkpt>
      <trkpt lat="45.05197" lon="2.93358">
        <ele>1182</ele>
        <time>2016-12-30T13:02:03.008Z</time>
      </trkpt>
      <trkpt lat="45.05202" lon="2.93358">
        <ele>1182</ele>
        <time>2016-12-30T13:02:04.008Z</time>
      </trkpt>
      <trkpt lat="45.05206" lon="2.93359">
        <ele>1182</ele>
        <time>2016-12-30T13:02:05.008Z</time>
      </trkpt>
      <trkpt lat="45.05211" lon="2.93359">
        <ele>1182</ele>
        <time>2016-12-30T13:02:06.008Z</time>
      </trkpt>
      <trkpt lat="45.05219" lon="2.93359">
        <ele>1182</ele>
        <time>2016-12-30T13:02:08.008Z</time>
      </trkpt>
      <trkpt lat="45.05228" lon="2.93359">
        <ele>1182</ele>
        <time>2016-12-30T13:02:10.008Z</time>
      </trkpt>
      <trkpt lat="45.05236" lon="2.93358">
        <ele>1182</ele>
        <time>2016-12-30T13:02:12.008Z</time>
      </trkpt>
      <trkpt lat="45.05241" lon="2.93344">
        <ele>1182</ele>
        <time>2016-12-30T13:02:15.008Z</time>
      </trkpt>
      <trkpt lat="45.05242" lon="2.93333">
        <ele>1182</ele>
        <time>2016-12-30T13:02:17.008Z</time>
      </trkpt>
      <trkpt lat="45.05242" lon="2.93322">
        <ele>1182</ele>
        <time>2016-12-30T13:02:19.008Z</time>
      </trkpt>
      <trkpt lat="45.05242" lon="2.9331">
        <ele>1182</ele>
        <time>2016-12-30T13:02:21.008Z</time>
      </trkpt>
      <trkpt lat="45.05242" lon="2.93304">
        <ele>1182</ele>
        <time>2016-12-30T13:02:22.008Z</time>
      </trkpt>
      <trkpt lat="45.05242" lon="2.93298">
        <ele>1182</ele>
        <time>2016-12-30T13:02:23.008Z</time>
      </trkpt>
      <trkpt lat="45.05242" lon="2.93292">
        <ele>1182</ele>
        <time>2016-12-30T13:02:24.008Z</time>
      </trkpt>
      <trkpt lat="45.05242" lon="2.93286">
        <ele>1182</ele>
        <time>2016-12-30T13:02:25.008Z</time>
      </trkpt>
      <trkpt lat="45.05242" lon="2.93279">
        <ele>1182</ele>
        <time>2016-12-30T13:02:26.008Z</time>
      </trkpt>
      <trkpt lat="45.05243" lon="2.93273">
        <ele>1182</ele>
        <time>2016-12-30T13:02:27.008Z</time>
      </trkpt>
      <trkpt lat="45.05243" lon="2.93267">
        <ele>1182</ele>
        <time>2016-12-30T13:02:28.008Z</time>
      </trkpt>
      <trkpt lat="45.05243" lon="2.9326">
        <ele>1182</ele>
        <time>2016-12-30T13:02:29.008Z</time>
      </trkpt>
      <trkpt lat="45.05243" lon="2.93253">
        <ele>1182.8679952897</ele>
        <time>2016-12-30T13:02:30.008Z</time>
      </trkpt>
      <trkpt lat="45.05243" lon="2.93246">
        <ele>1183</ele>
        <time>2016-12-30T13:02:31.008Z</time>
      </trkpt>
      <trkpt lat="45.05243" lon="2.9324">
        <ele>1183</ele>
        <time>2016-12-30T13:02:32.008Z</time>
      </trkpt>
      <trkpt lat="45.05243" lon="2.93233">
        <ele>1183</ele>
        <time>2016-12-30T13:02:33.008Z</time>
      </trkpt>
      <trkpt lat="45.05244" lon="2.93227">
        <ele>1183</ele>
        <time>2016-12-30T13:02:34.008Z</time>
      </trkpt>
      <trkpt lat="45.05244" lon="2.93213">
        <ele>1183</ele>
        <time>2016-12-30T13:02:36.008Z</time>
      </trkpt>
      <trkpt lat="45.05245" lon="2.93207">
        <ele>1183</ele>
        <time>2016-12-30T13:02:37.008Z</time>
      </trkpt>
      <trkpt lat="45.05246" lon="2.932">
        <ele>1183</ele>
        <time>2016-12-30T13:02:38.008Z</time>
      </trkpt>
      <trkpt lat="45.05248" lon="2.93188">
        <ele>1183.8679952897</ele>
        <time>2016-12-30T13:02:40.008Z</time>
      </trkpt>
      <trkpt lat="45.05249" lon="2.93182">
        <ele>1184</ele>
        <time>2016-12-30T13:02:41.008Z</time>
      </trkpt>
      <trkpt lat="45.0525" lon="2.93176">
        <ele>1184</ele>
        <time>2016-12-30T13:02:42.008Z</time>
      </trkpt>
      <trkpt lat="45.05251" lon="2.9317">
        <ele>1184</ele>
        <time>2016-12-30T13:02:43.008Z</time>
      </trkpt>
      <trkpt lat="45.05253" lon="2.93164">
        <ele>1184</ele>
        <time>2016-12-30T13:02:44.008Z</time>
      </trkpt>
      <trkpt lat="45.05254" lon="2.93158">
        <ele>1184</ele>
        <time>2016-12-30T13:02:45.008Z</time>
      </trkpt>
      <trkpt lat="45.05255" lon="2.93152">
        <ele>1184</ele>
        <time>2016-12-30T13:02:46.008Z</time>
      </trkpt>
      <trkpt lat="45.05256" lon="2.93146">
        <ele>1184</ele>
        <time>2016-12-30T13:02:47.008Z</time>
      </trkpt>
      <trkpt lat="45.05257" lon="2.93133">
        <ele>1184</ele>
        <time>2016-12-30T13:02:49.008Z</time>
      </trkpt>
      <trkpt lat="45.05258" lon="2.93127">
        <ele>1184</ele>
        <time>2016-12-30T13:02:50.008Z</time>
      </trkpt>
      <trkpt lat="45.05259" lon="2.93121">
        <ele>1184</ele>
        <time>2016-12-30T13:02:51.008Z</time>
      </trkpt>
      <trkpt lat="45.0526" lon="2.93115">
        <ele>1184</ele>
        <time>2016-12-30T13:02:52.008Z</time>
      </trkpt>
      <trkpt lat="45.0526" lon="2.93109">
        <ele>1184</ele>
        <time>2016-12-30T13:02:53.008Z</time>
      </trkpt>
      <trkpt lat="45.05261" lon="2.93096">
        <ele>1184</ele>
        <time>2016-12-30T13:02:55.008Z</time>
      </trkpt>
      <trkpt lat="45.05263" lon="2.93084">
        <ele>1184</ele>
        <time>2016-12-30T13:02:57.008Z</time>
      </trkpt>
      <trkpt lat="45.05265" lon="2.93071">
        <ele>1184</ele>
        <time>2016-12-30T13:02:59.008Z</time>
      </trkpt>
      <trkpt lat="45.05268" lon="2.93059">
        <ele>1186</ele>
        <time>2016-12-30T13:03:01.008Z</time>
      </trkpt>
      <trkpt lat="45.05271" lon="2.93047">
        <ele>1186</ele>
        <time>2016-12-30T13:03:03.008Z</time>
      </trkpt>
      <trkpt lat="45.05273" lon="2.93041">
        <ele>1186</ele>
        <time>2016-12-30T13:03:04.008Z</time>
      </trkpt>
      <trkpt lat="45.05276" lon="2.93034">
        <ele>1186</ele>
        <time>2016-12-30T13:03:05.008Z</time>
      </trkpt>
      <trkpt lat="45.05278" lon="2.93028">
        <ele>1186</ele>
        <time>2016-12-30T13:03:06.008Z</time>
      </trkpt>
      <trkpt lat="45.0528" lon="2.93021">
        <ele>1186</ele>
        <time>2016-12-30T13:03:07.008Z</time>
      </trkpt>
      <trkpt lat="45.05283" lon="2.93014">
        <ele>1186</ele>
        <time>2016-12-30T13:03:08.008Z</time>
      </trkpt>
      <trkpt lat="45.05285" lon="2.93007">
        <ele>1186</ele>
        <time>2016-12-30T13:03:09.008Z</time>
      </trkpt>
      <trkpt lat="45.05287" lon="2.93">
        <ele>1185.1320047103</ele>
        <time>2016-12-30T13:03:10.008Z</time>
      </trkpt>
      <trkpt lat="45.05292" lon="2.92987">
        <ele>1185</ele>
        <time>2016-12-30T13:03:12.008Z</time>
      </trkpt>
      <trkpt lat="45.05295" lon="2.92973">
        <ele>1185</ele>
        <time>2016-12-30T13:03:14.008Z</time>
      </trkpt>
      <trkpt lat="45.05296" lon="2.92958">
        <ele>1185</ele>
        <time>2016-12-30T13:03:16.008Z</time>
      </trkpt>
      <trkpt lat="45.05293" lon="2.92945">
        <ele>1185</ele>
        <time>2016-12-30T13:03:18.008Z</time>
      </trkpt>
      <trkpt lat="45.05291" lon="2.92939">
        <ele>1185</ele>
        <time>2016-12-30T13:03:19.008Z</time>
      </trkpt>
      <trkpt lat="45.05288" lon="2.92933">
        <ele>1184.1405958914</ele>
        <time>2016-12-30T13:03:20.008Z</time>
      </trkpt>
      <trkpt lat="45.05286" lon="2.92927">
        <ele>1184</ele>
        <time>2016-12-30T13:03:21.008Z</time>
      </trkpt>
      <trkpt lat="45.0528" lon="2.92917">
        <ele>1184</ele>
        <time>2016-12-30T13:03:23.008Z</time>
      </trkpt>
      <trkpt lat="45.05277" lon="2.92911">
        <ele>1184</ele>
        <time>2016-12-30T13:03:24.008Z</time>
      </trkpt>
      <trkpt lat="45.05274" lon="2.92906">
        <ele>1184</ele>
        <time>2016-12-30T13:03:25.008Z</time>
      </trkpt>
      <trkpt lat="45.05272" lon="2.92901">
        <ele>1184</ele>
        <time>2016-12-30T13:03:26.008Z</time>
      </trkpt>
      <trkpt lat="45.05269" lon="2.92895">
        <ele>1184</ele>
        <time>2016-12-30T13:03:27.008Z</time>
      </trkpt>
      <trkpt lat="45.05266" lon="2.9289">
        <ele>1184</ele>
        <time>2016-12-30T13:03:28.008Z</time>
      </trkpt>
      <trkpt lat="45.05263" lon="2.92884">
        <ele>1184</ele>
        <time>2016-12-30T13:03:29.008Z</time>
      </trkpt>
      <trkpt lat="45.05261" lon="2.92879">
        <ele>1185.7359905793</ele>
        <time>2016-12-30T13:03:30.008Z</time>
      </trkpt>
      <trkpt lat="45.05258" lon="2.92874">
        <ele>1186</ele>
        <time>2016-12-30T13:03:31.008Z</time>
      </trkpt>
      <trkpt lat="45.05255" lon="2.92869">
        <ele>1186</ele>
        <time>2016-12-30T13:03:32.008Z</time>
      </trkpt>
      <trkpt lat="45.05252" lon="2.92864">
        <ele>1186</ele>
        <time>2016-12-30T13:03:33.008Z</time>
      </trkpt>
      <trkpt lat="45.05249" lon="2.92859">
        <ele>1186</ele>
        <time>2016-12-30T13:03:34.008Z</time>
      </trkpt>
      <trkpt lat="45.05246" lon="2.92853">
        <ele>1186</ele>
        <time>2016-12-30T13:03:35.008Z</time>
      </trkpt>
      <trkpt lat="45.05244" lon="2.92848">
        <ele>1186</ele>
        <time>2016-12-30T13:03:36.008Z</time>
      </trkpt>
      <trkpt lat="45.05241" lon="2.92843">
        <ele>1186</ele>
        <time>2016-12-30T13:03:37.008Z</time>
      </trkpt>
      <trkpt lat="45.05238" lon="2.92838">
        <ele>1186</ele>
        <time>2016-12-30T13:03:38.008Z</time>
      </trkpt>
      <trkpt lat="45.05235" lon="2.92832">
        <ele>1186</ele>
        <time>2016-12-30T13:03:39.008Z</time>
      </trkpt>
      <trkpt lat="45.05233" lon="2.92827">
        <ele>1186.8679952897</ele>
        <time>2016-12-30T13:03:40.008Z</time>
      </trkpt>
      <trkpt lat="45.0523" lon="2.92822">
        <ele>1187</ele>
        <time>2016-12-30T13:03:41.008Z</time>
      </trkpt>
      <trkpt lat="45.05227" lon="2.92817">
        <ele>1187</ele>
        <time>2016-12-30T13:03:42.008Z</time>
      </trkpt>
      <trkpt lat="45.05224" lon="2.92811">
        <ele>1187</ele>
        <time>2016-12-30T13:03:43.008Z</time>
      </trkpt>
      <trkpt lat="45.05222" lon="2.92806">
        <ele>1187</ele>
        <time>2016-12-30T13:03:44.008Z</time>
      </trkpt>
      <trkpt lat="45.05219" lon="2.92801">
        <ele>1187</ele>
        <time>2016-12-30T13:03:45.008Z</time>
      </trkpt>
      <trkpt lat="45.05216" lon="2.92796">
        <ele>1187</ele>
        <time>2016-12-30T13:03:46.008Z</time>
      </trkpt>
      <trkpt lat="45.05213" lon="2.92792">
        <ele>1187</ele>
        <time>2016-12-30T13:03:47.008Z</time>
      </trkpt>
      <trkpt lat="45.05211" lon="2.92787">
        <ele>1187</ele>
        <time>2016-12-30T13:03:48.008Z</time>
      </trkpt>
      <trkpt lat="45.05208" lon="2.92782">
        <ele>1187</ele>
        <time>2016-12-30T13:03:49.008Z</time>
      </trkpt>
      <trkpt lat="45.05205" lon="2.92777">
        <ele>1188.7188082173</ele>
        <time>2016-12-30T13:03:50.008Z</time>
      </trkpt>
      <trkpt lat="45.05202" lon="2.92773">
        <ele>1189</ele>
        <time>2016-12-30T13:03:51.008Z</time>
      </trkpt>
      <trkpt lat="45.05199" lon="2.92768">
        <ele>1189</ele>
        <time>2016-12-30T13:03:52.008Z</time>
      </trkpt>
      <trkpt lat="45.05196" lon="2.92764">
        <ele>1189</ele>
        <time>2016-12-30T13:03:53.008Z</time>
      </trkpt>
      <trkpt lat="45.0519" lon="2.92756">
        <ele>1189</ele>
        <time>2016-12-30T13:03:55.008Z</time>
      </trkpt>
      <trkpt lat="45.05186" lon="2.92752">
        <ele>1189</ele>
        <time>2016-12-30T13:03:56.008Z</time>
      </trkpt>
      <trkpt lat="45.05183" lon="2.92748">
        <ele>1189</ele>
        <time>2016-12-30T13:03:57.008Z</time>
      </trkpt>
      <trkpt lat="45.0518" lon="2.92744">
        <ele>1189</ele>
        <time>2016-12-30T13:03:58.008Z</time>
      </trkpt>
      <trkpt lat="45.05176" lon="2.92741">
        <ele>1189</ele>
        <time>2016-12-30T13:03:59.008Z</time>
      </trkpt>
      <trkpt lat="45.05173" lon="2.92737">
        <ele>1191.603985869</ele>
        <time>2016-12-30T13:04:00.008Z</time>
      </trkpt>
      <trkpt lat="45.05169" lon="2.92734">
        <ele>1192</ele>
        <time>2016-12-30T13:04:01.008Z</time>
      </trkpt>
      <trkpt lat="45.05166" lon="2.9273">
        <ele>1192</ele>
        <time>2016-12-30T13:04:02.008Z</time>
      </trkpt>
      <trkpt lat="45.05162" lon="2.92727">
        <ele>1192</ele>
        <time>2016-12-30T13:04:03.008Z</time>
      </trkpt>
      <trkpt lat="45.05159" lon="2.92723">
        <ele>1192</ele>
        <time>2016-12-30T13:04:04.008Z</time>
      </trkpt>
      <trkpt lat="45.05155" lon="2.9272">
        <ele>1192.8680047105</ele>
        <time>2016-12-30T13:04:05.008Z</time>
      </trkpt>
      <trkpt lat="45.05152" lon="2.92717">
        <ele>1193</ele>
        <time>2016-12-30T13:04:06.008Z</time>
      </trkpt>
      <trkpt lat="45.05148" lon="2.92714">
        <ele>1193</ele>
        <time>2016-12-30T13:04:07.008Z</time>
      </trkpt>
      <trkpt lat="45.05145" lon="2.9271">
        <ele>1193</ele>
        <time>2016-12-30T13:04:08.008Z</time>
      </trkpt>
      <trkpt lat="45.05142" lon="2.92707">
        <ele>1193</ele>
        <time>2016-12-30T13:04:09.008Z</time>
      </trkpt>
      <trkpt lat="45.05138" lon="2.92704">
        <ele>1193.8679952897</ele>
        <time>2016-12-30T13:04:10.008Z</time>
      </trkpt>
      <trkpt lat="45.05135" lon="2.92701">
        <ele>1194</ele>
        <time>2016-12-30T13:04:11.008Z</time>
      </trkpt>
      <trkpt lat="45.05132" lon="2.92698">
        <ele>1194</ele>
        <time>2016-12-30T13:04:12.008Z</time>
      </trkpt>
      <trkpt lat="45.05129" lon="2.92694">
        <ele>1194</ele>
        <time>2016-12-30T13:04:13.008Z</time>
      </trkpt>
      <trkpt lat="45.05126" lon="2.92691">
        <ele>1194</ele>
        <time>2016-12-30T13:04:14.008Z</time>
      </trkpt>
      <trkpt lat="45.05122" lon="2.92687">
        <ele>1194</ele>
        <time>2016-12-30T13:04:15.008Z</time>
      </trkpt>
      <trkpt lat="45.05119" lon="2.92684">
        <ele>1194</ele>
        <time>2016-12-30T13:04:16.008Z</time>
      </trkpt>
      <trkpt lat="45.05116" lon="2.9268">
        <ele>1194</ele>
        <time>2016-12-30T13:04:17.008Z</time>
      </trkpt>
      <trkpt lat="45.05113" lon="2.92677">
        <ele>1194</ele>
        <time>2016-12-30T13:04:18.008Z</time>
      </trkpt>
      <trkpt lat="45.05106" lon="2.9267">
        <ele>1194.8594041086</ele>
        <time>2016-12-30T13:04:20.008Z</time>
      </trkpt>
      <trkpt lat="45.051" lon="2.92663">
        <ele>1195</ele>
        <time>2016-12-30T13:04:22.008Z</time>
      </trkpt>
      <trkpt lat="45.05093" lon="2.92657">
        <ele>1195</ele>
        <time>2016-12-30T13:04:24.008Z</time>
      </trkpt>
      <trkpt lat="45.05087" lon="2.92651">
        <ele>1195</ele>
        <time>2016-12-30T13:04:26.008Z</time>
      </trkpt>
      <trkpt lat="45.05081" lon="2.92646">
        <ele>1195</ele>
        <time>2016-12-30T13:04:28.008Z</time>
      </trkpt>
      <trkpt lat="45.05075" lon="2.92639">
        <ele>1196.7188082173</ele>
        <time>2016-12-30T13:04:30.008Z</time>
      </trkpt>
      <trkpt lat="45.05073" lon="2.92636">
        <ele>1197</ele>
        <time>2016-12-30T13:04:31.008Z</time>
      </trkpt>
      <trkpt lat="45.0507" lon="2.92633">
        <ele>1197</ele>
        <time>2016-12-30T13:04:32.008Z</time>
      </trkpt>
      <trkpt lat="45.05067" lon="2.9263">
        <ele>1197</ele>
        <time>2016-12-30T13:04:33.008Z</time>
      </trkpt>
      <trkpt lat="45.05064" lon="2.92627">
        <ele>1197</ele>
        <time>2016-12-30T13:04:34.008Z</time>
      </trkpt>
      <trkpt lat="45.05061" lon="2.92624">
        <ele>1197</ele>
        <time>2016-12-30T13:04:35.008Z</time>
      </trkpt>
      <trkpt lat="45.05059" lon="2.92621">
        <ele>1197</ele>
        <time>2016-12-30T13:04:36.008Z</time>
      </trkpt>
      <trkpt lat="45.05056" lon="2.92618">
        <ele>1197</ele>
        <time>2016-12-30T13:04:37.008Z</time>
      </trkpt>
      <trkpt lat="45.05053" lon="2.92615">
        <ele>1197</ele>
        <time>2016-12-30T13:04:38.008Z</time>
      </trkpt>
      <trkpt lat="45.0505" lon="2.92612">
        <ele>1197</ele>
        <time>2016-12-30T13:04:39.008Z</time>
      </trkpt>
      <trkpt lat="45.05047" lon="2.92609">
        <ele>1198.7359905793</ele>
        <time>2016-12-30T13:04:40.008Z</time>
      </trkpt>
      <trkpt lat="45.05044" lon="2.92606">
        <ele>1199</ele>
        <time>2016-12-30T13:04:41.008Z</time>
      </trkpt>
      <trkpt lat="45.05041" lon="2.92603">
        <ele>1199</ele>
        <time>2016-12-30T13:04:42.008Z</time>
      </trkpt>
      <trkpt lat="45.05038" lon="2.926">
        <ele>1199</ele>
        <time>2016-12-30T13:04:43.008Z</time>
      </trkpt>
      <trkpt lat="45.05033" lon="2.92594">
        <ele>1199</ele>
        <time>2016-12-30T13:04:45.008Z</time>
      </trkpt>
      <trkpt lat="45.05031" lon="2.9259">
        <ele>1199</ele>
        <time>2016-12-30T13:04:46.008Z</time>
      </trkpt>
      <trkpt lat="45.05028" lon="2.92587">
        <ele>1199</ele>
        <time>2016-12-30T13:04:47.008Z</time>
      </trkpt>
      <trkpt lat="45.05026" lon="2.92583">
        <ele>1199</ele>
        <time>2016-12-30T13:04:48.008Z</time>
      </trkpt>
      <trkpt lat="45.05024" lon="2.92578">
        <ele>1199</ele>
        <time>2016-12-30T13:04:49.008Z</time>
      </trkpt>
      <trkpt lat="45.05022" lon="2.92574">
        <ele>1199.8594041086</ele>
        <time>2016-12-30T13:04:50.008Z</time>
      </trkpt>
      <trkpt lat="45.0502" lon="2.92569">
        <ele>1200</ele>
        <time>2016-12-30T13:04:51.008Z</time>
      </trkpt>
      <trkpt lat="45.05018" lon="2.92565">
        <ele>1200</ele>
        <time>2016-12-30T13:04:52.008Z</time>
      </trkpt>
      <trkpt lat="45.05016" lon="2.9256">
        <ele>1200</ele>
        <time>2016-12-30T13:04:53.008Z</time>
      </trkpt>
      <trkpt lat="45.05014" lon="2.92555">
        <ele>1200</ele>
        <time>2016-12-30T13:04:54.008Z</time>
      </trkpt>
      <trkpt lat="45.05012" lon="2.92551">
        <ele>1200</ele>
        <time>2016-12-30T13:04:55.008Z</time>
      </trkpt>
      <trkpt lat="45.05011" lon="2.92546">
        <ele>1200</ele>
        <time>2016-12-30T13:04:56.008Z</time>
      </trkpt>
      <trkpt lat="45.05009" lon="2.92541">
        <ele>1200</ele>
        <time>2016-12-30T13:04:57.008Z</time>
      </trkpt>
      <trkpt lat="45.05008" lon="2.92536">
        <ele>1200</ele>
        <time>2016-12-30T13:04:58.008Z</time>
      </trkpt>
      <trkpt lat="45.05006" lon="2.92531">
        <ele>1200</ele>
        <time>2016-12-30T13:04:59.008Z</time>
      </trkpt>
      <trkpt lat="45.05005" lon="2.92526">
        <ele>1201.7359905793</ele>
        <time>2016-12-30T13:05:00.008Z</time>
      </trkpt>
      <trkpt lat="45.05003" lon="2.92521">
        <ele>1202</ele>
        <time>2016-12-30T13:05:01.008Z</time>
      </trkpt>
      <trkpt lat="45.05002" lon="2.92516">
        <ele>1202</ele>
        <time>2016-12-30T13:05:02.008Z</time>
      </trkpt>
      <trkpt lat="45.05" lon="2.92512">
        <ele>1202</ele>
        <time>2016-12-30T13:05:03.008Z</time>
      </trkpt>
      <trkpt lat="45.04999" lon="2.92507">
        <ele>1202</ele>
        <time>2016-12-30T13:05:04.008Z</time>
      </trkpt>
      <trkpt lat="45.04997" lon="2.92502">
        <ele>1202</ele>
        <time>2016-12-30T13:05:05.008Z</time>
      </trkpt>
      <trkpt lat="45.04996" lon="2.92497">
        <ele>1202</ele>
        <time>2016-12-30T13:05:06.008Z</time>
      </trkpt>
      <trkpt lat="45.04995" lon="2.92492">
        <ele>1202</ele>
        <time>2016-12-30T13:05:07.008Z</time>
      </trkpt>
      <trkpt lat="45.04993" lon="2.92487">
        <ele>1202</ele>
        <time>2016-12-30T13:05:08.008Z</time>
      </trkpt>
      <trkpt lat="45.04992" lon="2.92482">
        <ele>1202</ele>
        <time>2016-12-30T13:05:09.008Z</time>
      </trkpt>
      <trkpt lat="45.04991" lon="2.92477">
        <ele>1203.7359905793</ele>
        <time>2016-12-30T13:05:10.008Z</time>
      </trkpt>
      <trkpt lat="45.04989" lon="2.92472">
        <ele>1204</ele>
        <time>2016-12-30T13:05:11.008Z</time>
      </trkpt>
      <trkpt lat="45.04988" lon="2.92467">
        <ele>1204</ele>
        <time>2016-12-30T13:05:12.008Z</time>
      </trkpt>
      <trkpt lat="45.04986" lon="2.92462">
        <ele>1204</ele>
        <time>2016-12-30T13:05:13.008Z</time>
      </trkpt>
      <trkpt lat="45.04985" lon="2.92457">
        <ele>1204</ele>
        <time>2016-12-30T13:05:14.008Z</time>
      </trkpt>
      <trkpt lat="45.04983" lon="2.92452">
        <ele>1204</ele>
        <time>2016-12-30T13:05:15.008Z</time>
      </trkpt>
      <trkpt lat="45.04982" lon="2.92448">
        <ele>1204</ele>
        <time>2016-12-30T13:05:16.008Z</time>
      </trkpt>
      <trkpt lat="45.0498" lon="2.92443">
        <ele>1204</ele>
        <time>2016-12-30T13:05:17.008Z</time>
      </trkpt>
      <trkpt lat="45.04978" lon="2.92438">
        <ele>1204</ele>
        <time>2016-12-30T13:05:18.008Z</time>
      </trkpt>
      <trkpt lat="45.04976" lon="2.92434">
        <ele>1204</ele>
        <time>2016-12-30T13:05:19.008Z</time>
      </trkpt>
      <trkpt lat="45.04974" lon="2.92429">
        <ele>1206.5782123259</ele>
        <time>2016-12-30T13:05:20.008Z</time>
      </trkpt>
      <trkpt lat="45.04972" lon="2.92425">
        <ele>1207</ele>
        <time>2016-12-30T13:05:21.008Z</time>
      </trkpt>
      <trkpt lat="45.0497" lon="2.9242">
        <ele>1207</ele>
        <time>2016-12-30T13:05:22.008Z</time>
      </trkpt>
      <trkpt lat="45.04968" lon="2.92416">
        <ele>1207</ele>
        <time>2016-12-30T13:05:23.008Z</time>
      </trkpt>
      <trkpt lat="45.04966" lon="2.92411">
        <ele>1207</ele>
        <time>2016-12-30T13:05:24.008Z</time>
      </trkpt>
      <trkpt lat="45.04963" lon="2.92407">
        <ele>1208.7360094209</ele>
        <time>2016-12-30T13:05:25.008Z</time>
      </trkpt>
      <trkpt lat="45.04961" lon="2.92402">
        <ele>1209</ele>
        <time>2016-12-30T13:05:26.008Z</time>
      </trkpt>
      <trkpt lat="45.04957" lon="2.92394">
        <ele>1209</ele>
        <time>2016-12-30T13:05:28.008Z</time>
      </trkpt>
      <trkpt lat="45.04955" lon="2.9239">
        <ele>1209</ele>
        <time>2016-12-30T13:05:29.008Z</time>
      </trkpt>
      <trkpt lat="45.04953" lon="2.92386">
        <ele>1210.733321266</ele>
        <time>2016-12-30T13:05:30.008Z</time>
      </trkpt>
      <trkpt lat="45.04951" lon="2.92381">
        <ele>1211</ele>
        <time>2016-12-30T13:05:31.008Z</time>
      </trkpt>
      <trkpt lat="45.04948" lon="2.92377">
        <ele>1211</ele>
        <time>2016-12-30T13:05:32.008Z</time>
      </trkpt>
      <trkpt lat="45.04946" lon="2.92373">
        <ele>1211</ele>
        <time>2016-12-30T13:05:33.008Z</time>
      </trkpt>
      <trkpt lat="45.04944" lon="2.92369">
        <ele>1211</ele>
        <time>2016-12-30T13:05:34.008Z</time>
      </trkpt>
      <trkpt lat="45.04942" lon="2.92365">
        <ele>1211.8680047105</ele>
        <time>2016-12-30T13:05:35.008Z</time>
      </trkpt>
      <trkpt lat="45.0494" lon="2.92362">
        <ele>1212</ele>
        <time>2016-12-30T13:05:36.008Z</time>
      </trkpt>
      <trkpt lat="45.04938" lon="2.92359">
        <ele>1212</ele>
        <time>2016-12-30T13:05:37.008Z</time>
      </trkpt>
      <trkpt lat="45.04937" lon="2.92356">
        <ele>1212</ele>
        <time>2016-12-30T13:05:38.008Z</time>
      </trkpt>
      <trkpt lat="45.04935" lon="2.92353">
        <ele>1212</ele>
        <time>2016-12-30T13:05:39.008Z</time>
      </trkpt>
      <trkpt lat="45.04933" lon="2.92348">
        <ele>1213</ele>
        <time>2016-12-30T13:05:41.008Z</time>
      </trkpt>
      <trkpt lat="45.04931" lon="2.92344">
        <ele>1213</ele>
        <time>2016-12-30T13:05:43.008Z</time>
      </trkpt>
      <trkpt lat="45.0493" lon="2.92341">
        <ele>1213</ele>
        <time>2016-12-30T13:05:46.008Z</time>
      </trkpt>
      <trkpt lat="45.04928" lon="2.92338">
        <ele>1213</ele>
        <time>2016-12-30T13:05:52.008Z</time>
      </trkpt>
      <trkpt lat="45.04926" lon="2.92335">
        <ele>1213</ele>
        <time>2016-12-30T13:05:53.008Z</time>
      </trkpt>
      <trkpt lat="45.04924" lon="2.92331">
        <ele>1213</ele>
        <time>2016-12-30T13:05:54.008Z</time>
      </trkpt>
      <trkpt lat="45.04922" lon="2.92327">
        <ele>1213</ele>
        <time>2016-12-30T13:05:55.008Z</time>
      </trkpt>
      <trkpt lat="45.0492" lon="2.92323">
        <ele>1213</ele>
        <time>2016-12-30T13:05:56.008Z</time>
      </trkpt>
      <trkpt lat="45.04917" lon="2.92319">
        <ele>1213</ele>
        <time>2016-12-30T13:05:57.008Z</time>
      </trkpt>
      <trkpt lat="45.04915" lon="2.92314">
        <ele>1213</ele>
        <time>2016-12-30T13:05:58.008Z</time>
      </trkpt>
      <trkpt lat="45.04913" lon="2.9231">
        <ele>1213</ele>
        <time>2016-12-30T13:05:59.008Z</time>
      </trkpt>
      <trkpt lat="45.04911" lon="2.92306">
        <ele>1214.7359905793</ele>
        <time>2016-12-30T13:06:00.008Z</time>
      </trkpt>
      <trkpt lat="45.04909" lon="2.92301">
        <ele>1215</ele>
        <time>2016-12-30T13:06:01.008Z</time>
      </trkpt>
      <trkpt lat="45.04906" lon="2.92297">
        <ele>1215</ele>
        <time>2016-12-30T13:06:02.008Z</time>
      </trkpt>
      <trkpt lat="45.04904" lon="2.92293">
        <ele>1215</ele>
        <time>2016-12-30T13:06:03.008Z</time>
      </trkpt>
      <trkpt lat="45.04901" lon="2.92289">
        <ele>1215</ele>
        <time>2016-12-30T13:06:04.008Z</time>
      </trkpt>
      <trkpt lat="45.04899" lon="2.92284">
        <ele>1215</ele>
        <time>2016-12-30T13:06:05.008Z</time>
      </trkpt>
      <trkpt lat="45.04897" lon="2.9228">
        <ele>1215</ele>
        <time>2016-12-30T13:06:06.008Z</time>
      </trkpt>
      <trkpt lat="45.04895" lon="2.92275">
        <ele>1215</ele>
        <time>2016-12-30T13:06:07.008Z</time>
      </trkpt>
      <trkpt lat="45.04892" lon="2.92271">
        <ele>1215</ele>
        <time>2016-12-30T13:06:08.008Z</time>
      </trkpt>
      <trkpt lat="45.0489" lon="2.92266">
        <ele>1215</ele>
        <time>2016-12-30T13:06:09.008Z</time>
      </trkpt>
      <trkpt lat="45.04888" lon="2.92262">
        <ele>1215</ele>
        <time>2016-12-30T13:06:10.008Z</time>
      </trkpt>
      <trkpt lat="45.04885" lon="2.92258">
        <ele>1215</ele>
        <time>2016-12-30T13:06:11.008Z</time>
      </trkpt>
      <trkpt lat="45.04883" lon="2.92253">
        <ele>1215</ele>
        <time>2016-12-30T13:06:12.008Z</time>
      </trkpt>
      <trkpt lat="45.04881" lon="2.92249">
        <ele>1215</ele>
        <time>2016-12-30T13:06:13.008Z</time>
      </trkpt>
      <trkpt lat="45.04878" lon="2.92244">
        <ele>1215</ele>
        <time>2016-12-30T13:06:14.008Z</time>
      </trkpt>
      <trkpt lat="45.04876" lon="2.9224">
        <ele>1215</ele>
        <time>2016-12-30T13:06:15.008Z</time>
      </trkpt>
      <trkpt lat="45.04874" lon="2.92235">
        <ele>1215</ele>
        <time>2016-12-30T13:06:16.008Z</time>
      </trkpt>
      <trkpt lat="45.04871" lon="2.9223">
        <ele>1215</ele>
        <time>2016-12-30T13:06:17.008Z</time>
      </trkpt>
      <trkpt lat="45.04869" lon="2.92225">
        <ele>1215</ele>
        <time>2016-12-30T13:06:18.008Z</time>
      </trkpt>
      <trkpt lat="45.04866" lon="2.92221">
        <ele>1215</ele>
        <time>2016-12-30T13:06:19.008Z</time>
      </trkpt>
      <trkpt lat="45.04864" lon="2.92216">
        <ele>1215.8594041086</ele>
        <time>2016-12-30T13:06:20.008Z</time>
      </trkpt>
      <trkpt lat="45.04861" lon="2.92211">
        <ele>1216</ele>
        <time>2016-12-30T13:06:21.008Z</time>
      </trkpt>
      <trkpt lat="45.04859" lon="2.92207">
        <ele>1216</ele>
        <time>2016-12-30T13:06:22.008Z</time>
      </trkpt>
      <trkpt lat="45.04856" lon="2.92202">
        <ele>1216</ele>
        <time>2016-12-30T13:06:23.008Z</time>
      </trkpt>
      <trkpt lat="45.04853" lon="2.92197">
        <ele>1216</ele>
        <time>2016-12-30T13:06:24.008Z</time>
      </trkpt>
      <trkpt lat="45.04851" lon="2.92192">
        <ele>1216</ele>
        <time>2016-12-30T13:06:25.008Z</time>
      </trkpt>
      <trkpt lat="45.04848" lon="2.92188">
        <ele>1216</ele>
        <time>2016-12-30T13:06:26.008Z</time>
      </trkpt>
      <trkpt lat="45.04846" lon="2.92183">
        <ele>1216</ele>
        <time>2016-12-30T13:06:27.008Z</time>
      </trkpt>
      <trkpt lat="45.04843" lon="2.92178">
        <ele>1216</ele>
        <time>2016-12-30T13:06:28.008Z</time>
      </trkpt>
      <trkpt lat="45.04841" lon="2.92173">
        <ele>1216</ele>
        <time>2016-12-30T13:06:29.008Z</time>
      </trkpt>
      <trkpt lat="45.04838" lon="2.92168">
        <ele>1217.7359905793</ele>
        <time>2016-12-30T13:06:30.008Z</time>
      </trkpt>
      <trkpt lat="45.04836" lon="2.92163">
        <ele>1218</ele>
        <time>2016-12-30T13:06:31.008Z</time>
      </trkpt>
      <trkpt lat="45.04833" lon="2.92158">
        <ele>1218</ele>
        <time>2016-12-30T13:06:32.008Z</time>
      </trkpt>
      <trkpt lat="45.0483" lon="2.92153">
        <ele>1218</ele>
        <time>2016-12-30T13:06:33.008Z</time>
      </trkpt>
      <trkpt lat="45.04828" lon="2.92147">
        <ele>1218</ele>
        <time>2016-12-30T13:06:34.008Z</time>
      </trkpt>
      <trkpt lat="45.04825" lon="2.92142">
        <ele>1218</ele>
        <time>2016-12-30T13:06:35.008Z</time>
      </trkpt>
      <trkpt lat="45.04822" lon="2.92136">
        <ele>1218</ele>
        <time>2016-12-30T13:06:36.008Z</time>
      </trkpt>
      <trkpt lat="45.04819" lon="2.92131">
        <ele>1218</ele>
        <time>2016-12-30T13:06:37.008Z</time>
      </trkpt>
      <trkpt lat="45.04816" lon="2.92125">
        <ele>1218</ele>
        <time>2016-12-30T13:06:38.008Z</time>
      </trkpt>
      <trkpt lat="45.04812" lon="2.9212">
        <ele>1218</ele>
        <time>2016-12-30T13:06:39.008Z</time>
      </trkpt>
      <trkpt lat="45.04809" lon="2.92116">
        <ele>1218</ele>
        <time>2016-12-30T13:06:40.008Z</time>
      </trkpt>
      <trkpt lat="45.04804" lon="2.92112">
        <ele>1218</ele>
        <time>2016-12-30T13:06:41.008Z</time>
      </trkpt>
      <trkpt lat="45.048" lon="2.92108">
        <ele>1218</ele>
        <time>2016-12-30T13:06:42.008Z</time>
      </trkpt>
      <trkpt lat="45.04791" lon="2.92102">
        <ele>1218</ele>
        <time>2016-12-30T13:06:44.008Z</time>
      </trkpt>
      <trkpt lat="45.04785" lon="2.92099">
        <ele>1218</ele>
        <time>2016-12-30T13:06:45.008Z</time>
      </trkpt>
      <trkpt lat="45.0478" lon="2.92095">
        <ele>1218</ele>
        <time>2016-12-30T13:06:46.008Z</time>
      </trkpt>
      <trkpt lat="45.04775" lon="2.92092">
        <ele>1218</ele>
        <time>2016-12-30T13:06:47.008Z</time>
      </trkpt>
      <trkpt lat="45.0477" lon="2.92088">
        <ele>1218</ele>
        <time>2016-12-30T13:06:48.008Z</time>
      </trkpt>
      <trkpt lat="45.04766" lon="2.92083">
        <ele>1218</ele>
        <time>2016-12-30T13:06:49.008Z</time>
      </trkpt>
      <trkpt lat="45.04764" lon="2.92076">
        <ele>1217.1405958914</ele>
        <time>2016-12-30T13:06:50.008Z</time>
      </trkpt>
      <trkpt lat="45.04764" lon="2.92069">
        <ele>1217</ele>
        <time>2016-12-30T13:06:51.008Z</time>
      </trkpt>
      <trkpt lat="45.04767" lon="2.92058">
        <ele>1217</ele>
        <time>2016-12-30T13:06:53.008Z</time>
      </trkpt>
      <trkpt lat="45.04772" lon="2.92051">
        <ele>1217</ele>
        <time>2016-12-30T13:06:55.008Z</time>
      </trkpt>
      <trkpt lat="45.04776" lon="2.92044">
        <ele>1217</ele>
        <time>2016-12-30T13:06:57.008Z</time>
      </trkpt>
      <trkpt lat="45.04782" lon="2.92032">
        <ele>1217</ele>
        <time>2016-12-30T13:07:00.008Z</time>
      </trkpt>
      <trkpt lat="45.04786" lon="2.92025">
        <ele>1217</ele>
        <time>2016-12-30T13:07:02.008Z</time>
      </trkpt>
      <trkpt lat="45.0479" lon="2.92018">
        <ele>1217</ele>
        <time>2016-12-30T13:07:04.008Z</time>
      </trkpt>
      <trkpt lat="45.04795" lon="2.92011">
        <ele>1217</ele>
        <time>2016-12-30T13:07:06.008Z</time>
      </trkpt>
      <trkpt lat="45.04802" lon="2.92">
        <ele>1217</ele>
        <time>2016-12-30T13:07:09.008Z</time>
      </trkpt>
      <trkpt lat="45.04807" lon="2.91994">
        <ele>1219</ele>
        <time>2016-12-30T13:07:11.008Z</time>
      </trkpt>
      <trkpt lat="45.0481" lon="2.91991">
        <ele>1219</ele>
        <time>2016-12-30T13:07:12.008Z</time>
      </trkpt>
      <trkpt lat="45.04813" lon="2.91988">
        <ele>1219</ele>
        <time>2016-12-30T13:07:13.008Z</time>
      </trkpt>
      <trkpt lat="45.04816" lon="2.91985">
        <ele>1219</ele>
        <time>2016-12-30T13:07:14.008Z</time>
      </trkpt>
      <trkpt lat="45.04819" lon="2.91982">
        <ele>1219</ele>
        <time>2016-12-30T13:07:15.008Z</time>
      </trkpt>
      <trkpt lat="45.04822" lon="2.9198">
        <ele>1219</ele>
        <time>2016-12-30T13:07:16.008Z</time>
      </trkpt>
      <trkpt lat="45.04825" lon="2.91977">
        <ele>1219</ele>
        <time>2016-12-30T13:07:17.008Z</time>
      </trkpt>
      <trkpt lat="45.04829" lon="2.91975">
        <ele>1219</ele>
        <time>2016-12-30T13:07:18.008Z</time>
      </trkpt>
      <trkpt lat="45.04832" lon="2.91973">
        <ele>1219</ele>
        <time>2016-12-30T13:07:19.008Z</time>
      </trkpt>
      <trkpt lat="45.04836" lon="2.91971">
        <ele>1219.8594041086</ele>
        <time>2016-12-30T13:07:20.008Z</time>
      </trkpt>
      <trkpt lat="45.04839" lon="2.91969">
        <ele>1220</ele>
        <time>2016-12-30T13:07:21.008Z</time>
      </trkpt>
      <trkpt lat="45.04843" lon="2.91967">
        <ele>1220</ele>
        <time>2016-12-30T13:07:22.008Z</time>
      </trkpt>
      <trkpt lat="45.04846" lon="2.91965">
        <ele>1220</ele>
        <time>2016-12-30T13:07:23.008Z</time>
      </trkpt>
      <trkpt lat="45.0485" lon="2.91964">
        <ele>1220</ele>
        <time>2016-12-30T13:07:24.008Z</time>
      </trkpt>
      <trkpt lat="45.04854" lon="2.91964">
        <ele>1220</ele>
        <time>2016-12-30T13:07:25.008Z</time>
      </trkpt>
      <trkpt lat="45.04857" lon="2.91965">
        <ele>1220</ele>
        <time>2016-12-30T13:07:26.008Z</time>
      </trkpt>
      <trkpt lat="45.04861" lon="2.91968">
        <ele>1220</ele>
        <time>2016-12-30T13:07:27.008Z</time>
      </trkpt>
      <trkpt lat="45.04863" lon="2.91973">
        <ele>1220</ele>
        <time>2016-12-30T13:07:28.008Z</time>
      </trkpt>
      <trkpt lat="45.04868" lon="2.91986">
        <ele>1221</ele>
        <time>2016-12-30T13:07:31.008Z</time>
      </trkpt>
      <trkpt lat="45.04874" lon="2.92003">
        <ele>1221</ele>
        <time>2016-12-30T13:07:34.008Z</time>
      </trkpt>
      <trkpt lat="45.04882" lon="2.92015">
        <ele>1221</ele>
        <time>2016-12-30T13:07:37.008Z</time>
      </trkpt>
      <trkpt lat="45.04892" lon="2.9202">
        <ele>1222.7359905793</ele>
        <time>2016-12-30T13:07:40.008Z</time>
      </trkpt>
      <trkpt lat="45.04902" lon="2.92023">
        <ele>1223</ele>
        <time>2016-12-30T13:07:43.008Z</time>
      </trkpt>
      <trkpt lat="45.04912" lon="2.92024">
        <ele>1223</ele>
        <time>2016-12-30T13:07:46.008Z</time>
      </trkpt>
      <trkpt lat="45.04919" lon="2.92027">
        <ele>1223</ele>
        <time>2016-12-30T13:07:57.008Z</time>
      </trkpt>
      <trkpt lat="45.04929" lon="2.92031">
        <ele>1222</ele>
        <time>2016-12-30T13:08:09.008Z</time>
      </trkpt>
      <trkpt lat="45.04939" lon="2.92033">
        <ele>1224</ele>
        <time>2016-12-30T13:08:12.008Z</time>
      </trkpt>
      <trkpt lat="45.04947" lon="2.92034">
        <ele>1224</ele>
        <time>2016-12-30T13:08:14.008Z</time>
      </trkpt>
      <trkpt lat="45.04952" lon="2.92035">
        <ele>1224</ele>
        <time>2016-12-30T13:08:15.008Z</time>
      </trkpt>
      <trkpt lat="45.0496" lon="2.92036">
        <ele>1224</ele>
        <time>2016-12-30T13:08:17.008Z</time>
      </trkpt>
      <trkpt lat="45.04969" lon="2.92038">
        <ele>1224</ele>
        <time>2016-12-30T13:08:19.008Z</time>
      </trkpt>
      <trkpt lat="45.04978" lon="2.92039">
        <ele>1226</ele>
        <time>2016-12-30T13:08:21.008Z</time>
      </trkpt>
      <trkpt lat="45.04987" lon="2.92041">
        <ele>1226</ele>
        <time>2016-12-30T13:08:23.008Z</time>
      </trkpt>
      <trkpt lat="45.04997" lon="2.92043">
        <ele>1226</ele>
        <time>2016-12-30T13:08:25.008Z</time>
      </trkpt>
      <trkpt lat="45.05007" lon="2.92044">
        <ele>1226</ele>
        <time>2016-12-30T13:08:27.008Z</time>
      </trkpt>
      <trkpt lat="45.05017" lon="2.92042">
        <ele>1226</ele>
        <time>2016-12-30T13:08:29.008Z</time>
      </trkpt>
      <trkpt lat="45.05025" lon="2.92036">
        <ele>1227</ele>
        <time>2016-12-30T13:08:31.008Z</time>
      </trkpt>
      <trkpt lat="45.05032" lon="2.92027">
        <ele>1227</ele>
        <time>2016-12-30T13:08:33.008Z</time>
      </trkpt>
      <trkpt lat="45.05034" lon="2.92022">
        <ele>1227</ele>
        <time>2016-12-30T13:08:34.008Z</time>
      </trkpt>
      <trkpt lat="45.05036" lon="2.92016">
        <ele>1227</ele>
        <time>2016-12-30T13:08:35.008Z</time>
      </trkpt>
      <trkpt lat="45.05037" lon="2.9201">
        <ele>1227</ele>
        <time>2016-12-30T13:08:36.008Z</time>
      </trkpt>
      <trkpt lat="45.0504" lon="2.91999">
        <ele>1227</ele>
        <time>2016-12-30T13:08:38.008Z</time>
      </trkpt>
      <trkpt lat="45.05043" lon="2.91987">
        <ele>1227.8679952897</ele>
        <time>2016-12-30T13:08:40.008Z</time>
      </trkpt>
      <trkpt lat="45.05045" lon="2.91976">
        <ele>1228</ele>
        <time>2016-12-30T13:08:42.008Z</time>
      </trkpt>
      <trkpt lat="45.05048" lon="2.91965">
        <ele>1228</ele>
        <time>2016-12-30T13:08:44.008Z</time>
      </trkpt>
      <trkpt lat="45.0505" lon="2.91953">
        <ele>1228</ele>
        <time>2016-12-30T13:08:46.008Z</time>
      </trkpt>
      <trkpt lat="45.05053" lon="2.91941">
        <ele>1228</ele>
        <time>2016-12-30T13:08:48.008Z</time>
      </trkpt>
      <trkpt lat="45.05054" lon="2.91935">
        <ele>1228</ele>
        <time>2016-12-30T13:08:49.008Z</time>
      </trkpt>
      <trkpt lat="45.05055" lon="2.91929">
        <ele>1229.7188082173</ele>
        <time>2016-12-30T13:08:50.008Z</time>
      </trkpt>
      <trkpt lat="45.05057" lon="2.91922">
        <ele>1230</ele>
        <time>2016-12-30T13:08:51.008Z</time>
      </trkpt>
      <trkpt lat="45.05058" lon="2.91916">
        <ele>1230</ele>
        <time>2016-12-30T13:08:52.008Z</time>
      </trkpt>
      <trkpt lat="45.05059" lon="2.9191">
        <ele>1230</ele>
        <time>2016-12-30T13:08:53.008Z</time>
      </trkpt>
      <trkpt lat="45.05061" lon="2.91903">
        <ele>1230</ele>
        <time>2016-12-30T13:08:54.008Z</time>
      </trkpt>
      <trkpt lat="45.05063" lon="2.9189">
        <ele>1230</ele>
        <time>2016-12-30T13:08:56.008Z</time>
      </trkpt>
      <trkpt lat="45.05065" lon="2.91877">
        <ele>1230</ele>
        <time>2016-12-30T13:08:58.008Z</time>
      </trkpt>
      <trkpt lat="45.05066" lon="2.91871">
        <ele>1230</ele>
        <time>2016-12-30T13:08:59.008Z</time>
      </trkpt>
      <trkpt lat="45.05068" lon="2.91864">
        <ele>1230.8679952897</ele>
        <time>2016-12-30T13:09:00.008Z</time>
      </trkpt>
      <trkpt lat="45.05069" lon="2.91858">
        <ele>1231</ele>
        <time>2016-12-30T13:09:01.008Z</time>
      </trkpt>
      <trkpt lat="45.0507" lon="2.91851">
        <ele>1231</ele>
        <time>2016-12-30T13:09:02.008Z</time>
      </trkpt>
      <trkpt lat="45.05071" lon="2.91845">
        <ele>1231</ele>
        <time>2016-12-30T13:09:03.008Z</time>
      </trkpt>
      <trkpt lat="45.05072" lon="2.91839">
        <ele>1231</ele>
        <time>2016-12-30T13:09:04.008Z</time>
      </trkpt>
      <trkpt lat="45.05073" lon="2.91833">
        <ele>1231</ele>
        <time>2016-12-30T13:09:05.008Z</time>
      </trkpt>
      <trkpt lat="45.05074" lon="2.91827">
        <ele>1231</ele>
        <time>2016-12-30T13:09:06.008Z</time>
      </trkpt>
      <trkpt lat="45.05075" lon="2.91821">
        <ele>1231</ele>
        <time>2016-12-30T13:09:07.008Z</time>
      </trkpt>
      <trkpt lat="45.05076" lon="2.91815">
        <ele>1231</ele>
        <time>2016-12-30T13:09:08.008Z</time>
      </trkpt>
      <trkpt lat="45.05077" lon="2.91809">
        <ele>1231</ele>
        <time>2016-12-30T13:09:09.008Z</time>
      </trkpt>
      <trkpt lat="45.05079" lon="2.91803">
        <ele>1232.7359905793</ele>
        <time>2016-12-30T13:09:10.008Z</time>
      </trkpt>
      <trkpt lat="45.0508" lon="2.91797">
        <ele>1233</ele>
        <time>2016-12-30T13:09:11.008Z</time>
      </trkpt>
      <trkpt lat="45.05082" lon="2.91785">
        <ele>1233</ele>
        <time>2016-12-30T13:09:13.008Z</time>
      </trkpt>
      <trkpt lat="45.05083" lon="2.9178">
        <ele>1233</ele>
        <time>2016-12-30T13:09:14.008Z</time>
      </trkpt>
      <trkpt lat="45.05084" lon="2.91774">
        <ele>1233</ele>
        <time>2016-12-30T13:09:15.008Z</time>
      </trkpt>
      <trkpt lat="45.05086" lon="2.91768">
        <ele>1233</ele>
        <time>2016-12-30T13:09:16.008Z</time>
      </trkpt>
      <trkpt lat="45.05087" lon="2.91762">
        <ele>1233</ele>
        <time>2016-12-30T13:09:17.008Z</time>
      </trkpt>
      <trkpt lat="45.05087" lon="2.91756">
        <ele>1233</ele>
        <time>2016-12-30T13:09:18.008Z</time>
      </trkpt>
      <trkpt lat="45.05088" lon="2.9175">
        <ele>1233</ele>
        <time>2016-12-30T13:09:19.008Z</time>
      </trkpt>
      <trkpt lat="45.05089" lon="2.91744">
        <ele>1235.5782123259</ele>
        <time>2016-12-30T13:09:20.008Z</time>
      </trkpt>
      <trkpt lat="45.05089" lon="2.91738">
        <ele>1236</ele>
        <time>2016-12-30T13:09:21.008Z</time>
      </trkpt>
      <trkpt lat="45.0509" lon="2.91732">
        <ele>1236</ele>
        <time>2016-12-30T13:09:22.008Z</time>
      </trkpt>
      <trkpt lat="45.0509" lon="2.91721">
        <ele>1236</ele>
        <time>2016-12-30T13:09:24.008Z</time>
      </trkpt>
      <trkpt lat="45.05089" lon="2.9171">
        <ele>1237</ele>
        <time>2016-12-30T13:09:26.008Z</time>
      </trkpt>
      <trkpt lat="45.05089" lon="2.91704">
        <ele>1237</ele>
        <time>2016-12-30T13:09:27.008Z</time>
      </trkpt>
      <trkpt lat="45.05088" lon="2.91699">
        <ele>1237</ele>
        <time>2016-12-30T13:09:28.008Z</time>
      </trkpt>
      <trkpt lat="45.05088" lon="2.91694">
        <ele>1237</ele>
        <time>2016-12-30T13:09:29.008Z</time>
      </trkpt>
      <trkpt lat="45.05087" lon="2.91689">
        <ele>1238.7359905793</ele>
        <time>2016-12-30T13:09:30.008Z</time>
      </trkpt>
      <trkpt lat="45.05086" lon="2.91683">
        <ele>1239</ele>
        <time>2016-12-30T13:09:31.008Z</time>
      </trkpt>
      <trkpt lat="45.05086" lon="2.91678">
        <ele>1239</ele>
        <time>2016-12-30T13:09:32.008Z</time>
      </trkpt>
      <trkpt lat="45.05085" lon="2.91673">
        <ele>1239</ele>
        <time>2016-12-30T13:09:33.008Z</time>
      </trkpt>
      <trkpt lat="45.05084" lon="2.91667">
        <ele>1239</ele>
        <time>2016-12-30T13:09:34.008Z</time>
      </trkpt>
      <trkpt lat="45.05084" lon="2.91662">
        <ele>1240.7360094209</ele>
        <time>2016-12-30T13:09:35.008Z</time>
      </trkpt>
      <trkpt lat="45.05083" lon="2.91658">
        <ele>1241</ele>
        <time>2016-12-30T13:09:36.008Z</time>
      </trkpt>
      <trkpt lat="45.05083" lon="2.91653">
        <ele>1241</ele>
        <time>2016-12-30T13:09:37.008Z</time>
      </trkpt>
      <trkpt lat="45.05082" lon="2.91648">
        <ele>1241</ele>
        <time>2016-12-30T13:09:38.008Z</time>
      </trkpt>
      <trkpt lat="45.05082" lon="2.91643">
        <ele>1241</ele>
        <time>2016-12-30T13:09:39.008Z</time>
      </trkpt>
      <trkpt lat="45.05082" lon="2.91634">
        <ele>1243</ele>
        <time>2016-12-30T13:09:41.008Z</time>
      </trkpt>
      <trkpt lat="45.05083" lon="2.91625">
        <ele>1243</ele>
        <time>2016-12-30T13:09:43.008Z</time>
      </trkpt>
      <trkpt lat="45.05084" lon="2.91616">
        <ele>1244.7333436769</ele>
        <time>2016-12-30T13:09:45.008Z</time>
      </trkpt>
      <trkpt lat="45.05087" lon="2.91607">
        <ele>1245</ele>
        <time>2016-12-30T13:09:47.008Z</time>
      </trkpt>
      <trkpt lat="45.05089" lon="2.91598">
        <ele>1245</ele>
        <time>2016-12-30T13:09:49.008Z</time>
      </trkpt>
      <trkpt lat="45.05092" lon="2.91589">
        <ele>1246</ele>
        <time>2016-12-30T13:09:51.008Z</time>
      </trkpt>
      <trkpt lat="45.05095" lon="2.91579">
        <ele>1246</ele>
        <time>2016-12-30T13:09:53.008Z</time>
      </trkpt>
      <trkpt lat="45.05098" lon="2.9157">
        <ele>1246</ele>
        <time>2016-12-30T13:09:55.008Z</time>
      </trkpt>
      <trkpt lat="45.05101" lon="2.91561">
        <ele>1246</ele>
        <time>2016-12-30T13:09:57.008Z</time>
      </trkpt>
      <trkpt lat="45.05105" lon="2.91552">
        <ele>1246</ele>
        <time>2016-12-30T13:09:59.008Z</time>
      </trkpt>
      <trkpt lat="45.0511" lon="2.91543">
        <ele>1247</ele>
        <time>2016-12-30T13:10:01.008Z</time>
      </trkpt>
      <trkpt lat="45.05114" lon="2.91533">
        <ele>1247</ele>
        <time>2016-12-30T13:10:03.008Z</time>
      </trkpt>
      <trkpt lat="45.05116" lon="2.91528">
        <ele>1247</ele>
        <time>2016-12-30T13:10:04.008Z</time>
      </trkpt>
      <trkpt lat="45.05118" lon="2.91522">
        <ele>1247</ele>
        <time>2016-12-30T13:10:05.008Z</time>
      </trkpt>
      <trkpt lat="45.0512" lon="2.91516">
        <ele>1247</ele>
        <time>2016-12-30T13:10:06.008Z</time>
      </trkpt>
      <trkpt lat="45.05122" lon="2.9151">
        <ele>1247</ele>
        <time>2016-12-30T13:10:07.008Z</time>
      </trkpt>
      <trkpt lat="45.05123" lon="2.91504">
        <ele>1247</ele>
        <time>2016-12-30T13:10:08.008Z</time>
      </trkpt>
      <trkpt lat="45.05125" lon="2.91497">
        <ele>1247</ele>
        <time>2016-12-30T13:10:09.008Z</time>
      </trkpt>
      <trkpt lat="45.05126" lon="2.91491">
        <ele>1247</ele>
        <time>2016-12-30T13:10:10.008Z</time>
      </trkpt>
      <trkpt lat="45.05127" lon="2.91484">
        <ele>1247</ele>
        <time>2016-12-30T13:10:11.008Z</time>
      </trkpt>
      <trkpt lat="45.05128" lon="2.91477">
        <ele>1247</ele>
        <time>2016-12-30T13:10:12.008Z</time>
      </trkpt>
      <trkpt lat="45.05128" lon="2.91471">
        <ele>1247</ele>
        <time>2016-12-30T13:10:13.008Z</time>
      </trkpt>
      <trkpt lat="45.05129" lon="2.91464">
        <ele>1247</ele>
        <time>2016-12-30T13:10:14.008Z</time>
      </trkpt>
      <trkpt lat="45.0513" lon="2.91458">
        <ele>1247</ele>
        <time>2016-12-30T13:10:15.008Z</time>
      </trkpt>
      <trkpt lat="45.0513" lon="2.91452">
        <ele>1247</ele>
        <time>2016-12-30T13:10:16.008Z</time>
      </trkpt>
      <trkpt lat="45.05131" lon="2.91446">
        <ele>1247</ele>
        <time>2016-12-30T13:10:17.008Z</time>
      </trkpt>
      <trkpt lat="45.05132" lon="2.9144">
        <ele>1247</ele>
        <time>2016-12-30T13:10:18.008Z</time>
      </trkpt>
      <trkpt lat="45.05132" lon="2.91433">
        <ele>1247</ele>
        <time>2016-12-30T13:10:19.008Z</time>
      </trkpt>
      <trkpt lat="45.05132" lon="2.91427">
        <ele>1247.8594041086</ele>
        <time>2016-12-30T13:10:20.008Z</time>
      </trkpt>
      <trkpt lat="45.05132" lon="2.9142">
        <ele>1248</ele>
        <time>2016-12-30T13:10:21.008Z</time>
      </trkpt>
      <trkpt lat="45.05133" lon="2.91413">
        <ele>1248</ele>
        <time>2016-12-30T13:10:22.008Z</time>
      </trkpt>
      <trkpt lat="45.05133" lon="2.91406">
        <ele>1248</ele>
        <time>2016-12-30T13:10:23.008Z</time>
      </trkpt>
      <trkpt lat="45.05133" lon="2.91399">
        <ele>1248</ele>
        <time>2016-12-30T13:10:24.008Z</time>
      </trkpt>
      <trkpt lat="45.05133" lon="2.91393">
        <ele>1248</ele>
        <time>2016-12-30T13:10:25.008Z</time>
      </trkpt>
      <trkpt lat="45.05134" lon="2.91386">
        <ele>1248</ele>
        <time>2016-12-30T13:10:26.008Z</time>
      </trkpt>
      <trkpt lat="45.05134" lon="2.9138">
        <ele>1248</ele>
        <time>2016-12-30T13:10:27.008Z</time>
      </trkpt>
      <trkpt lat="45.05134" lon="2.91373">
        <ele>1248</ele>
        <time>2016-12-30T13:10:28.008Z</time>
      </trkpt>
      <trkpt lat="45.05135" lon="2.91367">
        <ele>1248</ele>
        <time>2016-12-30T13:10:29.008Z</time>
      </trkpt>
      <trkpt lat="45.05135" lon="2.91361">
        <ele>1249.7359905793</ele>
        <time>2016-12-30T13:10:30.008Z</time>
      </trkpt>
      <trkpt lat="45.05134" lon="2.91354">
        <ele>1250</ele>
        <time>2016-12-30T13:10:31.008Z</time>
      </trkpt>
      <trkpt lat="45.05134" lon="2.91348">
        <ele>1250</ele>
        <time>2016-12-30T13:10:32.008Z</time>
      </trkpt>
      <trkpt lat="45.05134" lon="2.91342">
        <ele>1250</ele>
        <time>2016-12-30T13:10:33.008Z</time>
      </trkpt>
      <trkpt lat="45.05134" lon="2.91336">
        <ele>1250</ele>
        <time>2016-12-30T13:10:34.008Z</time>
      </trkpt>
      <trkpt lat="45.05133" lon="2.9133">
        <ele>1250</ele>
        <time>2016-12-30T13:10:35.008Z</time>
      </trkpt>
      <trkpt lat="45.05132" lon="2.91324">
        <ele>1250</ele>
        <time>2016-12-30T13:10:36.008Z</time>
      </trkpt>
      <trkpt lat="45.05131" lon="2.91318">
        <ele>1250</ele>
        <time>2016-12-30T13:10:37.008Z</time>
      </trkpt>
      <trkpt lat="45.05131" lon="2.91312">
        <ele>1250</ele>
        <time>2016-12-30T13:10:38.008Z</time>
      </trkpt>
      <trkpt lat="45.0513" lon="2.91306">
        <ele>1250</ele>
        <time>2016-12-30T13:10:39.008Z</time>
      </trkpt>
      <trkpt lat="45.0513" lon="2.913">
        <ele>1250.8679952897</ele>
        <time>2016-12-30T13:10:40.008Z</time>
      </trkpt>
      <trkpt lat="45.05129" lon="2.91294">
        <ele>1251</ele>
        <time>2016-12-30T13:10:41.008Z</time>
      </trkpt>
      <trkpt lat="45.05129" lon="2.91289">
        <ele>1251</ele>
        <time>2016-12-30T13:10:42.008Z</time>
      </trkpt>
      <trkpt lat="45.05128" lon="2.91283">
        <ele>1251</ele>
        <time>2016-12-30T13:10:43.008Z</time>
      </trkpt>
      <trkpt lat="45.05128" lon="2.91277">
        <ele>1251</ele>
        <time>2016-12-30T13:10:44.008Z</time>
      </trkpt>
      <trkpt lat="45.05128" lon="2.91271">
        <ele>1251</ele>
        <time>2016-12-30T13:10:45.008Z</time>
      </trkpt>
      <trkpt lat="45.05127" lon="2.91266">
        <ele>1251</ele>
        <time>2016-12-30T13:10:46.008Z</time>
      </trkpt>
      <trkpt lat="45.05127" lon="2.9126">
        <ele>1251</ele>
        <time>2016-12-30T13:10:47.008Z</time>
      </trkpt>
      <trkpt lat="45.05127" lon="2.91254">
        <ele>1251</ele>
        <time>2016-12-30T13:10:48.008Z</time>
      </trkpt>
      <trkpt lat="45.05127" lon="2.91248">
        <ele>1251</ele>
        <time>2016-12-30T13:10:49.008Z</time>
      </trkpt>
      <trkpt lat="45.05127" lon="2.91243">
        <ele>1252.7188082173</ele>
        <time>2016-12-30T13:10:50.008Z</time>
      </trkpt>
      <trkpt lat="45.05127" lon="2.91237">
        <ele>1253</ele>
        <time>2016-12-30T13:10:51.008Z</time>
      </trkpt>
      <trkpt lat="45.05127" lon="2.91231">
        <ele>1253</ele>
        <time>2016-12-30T13:10:52.008Z</time>
      </trkpt>
      <trkpt lat="45.05127" lon="2.91225">
        <ele>1253</ele>
        <time>2016-12-30T13:10:53.008Z</time>
      </trkpt>
      <trkpt lat="45.05127" lon="2.9122">
        <ele>1253</ele>
        <time>2016-12-30T13:10:54.008Z</time>
      </trkpt>
      <trkpt lat="45.05127" lon="2.91214">
        <ele>1253</ele>
        <time>2016-12-30T13:10:55.008Z</time>
      </trkpt>
      <trkpt lat="45.05126" lon="2.91208">
        <ele>1253</ele>
        <time>2016-12-30T13:10:56.008Z</time>
      </trkpt>
      <trkpt lat="45.05126" lon="2.91203">
        <ele>1253</ele>
        <time>2016-12-30T13:10:57.008Z</time>
      </trkpt>
      <trkpt lat="45.05126" lon="2.91197">
        <ele>1253</ele>
        <time>2016-12-30T13:10:58.008Z</time>
      </trkpt>
      <trkpt lat="45.05126" lon="2.91192">
        <ele>1253</ele>
        <time>2016-12-30T13:10:59.008Z</time>
      </trkpt>
      <trkpt lat="45.05126" lon="2.91186">
        <ele>1254.7359905793</ele>
        <time>2016-12-30T13:11:00.008Z</time>
      </trkpt>
      <trkpt lat="45.05125" lon="2.91181">
        <ele>1255</ele>
        <time>2016-12-30T13:11:01.008Z</time>
      </trkpt>
      <trkpt lat="45.05124" lon="2.91175">
        <ele>1255</ele>
        <time>2016-12-30T13:11:02.008Z</time>
      </trkpt>
      <trkpt lat="45.05123" lon="2.9117">
        <ele>1255</ele>
        <time>2016-12-30T13:11:03.008Z</time>
      </trkpt>
      <trkpt lat="45.05122" lon="2.91164">
        <ele>1255</ele>
        <time>2016-12-30T13:11:04.008Z</time>
      </trkpt>
      <trkpt lat="45.05121" lon="2.91159">
        <ele>1255</ele>
        <time>2016-12-30T13:11:05.008Z</time>
      </trkpt>
      <trkpt lat="45.0512" lon="2.91154">
        <ele>1255</ele>
        <time>2016-12-30T13:11:06.008Z</time>
      </trkpt>
      <trkpt lat="45.05119" lon="2.91148">
        <ele>1255</ele>
        <time>2016-12-30T13:11:07.008Z</time>
      </trkpt>
      <trkpt lat="45.05117" lon="2.91143">
        <ele>1255</ele>
        <time>2016-12-30T13:11:08.008Z</time>
      </trkpt>
      <trkpt lat="45.05116" lon="2.91137">
        <ele>1255</ele>
        <time>2016-12-30T13:11:09.008Z</time>
      </trkpt>
      <trkpt lat="45.05115" lon="2.91132">
        <ele>1257.603985869</ele>
        <time>2016-12-30T13:11:10.008Z</time>
      </trkpt>
      <trkpt lat="45.05113" lon="2.91127">
        <ele>1258</ele>
        <time>2016-12-30T13:11:11.008Z</time>
      </trkpt>
      <trkpt lat="45.05112" lon="2.91121">
        <ele>1258</ele>
        <time>2016-12-30T13:11:12.008Z</time>
      </trkpt>
      <trkpt lat="45.05111" lon="2.91116">
        <ele>1258</ele>
        <time>2016-12-30T13:11:13.008Z</time>
      </trkpt>
      <trkpt lat="45.0511" lon="2.91111">
        <ele>1258</ele>
        <time>2016-12-30T13:11:14.008Z</time>
      </trkpt>
      <trkpt lat="45.05108" lon="2.91106">
        <ele>1258.8666718384</ele>
        <time>2016-12-30T13:11:15.008Z</time>
      </trkpt>
      <trkpt lat="45.05107" lon="2.91101">
        <ele>1259</ele>
        <time>2016-12-30T13:11:16.008Z</time>
      </trkpt>
      <trkpt lat="45.05106" lon="2.91095">
        <ele>1259</ele>
        <time>2016-12-30T13:11:17.008Z</time>
      </trkpt>
      <trkpt lat="45.05105" lon="2.9109">
        <ele>1259</ele>
        <time>2016-12-30T13:11:18.008Z</time>
      </trkpt>
      <trkpt lat="45.05104" lon="2.91085">
        <ele>1259</ele>
        <time>2016-12-30T13:11:19.008Z</time>
      </trkpt>
      <trkpt lat="45.05103" lon="2.91079">
        <ele>1259.8579968</ele>
        <time>2016-12-30T13:11:20.008Z</time>
      </trkpt>
      <trkpt lat="45.05102" lon="2.91074">
        <ele>1260</ele>
        <time>2016-12-30T13:11:21.008Z</time>
      </trkpt>
      <trkpt lat="45.05102" lon="2.91069">
        <ele>1260</ele>
        <time>2016-12-30T13:11:22.008Z</time>
      </trkpt>
      <trkpt lat="45.05101" lon="2.91064">
        <ele>1260</ele>
        <time>2016-12-30T13:11:23.008Z</time>
      </trkpt>
      <trkpt lat="45.051" lon="2.91058">
        <ele>1260</ele>
        <time>2016-12-30T13:11:24.008Z</time>
      </trkpt>
      <trkpt lat="45.05099" lon="2.91053">
        <ele>1260</ele>
        <time>2016-12-30T13:11:25.008Z</time>
      </trkpt>
      <trkpt lat="45.05099" lon="2.91048">
        <ele>1260</ele>
        <time>2016-12-30T13:11:26.008Z</time>
      </trkpt>
      <trkpt lat="45.05098" lon="2.91042">
        <ele>1260</ele>
        <time>2016-12-30T13:11:27.008Z</time>
      </trkpt>
      <trkpt lat="45.05097" lon="2.91037">
        <ele>1260</ele>
        <time>2016-12-30T13:11:28.008Z</time>
      </trkpt>
      <trkpt lat="45.05097" lon="2.91032">
        <ele>1260</ele>
        <time>2016-12-30T13:11:29.008Z</time>
      </trkpt>
      <trkpt lat="45.05096" lon="2.91027">
        <ele>1261.7359905793</ele>
        <time>2016-12-30T13:11:30.008Z</time>
      </trkpt>
      <trkpt lat="45.05095" lon="2.91021">
        <ele>1262</ele>
        <time>2016-12-30T13:11:31.008Z</time>
      </trkpt>
      <trkpt lat="45.05095" lon="2.91016">
        <ele>1262</ele>
        <time>2016-12-30T13:11:32.008Z</time>
      </trkpt>
      <trkpt lat="45.05095" lon="2.91011">
        <ele>1262</ele>
        <time>2016-12-30T13:11:33.008Z</time>
      </trkpt>
      <trkpt lat="45.05094" lon="2.91005">
        <ele>1262</ele>
        <time>2016-12-30T13:11:34.008Z</time>
      </trkpt>
      <trkpt lat="45.05094" lon="2.91">
        <ele>1262</ele>
        <time>2016-12-30T13:11:35.008Z</time>
      </trkpt>
      <trkpt lat="45.05093" lon="2.9099">
        <ele>1262</ele>
        <time>2016-12-30T13:11:37.008Z</time>
      </trkpt>
      <trkpt lat="45.05092" lon="2.90979">
        <ele>1262</ele>
        <time>2016-12-30T13:11:39.008Z</time>
      </trkpt>
      <trkpt lat="45.05092" lon="2.90969">
        <ele>1263</ele>
        <time>2016-12-30T13:11:41.008Z</time>
      </trkpt>
      <trkpt lat="45.05092" lon="2.90958">
        <ele>1263</ele>
        <time>2016-12-30T13:11:43.008Z</time>
      </trkpt>
      <trkpt lat="45.05092" lon="2.90948">
        <ele>1263</ele>
        <time>2016-12-30T13:11:45.008Z</time>
      </trkpt>
      <trkpt lat="45.05092" lon="2.90938">
        <ele>1263</ele>
        <time>2016-12-30T13:11:47.008Z</time>
      </trkpt>
      <trkpt lat="45.05091" lon="2.90928">
        <ele>1263</ele>
        <time>2016-12-30T13:11:49.008Z</time>
      </trkpt>
      <trkpt lat="45.05091" lon="2.90918">
        <ele>1265</ele>
        <time>2016-12-30T13:11:51.008Z</time>
      </trkpt>
      <trkpt lat="45.0509" lon="2.90913">
        <ele>1265</ele>
        <time>2016-12-30T13:11:52.008Z</time>
      </trkpt>
      <trkpt lat="45.0509" lon="2.90908">
        <ele>1265</ele>
        <time>2016-12-30T13:11:53.008Z</time>
      </trkpt>
      <trkpt lat="45.0509" lon="2.90902">
        <ele>1265</ele>
        <time>2016-12-30T13:11:54.008Z</time>
      </trkpt>
      <trkpt lat="45.05089" lon="2.90897">
        <ele>1265</ele>
        <time>2016-12-30T13:11:55.008Z</time>
      </trkpt>
      <trkpt lat="45.05089" lon="2.90892">
        <ele>1265</ele>
        <time>2016-12-30T13:11:56.008Z</time>
      </trkpt>
      <trkpt lat="45.05088" lon="2.90886">
        <ele>1265</ele>
        <time>2016-12-30T13:11:57.008Z</time>
      </trkpt>
      <trkpt lat="45.05088" lon="2.90881">
        <ele>1265</ele>
        <time>2016-12-30T13:11:58.008Z</time>
      </trkpt>
      <trkpt lat="45.05087" lon="2.90875">
        <ele>1265</ele>
        <time>2016-12-30T13:11:59.008Z</time>
      </trkpt>
      <trkpt lat="45.05087" lon="2.9087">
        <ele>1265.8679952897</ele>
        <time>2016-12-30T13:12:00.008Z</time>
      </trkpt>
      <trkpt lat="45.05087" lon="2.90864">
        <ele>1266</ele>
        <time>2016-12-30T13:12:01.008Z</time>
      </trkpt>
      <trkpt lat="45.05087" lon="2.90859">
        <ele>1266</ele>
        <time>2016-12-30T13:12:02.008Z</time>
      </trkpt>
      <trkpt lat="45.05087" lon="2.90853">
        <ele>1266</ele>
        <time>2016-12-30T13:12:03.008Z</time>
      </trkpt>
      <trkpt lat="45.05086" lon="2.90837">
        <ele>1266</ele>
        <time>2016-12-30T13:12:06.008Z</time>
      </trkpt>
      <trkpt lat="45.05086" lon="2.90826">
        <ele>1266</ele>
        <time>2016-12-30T13:12:08.008Z</time>
      </trkpt>
      <trkpt lat="45.05086" lon="2.90816">
        <ele>1267.7359905793</ele>
        <time>2016-12-30T13:12:10.008Z</time>
      </trkpt>
      <trkpt lat="45.05087" lon="2.90805">
        <ele>1268</ele>
        <time>2016-12-30T13:12:12.008Z</time>
      </trkpt>
      <trkpt lat="45.05087" lon="2.908">
        <ele>1268</ele>
        <time>2016-12-30T13:12:13.008Z</time>
      </trkpt>
      <trkpt lat="45.05087" lon="2.90789">
        <ele>1268</ele>
        <time>2016-12-30T13:12:15.008Z</time>
      </trkpt>
      <trkpt lat="45.05087" lon="2.90778">
        <ele>1268</ele>
        <time>2016-12-30T13:12:17.008Z</time>
      </trkpt>
      <trkpt lat="45.05088" lon="2.90772">
        <ele>1268</ele>
        <time>2016-12-30T13:12:18.008Z</time>
      </trkpt>
      <trkpt lat="45.05088" lon="2.90767">
        <ele>1268</ele>
        <time>2016-12-30T13:12:19.008Z</time>
      </trkpt>
      <trkpt lat="45.05088" lon="2.90762">
        <ele>1268</ele>
        <time>2016-12-30T13:12:20.008Z</time>
      </trkpt>
      <trkpt lat="45.05088" lon="2.90751">
        <ele>1268</ele>
        <time>2016-12-30T13:12:22.008Z</time>
      </trkpt>
      <trkpt lat="45.05087" lon="2.90745">
        <ele>1268</ele>
        <time>2016-12-30T13:12:23.008Z</time>
      </trkpt>
      <trkpt lat="45.05087" lon="2.9074">
        <ele>1268</ele>
        <time>2016-12-30T13:12:24.008Z</time>
      </trkpt>
      <trkpt lat="45.05087" lon="2.90735">
        <ele>1268</ele>
        <time>2016-12-30T13:12:25.008Z</time>
      </trkpt>
      <trkpt lat="45.05087" lon="2.90729">
        <ele>1268</ele>
        <time>2016-12-30T13:12:26.008Z</time>
      </trkpt>
      <trkpt lat="45.05086" lon="2.90724">
        <ele>1268</ele>
        <time>2016-12-30T13:12:27.008Z</time>
      </trkpt>
      <trkpt lat="45.05086" lon="2.90719">
        <ele>1268</ele>
        <time>2016-12-30T13:12:28.008Z</time>
      </trkpt>
      <trkpt lat="45.05085" lon="2.90714">
        <ele>1268</ele>
        <time>2016-12-30T13:12:29.008Z</time>
      </trkpt>
      <trkpt lat="45.05085" lon="2.90708">
        <ele>1269.7359905793</ele>
        <time>2016-12-30T13:12:30.008Z</time>
      </trkpt>
      <trkpt lat="45.05084" lon="2.90698">
        <ele>1270</ele>
        <time>2016-12-30T13:12:32.008Z</time>
      </trkpt>
      <trkpt lat="45.05082" lon="2.90688">
        <ele>1270</ele>
        <time>2016-12-30T13:12:34.008Z</time>
      </trkpt>
      <trkpt lat="45.05081" lon="2.90678">
        <ele>1270</ele>
        <time>2016-12-30T13:12:36.008Z</time>
      </trkpt>
      <trkpt lat="45.05079" lon="2.90669">
        <ele>1270</ele>
        <time>2016-12-30T13:12:38.008Z</time>
      </trkpt>
      <trkpt lat="45.05077" lon="2.90659">
        <ele>1271.7359905793</ele>
        <time>2016-12-30T13:12:40.008Z</time>
      </trkpt>
      <trkpt lat="45.05075" lon="2.9065">
        <ele>1272</ele>
        <time>2016-12-30T13:12:42.008Z</time>
      </trkpt>
      <trkpt lat="45.05073" lon="2.90642">
        <ele>1272</ele>
        <time>2016-12-30T13:12:44.008Z</time>
      </trkpt>
      <trkpt lat="45.05073" lon="2.90637">
        <ele>1272</ele>
        <time>2016-12-30T13:12:45.008Z</time>
      </trkpt>
      <trkpt lat="45.05072" lon="2.90633">
        <ele>1272</ele>
        <time>2016-12-30T13:12:46.008Z</time>
      </trkpt>
      <trkpt lat="45.0507" lon="2.90624">
        <ele>1272</ele>
        <time>2016-12-30T13:12:48.008Z</time>
      </trkpt>
      <trkpt lat="45.05069" lon="2.90615">
        <ele>1273.7188082173</ele>
        <time>2016-12-30T13:12:50.008Z</time>
      </trkpt>
      <trkpt lat="45.05067" lon="2.90607">
        <ele>1274</ele>
        <time>2016-12-30T13:12:52.008Z</time>
      </trkpt>
      <trkpt lat="45.05065" lon="2.90598">
        <ele>1274</ele>
        <time>2016-12-30T13:12:54.008Z</time>
      </trkpt>
      <trkpt lat="45.05064" lon="2.90589">
        <ele>1274</ele>
        <time>2016-12-30T13:12:56.008Z</time>
      </trkpt>
      <trkpt lat="45.05063" lon="2.90581">
        <ele>1274</ele>
        <time>2016-12-30T13:12:58.008Z</time>
      </trkpt>
      <trkpt lat="45.05062" lon="2.90572">
        <ele>1277.4719811586</ele>
        <time>2016-12-30T13:13:00.008Z</time>
      </trkpt>
      <trkpt lat="45.05062" lon="2.90563">
        <ele>1278</ele>
        <time>2016-12-30T13:13:02.008Z</time>
      </trkpt>
      <trkpt lat="45.05061" lon="2.90555">
        <ele>1278</ele>
        <time>2016-12-30T13:13:04.008Z</time>
      </trkpt>
      <trkpt lat="45.05061" lon="2.9055">
        <ele>1278</ele>
        <time>2016-12-30T13:13:05.008Z</time>
      </trkpt>
      <trkpt lat="45.05061" lon="2.90546">
        <ele>1278</ele>
        <time>2016-12-30T13:13:06.008Z</time>
      </trkpt>
      <trkpt lat="45.05061" lon="2.90538">
        <ele>1278</ele>
        <time>2016-12-30T13:13:08.008Z</time>
      </trkpt>
      <trkpt lat="45.05061" lon="2.90531">
        <ele>1278</ele>
        <time>2016-12-30T13:13:10.008Z</time>
      </trkpt>
      <trkpt lat="45.05061" lon="2.90523">
        <ele>1278</ele>
        <time>2016-12-30T13:13:12.008Z</time>
      </trkpt>
      <trkpt lat="45.05061" lon="2.90516">
        <ele>1278</ele>
        <time>2016-12-30T13:13:14.008Z</time>
      </trkpt>
      <trkpt lat="45.0506" lon="2.90508">
        <ele>1278</ele>
        <time>2016-12-30T13:13:16.008Z</time>
      </trkpt>
      <trkpt lat="45.0506" lon="2.90505">
        <ele>1278</ele>
        <time>2016-12-30T13:13:17.008Z</time>
      </trkpt>
      <trkpt lat="45.0506" lon="2.90501">
        <ele>1278</ele>
        <time>2016-12-30T13:13:18.008Z</time>
      </trkpt>
      <trkpt lat="45.0506" lon="2.90494">
        <ele>1279.7188082173</ele>
        <time>2016-12-30T13:13:20.008Z</time>
      </trkpt>
      <trkpt lat="45.0506" lon="2.90491">
        <ele>1280</ele>
        <time>2016-12-30T13:13:21.008Z</time>
      </trkpt>
      <trkpt lat="45.0506" lon="2.90487">
        <ele>1280</ele>
        <time>2016-12-30T13:13:22.008Z</time>
      </trkpt>
      <trkpt lat="45.0506" lon="2.9048">
        <ele>1280</ele>
        <time>2016-12-30T13:13:24.008Z</time>
      </trkpt>
      <trkpt lat="45.0506" lon="2.90477">
        <ele>1280</ele>
        <time>2016-12-30T13:13:25.008Z</time>
      </trkpt>
      <trkpt lat="45.0506" lon="2.9047">
        <ele>1280</ele>
        <time>2016-12-30T13:13:27.008Z</time>
      </trkpt>
      <trkpt lat="45.05059" lon="2.90463">
        <ele>1280</ele>
        <time>2016-12-30T13:13:29.008Z</time>
      </trkpt>
      <trkpt lat="45.05059" lon="2.90456">
        <ele>1284</ele>
        <time>2016-12-30T13:13:31.008Z</time>
      </trkpt>
      <trkpt lat="45.0506" lon="2.90449">
        <ele>1284</ele>
        <time>2016-12-30T13:13:33.008Z</time>
      </trkpt>
      <trkpt lat="45.0506" lon="2.90442">
        <ele>1286.6040141314</ele>
        <time>2016-12-30T13:13:35.008Z</time>
      </trkpt>
      <trkpt lat="45.0506" lon="2.90436">
        <ele>1287</ele>
        <time>2016-12-30T13:13:37.008Z</time>
      </trkpt>
      <trkpt lat="45.0506" lon="2.90429">
        <ele>1287</ele>
        <time>2016-12-30T13:13:39.008Z</time>
      </trkpt>
      <trkpt lat="45.0506" lon="2.90422">
        <ele>1288</ele>
        <time>2016-12-30T13:13:41.008Z</time>
      </trkpt>
      <trkpt lat="45.0506" lon="2.90411">
        <ele>1288</ele>
        <time>2016-12-30T13:13:44.008Z</time>
      </trkpt>
      <trkpt lat="45.0506" lon="2.904">
        <ele>1289</ele>
        <time>2016-12-30T13:13:47.008Z</time>
      </trkpt>
      <trkpt lat="45.0506" lon="2.90389">
        <ele>1289.8594041086</ele>
        <time>2016-12-30T13:13:50.008Z</time>
      </trkpt>
      <trkpt lat="45.0506" lon="2.90377">
        <ele>1290</ele>
        <time>2016-12-30T13:13:53.008Z</time>
      </trkpt>
      <trkpt lat="45.0506" lon="2.9037">
        <ele>1290</ele>
        <time>2016-12-30T13:13:55.008Z</time>
      </trkpt>
      <trkpt lat="45.0506" lon="2.90363">
        <ele>1290</ele>
        <time>2016-12-30T13:13:57.008Z</time>
      </trkpt>
      <trkpt lat="45.05059" lon="2.90355">
        <ele>1290</ele>
        <time>2016-12-30T13:13:59.008Z</time>
      </trkpt>
      <trkpt lat="45.05059" lon="2.90347">
        <ele>1293</ele>
        <time>2016-12-30T13:14:01.008Z</time>
      </trkpt>
      <trkpt lat="45.05059" lon="2.90339">
        <ele>1293</ele>
        <time>2016-12-30T13:14:03.008Z</time>
      </trkpt>
      <trkpt lat="45.05059" lon="2.90331">
        <ele>1293</ele>
        <time>2016-12-30T13:14:05.008Z</time>
      </trkpt>
      <trkpt lat="45.05059" lon="2.90324">
        <ele>1293</ele>
        <time>2016-12-30T13:14:07.008Z</time>
      </trkpt>
      <trkpt lat="45.05059" lon="2.90311">
        <ele>1293.8679952897</ele>
        <time>2016-12-30T13:14:10.008Z</time>
      </trkpt>
      <trkpt lat="45.0506" lon="2.90303">
        <ele>1294</ele>
        <time>2016-12-30T13:14:12.008Z</time>
      </trkpt>
      <trkpt lat="45.0506" lon="2.90294">
        <ele>1294</ele>
        <time>2016-12-30T13:14:14.008Z</time>
      </trkpt>
      <trkpt lat="45.05061" lon="2.90286">
        <ele>1294</ele>
        <time>2016-12-30T13:14:16.008Z</time>
      </trkpt>
      <trkpt lat="45.05062" lon="2.90278">
        <ele>1294</ele>
        <time>2016-12-30T13:14:18.008Z</time>
      </trkpt>
      <trkpt lat="45.05062" lon="2.9027">
        <ele>1294</ele>
        <time>2016-12-30T13:14:20.008Z</time>
      </trkpt>
      <trkpt lat="45.05063" lon="2.90262">
        <ele>1294</ele>
        <time>2016-12-30T13:14:22.008Z</time>
      </trkpt>
      <trkpt lat="45.05064" lon="2.90253">
        <ele>1294</ele>
        <time>2016-12-30T13:14:24.008Z</time>
      </trkpt>
      <trkpt lat="45.05064" lon="2.90243">
        <ele>1294</ele>
        <time>2016-12-30T13:14:26.008Z</time>
      </trkpt>
      <trkpt lat="45.05064" lon="2.90234">
        <ele>1294</ele>
        <time>2016-12-30T13:14:28.008Z</time>
      </trkpt>
      <trkpt lat="45.05064" lon="2.90224">
        <ele>1295.7359905793</ele>
        <time>2016-12-30T13:14:30.008Z</time>
      </trkpt>
      <trkpt lat="45.05062" lon="2.90213">
        <ele>1296</ele>
        <time>2016-12-30T13:14:32.008Z</time>
      </trkpt>
      <trkpt lat="45.05062" lon="2.90208">
        <ele>1296</ele>
        <time>2016-12-30T13:14:33.008Z</time>
      </trkpt>
      <trkpt lat="45.05061" lon="2.90203">
        <ele>1296</ele>
        <time>2016-12-30T13:14:34.008Z</time>
      </trkpt>
      <trkpt lat="45.0506" lon="2.90197">
        <ele>1296</ele>
        <time>2016-12-30T13:14:35.008Z</time>
      </trkpt>
      <trkpt lat="45.0506" lon="2.90192">
        <ele>1296</ele>
        <time>2016-12-30T13:14:36.008Z</time>
      </trkpt>
      <trkpt lat="45.05058" lon="2.90187">
        <ele>1296</ele>
        <time>2016-12-30T13:14:37.008Z</time>
      </trkpt>
      <trkpt lat="45.05057" lon="2.90182">
        <ele>1296</ele>
        <time>2016-12-30T13:14:38.008Z</time>
      </trkpt>
      <trkpt lat="45.05056" lon="2.90177">
        <ele>1296</ele>
        <time>2016-12-30T13:14:39.008Z</time>
      </trkpt>
      <trkpt lat="45.05055" lon="2.90172">
        <ele>1296.8679952897</ele>
        <time>2016-12-30T13:14:40.008Z</time>
      </trkpt>
      <trkpt lat="45.05054" lon="2.90167">
        <ele>1297</ele>
        <time>2016-12-30T13:14:41.008Z</time>
      </trkpt>
      <trkpt lat="45.05052" lon="2.90162">
        <ele>1297</ele>
        <time>2016-12-30T13:14:42.008Z</time>
      </trkpt>
      <trkpt lat="45.05051" lon="2.90157">
        <ele>1297</ele>
        <time>2016-12-30T13:14:43.008Z</time>
      </trkpt>
      <trkpt lat="45.05049" lon="2.90153">
        <ele>1297</ele>
        <time>2016-12-30T13:14:44.008Z</time>
      </trkpt>
      <trkpt lat="45.05047" lon="2.90148">
        <ele>1297</ele>
        <time>2016-12-30T13:14:45.008Z</time>
      </trkpt>
      <trkpt lat="45.05045" lon="2.90143">
        <ele>1297</ele>
        <time>2016-12-30T13:14:46.008Z</time>
      </trkpt>
      <trkpt lat="45.05044" lon="2.90139">
        <ele>1297</ele>
        <time>2016-12-30T13:14:47.008Z</time>
      </trkpt>
      <trkpt lat="45.05042" lon="2.90134">
        <ele>1297</ele>
        <time>2016-12-30T13:14:48.008Z</time>
      </trkpt>
      <trkpt lat="45.0504" lon="2.9013">
        <ele>1297</ele>
        <time>2016-12-30T13:14:49.008Z</time>
      </trkpt>
      <trkpt lat="45.05038" lon="2.90125">
        <ele>1298.7188082173</ele>
        <time>2016-12-30T13:14:50.008Z</time>
      </trkpt>
      <trkpt lat="45.05036" lon="2.90121">
        <ele>1299</ele>
        <time>2016-12-30T13:14:51.008Z</time>
      </trkpt>
      <trkpt lat="45.05035" lon="2.90116">
        <ele>1299</ele>
        <time>2016-12-30T13:14:52.008Z</time>
      </trkpt>
      <trkpt lat="45.05033" lon="2.90112">
        <ele>1299</ele>
        <time>2016-12-30T13:14:53.008Z</time>
      </trkpt>
      <trkpt lat="45.05031" lon="2.90108">
        <ele>1299</ele>
        <time>2016-12-30T13:14:54.008Z</time>
      </trkpt>
      <trkpt lat="45.05029" lon="2.90103">
        <ele>1299</ele>
        <time>2016-12-30T13:14:55.008Z</time>
      </trkpt>
      <trkpt lat="45.05027" lon="2.90099">
        <ele>1299</ele>
        <time>2016-12-30T13:14:56.008Z</time>
      </trkpt>
      <trkpt lat="45.05026" lon="2.90094">
        <ele>1299</ele>
        <time>2016-12-30T13:14:57.008Z</time>
      </trkpt>
      <trkpt lat="45.05024" lon="2.9009">
        <ele>1299</ele>
        <time>2016-12-30T13:14:58.008Z</time>
      </trkpt>
      <trkpt lat="45.05022" lon="2.90086">
        <ele>1299</ele>
        <time>2016-12-30T13:14:59.008Z</time>
      </trkpt>
      <trkpt lat="45.05021" lon="2.90081">
        <ele>1301.603985869</ele>
        <time>2016-12-30T13:15:00.008Z</time>
      </trkpt>
      <trkpt lat="45.05019" lon="2.90077">
        <ele>1302</ele>
        <time>2016-12-30T13:15:01.008Z</time>
      </trkpt>
      <trkpt lat="45.05017" lon="2.90073">
        <ele>1302</ele>
        <time>2016-12-30T13:15:02.008Z</time>
      </trkpt>
      <trkpt lat="45.05016" lon="2.90069">
        <ele>1302</ele>
        <time>2016-12-30T13:15:03.008Z</time>
      </trkpt>
      <trkpt lat="45.05014" lon="2.90065">
        <ele>1302</ele>
        <time>2016-12-30T13:15:04.008Z</time>
      </trkpt>
      <trkpt lat="45.05012" lon="2.9006">
        <ele>1302.8680047105</ele>
        <time>2016-12-30T13:15:05.008Z</time>
      </trkpt>
      <trkpt lat="45.05011" lon="2.90056">
        <ele>1303</ele>
        <time>2016-12-30T13:15:06.008Z</time>
      </trkpt>
      <trkpt lat="45.05009" lon="2.90052">
        <ele>1303</ele>
        <time>2016-12-30T13:15:07.008Z</time>
      </trkpt>
      <trkpt lat="45.05008" lon="2.90048">
        <ele>1303</ele>
        <time>2016-12-30T13:15:08.008Z</time>
      </trkpt>
      <trkpt lat="45.05006" lon="2.90043">
        <ele>1303</ele>
        <time>2016-12-30T13:15:09.008Z</time>
      </trkpt>
      <trkpt lat="45.05004" lon="2.90039">
        <ele>1303.8594041086</ele>
        <time>2016-12-30T13:15:10.008Z</time>
      </trkpt>
      <trkpt lat="45.05003" lon="2.90035">
        <ele>1304</ele>
        <time>2016-12-30T13:15:11.008Z</time>
      </trkpt>
      <trkpt lat="45.04999" lon="2.90027">
        <ele>1304</ele>
        <time>2016-12-30T13:15:13.008Z</time>
      </trkpt>
      <trkpt lat="45.04997" lon="2.90023">
        <ele>1304</ele>
        <time>2016-12-30T13:15:14.008Z</time>
      </trkpt>
      <trkpt lat="45.04995" lon="2.90019">
        <ele>1304</ele>
        <time>2016-12-30T13:15:15.008Z</time>
      </trkpt>
      <trkpt lat="45.04993" lon="2.90015">
        <ele>1304</ele>
        <time>2016-12-30T13:15:16.008Z</time>
      </trkpt>
      <trkpt lat="45.04991" lon="2.90011">
        <ele>1304</ele>
        <time>2016-12-30T13:15:17.008Z</time>
      </trkpt>
      <trkpt lat="45.0499" lon="2.90007">
        <ele>1304</ele>
        <time>2016-12-30T13:15:18.008Z</time>
      </trkpt>
      <trkpt lat="45.04986" lon="2.9">
        <ele>1305.7188082173</ele>
        <time>2016-12-30T13:15:20.008Z</time>
      </trkpt>
      <trkpt lat="45.04982" lon="2.89992">
        <ele>1306</ele>
        <time>2016-12-30T13:15:22.008Z</time>
      </trkpt>
      <trkpt lat="45.04981" lon="2.89988">
        <ele>1306</ele>
        <time>2016-12-30T13:15:23.008Z</time>
      </trkpt>
      <trkpt lat="45.04979" lon="2.89984">
        <ele>1306</ele>
        <time>2016-12-30T13:15:24.008Z</time>
      </trkpt>
      <trkpt lat="45.04977" lon="2.8998">
        <ele>1306</ele>
        <time>2016-12-30T13:15:25.008Z</time>
      </trkpt>
      <trkpt lat="45.04974" lon="2.89972">
        <ele>1306</ele>
        <time>2016-12-30T13:15:27.008Z</time>
      </trkpt>
      <trkpt lat="45.04972" lon="2.89968">
        <ele>1306</ele>
        <time>2016-12-30T13:15:28.008Z</time>
      </trkpt>
      <trkpt lat="45.0497" lon="2.89964">
        <ele>1306</ele>
        <time>2016-12-30T13:15:29.008Z</time>
      </trkpt>
      <trkpt lat="45.04968" lon="2.89959">
        <ele>1308.603985869</ele>
        <time>2016-12-30T13:15:30.008Z</time>
      </trkpt>
      <trkpt lat="45.04966" lon="2.89954">
        <ele>1309</ele>
        <time>2016-12-30T13:15:31.008Z</time>
      </trkpt>
      <trkpt lat="45.04964" lon="2.8995">
        <ele>1309</ele>
        <time>2016-12-30T13:15:32.008Z</time>
      </trkpt>
      <trkpt lat="45.04962" lon="2.89945">
        <ele>1309</ele>
        <time>2016-12-30T13:15:33.008Z</time>
      </trkpt>
      <trkpt lat="45.0496" lon="2.89941">
        <ele>1309</ele>
        <time>2016-12-30T13:15:34.008Z</time>
      </trkpt>
      <trkpt lat="45.04958" lon="2.89936">
        <ele>1309</ele>
        <time>2016-12-30T13:15:35.008Z</time>
      </trkpt>
      <trkpt lat="45.04956" lon="2.89932">
        <ele>1309</ele>
        <time>2016-12-30T13:15:36.008Z</time>
      </trkpt>
      <trkpt lat="45.04955" lon="2.89928">
        <ele>1309</ele>
        <time>2016-12-30T13:15:37.008Z</time>
      </trkpt>
      <trkpt lat="45.04953" lon="2.89924">
        <ele>1309</ele>
        <time>2016-12-30T13:15:38.008Z</time>
      </trkpt>
      <trkpt lat="45.04951" lon="2.89921">
        <ele>1309</ele>
        <time>2016-12-30T13:15:39.008Z</time>
      </trkpt>
      <trkpt lat="45.0495" lon="2.89917">
        <ele>1309</ele>
        <time>2016-12-30T13:15:40.008Z</time>
      </trkpt>
      <trkpt lat="45.04948" lon="2.89913">
        <ele>1309</ele>
        <time>2016-12-30T13:15:41.008Z</time>
      </trkpt>
      <trkpt lat="45.04947" lon="2.89909">
        <ele>1309</ele>
        <time>2016-12-30T13:15:42.008Z</time>
      </trkpt>
      <trkpt lat="45.04945" lon="2.89906">
        <ele>1309</ele>
        <time>2016-12-30T13:15:43.008Z</time>
      </trkpt>
      <trkpt lat="45.04943" lon="2.89902">
        <ele>1309</ele>
        <time>2016-12-30T13:15:44.008Z</time>
      </trkpt>
      <trkpt lat="45.04941" lon="2.89899">
        <ele>1309</ele>
        <time>2016-12-30T13:15:45.008Z</time>
      </trkpt>
      <trkpt lat="45.04939" lon="2.89895">
        <ele>1309</ele>
        <time>2016-12-30T13:15:46.008Z</time>
      </trkpt>
      <trkpt lat="45.04937" lon="2.89891">
        <ele>1309</ele>
        <time>2016-12-30T13:15:47.008Z</time>
      </trkpt>
      <trkpt lat="45.04935" lon="2.89888">
        <ele>1309</ele>
        <time>2016-12-30T13:15:48.008Z</time>
      </trkpt>
      <trkpt lat="45.04933" lon="2.89884">
        <ele>1309</ele>
        <time>2016-12-30T13:15:49.008Z</time>
      </trkpt>
      <trkpt lat="45.04932" lon="2.89881">
        <ele>1309</ele>
        <time>2016-12-30T13:15:50.008Z</time>
      </trkpt>
      <trkpt lat="45.0493" lon="2.89877">
        <ele>1309</ele>
        <time>2016-12-30T13:15:51.008Z</time>
      </trkpt>
      <trkpt lat="45.04928" lon="2.89873">
        <ele>1309</ele>
        <time>2016-12-30T13:15:52.008Z</time>
      </trkpt>
      <trkpt lat="45.04926" lon="2.89869">
        <ele>1309</ele>
        <time>2016-12-30T13:15:53.008Z</time>
      </trkpt>
      <trkpt lat="45.04924" lon="2.89863">
        <ele>1309</ele>
        <time>2016-12-30T13:15:54.008Z</time>
      </trkpt>
      <trkpt lat="45.04921" lon="2.89858">
        <ele>1309</ele>
        <time>2016-12-30T13:15:55.008Z</time>
      </trkpt>
      <trkpt lat="45.04919" lon="2.89852">
        <ele>1309</ele>
        <time>2016-12-30T13:15:56.008Z</time>
      </trkpt>
      <trkpt lat="45.04916" lon="2.89846">
        <ele>1309</ele>
        <time>2016-12-30T13:15:57.008Z</time>
      </trkpt>
      <trkpt lat="45.04913" lon="2.8984">
        <ele>1309</ele>
        <time>2016-12-30T13:15:58.008Z</time>
      </trkpt>
      <trkpt lat="45.04911" lon="2.89833">
        <ele>1309</ele>
        <time>2016-12-30T13:15:59.008Z</time>
      </trkpt>
      <trkpt lat="45.04908" lon="2.89827">
        <ele>1307.2640094207</ele>
        <time>2016-12-30T13:16:00.008Z</time>
      </trkpt>
      <trkpt lat="45.04906" lon="2.8982">
        <ele>1307</ele>
        <time>2016-12-30T13:16:01.008Z</time>
      </trkpt>
      <trkpt lat="45.04903" lon="2.89813">
        <ele>1307</ele>
        <time>2016-12-30T13:16:02.008Z</time>
      </trkpt>
      <trkpt lat="45.04901" lon="2.89806">
        <ele>1307</ele>
        <time>2016-12-30T13:16:03.008Z</time>
      </trkpt>
      <trkpt lat="45.04898" lon="2.898">
        <ele>1307</ele>
        <time>2016-12-30T13:16:04.008Z</time>
      </trkpt>
      <trkpt lat="45.04896" lon="2.89793">
        <ele>1307</ele>
        <time>2016-12-30T13:16:05.008Z</time>
      </trkpt>
      <trkpt lat="45.04894" lon="2.89786">
        <ele>1307</ele>
        <time>2016-12-30T13:16:06.008Z</time>
      </trkpt>
      <trkpt lat="45.04892" lon="2.8978">
        <ele>1307</ele>
        <time>2016-12-30T13:16:07.008Z</time>
      </trkpt>
      <trkpt lat="45.04889" lon="2.89773">
        <ele>1307</ele>
        <time>2016-12-30T13:16:08.008Z</time>
      </trkpt>
      <trkpt lat="45.04887" lon="2.89767">
        <ele>1307</ele>
        <time>2016-12-30T13:16:09.008Z</time>
      </trkpt>
      <trkpt lat="45.04885" lon="2.89761">
        <ele>1307</ele>
        <time>2016-12-30T13:16:10.008Z</time>
      </trkpt>
      <trkpt lat="45.04883" lon="2.89755">
        <ele>1307</ele>
        <time>2016-12-30T13:16:11.008Z</time>
      </trkpt>
      <trkpt lat="45.04881" lon="2.89749">
        <ele>1307</ele>
        <time>2016-12-30T13:16:12.008Z</time>
      </trkpt>
      <trkpt lat="45.04879" lon="2.89743">
        <ele>1307</ele>
        <time>2016-12-30T13:16:13.008Z</time>
      </trkpt>
      <trkpt lat="45.04877" lon="2.89737">
        <ele>1307</ele>
        <time>2016-12-30T13:16:14.008Z</time>
      </trkpt>
      <trkpt lat="45.04875" lon="2.89731">
        <ele>1307</ele>
        <time>2016-12-30T13:16:15.008Z</time>
      </trkpt>
      <trkpt lat="45.04873" lon="2.89725">
        <ele>1307</ele>
        <time>2016-12-30T13:16:16.008Z</time>
      </trkpt>
      <trkpt lat="45.04872" lon="2.8972">
        <ele>1307</ele>
        <time>2016-12-30T13:16:17.008Z</time>
      </trkpt>
      <trkpt lat="45.0487" lon="2.89714">
        <ele>1307</ele>
        <time>2016-12-30T13:16:18.008Z</time>
      </trkpt>
      <trkpt lat="45.04868" lon="2.89709">
        <ele>1307</ele>
        <time>2016-12-30T13:16:19.008Z</time>
      </trkpt>
      <trkpt lat="45.04867" lon="2.89703">
        <ele>1306.1405958914</ele>
        <time>2016-12-30T13:16:20.008Z</time>
      </trkpt>
      <trkpt lat="45.04865" lon="2.89698">
        <ele>1306</ele>
        <time>2016-12-30T13:16:21.008Z</time>
      </trkpt>
      <trkpt lat="45.04863" lon="2.89692">
        <ele>1306</ele>
        <time>2016-12-30T13:16:22.008Z</time>
      </trkpt>
      <trkpt lat="45.04861" lon="2.89687">
        <ele>1306</ele>
        <time>2016-12-30T13:16:23.008Z</time>
      </trkpt>
      <trkpt lat="45.04859" lon="2.89682">
        <ele>1306</ele>
        <time>2016-12-30T13:16:24.008Z</time>
      </trkpt>
      <trkpt lat="45.04857" lon="2.89676">
        <ele>1306</ele>
        <time>2016-12-30T13:16:25.008Z</time>
      </trkpt>
      <trkpt lat="45.04854" lon="2.89671">
        <ele>1306</ele>
        <time>2016-12-30T13:16:26.008Z</time>
      </trkpt>
      <trkpt lat="45.04852" lon="2.89666">
        <ele>1306</ele>
        <time>2016-12-30T13:16:27.008Z</time>
      </trkpt>
      <trkpt lat="45.04849" lon="2.89662">
        <ele>1306</ele>
        <time>2016-12-30T13:16:28.008Z</time>
      </trkpt>
      <trkpt lat="45.04847" lon="2.89657">
        <ele>1306</ele>
        <time>2016-12-30T13:16:29.008Z</time>
      </trkpt>
      <trkpt lat="45.04844" lon="2.89652">
        <ele>1306.8679952897</ele>
        <time>2016-12-30T13:16:30.008Z</time>
      </trkpt>
      <trkpt lat="45.04842" lon="2.89647">
        <ele>1307</ele>
        <time>2016-12-30T13:16:31.008Z</time>
      </trkpt>
      <trkpt lat="45.04836" lon="2.89638">
        <ele>1307</ele>
        <time>2016-12-30T13:16:33.008Z</time>
      </trkpt>
      <trkpt lat="45.0483" lon="2.89628">
        <ele>1307</ele>
        <time>2016-12-30T13:16:35.008Z</time>
      </trkpt>
      <trkpt lat="45.04824" lon="2.89616">
        <ele>1307</ele>
        <time>2016-12-30T13:16:37.008Z</time>
      </trkpt>
      <trkpt lat="45.04819" lon="2.89605">
        <ele>1307</ele>
        <time>2016-12-30T13:16:39.008Z</time>
      </trkpt>
      <trkpt lat="45.04816" lon="2.89599">
        <ele>1307</ele>
        <time>2016-12-30T13:16:40.008Z</time>
      </trkpt>
      <trkpt lat="45.04814" lon="2.89593">
        <ele>1307</ele>
        <time>2016-12-30T13:16:41.008Z</time>
      </trkpt>
      <trkpt lat="45.04811" lon="2.89587">
        <ele>1307</ele>
        <time>2016-12-30T13:16:42.008Z</time>
      </trkpt>
      <trkpt lat="45.04809" lon="2.89581">
        <ele>1307</ele>
        <time>2016-12-30T13:16:43.008Z</time>
      </trkpt>
      <trkpt lat="45.04806" lon="2.89575">
        <ele>1307</ele>
        <time>2016-12-30T13:16:44.008Z</time>
      </trkpt>
      <trkpt lat="45.04804" lon="2.8957">
        <ele>1307</ele>
        <time>2016-12-30T13:16:45.008Z</time>
      </trkpt>
      <trkpt lat="45.04801" lon="2.89564">
        <ele>1307</ele>
        <time>2016-12-30T13:16:46.008Z</time>
      </trkpt>
      <trkpt lat="45.04798" lon="2.89559">
        <ele>1307</ele>
        <time>2016-12-30T13:16:47.008Z</time>
      </trkpt>
      <trkpt lat="45.04795" lon="2.89553">
        <ele>1307</ele>
        <time>2016-12-30T13:16:48.008Z</time>
      </trkpt>
      <trkpt lat="45.04792" lon="2.89548">
        <ele>1307</ele>
        <time>2016-12-30T13:16:49.008Z</time>
      </trkpt>
      <trkpt lat="45.04789" lon="2.89543">
        <ele>1307</ele>
        <time>2016-12-30T13:16:50.008Z</time>
      </trkpt>
      <trkpt lat="45.04786" lon="2.89538">
        <ele>1307</ele>
        <time>2016-12-30T13:16:51.008Z</time>
      </trkpt>
      <trkpt lat="45.04783" lon="2.89533">
        <ele>1307</ele>
        <time>2016-12-30T13:16:52.008Z</time>
      </trkpt>
      <trkpt lat="45.0478" lon="2.89528">
        <ele>1307</ele>
        <time>2016-12-30T13:16:53.008Z</time>
      </trkpt>
      <trkpt lat="45.04777" lon="2.89523">
        <ele>1307</ele>
        <time>2016-12-30T13:16:54.008Z</time>
      </trkpt>
      <trkpt lat="45.04773" lon="2.89518">
        <ele>1307</ele>
        <time>2016-12-30T13:16:55.008Z</time>
      </trkpt>
      <trkpt lat="45.0477" lon="2.89513">
        <ele>1307</ele>
        <time>2016-12-30T13:16:56.008Z</time>
      </trkpt>
      <trkpt lat="45.04766" lon="2.89507">
        <ele>1307</ele>
        <time>2016-12-30T13:16:57.008Z</time>
      </trkpt>
      <trkpt lat="45.04762" lon="2.89502">
        <ele>1307</ele>
        <time>2016-12-30T13:16:58.008Z</time>
      </trkpt>
      <trkpt lat="45.04759" lon="2.89497">
        <ele>1307</ele>
        <time>2016-12-30T13:16:59.008Z</time>
      </trkpt>
      <trkpt lat="45.04755" lon="2.89492">
        <ele>1305.2640094207</ele>
        <time>2016-12-30T13:17:00.008Z</time>
      </trkpt>
      <trkpt lat="45.04747" lon="2.89481">
        <ele>1305</ele>
        <time>2016-12-30T13:17:02.008Z</time>
      </trkpt>
      <trkpt lat="45.04739" lon="2.8947">
        <ele>1305</ele>
        <time>2016-12-30T13:17:04.008Z</time>
      </trkpt>
      <trkpt lat="45.04735" lon="2.89464">
        <ele>1305</ele>
        <time>2016-12-30T13:17:05.008Z</time>
      </trkpt>
      <trkpt lat="45.04732" lon="2.89458">
        <ele>1305</ele>
        <time>2016-12-30T13:17:06.008Z</time>
      </trkpt>
      <trkpt lat="45.04729" lon="2.89452">
        <ele>1305</ele>
        <time>2016-12-30T13:17:07.008Z</time>
      </trkpt>
      <trkpt lat="45.04725" lon="2.89446">
        <ele>1305</ele>
        <time>2016-12-30T13:17:08.008Z</time>
      </trkpt>
      <trkpt lat="45.04722" lon="2.89439">
        <ele>1305</ele>
        <time>2016-12-30T13:17:09.008Z</time>
      </trkpt>
      <trkpt lat="45.0472" lon="2.89433">
        <ele>1305</ele>
        <time>2016-12-30T13:17:10.008Z</time>
      </trkpt>
      <trkpt lat="45.04717" lon="2.89426">
        <ele>1305</ele>
        <time>2016-12-30T13:17:11.008Z</time>
      </trkpt>
      <trkpt lat="45.04714" lon="2.8942">
        <ele>1305</ele>
        <time>2016-12-30T13:17:12.008Z</time>
      </trkpt>
      <trkpt lat="45.04711" lon="2.89413">
        <ele>1305</ele>
        <time>2016-12-30T13:17:13.008Z</time>
      </trkpt>
      <trkpt lat="45.04709" lon="2.89406">
        <ele>1305</ele>
        <time>2016-12-30T13:17:14.008Z</time>
      </trkpt>
      <trkpt lat="45.04706" lon="2.894">
        <ele>1305</ele>
        <time>2016-12-30T13:17:15.008Z</time>
      </trkpt>
      <trkpt lat="45.04704" lon="2.89393">
        <ele>1305</ele>
        <time>2016-12-30T13:17:16.008Z</time>
      </trkpt>
      <trkpt lat="45.04702" lon="2.89386">
        <ele>1305</ele>
        <time>2016-12-30T13:17:17.008Z</time>
      </trkpt>
      <trkpt lat="45.047" lon="2.8938">
        <ele>1305</ele>
        <time>2016-12-30T13:17:18.008Z</time>
      </trkpt>
      <trkpt lat="45.04699" lon="2.89373">
        <ele>1305</ele>
        <time>2016-12-30T13:17:19.008Z</time>
      </trkpt>
      <trkpt lat="45.047" lon="2.89367">
        <ele>1304.1405958914</ele>
        <time>2016-12-30T13:17:20.008Z</time>
      </trkpt>
      <trkpt lat="45.04701" lon="2.89362">
        <ele>1304</ele>
        <time>2016-12-30T13:17:21.008Z</time>
      </trkpt>
      <trkpt lat="45.04705" lon="2.8936">
        <ele>1304</ele>
        <time>2016-12-30T13:17:22.008Z</time>
      </trkpt>
      <trkpt lat="45.04712" lon="2.8936">
        <ele>1304</ele>
        <time>2016-12-30T13:17:24.008Z</time>
      </trkpt>
      <trkpt lat="45.04716" lon="2.89361">
        <ele>1304</ele>
        <time>2016-12-30T13:17:25.008Z</time>
      </trkpt>
      <trkpt lat="45.04721" lon="2.89361">
        <ele>1304</ele>
        <time>2016-12-30T13:17:26.008Z</time>
      </trkpt>
      <trkpt lat="45.04725" lon="2.8936">
        <ele>1304</ele>
        <time>2016-12-30T13:17:27.008Z</time>
      </trkpt>
      <trkpt lat="45.04729" lon="2.89359">
        <ele>1304</ele>
        <time>2016-12-30T13:17:28.008Z</time>
      </trkpt>
      <trkpt lat="45.04737" lon="2.89356">
        <ele>1304.8679952897</ele>
        <time>2016-12-30T13:17:30.008Z</time>
      </trkpt>
      <trkpt lat="45.04744" lon="2.8935">
        <ele>1305</ele>
        <time>2016-12-30T13:17:32.008Z</time>
      </trkpt>
      <trkpt lat="45.0475" lon="2.89343">
        <ele>1305</ele>
        <time>2016-12-30T13:17:34.008Z</time>
      </trkpt>
      <trkpt lat="45.04755" lon="2.89336">
        <ele>1305</ele>
        <time>2016-12-30T13:17:36.008Z</time>
      </trkpt>
      <trkpt lat="45.0476" lon="2.89328">
        <ele>1305</ele>
        <time>2016-12-30T13:17:38.008Z</time>
      </trkpt>
      <trkpt lat="45.04766" lon="2.89321">
        <ele>1306.7359905793</ele>
        <time>2016-12-30T13:17:40.008Z</time>
      </trkpt>
      <trkpt lat="45.04772" lon="2.89313">
        <ele>1307</ele>
        <time>2016-12-30T13:17:42.008Z</time>
      </trkpt>
      <trkpt lat="45.04776" lon="2.8931">
        <ele>1307</ele>
        <time>2016-12-30T13:17:43.008Z</time>
      </trkpt>
      <trkpt lat="45.04779" lon="2.89306">
        <ele>1307</ele>
        <time>2016-12-30T13:17:44.008Z</time>
      </trkpt>
      <trkpt lat="45.04785" lon="2.89298">
        <ele>1307</ele>
        <time>2016-12-30T13:17:46.008Z</time>
      </trkpt>
      <trkpt lat="45.04791" lon="2.8929">
        <ele>1307</ele>
        <time>2016-12-30T13:17:48.008Z</time>
      </trkpt>
      <trkpt lat="45.04796" lon="2.89283">
        <ele>1307</ele>
        <time>2016-12-30T13:17:50.008Z</time>
      </trkpt>
      <trkpt lat="45.04802" lon="2.89276">
        <ele>1307</ele>
        <time>2016-12-30T13:17:52.008Z</time>
      </trkpt>
      <trkpt lat="45.04808" lon="2.89268">
        <ele>1307</ele>
        <time>2016-12-30T13:17:54.008Z</time>
      </trkpt>
      <trkpt lat="45.04811" lon="2.89264">
        <ele>1307</ele>
        <time>2016-12-30T13:17:55.008Z</time>
      </trkpt>
      <trkpt lat="45.04817" lon="2.89256">
        <ele>1307</ele>
        <time>2016-12-30T13:17:57.008Z</time>
      </trkpt>
      <trkpt lat="45.0482" lon="2.89252">
        <ele>1307</ele>
        <time>2016-12-30T13:17:58.008Z</time>
      </trkpt>
      <trkpt lat="45.04823" lon="2.89249">
        <ele>1307</ele>
        <time>2016-12-30T13:17:59.008Z</time>
      </trkpt>
      <trkpt lat="45.04826" lon="2.89245">
        <ele>1309.603985869</ele>
        <time>2016-12-30T13:18:00.008Z</time>
      </trkpt>
      <trkpt lat="45.04829" lon="2.89241">
        <ele>1310</ele>
        <time>2016-12-30T13:18:01.008Z</time>
      </trkpt>
      <trkpt lat="45.04832" lon="2.89237">
        <ele>1310</ele>
        <time>2016-12-30T13:18:02.008Z</time>
      </trkpt>
      <trkpt lat="45.04836" lon="2.89233">
        <ele>1310</ele>
        <time>2016-12-30T13:18:03.008Z</time>
      </trkpt>
      <trkpt lat="45.04842" lon="2.89224">
        <ele>1311.7360094209</ele>
        <time>2016-12-30T13:18:05.008Z</time>
      </trkpt>
      <trkpt lat="45.04849" lon="2.89215">
        <ele>1312</ele>
        <time>2016-12-30T13:18:07.008Z</time>
      </trkpt>
      <trkpt lat="45.04855" lon="2.89207">
        <ele>1312</ele>
        <time>2016-12-30T13:18:09.008Z</time>
      </trkpt>
      <trkpt lat="45.0486" lon="2.892">
        <ele>1314</ele>
        <time>2016-12-30T13:18:11.008Z</time>
      </trkpt>
      <trkpt lat="45.04866" lon="2.89193">
        <ele>1314</ele>
        <time>2016-12-30T13:18:13.008Z</time>
      </trkpt>
      <trkpt lat="45.04871" lon="2.89186">
        <ele>1314.8666718384</ele>
        <time>2016-12-30T13:18:15.008Z</time>
      </trkpt>
      <trkpt lat="45.04876" lon="2.8918">
        <ele>1315</ele>
        <time>2016-12-30T13:18:17.008Z</time>
      </trkpt>
      <trkpt lat="45.04881" lon="2.89173">
        <ele>1315</ele>
        <time>2016-12-30T13:18:19.008Z</time>
      </trkpt>
      <trkpt lat="45.04886" lon="2.89167">
        <ele>1315</ele>
        <time>2016-12-30T13:18:21.008Z</time>
      </trkpt>
      <trkpt lat="45.04891" lon="2.8916">
        <ele>1315</ele>
        <time>2016-12-30T13:18:24.008Z</time>
      </trkpt>
      <trkpt lat="45.04896" lon="2.89154">
        <ele>1315</ele>
        <time>2016-12-30T13:18:28.008Z</time>
      </trkpt>
      <trkpt lat="45.04901" lon="2.89147">
        <ele>1315</ele>
        <time>2016-12-30T13:18:33.008Z</time>
      </trkpt>
      <trkpt lat="45.04904" lon="2.89141">
        <ele>1315</ele>
        <time>2016-12-30T13:18:36.008Z</time>
      </trkpt>
      <trkpt lat="45.04908" lon="2.89134">
        <ele>1315</ele>
        <time>2016-12-30T13:18:38.008Z</time>
      </trkpt>
      <trkpt lat="45.0491" lon="2.8913">
        <ele>1315</ele>
        <time>2016-12-30T13:18:39.008Z</time>
      </trkpt>
      <trkpt lat="45.04914" lon="2.89122">
        <ele>1316</ele>
        <time>2016-12-30T13:18:41.008Z</time>
      </trkpt>
      <trkpt lat="45.04919" lon="2.89113">
        <ele>1316</ele>
        <time>2016-12-30T13:18:43.008Z</time>
      </trkpt>
      <trkpt lat="45.04922" lon="2.89108">
        <ele>1316</ele>
        <time>2016-12-30T13:18:44.008Z</time>
      </trkpt>
      <trkpt lat="45.04927" lon="2.89099">
        <ele>1316</ele>
        <time>2016-12-30T13:18:46.008Z</time>
      </trkpt>
      <trkpt lat="45.04933" lon="2.89088">
        <ele>1316</ele>
        <time>2016-12-30T13:18:48.008Z</time>
      </trkpt>
      <trkpt lat="45.04938" lon="2.89077">
        <ele>1316</ele>
        <time>2016-12-30T13:18:50.008Z</time>
      </trkpt>
      <trkpt lat="45.04945" lon="2.89066">
        <ele>1316</ele>
        <time>2016-12-30T13:18:52.008Z</time>
      </trkpt>
      <trkpt lat="45.04951" lon="2.89055">
        <ele>1316</ele>
        <time>2016-12-30T13:18:54.008Z</time>
      </trkpt>
      <trkpt lat="45.04958" lon="2.89043">
        <ele>1316</ele>
        <time>2016-12-30T13:18:56.008Z</time>
      </trkpt>
      <trkpt lat="45.04961" lon="2.89038">
        <ele>1316</ele>
        <time>2016-12-30T13:18:57.008Z</time>
      </trkpt>
      <trkpt lat="45.04964" lon="2.89032">
        <ele>1316</ele>
        <time>2016-12-30T13:18:58.008Z</time>
      </trkpt>
      <trkpt lat="45.04968" lon="2.89025">
        <ele>1316</ele>
        <time>2016-12-30T13:18:59.008Z</time>
      </trkpt>
      <trkpt lat="45.04971" lon="2.89019">
        <ele>1313.396014131</ele>
        <time>2016-12-30T13:19:00.008Z</time>
      </trkpt>
      <trkpt lat="45.04975" lon="2.89012">
        <ele>1313</ele>
        <time>2016-12-30T13:19:01.008Z</time>
      </trkpt>
      <trkpt lat="45.04979" lon="2.89005">
        <ele>1313</ele>
        <time>2016-12-30T13:19:02.008Z</time>
      </trkpt>
      <trkpt lat="45.04983" lon="2.88997">
        <ele>1313</ele>
        <time>2016-12-30T13:19:03.008Z</time>
      </trkpt>
      <trkpt lat="45.04987" lon="2.8899">
        <ele>1313</ele>
        <time>2016-12-30T13:19:04.008Z</time>
      </trkpt>
      <trkpt lat="45.04991" lon="2.88983">
        <ele>1313</ele>
        <time>2016-12-30T13:19:05.008Z</time>
      </trkpt>
      <trkpt lat="45.04995" lon="2.88976">
        <ele>1313</ele>
        <time>2016-12-30T13:19:06.008Z</time>
      </trkpt>
      <trkpt lat="45.04999" lon="2.88969">
        <ele>1313</ele>
        <time>2016-12-30T13:19:07.008Z</time>
      </trkpt>
      <trkpt lat="45.05003" lon="2.88961">
        <ele>1313</ele>
        <time>2016-12-30T13:19:08.008Z</time>
      </trkpt>
      <trkpt lat="45.05007" lon="2.88954">
        <ele>1313</ele>
        <time>2016-12-30T13:19:09.008Z</time>
      </trkpt>
      <trkpt lat="45.05011" lon="2.88947">
        <ele>1313</ele>
        <time>2016-12-30T13:19:10.008Z</time>
      </trkpt>
      <trkpt lat="45.05015" lon="2.8894">
        <ele>1313</ele>
        <time>2016-12-30T13:19:11.008Z</time>
      </trkpt>
      <trkpt lat="45.05019" lon="2.88933">
        <ele>1313</ele>
        <time>2016-12-30T13:19:12.008Z</time>
      </trkpt>
      <trkpt lat="45.05023" lon="2.88926">
        <ele>1313</ele>
        <time>2016-12-30T13:19:13.008Z</time>
      </trkpt>
      <trkpt lat="45.05026" lon="2.88919">
        <ele>1313</ele>
        <time>2016-12-30T13:19:14.008Z</time>
      </trkpt>
      <trkpt lat="45.0503" lon="2.88913">
        <ele>1313</ele>
        <time>2016-12-30T13:19:15.008Z</time>
      </trkpt>
      <trkpt lat="45.05034" lon="2.88906">
        <ele>1313</ele>
        <time>2016-12-30T13:19:16.008Z</time>
      </trkpt>
      <trkpt lat="45.05037" lon="2.88899">
        <ele>1313</ele>
        <time>2016-12-30T13:19:17.008Z</time>
      </trkpt>
      <trkpt lat="45.0504" lon="2.88892">
        <ele>1313</ele>
        <time>2016-12-30T13:19:18.008Z</time>
      </trkpt>
      <trkpt lat="45.05043" lon="2.88885">
        <ele>1313</ele>
        <time>2016-12-30T13:19:19.008Z</time>
      </trkpt>
      <trkpt lat="45.05046" lon="2.88877">
        <ele>1312.1405958914</ele>
        <time>2016-12-30T13:19:20.008Z</time>
      </trkpt>
      <trkpt lat="45.05048" lon="2.88868">
        <ele>1312</ele>
        <time>2016-12-30T13:19:21.008Z</time>
      </trkpt>
      <trkpt lat="45.05051" lon="2.8886">
        <ele>1312</ele>
        <time>2016-12-30T13:19:22.008Z</time>
      </trkpt>
      <trkpt lat="45.05054" lon="2.88851">
        <ele>1312</ele>
        <time>2016-12-30T13:19:23.008Z</time>
      </trkpt>
      <trkpt lat="45.05056" lon="2.88841">
        <ele>1312</ele>
        <time>2016-12-30T13:19:24.008Z</time>
      </trkpt>
      <trkpt lat="45.05059" lon="2.88831">
        <ele>1312</ele>
        <time>2016-12-30T13:19:25.008Z</time>
      </trkpt>
      <trkpt lat="45.05062" lon="2.88822">
        <ele>1312</ele>
        <time>2016-12-30T13:19:26.008Z</time>
      </trkpt>
      <trkpt lat="45.05065" lon="2.88812">
        <ele>1312</ele>
        <time>2016-12-30T13:19:27.008Z</time>
      </trkpt>
      <trkpt lat="45.05068" lon="2.88802">
        <ele>1312</ele>
        <time>2016-12-30T13:19:28.008Z</time>
      </trkpt>
      <trkpt lat="45.05072" lon="2.88794">
        <ele>1312</ele>
        <time>2016-12-30T13:19:29.008Z</time>
      </trkpt>
      <trkpt lat="45.05076" lon="2.88786">
        <ele>1310.2640094207</ele>
        <time>2016-12-30T13:19:30.008Z</time>
      </trkpt>
      <trkpt lat="45.05081" lon="2.88779">
        <ele>1310</ele>
        <time>2016-12-30T13:19:31.008Z</time>
      </trkpt>
      <trkpt lat="45.05086" lon="2.88772">
        <ele>1310</ele>
        <time>2016-12-30T13:19:32.008Z</time>
      </trkpt>
      <trkpt lat="45.05092" lon="2.88768">
        <ele>1310</ele>
        <time>2016-12-30T13:19:33.008Z</time>
      </trkpt>
      <trkpt lat="45.05098" lon="2.88764">
        <ele>1310</ele>
        <time>2016-12-30T13:19:34.008Z</time>
      </trkpt>
      <trkpt lat="45.05104" lon="2.88762">
        <ele>1310</ele>
        <time>2016-12-30T13:19:35.008Z</time>
      </trkpt>
      <trkpt lat="45.05111" lon="2.8876">
        <ele>1310</ele>
        <time>2016-12-30T13:19:36.008Z</time>
      </trkpt>
      <trkpt lat="45.05117" lon="2.8876">
        <ele>1310</ele>
        <time>2016-12-30T13:19:37.008Z</time>
      </trkpt>
      <trkpt lat="45.05122" lon="2.88761">
        <ele>1310</ele>
        <time>2016-12-30T13:19:38.008Z</time>
      </trkpt>
      <trkpt lat="45.05134" lon="2.88763">
        <ele>1310.8679952897</ele>
        <time>2016-12-30T13:19:40.008Z</time>
      </trkpt>
      <trkpt lat="45.05139" lon="2.88763">
        <ele>1311</ele>
        <time>2016-12-30T13:19:41.008Z</time>
      </trkpt>
      <trkpt lat="45.05143" lon="2.88762">
        <ele>1311</ele>
        <time>2016-12-30T13:19:42.008Z</time>
      </trkpt>
      <trkpt lat="45.05147" lon="2.88761">
        <ele>1311</ele>
        <time>2016-12-30T13:19:43.008Z</time>
      </trkpt>
      <trkpt lat="45.0515" lon="2.88759">
        <ele>1311</ele>
        <time>2016-12-30T13:19:44.008Z</time>
      </trkpt>
      <trkpt lat="45.05153" lon="2.88756">
        <ele>1311</ele>
        <time>2016-12-30T13:19:45.008Z</time>
      </trkpt>
      <trkpt lat="45.05156" lon="2.88753">
        <ele>1311</ele>
        <time>2016-12-30T13:19:46.008Z</time>
      </trkpt>
      <trkpt lat="45.05158" lon="2.8875">
        <ele>1311</ele>
        <time>2016-12-30T13:19:47.008Z</time>
      </trkpt>
      <trkpt lat="45.0516" lon="2.88747">
        <ele>1311</ele>
        <time>2016-12-30T13:19:48.008Z</time>
      </trkpt>
      <trkpt lat="45.05162" lon="2.88744">
        <ele>1311</ele>
        <time>2016-12-30T13:19:49.008Z</time>
      </trkpt>
      <trkpt lat="45.05163" lon="2.88741">
        <ele>1312.7188082173</ele>
        <time>2016-12-30T13:19:50.008Z</time>
      </trkpt>
      <trkpt lat="45.05165" lon="2.88738">
        <ele>1313</ele>
        <time>2016-12-30T13:19:51.008Z</time>
      </trkpt>
      <trkpt lat="45.05166" lon="2.88734">
        <ele>1313</ele>
        <time>2016-12-30T13:19:52.008Z</time>
      </trkpt>
      <trkpt lat="45.05167" lon="2.8873">
        <ele>1313</ele>
        <time>2016-12-30T13:19:53.008Z</time>
      </trkpt>
      <trkpt lat="45.05167" lon="2.88726">
        <ele>1313</ele>
        <time>2016-12-30T13:19:54.008Z</time>
      </trkpt>
      <trkpt lat="45.05168" lon="2.88722">
        <ele>1313</ele>
        <time>2016-12-30T13:19:55.008Z</time>
      </trkpt>
      <trkpt lat="45.05168" lon="2.88718">
        <ele>1313</ele>
        <time>2016-12-30T13:19:56.008Z</time>
      </trkpt>
      <trkpt lat="45.05169" lon="2.88715">
        <ele>1313</ele>
        <time>2016-12-30T13:19:57.008Z</time>
      </trkpt>
      <trkpt lat="45.05171" lon="2.88707">
        <ele>1313</ele>
        <time>2016-12-30T13:19:59.008Z</time>
      </trkpt>
      <trkpt lat="45.05171" lon="2.88701">
        <ele>1316</ele>
        <time>2016-12-30T13:20:01.008Z</time>
      </trkpt>
      <trkpt lat="45.05171" lon="2.88693">
        <ele>1316</ele>
        <time>2016-12-30T13:20:03.008Z</time>
      </trkpt>
      <trkpt lat="45.05171" lon="2.88685">
        <ele>1317.7360094209</ele>
        <time>2016-12-30T13:20:05.008Z</time>
      </trkpt>
      <trkpt lat="45.05171" lon="2.88681">
        <ele>1318</ele>
        <time>2016-12-30T13:20:06.008Z</time>
      </trkpt>
      <trkpt lat="45.05171" lon="2.88676">
        <ele>1318</ele>
        <time>2016-12-30T13:20:07.008Z</time>
      </trkpt>
      <trkpt lat="45.05171" lon="2.88672">
        <ele>1318</ele>
        <time>2016-12-30T13:20:08.008Z</time>
      </trkpt>
      <trkpt lat="45.05171" lon="2.88667">
        <ele>1318</ele>
        <time>2016-12-30T13:20:09.008Z</time>
      </trkpt>
      <trkpt lat="45.0517" lon="2.88663">
        <ele>1318</ele>
        <time>2016-12-30T13:20:10.008Z</time>
      </trkpt>
      <trkpt lat="45.05167" lon="2.8865">
        <ele>1318</ele>
        <time>2016-12-30T13:20:13.008Z</time>
      </trkpt>
      <trkpt lat="45.05164" lon="2.8864">
        <ele>1318</ele>
        <time>2016-12-30T13:20:16.008Z</time>
      </trkpt>
      <trkpt lat="45.05164" lon="2.88633">
        <ele>1318</ele>
        <time>2016-12-30T13:20:18.008Z</time>
      </trkpt>
      <trkpt lat="45.05167" lon="2.88628">
        <ele>1319.7188082173</ele>
        <time>2016-12-30T13:20:20.008Z</time>
      </trkpt>
      <trkpt lat="45.05172" lon="2.88627">
        <ele>1320</ele>
        <time>2016-12-30T13:20:22.008Z</time>
      </trkpt>
      <trkpt lat="45.05176" lon="2.88625">
        <ele>1320</ele>
        <time>2016-12-30T13:20:24.008Z</time>
      </trkpt>
      <trkpt lat="45.05183" lon="2.8862">
        <ele>1320</ele>
        <time>2016-12-30T13:20:27.008Z</time>
      </trkpt>
      <trkpt lat="45.05188" lon="2.88617">
        <ele>1320</ele>
        <time>2016-12-30T13:20:29.008Z</time>
      </trkpt>
      <trkpt lat="45.05193" lon="2.88613">
        <ele>1322</ele>
        <time>2016-12-30T13:20:31.008Z</time>
      </trkpt>
      <trkpt lat="45.05198" lon="2.88608">
        <ele>1322</ele>
        <time>2016-12-30T13:20:33.008Z</time>
      </trkpt>
      <trkpt lat="45.05204" lon="2.88604">
        <ele>1322</ele>
        <time>2016-12-30T13:20:35.008Z</time>
      </trkpt>
      <trkpt lat="45.0521" lon="2.88599">
        <ele>1322</ele>
        <time>2016-12-30T13:20:37.008Z</time>
      </trkpt>
      <trkpt lat="45.05216" lon="2.88594">
        <ele>1322</ele>
        <time>2016-12-30T13:20:39.008Z</time>
      </trkpt>
      <trkpt lat="45.05223" lon="2.88589">
        <ele>1324</ele>
        <time>2016-12-30T13:20:41.008Z</time>
      </trkpt>
      <trkpt lat="45.05229" lon="2.88584">
        <ele>1324</ele>
        <time>2016-12-30T13:20:43.008Z</time>
      </trkpt>
      <trkpt lat="45.05235" lon="2.88579">
        <ele>1324</ele>
        <time>2016-12-30T13:20:45.008Z</time>
      </trkpt>
      <trkpt lat="45.0524" lon="2.88575">
        <ele>1324</ele>
        <time>2016-12-30T13:20:47.008Z</time>
      </trkpt>
      <trkpt lat="45.05244" lon="2.88571">
        <ele>1324</ele>
        <time>2016-12-30T13:20:50.008Z</time>
      </trkpt>
      <trkpt lat="45.0525" lon="2.88565">
        <ele>1324</ele>
        <time>2016-12-30T13:23:19.008Z</time>
      </trkpt>
      <trkpt lat="45.05257" lon="2.88561">
        <ele>1325</ele>
        <time>2016-12-30T13:23:22.008Z</time>
      </trkpt>
      <trkpt lat="45.05264" lon="2.88555">
        <ele>1325</ele>
        <time>2016-12-30T13:23:25.008Z</time>
      </trkpt>
      <trkpt lat="45.0527" lon="2.8855">
        <ele>1325</ele>
        <time>2016-12-30T13:23:27.008Z</time>
      </trkpt>
      <trkpt lat="45.05275" lon="2.88546">
        <ele>1325</ele>
        <time>2016-12-30T13:23:29.008Z</time>
      </trkpt>
      <trkpt lat="45.0528" lon="2.88542">
        <ele>1325</ele>
        <time>2016-12-30T13:23:31.008Z</time>
      </trkpt>
      <trkpt lat="45.05286" lon="2.88537">
        <ele>1325</ele>
        <time>2016-12-30T13:23:33.008Z</time>
      </trkpt>
      <trkpt lat="45.05292" lon="2.88532">
        <ele>1325</ele>
        <time>2016-12-30T13:23:35.008Z</time>
      </trkpt>
      <trkpt lat="45.05299" lon="2.88526">
        <ele>1325</ele>
        <time>2016-12-30T13:23:37.008Z</time>
      </trkpt>
      <trkpt lat="45.05306" lon="2.8852">
        <ele>1325</ele>
        <time>2016-12-30T13:23:39.008Z</time>
      </trkpt>
      <trkpt lat="45.05312" lon="2.88514">
        <ele>1326</ele>
        <time>2016-12-30T13:23:41.008Z</time>
      </trkpt>
      <trkpt lat="45.05316" lon="2.88511">
        <ele>1326</ele>
        <time>2016-12-30T13:23:42.008Z</time>
      </trkpt>
      <trkpt lat="45.05319" lon="2.88508">
        <ele>1326</ele>
        <time>2016-12-30T13:23:43.008Z</time>
      </trkpt>
      <trkpt lat="45.05325" lon="2.88502">
        <ele>1326</ele>
        <time>2016-12-30T13:23:45.008Z</time>
      </trkpt>
      <trkpt lat="45.05332" lon="2.88496">
        <ele>1326</ele>
        <time>2016-12-30T13:23:47.008Z</time>
      </trkpt>
      <trkpt lat="45.05335" lon="2.88494">
        <ele>1326</ele>
        <time>2016-12-30T13:23:48.008Z</time>
      </trkpt>
      <trkpt lat="45.05338" lon="2.88491">
        <ele>1326</ele>
        <time>2016-12-30T13:23:49.008Z</time>
      </trkpt>
      <trkpt lat="45.05341" lon="2.88488">
        <ele>1328.5782123259</ele>
        <time>2016-12-30T13:23:50.008Z</time>
      </trkpt>
      <trkpt lat="45.05344" lon="2.88486">
        <ele>1329</ele>
        <time>2016-12-30T13:23:51.008Z</time>
      </trkpt>
      <trkpt lat="45.05347" lon="2.88483">
        <ele>1329</ele>
        <time>2016-12-30T13:23:52.008Z</time>
      </trkpt>
      <trkpt lat="45.0535" lon="2.88481">
        <ele>1329</ele>
        <time>2016-12-30T13:23:53.008Z</time>
      </trkpt>
      <trkpt lat="45.05353" lon="2.88478">
        <ele>1329</ele>
        <time>2016-12-30T13:23:54.008Z</time>
      </trkpt>
      <trkpt lat="45.05356" lon="2.88476">
        <ele>1331.6040141314</ele>
        <time>2016-12-30T13:23:55.008Z</time>
      </trkpt>
      <trkpt lat="45.05359" lon="2.88474">
        <ele>1332</ele>
        <time>2016-12-30T13:23:56.008Z</time>
      </trkpt>
      <trkpt lat="45.05367" lon="2.88467">
        <ele>1332</ele>
        <time>2016-12-30T13:23:59.008Z</time>
      </trkpt>
      <trkpt lat="45.05369" lon="2.88464">
        <ele>1332.8679952897</ele>
        <time>2016-12-30T13:24:00.008Z</time>
      </trkpt>
      <trkpt lat="45.05372" lon="2.8846">
        <ele>1333</ele>
        <time>2016-12-30T13:24:02.008Z</time>
      </trkpt>
      <trkpt lat="45.05376" lon="2.8846">
        <ele>1333</ele>
        <time>2016-12-30T13:24:04.008Z</time>
      </trkpt>
      <trkpt lat="45.05379" lon="2.88467">
        <ele>1334</ele>
        <time>2016-12-30T13:24:06.008Z</time>
      </trkpt>
      <trkpt lat="45.05382" lon="2.88475">
        <ele>1334</ele>
        <time>2016-12-30T13:24:08.008Z</time>
      </trkpt>
      <trkpt lat="45.05383" lon="2.88487">
        <ele>1334</ele>
        <time>2016-12-30T13:24:10.008Z</time>
      </trkpt>
      <trkpt lat="45.05384" lon="2.88497">
        <ele>1334</ele>
        <time>2016-12-30T13:24:12.008Z</time>
      </trkpt>
      <trkpt lat="45.05397" lon="2.88496">
        <ele>1334</ele>
        <time>2016-12-30T13:24:15.008Z</time>
      </trkpt>
      <trkpt lat="45.05403" lon="2.88488">
        <ele>1334</ele>
        <time>2016-12-30T13:24:17.008Z</time>
      </trkpt>
      <trkpt lat="45.05405" lon="2.88478">
        <ele>1334</ele>
        <time>2016-12-30T13:24:19.008Z</time>
      </trkpt>
      <trkpt lat="45.05403" lon="2.88469">
        <ele>1335</ele>
        <time>2016-12-30T13:24:21.008Z</time>
      </trkpt>
      <trkpt lat="45.05401" lon="2.8846">
        <ele>1335</ele>
        <time>2016-12-30T13:24:23.008Z</time>
      </trkpt>
      <trkpt lat="45.054" lon="2.88452">
        <ele>1335</ele>
        <time>2016-12-30T13:24:25.008Z</time>
      </trkpt>
      <trkpt lat="45.05398" lon="2.88442">
        <ele>1335</ele>
        <time>2016-12-30T13:24:27.008Z</time>
      </trkpt>
      <trkpt lat="45.05396" lon="2.88434">
        <ele>1335</ele>
        <time>2016-12-30T13:24:29.008Z</time>
      </trkpt>
      <trkpt lat="45.05394" lon="2.88426">
        <ele>1337</ele>
        <time>2016-12-30T13:24:31.008Z</time>
      </trkpt>
      <trkpt lat="45.05392" lon="2.88419">
        <ele>1337</ele>
        <time>2016-12-30T13:24:33.008Z</time>
      </trkpt>
      <trkpt lat="45.0539" lon="2.88411">
        <ele>1337</ele>
        <time>2016-12-30T13:24:35.008Z</time>
      </trkpt>
      <trkpt lat="45.05388" lon="2.88404">
        <ele>1337</ele>
        <time>2016-12-30T13:24:37.008Z</time>
      </trkpt>
      <trkpt lat="45.05386" lon="2.88396">
        <ele>1337</ele>
        <time>2016-12-30T13:24:39.008Z</time>
      </trkpt>
      <trkpt lat="45.05385" lon="2.88388">
        <ele>1340</ele>
        <time>2016-12-30T13:24:41.008Z</time>
      </trkpt>
      <trkpt lat="45.05384" lon="2.88384">
        <ele>1340</ele>
        <time>2016-12-30T13:24:42.008Z</time>
      </trkpt>
      <trkpt lat="45.05382" lon="2.88377">
        <ele>1340</ele>
        <time>2016-12-30T13:24:44.008Z</time>
      </trkpt>
      <trkpt lat="45.05379" lon="2.8837">
        <ele>1341</ele>
        <time>2016-12-30T13:24:46.008Z</time>
      </trkpt>
      <trkpt lat="45.05376" lon="2.88364">
        <ele>1341</ele>
        <time>2016-12-30T13:24:48.008Z</time>
      </trkpt>
      <trkpt lat="45.05374" lon="2.88356">
        <ele>1341</ele>
        <time>2016-12-30T13:24:50.008Z</time>
      </trkpt>
      <trkpt lat="45.05372" lon="2.88349">
        <ele>1341</ele>
        <time>2016-12-30T13:24:52.008Z</time>
      </trkpt>
      <trkpt lat="45.05371" lon="2.88345">
        <ele>1341</ele>
        <time>2016-12-30T13:24:53.008Z</time>
      </trkpt>
      <trkpt lat="45.05371" lon="2.88341">
        <ele>1341</ele>
        <time>2016-12-30T13:24:54.008Z</time>
      </trkpt>
      <trkpt lat="45.05369" lon="2.88333">
        <ele>1341</ele>
        <time>2016-12-30T13:24:56.008Z</time>
      </trkpt>
      <trkpt lat="45.05368" lon="2.88329">
        <ele>1341</ele>
        <time>2016-12-30T13:24:57.008Z</time>
      </trkpt>
      <trkpt lat="45.05367" lon="2.88325">
        <ele>1341</ele>
        <time>2016-12-30T13:24:58.008Z</time>
      </trkpt>
      <trkpt lat="45.05366" lon="2.88321">
        <ele>1341</ele>
        <time>2016-12-30T13:24:59.008Z</time>
      </trkpt>
      <trkpt lat="45.05366" lon="2.88317">
        <ele>1343.603985869</ele>
        <time>2016-12-30T13:25:00.008Z</time>
      </trkpt>
      <trkpt lat="45.05365" lon="2.88313">
        <ele>1344</ele>
        <time>2016-12-30T13:25:01.008Z</time>
      </trkpt>
      <trkpt lat="45.05364" lon="2.88309">
        <ele>1344</ele>
        <time>2016-12-30T13:25:02.008Z</time>
      </trkpt>
      <trkpt lat="45.05363" lon="2.88305">
        <ele>1344</ele>
        <time>2016-12-30T13:25:03.008Z</time>
      </trkpt>
      <trkpt lat="45.05363" lon="2.88301">
        <ele>1344</ele>
        <time>2016-12-30T13:25:04.008Z</time>
      </trkpt>
      <trkpt lat="45.05361" lon="2.88293">
        <ele>1346</ele>
        <time>2016-12-30T13:25:06.008Z</time>
      </trkpt>
      <trkpt lat="45.05361" lon="2.8829">
        <ele>1346</ele>
        <time>2016-12-30T13:25:07.008Z</time>
      </trkpt>
      <trkpt lat="45.0536" lon="2.88286">
        <ele>1346</ele>
        <time>2016-12-30T13:25:08.008Z</time>
      </trkpt>
      <trkpt lat="45.05359" lon="2.88282">
        <ele>1346</ele>
        <time>2016-12-30T13:25:09.008Z</time>
      </trkpt>
      <trkpt lat="45.05359" lon="2.88278">
        <ele>1346.8679952897</ele>
        <time>2016-12-30T13:25:10.008Z</time>
      </trkpt>
      <trkpt lat="45.05358" lon="2.88274">
        <ele>1347</ele>
        <time>2016-12-30T13:25:11.008Z</time>
      </trkpt>
      <trkpt lat="45.05358" lon="2.8827">
        <ele>1347</ele>
        <time>2016-12-30T13:25:12.008Z</time>
      </trkpt>
      <trkpt lat="45.05357" lon="2.88266">
        <ele>1347</ele>
        <time>2016-12-30T13:25:13.008Z</time>
      </trkpt>
      <trkpt lat="45.05356" lon="2.88262">
        <ele>1347</ele>
        <time>2016-12-30T13:25:14.008Z</time>
      </trkpt>
      <trkpt lat="45.05356" lon="2.88258">
        <ele>1348.7333436769</ele>
        <time>2016-12-30T13:25:15.008Z</time>
      </trkpt>
      <trkpt lat="45.05355" lon="2.88254">
        <ele>1349</ele>
        <time>2016-12-30T13:25:16.008Z</time>
      </trkpt>
      <trkpt lat="45.05355" lon="2.8825">
        <ele>1349</ele>
        <time>2016-12-30T13:25:17.008Z</time>
      </trkpt>
      <trkpt lat="45.05354" lon="2.88241">
        <ele>1349</ele>
        <time>2016-12-30T13:25:19.008Z</time>
      </trkpt>
      <trkpt lat="45.05353" lon="2.88234">
        <ele>1349</ele>
        <time>2016-12-30T13:25:21.008Z</time>
      </trkpt>
      <trkpt lat="45.05352" lon="2.88226">
        <ele>1349</ele>
        <time>2016-12-30T13:25:23.008Z</time>
      </trkpt>
      <trkpt lat="45.05351" lon="2.88217">
        <ele>1349</ele>
        <time>2016-12-30T13:25:25.008Z</time>
      </trkpt>
      <trkpt lat="45.0535" lon="2.88208">
        <ele>1349</ele>
        <time>2016-12-30T13:25:27.008Z</time>
      </trkpt>
      <trkpt lat="45.05349" lon="2.88199">
        <ele>1349</ele>
        <time>2016-12-30T13:25:29.008Z</time>
      </trkpt>
      <trkpt lat="45.05348" lon="2.88194">
        <ele>1350.7359905793</ele>
        <time>2016-12-30T13:25:30.008Z</time>
      </trkpt>
      <trkpt lat="45.05348" lon="2.8819">
        <ele>1351</ele>
        <time>2016-12-30T13:25:31.008Z</time>
      </trkpt>
      <trkpt lat="45.05348" lon="2.88185">
        <ele>1351</ele>
        <time>2016-12-30T13:25:32.008Z</time>
      </trkpt>
      <trkpt lat="45.05347" lon="2.8818">
        <ele>1351</ele>
        <time>2016-12-30T13:25:33.008Z</time>
      </trkpt>
      <trkpt lat="45.05347" lon="2.88176">
        <ele>1351</ele>
        <time>2016-12-30T13:25:34.008Z</time>
      </trkpt>
      <trkpt lat="45.05346" lon="2.88171">
        <ele>1351</ele>
        <time>2016-12-30T13:25:35.008Z</time>
      </trkpt>
      <trkpt lat="45.05346" lon="2.88166">
        <ele>1351</ele>
        <time>2016-12-30T13:25:36.008Z</time>
      </trkpt>
      <trkpt lat="45.05346" lon="2.88162">
        <ele>1351</ele>
        <time>2016-12-30T13:25:37.008Z</time>
      </trkpt>
      <trkpt lat="45.05345" lon="2.88157">
        <ele>1351</ele>
        <time>2016-12-30T13:25:38.008Z</time>
      </trkpt>
      <trkpt lat="45.05345" lon="2.88152">
        <ele>1351</ele>
        <time>2016-12-30T13:25:39.008Z</time>
      </trkpt>
      <trkpt lat="45.05345" lon="2.88146">
        <ele>1352.730600943</ele>
        <time>2016-12-30T13:25:40.008Z</time>
      </trkpt>
      <trkpt lat="45.05344" lon="2.88141">
        <ele>1353</ele>
        <time>2016-12-30T13:25:41.008Z</time>
      </trkpt>
      <trkpt lat="45.05344" lon="2.88136">
        <ele>1353</ele>
        <time>2016-12-30T13:25:42.008Z</time>
      </trkpt>
      <trkpt lat="45.05343" lon="2.8813">
        <ele>1353</ele>
        <time>2016-12-30T13:25:43.008Z</time>
      </trkpt>
      <trkpt lat="45.05343" lon="2.88125">
        <ele>1353</ele>
        <time>2016-12-30T13:25:44.008Z</time>
      </trkpt>
      <trkpt lat="45.05342" lon="2.88119">
        <ele>1353</ele>
        <time>2016-12-30T13:25:45.008Z</time>
      </trkpt>
      <trkpt lat="45.05342" lon="2.88113">
        <ele>1353</ele>
        <time>2016-12-30T13:25:46.008Z</time>
      </trkpt>
      <trkpt lat="45.05341" lon="2.88107">
        <ele>1353</ele>
        <time>2016-12-30T13:25:47.008Z</time>
      </trkpt>
      <trkpt lat="45.05341" lon="2.88101">
        <ele>1353</ele>
        <time>2016-12-30T13:25:48.008Z</time>
      </trkpt>
      <trkpt lat="45.0534" lon="2.88095">
        <ele>1353</ele>
        <time>2016-12-30T13:25:49.008Z</time>
      </trkpt>
      <trkpt lat="45.0534" lon="2.88089">
        <ele>1353.8594041086</ele>
        <time>2016-12-30T13:25:50.008Z</time>
      </trkpt>
      <trkpt lat="45.05339" lon="2.88083">
        <ele>1354</ele>
        <time>2016-12-30T13:25:51.008Z</time>
      </trkpt>
      <trkpt lat="45.05339" lon="2.88077">
        <ele>1354</ele>
        <time>2016-12-30T13:25:52.008Z</time>
      </trkpt>
      <trkpt lat="45.05338" lon="2.88071">
        <ele>1354</ele>
        <time>2016-12-30T13:25:53.008Z</time>
      </trkpt>
      <trkpt lat="45.05337" lon="2.88065">
        <ele>1354</ele>
        <time>2016-12-30T13:25:54.008Z</time>
      </trkpt>
      <trkpt lat="45.05336" lon="2.88059">
        <ele>1354</ele>
        <time>2016-12-30T13:25:55.008Z</time>
      </trkpt>
      <trkpt lat="45.05336" lon="2.88053">
        <ele>1354</ele>
        <time>2016-12-30T13:25:56.008Z</time>
      </trkpt>
      <trkpt lat="45.05335" lon="2.88047">
        <ele>1354</ele>
        <time>2016-12-30T13:25:57.008Z</time>
      </trkpt>
      <trkpt lat="45.05334" lon="2.88041">
        <ele>1354</ele>
        <time>2016-12-30T13:25:58.008Z</time>
      </trkpt>
      <trkpt lat="45.05334" lon="2.88035">
        <ele>1354</ele>
        <time>2016-12-30T13:25:59.008Z</time>
      </trkpt>
      <trkpt lat="45.05333" lon="2.88029">
        <ele>1354.8679952897</ele>
        <time>2016-12-30T13:26:00.008Z</time>
      </trkpt>
      <trkpt lat="45.05332" lon="2.88023">
        <ele>1355</ele>
        <time>2016-12-30T13:26:01.008Z</time>
      </trkpt>
      <trkpt lat="45.05332" lon="2.88017">
        <ele>1355</ele>
        <time>2016-12-30T13:26:02.008Z</time>
      </trkpt>
      <trkpt lat="45.05331" lon="2.88011">
        <ele>1355</ele>
        <time>2016-12-30T13:26:03.008Z</time>
      </trkpt>
      <trkpt lat="45.0533" lon="2.88005">
        <ele>1355</ele>
        <time>2016-12-30T13:26:04.008Z</time>
      </trkpt>
      <trkpt lat="45.0533" lon="2.87999">
        <ele>1355</ele>
        <time>2016-12-30T13:26:05.008Z</time>
      </trkpt>
      <trkpt lat="45.05329" lon="2.87994">
        <ele>1355</ele>
        <time>2016-12-30T13:26:06.008Z</time>
      </trkpt>
      <trkpt lat="45.05329" lon="2.87988">
        <ele>1355</ele>
        <time>2016-12-30T13:26:07.008Z</time>
      </trkpt>
      <trkpt lat="45.05329" lon="2.87982">
        <ele>1355</ele>
        <time>2016-12-30T13:26:08.008Z</time>
      </trkpt>
      <trkpt lat="45.05328" lon="2.87976">
        <ele>1355</ele>
        <time>2016-12-30T13:26:09.008Z</time>
      </trkpt>
      <trkpt lat="45.05328" lon="2.8797">
        <ele>1355.8679952897</ele>
        <time>2016-12-30T13:26:10.008Z</time>
      </trkpt>
      <trkpt lat="45.05328" lon="2.87964">
        <ele>1356</ele>
        <time>2016-12-30T13:26:11.008Z</time>
      </trkpt>
      <trkpt lat="45.05328" lon="2.87958">
        <ele>1356</ele>
        <time>2016-12-30T13:26:12.008Z</time>
      </trkpt>
      <trkpt lat="45.05328" lon="2.87952">
        <ele>1356</ele>
        <time>2016-12-30T13:26:13.008Z</time>
      </trkpt>
      <trkpt lat="45.05328" lon="2.87938">
        <ele>1356</ele>
        <time>2016-12-30T13:26:15.008Z</time>
      </trkpt>
      <trkpt lat="45.05328" lon="2.8793">
        <ele>1356</ele>
        <time>2016-12-30T13:26:16.008Z</time>
      </trkpt>
      <trkpt lat="45.05329" lon="2.87922">
        <ele>1356</ele>
        <time>2016-12-30T13:26:17.008Z</time>
      </trkpt>
      <trkpt lat="45.05329" lon="2.87913">
        <ele>1356</ele>
        <time>2016-12-30T13:26:18.008Z</time>
      </trkpt>
      <trkpt lat="45.05329" lon="2.87904">
        <ele>1356</ele>
        <time>2016-12-30T13:26:19.008Z</time>
      </trkpt>
      <trkpt lat="45.0533" lon="2.87895">
        <ele>1356</ele>
        <time>2016-12-30T13:26:20.008Z</time>
      </trkpt>
      <trkpt lat="45.0533" lon="2.87885">
        <ele>1356</ele>
        <time>2016-12-30T13:26:21.008Z</time>
      </trkpt>
      <trkpt lat="45.05329" lon="2.87876">
        <ele>1356</ele>
        <time>2016-12-30T13:26:22.008Z</time>
      </trkpt>
      <trkpt lat="45.05329" lon="2.87866">
        <ele>1356</ele>
        <time>2016-12-30T13:26:23.008Z</time>
      </trkpt>
      <trkpt lat="45.05328" lon="2.87857">
        <ele>1356</ele>
        <time>2016-12-30T13:26:24.008Z</time>
      </trkpt>
      <trkpt lat="45.05326" lon="2.87848">
        <ele>1356</ele>
        <time>2016-12-30T13:26:25.008Z</time>
      </trkpt>
      <trkpt lat="45.05325" lon="2.8784">
        <ele>1356</ele>
        <time>2016-12-30T13:26:26.008Z</time>
      </trkpt>
      <trkpt lat="45.05323" lon="2.87831">
        <ele>1356</ele>
        <time>2016-12-30T13:26:27.008Z</time>
      </trkpt>
      <trkpt lat="45.05321" lon="2.87822">
        <ele>1356</ele>
        <time>2016-12-30T13:26:28.008Z</time>
      </trkpt>
      <trkpt lat="45.0532" lon="2.87814">
        <ele>1356</ele>
        <time>2016-12-30T13:26:29.008Z</time>
      </trkpt>
      <trkpt lat="45.05318" lon="2.87805">
        <ele>1356</ele>
        <time>2016-12-30T13:26:30.008Z</time>
      </trkpt>
      <trkpt lat="45.05317" lon="2.87797">
        <ele>1356</ele>
        <time>2016-12-30T13:26:31.008Z</time>
      </trkpt>
      <trkpt lat="45.05316" lon="2.87788">
        <ele>1356</ele>
        <time>2016-12-30T13:26:32.008Z</time>
      </trkpt>
      <trkpt lat="45.05315" lon="2.87781">
        <ele>1356</ele>
        <time>2016-12-30T13:26:33.008Z</time>
      </trkpt>
      <trkpt lat="45.05313" lon="2.87766">
        <ele>1356</ele>
        <time>2016-12-30T13:26:35.008Z</time>
      </trkpt>
      <trkpt lat="45.05311" lon="2.87752">
        <ele>1356</ele>
        <time>2016-12-30T13:26:37.008Z</time>
      </trkpt>
      <trkpt lat="45.0531" lon="2.87739">
        <ele>1356</ele>
        <time>2016-12-30T13:26:39.008Z</time>
      </trkpt>
      <trkpt lat="45.05309" lon="2.87733">
        <ele>1356.8679952897</ele>
        <time>2016-12-30T13:26:40.008Z</time>
      </trkpt>
      <trkpt lat="45.05308" lon="2.87727">
        <ele>1357</ele>
        <time>2016-12-30T13:26:41.008Z</time>
      </trkpt>
      <trkpt lat="45.05308" lon="2.87722">
        <ele>1357</ele>
        <time>2016-12-30T13:26:42.008Z</time>
      </trkpt>
      <trkpt lat="45.05307" lon="2.87716">
        <ele>1357</ele>
        <time>2016-12-30T13:26:43.008Z</time>
      </trkpt>
      <trkpt lat="45.05307" lon="2.87711">
        <ele>1357</ele>
        <time>2016-12-30T13:26:44.008Z</time>
      </trkpt>
      <trkpt lat="45.05306" lon="2.87705">
        <ele>1357</ele>
        <time>2016-12-30T13:26:45.008Z</time>
      </trkpt>
      <trkpt lat="45.05306" lon="2.877">
        <ele>1357</ele>
        <time>2016-12-30T13:26:46.008Z</time>
      </trkpt>
      <trkpt lat="45.05305" lon="2.87696">
        <ele>1357</ele>
        <time>2016-12-30T13:26:47.008Z</time>
      </trkpt>
      <trkpt lat="45.05304" lon="2.87691">
        <ele>1357</ele>
        <time>2016-12-30T13:26:48.008Z</time>
      </trkpt>
      <trkpt lat="45.05304" lon="2.87686">
        <ele>1357</ele>
        <time>2016-12-30T13:26:49.008Z</time>
      </trkpt>
      <trkpt lat="45.05303" lon="2.87682">
        <ele>1358.7159936</ele>
        <time>2016-12-30T13:26:50.008Z</time>
      </trkpt>
      <trkpt lat="45.05303" lon="2.87677">
        <ele>1359</ele>
        <time>2016-12-30T13:26:51.008Z</time>
      </trkpt>
      <trkpt lat="45.05302" lon="2.87672">
        <ele>1359</ele>
        <time>2016-12-30T13:26:52.008Z</time>
      </trkpt>
      <trkpt lat="45.05302" lon="2.87667">
        <ele>1359</ele>
        <time>2016-12-30T13:26:53.008Z</time>
      </trkpt>
      <trkpt lat="45.05301" lon="2.87663">
        <ele>1359</ele>
        <time>2016-12-30T13:26:54.008Z</time>
      </trkpt>
      <trkpt lat="45.05301" lon="2.87658">
        <ele>1359</ele>
        <time>2016-12-30T13:26:55.008Z</time>
      </trkpt>
      <trkpt lat="45.053" lon="2.87654">
        <ele>1359</ele>
        <time>2016-12-30T13:26:56.008Z</time>
      </trkpt>
      <trkpt lat="45.053" lon="2.87649">
        <ele>1359</ele>
        <time>2016-12-30T13:26:57.008Z</time>
      </trkpt>
      <trkpt lat="45.05299" lon="2.87644">
        <ele>1359</ele>
        <time>2016-12-30T13:26:58.008Z</time>
      </trkpt>
      <trkpt lat="45.05298" lon="2.87635">
        <ele>1360.7359905793</ele>
        <time>2016-12-30T13:27:00.008Z</time>
      </trkpt>
      <trkpt lat="45.05297" lon="2.87625">
        <ele>1361</ele>
        <time>2016-12-30T13:27:02.008Z</time>
      </trkpt>
      <trkpt lat="45.05297" lon="2.87621">
        <ele>1361</ele>
        <time>2016-12-30T13:27:03.008Z</time>
      </trkpt>
      <trkpt lat="45.05296" lon="2.87616">
        <ele>1361</ele>
        <time>2016-12-30T13:27:04.008Z</time>
      </trkpt>
      <trkpt lat="45.05296" lon="2.87612">
        <ele>1361</ele>
        <time>2016-12-30T13:27:05.008Z</time>
      </trkpt>
      <trkpt lat="45.05295" lon="2.87607">
        <ele>1361</ele>
        <time>2016-12-30T13:27:06.008Z</time>
      </trkpt>
      <trkpt lat="45.05295" lon="2.87603">
        <ele>1361</ele>
        <time>2016-12-30T13:27:07.008Z</time>
      </trkpt>
      <trkpt lat="45.05294" lon="2.87598">
        <ele>1361</ele>
        <time>2016-12-30T13:27:08.008Z</time>
      </trkpt>
      <trkpt lat="45.05294" lon="2.87594">
        <ele>1361</ele>
        <time>2016-12-30T13:27:09.008Z</time>
      </trkpt>
      <trkpt lat="45.05294" lon="2.8759">
        <ele>1362.7359905793</ele>
        <time>2016-12-30T13:27:10.008Z</time>
      </trkpt>
      <trkpt lat="45.05293" lon="2.87585">
        <ele>1363</ele>
        <time>2016-12-30T13:27:11.008Z</time>
      </trkpt>
      <trkpt lat="45.05292" lon="2.87581">
        <ele>1363</ele>
        <time>2016-12-30T13:27:12.008Z</time>
      </trkpt>
      <trkpt lat="45.05292" lon="2.87577">
        <ele>1363</ele>
        <time>2016-12-30T13:27:13.008Z</time>
      </trkpt>
      <trkpt lat="45.05291" lon="2.8757">
        <ele>1363</ele>
        <time>2016-12-30T13:27:15.008Z</time>
      </trkpt>
      <trkpt lat="45.0529" lon="2.87566">
        <ele>1363</ele>
        <time>2016-12-30T13:27:16.008Z</time>
      </trkpt>
      <trkpt lat="45.05288" lon="2.87559">
        <ele>1363</ele>
        <time>2016-12-30T13:27:18.008Z</time>
      </trkpt>
      <trkpt lat="45.05287" lon="2.87555">
        <ele>1363</ele>
        <time>2016-12-30T13:27:19.008Z</time>
      </trkpt>
      <trkpt lat="45.05285" lon="2.87547">
        <ele>1366</ele>
        <time>2016-12-30T13:27:21.008Z</time>
      </trkpt>
      <trkpt lat="45.05283" lon="2.8754">
        <ele>1366</ele>
        <time>2016-12-30T13:27:23.008Z</time>
      </trkpt>
      <trkpt lat="45.05282" lon="2.87536">
        <ele>1366</ele>
        <time>2016-12-30T13:27:24.008Z</time>
      </trkpt>
      <trkpt lat="45.05281" lon="2.87533">
        <ele>1367.7360094209</ele>
        <time>2016-12-30T13:27:25.008Z</time>
      </trkpt>
      <trkpt lat="45.0528" lon="2.87529">
        <ele>1368</ele>
        <time>2016-12-30T13:27:26.008Z</time>
      </trkpt>
      <trkpt lat="45.05279" lon="2.87525">
        <ele>1368</ele>
        <time>2016-12-30T13:27:27.008Z</time>
      </trkpt>
      <trkpt lat="45.05278" lon="2.87522">
        <ele>1368</ele>
        <time>2016-12-30T13:27:28.008Z</time>
      </trkpt>
      <trkpt lat="45.05276" lon="2.87518">
        <ele>1368</ele>
        <time>2016-12-30T13:27:29.008Z</time>
      </trkpt>
      <trkpt lat="45.05275" lon="2.87514">
        <ele>1369.7359905793</ele>
        <time>2016-12-30T13:27:30.008Z</time>
      </trkpt>
      <trkpt lat="45.05274" lon="2.8751">
        <ele>1370</ele>
        <time>2016-12-30T13:27:31.008Z</time>
      </trkpt>
      <trkpt lat="45.05273" lon="2.87507">
        <ele>1370</ele>
        <time>2016-12-30T13:27:32.008Z</time>
      </trkpt>
      <trkpt lat="45.05273" lon="2.87503">
        <ele>1370</ele>
        <time>2016-12-30T13:27:33.008Z</time>
      </trkpt>
      <trkpt lat="45.05271" lon="2.87499">
        <ele>1370</ele>
        <time>2016-12-30T13:27:34.008Z</time>
      </trkpt>
      <trkpt lat="45.0527" lon="2.87495">
        <ele>1370</ele>
        <time>2016-12-30T13:27:35.008Z</time>
      </trkpt>
      <trkpt lat="45.05269" lon="2.87492">
        <ele>1370</ele>
        <time>2016-12-30T13:27:36.008Z</time>
      </trkpt>
      <trkpt lat="45.05268" lon="2.87488">
        <ele>1370</ele>
        <time>2016-12-30T13:27:37.008Z</time>
      </trkpt>
      <trkpt lat="45.05267" lon="2.87484">
        <ele>1370</ele>
        <time>2016-12-30T13:27:38.008Z</time>
      </trkpt>
      <trkpt lat="45.05266" lon="2.8748">
        <ele>1370</ele>
        <time>2016-12-30T13:27:39.008Z</time>
      </trkpt>
      <trkpt lat="45.05265" lon="2.87477">
        <ele>1370.8679952897</ele>
        <time>2016-12-30T13:27:40.008Z</time>
      </trkpt>
      <trkpt lat="45.05264" lon="2.87473">
        <ele>1371</ele>
        <time>2016-12-30T13:27:41.008Z</time>
      </trkpt>
      <trkpt lat="45.05263" lon="2.87469">
        <ele>1371</ele>
        <time>2016-12-30T13:27:42.008Z</time>
      </trkpt>
      <trkpt lat="45.05261" lon="2.87466">
        <ele>1371</ele>
        <time>2016-12-30T13:27:43.008Z</time>
      </trkpt>
      <trkpt lat="45.05258" lon="2.87459">
        <ele>1371</ele>
        <time>2016-12-30T13:27:45.008Z</time>
      </trkpt>
      <trkpt lat="45.05255" lon="2.87452">
        <ele>1371</ele>
        <time>2016-12-30T13:27:47.008Z</time>
      </trkpt>
      <trkpt lat="45.05254" lon="2.87449">
        <ele>1371</ele>
        <time>2016-12-30T13:27:48.008Z</time>
      </trkpt>
      <trkpt lat="45.05252" lon="2.87446">
        <ele>1371</ele>
        <time>2016-12-30T13:27:49.008Z</time>
      </trkpt>
      <trkpt lat="45.05249" lon="2.8744">
        <ele>1373</ele>
        <time>2016-12-30T13:27:51.008Z</time>
      </trkpt>
      <trkpt lat="45.05246" lon="2.87433">
        <ele>1373</ele>
        <time>2016-12-30T13:27:53.008Z</time>
      </trkpt>
      <trkpt lat="45.05243" lon="2.87427">
        <ele>1373.8680047105</ele>
        <time>2016-12-30T13:27:55.008Z</time>
      </trkpt>
      <trkpt lat="45.0524" lon="2.8742">
        <ele>1374</ele>
        <time>2016-12-30T13:27:57.008Z</time>
      </trkpt>
      <trkpt lat="45.05239" lon="2.87416">
        <ele>1374</ele>
        <time>2016-12-30T13:27:58.008Z</time>
      </trkpt>
      <trkpt lat="45.05237" lon="2.87413">
        <ele>1374</ele>
        <time>2016-12-30T13:27:59.008Z</time>
      </trkpt>
      <trkpt lat="45.05236" lon="2.87409">
        <ele>1375.7359905793</ele>
        <time>2016-12-30T13:28:00.008Z</time>
      </trkpt>
      <trkpt lat="45.05235" lon="2.87406">
        <ele>1376</ele>
        <time>2016-12-30T13:28:01.008Z</time>
      </trkpt>
      <trkpt lat="45.05233" lon="2.87402">
        <ele>1376</ele>
        <time>2016-12-30T13:28:02.008Z</time>
      </trkpt>
      <trkpt lat="45.05232" lon="2.87398">
        <ele>1376</ele>
        <time>2016-12-30T13:28:03.008Z</time>
      </trkpt>
      <trkpt lat="45.05231" lon="2.87395">
        <ele>1376</ele>
        <time>2016-12-30T13:28:04.008Z</time>
      </trkpt>
      <trkpt lat="45.0523" lon="2.87391">
        <ele>1376.8680047105</ele>
        <time>2016-12-30T13:28:05.008Z</time>
      </trkpt>
      <trkpt lat="45.05229" lon="2.87387">
        <ele>1377</ele>
        <time>2016-12-30T13:28:06.008Z</time>
      </trkpt>
      <trkpt lat="45.05227" lon="2.8738">
        <ele>1377</ele>
        <time>2016-12-30T13:28:08.008Z</time>
      </trkpt>
      <trkpt lat="45.05225" lon="2.87373">
        <ele>1377.8679952897</ele>
        <time>2016-12-30T13:28:10.008Z</time>
      </trkpt>
      <trkpt lat="45.05224" lon="2.87365">
        <ele>1378</ele>
        <time>2016-12-30T13:28:12.008Z</time>
      </trkpt>
      <trkpt lat="45.05222" lon="2.87357">
        <ele>1378</ele>
        <time>2016-12-30T13:28:14.008Z</time>
      </trkpt>
      <trkpt lat="45.0522" lon="2.8735">
        <ele>1378</ele>
        <time>2016-12-30T13:28:16.008Z</time>
      </trkpt>
      <trkpt lat="45.05219" lon="2.87342">
        <ele>1378</ele>
        <time>2016-12-30T13:28:18.008Z</time>
      </trkpt>
      <trkpt lat="45.05218" lon="2.87335">
        <ele>1379.7188082173</ele>
        <time>2016-12-30T13:28:20.008Z</time>
      </trkpt>
      <trkpt lat="45.05217" lon="2.87327">
        <ele>1380</ele>
        <time>2016-12-30T13:28:22.008Z</time>
      </trkpt>
      <trkpt lat="45.05216" lon="2.87319">
        <ele>1380</ele>
        <time>2016-12-30T13:28:24.008Z</time>
      </trkpt>
      <trkpt lat="45.05215" lon="2.87311">
        <ele>1380</ele>
        <time>2016-12-30T13:28:26.008Z</time>
      </trkpt>
      <trkpt lat="45.05215" lon="2.87303">
        <ele>1380</ele>
        <time>2016-12-30T13:28:28.008Z</time>
      </trkpt>
      <trkpt lat="45.05215" lon="2.87296">
        <ele>1381.7359905793</ele>
        <time>2016-12-30T13:28:30.008Z</time>
      </trkpt>
      <trkpt lat="45.05215" lon="2.87287">
        <ele>1382</ele>
        <time>2016-12-30T13:28:32.008Z</time>
      </trkpt>
      <trkpt lat="45.05215" lon="2.87278">
        <ele>1382</ele>
        <time>2016-12-30T13:28:34.008Z</time>
      </trkpt>
      <trkpt lat="45.05216" lon="2.8727">
        <ele>1382</ele>
        <time>2016-12-30T13:28:36.008Z</time>
      </trkpt>
      <trkpt lat="45.05217" lon="2.87259">
        <ele>1382</ele>
        <time>2016-12-30T13:28:39.008Z</time>
      </trkpt>
      <trkpt lat="45.05218" lon="2.87251">
        <ele>1384</ele>
        <time>2016-12-30T13:28:41.008Z</time>
      </trkpt>
      <trkpt lat="45.05219" lon="2.87239">
        <ele>1384</ele>
        <time>2016-12-30T13:28:44.008Z</time>
      </trkpt>
      <trkpt lat="45.0522" lon="2.87235">
        <ele>1384</ele>
        <time>2016-12-30T13:28:45.008Z</time>
      </trkpt>
      <trkpt lat="45.0522" lon="2.87226">
        <ele>1384</ele>
        <time>2016-12-30T13:28:47.008Z</time>
      </trkpt>
      <trkpt lat="45.0522" lon="2.87222">
        <ele>1384</ele>
        <time>2016-12-30T13:28:48.008Z</time>
      </trkpt>
      <trkpt lat="45.0522" lon="2.87218">
        <ele>1384</ele>
        <time>2016-12-30T13:28:49.008Z</time>
      </trkpt>
      <trkpt lat="45.0522" lon="2.87213">
        <ele>1385.7188082173</ele>
        <time>2016-12-30T13:28:50.008Z</time>
      </trkpt>
      <trkpt lat="45.0522" lon="2.87209">
        <ele>1386</ele>
        <time>2016-12-30T13:28:51.008Z</time>
      </trkpt>
      <trkpt lat="45.05219" lon="2.87204">
        <ele>1386</ele>
        <time>2016-12-30T13:28:52.008Z</time>
      </trkpt>
      <trkpt lat="45.05219" lon="2.87199">
        <ele>1386</ele>
        <time>2016-12-30T13:28:53.008Z</time>
      </trkpt>
      <trkpt lat="45.05218" lon="2.87195">
        <ele>1386</ele>
        <time>2016-12-30T13:28:54.008Z</time>
      </trkpt>
      <trkpt lat="45.05217" lon="2.8719">
        <ele>1386</ele>
        <time>2016-12-30T13:28:55.008Z</time>
      </trkpt>
      <trkpt lat="45.05216" lon="2.87186">
        <ele>1386</ele>
        <time>2016-12-30T13:28:56.008Z</time>
      </trkpt>
      <trkpt lat="45.05215" lon="2.87181">
        <ele>1386</ele>
        <time>2016-12-30T13:28:57.008Z</time>
      </trkpt>
      <trkpt lat="45.05214" lon="2.87176">
        <ele>1386</ele>
        <time>2016-12-30T13:28:58.008Z</time>
      </trkpt>
      <trkpt lat="45.05213" lon="2.87172">
        <ele>1386</ele>
        <time>2016-12-30T13:28:59.008Z</time>
      </trkpt>
      <trkpt lat="45.05212" lon="2.87168">
        <ele>1386.8679952897</ele>
        <time>2016-12-30T13:29:00.008Z</time>
      </trkpt>
      <trkpt lat="45.0521" lon="2.87163">
        <ele>1387</ele>
        <time>2016-12-30T13:29:01.008Z</time>
      </trkpt>
      <trkpt lat="45.05209" lon="2.87159">
        <ele>1387</ele>
        <time>2016-12-30T13:29:02.008Z</time>
      </trkpt>
      <trkpt lat="45.05207" lon="2.87154">
        <ele>1387</ele>
        <time>2016-12-30T13:29:03.008Z</time>
      </trkpt>
      <trkpt lat="45.05206" lon="2.8715">
        <ele>1387</ele>
        <time>2016-12-30T13:29:04.008Z</time>
      </trkpt>
      <trkpt lat="45.05202" lon="2.87142">
        <ele>1387</ele>
        <time>2016-12-30T13:29:06.008Z</time>
      </trkpt>
      <trkpt lat="45.052" lon="2.87138">
        <ele>1387</ele>
        <time>2016-12-30T13:29:07.008Z</time>
      </trkpt>
      <trkpt lat="45.05198" lon="2.87134">
        <ele>1387</ele>
        <time>2016-12-30T13:29:08.008Z</time>
      </trkpt>
      <trkpt lat="45.05197" lon="2.8713">
        <ele>1387</ele>
        <time>2016-12-30T13:29:09.008Z</time>
      </trkpt>
      <trkpt lat="45.05195" lon="2.87126">
        <ele>1387.8679952897</ele>
        <time>2016-12-30T13:29:10.008Z</time>
      </trkpt>
      <trkpt lat="45.05193" lon="2.87122">
        <ele>1388</ele>
        <time>2016-12-30T13:29:11.008Z</time>
      </trkpt>
      <trkpt lat="45.05191" lon="2.87118">
        <ele>1388</ele>
        <time>2016-12-30T13:29:12.008Z</time>
      </trkpt>
      <trkpt lat="45.05189" lon="2.87113">
        <ele>1388</ele>
        <time>2016-12-30T13:29:13.008Z</time>
      </trkpt>
      <trkpt lat="45.05187" lon="2.87109">
        <ele>1388</ele>
        <time>2016-12-30T13:29:14.008Z</time>
      </trkpt>
      <trkpt lat="45.05185" lon="2.87105">
        <ele>1388</ele>
        <time>2016-12-30T13:29:15.008Z</time>
      </trkpt>
      <trkpt lat="45.05183" lon="2.871">
        <ele>1388</ele>
        <time>2016-12-30T13:29:16.008Z</time>
      </trkpt>
      <trkpt lat="45.05181" lon="2.87095">
        <ele>1388</ele>
        <time>2016-12-30T13:29:17.008Z</time>
      </trkpt>
      <trkpt lat="45.0518" lon="2.87091">
        <ele>1388</ele>
        <time>2016-12-30T13:29:18.008Z</time>
      </trkpt>
      <trkpt lat="45.05178" lon="2.87086">
        <ele>1388</ele>
        <time>2016-12-30T13:29:19.008Z</time>
      </trkpt>
      <trkpt lat="45.05176" lon="2.87081">
        <ele>1388.8594041086</ele>
        <time>2016-12-30T13:29:20.008Z</time>
      </trkpt>
      <trkpt lat="45.05174" lon="2.87077">
        <ele>1389</ele>
        <time>2016-12-30T13:29:21.008Z</time>
      </trkpt>
      <trkpt lat="45.05172" lon="2.87072">
        <ele>1389</ele>
        <time>2016-12-30T13:29:22.008Z</time>
      </trkpt>
      <trkpt lat="45.0517" lon="2.87067">
        <ele>1389</ele>
        <time>2016-12-30T13:29:23.008Z</time>
      </trkpt>
      <trkpt lat="45.05168" lon="2.87062">
        <ele>1389</ele>
        <time>2016-12-30T13:29:24.008Z</time>
      </trkpt>
      <trkpt lat="45.05166" lon="2.87058">
        <ele>1389</ele>
        <time>2016-12-30T13:29:25.008Z</time>
      </trkpt>
      <trkpt lat="45.05164" lon="2.87053">
        <ele>1389</ele>
        <time>2016-12-30T13:29:26.008Z</time>
      </trkpt>
      <trkpt lat="45.05162" lon="2.87048">
        <ele>1389</ele>
        <time>2016-12-30T13:29:27.008Z</time>
      </trkpt>
      <trkpt lat="45.0516" lon="2.87044">
        <ele>1389</ele>
        <time>2016-12-30T13:29:28.008Z</time>
      </trkpt>
      <trkpt lat="45.05158" lon="2.87039">
        <ele>1389</ele>
        <time>2016-12-30T13:29:29.008Z</time>
      </trkpt>
      <trkpt lat="45.05156" lon="2.87035">
        <ele>1390.7359905793</ele>
        <time>2016-12-30T13:29:30.008Z</time>
      </trkpt>
      <trkpt lat="45.05154" lon="2.8703">
        <ele>1391</ele>
        <time>2016-12-30T13:29:31.008Z</time>
      </trkpt>
      <trkpt lat="45.05152" lon="2.87026">
        <ele>1391</ele>
        <time>2016-12-30T13:29:32.008Z</time>
      </trkpt>
      <trkpt lat="45.0515" lon="2.87022">
        <ele>1391</ele>
        <time>2016-12-30T13:29:33.008Z</time>
      </trkpt>
      <trkpt lat="45.05148" lon="2.87017">
        <ele>1391</ele>
        <time>2016-12-30T13:29:34.008Z</time>
      </trkpt>
      <trkpt lat="45.05146" lon="2.87013">
        <ele>1391</ele>
        <time>2016-12-30T13:29:35.008Z</time>
      </trkpt>
      <trkpt lat="45.05144" lon="2.87009">
        <ele>1391</ele>
        <time>2016-12-30T13:29:36.008Z</time>
      </trkpt>
      <trkpt lat="45.05142" lon="2.87005">
        <ele>1391</ele>
        <time>2016-12-30T13:29:37.008Z</time>
      </trkpt>
      <trkpt lat="45.0514" lon="2.87001">
        <ele>1391</ele>
        <time>2016-12-30T13:29:38.008Z</time>
      </trkpt>
      <trkpt lat="45.05138" lon="2.86997">
        <ele>1391</ele>
        <time>2016-12-30T13:29:39.008Z</time>
      </trkpt>
      <trkpt lat="45.05136" lon="2.86993">
        <ele>1392.7359905793</ele>
        <time>2016-12-30T13:29:40.008Z</time>
      </trkpt>
      <trkpt lat="45.05135" lon="2.86989">
        <ele>1393</ele>
        <time>2016-12-30T13:29:41.008Z</time>
      </trkpt>
      <trkpt lat="45.05133" lon="2.86985">
        <ele>1393</ele>
        <time>2016-12-30T13:29:42.008Z</time>
      </trkpt>
      <trkpt lat="45.05131" lon="2.86981">
        <ele>1393</ele>
        <time>2016-12-30T13:29:43.008Z</time>
      </trkpt>
      <trkpt lat="45.05129" lon="2.86977">
        <ele>1393</ele>
        <time>2016-12-30T13:29:44.008Z</time>
      </trkpt>
      <trkpt lat="45.05127" lon="2.86973">
        <ele>1393</ele>
        <time>2016-12-30T13:29:45.008Z</time>
      </trkpt>
      <trkpt lat="45.05125" lon="2.86969">
        <ele>1393</ele>
        <time>2016-12-30T13:29:46.008Z</time>
      </trkpt>
      <trkpt lat="45.05123" lon="2.86965">
        <ele>1393</ele>
        <time>2016-12-30T13:29:47.008Z</time>
      </trkpt>
      <trkpt lat="45.05121" lon="2.86961">
        <ele>1393</ele>
        <time>2016-12-30T13:29:48.008Z</time>
      </trkpt>
      <trkpt lat="45.05119" lon="2.86957">
        <ele>1393</ele>
        <time>2016-12-30T13:29:49.008Z</time>
      </trkpt>
      <trkpt lat="45.05117" lon="2.86954">
        <ele>1393.8594041086</ele>
        <time>2016-12-30T13:29:50.008Z</time>
      </trkpt>
      <trkpt lat="45.05115" lon="2.8695">
        <ele>1394</ele>
        <time>2016-12-30T13:29:51.008Z</time>
      </trkpt>
      <trkpt lat="45.05113" lon="2.86946">
        <ele>1394</ele>
        <time>2016-12-30T13:29:52.008Z</time>
      </trkpt>
      <trkpt lat="45.05111" lon="2.86942">
        <ele>1394</ele>
        <time>2016-12-30T13:29:53.008Z</time>
      </trkpt>
      <trkpt lat="45.05109" lon="2.86938">
        <ele>1394</ele>
        <time>2016-12-30T13:29:54.008Z</time>
      </trkpt>
      <trkpt lat="45.05107" lon="2.86934">
        <ele>1394</ele>
        <time>2016-12-30T13:29:55.008Z</time>
      </trkpt>
      <trkpt lat="45.05106" lon="2.8693">
        <ele>1394</ele>
        <time>2016-12-30T13:29:56.008Z</time>
      </trkpt>
      <trkpt lat="45.05104" lon="2.86926">
        <ele>1394</ele>
        <time>2016-12-30T13:29:57.008Z</time>
      </trkpt>
      <trkpt lat="45.05102" lon="2.86922">
        <ele>1394</ele>
        <time>2016-12-30T13:29:58.008Z</time>
      </trkpt>
      <trkpt lat="45.051" lon="2.86918">
        <ele>1394</ele>
        <time>2016-12-30T13:29:59.008Z</time>
      </trkpt>
      <trkpt lat="45.05098" lon="2.86914">
        <ele>1394.8679952897</ele>
        <time>2016-12-30T13:30:00.008Z</time>
      </trkpt>
      <trkpt lat="45.05096" lon="2.8691">
        <ele>1395</ele>
        <time>2016-12-30T13:30:01.008Z</time>
      </trkpt>
      <trkpt lat="45.05092" lon="2.86903">
        <ele>1395</ele>
        <time>2016-12-30T13:30:03.008Z</time>
      </trkpt>
      <trkpt lat="45.0509" lon="2.86899">
        <ele>1395</ele>
        <time>2016-12-30T13:30:04.008Z</time>
      </trkpt>
      <trkpt lat="45.05088" lon="2.86895">
        <ele>1395</ele>
        <time>2016-12-30T13:30:05.008Z</time>
      </trkpt>
      <trkpt lat="45.05086" lon="2.86891">
        <ele>1395</ele>
        <time>2016-12-30T13:30:06.008Z</time>
      </trkpt>
      <trkpt lat="45.05084" lon="2.86887">
        <ele>1395</ele>
        <time>2016-12-30T13:30:07.008Z</time>
      </trkpt>
      <trkpt lat="45.05082" lon="2.86883">
        <ele>1395</ele>
        <time>2016-12-30T13:30:08.008Z</time>
      </trkpt>
      <trkpt lat="45.0508" lon="2.86878">
        <ele>1395</ele>
        <time>2016-12-30T13:30:09.008Z</time>
      </trkpt>
      <trkpt lat="45.05078" lon="2.86874">
        <ele>1395.8679952897</ele>
        <time>2016-12-30T13:30:10.008Z</time>
      </trkpt>
      <trkpt lat="45.05076" lon="2.8687">
        <ele>1396</ele>
        <time>2016-12-30T13:30:11.008Z</time>
      </trkpt>
      <trkpt lat="45.05074" lon="2.86866">
        <ele>1396</ele>
        <time>2016-12-30T13:30:12.008Z</time>
      </trkpt>
      <trkpt lat="45.05072" lon="2.86862">
        <ele>1396</ele>
        <time>2016-12-30T13:30:13.008Z</time>
      </trkpt>
      <trkpt lat="45.0507" lon="2.86858">
        <ele>1396</ele>
        <time>2016-12-30T13:30:14.008Z</time>
      </trkpt>
      <trkpt lat="45.05068" lon="2.86854">
        <ele>1396</ele>
        <time>2016-12-30T13:30:15.008Z</time>
      </trkpt>
      <trkpt lat="45.05066" lon="2.8685">
        <ele>1396</ele>
        <time>2016-12-30T13:30:16.008Z</time>
      </trkpt>
      <trkpt lat="45.05064" lon="2.86846">
        <ele>1396</ele>
        <time>2016-12-30T13:30:17.008Z</time>
      </trkpt>
      <trkpt lat="45.05062" lon="2.86842">
        <ele>1396</ele>
        <time>2016-12-30T13:30:18.008Z</time>
      </trkpt>
      <trkpt lat="45.0506" lon="2.86838">
        <ele>1396</ele>
        <time>2016-12-30T13:30:19.008Z</time>
      </trkpt>
      <trkpt lat="45.05058" lon="2.86834">
        <ele>1397.7188082173</ele>
        <time>2016-12-30T13:30:20.008Z</time>
      </trkpt>
      <trkpt lat="45.05056" lon="2.8683">
        <ele>1398</ele>
        <time>2016-12-30T13:30:21.008Z</time>
      </trkpt>
      <trkpt lat="45.05054" lon="2.86826">
        <ele>1398</ele>
        <time>2016-12-30T13:30:22.008Z</time>
      </trkpt>
      <trkpt lat="45.05052" lon="2.86822">
        <ele>1398</ele>
        <time>2016-12-30T13:30:23.008Z</time>
      </trkpt>
      <trkpt lat="45.0505" lon="2.86818">
        <ele>1398</ele>
        <time>2016-12-30T13:30:24.008Z</time>
      </trkpt>
      <trkpt lat="45.05048" lon="2.86814">
        <ele>1398</ele>
        <time>2016-12-30T13:30:25.008Z</time>
      </trkpt>
      <trkpt lat="45.05046" lon="2.8681">
        <ele>1398</ele>
        <time>2016-12-30T13:30:26.008Z</time>
      </trkpt>
      <trkpt lat="45.05044" lon="2.86806">
        <ele>1398</ele>
        <time>2016-12-30T13:30:27.008Z</time>
      </trkpt>
      <trkpt lat="45.05043" lon="2.86802">
        <ele>1398</ele>
        <time>2016-12-30T13:30:28.008Z</time>
      </trkpt>
      <trkpt lat="45.05041" lon="2.86798">
        <ele>1398</ele>
        <time>2016-12-30T13:30:29.008Z</time>
      </trkpt>
      <trkpt lat="45.05039" lon="2.86794">
        <ele>1399.7359905793</ele>
        <time>2016-12-30T13:30:30.008Z</time>
      </trkpt>
      <trkpt lat="45.05037" lon="2.86791">
        <ele>1400</ele>
        <time>2016-12-30T13:30:31.008Z</time>
      </trkpt>
      <trkpt lat="45.05034" lon="2.86783">
        <ele>1400</ele>
        <time>2016-12-30T13:30:33.008Z</time>
      </trkpt>
      <trkpt lat="45.05032" lon="2.8678">
        <ele>1400</ele>
        <time>2016-12-30T13:30:34.008Z</time>
      </trkpt>
      <trkpt lat="45.05028" lon="2.86773">
        <ele>1400</ele>
        <time>2016-12-30T13:30:36.008Z</time>
      </trkpt>
      <trkpt lat="45.05025" lon="2.86766">
        <ele>1400</ele>
        <time>2016-12-30T13:30:38.008Z</time>
      </trkpt>
      <trkpt lat="45.05023" lon="2.86763">
        <ele>1400</ele>
        <time>2016-12-30T13:30:39.008Z</time>
      </trkpt>
      <trkpt lat="45.05021" lon="2.86759">
        <ele>1401.7359905793</ele>
        <time>2016-12-30T13:30:40.008Z</time>
      </trkpt>
      <trkpt lat="45.05019" lon="2.86756">
        <ele>1402</ele>
        <time>2016-12-30T13:30:41.008Z</time>
      </trkpt>
      <trkpt lat="45.05016" lon="2.86749">
        <ele>1402</ele>
        <time>2016-12-30T13:30:43.008Z</time>
      </trkpt>
      <trkpt lat="45.05012" lon="2.86742">
        <ele>1402</ele>
        <time>2016-12-30T13:30:45.008Z</time>
      </trkpt>
      <trkpt lat="45.05009" lon="2.86735">
        <ele>1402</ele>
        <time>2016-12-30T13:30:47.008Z</time>
      </trkpt>
      <trkpt lat="45.05007" lon="2.86731">
        <ele>1402</ele>
        <time>2016-12-30T13:30:48.008Z</time>
      </trkpt>
      <trkpt lat="45.05005" lon="2.86727">
        <ele>1402</ele>
        <time>2016-12-30T13:30:49.008Z</time>
      </trkpt>
      <trkpt lat="45.05003" lon="2.86724">
        <ele>1402.8594041086</ele>
        <time>2016-12-30T13:30:50.008Z</time>
      </trkpt>
      <trkpt lat="45.05" lon="2.86716">
        <ele>1403</ele>
        <time>2016-12-30T13:30:52.008Z</time>
      </trkpt>
      <trkpt lat="45.04998" lon="2.86712">
        <ele>1403</ele>
        <time>2016-12-30T13:30:53.008Z</time>
      </trkpt>
      <trkpt lat="45.04997" lon="2.86708">
        <ele>1403</ele>
        <time>2016-12-30T13:30:54.008Z</time>
      </trkpt>
      <trkpt lat="45.04993" lon="2.86701">
        <ele>1403</ele>
        <time>2016-12-30T13:30:56.008Z</time>
      </trkpt>
      <trkpt lat="45.04991" lon="2.86697">
        <ele>1403</ele>
        <time>2016-12-30T13:30:57.008Z</time>
      </trkpt>
      <trkpt lat="45.04989" lon="2.86693">
        <ele>1403</ele>
        <time>2016-12-30T13:30:58.008Z</time>
      </trkpt>
      <trkpt lat="45.04987" lon="2.86689">
        <ele>1403</ele>
        <time>2016-12-30T13:30:59.008Z</time>
      </trkpt>
      <trkpt lat="45.04985" lon="2.86685">
        <ele>1404.7359905793</ele>
        <time>2016-12-30T13:31:00.008Z</time>
      </trkpt>
      <trkpt lat="45.04983" lon="2.86681">
        <ele>1405</ele>
        <time>2016-12-30T13:31:01.008Z</time>
      </trkpt>
      <trkpt lat="45.04981" lon="2.86678">
        <ele>1405</ele>
        <time>2016-12-30T13:31:02.008Z</time>
      </trkpt>
      <trkpt lat="45.04978" lon="2.86675">
        <ele>1405</ele>
        <time>2016-12-30T13:31:03.008Z</time>
      </trkpt>
      <trkpt lat="45.04975" lon="2.86672">
        <ele>1405</ele>
        <time>2016-12-30T13:31:04.008Z</time>
      </trkpt>
      <trkpt lat="45.04972" lon="2.86669">
        <ele>1405</ele>
        <time>2016-12-30T13:31:05.008Z</time>
      </trkpt>
      <trkpt lat="45.04969" lon="2.86667">
        <ele>1405</ele>
        <time>2016-12-30T13:31:06.008Z</time>
      </trkpt>
      <trkpt lat="45.04966" lon="2.86666">
        <ele>1405</ele>
        <time>2016-12-30T13:31:07.008Z</time>
      </trkpt>
      <trkpt lat="45.0496" lon="2.86663">
        <ele>1405</ele>
        <time>2016-12-30T13:31:09.008Z</time>
      </trkpt>
      <trkpt lat="45.04953" lon="2.8666">
        <ele>1406</ele>
        <time>2016-12-30T13:31:11.008Z</time>
      </trkpt>
      <trkpt lat="45.04947" lon="2.86658">
        <ele>1406</ele>
        <time>2016-12-30T13:31:13.008Z</time>
      </trkpt>
      <trkpt lat="45.0494" lon="2.86656">
        <ele>1406</ele>
        <time>2016-12-30T13:31:15.008Z</time>
      </trkpt>
      <trkpt lat="45.04934" lon="2.86654">
        <ele>1406</ele>
        <time>2016-12-30T13:31:17.008Z</time>
      </trkpt>
      <trkpt lat="45.04927" lon="2.86651">
        <ele>1406</ele>
        <time>2016-12-30T13:31:19.008Z</time>
      </trkpt>
      <trkpt lat="45.0492" lon="2.86649">
        <ele>1408</ele>
        <time>2016-12-30T13:31:21.008Z</time>
      </trkpt>
      <trkpt lat="45.04913" lon="2.86646">
        <ele>1408</ele>
        <time>2016-12-30T13:31:23.008Z</time>
      </trkpt>
      <trkpt lat="45.04906" lon="2.86643">
        <ele>1408</ele>
        <time>2016-12-30T13:31:25.008Z</time>
      </trkpt>
      <trkpt lat="45.04898" lon="2.8664">
        <ele>1408</ele>
        <time>2016-12-30T13:31:27.008Z</time>
      </trkpt>
      <trkpt lat="45.04895" lon="2.86639">
        <ele>1408</ele>
        <time>2016-12-30T13:31:28.008Z</time>
      </trkpt>
      <trkpt lat="45.04887" lon="2.86636">
        <ele>1408.8679952897</ele>
        <time>2016-12-30T13:31:30.008Z</time>
      </trkpt>
      <trkpt lat="45.04883" lon="2.86635">
        <ele>1409</ele>
        <time>2016-12-30T13:31:31.008Z</time>
      </trkpt>
      <trkpt lat="45.0488" lon="2.86633">
        <ele>1409</ele>
        <time>2016-12-30T13:31:32.008Z</time>
      </trkpt>
      <trkpt lat="45.04876" lon="2.86632">
        <ele>1409</ele>
        <time>2016-12-30T13:31:33.008Z</time>
      </trkpt>
      <trkpt lat="45.04872" lon="2.8663">
        <ele>1409</ele>
        <time>2016-12-30T13:31:34.008Z</time>
      </trkpt>
      <trkpt lat="45.04864" lon="2.86627">
        <ele>1409</ele>
        <time>2016-12-30T13:31:36.008Z</time>
      </trkpt>
      <trkpt lat="45.04856" lon="2.86624">
        <ele>1409</ele>
        <time>2016-12-30T13:31:38.008Z</time>
      </trkpt>
      <trkpt lat="45.04848" lon="2.8662">
        <ele>1410.7359905793</ele>
        <time>2016-12-30T13:31:40.008Z</time>
      </trkpt>
      <trkpt lat="45.04844" lon="2.86618">
        <ele>1411</ele>
        <time>2016-12-30T13:31:41.008Z</time>
      </trkpt>
      <trkpt lat="45.0484" lon="2.86617">
        <ele>1411</ele>
        <time>2016-12-30T13:31:42.008Z</time>
      </trkpt>
      <trkpt lat="45.04836" lon="2.86615">
        <ele>1411</ele>
        <time>2016-12-30T13:31:43.008Z</time>
      </trkpt>
      <trkpt lat="45.04831" lon="2.86614">
        <ele>1411</ele>
        <time>2016-12-30T13:31:44.008Z</time>
      </trkpt>
      <trkpt lat="45.04827" lon="2.86612">
        <ele>1411</ele>
        <time>2016-12-30T13:31:45.008Z</time>
      </trkpt>
      <trkpt lat="45.04823" lon="2.8661">
        <ele>1411</ele>
        <time>2016-12-30T13:31:46.008Z</time>
      </trkpt>
      <trkpt lat="45.04819" lon="2.86609">
        <ele>1411</ele>
        <time>2016-12-30T13:31:47.008Z</time>
      </trkpt>
      <trkpt lat="45.04815" lon="2.86607">
        <ele>1411</ele>
        <time>2016-12-30T13:31:48.008Z</time>
      </trkpt>
      <trkpt lat="45.04806" lon="2.86604">
        <ele>1411</ele>
        <time>2016-12-30T13:31:50.008Z</time>
      </trkpt>
      <trkpt lat="45.04798" lon="2.866">
        <ele>1411</ele>
        <time>2016-12-30T13:31:52.008Z</time>
      </trkpt>
      <trkpt lat="45.0479" lon="2.86597">
        <ele>1411</ele>
        <time>2016-12-30T13:31:54.008Z</time>
      </trkpt>
      <trkpt lat="45.04781" lon="2.86594">
        <ele>1411</ele>
        <time>2016-12-30T13:31:56.008Z</time>
      </trkpt>
      <trkpt lat="45.04773" lon="2.8659">
        <ele>1411</ele>
        <time>2016-12-30T13:31:58.008Z</time>
      </trkpt>
      <trkpt lat="45.04769" lon="2.86588">
        <ele>1411</ele>
        <time>2016-12-30T13:31:59.008Z</time>
      </trkpt>
      <trkpt lat="45.04761" lon="2.86585">
        <ele>1412</ele>
        <time>2016-12-30T13:32:01.008Z</time>
      </trkpt>
      <trkpt lat="45.04757" lon="2.86583">
        <ele>1412</ele>
        <time>2016-12-30T13:32:02.008Z</time>
      </trkpt>
      <trkpt lat="45.04753" lon="2.86581">
        <ele>1412</ele>
        <time>2016-12-30T13:32:03.008Z</time>
      </trkpt>
      <trkpt lat="45.04745" lon="2.86578">
        <ele>1412</ele>
        <time>2016-12-30T13:32:05.008Z</time>
      </trkpt>
      <trkpt lat="45.04741" lon="2.86576">
        <ele>1412</ele>
        <time>2016-12-30T13:32:06.008Z</time>
      </trkpt>
      <trkpt lat="45.04737" lon="2.86575">
        <ele>1412</ele>
        <time>2016-12-30T13:32:07.008Z</time>
      </trkpt>
      <trkpt lat="45.04733" lon="2.86574">
        <ele>1412</ele>
        <time>2016-12-30T13:32:08.008Z</time>
      </trkpt>
      <trkpt lat="45.04729" lon="2.86572">
        <ele>1412</ele>
        <time>2016-12-30T13:32:09.008Z</time>
      </trkpt>
      <trkpt lat="45.04726" lon="2.86571">
        <ele>1412.8679952897</ele>
        <time>2016-12-30T13:32:10.008Z</time>
      </trkpt>
      <trkpt lat="45.04722" lon="2.8657">
        <ele>1413</ele>
        <time>2016-12-30T13:32:11.008Z</time>
      </trkpt>
      <trkpt lat="45.04715" lon="2.86567">
        <ele>1413</ele>
        <time>2016-12-30T13:32:13.008Z</time>
      </trkpt>
      <trkpt lat="45.04708" lon="2.86564">
        <ele>1413</ele>
        <time>2016-12-30T13:32:15.008Z</time>
      </trkpt>
      <trkpt lat="45.04705" lon="2.86563">
        <ele>1413</ele>
        <time>2016-12-30T13:32:16.008Z</time>
      </trkpt>
      <trkpt lat="45.04702" lon="2.86562">
        <ele>1413</ele>
        <time>2016-12-30T13:32:17.008Z</time>
      </trkpt>
      <trkpt lat="45.04696" lon="2.86559">
        <ele>1413</ele>
        <time>2016-12-30T13:32:19.008Z</time>
      </trkpt>
      <trkpt lat="45.0469" lon="2.86557">
        <ele>1414</ele>
        <time>2016-12-30T13:32:21.008Z</time>
      </trkpt>
      <trkpt lat="45.04687" lon="2.86555">
        <ele>1414</ele>
        <time>2016-12-30T13:32:22.008Z</time>
      </trkpt>
      <trkpt lat="45.04684" lon="2.86553">
        <ele>1414</ele>
        <time>2016-12-30T13:32:23.008Z</time>
      </trkpt>
      <trkpt lat="45.04681" lon="2.86552">
        <ele>1414</ele>
        <time>2016-12-30T13:32:24.008Z</time>
      </trkpt>
      <trkpt lat="45.04678" lon="2.8655">
        <ele>1414</ele>
        <time>2016-12-30T13:32:25.008Z</time>
      </trkpt>
      <trkpt lat="45.04675" lon="2.86549">
        <ele>1414</ele>
        <time>2016-12-30T13:32:26.008Z</time>
      </trkpt>
      <trkpt lat="45.04668" lon="2.86545">
        <ele>1414</ele>
        <time>2016-12-30T13:32:28.008Z</time>
      </trkpt>
      <trkpt lat="45.04662" lon="2.86542">
        <ele>1414</ele>
        <time>2016-12-30T13:32:30.008Z</time>
      </trkpt>
      <trkpt lat="45.04659" lon="2.86541">
        <ele>1414</ele>
        <time>2016-12-30T13:32:31.008Z</time>
      </trkpt>
      <trkpt lat="45.04652" lon="2.86538">
        <ele>1414</ele>
        <time>2016-12-30T13:32:33.008Z</time>
      </trkpt>
      <trkpt lat="45.04647" lon="2.86533">
        <ele>1414</ele>
        <time>2016-12-30T13:32:35.008Z</time>
      </trkpt>
      <trkpt lat="45.04642" lon="2.86527">
        <ele>1414</ele>
        <time>2016-12-30T13:32:37.008Z</time>
      </trkpt>
      <trkpt lat="45.04637" lon="2.86521">
        <ele>1414</ele>
        <time>2016-12-30T13:32:39.008Z</time>
      </trkpt>
      <trkpt lat="45.04633" lon="2.86514">
        <ele>1414</ele>
        <time>2016-12-30T13:32:41.008Z</time>
      </trkpt>
      <trkpt lat="45.04628" lon="2.86508">
        <ele>1414</ele>
        <time>2016-12-30T13:32:43.008Z</time>
      </trkpt>
      <trkpt lat="45.04623" lon="2.86502">
        <ele>1414</ele>
        <time>2016-12-30T13:32:45.008Z</time>
      </trkpt>
      <trkpt lat="45.04618" lon="2.86498">
        <ele>1414</ele>
        <time>2016-12-30T13:32:47.008Z</time>
      </trkpt>
      <trkpt lat="45.04612" lon="2.86497">
        <ele>1414</ele>
        <time>2016-12-30T13:32:49.008Z</time>
      </trkpt>
      <trkpt lat="45.04607" lon="2.86496">
        <ele>1416</ele>
        <time>2016-12-30T13:32:51.008Z</time>
      </trkpt>
      <trkpt lat="45.04601" lon="2.86497">
        <ele>1416</ele>
        <time>2016-12-30T13:32:53.008Z</time>
      </trkpt>
      <trkpt lat="45.04593" lon="2.86497">
        <ele>1416</ele>
        <time>2016-12-30T13:32:56.008Z</time>
      </trkpt>
      <trkpt lat="45.04586" lon="2.86497">
        <ele>1416</ele>
        <time>2016-12-30T13:32:59.008Z</time>
      </trkpt>
      <trkpt lat="45.04578" lon="2.86494">
        <ele>1418</ele>
        <time>2016-12-30T13:33:03.008Z</time>
      </trkpt>
      <trkpt lat="45.04572" lon="2.8649">
        <ele>1418</ele>
        <time>2016-12-30T13:33:06.008Z</time>
      </trkpt>
      <trkpt lat="45.04566" lon="2.86487">
        <ele>1418</ele>
        <time>2016-12-30T13:33:09.008Z</time>
      </trkpt>
      <trkpt lat="45.04558" lon="2.86486">
        <ele>1419</ele>
        <time>2016-12-30T13:33:12.008Z</time>
      </trkpt>
      <trkpt lat="45.04551" lon="2.86486">
        <ele>1419</ele>
        <time>2016-12-30T13:33:15.008Z</time>
      </trkpt>
      <trkpt lat="45.04544" lon="2.86488">
        <ele>1419</ele>
        <time>2016-12-30T13:33:18.008Z</time>
      </trkpt>
      <trkpt lat="45.04537" lon="2.8649">
        <ele>1421</ele>
        <time>2016-12-30T13:33:21.008Z</time>
      </trkpt>
      <trkpt lat="45.04532" lon="2.8649">
        <ele>1421</ele>
        <time>2016-12-30T13:33:23.008Z</time>
      </trkpt>
      <trkpt lat="45.04524" lon="2.86489">
        <ele>1421</ele>
        <time>2016-12-30T13:33:26.008Z</time>
      </trkpt>
      <trkpt lat="45.04517" lon="2.86487">
        <ele>1421</ele>
        <time>2016-12-30T13:33:29.008Z</time>
      </trkpt>
      <trkpt lat="45.0451" lon="2.86485">
        <ele>1422</ele>
        <time>2016-12-30T13:33:32.008Z</time>
      </trkpt>
      <trkpt lat="45.04502" lon="2.86484">
        <ele>1422</ele>
        <time>2016-12-30T13:33:35.008Z</time>
      </trkpt>
      <trkpt lat="45.04494" lon="2.86484">
        <ele>1422</ele>
        <time>2016-12-30T13:33:38.008Z</time>
      </trkpt>
      <trkpt lat="45.04487" lon="2.86481">
        <ele>1422</ele>
        <time>2016-12-30T13:33:41.008Z</time>
      </trkpt>
      <trkpt lat="45.04482" lon="2.86479">
        <ele>1422</ele>
        <time>2016-12-30T13:33:43.008Z</time>
      </trkpt>
      <trkpt lat="45.04478" lon="2.86476">
        <ele>1422</ele>
        <time>2016-12-30T13:33:45.008Z</time>
      </trkpt>
      <trkpt lat="45.04473" lon="2.86473">
        <ele>1422</ele>
        <time>2016-12-30T13:33:47.008Z</time>
      </trkpt>
      <trkpt lat="45.04469" lon="2.86469">
        <ele>1422</ele>
        <time>2016-12-30T13:33:49.008Z</time>
      </trkpt>
      <trkpt lat="45.04465" lon="2.86465">
        <ele>1424</ele>
        <time>2016-12-30T13:33:51.008Z</time>
      </trkpt>
      <trkpt lat="45.0446" lon="2.86464">
        <ele>1424</ele>
        <time>2016-12-30T13:33:53.008Z</time>
      </trkpt>
      <trkpt lat="45.04454" lon="2.86463">
        <ele>1424</ele>
        <time>2016-12-30T13:33:55.008Z</time>
      </trkpt>
      <trkpt lat="45.04449" lon="2.86462">
        <ele>1424</ele>
        <time>2016-12-30T13:33:57.008Z</time>
      </trkpt>
      <trkpt lat="45.04443" lon="2.86462">
        <ele>1424</ele>
        <time>2016-12-30T13:33:59.008Z</time>
      </trkpt>
      <trkpt lat="45.04435" lon="2.86462">
        <ele>1425</ele>
        <time>2016-12-30T13:34:02.008Z</time>
      </trkpt>
      <trkpt lat="45.0443" lon="2.86461">
        <ele>1425</ele>
        <time>2016-12-30T13:34:04.008Z</time>
      </trkpt>
      <trkpt lat="45.04424" lon="2.86459">
        <ele>1425</ele>
        <time>2016-12-30T13:34:06.008Z</time>
      </trkpt>
      <trkpt lat="45.04418" lon="2.86459">
        <ele>1425</ele>
        <time>2016-12-30T13:34:08.008Z</time>
      </trkpt>
      <trkpt lat="45.04412" lon="2.86459">
        <ele>1425.8679952897</ele>
        <time>2016-12-30T13:34:10.008Z</time>
      </trkpt>
      <trkpt lat="45.04406" lon="2.86459">
        <ele>1426</ele>
        <time>2016-12-30T13:34:12.008Z</time>
      </trkpt>
      <trkpt lat="45.04399" lon="2.86459">
        <ele>1426</ele>
        <time>2016-12-30T13:34:15.008Z</time>
      </trkpt>
      <trkpt lat="45.04392" lon="2.86457">
        <ele>1426</ele>
        <time>2016-12-30T13:34:18.008Z</time>
      </trkpt>
      <trkpt lat="45.04385" lon="2.86455">
        <ele>1427</ele>
        <time>2016-12-30T13:34:21.008Z</time>
      </trkpt>
      <trkpt lat="45.04378" lon="2.86452">
        <ele>1427</ele>
        <time>2016-12-30T13:34:23.008Z</time>
      </trkpt>
      <trkpt lat="45.04372" lon="2.86449">
        <ele>1427</ele>
        <time>2016-12-30T13:34:25.008Z</time>
      </trkpt>
      <trkpt lat="45.04364" lon="2.86448">
        <ele>1427</ele>
        <time>2016-12-30T13:34:28.008Z</time>
      </trkpt>
      <trkpt lat="45.04355" lon="2.86447">
        <ele>1428</ele>
        <time>2016-12-30T13:34:31.008Z</time>
      </trkpt>
      <trkpt lat="45.0435" lon="2.86446">
        <ele>1428</ele>
        <time>2016-12-30T13:34:33.008Z</time>
      </trkpt>
      <trkpt lat="45.04341" lon="2.86447">
        <ele>1428</ele>
        <time>2016-12-30T13:34:36.008Z</time>
      </trkpt>
      <trkpt lat="45.04332" lon="2.86447">
        <ele>1428</ele>
        <time>2016-12-30T13:34:39.008Z</time>
      </trkpt>
      <trkpt lat="45.04326" lon="2.86446">
        <ele>1430</ele>
        <time>2016-12-30T13:34:41.008Z</time>
      </trkpt>
      <trkpt lat="45.0432" lon="2.86444">
        <ele>1430</ele>
        <time>2016-12-30T13:34:43.008Z</time>
      </trkpt>
      <trkpt lat="45.04315" lon="2.86442">
        <ele>1430</ele>
        <time>2016-12-30T13:34:45.008Z</time>
      </trkpt>
      <trkpt lat="45.04309" lon="2.86441">
        <ele>1430</ele>
        <time>2016-12-30T13:34:47.008Z</time>
      </trkpt>
      <trkpt lat="45.04303" lon="2.86441">
        <ele>1430</ele>
        <time>2016-12-30T13:34:49.008Z</time>
      </trkpt>
      <trkpt lat="45.04298" lon="2.86441">
        <ele>1430</ele>
        <time>2016-12-30T13:34:51.008Z</time>
      </trkpt>
      <trkpt lat="45.04292" lon="2.86441">
        <ele>1430</ele>
        <time>2016-12-30T13:34:53.008Z</time>
      </trkpt>
      <trkpt lat="45.04285" lon="2.8644">
        <ele>1430</ele>
        <time>2016-12-30T13:34:55.008Z</time>
      </trkpt>
      <trkpt lat="45.04279" lon="2.86438">
        <ele>1430</ele>
        <time>2016-12-30T13:34:57.008Z</time>
      </trkpt>
      <trkpt lat="45.04272" lon="2.86437">
        <ele>1430</ele>
        <time>2016-12-30T13:34:59.008Z</time>
      </trkpt>
      <trkpt lat="45.04266" lon="2.86435">
        <ele>1430</ele>
        <time>2016-12-30T13:35:01.008Z</time>
      </trkpt>
      <trkpt lat="45.04259" lon="2.86434">
        <ele>1430</ele>
        <time>2016-12-30T13:35:03.008Z</time>
      </trkpt>
      <trkpt lat="45.04252" lon="2.86433">
        <ele>1430</ele>
        <time>2016-12-30T13:35:05.008Z</time>
      </trkpt>
      <trkpt lat="45.04246" lon="2.86433">
        <ele>1430</ele>
        <time>2016-12-30T13:35:07.008Z</time>
      </trkpt>
      <trkpt lat="45.04239" lon="2.86435">
        <ele>1430</ele>
        <time>2016-12-30T13:35:09.008Z</time>
      </trkpt>
      <trkpt lat="45.04233" lon="2.86435">
        <ele>1430</ele>
        <time>2016-12-30T13:35:11.008Z</time>
      </trkpt>
      <trkpt lat="45.04226" lon="2.86435">
        <ele>1430</ele>
        <time>2016-12-30T13:35:13.008Z</time>
      </trkpt>
      <trkpt lat="45.04219" lon="2.86434">
        <ele>1430</ele>
        <time>2016-12-30T13:35:15.008Z</time>
      </trkpt>
      <trkpt lat="45.04214" lon="2.86431">
        <ele>1430</ele>
        <time>2016-12-30T13:35:17.008Z</time>
      </trkpt>
      <trkpt lat="45.04209" lon="2.86428">
        <ele>1430</ele>
        <time>2016-12-30T13:35:42.008Z</time>
      </trkpt>
      <trkpt lat="45.04203" lon="2.86425">
        <ele>1430</ele>
        <time>2016-12-30T13:35:45.008Z</time>
      </trkpt>
      <trkpt lat="45.04198" lon="2.86424">
        <ele>1430</ele>
        <time>2016-12-30T13:35:47.008Z</time>
      </trkpt>
      <trkpt lat="45.04193" lon="2.86422">
        <ele>1430</ele>
        <time>2016-12-30T13:35:49.008Z</time>
      </trkpt>
      <trkpt lat="45.04189" lon="2.86419">
        <ele>1431</ele>
        <time>2016-12-30T13:35:51.008Z</time>
      </trkpt>
      <trkpt lat="45.04184" lon="2.86414">
        <ele>1431</ele>
        <time>2016-12-30T13:35:54.008Z</time>
      </trkpt>
      <trkpt lat="45.0418" lon="2.86411">
        <ele>1431</ele>
        <time>2016-12-30T13:35:56.008Z</time>
      </trkpt>
      <trkpt lat="45.04176" lon="2.86409">
        <ele>1431</ele>
        <time>2016-12-30T13:35:58.008Z</time>
      </trkpt>
      <trkpt lat="45.04171" lon="2.86405">
        <ele>1430.1320047103</ele>
        <time>2016-12-30T13:36:00.008Z</time>
      </trkpt>
      <trkpt lat="45.04166" lon="2.86402">
        <ele>1430</ele>
        <time>2016-12-30T13:36:02.008Z</time>
      </trkpt>
      <trkpt lat="45.04162" lon="2.864">
        <ele>1430</ele>
        <time>2016-12-30T13:36:04.008Z</time>
      </trkpt>
      <trkpt lat="45.04157" lon="2.86398">
        <ele>1430</ele>
        <time>2016-12-30T13:36:06.008Z</time>
      </trkpt>
      <trkpt lat="45.04151" lon="2.86397">
        <ele>1430</ele>
        <time>2016-12-30T13:36:08.008Z</time>
      </trkpt>
      <trkpt lat="45.04141" lon="2.86394">
        <ele>1432</ele>
        <time>2016-12-30T13:36:12.008Z</time>
      </trkpt>
      <trkpt lat="45.04135" lon="2.86393">
        <ele>1432</ele>
        <time>2016-12-30T13:36:14.008Z</time>
      </trkpt>
      <trkpt lat="45.04127" lon="2.86392">
        <ele>1432</ele>
        <time>2016-12-30T13:36:17.008Z</time>
      </trkpt>
      <trkpt lat="45.04121" lon="2.8639">
        <ele>1432</ele>
        <time>2016-12-30T13:36:19.008Z</time>
      </trkpt>
      <trkpt lat="45.04116" lon="2.86388">
        <ele>1433</ele>
        <time>2016-12-30T13:36:21.008Z</time>
      </trkpt>
      <trkpt lat="45.04109" lon="2.86387">
        <ele>1433</ele>
        <time>2016-12-30T13:36:23.008Z</time>
      </trkpt>
      <trkpt lat="45.04103" lon="2.86385">
        <ele>1433</ele>
        <time>2016-12-30T13:36:25.008Z</time>
      </trkpt>
      <trkpt lat="45.04096" lon="2.86381">
        <ele>1433</ele>
        <time>2016-12-30T13:36:27.008Z</time>
      </trkpt>
      <trkpt lat="45.0409" lon="2.86378">
        <ele>1433</ele>
        <time>2016-12-30T13:36:29.008Z</time>
      </trkpt>
      <trkpt lat="45.04085" lon="2.86376">
        <ele>1434</ele>
        <time>2016-12-30T13:36:31.008Z</time>
      </trkpt>
      <trkpt lat="45.04079" lon="2.86373">
        <ele>1434</ele>
        <time>2016-12-30T13:36:33.008Z</time>
      </trkpt>
      <trkpt lat="45.04074" lon="2.86371">
        <ele>1434</ele>
        <time>2016-12-30T13:36:35.008Z</time>
      </trkpt>
      <trkpt lat="45.04065" lon="2.8637">
        <ele>1434</ele>
        <time>2016-12-30T13:36:38.008Z</time>
      </trkpt>
      <trkpt lat="45.04058" lon="2.86368">
        <ele>1435</ele>
        <time>2016-12-30T13:36:41.008Z</time>
      </trkpt>
      <trkpt lat="45.0405" lon="2.86367">
        <ele>1435</ele>
        <time>2016-12-30T13:36:44.008Z</time>
      </trkpt>
      <trkpt lat="45.04043" lon="2.86365">
        <ele>1435</ele>
        <time>2016-12-30T13:36:46.008Z</time>
      </trkpt>
      <trkpt lat="45.04036" lon="2.86361">
        <ele>1435</ele>
        <time>2016-12-30T13:36:48.008Z</time>
      </trkpt>
      <trkpt lat="45.0403" lon="2.86356">
        <ele>1435</ele>
        <time>2016-12-30T13:36:50.008Z</time>
      </trkpt>
      <trkpt lat="45.04024" lon="2.86353">
        <ele>1435</ele>
        <time>2016-12-30T13:36:52.008Z</time>
      </trkpt>
      <trkpt lat="45.04017" lon="2.86353">
        <ele>1435</ele>
        <time>2016-12-30T13:36:54.008Z</time>
      </trkpt>
      <trkpt lat="45.0401" lon="2.86353">
        <ele>1435</ele>
        <time>2016-12-30T13:36:56.008Z</time>
      </trkpt>
      <trkpt lat="45.04003" lon="2.86352">
        <ele>1435</ele>
        <time>2016-12-30T13:36:58.008Z</time>
      </trkpt>
      <trkpt lat="45.03996" lon="2.86349">
        <ele>1434.1320047103</ele>
        <time>2016-12-30T13:37:00.008Z</time>
      </trkpt>
      <trkpt lat="45.03988" lon="2.86348">
        <ele>1434</ele>
        <time>2016-12-30T13:37:02.008Z</time>
      </trkpt>
      <trkpt lat="45.03981" lon="2.86346">
        <ele>1434</ele>
        <time>2016-12-30T13:37:04.008Z</time>
      </trkpt>
      <trkpt lat="45.03973" lon="2.86343">
        <ele>1434</ele>
        <time>2016-12-30T13:37:07.008Z</time>
      </trkpt>
      <trkpt lat="45.03965" lon="2.86341">
        <ele>1434.8679952897</ele>
        <time>2016-12-30T13:37:10.008Z</time>
      </trkpt>
      <trkpt lat="45.03959" lon="2.8634">
        <ele>1435</ele>
        <time>2016-12-30T13:37:13.008Z</time>
      </trkpt>
      <trkpt lat="45.03953" lon="2.86338">
        <ele>1435</ele>
        <time>2016-12-30T13:37:51.008Z</time>
      </trkpt>
      <trkpt lat="45.03948" lon="2.86334">
        <ele>1435</ele>
        <time>2016-12-30T13:37:54.008Z</time>
      </trkpt>
      <trkpt lat="45.03942" lon="2.86332">
        <ele>1435</ele>
        <time>2016-12-30T13:37:57.008Z</time>
      </trkpt>
      <trkpt lat="45.03936" lon="2.86332">
        <ele>1435</ele>
        <time>2016-12-30T13:38:01.008Z</time>
      </trkpt>
      <trkpt lat="45.0393" lon="2.86331">
        <ele>1435</ele>
        <time>2016-12-30T13:38:04.008Z</time>
      </trkpt>
      <trkpt lat="45.03923" lon="2.86328">
        <ele>1435</ele>
        <time>2016-12-30T13:38:07.008Z</time>
      </trkpt>
      <trkpt lat="45.03917" lon="2.86326">
        <ele>1435</ele>
        <time>2016-12-30T13:38:09.008Z</time>
      </trkpt>
      <trkpt lat="45.03911" lon="2.86323">
        <ele>1435</ele>
        <time>2016-12-30T13:38:11.008Z</time>
      </trkpt>
      <trkpt lat="45.03904" lon="2.86321">
        <ele>1435</ele>
        <time>2016-12-30T13:38:13.008Z</time>
      </trkpt>
      <trkpt lat="45.03897" lon="2.86318">
        <ele>1435</ele>
        <time>2016-12-30T13:38:15.008Z</time>
      </trkpt>
      <trkpt lat="45.03889" lon="2.86315">
        <ele>1435</ele>
        <time>2016-12-30T13:38:17.008Z</time>
      </trkpt>
      <trkpt lat="45.03881" lon="2.86312">
        <ele>1435</ele>
        <time>2016-12-30T13:38:19.008Z</time>
      </trkpt>
      <trkpt lat="45.03874" lon="2.86308">
        <ele>1434</ele>
        <time>2016-12-30T13:38:21.008Z</time>
      </trkpt>
      <trkpt lat="45.03866" lon="2.86307">
        <ele>1434</ele>
        <time>2016-12-30T13:38:23.008Z</time>
      </trkpt>
      <trkpt lat="45.03857" lon="2.86306">
        <ele>1434</ele>
        <time>2016-12-30T13:38:25.008Z</time>
      </trkpt>
      <trkpt lat="45.03848" lon="2.86306">
        <ele>1434</ele>
        <time>2016-12-30T13:38:27.008Z</time>
      </trkpt>
      <trkpt lat="45.0384" lon="2.86308">
        <ele>1434</ele>
        <time>2016-12-30T13:38:29.008Z</time>
      </trkpt>
      <trkpt lat="45.03832" lon="2.86308">
        <ele>1433</ele>
        <time>2016-12-30T13:38:31.008Z</time>
      </trkpt>
      <trkpt lat="45.03822" lon="2.86303">
        <ele>1433</ele>
        <time>2016-12-30T13:38:34.008Z</time>
      </trkpt>
      <trkpt lat="45.03812" lon="2.86297">
        <ele>1433</ele>
        <time>2016-12-30T13:38:37.008Z</time>
      </trkpt>
      <trkpt lat="45.03804" lon="2.86293">
        <ele>1433</ele>
        <time>2016-12-30T13:38:40.008Z</time>
      </trkpt>
      <trkpt lat="45.03793" lon="2.86289">
        <ele>1433</ele>
        <time>2016-12-30T13:38:43.008Z</time>
      </trkpt>
      <trkpt lat="45.03784" lon="2.86286">
        <ele>1433</ele>
        <time>2016-12-30T13:38:45.008Z</time>
      </trkpt>
      <trkpt lat="45.03776" lon="2.86282">
        <ele>1433</ele>
        <time>2016-12-30T13:38:47.008Z</time>
      </trkpt>
      <trkpt lat="45.03766" lon="2.86276">
        <ele>1432.1405958914</ele>
        <time>2016-12-30T13:38:50.008Z</time>
      </trkpt>
      <trkpt lat="45.03756" lon="2.86272">
        <ele>1432</ele>
        <time>2016-12-30T13:38:53.008Z</time>
      </trkpt>
      <trkpt lat="45.03747" lon="2.86269">
        <ele>1432</ele>
        <time>2016-12-30T13:38:56.008Z</time>
      </trkpt>
      <trkpt lat="45.03738" lon="2.86266">
        <ele>1432</ele>
        <time>2016-12-30T13:38:59.008Z</time>
      </trkpt>
      <trkpt lat="45.0373" lon="2.86263">
        <ele>1432</ele>
        <time>2016-12-30T13:39:01.008Z</time>
      </trkpt>
      <trkpt lat="45.03722" lon="2.86258">
        <ele>1432</ele>
        <time>2016-12-30T13:39:03.008Z</time>
      </trkpt>
      <trkpt lat="45.03716" lon="2.86251">
        <ele>1432</ele>
        <time>2016-12-30T13:39:05.008Z</time>
      </trkpt>
      <trkpt lat="45.0371" lon="2.86244">
        <ele>1432</ele>
        <time>2016-12-30T13:39:07.008Z</time>
      </trkpt>
      <trkpt lat="45.03698" lon="2.86242">
        <ele>1432</ele>
        <time>2016-12-30T13:39:10.008Z</time>
      </trkpt>
      <trkpt lat="45.03687" lon="2.8624">
        <ele>1432</ele>
        <time>2016-12-30T13:39:13.008Z</time>
      </trkpt>
      <trkpt lat="45.03676" lon="2.86239">
        <ele>1432</ele>
        <time>2016-12-30T13:39:15.008Z</time>
      </trkpt>
      <trkpt lat="45.03666" lon="2.86237">
        <ele>1432</ele>
        <time>2016-12-30T13:39:17.008Z</time>
      </trkpt>
      <trkpt lat="45.03657" lon="2.86236">
        <ele>1432</ele>
        <time>2016-12-30T13:39:19.008Z</time>
      </trkpt>
      <trkpt lat="45.03648" lon="2.86235">
        <ele>1430</ele>
        <time>2016-12-30T13:39:21.008Z</time>
      </trkpt>
      <trkpt lat="45.03639" lon="2.86236">
        <ele>1430</ele>
        <time>2016-12-30T13:39:23.008Z</time>
      </trkpt>
      <trkpt lat="45.03629" lon="2.86236">
        <ele>1430</ele>
        <time>2016-12-30T13:39:25.008Z</time>
      </trkpt>
      <trkpt lat="45.03618" lon="2.86235">
        <ele>1430</ele>
        <time>2016-12-30T13:39:27.008Z</time>
      </trkpt>
      <trkpt lat="45.03606" lon="2.86234">
        <ele>1430</ele>
        <time>2016-12-30T13:39:29.008Z</time>
      </trkpt>
      <trkpt lat="45.03595" lon="2.86231">
        <ele>1427</ele>
        <time>2016-12-30T13:39:31.008Z</time>
      </trkpt>
      <trkpt lat="45.03583" lon="2.86229">
        <ele>1427</ele>
        <time>2016-12-30T13:39:33.008Z</time>
      </trkpt>
      <trkpt lat="45.03576" lon="2.86228">
        <ele>1427</ele>
        <time>2016-12-30T13:39:34.008Z</time>
      </trkpt>
      <trkpt lat="45.03566" lon="2.86225">
        <ele>1424</ele>
        <time>2016-12-30T13:39:36.008Z</time>
      </trkpt>
      <trkpt lat="45.03556" lon="2.86225">
        <ele>1424</ele>
        <time>2016-12-30T13:39:38.008Z</time>
      </trkpt>
      <trkpt lat="45.03548" lon="2.86228">
        <ele>1422.2640094207</ele>
        <time>2016-12-30T13:39:40.008Z</time>
      </trkpt>
      <trkpt lat="45.03541" lon="2.86234">
        <ele>1422</ele>
        <time>2016-12-30T13:39:42.008Z</time>
      </trkpt>
      <trkpt lat="45.03535" lon="2.86242">
        <ele>1422</ele>
        <time>2016-12-30T13:39:44.008Z</time>
      </trkpt>
      <trkpt lat="45.03527" lon="2.8625">
        <ele>1420</ele>
        <time>2016-12-30T13:39:46.008Z</time>
      </trkpt>
      <trkpt lat="45.03518" lon="2.86257">
        <ele>1420</ele>
        <time>2016-12-30T13:39:48.008Z</time>
      </trkpt>
      <trkpt lat="45.03509" lon="2.86264">
        <ele>1418.2811917827</ele>
        <time>2016-12-30T13:39:50.008Z</time>
      </trkpt>
      <trkpt lat="45.03502" lon="2.86272">
        <ele>1418</ele>
        <time>2016-12-30T13:39:52.008Z</time>
      </trkpt>
      <trkpt lat="45.03499" lon="2.86282">
        <ele>1418</ele>
        <time>2016-12-30T13:39:54.008Z</time>
      </trkpt>
      <trkpt lat="45.03497" lon="2.86292">
        <ele>1416</ele>
        <time>2016-12-30T13:39:56.008Z</time>
      </trkpt>
      <trkpt lat="45.03496" lon="2.86302">
        <ele>1416</ele>
        <time>2016-12-30T13:39:58.008Z</time>
      </trkpt>
      <trkpt lat="45.03495" lon="2.86308">
        <ele>1416</ele>
        <time>2016-12-30T13:39:59.008Z</time>
      </trkpt>
      <trkpt lat="45.03492" lon="2.86317">
        <ele>1414</ele>
        <time>2016-12-30T13:40:01.008Z</time>
      </trkpt>
      <trkpt lat="45.0349" lon="2.86321">
        <ele>1414</ele>
        <time>2016-12-30T13:40:02.008Z</time>
      </trkpt>
      <trkpt lat="45.03486" lon="2.86329">
        <ele>1414</ele>
        <time>2016-12-30T13:40:04.008Z</time>
      </trkpt>
      <trkpt lat="45.03483" lon="2.86337">
        <ele>1414</ele>
        <time>2016-12-30T13:40:06.008Z</time>
      </trkpt>
      <trkpt lat="45.0348" lon="2.86346">
        <ele>1414</ele>
        <time>2016-12-30T13:40:08.008Z</time>
      </trkpt>
      <trkpt lat="45.03474" lon="2.8636">
        <ele>1413</ele>
        <time>2016-12-30T13:40:11.008Z</time>
      </trkpt>
      <trkpt lat="45.03471" lon="2.86375">
        <ele>1413</ele>
        <time>2016-12-30T13:40:13.008Z</time>
      </trkpt>
      <trkpt lat="45.03469" lon="2.86389">
        <ele>1413</ele>
        <time>2016-12-30T13:40:15.008Z</time>
      </trkpt>
      <trkpt lat="45.03464" lon="2.86403">
        <ele>1413</ele>
        <time>2016-12-30T13:40:17.008Z</time>
      </trkpt>
      <trkpt lat="45.03459" lon="2.86418">
        <ele>1413</ele>
        <time>2016-12-30T13:40:19.008Z</time>
      </trkpt>
      <trkpt lat="45.03455" lon="2.86432">
        <ele>1411</ele>
        <time>2016-12-30T13:40:21.008Z</time>
      </trkpt>
      <trkpt lat="45.03454" lon="2.86447">
        <ele>1411</ele>
        <time>2016-12-30T13:40:23.008Z</time>
      </trkpt>
      <trkpt lat="45.03452" lon="2.86462">
        <ele>1411</ele>
        <time>2016-12-30T13:40:25.008Z</time>
      </trkpt>
      <trkpt lat="45.03448" lon="2.86475">
        <ele>1411</ele>
        <time>2016-12-30T13:40:27.008Z</time>
      </trkpt>
      <trkpt lat="45.03444" lon="2.86487">
        <ele>1411</ele>
        <time>2016-12-30T13:40:29.008Z</time>
      </trkpt>
      <trkpt lat="45.0344" lon="2.86498">
        <ele>1408</ele>
        <time>2016-12-30T13:40:31.008Z</time>
      </trkpt>
      <trkpt lat="45.03435" lon="2.8651">
        <ele>1408</ele>
        <time>2016-12-30T13:40:33.008Z</time>
      </trkpt>
      <trkpt lat="45.0343" lon="2.86521">
        <ele>1407.1319952895</ele>
        <time>2016-12-30T13:40:35.008Z</time>
      </trkpt>
      <trkpt lat="45.03425" lon="2.86533">
        <ele>1407</ele>
        <time>2016-12-30T13:40:37.008Z</time>
      </trkpt>
      <trkpt lat="45.0342" lon="2.86543">
        <ele>1407</ele>
        <time>2016-12-30T13:40:39.008Z</time>
      </trkpt>
      <trkpt lat="45.03414" lon="2.86555">
        <ele>1405</ele>
        <time>2016-12-30T13:40:41.008Z</time>
      </trkpt>
      <trkpt lat="45.03408" lon="2.86566">
        <ele>1405</ele>
        <time>2016-12-30T13:40:43.008Z</time>
      </trkpt>
      <trkpt lat="45.03403" lon="2.86579">
        <ele>1404.1333281616</ele>
        <time>2016-12-30T13:40:45.008Z</time>
      </trkpt>
      <trkpt lat="45.03396" lon="2.86591">
        <ele>1404</ele>
        <time>2016-12-30T13:40:47.008Z</time>
      </trkpt>
      <trkpt lat="45.03391" lon="2.86603">
        <ele>1404</ele>
        <time>2016-12-30T13:40:49.008Z</time>
      </trkpt>
      <trkpt lat="45.03386" lon="2.8662">
        <ele>1403</ele>
        <time>2016-12-30T13:40:52.008Z</time>
      </trkpt>
      <trkpt lat="45.03382" lon="2.86631">
        <ele>1403</ele>
        <time>2016-12-30T13:40:54.008Z</time>
      </trkpt>
      <trkpt lat="45.03375" lon="2.86647">
        <ele>1403</ele>
        <time>2016-12-30T13:40:57.008Z</time>
      </trkpt>
      <trkpt lat="45.03369" lon="2.86661">
        <ele>1401.2640094207</ele>
        <time>2016-12-30T13:41:00.008Z</time>
      </trkpt>
      <trkpt lat="45.03365" lon="2.86671">
        <ele>1401</ele>
        <time>2016-12-30T13:41:02.008Z</time>
      </trkpt>
      <trkpt lat="45.03359" lon="2.86685">
        <ele>1401</ele>
        <time>2016-12-30T13:41:05.008Z</time>
      </trkpt>
      <trkpt lat="45.03355" lon="2.86699">
        <ele>1401</ele>
        <time>2016-12-30T13:41:07.008Z</time>
      </trkpt>
      <trkpt lat="45.03352" lon="2.86717">
        <ele>1400.1320047103</ele>
        <time>2016-12-30T13:41:10.008Z</time>
      </trkpt>
      <trkpt lat="45.03347" lon="2.86729">
        <ele>1400</ele>
        <time>2016-12-30T13:41:12.008Z</time>
      </trkpt>
      <trkpt lat="45.03342" lon="2.86738">
        <ele>1400</ele>
        <time>2016-12-30T13:41:14.008Z</time>
      </trkpt>
      <trkpt lat="45.03337" lon="2.86746">
        <ele>1400</ele>
        <time>2016-12-30T13:41:16.008Z</time>
      </trkpt>
      <trkpt lat="45.03332" lon="2.86755">
        <ele>1400</ele>
        <time>2016-12-30T13:41:18.008Z</time>
      </trkpt>
      <trkpt lat="45.03327" lon="2.86764">
        <ele>1399.1405958914</ele>
        <time>2016-12-30T13:41:20.008Z</time>
      </trkpt>
      <trkpt lat="45.03324" lon="2.86771">
        <ele>1399</ele>
        <time>2016-12-30T13:41:22.008Z</time>
      </trkpt>
      <trkpt lat="45.03319" lon="2.86777">
        <ele>1398</ele>
        <time>2016-12-30T13:41:36.008Z</time>
      </trkpt>
      <trkpt lat="45.03315" lon="2.86785">
        <ele>1397.1320047103</ele>
        <time>2016-12-30T13:41:40.008Z</time>
      </trkpt>
      <trkpt lat="45.03311" lon="2.86795">
        <ele>1397</ele>
        <time>2016-12-30T13:41:43.008Z</time>
      </trkpt>
      <trkpt lat="45.03307" lon="2.86803">
        <ele>1397</ele>
        <time>2016-12-30T13:41:45.008Z</time>
      </trkpt>
      <trkpt lat="45.03303" lon="2.86812">
        <ele>1397</ele>
        <time>2016-12-30T13:41:47.008Z</time>
      </trkpt>
      <trkpt lat="45.033" lon="2.86821">
        <ele>1397</ele>
        <time>2016-12-30T13:41:49.008Z</time>
      </trkpt>
      <trkpt lat="45.03298" lon="2.86831">
        <ele>1397</ele>
        <time>2016-12-30T13:41:51.008Z</time>
      </trkpt>
      <trkpt lat="45.03297" lon="2.86841">
        <ele>1397</ele>
        <time>2016-12-30T13:41:53.008Z</time>
      </trkpt>
      <trkpt lat="45.03297" lon="2.86849">
        <ele>1397</ele>
        <time>2016-12-30T13:41:55.008Z</time>
      </trkpt>
      <trkpt lat="45.03297" lon="2.86858">
        <ele>1397</ele>
        <time>2016-12-30T13:41:57.008Z</time>
      </trkpt>
      <trkpt lat="45.03298" lon="2.86866">
        <ele>1397</ele>
        <time>2016-12-30T13:41:59.008Z</time>
      </trkpt>
      <trkpt lat="45.033" lon="2.86883">
        <ele>1398</ele>
        <time>2016-12-30T13:42:03.008Z</time>
      </trkpt>
      <trkpt lat="45.03304" lon="2.869">
        <ele>1398</ele>
        <time>2016-12-30T13:42:07.008Z</time>
      </trkpt>
      <trkpt lat="45.03307" lon="2.86911">
        <ele>1398.8679952897</ele>
        <time>2016-12-30T13:42:10.008Z</time>
      </trkpt>
      <trkpt lat="45.03307" lon="2.86923">
        <ele>1399</ele>
        <time>2016-12-30T13:42:13.008Z</time>
      </trkpt>
      <trkpt lat="45.03309" lon="2.86938">
        <ele>1399</ele>
        <time>2016-12-30T13:42:16.008Z</time>
      </trkpt>
      <trkpt lat="45.0331" lon="2.86951">
        <ele>1399</ele>
        <time>2016-12-30T13:42:19.008Z</time>
      </trkpt>
      <trkpt lat="45.03311" lon="2.86965">
        <ele>1398</ele>
        <time>2016-12-30T13:42:22.008Z</time>
      </trkpt>
      <trkpt lat="45.03311" lon="2.8698">
        <ele>1398</ele>
        <time>2016-12-30T13:42:25.008Z</time>
      </trkpt>
      <trkpt lat="45.03313" lon="2.86992">
        <ele>1398</ele>
        <time>2016-12-30T13:42:28.008Z</time>
      </trkpt>
      <trkpt lat="45.03316" lon="2.87006">
        <ele>1397</ele>
        <time>2016-12-30T13:42:32.008Z</time>
      </trkpt>
      <trkpt lat="45.0332" lon="2.87018">
        <ele>1397</ele>
        <time>2016-12-30T13:42:35.008Z</time>
      </trkpt>
      <trkpt lat="45.03322" lon="2.87032">
        <ele>1397</ele>
        <time>2016-12-30T13:42:39.008Z</time>
      </trkpt>
      <trkpt lat="45.03325" lon="2.87045">
        <ele>1397</ele>
        <time>2016-12-30T13:42:42.008Z</time>
      </trkpt>
      <trkpt lat="45.03326" lon="2.87058">
        <ele>1397</ele>
        <time>2016-12-30T13:42:45.008Z</time>
      </trkpt>
      <trkpt lat="45.03326" lon="2.87069">
        <ele>1397</ele>
        <time>2016-12-30T13:42:48.008Z</time>
      </trkpt>
      <trkpt lat="45.03326" lon="2.87079">
        <ele>1396.1405958914</ele>
        <time>2016-12-30T13:42:50.008Z</time>
      </trkpt>
      <trkpt lat="45.03327" lon="2.87091">
        <ele>1396</ele>
        <time>2016-12-30T13:42:53.008Z</time>
      </trkpt>
      <trkpt lat="45.03327" lon="2.87105">
        <ele>1396</ele>
        <time>2016-12-30T13:42:56.008Z</time>
      </trkpt>
      <trkpt lat="45.03328" lon="2.87119">
        <ele>1396</ele>
        <time>2016-12-30T13:42:59.008Z</time>
      </trkpt>
      <trkpt lat="45.03329" lon="2.87131">
        <ele>1395</ele>
        <time>2016-12-30T13:43:02.008Z</time>
      </trkpt>
      <trkpt lat="45.03329" lon="2.87145">
        <ele>1395</ele>
        <time>2016-12-30T13:43:05.008Z</time>
      </trkpt>
      <trkpt lat="45.03329" lon="2.87156">
        <ele>1395</ele>
        <time>2016-12-30T13:43:07.008Z</time>
      </trkpt>
      <trkpt lat="45.03329" lon="2.87166">
        <ele>1395</ele>
        <time>2016-12-30T13:43:09.008Z</time>
      </trkpt>
      <trkpt lat="45.03332" lon="2.87179">
        <ele>1394</ele>
        <time>2016-12-30T13:43:12.008Z</time>
      </trkpt>
      <trkpt lat="45.03335" lon="2.87189">
        <ele>1394</ele>
        <time>2016-12-30T13:43:15.008Z</time>
      </trkpt>
      <trkpt lat="45.0334" lon="2.87203">
        <ele>1394</ele>
        <time>2016-12-30T13:43:18.008Z</time>
      </trkpt>
      <trkpt lat="45.03341" lon="2.87214">
        <ele>1392.2811917827</ele>
        <time>2016-12-30T13:43:20.008Z</time>
      </trkpt>
      <trkpt lat="45.03341" lon="2.87225">
        <ele>1392</ele>
        <time>2016-12-30T13:43:22.008Z</time>
      </trkpt>
      <trkpt lat="45.03339" lon="2.87235">
        <ele>1392</ele>
        <time>2016-12-30T13:43:24.008Z</time>
      </trkpt>
      <trkpt lat="45.03337" lon="2.87247">
        <ele>1392</ele>
        <time>2016-12-30T13:43:26.008Z</time>
      </trkpt>
      <trkpt lat="45.03336" lon="2.87258">
        <ele>1392</ele>
        <time>2016-12-30T13:43:28.008Z</time>
      </trkpt>
      <trkpt lat="45.03336" lon="2.87269">
        <ele>1391.1320047103</ele>
        <time>2016-12-30T13:43:30.008Z</time>
      </trkpt>
      <trkpt lat="45.03337" lon="2.8728">
        <ele>1391</ele>
        <time>2016-12-30T13:43:32.008Z</time>
      </trkpt>
      <trkpt lat="45.03339" lon="2.87292">
        <ele>1391</ele>
        <time>2016-12-30T13:43:34.008Z</time>
      </trkpt>
      <trkpt lat="45.03341" lon="2.87304">
        <ele>1391</ele>
        <time>2016-12-30T13:43:36.008Z</time>
      </trkpt>
      <trkpt lat="45.03342" lon="2.87314">
        <ele>1391</ele>
        <time>2016-12-30T13:43:38.008Z</time>
      </trkpt>
      <trkpt lat="45.03344" lon="2.87324">
        <ele>1388</ele>
        <time>2016-12-30T13:43:41.008Z</time>
      </trkpt>
      <trkpt lat="45.03346" lon="2.87333">
        <ele>1388</ele>
        <time>2016-12-30T13:43:44.008Z</time>
      </trkpt>
      <trkpt lat="45.03347" lon="2.87344">
        <ele>1388</ele>
        <time>2016-12-30T13:43:47.008Z</time>
      </trkpt>
      <trkpt lat="45.03351" lon="2.87359">
        <ele>1387</ele>
        <time>2016-12-30T13:43:51.008Z</time>
      </trkpt>
      <trkpt lat="45.03352" lon="2.87368">
        <ele>1387</ele>
        <time>2016-12-30T13:43:53.008Z</time>
      </trkpt>
      <trkpt lat="45.03353" lon="2.87378">
        <ele>1387</ele>
        <time>2016-12-30T13:43:55.008Z</time>
      </trkpt>
      <trkpt lat="45.03354" lon="2.87388">
        <ele>1387</ele>
        <time>2016-12-30T13:43:57.008Z</time>
      </trkpt>
      <trkpt lat="45.03356" lon="2.87401">
        <ele>1383.5280188414</ele>
        <time>2016-12-30T13:44:00.008Z</time>
      </trkpt>
      <trkpt lat="45.03355" lon="2.87413">
        <ele>1383</ele>
        <time>2016-12-30T13:44:03.008Z</time>
      </trkpt>
      <trkpt lat="45.03355" lon="2.87423">
        <ele>1381.2639905791</ele>
        <time>2016-12-30T13:44:05.008Z</time>
      </trkpt>
      <trkpt lat="45.03354" lon="2.87435">
        <ele>1381</ele>
        <time>2016-12-30T13:44:07.008Z</time>
      </trkpt>
      <trkpt lat="45.03353" lon="2.87447">
        <ele>1381</ele>
        <time>2016-12-30T13:44:09.008Z</time>
      </trkpt>
      <trkpt lat="45.03353" lon="2.87459">
        <ele>1379</ele>
        <time>2016-12-30T13:44:11.008Z</time>
      </trkpt>
      <trkpt lat="45.03352" lon="2.87471">
        <ele>1379</ele>
        <time>2016-12-30T13:44:13.008Z</time>
      </trkpt>
      <trkpt lat="45.03354" lon="2.87485">
        <ele>1376</ele>
        <time>2016-12-30T13:44:16.008Z</time>
      </trkpt>
      <trkpt lat="45.03358" lon="2.87497">
        <ele>1376</ele>
        <time>2016-12-30T13:44:19.008Z</time>
      </trkpt>
      <trkpt lat="45.03363" lon="2.87505">
        <ele>1372.1333281616</ele>
        <time>2016-12-30T13:44:21.008Z</time>
      </trkpt>
      <trkpt lat="45.03367" lon="2.87513">
        <ele>1372</ele>
        <time>2016-12-30T13:44:23.008Z</time>
      </trkpt>
      <trkpt lat="45.03372" lon="2.87525">
        <ele>1371.1405958914</ele>
        <time>2016-12-30T13:44:26.008Z</time>
      </trkpt>
      <trkpt lat="45.03374" lon="2.87539">
        <ele>1372</ele>
        <time>2016-12-30T13:45:33.008Z</time>
      </trkpt>
      <trkpt lat="45.03381" lon="2.87551">
        <ele>1372</ele>
        <time>2016-12-30T13:45:37.008Z</time>
      </trkpt>
      <trkpt lat="45.03389" lon="2.87561">
        <ele>1372</ele>
        <time>2016-12-30T13:45:40.008Z</time>
      </trkpt>
      <trkpt lat="45.03396" lon="2.87574">
        <ele>1372</ele>
        <time>2016-12-30T13:45:43.008Z</time>
      </trkpt>
      <trkpt lat="45.034" lon="2.87589">
        <ele>1372</ele>
        <time>2016-12-30T13:45:46.008Z</time>
      </trkpt>
      <trkpt lat="45.03406" lon="2.87601">
        <ele>1372</ele>
        <time>2016-12-30T13:45:49.008Z</time>
      </trkpt>
      <trkpt lat="45.03412" lon="2.87613">
        <ele>1371</ele>
        <time>2016-12-30T13:45:52.008Z</time>
      </trkpt>
      <trkpt lat="45.03419" lon="2.87625">
        <ele>1371</ele>
        <time>2016-12-30T13:45:55.008Z</time>
      </trkpt>
      <trkpt lat="45.03425" lon="2.8764">
        <ele>1371</ele>
        <time>2016-12-30T13:45:58.008Z</time>
      </trkpt>
      <trkpt lat="45.03431" lon="2.87652">
        <ele>1367.5280188414</ele>
        <time>2016-12-30T13:46:00.008Z</time>
      </trkpt>
      <trkpt lat="45.03434" lon="2.87672">
        <ele>1367</ele>
        <time>2016-12-30T13:46:03.008Z</time>
      </trkpt>
      <trkpt lat="45.03433" lon="2.87683">
        <ele>1367</ele>
        <time>2016-12-30T13:46:05.008Z</time>
      </trkpt>
      <trkpt lat="45.03432" lon="2.87699">
        <ele>1367</ele>
        <time>2016-12-30T13:46:08.008Z</time>
      </trkpt>
      <trkpt lat="45.03432" lon="2.87717">
        <ele>1365</ele>
        <time>2016-12-30T13:46:11.008Z</time>
      </trkpt>
      <trkpt lat="45.03431" lon="2.87732">
        <ele>1365</ele>
        <time>2016-12-30T13:46:14.008Z</time>
      </trkpt>
      <trkpt lat="45.03431" lon="2.87747">
        <ele>1365</ele>
        <time>2016-12-30T13:46:18.008Z</time>
      </trkpt>
      <trkpt lat="45.0343" lon="2.87762">
        <ele>1364</ele>
        <time>2016-12-30T13:46:21.008Z</time>
      </trkpt>
      <trkpt lat="45.0343" lon="2.87779">
        <ele>1364</ele>
        <time>2016-12-30T13:46:24.008Z</time>
      </trkpt>
      <trkpt lat="45.03427" lon="2.87794">
        <ele>1364</ele>
        <time>2016-12-30T13:46:28.008Z</time>
      </trkpt>
      <trkpt lat="45.0342" lon="2.87801">
        <ele>1361</ele>
        <time>2016-12-30T13:46:44.008Z</time>
      </trkpt>
      <trkpt lat="45.03415" lon="2.87809">
        <ele>1362</ele>
        <time>2016-12-30T13:46:52.008Z</time>
      </trkpt>
      <trkpt lat="45.03408" lon="2.87813">
        <ele>1362</ele>
        <time>2016-12-30T13:47:51.008Z</time>
      </trkpt>
      <trkpt lat="45.03404" lon="2.87824">
        <ele>1363</ele>
        <time>2016-12-30T13:48:01.008Z</time>
      </trkpt>
      <trkpt lat="45.03398" lon="2.87833">
        <ele>1363</ele>
        <time>2016-12-30T13:48:13.008Z</time>
      </trkpt>
      <trkpt lat="45.0339" lon="2.87843">
        <ele>1363</ele>
        <time>2016-12-30T13:48:18.008Z</time>
      </trkpt>
      <trkpt lat="45.03385" lon="2.87855">
        <ele>1362</ele>
        <time>2016-12-30T13:48:21.008Z</time>
      </trkpt>
      <trkpt lat="45.0338" lon="2.87864">
        <ele>1362</ele>
        <time>2016-12-30T13:48:24.008Z</time>
      </trkpt>
      <trkpt lat="45.03374" lon="2.87874">
        <ele>1362</ele>
        <time>2016-12-30T13:48:28.008Z</time>
      </trkpt>
      <trkpt lat="45.03367" lon="2.87886">
        <ele>1361</ele>
        <time>2016-12-30T13:48:31.008Z</time>
      </trkpt>
      <trkpt lat="45.03361" lon="2.87895">
        <ele>1361</ele>
        <time>2016-12-30T13:48:33.008Z</time>
      </trkpt>
      <trkpt lat="45.03356" lon="2.87904">
        <ele>1361</ele>
        <time>2016-12-30T13:48:35.008Z</time>
      </trkpt>
      <trkpt lat="45.0335" lon="2.87916">
        <ele>1361</ele>
        <time>2016-12-30T13:48:38.008Z</time>
      </trkpt>
      <trkpt lat="45.03345" lon="2.87925">
        <ele>1359.2640094207</ele>
        <time>2016-12-30T13:48:40.008Z</time>
      </trkpt>
      <trkpt lat="45.0334" lon="2.87934">
        <ele>1359</ele>
        <time>2016-12-30T13:48:42.008Z</time>
      </trkpt>
      <trkpt lat="45.03336" lon="2.87943">
        <ele>1359</ele>
        <time>2016-12-30T13:48:44.008Z</time>
      </trkpt>
      <trkpt lat="45.03331" lon="2.8795">
        <ele>1359</ele>
        <time>2016-12-30T13:48:46.008Z</time>
      </trkpt>
      <trkpt lat="45.03326" lon="2.87959">
        <ele>1359</ele>
        <time>2016-12-30T13:48:49.008Z</time>
      </trkpt>
      <trkpt lat="45.0332" lon="2.87967">
        <ele>1358</ele>
        <time>2016-12-30T13:48:52.008Z</time>
      </trkpt>
      <trkpt lat="45.03315" lon="2.87975">
        <ele>1358</ele>
        <time>2016-12-30T13:48:54.008Z</time>
      </trkpt>
      <trkpt lat="45.0331" lon="2.87983">
        <ele>1358</ele>
        <time>2016-12-30T13:48:56.008Z</time>
      </trkpt>
      <trkpt lat="45.03304" lon="2.8799">
        <ele>1358</ele>
        <time>2016-12-30T13:48:58.008Z</time>
      </trkpt>
      <trkpt lat="45.03299" lon="2.87999">
        <ele>1356.2640094207</ele>
        <time>2016-12-30T13:49:00.008Z</time>
      </trkpt>
      <trkpt lat="45.03295" lon="2.88009">
        <ele>1356</ele>
        <time>2016-12-30T13:49:02.008Z</time>
      </trkpt>
      <trkpt lat="45.03291" lon="2.88019">
        <ele>1356</ele>
        <time>2016-12-30T13:49:04.008Z</time>
      </trkpt>
      <trkpt lat="45.03285" lon="2.88027">
        <ele>1356</ele>
        <time>2016-12-30T13:49:06.008Z</time>
      </trkpt>
      <trkpt lat="45.03276" lon="2.88036">
        <ele>1356</ele>
        <time>2016-12-30T13:49:09.008Z</time>
      </trkpt>
      <trkpt lat="45.03271" lon="2.88049">
        <ele>1356</ele>
        <time>2016-12-30T13:49:12.008Z</time>
      </trkpt>
      <trkpt lat="45.03266" lon="2.88059">
        <ele>1356</ele>
        <time>2016-12-30T13:49:14.008Z</time>
      </trkpt>
      <trkpt lat="45.03261" lon="2.88069">
        <ele>1356</ele>
        <time>2016-12-30T13:49:16.008Z</time>
      </trkpt>
      <trkpt lat="45.03255" lon="2.8808">
        <ele>1356</ele>
        <time>2016-12-30T13:49:19.008Z</time>
      </trkpt>
      <trkpt lat="45.03247" lon="2.88089">
        <ele>1356</ele>
        <time>2016-12-30T13:49:22.008Z</time>
      </trkpt>
      <trkpt lat="45.03238" lon="2.88088">
        <ele>1356</ele>
        <time>2016-12-30T13:49:25.008Z</time>
      </trkpt>
      <trkpt lat="45.0323" lon="2.88079">
        <ele>1356</ele>
        <time>2016-12-30T13:49:28.008Z</time>
      </trkpt>
      <trkpt lat="45.03224" lon="2.88081">
        <ele>1354</ele>
        <time>2016-12-30T13:49:44.008Z</time>
      </trkpt>
      <trkpt lat="45.03217" lon="2.88076">
        <ele>1354</ele>
        <time>2016-12-30T13:50:15.008Z</time>
      </trkpt>
      <trkpt lat="45.03209" lon="2.88069">
        <ele>1354</ele>
        <time>2016-12-30T13:50:18.008Z</time>
      </trkpt>
      <trkpt lat="45.03203" lon="2.88065">
        <ele>1354</ele>
        <time>2016-12-30T13:50:20.008Z</time>
      </trkpt>
      <trkpt lat="45.03195" lon="2.88059">
        <ele>1354</ele>
        <time>2016-12-30T13:50:23.008Z</time>
      </trkpt>
      <trkpt lat="45.03185" lon="2.88053">
        <ele>1354</ele>
        <time>2016-12-30T13:50:26.008Z</time>
      </trkpt>
      <trkpt lat="45.03173" lon="2.88047">
        <ele>1354</ele>
        <time>2016-12-30T13:50:29.008Z</time>
      </trkpt>
      <trkpt lat="45.03164" lon="2.88043">
        <ele>1354</ele>
        <time>2016-12-30T13:50:31.008Z</time>
      </trkpt>
      <trkpt lat="45.03154" lon="2.88039">
        <ele>1354</ele>
        <time>2016-12-30T13:50:33.008Z</time>
      </trkpt>
      <trkpt lat="45.03145" lon="2.88036">
        <ele>1354</ele>
        <time>2016-12-30T13:50:35.008Z</time>
      </trkpt>
      <trkpt lat="45.03136" lon="2.88035">
        <ele>1354</ele>
        <time>2016-12-30T13:50:37.008Z</time>
      </trkpt>
      <trkpt lat="45.03126" lon="2.88034">
        <ele>1353.1320047103</ele>
        <time>2016-12-30T13:50:40.008Z</time>
      </trkpt>
      <trkpt lat="45.03115" lon="2.88032">
        <ele>1353</ele>
        <time>2016-12-30T13:50:43.008Z</time>
      </trkpt>
      <trkpt lat="45.03108" lon="2.88032">
        <ele>1353</ele>
        <time>2016-12-30T13:50:45.008Z</time>
      </trkpt>
      <trkpt lat="45.03098" lon="2.88032">
        <ele>1353</ele>
        <time>2016-12-30T13:50:48.008Z</time>
      </trkpt>
      <trkpt lat="45.03088" lon="2.8803">
        <ele>1352.1405958914</ele>
        <time>2016-12-30T13:50:50.008Z</time>
      </trkpt>
      <trkpt lat="45.03079" lon="2.88028">
        <ele>1352</ele>
        <time>2016-12-30T13:50:52.008Z</time>
      </trkpt>
      <trkpt lat="45.03069" lon="2.88025">
        <ele>1352</ele>
        <time>2016-12-30T13:50:54.008Z</time>
      </trkpt>
      <trkpt lat="45.03059" lon="2.88024">
        <ele>1352</ele>
        <time>2016-12-30T13:50:56.008Z</time>
      </trkpt>
      <trkpt lat="45.0305" lon="2.88023">
        <ele>1352</ele>
        <time>2016-12-30T13:50:58.008Z</time>
      </trkpt>
      <trkpt lat="45.03037" lon="2.88023">
        <ele>1353</ele>
        <time>2016-12-30T13:51:01.008Z</time>
      </trkpt>
      <trkpt lat="45.03028" lon="2.88021">
        <ele>1353</ele>
        <time>2016-12-30T13:51:03.008Z</time>
      </trkpt>
      <trkpt lat="45.03019" lon="2.8802">
        <ele>1353</ele>
        <time>2016-12-30T13:51:05.008Z</time>
      </trkpt>
      <trkpt lat="45.03005" lon="2.88016">
        <ele>1353</ele>
        <time>2016-12-30T13:51:08.008Z</time>
      </trkpt>
      <trkpt lat="45.02993" lon="2.88013">
        <ele>1353</ele>
        <time>2016-12-30T13:51:11.008Z</time>
      </trkpt>
      <trkpt lat="45.02984" lon="2.88011">
        <ele>1353</ele>
        <time>2016-12-30T13:51:13.008Z</time>
      </trkpt>
      <trkpt lat="45.02974" lon="2.88008">
        <ele>1353</ele>
        <time>2016-12-30T13:51:15.008Z</time>
      </trkpt>
      <trkpt lat="45.02963" lon="2.88003">
        <ele>1353</ele>
        <time>2016-12-30T13:51:17.008Z</time>
      </trkpt>
      <trkpt lat="45.02953" lon="2.87998">
        <ele>1353</ele>
        <time>2016-12-30T13:51:19.008Z</time>
      </trkpt>
      <trkpt lat="45.02942" lon="2.87994">
        <ele>1352</ele>
        <time>2016-12-30T13:51:21.008Z</time>
      </trkpt>
      <trkpt lat="45.02933" lon="2.87989">
        <ele>1352</ele>
        <time>2016-12-30T13:51:23.008Z</time>
      </trkpt>
      <trkpt lat="45.02924" lon="2.87986">
        <ele>1352</ele>
        <time>2016-12-30T13:51:25.008Z</time>
      </trkpt>
      <trkpt lat="45.02916" lon="2.87982">
        <ele>1352</ele>
        <time>2016-12-30T13:51:27.008Z</time>
      </trkpt>
      <trkpt lat="45.02907" lon="2.87978">
        <ele>1352</ele>
        <time>2016-12-30T13:51:29.008Z</time>
      </trkpt>
      <trkpt lat="45.02899" lon="2.87973">
        <ele>1351</ele>
        <time>2016-12-30T13:51:31.008Z</time>
      </trkpt>
      <trkpt lat="45.02891" lon="2.87968">
        <ele>1351</ele>
        <time>2016-12-30T13:51:33.008Z</time>
      </trkpt>
      <trkpt lat="45.02883" lon="2.87963">
        <ele>1351</ele>
        <time>2016-12-30T13:51:35.008Z</time>
      </trkpt>
      <trkpt lat="45.02875" lon="2.87956">
        <ele>1351</ele>
        <time>2016-12-30T13:51:37.008Z</time>
      </trkpt>
      <trkpt lat="45.02866" lon="2.87949">
        <ele>1351</ele>
        <time>2016-12-30T13:51:39.008Z</time>
      </trkpt>
      <trkpt lat="45.02857" lon="2.87941">
        <ele>1350</ele>
        <time>2016-12-30T13:51:41.008Z</time>
      </trkpt>
      <trkpt lat="45.02847" lon="2.87932">
        <ele>1350</ele>
        <time>2016-12-30T13:51:43.008Z</time>
      </trkpt>
      <trkpt lat="45.02842" lon="2.87928">
        <ele>1350</ele>
        <time>2016-12-30T13:51:44.008Z</time>
      </trkpt>
      <trkpt lat="45.02837" lon="2.87923">
        <ele>1350</ele>
        <time>2016-12-30T13:51:45.008Z</time>
      </trkpt>
      <trkpt lat="45.0283" lon="2.87912">
        <ele>1350</ele>
        <time>2016-12-30T13:51:47.008Z</time>
      </trkpt>
      <trkpt lat="45.02824" lon="2.87903">
        <ele>1350</ele>
        <time>2016-12-30T13:51:49.008Z</time>
      </trkpt>
      <trkpt lat="45.02816" lon="2.879">
        <ele>1345</ele>
        <time>2016-12-30T13:51:52.008Z</time>
      </trkpt>
      <trkpt lat="45.02813" lon="2.87906">
        <ele>1342</ele>
        <time>2016-12-30T13:51:56.008Z</time>
      </trkpt>
      <trkpt lat="45.02813" lon="2.87916">
        <ele>1341</ele>
        <time>2016-12-30T13:52:03.008Z</time>
      </trkpt>
      <trkpt lat="45.0281" lon="2.87928">
        <ele>1341</ele>
        <time>2016-12-30T13:52:06.008Z</time>
      </trkpt>
      <trkpt lat="45.02808" lon="2.87939">
        <ele>1341</ele>
        <time>2016-12-30T13:52:08.008Z</time>
      </trkpt>
      <trkpt lat="45.02805" lon="2.87951">
        <ele>1341</ele>
        <time>2016-12-30T13:52:10.008Z</time>
      </trkpt>
      <trkpt lat="45.02802" lon="2.87959">
        <ele>1341</ele>
        <time>2016-12-30T13:52:11.008Z</time>
      </trkpt>
      <trkpt lat="45.028" lon="2.87967">
        <ele>1341</ele>
        <time>2016-12-30T13:52:12.008Z</time>
      </trkpt>
      <trkpt lat="45.02799" lon="2.87974">
        <ele>1341</ele>
        <time>2016-12-30T13:52:13.008Z</time>
      </trkpt>
      <trkpt lat="45.02794" lon="2.87991">
        <ele>1341</ele>
        <time>2016-12-30T13:52:15.008Z</time>
      </trkpt>
      <trkpt lat="45.02792" lon="2.88">
        <ele>1341</ele>
        <time>2016-12-30T13:52:16.008Z</time>
      </trkpt>
      <trkpt lat="45.0279" lon="2.8801">
        <ele>1341</ele>
        <time>2016-12-30T13:52:17.008Z</time>
      </trkpt>
      <trkpt lat="45.02785" lon="2.88031">
        <ele>1341</ele>
        <time>2016-12-30T13:52:19.008Z</time>
      </trkpt>
      <trkpt lat="45.02782" lon="2.88042">
        <ele>1337.5618281952</ele>
        <time>2016-12-30T13:52:20.008Z</time>
      </trkpt>
      <trkpt lat="45.0278" lon="2.88054">
        <ele>1337</ele>
        <time>2016-12-30T13:52:21.008Z</time>
      </trkpt>
      <trkpt lat="45.02774" lon="2.88077">
        <ele>1337</ele>
        <time>2016-12-30T13:52:23.008Z</time>
      </trkpt>
      <trkpt lat="45.02772" lon="2.88088">
        <ele>1337</ele>
        <time>2016-12-30T13:52:24.008Z</time>
      </trkpt>
      <trkpt lat="45.02769" lon="2.881">
        <ele>1333.5239808</ele>
        <time>2016-12-30T13:52:25.008Z</time>
      </trkpt>
      <trkpt lat="45.02766" lon="2.88111">
        <ele>1333</ele>
        <time>2016-12-30T13:52:26.008Z</time>
      </trkpt>
      <trkpt lat="45.02763" lon="2.88122">
        <ele>1333</ele>
        <time>2016-12-30T13:52:27.008Z</time>
      </trkpt>
      <trkpt lat="45.02761" lon="2.88133">
        <ele>1333</ele>
        <time>2016-12-30T13:52:28.008Z</time>
      </trkpt>
      <trkpt lat="45.02758" lon="2.88144">
        <ele>1333</ele>
        <time>2016-12-30T13:52:29.008Z</time>
      </trkpt>
      <trkpt lat="45.02756" lon="2.88155">
        <ele>1332.1309952</ele>
        <time>2016-12-30T13:52:30.008Z</time>
      </trkpt>
      <trkpt lat="45.02753" lon="2.88165">
        <ele>1332</ele>
        <time>2016-12-30T13:52:31.008Z</time>
      </trkpt>
      <trkpt lat="45.02751" lon="2.88176">
        <ele>1332</ele>
        <time>2016-12-30T13:52:32.008Z</time>
      </trkpt>
      <trkpt lat="45.02748" lon="2.88186">
        <ele>1332</ele>
        <time>2016-12-30T13:52:33.008Z</time>
      </trkpt>
      <trkpt lat="45.02746" lon="2.88196">
        <ele>1332</ele>
        <time>2016-12-30T13:52:34.008Z</time>
      </trkpt>
      <trkpt lat="45.02743" lon="2.88206">
        <ele>1330.2619904</ele>
        <time>2016-12-30T13:52:35.008Z</time>
      </trkpt>
      <trkpt lat="45.02741" lon="2.88216">
        <ele>1330</ele>
        <time>2016-12-30T13:52:36.008Z</time>
      </trkpt>
      <trkpt lat="45.02738" lon="2.88226">
        <ele>1330</ele>
        <time>2016-12-30T13:52:37.008Z</time>
      </trkpt>
      <trkpt lat="45.02736" lon="2.88236">
        <ele>1330</ele>
        <time>2016-12-30T13:52:38.008Z</time>
      </trkpt>
      <trkpt lat="45.02733" lon="2.88246">
        <ele>1330</ele>
        <time>2016-12-30T13:52:39.008Z</time>
      </trkpt>
      <trkpt lat="45.02731" lon="2.88256">
        <ele>1329.1309952</ele>
        <time>2016-12-30T13:52:40.008Z</time>
      </trkpt>
      <trkpt lat="45.02726" lon="2.88275">
        <ele>1329</ele>
        <time>2016-12-30T13:52:42.008Z</time>
      </trkpt>
      <trkpt lat="45.02724" lon="2.88284">
        <ele>1329</ele>
        <time>2016-12-30T13:52:43.008Z</time>
      </trkpt>
      <trkpt lat="45.02721" lon="2.88294">
        <ele>1329</ele>
        <time>2016-12-30T13:52:44.008Z</time>
      </trkpt>
      <trkpt lat="45.02719" lon="2.88303">
        <ele>1328.1324532453</ele>
        <time>2016-12-30T13:52:45.008Z</time>
      </trkpt>
      <trkpt lat="45.02717" lon="2.88313">
        <ele>1328</ele>
        <time>2016-12-30T13:52:46.008Z</time>
      </trkpt>
      <trkpt lat="45.02715" lon="2.88322">
        <ele>1328</ele>
        <time>2016-12-30T13:52:47.008Z</time>
      </trkpt>
      <trkpt lat="45.02712" lon="2.88332">
        <ele>1328</ele>
        <time>2016-12-30T13:52:48.008Z</time>
      </trkpt>
      <trkpt lat="45.0271" lon="2.88341">
        <ele>1328</ele>
        <time>2016-12-30T13:52:49.008Z</time>
      </trkpt>
      <trkpt lat="45.02707" lon="2.88351">
        <ele>1327.1404570488</ele>
        <time>2016-12-30T13:52:50.008Z</time>
      </trkpt>
      <trkpt lat="45.02705" lon="2.8836">
        <ele>1327</ele>
        <time>2016-12-30T13:52:51.008Z</time>
      </trkpt>
      <trkpt lat="45.02703" lon="2.8837">
        <ele>1327</ele>
        <time>2016-12-30T13:52:52.008Z</time>
      </trkpt>
      <trkpt lat="45.027" lon="2.8838">
        <ele>1327</ele>
        <time>2016-12-30T13:52:53.008Z</time>
      </trkpt>
      <trkpt lat="45.02697" lon="2.88389">
        <ele>1327</ele>
        <time>2016-12-30T13:52:54.008Z</time>
      </trkpt>
      <trkpt lat="45.02695" lon="2.88399">
        <ele>1327</ele>
        <time>2016-12-30T13:52:55.008Z</time>
      </trkpt>
      <trkpt lat="45.02692" lon="2.88408">
        <ele>1327</ele>
        <time>2016-12-30T13:52:56.008Z</time>
      </trkpt>
      <trkpt lat="45.0269" lon="2.88418">
        <ele>1327</ele>
        <time>2016-12-30T13:52:57.008Z</time>
      </trkpt>
      <trkpt lat="45.02688" lon="2.88427">
        <ele>1327</ele>
        <time>2016-12-30T13:52:58.008Z</time>
      </trkpt>
      <trkpt lat="45.02685" lon="2.88436">
        <ele>1327</ele>
        <time>2016-12-30T13:52:59.008Z</time>
      </trkpt>
      <trkpt lat="45.02683" lon="2.88446">
        <ele>1325.2619904</ele>
        <time>2016-12-30T13:53:00.008Z</time>
      </trkpt>
      <trkpt lat="45.02681" lon="2.88455">
        <ele>1325</ele>
        <time>2016-12-30T13:53:01.008Z</time>
      </trkpt>
      <trkpt lat="45.0268" lon="2.88464">
        <ele>1325</ele>
        <time>2016-12-30T13:53:02.008Z</time>
      </trkpt>
      <trkpt lat="45.02678" lon="2.88473">
        <ele>1325</ele>
        <time>2016-12-30T13:53:03.008Z</time>
      </trkpt>
      <trkpt lat="45.02675" lon="2.88483">
        <ele>1325</ele>
        <time>2016-12-30T13:53:04.008Z</time>
      </trkpt>
      <trkpt lat="45.02673" lon="2.88492">
        <ele>1325</ele>
        <time>2016-12-30T13:53:05.008Z</time>
      </trkpt>
      <trkpt lat="45.02671" lon="2.88501">
        <ele>1325</ele>
        <time>2016-12-30T13:53:06.008Z</time>
      </trkpt>
      <trkpt lat="45.02669" lon="2.8851">
        <ele>1325</ele>
        <time>2016-12-30T13:53:07.008Z</time>
      </trkpt>
      <trkpt lat="45.02667" lon="2.88518">
        <ele>1325</ele>
        <time>2016-12-30T13:53:08.008Z</time>
      </trkpt>
      <trkpt lat="45.02665" lon="2.88527">
        <ele>1325</ele>
        <time>2016-12-30T13:53:09.008Z</time>
      </trkpt>
      <trkpt lat="45.02663" lon="2.88536">
        <ele>1325</ele>
        <time>2016-12-30T13:53:10.008Z</time>
      </trkpt>
      <trkpt lat="45.02661" lon="2.88544">
        <ele>1325</ele>
        <time>2016-12-30T13:53:11.008Z</time>
      </trkpt>
      <trkpt lat="45.02659" lon="2.88553">
        <ele>1325</ele>
        <time>2016-12-30T13:53:12.008Z</time>
      </trkpt>
      <trkpt lat="45.02657" lon="2.88561">
        <ele>1325</ele>
        <time>2016-12-30T13:53:13.008Z</time>
      </trkpt>
      <trkpt lat="45.02655" lon="2.8857">
        <ele>1325</ele>
        <time>2016-12-30T13:53:14.008Z</time>
      </trkpt>
      <trkpt lat="45.02653" lon="2.88578">
        <ele>1325</ele>
        <time>2016-12-30T13:53:15.008Z</time>
      </trkpt>
      <trkpt lat="45.02649" lon="2.88595">
        <ele>1325</ele>
        <time>2016-12-30T13:53:17.008Z</time>
      </trkpt>
      <trkpt lat="45.02647" lon="2.88603">
        <ele>1325</ele>
        <time>2016-12-30T13:53:18.008Z</time>
      </trkpt>
      <trkpt lat="45.02645" lon="2.88611">
        <ele>1325</ele>
        <time>2016-12-30T13:53:19.008Z</time>
      </trkpt>
      <trkpt lat="45.02643" lon="2.88618">
        <ele>1324.1404570488</ele>
        <time>2016-12-30T13:53:20.008Z</time>
      </trkpt>
      <trkpt lat="45.02639" lon="2.88634">
        <ele>1324</ele>
        <time>2016-12-30T13:53:22.008Z</time>
      </trkpt>
      <trkpt lat="45.02635" lon="2.88648">
        <ele>1324</ele>
        <time>2016-12-30T13:53:24.008Z</time>
      </trkpt>
      <trkpt lat="45.02631" lon="2.88663">
        <ele>1324</ele>
        <time>2016-12-30T13:53:26.008Z</time>
      </trkpt>
      <trkpt lat="45.02629" lon="2.8867">
        <ele>1324</ele>
        <time>2016-12-30T13:53:27.008Z</time>
      </trkpt>
      <trkpt lat="45.02627" lon="2.88677">
        <ele>1324</ele>
        <time>2016-12-30T13:53:28.008Z</time>
      </trkpt>
      <trkpt lat="45.02623" lon="2.88691">
        <ele>1323.1404570488</ele>
        <time>2016-12-30T13:53:30.008Z</time>
      </trkpt>
      <trkpt lat="45.02619" lon="2.88707">
        <ele>1323</ele>
        <time>2016-12-30T13:53:32.008Z</time>
      </trkpt>
      <trkpt lat="45.02617" lon="2.88715">
        <ele>1323</ele>
        <time>2016-12-30T13:53:33.008Z</time>
      </trkpt>
      <trkpt lat="45.02613" lon="2.88732">
        <ele>1323</ele>
        <time>2016-12-30T13:53:35.008Z</time>
      </trkpt>
      <trkpt lat="45.02611" lon="2.8874">
        <ele>1323</ele>
        <time>2016-12-30T13:53:36.008Z</time>
      </trkpt>
      <trkpt lat="45.02606" lon="2.88757">
        <ele>1323</ele>
        <time>2016-12-30T13:53:38.008Z</time>
      </trkpt>
      <trkpt lat="45.02602" lon="2.88773">
        <ele>1322.1309952</ele>
        <time>2016-12-30T13:53:40.008Z</time>
      </trkpt>
      <trkpt lat="45.02599" lon="2.88789">
        <ele>1322</ele>
        <time>2016-12-30T13:53:42.008Z</time>
      </trkpt>
      <trkpt lat="45.02597" lon="2.88797">
        <ele>1322</ele>
        <time>2016-12-30T13:53:43.008Z</time>
      </trkpt>
      <trkpt lat="45.02593" lon="2.88812">
        <ele>1322</ele>
        <time>2016-12-30T13:53:45.008Z</time>
      </trkpt>
      <trkpt lat="45.0259" lon="2.88827">
        <ele>1322</ele>
        <time>2016-12-30T13:53:47.008Z</time>
      </trkpt>
      <trkpt lat="45.02586" lon="2.88842">
        <ele>1322</ele>
        <time>2016-12-30T13:53:49.008Z</time>
      </trkpt>
      <trkpt lat="45.02582" lon="2.88856">
        <ele>1321</ele>
        <time>2016-12-30T13:53:51.008Z</time>
      </trkpt>
      <trkpt lat="45.02581" lon="2.88862">
        <ele>1321</ele>
        <time>2016-12-30T13:53:52.008Z</time>
      </trkpt>
      <trkpt lat="45.02576" lon="2.88882">
        <ele>1321</ele>
        <time>2016-12-30T13:53:55.008Z</time>
      </trkpt>
      <trkpt lat="45.02574" lon="2.88894">
        <ele>1321</ele>
        <time>2016-12-30T13:53:57.008Z</time>
      </trkpt>
      <trkpt lat="45.0257" lon="2.88906">
        <ele>1321</ele>
        <time>2016-12-30T13:53:59.008Z</time>
      </trkpt>
      <trkpt lat="45.02567" lon="2.88919">
        <ele>1324</ele>
        <time>2016-12-30T13:54:01.008Z</time>
      </trkpt>
      <trkpt lat="45.02564" lon="2.88933">
        <ele>1324</ele>
        <time>2016-12-30T13:54:03.008Z</time>
      </trkpt>
      <trkpt lat="45.02561" lon="2.88947">
        <ele>1324.8690048</ele>
        <time>2016-12-30T13:54:05.008Z</time>
      </trkpt>
      <trkpt lat="45.02558" lon="2.8896">
        <ele>1325</ele>
        <time>2016-12-30T13:54:07.008Z</time>
      </trkpt>
      <trkpt lat="45.02554" lon="2.88974">
        <ele>1325</ele>
        <time>2016-12-30T13:54:09.008Z</time>
      </trkpt>
      <trkpt lat="45.02551" lon="2.88987">
        <ele>1325</ele>
        <time>2016-12-30T13:54:11.008Z</time>
      </trkpt>
      <trkpt lat="45.02547" lon="2.89">
        <ele>1325</ele>
        <time>2016-12-30T13:54:13.008Z</time>
      </trkpt>
      <trkpt lat="45.02543" lon="2.89014">
        <ele>1325</ele>
        <time>2016-12-30T13:54:15.008Z</time>
      </trkpt>
      <trkpt lat="45.02538" lon="2.89027">
        <ele>1325</ele>
        <time>2016-12-30T13:54:17.008Z</time>
      </trkpt>
      <trkpt lat="45.02533" lon="2.89041">
        <ele>1325</ele>
        <time>2016-12-30T13:54:19.008Z</time>
      </trkpt>
      <trkpt lat="45.02525" lon="2.89054">
        <ele>1323</ele>
        <time>2016-12-30T13:54:21.008Z</time>
      </trkpt>
      <trkpt lat="45.02517" lon="2.89068">
        <ele>1323</ele>
        <time>2016-12-30T13:54:23.008Z</time>
      </trkpt>
      <trkpt lat="45.02512" lon="2.89075">
        <ele>1323</ele>
        <time>2016-12-30T13:54:24.008Z</time>
      </trkpt>
      <trkpt lat="45.02507" lon="2.89082">
        <ele>1323</ele>
        <time>2016-12-30T13:54:25.008Z</time>
      </trkpt>
      <trkpt lat="45.02501" lon="2.89089">
        <ele>1323</ele>
        <time>2016-12-30T13:54:26.008Z</time>
      </trkpt>
      <trkpt lat="45.02496" lon="2.89096">
        <ele>1323</ele>
        <time>2016-12-30T13:54:27.008Z</time>
      </trkpt>
      <trkpt lat="45.02489" lon="2.89102">
        <ele>1323</ele>
        <time>2016-12-30T13:54:28.008Z</time>
      </trkpt>
      <trkpt lat="45.02476" lon="2.8911">
        <ele>1317.7859712</ele>
        <time>2016-12-30T13:54:30.008Z</time>
      </trkpt>
      <trkpt lat="45.02462" lon="2.89115">
        <ele>1312.2809140976</ele>
        <time>2016-12-30T13:54:32.008Z</time>
      </trkpt>
      <trkpt lat="45.02449" lon="2.89122">
        <ele>1310.1309952</ele>
        <time>2016-12-30T13:54:34.008Z</time>
      </trkpt>
      <trkpt lat="45.02439" lon="2.89134">
        <ele>1309.1404570488</ele>
        <time>2016-12-30T13:54:36.008Z</time>
      </trkpt>
      <trkpt lat="45.02434" lon="2.89153">
        <ele>1308.1404570488</ele>
        <time>2016-12-30T13:54:38.008Z</time>
      </trkpt>
      <trkpt lat="45.02431" lon="2.89175">
        <ele>1305.1309952</ele>
        <time>2016-12-30T13:54:40.008Z</time>
      </trkpt>
      <trkpt lat="45.02431" lon="2.89186">
        <ele>1304.1309952</ele>
        <time>2016-12-30T13:54:41.008Z</time>
      </trkpt>
      <trkpt lat="45.0243" lon="2.89196">
        <ele>1303.1309952</ele>
        <time>2016-12-30T13:54:42.008Z</time>
      </trkpt>
      <trkpt lat="45.02429" lon="2.89207">
        <ele>1302.1309952</ele>
        <time>2016-12-30T13:54:43.008Z</time>
      </trkpt>
      <trkpt lat="45.02429" lon="2.89219">
        <ele>1301.1404570488</ele>
        <time>2016-12-30T13:54:44.008Z</time>
      </trkpt>
      <trkpt lat="45.02428" lon="2.89246">
        <ele>1300.1309952</ele>
        <time>2016-12-30T13:54:46.008Z</time>
      </trkpt>
      <trkpt lat="45.02428" lon="2.8926">
        <ele>1299.1309952</ele>
        <time>2016-12-30T13:54:47.008Z</time>
      </trkpt>
      <trkpt lat="45.02427" lon="2.89275">
        <ele>1298.1309952</ele>
        <time>2016-12-30T13:54:48.008Z</time>
      </trkpt>
      <trkpt lat="45.02427" lon="2.89291">
        <ele>1296.2619904</ele>
        <time>2016-12-30T13:54:49.008Z</time>
      </trkpt>
      <trkpt lat="45.02427" lon="2.89306">
        <ele>1295.1404570488</ele>
        <time>2016-12-30T13:54:50.008Z</time>
      </trkpt>
      <trkpt lat="45.02426" lon="2.89322">
        <ele>1294.1324532453</ele>
        <time>2016-12-30T13:54:51.008Z</time>
      </trkpt>
      <trkpt lat="45.02424" lon="2.89338">
        <ele>1294</ele>
        <time>2016-12-30T13:54:52.008Z</time>
      </trkpt>
      <trkpt lat="45.02418" lon="2.8937">
        <ele>1292.1309952</ele>
        <time>2016-12-30T13:54:54.008Z</time>
      </trkpt>
      <trkpt lat="45.02415" lon="2.89386">
        <ele>1291.1309952</ele>
        <time>2016-12-30T13:54:55.008Z</time>
      </trkpt>
      <trkpt lat="45.02412" lon="2.89401">
        <ele>1291</ele>
        <time>2016-12-30T13:54:56.008Z</time>
      </trkpt>
      <trkpt lat="45.02409" lon="2.89416">
        <ele>1290.1324532453</ele>
        <time>2016-12-30T13:54:57.008Z</time>
      </trkpt>
      <trkpt lat="45.02405" lon="2.89447">
        <ele>1289</ele>
        <time>2016-12-30T13:54:59.008Z</time>
      </trkpt>
      <trkpt lat="45.02404" lon="2.89461">
        <ele>1288.1309952</ele>
        <time>2016-12-30T13:55:00.008Z</time>
      </trkpt>
      <trkpt lat="45.02403" lon="2.89476">
        <ele>1288</ele>
        <time>2016-12-30T13:55:01.008Z</time>
      </trkpt>
      <trkpt lat="45.02402" lon="2.89504">
        <ele>1288</ele>
        <time>2016-12-30T13:55:03.008Z</time>
      </trkpt>
      <trkpt lat="45.02403" lon="2.89518">
        <ele>1287.1309952</ele>
        <time>2016-12-30T13:55:04.008Z</time>
      </trkpt>
      <trkpt lat="45.02407" lon="2.89543">
        <ele>1286</ele>
        <time>2016-12-30T13:55:06.008Z</time>
      </trkpt>
      <trkpt lat="45.02409" lon="2.89555">
        <ele>1286</ele>
        <time>2016-12-30T13:55:07.008Z</time>
      </trkpt>
      <trkpt lat="45.02412" lon="2.89567">
        <ele>1286</ele>
        <time>2016-12-30T13:55:08.008Z</time>
      </trkpt>
      <trkpt lat="45.02414" lon="2.89579">
        <ele>1286</ele>
        <time>2016-12-30T13:55:09.008Z</time>
      </trkpt>
      <trkpt lat="45.02416" lon="2.8959">
        <ele>1285.1309952</ele>
        <time>2016-12-30T13:55:10.008Z</time>
      </trkpt>
      <trkpt lat="45.02417" lon="2.89602">
        <ele>1285</ele>
        <time>2016-12-30T13:55:11.008Z</time>
      </trkpt>
      <trkpt lat="45.02418" lon="2.89614">
        <ele>1285</ele>
        <time>2016-12-30T13:55:12.008Z</time>
      </trkpt>
      <trkpt lat="45.02418" lon="2.89625">
        <ele>1285</ele>
        <time>2016-12-30T13:55:13.008Z</time>
      </trkpt>
      <trkpt lat="45.02419" lon="2.89643">
        <ele>1282.4014172899</ele>
        <time>2016-12-30T13:55:15.008Z</time>
      </trkpt>
      <trkpt lat="45.02419" lon="2.89651">
        <ele>1282</ele>
        <time>2016-12-30T13:55:16.008Z</time>
      </trkpt>
      <trkpt lat="45.02419" lon="2.89659">
        <ele>1282</ele>
        <time>2016-12-30T13:55:17.008Z</time>
      </trkpt>
      <trkpt lat="45.02419" lon="2.89668">
        <ele>1282</ele>
        <time>2016-12-30T13:55:18.008Z</time>
      </trkpt>
      <trkpt lat="45.02415" lon="2.89685">
        <ele>1279.4213711464</ele>
        <time>2016-12-30T13:55:20.008Z</time>
      </trkpt>
      <trkpt lat="45.02412" lon="2.89702">
        <ele>1277.1309952</ele>
        <time>2016-12-30T13:55:22.008Z</time>
      </trkpt>
      <trkpt lat="45.02411" lon="2.89722">
        <ele>1275.1309952</ele>
        <time>2016-12-30T13:55:24.008Z</time>
      </trkpt>
      <trkpt lat="45.02412" lon="2.89732">
        <ele>1275</ele>
        <time>2016-12-30T13:55:25.008Z</time>
      </trkpt>
      <trkpt lat="45.02413" lon="2.89748">
        <ele>1273.2666563231</ele>
        <time>2016-12-30T13:55:27.008Z</time>
      </trkpt>
      <trkpt lat="45.02413" lon="2.89757">
        <ele>1272.1320047103</ele>
        <time>2016-12-30T13:55:28.008Z</time>
      </trkpt>
      <trkpt lat="45.02409" lon="2.89774">
        <ele>1271.1320047103</ele>
        <time>2016-12-30T13:55:30.008Z</time>
      </trkpt>
      <trkpt lat="45.02406" lon="2.89783">
        <ele>1270.1319952895</ele>
        <time>2016-12-30T13:55:31.008Z</time>
      </trkpt>
      <trkpt lat="45.02403" lon="2.89793">
        <ele>1269.1405958914</ele>
        <time>2016-12-30T13:55:32.008Z</time>
      </trkpt>
      <trkpt lat="45.02401" lon="2.89804">
        <ele>1268.1333281616</ele>
        <time>2016-12-30T13:55:33.008Z</time>
      </trkpt>
      <trkpt lat="45.024" lon="2.89814">
        <ele>1267.1320047103</ele>
        <time>2016-12-30T13:55:34.008Z</time>
      </trkpt>
      <trkpt lat="45.024" lon="2.89825">
        <ele>1267</ele>
        <time>2016-12-30T13:55:35.008Z</time>
      </trkpt>
      <trkpt lat="45.02401" lon="2.89835">
        <ele>1266.1320047103</ele>
        <time>2016-12-30T13:55:36.008Z</time>
      </trkpt>
      <trkpt lat="45.02401" lon="2.89845">
        <ele>1265.1319952895</ele>
        <time>2016-12-30T13:55:37.008Z</time>
      </trkpt>
      <trkpt lat="45.02402" lon="2.89862">
        <ele>1264.1333281616</ele>
        <time>2016-12-30T13:55:39.008Z</time>
      </trkpt>
      <trkpt lat="45.02394" lon="2.89878">
        <ele>1262</ele>
        <time>2016-12-30T13:55:42.008Z</time>
      </trkpt>
      <trkpt lat="45.02381" lon="2.89873">
        <ele>1260.1333281616</ele>
        <time>2016-12-30T13:55:45.008Z</time>
      </trkpt>
      <trkpt lat="45.02375" lon="2.89862">
        <ele>1259</ele>
        <time>2016-12-30T13:55:47.008Z</time>
      </trkpt>
      <trkpt lat="45.02369" lon="2.8985">
        <ele>1260</ele>
        <time>2016-12-30T13:55:49.008Z</time>
      </trkpt>
      <trkpt lat="45.02364" lon="2.89837">
        <ele>1260</ele>
        <time>2016-12-30T13:55:51.008Z</time>
      </trkpt>
      <trkpt lat="45.02359" lon="2.89824">
        <ele>1260</ele>
        <time>2016-12-30T13:55:53.008Z</time>
      </trkpt>
      <trkpt lat="45.02354" lon="2.89812">
        <ele>1260</ele>
        <time>2016-12-30T13:55:55.008Z</time>
      </trkpt>
      <trkpt lat="45.02347" lon="2.898">
        <ele>1260</ele>
        <time>2016-12-30T13:55:57.008Z</time>
      </trkpt>
      <trkpt lat="45.0234" lon="2.89787">
        <ele>1260</ele>
        <time>2016-12-30T13:55:59.008Z</time>
      </trkpt>
      <trkpt lat="45.02337" lon="2.89781">
        <ele>1258.2640094207</ele>
        <time>2016-12-30T13:56:00.008Z</time>
      </trkpt>
      <trkpt lat="45.02331" lon="2.89767">
        <ele>1258</ele>
        <time>2016-12-30T13:56:02.008Z</time>
      </trkpt>
      <trkpt lat="45.02327" lon="2.89752">
        <ele>1258</ele>
        <time>2016-12-30T13:56:04.008Z</time>
      </trkpt>
      <trkpt lat="45.02323" lon="2.89737">
        <ele>1258</ele>
        <time>2016-12-30T13:56:06.008Z</time>
      </trkpt>
      <trkpt lat="45.02319" lon="2.89722">
        <ele>1258</ele>
        <time>2016-12-30T13:56:08.008Z</time>
      </trkpt>
      <trkpt lat="45.02316" lon="2.89715">
        <ele>1258</ele>
        <time>2016-12-30T13:56:09.008Z</time>
      </trkpt>
      <trkpt lat="45.02313" lon="2.89707">
        <ele>1258</ele>
        <time>2016-12-30T13:56:10.008Z</time>
      </trkpt>
      <trkpt lat="45.0231" lon="2.897">
        <ele>1258</ele>
        <time>2016-12-30T13:56:11.008Z</time>
      </trkpt>
      <trkpt lat="45.02303" lon="2.89686">
        <ele>1258</ele>
        <time>2016-12-30T13:56:13.008Z</time>
      </trkpt>
      <trkpt lat="45.02294" lon="2.89673">
        <ele>1258</ele>
        <time>2016-12-30T13:56:15.008Z</time>
      </trkpt>
      <trkpt lat="45.02281" lon="2.89663">
        <ele>1258</ele>
        <time>2016-12-30T13:56:17.008Z</time>
      </trkpt>
      <trkpt lat="45.02274" lon="2.89659">
        <ele>1258</ele>
        <time>2016-12-30T13:56:18.008Z</time>
      </trkpt>
      <trkpt lat="45.02267" lon="2.89656">
        <ele>1258</ele>
        <time>2016-12-30T13:56:19.008Z</time>
      </trkpt>
      <trkpt lat="45.0226" lon="2.89652">
        <ele>1253.7029794568</ele>
        <time>2016-12-30T13:56:20.008Z</time>
      </trkpt>
      <trkpt lat="45.02254" lon="2.89646">
        <ele>1253</ele>
        <time>2016-12-30T13:56:21.008Z</time>
      </trkpt>
      <trkpt lat="45.02249" lon="2.89638">
        <ele>1253</ele>
        <time>2016-12-30T13:56:22.008Z</time>
      </trkpt>
      <trkpt lat="45.02243" lon="2.89619">
        <ele>1253</ele>
        <time>2016-12-30T13:56:24.008Z</time>
      </trkpt>
      <trkpt lat="45.02237" lon="2.896">
        <ele>1251</ele>
        <time>2016-12-30T13:56:26.008Z</time>
      </trkpt>
      <trkpt lat="45.02229" lon="2.89584">
        <ele>1251</ele>
        <time>2016-12-30T13:56:28.008Z</time>
      </trkpt>
      <trkpt lat="45.02222" lon="2.89568">
        <ele>1251</ele>
        <time>2016-12-30T13:56:30.008Z</time>
      </trkpt>
      <trkpt lat="45.02214" lon="2.89551">
        <ele>1251</ele>
        <time>2016-12-30T13:56:32.008Z</time>
      </trkpt>
      <trkpt lat="45.02209" lon="2.89545">
        <ele>1251</ele>
        <time>2016-12-30T13:56:33.008Z</time>
      </trkpt>
      <trkpt lat="45.02205" lon="2.8954">
        <ele>1251</ele>
        <time>2016-12-30T13:56:34.008Z</time>
      </trkpt>
      <trkpt lat="45.022" lon="2.89536">
        <ele>1251</ele>
        <time>2016-12-30T13:56:35.008Z</time>
      </trkpt>
      <trkpt lat="45.02195" lon="2.89533">
        <ele>1251</ele>
        <time>2016-12-30T13:56:36.008Z</time>
      </trkpt>
      <trkpt lat="45.02192" lon="2.8953">
        <ele>1251</ele>
        <time>2016-12-30T13:56:37.008Z</time>
      </trkpt>
      <trkpt lat="45.02187" lon="2.89523">
        <ele>1251</ele>
        <time>2016-12-30T13:56:39.008Z</time>
      </trkpt>
      <trkpt lat="45.02184" lon="2.89516">
        <ele>1251</ele>
        <time>2016-12-30T13:56:41.008Z</time>
      </trkpt>
      <trkpt lat="45.02179" lon="2.8951">
        <ele>1251</ele>
        <time>2016-12-30T13:56:49.008Z</time>
      </trkpt>
      <trkpt lat="45.02177" lon="2.89502">
        <ele>1252</ele>
        <time>2016-12-30T13:57:36.008Z</time>
      </trkpt>
      <trkpt lat="45.02173" lon="2.89493">
        <ele>1253.7359905793</ele>
        <time>2016-12-30T13:57:40.008Z</time>
      </trkpt>
      <trkpt lat="45.02168" lon="2.89486">
        <ele>1254</ele>
        <time>2016-12-30T13:57:43.008Z</time>
      </trkpt>
      <trkpt lat="45.02164" lon="2.89478">
        <ele>1254</ele>
        <time>2016-12-30T13:57:46.008Z</time>
      </trkpt>
      <trkpt lat="45.02159" lon="2.89472">
        <ele>1254</ele>
        <time>2016-12-30T13:57:49.008Z</time>
      </trkpt>
      <trkpt lat="45.02153" lon="2.89465">
        <ele>1258</ele>
        <time>2016-12-30T13:57:53.008Z</time>
      </trkpt>
      <trkpt lat="45.02148" lon="2.89457">
        <ele>1261</ele>
        <time>2016-12-30T13:57:57.008Z</time>
      </trkpt>
      <trkpt lat="45.02143" lon="2.89451">
        <ele>1261.8679952897</ele>
        <time>2016-12-30T13:58:00.008Z</time>
      </trkpt>
      <trkpt lat="45.0214" lon="2.89446">
        <ele>1262</ele>
        <time>2016-12-30T13:58:03.008Z</time>
      </trkpt>
      <trkpt lat="45.02137" lon="2.89439">
        <ele>1262</ele>
        <time>2016-12-30T13:58:06.008Z</time>
      </trkpt>
      <trkpt lat="45.02134" lon="2.89437">
        <ele>1262</ele>
        <time>2016-12-30T13:58:08.008Z</time>
      </trkpt>
      <trkpt lat="45.0213" lon="2.89433">
        <ele>1264</ele>
        <time>2016-12-30T13:58:11.008Z</time>
      </trkpt>
      <trkpt lat="45.02126" lon="2.89429">
        <ele>1264</ele>
        <time>2016-12-30T13:58:14.008Z</time>
      </trkpt>
      <trkpt lat="45.02122" lon="2.89423">
        <ele>1266</ele>
        <time>2016-12-30T13:58:17.008Z</time>
      </trkpt>
      <trkpt lat="45.02118" lon="2.89419">
        <ele>1267.7188082173</ele>
        <time>2016-12-30T13:58:20.008Z</time>
      </trkpt>
      <trkpt lat="45.02114" lon="2.89416">
        <ele>1268</ele>
        <time>2016-12-30T13:58:23.008Z</time>
      </trkpt>
      <trkpt lat="45.02108" lon="2.89413">
        <ele>1269</ele>
        <time>2016-12-30T13:58:32.008Z</time>
      </trkpt>
      <trkpt lat="45.02103" lon="2.89408">
        <ele>1269</ele>
        <time>2016-12-30T13:58:39.008Z</time>
      </trkpt>
      <trkpt lat="45.02097" lon="2.89405">
        <ele>1271</ele>
        <time>2016-12-30T13:58:48.008Z</time>
      </trkpt>
      <trkpt lat="45.02092" lon="2.894">
        <ele>1273</ele>
        <time>2016-12-30T13:58:52.008Z</time>
      </trkpt>
      <trkpt lat="45.02087" lon="2.89397">
        <ele>1273</ele>
        <time>2016-12-30T13:58:56.008Z</time>
      </trkpt>
      <trkpt lat="45.02081" lon="2.89393">
        <ele>1276.4719811586</ele>
        <time>2016-12-30T13:59:00.008Z</time>
      </trkpt>
      <trkpt lat="45.02077" lon="2.89389">
        <ele>1277</ele>
        <time>2016-12-30T13:59:04.008Z</time>
      </trkpt>
      <trkpt lat="45.02073" lon="2.89386">
        <ele>1278</ele>
        <time>2016-12-30T13:59:07.008Z</time>
      </trkpt>
      <trkpt lat="45.02068" lon="2.89381">
        <ele>1279</ele>
        <time>2016-12-30T13:59:11.008Z</time>
      </trkpt>
      <trkpt lat="45.02062" lon="2.89379">
        <ele>1280.7333436769</ele>
        <time>2016-12-30T13:59:15.008Z</time>
      </trkpt>
      <trkpt lat="45.02056" lon="2.89373">
        <ele>1281</ele>
        <time>2016-12-30T13:59:19.008Z</time>
      </trkpt>
      <trkpt lat="45.02053" lon="2.8937">
        <ele>1281</ele>
        <time>2016-12-30T13:59:22.008Z</time>
      </trkpt>
      <trkpt lat="45.02049" lon="2.89367">
        <ele>1281</ele>
        <time>2016-12-30T13:59:26.008Z</time>
      </trkpt>
      <trkpt lat="45.02045" lon="2.89361">
        <ele>1282.7359905793</ele>
        <time>2016-12-30T13:59:30.008Z</time>
      </trkpt>
      <trkpt lat="45.02041" lon="2.89357">
        <ele>1283</ele>
        <time>2016-12-30T13:59:33.008Z</time>
      </trkpt>
      <trkpt lat="45.02036" lon="2.89354">
        <ele>1283</ele>
        <time>2016-12-30T13:59:36.008Z</time>
      </trkpt>
      <trkpt lat="45.02032" lon="2.89349">
        <ele>1283</ele>
        <time>2016-12-30T13:59:39.008Z</time>
      </trkpt>
      <trkpt lat="45.02028" lon="2.89346">
        <ele>1286</ele>
        <time>2016-12-30T13:59:42.008Z</time>
      </trkpt>
      <trkpt lat="45.02023" lon="2.89342">
        <ele>1287.7333436769</ele>
        <time>2016-12-30T13:59:45.008Z</time>
      </trkpt>
      <trkpt lat="45.02019" lon="2.89338">
        <ele>1288</ele>
        <time>2016-12-30T13:59:48.008Z</time>
      </trkpt>
      <trkpt lat="45.02015" lon="2.89333">
        <ele>1290</ele>
        <time>2016-12-30T13:59:51.008Z</time>
      </trkpt>
      <trkpt lat="45.02012" lon="2.89327">
        <ele>1290</ele>
        <time>2016-12-30T13:59:54.008Z</time>
      </trkpt>
      <trkpt lat="45.02009" lon="2.89322">
        <ele>1290</ele>
        <time>2016-12-30T13:59:57.008Z</time>
      </trkpt>
      <trkpt lat="45.02004" lon="2.89318">
        <ele>1291.7359905793</ele>
        <time>2016-12-30T14:00:00.008Z</time>
      </trkpt>
      <trkpt lat="45.02" lon="2.89314">
        <ele>1292</ele>
        <time>2016-12-30T14:00:03.008Z</time>
      </trkpt>
      <trkpt lat="45.01996" lon="2.8931">
        <ele>1292</ele>
        <time>2016-12-30T14:00:06.008Z</time>
      </trkpt>
      <trkpt lat="45.01992" lon="2.89305">
        <ele>1292</ele>
        <time>2016-12-30T14:00:09.008Z</time>
      </trkpt>
      <trkpt lat="45.01988" lon="2.893">
        <ele>1294</ele>
        <time>2016-12-30T14:00:12.008Z</time>
      </trkpt>
      <trkpt lat="45.01983" lon="2.89297">
        <ele>1294</ele>
        <time>2016-12-30T14:00:15.008Z</time>
      </trkpt>
      <trkpt lat="45.01979" lon="2.89293">
        <ele>1294</ele>
        <time>2016-12-30T14:00:18.008Z</time>
      </trkpt>
      <trkpt lat="45.01974" lon="2.89289">
        <ele>1296</ele>
        <time>2016-12-30T14:00:21.008Z</time>
      </trkpt>
      <trkpt lat="45.01969" lon="2.89285">
        <ele>1296</ele>
        <time>2016-12-30T14:00:24.008Z</time>
      </trkpt>
      <trkpt lat="45.01964" lon="2.8928">
        <ele>1298</ele>
        <time>2016-12-30T14:00:27.008Z</time>
      </trkpt>
      <trkpt lat="45.01959" lon="2.89274">
        <ele>1299</ele>
        <time>2016-12-30T14:00:31.008Z</time>
      </trkpt>
      <trkpt lat="45.01953" lon="2.89268">
        <ele>1299.8680047105</ele>
        <time>2016-12-30T14:00:35.008Z</time>
      </trkpt>
      <trkpt lat="45.01946" lon="2.89261">
        <ele>1300</ele>
        <time>2016-12-30T14:00:39.008Z</time>
      </trkpt>
      <trkpt lat="45.0194" lon="2.89255">
        <ele>1300</ele>
        <time>2016-12-30T14:00:43.008Z</time>
      </trkpt>
      <trkpt lat="45.01933" lon="2.89248">
        <ele>1300</ele>
        <time>2016-12-30T14:00:47.008Z</time>
      </trkpt>
      <trkpt lat="45.01926" lon="2.89241">
        <ele>1302</ele>
        <time>2016-12-30T14:00:51.008Z</time>
      </trkpt>
      <trkpt lat="45.01921" lon="2.89232">
        <ele>1302</ele>
        <time>2016-12-30T14:00:55.008Z</time>
      </trkpt>
      <trkpt lat="45.01916" lon="2.89225">
        <ele>1302</ele>
        <time>2016-12-30T14:00:59.008Z</time>
      </trkpt>
      <trkpt lat="45.01914" lon="2.8922">
        <ele>1303</ele>
        <time>2016-12-30T14:02:37.008Z</time>
      </trkpt>
      <trkpt lat="45.0191" lon="2.89211">
        <ele>1304</ele>
        <time>2016-12-30T14:03:19.008Z</time>
      </trkpt>
      <trkpt lat="45.01906" lon="2.89202">
        <ele>1304</ele>
        <time>2016-12-30T14:03:23.008Z</time>
      </trkpt>
      <trkpt lat="45.01904" lon="2.89199">
        <ele>1304</ele>
        <time>2016-12-30T14:04:07.008Z</time>
      </trkpt>
      <trkpt lat="45.019" lon="2.89189">
        <ele>1305</ele>
        <time>2016-12-30T14:04:46.008Z</time>
      </trkpt>
      <trkpt lat="45.01896" lon="2.8918">
        <ele>1305</ele>
        <time>2016-12-30T14:04:49.008Z</time>
      </trkpt>
      <trkpt lat="45.01892" lon="2.89171">
        <ele>1306</ele>
        <time>2016-12-30T14:04:52.008Z</time>
      </trkpt>
      <trkpt lat="45.01887" lon="2.89161">
        <ele>1306</ele>
        <time>2016-12-30T14:04:55.008Z</time>
      </trkpt>
      <trkpt lat="45.01882" lon="2.8915">
        <ele>1306</ele>
        <time>2016-12-30T14:04:58.008Z</time>
      </trkpt>
      <trkpt lat="45.01878" lon="2.8914">
        <ele>1306</ele>
        <time>2016-12-30T14:05:01.008Z</time>
      </trkpt>
      <trkpt lat="45.01872" lon="2.89131">
        <ele>1306</ele>
        <time>2016-12-30T14:05:04.008Z</time>
      </trkpt>
      <trkpt lat="45.01865" lon="2.89121">
        <ele>1306</ele>
        <time>2016-12-30T14:05:07.008Z</time>
      </trkpt>
      <trkpt lat="45.01858" lon="2.8911">
        <ele>1306</ele>
        <time>2016-12-30T14:05:10.008Z</time>
      </trkpt>
      <trkpt lat="45.01854" lon="2.89102">
        <ele>1306</ele>
        <time>2016-12-30T14:05:12.008Z</time>
      </trkpt>
      <trkpt lat="45.01848" lon="2.8909">
        <ele>1306</ele>
        <time>2016-12-30T14:05:15.008Z</time>
      </trkpt>
      <trkpt lat="45.01842" lon="2.89078">
        <ele>1306</ele>
        <time>2016-12-30T14:05:18.008Z</time>
      </trkpt>
      <trkpt lat="45.01836" lon="2.89068">
        <ele>1306</ele>
        <time>2016-12-30T14:05:21.008Z</time>
      </trkpt>
      <trkpt lat="45.01831" lon="2.89059">
        <ele>1306</ele>
        <time>2016-12-30T14:05:23.008Z</time>
      </trkpt>
      <trkpt lat="45.01824" lon="2.89052">
        <ele>1306</ele>
        <time>2016-12-30T14:05:26.008Z</time>
      </trkpt>
      <trkpt lat="45.01815" lon="2.89058">
        <ele>1306</ele>
        <time>2016-12-30T14:05:29.008Z</time>
      </trkpt>
      <trkpt lat="45.01812" lon="2.89068">
        <ele>1306</ele>
        <time>2016-12-30T14:05:31.008Z</time>
      </trkpt>
      <trkpt lat="45.01813" lon="2.89079">
        <ele>1306</ele>
        <time>2016-12-30T14:05:33.008Z</time>
      </trkpt>
      <trkpt lat="45.01814" lon="2.89094">
        <ele>1306</ele>
        <time>2016-12-30T14:05:36.008Z</time>
      </trkpt>
      <trkpt lat="45.01815" lon="2.89104">
        <ele>1306</ele>
        <time>2016-12-30T14:05:38.008Z</time>
      </trkpt>
      <trkpt lat="45.01815" lon="2.89115">
        <ele>1306</ele>
        <time>2016-12-30T14:05:40.008Z</time>
      </trkpt>
      <trkpt lat="45.01816" lon="2.89126">
        <ele>1306</ele>
        <time>2016-12-30T14:05:42.008Z</time>
      </trkpt>
      <trkpt lat="45.01816" lon="2.89137">
        <ele>1306</ele>
        <time>2016-12-30T14:05:44.008Z</time>
      </trkpt>
      <trkpt lat="45.01817" lon="2.89147">
        <ele>1306</ele>
        <time>2016-12-30T14:05:46.008Z</time>
      </trkpt>
      <trkpt lat="45.01817" lon="2.89158">
        <ele>1306</ele>
        <time>2016-12-30T14:05:48.008Z</time>
      </trkpt>
      <trkpt lat="45.01818" lon="2.8917">
        <ele>1306</ele>
        <time>2016-12-30T14:05:50.008Z</time>
      </trkpt>
      <trkpt lat="45.01819" lon="2.89183">
        <ele>1306</ele>
        <time>2016-12-30T14:05:52.008Z</time>
      </trkpt>
      <trkpt lat="45.01819" lon="2.89196">
        <ele>1306</ele>
        <time>2016-12-30T14:05:54.008Z</time>
      </trkpt>
      <trkpt lat="45.0182" lon="2.89209">
        <ele>1306</ele>
        <time>2016-12-30T14:05:56.008Z</time>
      </trkpt>
      <trkpt lat="45.01821" lon="2.89224">
        <ele>1306</ele>
        <time>2016-12-30T14:05:58.008Z</time>
      </trkpt>
      <trkpt lat="45.01823" lon="2.89241">
        <ele>1302.5280188414</ele>
        <time>2016-12-30T14:06:00.008Z</time>
      </trkpt>
      <trkpt lat="45.01824" lon="2.89251">
        <ele>1302</ele>
        <time>2016-12-30T14:06:01.008Z</time>
      </trkpt>
      <trkpt lat="45.01825" lon="2.89261">
        <ele>1302</ele>
        <time>2016-12-30T14:06:02.008Z</time>
      </trkpt>
      <trkpt lat="45.01826" lon="2.89272">
        <ele>1302</ele>
        <time>2016-12-30T14:06:03.008Z</time>
      </trkpt>
      <trkpt lat="45.01826" lon="2.89282">
        <ele>1302</ele>
        <time>2016-12-30T14:06:04.008Z</time>
      </trkpt>
      <trkpt lat="45.01827" lon="2.89293">
        <ele>1300.2639905791</ele>
        <time>2016-12-30T14:06:05.008Z</time>
      </trkpt>
      <trkpt lat="45.01825" lon="2.89316">
        <ele>1300</ele>
        <time>2016-12-30T14:06:07.008Z</time>
      </trkpt>
      <trkpt lat="45.01825" lon="2.89328">
        <ele>1300</ele>
        <time>2016-12-30T14:06:08.008Z</time>
      </trkpt>
      <trkpt lat="45.01824" lon="2.8934">
        <ele>1300</ele>
        <time>2016-12-30T14:06:09.008Z</time>
      </trkpt>
      <trkpt lat="45.01823" lon="2.89364">
        <ele>1295.1319952895</ele>
        <time>2016-12-30T14:06:11.008Z</time>
      </trkpt>
      <trkpt lat="45.01823" lon="2.8939">
        <ele>1294</ele>
        <time>2016-12-30T14:06:13.008Z</time>
      </trkpt>
      <trkpt lat="45.01823" lon="2.89403">
        <ele>1293.1405958914</ele>
        <time>2016-12-30T14:06:14.008Z</time>
      </trkpt>
      <trkpt lat="45.01825" lon="2.8943">
        <ele>1292</ele>
        <time>2016-12-30T14:06:16.008Z</time>
      </trkpt>
      <trkpt lat="45.01826" lon="2.89444">
        <ele>1291.1319952895</ele>
        <time>2016-12-30T14:06:17.008Z</time>
      </trkpt>
      <trkpt lat="45.01827" lon="2.89458">
        <ele>1289.2640094207</ele>
        <time>2016-12-30T14:06:18.008Z</time>
      </trkpt>
      <trkpt lat="45.01828" lon="2.89472">
        <ele>1288.1319952895</ele>
        <time>2016-12-30T14:06:19.008Z</time>
      </trkpt>
      <trkpt lat="45.0183" lon="2.89486">
        <ele>1288</ele>
        <time>2016-12-30T14:06:20.008Z</time>
      </trkpt>
      <trkpt lat="45.01832" lon="2.895">
        <ele>1287.1333281616</ele>
        <time>2016-12-30T14:06:21.008Z</time>
      </trkpt>
      <trkpt lat="45.01834" lon="2.89515">
        <ele>1286.1320047103</ele>
        <time>2016-12-30T14:06:22.008Z</time>
      </trkpt>
      <trkpt lat="45.01836" lon="2.8953">
        <ele>1285.1319952895</ele>
        <time>2016-12-30T14:06:23.008Z</time>
      </trkpt>
      <trkpt lat="45.01838" lon="2.89544">
        <ele>1284.1405958914</ele>
        <time>2016-12-30T14:06:24.008Z</time>
      </trkpt>
      <trkpt lat="45.0184" lon="2.89558">
        <ele>1283.1333281616</ele>
        <time>2016-12-30T14:06:25.008Z</time>
      </trkpt>
      <trkpt lat="45.01842" lon="2.89572">
        <ele>1282.1405958914</ele>
        <time>2016-12-30T14:06:26.008Z</time>
      </trkpt>
      <trkpt lat="45.01842" lon="2.89587">
        <ele>1282</ele>
        <time>2016-12-30T14:06:27.008Z</time>
      </trkpt>
      <trkpt lat="45.01842" lon="2.89601">
        <ele>1282</ele>
        <time>2016-12-30T14:06:28.008Z</time>
      </trkpt>
      <trkpt lat="45.01841" lon="2.89614">
        <ele>1281.1319952895</ele>
        <time>2016-12-30T14:06:29.008Z</time>
      </trkpt>
      <trkpt lat="45.0184" lon="2.89628">
        <ele>1279.2640094207</ele>
        <time>2016-12-30T14:06:30.008Z</time>
      </trkpt>
      <trkpt lat="45.01839" lon="2.89642">
        <ele>1278.1319952895</ele>
        <time>2016-12-30T14:06:31.008Z</time>
      </trkpt>
      <trkpt lat="45.01839" lon="2.89655">
        <ele>1278</ele>
        <time>2016-12-30T14:06:32.008Z</time>
      </trkpt>
      <trkpt lat="45.01839" lon="2.89669">
        <ele>1278</ele>
        <time>2016-12-30T14:06:33.008Z</time>
      </trkpt>
      <trkpt lat="45.01839" lon="2.89682">
        <ele>1278</ele>
        <time>2016-12-30T14:06:34.008Z</time>
      </trkpt>
      <trkpt lat="45.0184" lon="2.89695">
        <ele>1277.1319952895</ele>
        <time>2016-12-30T14:06:35.008Z</time>
      </trkpt>
      <trkpt lat="45.01842" lon="2.89708">
        <ele>1277</ele>
        <time>2016-12-30T14:06:36.008Z</time>
      </trkpt>
      <trkpt lat="45.01843" lon="2.8972">
        <ele>1277</ele>
        <time>2016-12-30T14:06:37.008Z</time>
      </trkpt>
      <trkpt lat="45.01845" lon="2.89746">
        <ele>1275.1333281616</ele>
        <time>2016-12-30T14:06:39.008Z</time>
      </trkpt>
      <trkpt lat="45.01845" lon="2.89759">
        <ele>1275</ele>
        <time>2016-12-30T14:06:40.008Z</time>
      </trkpt>
      <trkpt lat="45.01845" lon="2.89785">
        <ele>1275</ele>
        <time>2016-12-30T14:06:42.008Z</time>
      </trkpt>
      <trkpt lat="45.01845" lon="2.89798">
        <ele>1275</ele>
        <time>2016-12-30T14:06:43.008Z</time>
      </trkpt>
      <trkpt lat="45.01846" lon="2.8981">
        <ele>1275</ele>
        <time>2016-12-30T14:06:44.008Z</time>
      </trkpt>
      <trkpt lat="45.01847" lon="2.89822">
        <ele>1273.2666563231</ele>
        <time>2016-12-30T14:06:45.008Z</time>
      </trkpt>
      <trkpt lat="45.01847" lon="2.89835">
        <ele>1273</ele>
        <time>2016-12-30T14:06:46.008Z</time>
      </trkpt>
      <trkpt lat="45.01848" lon="2.89846">
        <ele>1273</ele>
        <time>2016-12-30T14:06:47.008Z</time>
      </trkpt>
      <trkpt lat="45.01848" lon="2.89858">
        <ele>1273</ele>
        <time>2016-12-30T14:06:48.008Z</time>
      </trkpt>
      <trkpt lat="45.01849" lon="2.8987">
        <ele>1273</ele>
        <time>2016-12-30T14:06:49.008Z</time>
      </trkpt>
      <trkpt lat="45.0185" lon="2.89881">
        <ele>1270.4217876741</ele>
        <time>2016-12-30T14:06:50.008Z</time>
      </trkpt>
      <trkpt lat="45.01851" lon="2.89893">
        <ele>1270</ele>
        <time>2016-12-30T14:06:51.008Z</time>
      </trkpt>
      <trkpt lat="45.01851" lon="2.89904">
        <ele>1270</ele>
        <time>2016-12-30T14:06:52.008Z</time>
      </trkpt>
      <trkpt lat="45.01852" lon="2.89916">
        <ele>1270</ele>
        <time>2016-12-30T14:06:53.008Z</time>
      </trkpt>
      <trkpt lat="45.01854" lon="2.89927">
        <ele>1270</ele>
        <time>2016-12-30T14:06:54.008Z</time>
      </trkpt>
      <trkpt lat="45.01855" lon="2.89938">
        <ele>1267.3959858686</ele>
        <time>2016-12-30T14:06:55.008Z</time>
      </trkpt>
      <trkpt lat="45.01856" lon="2.8995">
        <ele>1267</ele>
        <time>2016-12-30T14:06:56.008Z</time>
      </trkpt>
      <trkpt lat="45.01857" lon="2.89972">
        <ele>1267</ele>
        <time>2016-12-30T14:06:58.008Z</time>
      </trkpt>
      <trkpt lat="45.01858" lon="2.89983">
        <ele>1267</ele>
        <time>2016-12-30T14:06:59.008Z</time>
      </trkpt>
      <trkpt lat="45.01858" lon="2.89993">
        <ele>1264.396014131</ele>
        <time>2016-12-30T14:07:00.008Z</time>
      </trkpt>
      <trkpt lat="45.01859" lon="2.90013">
        <ele>1264</ele>
        <time>2016-12-30T14:07:02.008Z</time>
      </trkpt>
      <trkpt lat="45.01859" lon="2.90023">
        <ele>1263.1333281616</ele>
        <time>2016-12-30T14:07:03.008Z</time>
      </trkpt>
      <trkpt lat="45.01859" lon="2.90033">
        <ele>1263</ele>
        <time>2016-12-30T14:07:04.008Z</time>
      </trkpt>
      <trkpt lat="45.01859" lon="2.90049">
        <ele>1262.1320047103</ele>
        <time>2016-12-30T14:07:06.008Z</time>
      </trkpt>
      <trkpt lat="45.01858" lon="2.90056">
        <ele>1262</ele>
        <time>2016-12-30T14:07:07.008Z</time>
      </trkpt>
      <trkpt lat="45.01856" lon="2.90063">
        <ele>1262</ele>
        <time>2016-12-30T14:07:08.008Z</time>
      </trkpt>
      <trkpt lat="45.01853" lon="2.90068">
        <ele>1261.1333281616</ele>
        <time>2016-12-30T14:07:09.008Z</time>
      </trkpt>
      <trkpt lat="45.01849" lon="2.90072">
        <ele>1261</ele>
        <time>2016-12-30T14:07:10.008Z</time>
      </trkpt>
      <trkpt lat="45.01845" lon="2.90076">
        <ele>1261</ele>
        <time>2016-12-30T14:07:11.008Z</time>
      </trkpt>
      <trkpt lat="45.01841" lon="2.90079">
        <ele>1261</ele>
        <time>2016-12-30T14:07:12.008Z</time>
      </trkpt>
      <trkpt lat="45.01835" lon="2.90085">
        <ele>1261</ele>
        <time>2016-12-30T14:07:14.008Z</time>
      </trkpt>
      <trkpt lat="45.01827" lon="2.90094">
        <ele>1260</ele>
        <time>2016-12-30T14:07:16.008Z</time>
      </trkpt>
      <trkpt lat="45.01823" lon="2.90099">
        <ele>1260</ele>
        <time>2016-12-30T14:07:17.008Z</time>
      </trkpt>
      <trkpt lat="45.01818" lon="2.90105">
        <ele>1260</ele>
        <time>2016-12-30T14:07:18.008Z</time>
      </trkpt>
      <trkpt lat="45.01813" lon="2.90109">
        <ele>1260</ele>
        <time>2016-12-30T14:07:19.008Z</time>
      </trkpt>
      <trkpt lat="45.01808" lon="2.90111">
        <ele>1257.4217876741</ele>
        <time>2016-12-30T14:07:20.008Z</time>
      </trkpt>
      <trkpt lat="45.01802" lon="2.90109">
        <ele>1257</ele>
        <time>2016-12-30T14:07:21.008Z</time>
      </trkpt>
      <trkpt lat="45.01797" lon="2.90106">
        <ele>1257</ele>
        <time>2016-12-30T14:07:22.008Z</time>
      </trkpt>
      <trkpt lat="45.01786" lon="2.90098">
        <ele>1257</ele>
        <time>2016-12-30T14:07:24.008Z</time>
      </trkpt>
      <trkpt lat="45.01779" lon="2.90095">
        <ele>1256.1319952895</ele>
        <time>2016-12-30T14:07:25.008Z</time>
      </trkpt>
      <trkpt lat="45.01766" lon="2.90095">
        <ele>1256</ele>
        <time>2016-12-30T14:07:27.008Z</time>
      </trkpt>
      <trkpt lat="45.01759" lon="2.90095">
        <ele>1256</ele>
        <time>2016-12-30T14:07:28.008Z</time>
      </trkpt>
      <trkpt lat="45.01752" lon="2.90097">
        <ele>1256</ele>
        <time>2016-12-30T14:07:29.008Z</time>
      </trkpt>
      <trkpt lat="45.01745" lon="2.90098">
        <ele>1255.1320047103</ele>
        <time>2016-12-30T14:07:30.008Z</time>
      </trkpt>
      <trkpt lat="45.01732" lon="2.90104">
        <ele>1255</ele>
        <time>2016-12-30T14:07:32.008Z</time>
      </trkpt>
      <trkpt lat="45.01725" lon="2.90107">
        <ele>1255</ele>
        <time>2016-12-30T14:07:33.008Z</time>
      </trkpt>
      <trkpt lat="45.01719" lon="2.90111">
        <ele>1255</ele>
        <time>2016-12-30T14:07:34.008Z</time>
      </trkpt>
      <trkpt lat="45.01713" lon="2.90115">
        <ele>1255</ele>
        <time>2016-12-30T14:07:35.008Z</time>
      </trkpt>
      <trkpt lat="45.01708" lon="2.90119">
        <ele>1255</ele>
        <time>2016-12-30T14:07:36.008Z</time>
      </trkpt>
      <trkpt lat="45.01702" lon="2.90123">
        <ele>1255</ele>
        <time>2016-12-30T14:07:37.008Z</time>
      </trkpt>
      <trkpt lat="45.01697" lon="2.90127">
        <ele>1255</ele>
        <time>2016-12-30T14:07:38.008Z</time>
      </trkpt>
      <trkpt lat="45.01693" lon="2.90132">
        <ele>1255</ele>
        <time>2016-12-30T14:07:39.008Z</time>
      </trkpt>
      <trkpt lat="45.01688" lon="2.90136">
        <ele>1254.1320047103</ele>
        <time>2016-12-30T14:07:40.008Z</time>
      </trkpt>
      <trkpt lat="45.01684" lon="2.9014">
        <ele>1254</ele>
        <time>2016-12-30T14:07:41.008Z</time>
      </trkpt>
      <trkpt lat="45.01679" lon="2.90144">
        <ele>1254</ele>
        <time>2016-12-30T14:07:42.008Z</time>
      </trkpt>
      <trkpt lat="45.01674" lon="2.90148">
        <ele>1254</ele>
        <time>2016-12-30T14:07:43.008Z</time>
      </trkpt>
      <trkpt lat="45.0167" lon="2.90153">
        <ele>1254</ele>
        <time>2016-12-30T14:07:44.008Z</time>
      </trkpt>
      <trkpt lat="45.01665" lon="2.90157">
        <ele>1254</ele>
        <time>2016-12-30T14:07:45.008Z</time>
      </trkpt>
      <trkpt lat="45.01661" lon="2.90161">
        <ele>1254</ele>
        <time>2016-12-30T14:07:46.008Z</time>
      </trkpt>
      <trkpt lat="45.01656" lon="2.90166">
        <ele>1254</ele>
        <time>2016-12-30T14:07:47.008Z</time>
      </trkpt>
      <trkpt lat="45.01652" lon="2.9017">
        <ele>1254</ele>
        <time>2016-12-30T14:07:48.008Z</time>
      </trkpt>
      <trkpt lat="45.01647" lon="2.90174">
        <ele>1254</ele>
        <time>2016-12-30T14:07:49.008Z</time>
      </trkpt>
      <trkpt lat="45.01643" lon="2.90178">
        <ele>1255.7188082173</ele>
        <time>2016-12-30T14:07:50.008Z</time>
      </trkpt>
      <trkpt lat="45.01639" lon="2.90182">
        <ele>1256</ele>
        <time>2016-12-30T14:07:51.008Z</time>
      </trkpt>
      <trkpt lat="45.01635" lon="2.90186">
        <ele>1256</ele>
        <time>2016-12-30T14:07:52.008Z</time>
      </trkpt>
      <trkpt lat="45.0163" lon="2.90191">
        <ele>1256</ele>
        <time>2016-12-30T14:07:53.008Z</time>
      </trkpt>
      <trkpt lat="45.01626" lon="2.90195">
        <ele>1256</ele>
        <time>2016-12-30T14:07:54.008Z</time>
      </trkpt>
      <trkpt lat="45.01621" lon="2.90199">
        <ele>1256</ele>
        <time>2016-12-30T14:07:55.008Z</time>
      </trkpt>
      <trkpt lat="45.01616" lon="2.90204">
        <ele>1256</ele>
        <time>2016-12-30T14:07:56.008Z</time>
      </trkpt>
      <trkpt lat="45.01612" lon="2.90208">
        <ele>1256</ele>
        <time>2016-12-30T14:07:57.008Z</time>
      </trkpt>
      <trkpt lat="45.01608" lon="2.90212">
        <ele>1256</ele>
        <time>2016-12-30T14:07:58.008Z</time>
      </trkpt>
      <trkpt lat="45.01603" lon="2.90216">
        <ele>1256</ele>
        <time>2016-12-30T14:07:59.008Z</time>
      </trkpt>
      <trkpt lat="45.01599" lon="2.9022">
        <ele>1256</ele>
        <time>2016-12-30T14:08:00.008Z</time>
      </trkpt>
      <trkpt lat="45.01595" lon="2.90224">
        <ele>1256</ele>
        <time>2016-12-30T14:08:01.008Z</time>
      </trkpt>
      <trkpt lat="45.0159" lon="2.90228">
        <ele>1256</ele>
        <time>2016-12-30T14:08:02.008Z</time>
      </trkpt>
      <trkpt lat="45.01586" lon="2.90232">
        <ele>1256</ele>
        <time>2016-12-30T14:08:03.008Z</time>
      </trkpt>
      <trkpt lat="45.01581" lon="2.90236">
        <ele>1256</ele>
        <time>2016-12-30T14:08:04.008Z</time>
      </trkpt>
      <trkpt lat="45.01577" lon="2.9024">
        <ele>1256</ele>
        <time>2016-12-30T14:08:05.008Z</time>
      </trkpt>
      <trkpt lat="45.01573" lon="2.90244">
        <ele>1256</ele>
        <time>2016-12-30T14:08:06.008Z</time>
      </trkpt>
      <trkpt lat="45.01569" lon="2.90249">
        <ele>1256</ele>
        <time>2016-12-30T14:08:07.008Z</time>
      </trkpt>
      <trkpt lat="45.01564" lon="2.90253">
        <ele>1256</ele>
        <time>2016-12-30T14:08:08.008Z</time>
      </trkpt>
      <trkpt lat="45.0156" lon="2.90257">
        <ele>1256</ele>
        <time>2016-12-30T14:08:09.008Z</time>
      </trkpt>
      <trkpt lat="45.01555" lon="2.90262">
        <ele>1256.8679952897</ele>
        <time>2016-12-30T14:08:10.008Z</time>
      </trkpt>
      <trkpt lat="45.0155" lon="2.90266">
        <ele>1257</ele>
        <time>2016-12-30T14:08:11.008Z</time>
      </trkpt>
      <trkpt lat="45.01546" lon="2.90271">
        <ele>1257</ele>
        <time>2016-12-30T14:08:12.008Z</time>
      </trkpt>
      <trkpt lat="45.01541" lon="2.90275">
        <ele>1257</ele>
        <time>2016-12-30T14:08:13.008Z</time>
      </trkpt>
      <trkpt lat="45.01536" lon="2.9028">
        <ele>1257</ele>
        <time>2016-12-30T14:08:14.008Z</time>
      </trkpt>
      <trkpt lat="45.01531" lon="2.90285">
        <ele>1257</ele>
        <time>2016-12-30T14:08:15.008Z</time>
      </trkpt>
      <trkpt lat="45.01521" lon="2.90294">
        <ele>1257</ele>
        <time>2016-12-30T14:08:17.008Z</time>
      </trkpt>
      <trkpt lat="45.01516" lon="2.90299">
        <ele>1257</ele>
        <time>2016-12-30T14:08:18.008Z</time>
      </trkpt>
      <trkpt lat="45.01511" lon="2.90304">
        <ele>1257</ele>
        <time>2016-12-30T14:08:19.008Z</time>
      </trkpt>
      <trkpt lat="45.01506" lon="2.90309">
        <ele>1257</ele>
        <time>2016-12-30T14:08:20.008Z</time>
      </trkpt>
      <trkpt lat="45.01501" lon="2.90314">
        <ele>1257</ele>
        <time>2016-12-30T14:08:21.008Z</time>
      </trkpt>
      <trkpt lat="45.01495" lon="2.90318">
        <ele>1257</ele>
        <time>2016-12-30T14:08:22.008Z</time>
      </trkpt>
      <trkpt lat="45.0149" lon="2.90323">
        <ele>1257</ele>
        <time>2016-12-30T14:08:23.008Z</time>
      </trkpt>
      <trkpt lat="45.01485" lon="2.90328">
        <ele>1257</ele>
        <time>2016-12-30T14:08:24.008Z</time>
      </trkpt>
      <trkpt lat="45.01479" lon="2.90332">
        <ele>1257</ele>
        <time>2016-12-30T14:08:25.008Z</time>
      </trkpt>
      <trkpt lat="45.01473" lon="2.90336">
        <ele>1257</ele>
        <time>2016-12-30T14:08:26.008Z</time>
      </trkpt>
      <trkpt lat="45.01468" lon="2.9034">
        <ele>1257</ele>
        <time>2016-12-30T14:08:27.008Z</time>
      </trkpt>
      <trkpt lat="45.01462" lon="2.90344">
        <ele>1257</ele>
        <time>2016-12-30T14:08:28.008Z</time>
      </trkpt>
      <trkpt lat="45.01457" lon="2.90348">
        <ele>1257</ele>
        <time>2016-12-30T14:08:29.008Z</time>
      </trkpt>
      <trkpt lat="45.01451" lon="2.90352">
        <ele>1255.2640094207</ele>
        <time>2016-12-30T14:08:30.008Z</time>
      </trkpt>
      <trkpt lat="45.01446" lon="2.90356">
        <ele>1255</ele>
        <time>2016-12-30T14:08:31.008Z</time>
      </trkpt>
      <trkpt lat="45.0144" lon="2.9036">
        <ele>1255</ele>
        <time>2016-12-30T14:08:32.008Z</time>
      </trkpt>
      <trkpt lat="45.01435" lon="2.90363">
        <ele>1255</ele>
        <time>2016-12-30T14:08:33.008Z</time>
      </trkpt>
      <trkpt lat="45.01429" lon="2.90367">
        <ele>1255</ele>
        <time>2016-12-30T14:08:34.008Z</time>
      </trkpt>
      <trkpt lat="45.01424" lon="2.9037">
        <ele>1255</ele>
        <time>2016-12-30T14:08:35.008Z</time>
      </trkpt>
      <trkpt lat="45.01418" lon="2.90374">
        <ele>1255</ele>
        <time>2016-12-30T14:08:36.008Z</time>
      </trkpt>
      <trkpt lat="45.01413" lon="2.90378">
        <ele>1255</ele>
        <time>2016-12-30T14:08:37.008Z</time>
      </trkpt>
      <trkpt lat="45.01408" lon="2.90381">
        <ele>1255</ele>
        <time>2016-12-30T14:08:38.008Z</time>
      </trkpt>
      <trkpt lat="45.01402" lon="2.90385">
        <ele>1255</ele>
        <time>2016-12-30T14:08:39.008Z</time>
      </trkpt>
      <trkpt lat="45.01397" lon="2.90388">
        <ele>1254.1320047103</ele>
        <time>2016-12-30T14:08:40.008Z</time>
      </trkpt>
      <trkpt lat="45.01392" lon="2.90392">
        <ele>1254</ele>
        <time>2016-12-30T14:08:41.008Z</time>
      </trkpt>
      <trkpt lat="45.01387" lon="2.90395">
        <ele>1254</ele>
        <time>2016-12-30T14:08:42.008Z</time>
      </trkpt>
      <trkpt lat="45.01382" lon="2.90399">
        <ele>1254</ele>
        <time>2016-12-30T14:08:43.008Z</time>
      </trkpt>
      <trkpt lat="45.01377" lon="2.90402">
        <ele>1254</ele>
        <time>2016-12-30T14:08:44.008Z</time>
      </trkpt>
      <trkpt lat="45.01372" lon="2.90406">
        <ele>1254</ele>
        <time>2016-12-30T14:08:45.008Z</time>
      </trkpt>
      <trkpt lat="45.01367" lon="2.90409">
        <ele>1254</ele>
        <time>2016-12-30T14:08:46.008Z</time>
      </trkpt>
      <trkpt lat="45.01363" lon="2.90412">
        <ele>1254</ele>
        <time>2016-12-30T14:08:47.008Z</time>
      </trkpt>
      <trkpt lat="45.01358" lon="2.90415">
        <ele>1254</ele>
        <time>2016-12-30T14:08:48.008Z</time>
      </trkpt>
      <trkpt lat="45.01353" lon="2.90419">
        <ele>1254</ele>
        <time>2016-12-30T14:08:49.008Z</time>
      </trkpt>
      <trkpt lat="45.01349" lon="2.90422">
        <ele>1254</ele>
        <time>2016-12-30T14:08:50.008Z</time>
      </trkpt>
      <trkpt lat="45.01345" lon="2.90425">
        <ele>1254</ele>
        <time>2016-12-30T14:08:51.008Z</time>
      </trkpt>
      <trkpt lat="45.01341" lon="2.90427">
        <ele>1254</ele>
        <time>2016-12-30T14:08:52.008Z</time>
      </trkpt>
      <trkpt lat="45.01337" lon="2.90428">
        <ele>1254</ele>
        <time>2016-12-30T14:08:53.008Z</time>
      </trkpt>
      <trkpt lat="45.01332" lon="2.90422">
        <ele>1254</ele>
        <time>2016-12-30T14:08:55.008Z</time>
      </trkpt>
      <trkpt lat="45.01335" lon="2.90412">
        <ele>1254</ele>
        <time>2016-12-30T14:08:58.008Z</time>
      </trkpt>
      <trkpt lat="45.01338" lon="2.90405">
        <ele>1254</ele>
        <time>2016-12-30T14:09:00.008Z</time>
      </trkpt>
      <trkpt lat="45.0134" lon="2.90399">
        <ele>1254</ele>
        <time>2016-12-30T14:09:02.008Z</time>
      </trkpt>
      <trkpt lat="45.01342" lon="2.90392">
        <ele>1254</ele>
        <time>2016-12-30T14:09:04.008Z</time>
      </trkpt>
      <trkpt lat="45.01344" lon="2.90381">
        <ele>1254</ele>
        <time>2016-12-30T14:09:07.008Z</time>
      </trkpt>
      <trkpt lat="45.01346" lon="2.90371">
        <ele>1254.8679952897</ele>
        <time>2016-12-30T14:09:10.008Z</time>
      </trkpt>
      <trkpt lat="45.01348" lon="2.90361">
        <ele>1255</ele>
        <time>2016-12-30T14:09:13.008Z</time>
      </trkpt>
      <trkpt lat="45.01351" lon="2.90351">
        <ele>1255</ele>
        <time>2016-12-30T14:09:16.008Z</time>
      </trkpt>
      <trkpt lat="45.01353" lon="2.90343">
        <ele>1255</ele>
        <time>2016-12-30T14:09:18.008Z</time>
      </trkpt>
      <trkpt lat="45.01355" lon="2.90335">
        <ele>1256.7188082173</ele>
        <time>2016-12-30T14:09:20.008Z</time>
      </trkpt>
      <trkpt lat="45.01359" lon="2.90322">
        <ele>1257</ele>
        <time>2016-12-30T14:09:23.008Z</time>
      </trkpt>
      <trkpt lat="45.0136" lon="2.90312">
        <ele>1257</ele>
        <time>2016-12-30T14:09:25.008Z</time>
      </trkpt>
      <trkpt lat="45.01362" lon="2.90298">
        <ele>1257</ele>
        <time>2016-12-30T14:09:28.008Z</time>
      </trkpt>
      <trkpt lat="45.01362" lon="2.90289">
        <ele>1257</ele>
        <time>2016-12-30T14:09:30.008Z</time>
      </trkpt>
      <trkpt lat="45.01362" lon="2.90279">
        <ele>1257</ele>
        <time>2016-12-30T14:09:32.008Z</time>
      </trkpt>
      <trkpt lat="45.01362" lon="2.9027">
        <ele>1257</ele>
        <time>2016-12-30T14:09:34.008Z</time>
      </trkpt>
      <trkpt lat="45.01362" lon="2.90261">
        <ele>1257</ele>
        <time>2016-12-30T14:09:36.008Z</time>
      </trkpt>
      <trkpt lat="45.01361" lon="2.90251">
        <ele>1257</ele>
        <time>2016-12-30T14:09:38.008Z</time>
      </trkpt>
      <trkpt lat="45.0136" lon="2.90241">
        <ele>1258.7359905793</ele>
        <time>2016-12-30T14:09:40.008Z</time>
      </trkpt>
      <trkpt lat="45.01358" lon="2.90232">
        <ele>1259</ele>
        <time>2016-12-30T14:09:42.008Z</time>
      </trkpt>
      <trkpt lat="45.01357" lon="2.90223">
        <ele>1259</ele>
        <time>2016-12-30T14:09:44.008Z</time>
      </trkpt>
      <trkpt lat="45.01356" lon="2.90213">
        <ele>1259</ele>
        <time>2016-12-30T14:09:46.008Z</time>
      </trkpt>
      <trkpt lat="45.01354" lon="2.90205">
        <ele>1259</ele>
        <time>2016-12-30T14:09:48.008Z</time>
      </trkpt>
      <trkpt lat="45.01353" lon="2.90196">
        <ele>1259.8594041086</ele>
        <time>2016-12-30T14:09:50.008Z</time>
      </trkpt>
      <trkpt lat="45.01351" lon="2.90187">
        <ele>1260</ele>
        <time>2016-12-30T14:09:52.008Z</time>
      </trkpt>
      <trkpt lat="45.01349" lon="2.90179">
        <ele>1260</ele>
        <time>2016-12-30T14:09:54.008Z</time>
      </trkpt>
      <trkpt lat="45.01348" lon="2.9017">
        <ele>1260</ele>
        <time>2016-12-30T14:09:56.008Z</time>
      </trkpt>
      <trkpt lat="45.01348" lon="2.9016">
        <ele>1260</ele>
        <time>2016-12-30T14:09:58.008Z</time>
      </trkpt>
      <trkpt lat="45.01348" lon="2.90151">
        <ele>1262.5959014145</ele>
        <time>2016-12-30T14:10:00.008Z</time>
      </trkpt>
      <trkpt lat="45.01349" lon="2.90143">
        <ele>1263</ele>
        <time>2016-12-30T14:10:02.008Z</time>
      </trkpt>
      <trkpt lat="45.01351" lon="2.90134">
        <ele>1263</ele>
        <time>2016-12-30T14:10:04.008Z</time>
      </trkpt>
      <trkpt lat="45.01352" lon="2.90126">
        <ele>1263</ele>
        <time>2016-12-30T14:10:06.008Z</time>
      </trkpt>
      <trkpt lat="45.01353" lon="2.90117">
        <ele>1263</ele>
        <time>2016-12-30T14:10:08.008Z</time>
      </trkpt>
      <trkpt lat="45.01355" lon="2.90108">
        <ele>1263.8679952897</ele>
        <time>2016-12-30T14:10:10.008Z</time>
      </trkpt>
      <trkpt lat="45.01356" lon="2.90099">
        <ele>1264</ele>
        <time>2016-12-30T14:10:12.008Z</time>
      </trkpt>
      <trkpt lat="45.01356" lon="2.9009">
        <ele>1264</ele>
        <time>2016-12-30T14:10:14.008Z</time>
      </trkpt>
      <trkpt lat="45.01356" lon="2.90082">
        <ele>1264</ele>
        <time>2016-12-30T14:10:16.008Z</time>
      </trkpt>
      <trkpt lat="45.01356" lon="2.90073">
        <ele>1264</ele>
        <time>2016-12-30T14:10:18.008Z</time>
      </trkpt>
      <trkpt lat="45.01355" lon="2.9006">
        <ele>1266</ele>
        <time>2016-12-30T14:10:21.008Z</time>
      </trkpt>
      <trkpt lat="45.01353" lon="2.90047">
        <ele>1266</ele>
        <time>2016-12-30T14:10:24.008Z</time>
      </trkpt>
      <trkpt lat="45.01353" lon="2.90039">
        <ele>1266</ele>
        <time>2016-12-30T14:10:26.008Z</time>
      </trkpt>
      <trkpt lat="45.01352" lon="2.90031">
        <ele>1266</ele>
        <time>2016-12-30T14:10:28.008Z</time>
      </trkpt>
      <trkpt lat="45.01352" lon="2.90023">
        <ele>1267.7359905793</ele>
        <time>2016-12-30T14:10:30.008Z</time>
      </trkpt>
      <trkpt lat="45.01352" lon="2.90012">
        <ele>1268</ele>
        <time>2016-12-30T14:10:33.008Z</time>
      </trkpt>
      <trkpt lat="45.01354" lon="2.90001">
        <ele>1268</ele>
        <time>2016-12-30T14:10:36.008Z</time>
      </trkpt>
      <trkpt lat="45.01356" lon="2.8999">
        <ele>1268</ele>
        <time>2016-12-30T14:10:39.008Z</time>
      </trkpt>
      <trkpt lat="45.01357" lon="2.89982">
        <ele>1270</ele>
        <time>2016-12-30T14:10:41.008Z</time>
      </trkpt>
      <trkpt lat="45.01359" lon="2.89974">
        <ele>1270</ele>
        <time>2016-12-30T14:10:43.008Z</time>
      </trkpt>
      <trkpt lat="45.0136" lon="2.89967">
        <ele>1270</ele>
        <time>2016-12-30T14:10:45.008Z</time>
      </trkpt>
      <trkpt lat="45.01362" lon="2.8996">
        <ele>1270</ele>
        <time>2016-12-30T14:10:47.008Z</time>
      </trkpt>
      <trkpt lat="45.01363" lon="2.89952">
        <ele>1270</ele>
        <time>2016-12-30T14:10:49.008Z</time>
      </trkpt>
      <trkpt lat="45.01365" lon="2.89945">
        <ele>1273</ele>
        <time>2016-12-30T14:10:51.008Z</time>
      </trkpt>
      <trkpt lat="45.01367" lon="2.89938">
        <ele>1273</ele>
        <time>2016-12-30T14:10:53.008Z</time>
      </trkpt>
      <trkpt lat="45.01369" lon="2.89931">
        <ele>1273</ele>
        <time>2016-12-30T14:10:55.008Z</time>
      </trkpt>
      <trkpt lat="45.01371" lon="2.89925">
        <ele>1273</ele>
        <time>2016-12-30T14:10:57.008Z</time>
      </trkpt>
      <trkpt lat="45.01373" lon="2.89918">
        <ele>1273</ele>
        <time>2016-12-30T14:10:59.008Z</time>
      </trkpt>
      <trkpt lat="45.01376" lon="2.89908">
        <ele>1275</ele>
        <time>2016-12-30T14:11:02.008Z</time>
      </trkpt>
      <trkpt lat="45.01378" lon="2.89902">
        <ele>1275</ele>
        <time>2016-12-30T14:11:04.008Z</time>
      </trkpt>
      <trkpt lat="45.0138" lon="2.89895">
        <ele>1275</ele>
        <time>2016-12-30T14:11:06.008Z</time>
      </trkpt>
      <trkpt lat="45.01383" lon="2.89888">
        <ele>1275</ele>
        <time>2016-12-30T14:11:08.008Z</time>
      </trkpt>
      <trkpt lat="45.01385" lon="2.89881">
        <ele>1276.7359905793</ele>
        <time>2016-12-30T14:11:10.008Z</time>
      </trkpt>
      <trkpt lat="45.01387" lon="2.89874">
        <ele>1277</ele>
        <time>2016-12-30T14:11:12.008Z</time>
      </trkpt>
      <trkpt lat="45.01389" lon="2.89868">
        <ele>1277</ele>
        <time>2016-12-30T14:11:14.008Z</time>
      </trkpt>
      <trkpt lat="45.01391" lon="2.89861">
        <ele>1277</ele>
        <time>2016-12-30T14:11:16.008Z</time>
      </trkpt>
      <trkpt lat="45.01392" lon="2.89854">
        <ele>1277</ele>
        <time>2016-12-30T14:11:18.008Z</time>
      </trkpt>
      <trkpt lat="45.01394" lon="2.89846">
        <ele>1277.8594041086</ele>
        <time>2016-12-30T14:11:20.008Z</time>
      </trkpt>
      <trkpt lat="45.01396" lon="2.89839">
        <ele>1278</ele>
        <time>2016-12-30T14:11:22.008Z</time>
      </trkpt>
      <trkpt lat="45.01398" lon="2.89832">
        <ele>1278</ele>
        <time>2016-12-30T14:11:24.008Z</time>
      </trkpt>
      <trkpt lat="45.01399" lon="2.89825">
        <ele>1278</ele>
        <time>2016-12-30T14:11:26.008Z</time>
      </trkpt>
      <trkpt lat="45.01401" lon="2.89818">
        <ele>1278</ele>
        <time>2016-12-30T14:11:28.008Z</time>
      </trkpt>
      <trkpt lat="45.01403" lon="2.89812">
        <ele>1278</ele>
        <time>2016-12-30T14:11:30.008Z</time>
      </trkpt>
      <trkpt lat="45.01405" lon="2.89805">
        <ele>1278</ele>
        <time>2016-12-30T14:11:32.008Z</time>
      </trkpt>
      <trkpt lat="45.01407" lon="2.89795">
        <ele>1278</ele>
        <time>2016-12-30T14:11:35.008Z</time>
      </trkpt>
      <trkpt lat="45.01409" lon="2.89784">
        <ele>1278</ele>
        <time>2016-12-30T14:11:38.008Z</time>
      </trkpt>
      <trkpt lat="45.01409" lon="2.89778">
        <ele>1280.603985869</ele>
        <time>2016-12-30T14:11:40.008Z</time>
      </trkpt>
      <trkpt lat="45.01409" lon="2.89771">
        <ele>1281</ele>
        <time>2016-12-30T14:11:42.008Z</time>
      </trkpt>
      <trkpt lat="45.01408" lon="2.89765">
        <ele>1281</ele>
        <time>2016-12-30T14:11:44.008Z</time>
      </trkpt>
      <trkpt lat="45.01406" lon="2.89758">
        <ele>1283</ele>
        <time>2016-12-30T14:11:46.008Z</time>
      </trkpt>
      <trkpt lat="45.01405" lon="2.89752">
        <ele>1283</ele>
        <time>2016-12-30T14:11:48.008Z</time>
      </trkpt>
      <trkpt lat="45.01403" lon="2.89746">
        <ele>1283</ele>
        <time>2016-12-30T14:11:50.008Z</time>
      </trkpt>
      <trkpt lat="45.01401" lon="2.8974">
        <ele>1283</ele>
        <time>2016-12-30T14:11:52.008Z</time>
      </trkpt>
      <trkpt lat="45.01399" lon="2.89735">
        <ele>1283</ele>
        <time>2016-12-30T14:11:54.008Z</time>
      </trkpt>
      <trkpt lat="45.01397" lon="2.89729">
        <ele>1283</ele>
        <time>2016-12-30T14:11:56.008Z</time>
      </trkpt>
      <trkpt lat="45.01396" lon="2.89724">
        <ele>1283</ele>
        <time>2016-12-30T14:11:58.008Z</time>
      </trkpt>
      <trkpt lat="45.01394" lon="2.8972">
        <ele>1286.4719811586</ele>
        <time>2016-12-30T14:12:00.008Z</time>
      </trkpt>
      <trkpt lat="45.01392" lon="2.89715">
        <ele>1287</ele>
        <time>2016-12-30T14:12:02.008Z</time>
      </trkpt>
      <trkpt lat="45.0139" lon="2.8971">
        <ele>1287</ele>
        <time>2016-12-30T14:12:04.008Z</time>
      </trkpt>
      <trkpt lat="45.01388" lon="2.89705">
        <ele>1288</ele>
        <time>2016-12-30T14:12:06.008Z</time>
      </trkpt>
      <trkpt lat="45.01386" lon="2.89701">
        <ele>1288</ele>
        <time>2016-12-30T14:12:08.008Z</time>
      </trkpt>
      <trkpt lat="45.01384" lon="2.89696">
        <ele>1288.8679952897</ele>
        <time>2016-12-30T14:12:10.008Z</time>
      </trkpt>
      <trkpt lat="45.01382" lon="2.89691">
        <ele>1289</ele>
        <time>2016-12-30T14:12:12.008Z</time>
      </trkpt>
      <trkpt lat="45.01381" lon="2.89687">
        <ele>1289</ele>
        <time>2016-12-30T14:12:14.008Z</time>
      </trkpt>
      <trkpt lat="45.01379" lon="2.89682">
        <ele>1289</ele>
        <time>2016-12-30T14:12:16.008Z</time>
      </trkpt>
      <trkpt lat="45.01378" lon="2.89677">
        <ele>1289</ele>
        <time>2016-12-30T14:12:18.008Z</time>
      </trkpt>
      <trkpt lat="45.01377" lon="2.89673">
        <ele>1290.7159936</ele>
        <time>2016-12-30T14:12:20.008Z</time>
      </trkpt>
      <trkpt lat="45.01376" lon="2.89668">
        <ele>1291</ele>
        <time>2016-12-30T14:12:22.008Z</time>
      </trkpt>
      <trkpt lat="45.01375" lon="2.89662">
        <ele>1291</ele>
        <time>2016-12-30T14:12:24.008Z</time>
      </trkpt>
      <trkpt lat="45.01375" lon="2.89657">
        <ele>1291</ele>
        <time>2016-12-30T14:12:26.008Z</time>
      </trkpt>
      <trkpt lat="45.01374" lon="2.89653">
        <ele>1291</ele>
        <time>2016-12-30T14:12:28.008Z</time>
      </trkpt>
      <trkpt lat="45.01373" lon="2.89648">
        <ele>1292.7359905793</ele>
        <time>2016-12-30T14:12:30.008Z</time>
      </trkpt>
      <trkpt lat="45.01372" lon="2.89643">
        <ele>1293</ele>
        <time>2016-12-30T14:12:32.008Z</time>
      </trkpt>
      <trkpt lat="45.01372" lon="2.89638">
        <ele>1293</ele>
        <time>2016-12-30T14:12:34.008Z</time>
      </trkpt>
      <trkpt lat="45.01371" lon="2.89633">
        <ele>1293</ele>
        <time>2016-12-30T14:12:36.008Z</time>
      </trkpt>
      <trkpt lat="45.01371" lon="2.89628">
        <ele>1293</ele>
        <time>2016-12-30T14:12:38.008Z</time>
      </trkpt>
      <trkpt lat="45.0137" lon="2.89624">
        <ele>1295.603985869</ele>
        <time>2016-12-30T14:12:40.008Z</time>
      </trkpt>
      <trkpt lat="45.0137" lon="2.89618">
        <ele>1296</ele>
        <time>2016-12-30T14:12:42.008Z</time>
      </trkpt>
      <trkpt lat="45.0137" lon="2.89613">
        <ele>1296</ele>
        <time>2016-12-30T14:12:44.008Z</time>
      </trkpt>
      <trkpt lat="45.01369" lon="2.89608">
        <ele>1297</ele>
        <time>2016-12-30T14:12:46.008Z</time>
      </trkpt>
      <trkpt lat="45.01369" lon="2.89603">
        <ele>1297</ele>
        <time>2016-12-30T14:12:48.008Z</time>
      </trkpt>
      <trkpt lat="45.01368" lon="2.89598">
        <ele>1298.7188082173</ele>
        <time>2016-12-30T14:12:50.008Z</time>
      </trkpt>
      <trkpt lat="45.01368" lon="2.89591">
        <ele>1299</ele>
        <time>2016-12-30T14:12:53.008Z</time>
      </trkpt>
      <trkpt lat="45.01367" lon="2.89583">
        <ele>1300</ele>
        <time>2016-12-30T14:12:56.008Z</time>
      </trkpt>
      <trkpt lat="45.01367" lon="2.89576">
        <ele>1300</ele>
        <time>2016-12-30T14:12:59.008Z</time>
      </trkpt>
      <trkpt lat="45.01367" lon="2.89568">
        <ele>1302</ele>
        <time>2016-12-30T14:13:02.008Z</time>
      </trkpt>
      <trkpt lat="45.01367" lon="2.89561">
        <ele>1302.8680047105</ele>
        <time>2016-12-30T14:13:05.008Z</time>
      </trkpt>
      <trkpt lat="45.01368" lon="2.89554">
        <ele>1303</ele>
        <time>2016-12-30T14:13:08.008Z</time>
      </trkpt>
      <trkpt lat="45.01367" lon="2.89547">
        <ele>1304</ele>
        <time>2016-12-30T14:13:11.008Z</time>
      </trkpt>
      <trkpt lat="45.01368" lon="2.89538">
        <ele>1304</ele>
        <time>2016-12-30T14:13:15.008Z</time>
      </trkpt>
      <trkpt lat="45.01368" lon="2.89529">
        <ele>1304</ele>
        <time>2016-12-30T14:13:19.008Z</time>
      </trkpt>
      <trkpt lat="45.01367" lon="2.89519">
        <ele>1306</ele>
        <time>2016-12-30T14:13:23.008Z</time>
      </trkpt>
      <trkpt lat="45.01366" lon="2.89511">
        <ele>1306</ele>
        <time>2016-12-30T14:13:27.008Z</time>
      </trkpt>
      <trkpt lat="45.01363" lon="2.89501">
        <ele>1309</ele>
        <time>2016-12-30T14:13:31.008Z</time>
      </trkpt>
      <trkpt lat="45.01361" lon="2.89491">
        <ele>1309</ele>
        <time>2016-12-30T14:13:35.008Z</time>
      </trkpt>
      <trkpt lat="45.01359" lon="2.89484">
        <ele>1309</ele>
        <time>2016-12-30T14:13:38.008Z</time>
      </trkpt>
      <trkpt lat="45.01357" lon="2.89477">
        <ele>1310</ele>
        <time>2016-12-30T14:13:41.008Z</time>
      </trkpt>
      <trkpt lat="45.01354" lon="2.89466">
        <ele>1310</ele>
        <time>2016-12-30T14:13:45.008Z</time>
      </trkpt>
      <trkpt lat="45.01351" lon="2.89457">
        <ele>1310</ele>
        <time>2016-12-30T14:13:49.008Z</time>
      </trkpt>
      <trkpt lat="45.01347" lon="2.8945">
        <ele>1311</ele>
        <time>2016-12-30T14:13:52.008Z</time>
      </trkpt>
      <trkpt lat="45.01344" lon="2.89443">
        <ele>1311</ele>
        <time>2016-12-30T14:13:55.008Z</time>
      </trkpt>
      <trkpt lat="45.01341" lon="2.89436">
        <ele>1311</ele>
        <time>2016-12-30T14:13:58.008Z</time>
      </trkpt>
      <trkpt lat="45.01338" lon="2.89428">
        <ele>1313</ele>
        <time>2016-12-30T14:14:01.008Z</time>
      </trkpt>
      <trkpt lat="45.01336" lon="2.89421">
        <ele>1313</ele>
        <time>2016-12-30T14:14:04.008Z</time>
      </trkpt>
      <trkpt lat="45.01334" lon="2.89413">
        <ele>1313</ele>
        <time>2016-12-30T14:14:07.008Z</time>
      </trkpt>
      <trkpt lat="45.01332" lon="2.89406">
        <ele>1314.7359905793</ele>
        <time>2016-12-30T14:14:10.008Z</time>
      </trkpt>
      <trkpt lat="45.01331" lon="2.89398">
        <ele>1315</ele>
        <time>2016-12-30T14:14:13.008Z</time>
      </trkpt>
      <trkpt lat="45.01329" lon="2.89389">
        <ele>1315</ele>
        <time>2016-12-30T14:14:16.008Z</time>
      </trkpt>
      <trkpt lat="45.01328" lon="2.89381">
        <ele>1315</ele>
        <time>2016-12-30T14:14:19.008Z</time>
      </trkpt>
      <trkpt lat="45.01327" lon="2.89375">
        <ele>1317</ele>
        <time>2016-12-30T14:14:21.008Z</time>
      </trkpt>
      <trkpt lat="45.01325" lon="2.89364">
        <ele>1317</ele>
        <time>2016-12-30T14:14:25.008Z</time>
      </trkpt>
      <trkpt lat="45.01324" lon="2.89354">
        <ele>1317</ele>
        <time>2016-12-30T14:14:29.008Z</time>
      </trkpt>
      <trkpt lat="45.01322" lon="2.89343">
        <ele>1319</ele>
        <time>2016-12-30T14:14:33.008Z</time>
      </trkpt>
      <trkpt lat="45.0132" lon="2.89335">
        <ele>1319</ele>
        <time>2016-12-30T14:14:36.008Z</time>
      </trkpt>
      <trkpt lat="45.01319" lon="2.89327">
        <ele>1319</ele>
        <time>2016-12-30T14:14:39.008Z</time>
      </trkpt>
      <trkpt lat="45.01317" lon="2.89318">
        <ele>1321</ele>
        <time>2016-12-30T14:14:42.008Z</time>
      </trkpt>
      <trkpt lat="45.01315" lon="2.8931">
        <ele>1321</ele>
        <time>2016-12-30T14:14:45.008Z</time>
      </trkpt>
      <trkpt lat="45.01313" lon="2.89302">
        <ele>1321</ele>
        <time>2016-12-30T14:14:48.008Z</time>
      </trkpt>
      <trkpt lat="45.01312" lon="2.89294">
        <ele>1323</ele>
        <time>2016-12-30T14:14:51.008Z</time>
      </trkpt>
      <trkpt lat="45.01311" lon="2.89286">
        <ele>1323</ele>
        <time>2016-12-30T14:14:54.008Z</time>
      </trkpt>
      <trkpt lat="45.0131" lon="2.89277">
        <ele>1323</ele>
        <time>2016-12-30T14:14:57.008Z</time>
      </trkpt>
      <trkpt lat="45.0131" lon="2.89271">
        <ele>1323</ele>
        <time>2016-12-30T14:14:59.008Z</time>
      </trkpt>
      <trkpt lat="45.01309" lon="2.89261">
        <ele>1325</ele>
        <time>2016-12-30T14:15:03.008Z</time>
      </trkpt>
      <trkpt lat="45.01307" lon="2.89251">
        <ele>1325</ele>
        <time>2016-12-30T14:15:07.008Z</time>
      </trkpt>
      <trkpt lat="45.01303" lon="2.89242">
        <ele>1326</ele>
        <time>2016-12-30T14:15:11.008Z</time>
      </trkpt>
      <trkpt lat="45.01301" lon="2.89237">
        <ele>1326</ele>
        <time>2016-12-30T14:15:13.008Z</time>
      </trkpt>
      <trkpt lat="45.01299" lon="2.8923">
        <ele>1326</ele>
        <time>2016-12-30T14:15:16.008Z</time>
      </trkpt>
      <trkpt lat="45.01298" lon="2.89224">
        <ele>1326</ele>
        <time>2016-12-30T14:15:18.008Z</time>
      </trkpt>
      <trkpt lat="45.01298" lon="2.89218">
        <ele>1327.7188082173</ele>
        <time>2016-12-30T14:15:20.008Z</time>
      </trkpt>
      <trkpt lat="45.01297" lon="2.89211">
        <ele>1328</ele>
        <time>2016-12-30T14:15:22.008Z</time>
      </trkpt>
      <trkpt lat="45.01297" lon="2.89205">
        <ele>1328</ele>
        <time>2016-12-30T14:15:24.008Z</time>
      </trkpt>
      <trkpt lat="45.01297" lon="2.89198">
        <ele>1328</ele>
        <time>2016-12-30T14:15:26.008Z</time>
      </trkpt>
      <trkpt lat="45.01296" lon="2.8919">
        <ele>1328</ele>
        <time>2016-12-30T14:15:28.008Z</time>
      </trkpt>
      <trkpt lat="45.01296" lon="2.89183">
        <ele>1329.7359905793</ele>
        <time>2016-12-30T14:15:30.008Z</time>
      </trkpt>
      <trkpt lat="45.01295" lon="2.89175">
        <ele>1330</ele>
        <time>2016-12-30T14:15:32.008Z</time>
      </trkpt>
      <trkpt lat="45.01295" lon="2.89168">
        <ele>1330</ele>
        <time>2016-12-30T14:15:34.008Z</time>
      </trkpt>
      <trkpt lat="45.01294" lon="2.89161">
        <ele>1330</ele>
        <time>2016-12-30T14:15:36.008Z</time>
      </trkpt>
      <trkpt lat="45.01294" lon="2.89157">
        <ele>1330</ele>
        <time>2016-12-30T14:15:37.008Z</time>
      </trkpt>
      <trkpt lat="45.01294" lon="2.89153">
        <ele>1330</ele>
        <time>2016-12-30T14:15:38.008Z</time>
      </trkpt>
      <trkpt lat="45.01293" lon="2.89149">
        <ele>1330</ele>
        <time>2016-12-30T14:15:39.008Z</time>
      </trkpt>
      <trkpt lat="45.01293" lon="2.89145">
        <ele>1330.8679952897</ele>
        <time>2016-12-30T14:15:40.008Z</time>
      </trkpt>
      <trkpt lat="45.01292" lon="2.89133">
        <ele>1331</ele>
        <time>2016-12-30T14:15:43.008Z</time>
      </trkpt>
      <trkpt lat="45.01292" lon="2.89126">
        <ele>1331</ele>
        <time>2016-12-30T14:15:45.008Z</time>
      </trkpt>
      <trkpt lat="45.01291" lon="2.8912">
        <ele>1331</ele>
        <time>2016-12-30T14:15:47.008Z</time>
      </trkpt>
      <trkpt lat="45.01291" lon="2.89113">
        <ele>1331</ele>
        <time>2016-12-30T14:15:49.008Z</time>
      </trkpt>
      <trkpt lat="45.01291" lon="2.89106">
        <ele>1332</ele>
        <time>2016-12-30T14:15:51.008Z</time>
      </trkpt>
      <trkpt lat="45.01291" lon="2.89098">
        <ele>1332</ele>
        <time>2016-12-30T14:15:53.008Z</time>
      </trkpt>
      <trkpt lat="45.01291" lon="2.89089">
        <ele>1332</ele>
        <time>2016-12-30T14:15:55.008Z</time>
      </trkpt>
      <trkpt lat="45.01291" lon="2.89081">
        <ele>1332</ele>
        <time>2016-12-30T14:15:57.008Z</time>
      </trkpt>
      <trkpt lat="45.01291" lon="2.89073">
        <ele>1332</ele>
        <time>2016-12-30T14:15:59.008Z</time>
      </trkpt>
      <trkpt lat="45.01289" lon="2.89065">
        <ele>1333</ele>
        <time>2016-12-30T14:16:01.008Z</time>
      </trkpt>
      <trkpt lat="45.01287" lon="2.89059">
        <ele>1333</ele>
        <time>2016-12-30T14:16:03.008Z</time>
      </trkpt>
      <trkpt lat="45.01285" lon="2.89052">
        <ele>1333</ele>
        <time>2016-12-30T14:16:05.008Z</time>
      </trkpt>
      <trkpt lat="45.01284" lon="2.89046">
        <ele>1333</ele>
        <time>2016-12-30T14:16:07.008Z</time>
      </trkpt>
      <trkpt lat="45.01284" lon="2.89039">
        <ele>1333</ele>
        <time>2016-12-30T14:16:09.008Z</time>
      </trkpt>
      <trkpt lat="45.01283" lon="2.89033">
        <ele>1335</ele>
        <time>2016-12-30T14:16:11.008Z</time>
      </trkpt>
      <trkpt lat="45.01283" lon="2.89026">
        <ele>1335</ele>
        <time>2016-12-30T14:16:13.008Z</time>
      </trkpt>
      <trkpt lat="45.01282" lon="2.8902">
        <ele>1335</ele>
        <time>2016-12-30T14:16:15.008Z</time>
      </trkpt>
      <trkpt lat="45.01282" lon="2.89013">
        <ele>1335</ele>
        <time>2016-12-30T14:16:17.008Z</time>
      </trkpt>
      <trkpt lat="45.01281" lon="2.89007">
        <ele>1335</ele>
        <time>2016-12-30T14:16:19.008Z</time>
      </trkpt>
      <trkpt lat="45.01281" lon="2.89001">
        <ele>1337</ele>
        <time>2016-12-30T14:16:21.008Z</time>
      </trkpt>
      <trkpt lat="45.0128" lon="2.88996">
        <ele>1337</ele>
        <time>2016-12-30T14:16:24.008Z</time>
      </trkpt>
      <trkpt lat="45.01283" lon="2.89002">
        <ele>1338</ele>
        <time>2016-12-30T14:18:18.008Z</time>
      </trkpt>
      <trkpt lat="45.0128" lon="2.88997">
        <ele>1337</ele>
        <time>2016-12-30T14:19:59.008Z</time>
      </trkpt>
      <trkpt lat="45.01287" lon="2.88986">
        <ele>1337</ele>
        <time>2016-12-30T14:20:37.008Z</time>
      </trkpt>
      <trkpt lat="45.01282" lon="2.88999">
        <ele>1339</ele>
        <time>2016-12-30T14:21:22.008Z</time>
      </trkpt>
      <trkpt lat="45.0128" lon="2.88993">
        <ele>1338</ele>
        <time>2016-12-30T14:21:34.008Z</time>
      </trkpt>
      <trkpt lat="45.01281" lon="2.88986">
        <ele>1338</ele>
        <time>2016-12-30T14:21:37.008Z</time>
      </trkpt>
      <trkpt lat="45.01281" lon="2.8898">
        <ele>1338</ele>
        <time>2016-12-30T14:21:39.008Z</time>
      </trkpt>
      <trkpt lat="45.0128" lon="2.88974">
        <ele>1338</ele>
        <time>2016-12-30T14:21:41.008Z</time>
      </trkpt>
      <trkpt lat="45.01279" lon="2.88968">
        <ele>1338</ele>
        <time>2016-12-30T14:21:43.008Z</time>
      </trkpt>
      <trkpt lat="45.01277" lon="2.88961">
        <ele>1338</ele>
        <time>2016-12-30T14:21:45.008Z</time>
      </trkpt>
      <trkpt lat="45.01275" lon="2.88955">
        <ele>1338</ele>
        <time>2016-12-30T14:21:48.008Z</time>
      </trkpt>
      <trkpt lat="45.01275" lon="2.88948">
        <ele>1339</ele>
        <time>2016-12-30T14:21:51.008Z</time>
      </trkpt>
      <trkpt lat="45.01275" lon="2.88941">
        <ele>1339</ele>
        <time>2016-12-30T14:21:53.008Z</time>
      </trkpt>
      <trkpt lat="45.01275" lon="2.88933">
        <ele>1339</ele>
        <time>2016-12-30T14:21:55.008Z</time>
      </trkpt>
      <trkpt lat="45.01275" lon="2.88924">
        <ele>1339</ele>
        <time>2016-12-30T14:21:57.008Z</time>
      </trkpt>
      <trkpt lat="45.01275" lon="2.88914">
        <ele>1339</ele>
        <time>2016-12-30T14:21:59.008Z</time>
      </trkpt>
      <trkpt lat="45.01275" lon="2.88905">
        <ele>1338</ele>
        <time>2016-12-30T14:22:01.008Z</time>
      </trkpt>
      <trkpt lat="45.01274" lon="2.88895">
        <ele>1338</ele>
        <time>2016-12-30T14:22:03.008Z</time>
      </trkpt>
      <trkpt lat="45.01274" lon="2.88885">
        <ele>1338</ele>
        <time>2016-12-30T14:22:05.008Z</time>
      </trkpt>
      <trkpt lat="45.01273" lon="2.88876">
        <ele>1338</ele>
        <time>2016-12-30T14:22:07.008Z</time>
      </trkpt>
      <trkpt lat="45.01272" lon="2.88868">
        <ele>1338</ele>
        <time>2016-12-30T14:22:09.008Z</time>
      </trkpt>
      <trkpt lat="45.01271" lon="2.88861">
        <ele>1336</ele>
        <time>2016-12-30T14:22:11.008Z</time>
      </trkpt>
      <trkpt lat="45.01268" lon="2.88852">
        <ele>1336</ele>
        <time>2016-12-30T14:22:13.008Z</time>
      </trkpt>
      <trkpt lat="45.01265" lon="2.88848">
        <ele>1336</ele>
        <time>2016-12-30T14:22:14.008Z</time>
      </trkpt>
      <trkpt lat="45.01262" lon="2.88843">
        <ele>1336</ele>
        <time>2016-12-30T14:22:15.008Z</time>
      </trkpt>
      <trkpt lat="45.01259" lon="2.88839">
        <ele>1336</ele>
        <time>2016-12-30T14:22:16.008Z</time>
      </trkpt>
      <trkpt lat="45.01256" lon="2.88834">
        <ele>1336</ele>
        <time>2016-12-30T14:22:17.008Z</time>
      </trkpt>
      <trkpt lat="45.01254" lon="2.8883">
        <ele>1336</ele>
        <time>2016-12-30T14:22:18.008Z</time>
      </trkpt>
      <trkpt lat="45.01248" lon="2.88823">
        <ele>1335.1405958914</ele>
        <time>2016-12-30T14:22:20.008Z</time>
      </trkpt>
      <trkpt lat="45.01245" lon="2.88815">
        <ele>1335</ele>
        <time>2016-12-30T14:22:22.008Z</time>
      </trkpt>
      <trkpt lat="45.01241" lon="2.88808">
        <ele>1335</ele>
        <time>2016-12-30T14:22:24.008Z</time>
      </trkpt>
      <trkpt lat="45.01238" lon="2.88801">
        <ele>1335</ele>
        <time>2016-12-30T14:22:26.008Z</time>
      </trkpt>
      <trkpt lat="45.01235" lon="2.88794">
        <ele>1335</ele>
        <time>2016-12-30T14:22:28.008Z</time>
      </trkpt>
      <trkpt lat="45.0123" lon="2.88788">
        <ele>1335</ele>
        <time>2016-12-30T14:22:30.008Z</time>
      </trkpt>
      <trkpt lat="45.01226" lon="2.88784">
        <ele>1335</ele>
        <time>2016-12-30T14:22:32.008Z</time>
      </trkpt>
      <trkpt lat="45.01222" lon="2.8878">
        <ele>1335</ele>
        <time>2016-12-30T14:22:34.008Z</time>
      </trkpt>
      <trkpt lat="45.01217" lon="2.88777">
        <ele>1335</ele>
        <time>2016-12-30T14:22:36.008Z</time>
      </trkpt>
      <trkpt lat="45.01213" lon="2.88774">
        <ele>1335</ele>
        <time>2016-12-30T14:22:38.008Z</time>
      </trkpt>
      <trkpt lat="45.01209" lon="2.8877">
        <ele>1336.7359905793</ele>
        <time>2016-12-30T14:22:40.008Z</time>
      </trkpt>
      <trkpt lat="45.01204" lon="2.88766">
        <ele>1337</ele>
        <time>2016-12-30T14:22:42.008Z</time>
      </trkpt>
      <trkpt lat="45.012" lon="2.88762">
        <ele>1337</ele>
        <time>2016-12-30T14:22:44.008Z</time>
      </trkpt>
      <trkpt lat="45.01196" lon="2.88758">
        <ele>1337</ele>
        <time>2016-12-30T14:22:46.008Z</time>
      </trkpt>
      <trkpt lat="45.01191" lon="2.88754">
        <ele>1337</ele>
        <time>2016-12-30T14:22:48.008Z</time>
      </trkpt>
      <trkpt lat="45.01187" lon="2.88749">
        <ele>1337.8594041086</ele>
        <time>2016-12-30T14:22:50.008Z</time>
      </trkpt>
      <trkpt lat="45.01183" lon="2.88743">
        <ele>1338</ele>
        <time>2016-12-30T14:22:52.008Z</time>
      </trkpt>
      <trkpt lat="45.01178" lon="2.88738">
        <ele>1338</ele>
        <time>2016-12-30T14:22:54.008Z</time>
      </trkpt>
      <trkpt lat="45.01173" lon="2.88734">
        <ele>1338</ele>
        <time>2016-12-30T14:22:56.008Z</time>
      </trkpt>
      <trkpt lat="45.01167" lon="2.88729">
        <ele>1338</ele>
        <time>2016-12-30T14:22:58.008Z</time>
      </trkpt>
      <trkpt lat="45.01163" lon="2.88723">
        <ele>1338</ele>
        <time>2016-12-30T14:23:00.008Z</time>
      </trkpt>
      <trkpt lat="45.01158" lon="2.88719">
        <ele>1338</ele>
        <time>2016-12-30T14:23:02.008Z</time>
      </trkpt>
      <trkpt lat="45.01153" lon="2.88716">
        <ele>1338</ele>
        <time>2016-12-30T14:23:04.008Z</time>
      </trkpt>
      <trkpt lat="45.01148" lon="2.88713">
        <ele>1338</ele>
        <time>2016-12-30T14:23:06.008Z</time>
      </trkpt>
      <trkpt lat="45.01144" lon="2.8871">
        <ele>1338</ele>
        <time>2016-12-30T14:23:08.008Z</time>
      </trkpt>
      <trkpt lat="45.01139" lon="2.88707">
        <ele>1339.7359905793</ele>
        <time>2016-12-30T14:23:10.008Z</time>
      </trkpt>
      <trkpt lat="45.01135" lon="2.88705">
        <ele>1340</ele>
        <time>2016-12-30T14:23:12.008Z</time>
      </trkpt>
      <trkpt lat="45.0113" lon="2.88702">
        <ele>1340</ele>
        <time>2016-12-30T14:23:14.008Z</time>
      </trkpt>
      <trkpt lat="45.01126" lon="2.887">
        <ele>1340</ele>
        <time>2016-12-30T14:23:16.008Z</time>
      </trkpt>
      <trkpt lat="45.01121" lon="2.88698">
        <ele>1340</ele>
        <time>2016-12-30T14:23:18.008Z</time>
      </trkpt>
      <trkpt lat="45.01117" lon="2.88695">
        <ele>1340.8594041086</ele>
        <time>2016-12-30T14:23:20.008Z</time>
      </trkpt>
      <trkpt lat="45.01113" lon="2.88692">
        <ele>1341</ele>
        <time>2016-12-30T14:23:22.008Z</time>
      </trkpt>
      <trkpt lat="45.01108" lon="2.8869">
        <ele>1341</ele>
        <time>2016-12-30T14:23:24.008Z</time>
      </trkpt>
      <trkpt lat="45.01104" lon="2.88687">
        <ele>1341</ele>
        <time>2016-12-30T14:23:26.008Z</time>
      </trkpt>
      <trkpt lat="45.011" lon="2.88684">
        <ele>1341</ele>
        <time>2016-12-30T14:23:28.008Z</time>
      </trkpt>
      <trkpt lat="45.01096" lon="2.88681">
        <ele>1341.8679952897</ele>
        <time>2016-12-30T14:23:30.008Z</time>
      </trkpt>
      <trkpt lat="45.01092" lon="2.88679">
        <ele>1342</ele>
        <time>2016-12-30T14:23:32.008Z</time>
      </trkpt>
      <trkpt lat="45.01087" lon="2.88676">
        <ele>1342</ele>
        <time>2016-12-30T14:23:34.008Z</time>
      </trkpt>
      <trkpt lat="45.01083" lon="2.88673">
        <ele>1342</ele>
        <time>2016-12-30T14:23:36.008Z</time>
      </trkpt>
      <trkpt lat="45.01078" lon="2.8867">
        <ele>1342</ele>
        <time>2016-12-30T14:23:38.008Z</time>
      </trkpt>
      <trkpt lat="45.01074" lon="2.88667">
        <ele>1342.8679952897</ele>
        <time>2016-12-30T14:23:40.008Z</time>
      </trkpt>
      <trkpt lat="45.01069" lon="2.88664">
        <ele>1343</ele>
        <time>2016-12-30T14:23:42.008Z</time>
      </trkpt>
      <trkpt lat="45.01065" lon="2.88661">
        <ele>1343</ele>
        <time>2016-12-30T14:23:44.008Z</time>
      </trkpt>
      <trkpt lat="45.0106" lon="2.88658">
        <ele>1343</ele>
        <time>2016-12-30T14:23:46.008Z</time>
      </trkpt>
      <trkpt lat="45.01055" lon="2.88656">
        <ele>1343</ele>
        <time>2016-12-30T14:23:48.008Z</time>
      </trkpt>
      <trkpt lat="45.01047" lon="2.88653">
        <ele>1344</ele>
        <time>2016-12-30T14:23:51.008Z</time>
      </trkpt>
      <trkpt lat="45.01038" lon="2.8865">
        <ele>1344</ele>
        <time>2016-12-30T14:23:55.008Z</time>
      </trkpt>
      <trkpt lat="45.01028" lon="2.88645">
        <ele>1344</ele>
        <time>2016-12-30T14:23:59.008Z</time>
      </trkpt>
      <trkpt lat="45.01021" lon="2.88642">
        <ele>1347</ele>
        <time>2016-12-30T14:24:02.008Z</time>
      </trkpt>
      <trkpt lat="45.01011" lon="2.88638">
        <ele>1348</ele>
        <time>2016-12-30T14:24:06.008Z</time>
      </trkpt>
      <trkpt lat="45.01005" lon="2.88636">
        <ele>1348</ele>
        <time>2016-12-30T14:24:09.008Z</time>
      </trkpt>
      <trkpt lat="45.00996" lon="2.88633">
        <ele>1348</ele>
        <time>2016-12-30T14:24:13.008Z</time>
      </trkpt>
      <trkpt lat="45.00991" lon="2.88631">
        <ele>1348</ele>
        <time>2016-12-30T14:24:15.008Z</time>
      </trkpt>
      <trkpt lat="45.00982" lon="2.88628">
        <ele>1348</ele>
        <time>2016-12-30T14:24:19.008Z</time>
      </trkpt>
      <trkpt lat="45.00977" lon="2.88627">
        <ele>1349</ele>
        <time>2016-12-30T14:24:29.008Z</time>
      </trkpt>
      <trkpt lat="45.00969" lon="2.88624">
        <ele>1349</ele>
        <time>2016-12-30T14:24:50.008Z</time>
      </trkpt>
      <trkpt lat="45.00962" lon="2.88624">
        <ele>1349</ele>
        <time>2016-12-30T14:24:53.008Z</time>
      </trkpt>
      <trkpt lat="45.00954" lon="2.88622">
        <ele>1349</ele>
        <time>2016-12-30T14:24:56.008Z</time>
      </trkpt>
      <trkpt lat="45.00945" lon="2.88618">
        <ele>1349</ele>
        <time>2016-12-30T14:24:59.008Z</time>
      </trkpt>
      <trkpt lat="45.0094" lon="2.88616">
        <ele>1351</ele>
        <time>2016-12-30T14:25:01.008Z</time>
      </trkpt>
      <trkpt lat="45.00932" lon="2.88614">
        <ele>1351</ele>
        <time>2016-12-30T14:25:06.008Z</time>
      </trkpt>
      <trkpt lat="45.00925" lon="2.88613">
        <ele>1351</ele>
        <time>2016-12-30T14:25:10.008Z</time>
      </trkpt>
      <trkpt lat="45.00918" lon="2.88614">
        <ele>1351</ele>
        <time>2016-12-30T14:25:13.008Z</time>
      </trkpt>
      <trkpt lat="45.00913" lon="2.88613">
        <ele>1351</ele>
        <time>2016-12-30T14:25:15.008Z</time>
      </trkpt>
      <trkpt lat="45.00905" lon="2.88613">
        <ele>1351</ele>
        <time>2016-12-30T14:25:18.008Z</time>
      </trkpt>
      <trkpt lat="45.00897" lon="2.88613">
        <ele>1350</ele>
        <time>2016-12-30T14:25:21.008Z</time>
      </trkpt>
      <trkpt lat="45.00889" lon="2.88612">
        <ele>1350</ele>
        <time>2016-12-30T14:25:24.008Z</time>
      </trkpt>
      <trkpt lat="45.0088" lon="2.88611">
        <ele>1350</ele>
        <time>2016-12-30T14:25:27.008Z</time>
      </trkpt>
      <trkpt lat="45.0087" lon="2.8861">
        <ele>1350</ele>
        <time>2016-12-30T14:25:30.008Z</time>
      </trkpt>
      <trkpt lat="45.00862" lon="2.88609">
        <ele>1350</ele>
        <time>2016-12-30T14:25:33.008Z</time>
      </trkpt>
      <trkpt lat="45.00856" lon="2.88608">
        <ele>1350</ele>
        <time>2016-12-30T14:25:35.008Z</time>
      </trkpt>
      <trkpt lat="45.00849" lon="2.88609">
        <ele>1350</ele>
        <time>2016-12-30T14:25:37.008Z</time>
      </trkpt>
      <trkpt lat="45.00842" lon="2.88609">
        <ele>1350</ele>
        <time>2016-12-30T14:25:39.008Z</time>
      </trkpt>
      <trkpt lat="45.00836" lon="2.88609">
        <ele>1348</ele>
        <time>2016-12-30T14:25:41.008Z</time>
      </trkpt>
      <trkpt lat="45.0083" lon="2.8861">
        <ele>1348</ele>
        <time>2016-12-30T14:25:43.008Z</time>
      </trkpt>
      <trkpt lat="45.00823" lon="2.8861">
        <ele>1348</ele>
        <time>2016-12-30T14:25:45.008Z</time>
      </trkpt>
      <trkpt lat="45.00816" lon="2.88611">
        <ele>1348</ele>
        <time>2016-12-30T14:25:47.008Z</time>
      </trkpt>
      <trkpt lat="45.00809" lon="2.88613">
        <ele>1348</ele>
        <time>2016-12-30T14:25:49.008Z</time>
      </trkpt>
      <trkpt lat="45.00802" lon="2.88615">
        <ele>1347</ele>
        <time>2016-12-30T14:25:51.008Z</time>
      </trkpt>
      <trkpt lat="45.00794" lon="2.88618">
        <ele>1347</ele>
        <time>2016-12-30T14:25:53.008Z</time>
      </trkpt>
      <trkpt lat="45.00787" lon="2.88621">
        <ele>1347</ele>
        <time>2016-12-30T14:25:55.008Z</time>
      </trkpt>
      <trkpt lat="45.00778" lon="2.88625">
        <ele>1347</ele>
        <time>2016-12-30T14:25:57.008Z</time>
      </trkpt>
      <trkpt lat="45.00769" lon="2.88628">
        <ele>1347</ele>
        <time>2016-12-30T14:25:59.008Z</time>
      </trkpt>
      <trkpt lat="45.00764" lon="2.8863">
        <ele>1344.396014131</ele>
        <time>2016-12-30T14:26:00.008Z</time>
      </trkpt>
      <trkpt lat="45.00759" lon="2.88632">
        <ele>1344</ele>
        <time>2016-12-30T14:26:01.008Z</time>
      </trkpt>
      <trkpt lat="45.00753" lon="2.88635">
        <ele>1344</ele>
        <time>2016-12-30T14:26:02.008Z</time>
      </trkpt>
      <trkpt lat="45.00748" lon="2.88638">
        <ele>1344</ele>
        <time>2016-12-30T14:26:03.008Z</time>
      </trkpt>
      <trkpt lat="45.00742" lon="2.88641">
        <ele>1344</ele>
        <time>2016-12-30T14:26:04.008Z</time>
      </trkpt>
      <trkpt lat="45.00736" lon="2.88644">
        <ele>1343.1319952895</ele>
        <time>2016-12-30T14:26:05.008Z</time>
      </trkpt>
      <trkpt lat="45.00729" lon="2.88646">
        <ele>1343</ele>
        <time>2016-12-30T14:26:06.008Z</time>
      </trkpt>
      <trkpt lat="45.00723" lon="2.88648">
        <ele>1343</ele>
        <time>2016-12-30T14:26:07.008Z</time>
      </trkpt>
      <trkpt lat="45.00716" lon="2.8865">
        <ele>1343</ele>
        <time>2016-12-30T14:26:08.008Z</time>
      </trkpt>
      <trkpt lat="45.00709" lon="2.88652">
        <ele>1343</ele>
        <time>2016-12-30T14:26:09.008Z</time>
      </trkpt>
      <trkpt lat="45.00697" lon="2.88656">
        <ele>1341</ele>
        <time>2016-12-30T14:26:11.008Z</time>
      </trkpt>
      <trkpt lat="45.00686" lon="2.88662">
        <ele>1341</ele>
        <time>2016-12-30T14:26:13.008Z</time>
      </trkpt>
      <trkpt lat="45.00677" lon="2.88668">
        <ele>1340.1333281616</ele>
        <time>2016-12-30T14:26:15.008Z</time>
      </trkpt>
      <trkpt lat="45.00669" lon="2.88673">
        <ele>1340</ele>
        <time>2016-12-30T14:26:17.008Z</time>
      </trkpt>
      <trkpt lat="45.00662" lon="2.88679">
        <ele>1340</ele>
        <time>2016-12-30T14:26:19.008Z</time>
      </trkpt>
      <trkpt lat="45.00655" lon="2.88684">
        <ele>1341</ele>
        <time>2016-12-30T14:26:21.008Z</time>
      </trkpt>
      <trkpt lat="45.00648" lon="2.88689">
        <ele>1341</ele>
        <time>2016-12-30T14:26:23.008Z</time>
      </trkpt>
      <trkpt lat="45.00641" lon="2.88694">
        <ele>1341</ele>
        <time>2016-12-30T14:26:25.008Z</time>
      </trkpt>
      <trkpt lat="45.00632" lon="2.887">
        <ele>1341</ele>
        <time>2016-12-30T14:26:28.008Z</time>
      </trkpt>
      <trkpt lat="45.00625" lon="2.88705">
        <ele>1341</ele>
        <time>2016-12-30T14:26:30.008Z</time>
      </trkpt>
      <trkpt lat="45.00619" lon="2.8871">
        <ele>1341</ele>
        <time>2016-12-30T14:26:32.008Z</time>
      </trkpt>
      <trkpt lat="45.00614" lon="2.88715">
        <ele>1341</ele>
        <time>2016-12-30T14:26:34.008Z</time>
      </trkpt>
      <trkpt lat="45.00607" lon="2.8872">
        <ele>1341</ele>
        <time>2016-12-30T14:26:37.008Z</time>
      </trkpt>
      <trkpt lat="45.00599" lon="2.88726">
        <ele>1341</ele>
        <time>2016-12-30T14:26:40.008Z</time>
      </trkpt>
      <trkpt lat="45.00592" lon="2.88732">
        <ele>1341</ele>
        <time>2016-12-30T14:26:43.008Z</time>
      </trkpt>
      <trkpt lat="45.00585" lon="2.88739">
        <ele>1341</ele>
        <time>2016-12-30T14:26:46.008Z</time>
      </trkpt>
      <trkpt lat="45.00576" lon="2.88746">
        <ele>1341</ele>
        <time>2016-12-30T14:26:49.008Z</time>
      </trkpt>
      <trkpt lat="45.00567" lon="2.88753">
        <ele>1341</ele>
        <time>2016-12-30T14:26:52.008Z</time>
      </trkpt>
      <trkpt lat="45.00561" lon="2.88757">
        <ele>1341</ele>
        <time>2016-12-30T14:26:54.008Z</time>
      </trkpt>
      <trkpt lat="45.00555" lon="2.88763">
        <ele>1341</ele>
        <time>2016-12-30T14:26:56.008Z</time>
      </trkpt>
      <trkpt lat="45.00548" lon="2.88769">
        <ele>1341</ele>
        <time>2016-12-30T14:26:58.008Z</time>
      </trkpt>
      <trkpt lat="45.00541" lon="2.88775">
        <ele>1340.1320047103</ele>
        <time>2016-12-30T14:27:00.008Z</time>
      </trkpt>
      <trkpt lat="45.00534" lon="2.8878">
        <ele>1340</ele>
        <time>2016-12-30T14:27:02.008Z</time>
      </trkpt>
      <trkpt lat="45.00527" lon="2.88786">
        <ele>1340</ele>
        <time>2016-12-30T14:27:04.008Z</time>
      </trkpt>
      <trkpt lat="45.00521" lon="2.88792">
        <ele>1340</ele>
        <time>2016-12-30T14:27:06.008Z</time>
      </trkpt>
      <trkpt lat="45.00515" lon="2.88798">
        <ele>1340</ele>
        <time>2016-12-30T14:27:08.008Z</time>
      </trkpt>
      <trkpt lat="45.00508" lon="2.88807">
        <ele>1340</ele>
        <time>2016-12-30T14:27:11.008Z</time>
      </trkpt>
      <trkpt lat="45.00502" lon="2.88812">
        <ele>1340</ele>
        <time>2016-12-30T14:27:13.008Z</time>
      </trkpt>
      <trkpt lat="45.00495" lon="2.88818">
        <ele>1340</ele>
        <time>2016-12-30T14:27:16.008Z</time>
      </trkpt>
      <trkpt lat="45.00486" lon="2.88828">
        <ele>1340</ele>
        <time>2016-12-30T14:27:19.008Z</time>
      </trkpt>
      <trkpt lat="45.00477" lon="2.88836">
        <ele>1340</ele>
        <time>2016-12-30T14:27:22.008Z</time>
      </trkpt>
      <trkpt lat="45.00468" lon="2.88842">
        <ele>1340</ele>
        <time>2016-12-30T14:27:25.008Z</time>
      </trkpt>
      <trkpt lat="45.00461" lon="2.8885">
        <ele>1340</ele>
        <time>2016-12-30T14:27:28.008Z</time>
      </trkpt>
      <trkpt lat="45.00455" lon="2.88856">
        <ele>1339.1320047103</ele>
        <time>2016-12-30T14:27:30.008Z</time>
      </trkpt>
      <trkpt lat="45.00448" lon="2.88864">
        <ele>1339</ele>
        <time>2016-12-30T14:27:33.008Z</time>
      </trkpt>
      <trkpt lat="45.00442" lon="2.8887">
        <ele>1339</ele>
        <time>2016-12-30T14:27:35.008Z</time>
      </trkpt>
      <trkpt lat="45.00435" lon="2.88878">
        <ele>1339</ele>
        <time>2016-12-30T14:27:38.008Z</time>
      </trkpt>
      <trkpt lat="45.00429" lon="2.88884">
        <ele>1339</ele>
        <time>2016-12-30T14:27:41.008Z</time>
      </trkpt>
      <trkpt lat="45.00421" lon="2.88895">
        <ele>1339</ele>
        <time>2016-12-30T14:27:45.008Z</time>
      </trkpt>
      <trkpt lat="45.00413" lon="2.88906">
        <ele>1339</ele>
        <time>2016-12-30T14:27:48.008Z</time>
      </trkpt>
      <trkpt lat="45.00405" lon="2.88918">
        <ele>1338</ele>
        <time>2016-12-30T14:27:51.008Z</time>
      </trkpt>
      <trkpt lat="45.00397" lon="2.88932">
        <ele>1338</ele>
        <time>2016-12-30T14:27:54.008Z</time>
      </trkpt>
      <trkpt lat="45.00389" lon="2.88946">
        <ele>1338</ele>
        <time>2016-12-30T14:27:57.008Z</time>
      </trkpt>
      <trkpt lat="45.00384" lon="2.88955">
        <ele>1337.1320047103</ele>
        <time>2016-12-30T14:28:00.008Z</time>
      </trkpt>
      <trkpt lat="45.00379" lon="2.88964">
        <ele>1337</ele>
        <time>2016-12-30T14:28:02.008Z</time>
      </trkpt>
      <trkpt lat="45.00374" lon="2.88974">
        <ele>1337</ele>
        <time>2016-12-30T14:28:04.008Z</time>
      </trkpt>
      <trkpt lat="45.00368" lon="2.88984">
        <ele>1337</ele>
        <time>2016-12-30T14:28:06.008Z</time>
      </trkpt>
      <trkpt lat="45.00361" lon="2.88996">
        <ele>1337</ele>
        <time>2016-12-30T14:28:09.008Z</time>
      </trkpt>
      <trkpt lat="45.00355" lon="2.89009">
        <ele>1337</ele>
        <time>2016-12-30T14:28:12.008Z</time>
      </trkpt>
      <trkpt lat="45.0035" lon="2.89019">
        <ele>1337</ele>
        <time>2016-12-30T14:28:14.008Z</time>
      </trkpt>
      <trkpt lat="45.00346" lon="2.89029">
        <ele>1337</ele>
        <time>2016-12-30T14:28:16.008Z</time>
      </trkpt>
      <trkpt lat="45.00341" lon="2.8904">
        <ele>1337</ele>
        <time>2016-12-30T14:28:18.008Z</time>
      </trkpt>
      <trkpt lat="45.00336" lon="2.89053">
        <ele>1334.4217876741</ele>
        <time>2016-12-30T14:28:20.008Z</time>
      </trkpt>
      <trkpt lat="45.00331" lon="2.89065">
        <ele>1334</ele>
        <time>2016-12-30T14:28:22.008Z</time>
      </trkpt>
      <trkpt lat="45.00328" lon="2.89079">
        <ele>1334</ele>
        <time>2016-12-30T14:28:24.008Z</time>
      </trkpt>
      <trkpt lat="45.00324" lon="2.89092">
        <ele>1332</ele>
        <time>2016-12-30T14:28:26.008Z</time>
      </trkpt>
      <trkpt lat="45.00322" lon="2.89103">
        <ele>1332</ele>
        <time>2016-12-30T14:28:28.008Z</time>
      </trkpt>
      <trkpt lat="45.00321" lon="2.89112">
        <ele>1330</ele>
        <time>2016-12-30T14:28:31.008Z</time>
      </trkpt>
      <trkpt lat="45.00326" lon="2.8911">
        <ele>1329</ele>
        <time>2016-12-30T14:29:47.008Z</time>
      </trkpt>
      <trkpt lat="45.00331" lon="2.89105">
        <ele>1330.7188082173</ele>
        <time>2016-12-30T14:29:50.008Z</time>
      </trkpt>
      <trkpt lat="45.00334" lon="2.89103">
        <ele>1331</ele>
        <time>2016-12-30T14:29:52.008Z</time>
      </trkpt>
      <trkpt lat="45.00338" lon="2.89101">
        <ele>1331</ele>
        <time>2016-12-30T14:29:54.008Z</time>
      </trkpt>
      <trkpt lat="45.00343" lon="2.89099">
        <ele>1331</ele>
        <time>2016-12-30T14:29:57.008Z</time>
      </trkpt>
      <trkpt lat="45.00349" lon="2.89098">
        <ele>1333.603985869</ele>
        <time>2016-12-30T14:30:00.008Z</time>
      </trkpt>
      <trkpt lat="45.00354" lon="2.89096">
        <ele>1334</ele>
        <time>2016-12-30T14:30:03.008Z</time>
      </trkpt>
      <trkpt lat="45.0036" lon="2.89094">
        <ele>1336</ele>
        <time>2016-12-30T14:30:06.008Z</time>
      </trkpt>
      <trkpt lat="45.00365" lon="2.89093">
        <ele>1336</ele>
        <time>2016-12-30T14:30:09.008Z</time>
      </trkpt>
      <trkpt lat="45.0037" lon="2.89091">
        <ele>1338</ele>
        <time>2016-12-30T14:30:12.008Z</time>
      </trkpt>
      <trkpt lat="45.00376" lon="2.89091">
        <ele>1338.8666718384</ele>
        <time>2016-12-30T14:30:15.008Z</time>
      </trkpt>
      <trkpt lat="45.0037" lon="2.89091">
        <ele>1339</ele>
        <time>2016-12-30T14:30:30.008Z</time>
      </trkpt>
      <trkpt lat="45.00362" lon="2.89093">
        <ele>1339</ele>
        <time>2016-12-30T14:30:32.008Z</time>
      </trkpt>
      <trkpt lat="45.00358" lon="2.89095">
        <ele>1339</ele>
        <time>2016-12-30T14:30:33.008Z</time>
      </trkpt>
      <trkpt lat="45.00354" lon="2.89096">
        <ele>1339</ele>
        <time>2016-12-30T14:30:34.008Z</time>
      </trkpt>
      <trkpt lat="45.0035" lon="2.89098">
        <ele>1339</ele>
        <time>2016-12-30T14:30:35.008Z</time>
      </trkpt>
      <trkpt lat="45.00342" lon="2.89102">
        <ele>1339</ele>
        <time>2016-12-30T14:30:37.008Z</time>
      </trkpt>
      <trkpt lat="45.00328" lon="2.89109">
        <ele>1332.9240329724</ele>
        <time>2016-12-30T14:30:40.008Z</time>
      </trkpt>
      <trkpt lat="45.00318" lon="2.8912">
        <ele>1328.1319952895</ele>
        <time>2016-12-30T14:30:43.008Z</time>
      </trkpt>
      <trkpt lat="45.00312" lon="2.89129">
        <ele>1327</ele>
        <time>2016-12-30T14:30:45.008Z</time>
      </trkpt>
      <trkpt lat="45.00309" lon="2.89133">
        <ele>1327</ele>
        <time>2016-12-30T14:30:46.008Z</time>
      </trkpt>
      <trkpt lat="45.00304" lon="2.89144">
        <ele>1325.1320047103</ele>
        <time>2016-12-30T14:30:48.008Z</time>
      </trkpt>
      <trkpt lat="45.003" lon="2.89155">
        <ele>1324.1405958914</ele>
        <time>2016-12-30T14:30:50.008Z</time>
      </trkpt>
      <trkpt lat="45.00294" lon="2.89166">
        <ele>1324</ele>
        <time>2016-12-30T14:30:52.008Z</time>
      </trkpt>
      <trkpt lat="45.00288" lon="2.89177">
        <ele>1322.1320047103</ele>
        <time>2016-12-30T14:30:54.008Z</time>
      </trkpt>
      <trkpt lat="45.00283" lon="2.89186">
        <ele>1321</ele>
        <time>2016-12-30T14:30:56.008Z</time>
      </trkpt>
      <trkpt lat="45.00278" lon="2.89196">
        <ele>1319.1320047103</ele>
        <time>2016-12-30T14:30:58.008Z</time>
      </trkpt>
      <trkpt lat="45.00273" lon="2.89204">
        <ele>1318.1320047103</ele>
        <time>2016-12-30T14:31:00.008Z</time>
      </trkpt>
      <trkpt lat="45.0028" lon="2.89213">
        <ele>1319</ele>
        <time>2016-12-30T14:31:05.008Z</time>
      </trkpt>
      <trkpt lat="45.00288" lon="2.89217">
        <ele>1319</ele>
        <time>2016-12-30T14:31:08.008Z</time>
      </trkpt>
      <trkpt lat="45.00295" lon="2.89221">
        <ele>1320</ele>
        <time>2016-12-30T14:31:11.008Z</time>
      </trkpt>
      <trkpt lat="45.00302" lon="2.89224">
        <ele>1320</ele>
        <time>2016-12-30T14:31:14.008Z</time>
      </trkpt>
      <trkpt lat="45.00308" lon="2.89228">
        <ele>1320</ele>
        <time>2016-12-30T14:31:17.008Z</time>
      </trkpt>
      <trkpt lat="45.00314" lon="2.89232">
        <ele>1321.7188082173</ele>
        <time>2016-12-30T14:31:20.008Z</time>
      </trkpt>
      <trkpt lat="45.00319" lon="2.89237">
        <ele>1322</ele>
        <time>2016-12-30T14:31:23.008Z</time>
      </trkpt>
      <trkpt lat="45.00324" lon="2.89244">
        <ele>1322</ele>
        <time>2016-12-30T14:31:26.008Z</time>
      </trkpt>
      <trkpt lat="45.00328" lon="2.89248">
        <ele>1322</ele>
        <time>2016-12-30T14:31:28.008Z</time>
      </trkpt>
      <trkpt lat="45.00332" lon="2.89254">
        <ele>1325</ele>
        <time>2016-12-30T14:31:31.008Z</time>
      </trkpt>
      <trkpt lat="45.00334" lon="2.89259">
        <ele>1325</ele>
        <time>2016-12-30T14:31:33.008Z</time>
      </trkpt>
      <trkpt lat="45.00338" lon="2.89267">
        <ele>1325</ele>
        <time>2016-12-30T14:31:36.008Z</time>
      </trkpt>
      <trkpt lat="45.00341" lon="2.89275">
        <ele>1325</ele>
        <time>2016-12-30T14:31:39.008Z</time>
      </trkpt>
      <trkpt lat="45.00343" lon="2.8928">
        <ele>1326</ele>
        <time>2016-12-30T14:31:41.008Z</time>
      </trkpt>
      <trkpt lat="45.00347" lon="2.89286">
        <ele>1326</ele>
        <time>2016-12-30T14:31:43.008Z</time>
      </trkpt>
      <trkpt lat="45.00352" lon="2.89293">
        <ele>1326</ele>
        <time>2016-12-30T14:31:46.008Z</time>
      </trkpt>
      <trkpt lat="45.00356" lon="2.89299">
        <ele>1326</ele>
        <time>2016-12-30T14:31:49.008Z</time>
      </trkpt>
      <trkpt lat="45.00361" lon="2.89305">
        <ele>1327</ele>
        <time>2016-12-30T14:31:52.008Z</time>
      </trkpt>
      <trkpt lat="45.00365" lon="2.89311">
        <ele>1327</ele>
        <time>2016-12-30T14:31:55.008Z</time>
      </trkpt>
      <trkpt lat="45.00369" lon="2.89317">
        <ele>1327</ele>
        <time>2016-12-30T14:31:58.008Z</time>
      </trkpt>
      <trkpt lat="45.00373" lon="2.89324">
        <ele>1328</ele>
        <time>2016-12-30T14:32:01.008Z</time>
      </trkpt>
      <trkpt lat="45.00376" lon="2.89328">
        <ele>1328</ele>
        <time>2016-12-30T14:32:03.008Z</time>
      </trkpt>
      <trkpt lat="45.0038" lon="2.89335">
        <ele>1328</ele>
        <time>2016-12-30T14:32:06.008Z</time>
      </trkpt>
      <trkpt lat="45.00385" lon="2.89341">
        <ele>1328</ele>
        <time>2016-12-30T14:32:09.008Z</time>
      </trkpt>
      <trkpt lat="45.00389" lon="2.89347">
        <ele>1330</ele>
        <time>2016-12-30T14:32:12.008Z</time>
      </trkpt>
      <trkpt lat="45.00393" lon="2.89353">
        <ele>1330</ele>
        <time>2016-12-30T14:32:15.008Z</time>
      </trkpt>
      <trkpt lat="45.00397" lon="2.89359">
        <ele>1330</ele>
        <time>2016-12-30T14:32:18.008Z</time>
      </trkpt>
      <trkpt lat="45.00401" lon="2.89365">
        <ele>1332</ele>
        <time>2016-12-30T14:32:21.008Z</time>
      </trkpt>
      <trkpt lat="45.00405" lon="2.89371">
        <ele>1332</ele>
        <time>2016-12-30T14:32:24.008Z</time>
      </trkpt>
      <trkpt lat="45.00409" lon="2.89376">
        <ele>1332</ele>
        <time>2016-12-30T14:32:27.008Z</time>
      </trkpt>
      <trkpt lat="45.00414" lon="2.89382">
        <ele>1333.7359905793</ele>
        <time>2016-12-30T14:32:30.008Z</time>
      </trkpt>
      <trkpt lat="45.00417" lon="2.89388">
        <ele>1334</ele>
        <time>2016-12-30T14:32:33.008Z</time>
      </trkpt>
      <trkpt lat="45.00422" lon="2.89394">
        <ele>1334</ele>
        <time>2016-12-30T14:32:36.008Z</time>
      </trkpt>
      <trkpt lat="45.00427" lon="2.89402">
        <ele>1336.603985869</ele>
        <time>2016-12-30T14:32:40.008Z</time>
      </trkpt>
      <trkpt lat="45.00433" lon="2.89405">
        <ele>1337</ele>
        <time>2016-12-30T14:32:43.008Z</time>
      </trkpt>
      <trkpt lat="45.00438" lon="2.8941">
        <ele>1339</ele>
        <time>2016-12-30T14:32:46.008Z</time>
      </trkpt>
      <trkpt lat="45.00443" lon="2.89415">
        <ele>1339</ele>
        <time>2016-12-30T14:32:49.008Z</time>
      </trkpt>
      <trkpt lat="45.00446" lon="2.89418">
        <ele>1341</ele>
        <time>2016-12-30T14:32:51.008Z</time>
      </trkpt>
      <trkpt lat="45.00449" lon="2.89422">
        <ele>1341</ele>
        <time>2016-12-30T14:32:53.008Z</time>
      </trkpt>
      <trkpt lat="45.00453" lon="2.89427">
        <ele>1341</ele>
        <time>2016-12-30T14:32:56.008Z</time>
      </trkpt>
      <trkpt lat="45.00458" lon="2.89432">
        <ele>1341</ele>
        <time>2016-12-30T14:32:59.008Z</time>
      </trkpt>
      <trkpt lat="45.00463" lon="2.89438">
        <ele>1341</ele>
        <time>2016-12-30T14:33:03.008Z</time>
      </trkpt>
      <trkpt lat="45.00471" lon="2.89446">
        <ele>1341</ele>
        <time>2016-12-30T14:33:08.008Z</time>
      </trkpt>
      <trkpt lat="45.00477" lon="2.89451">
        <ele>1343</ele>
        <time>2016-12-30T14:33:12.008Z</time>
      </trkpt>
      <trkpt lat="45.00481" lon="2.89456">
        <ele>1343</ele>
        <time>2016-12-30T14:33:15.008Z</time>
      </trkpt>
      <trkpt lat="45.00485" lon="2.8946">
        <ele>1343</ele>
        <time>2016-12-30T14:33:18.008Z</time>
      </trkpt>
      <trkpt lat="45.00489" lon="2.89465">
        <ele>1344</ele>
        <time>2016-12-30T14:33:21.008Z</time>
      </trkpt>
      <trkpt lat="45.00496" lon="2.89473">
        <ele>1344</ele>
        <time>2016-12-30T14:33:26.008Z</time>
      </trkpt>
      <trkpt lat="45.00502" lon="2.89479">
        <ele>1344</ele>
        <time>2016-12-30T14:33:29.008Z</time>
      </trkpt>
      <trkpt lat="45.00509" lon="2.89483">
        <ele>1344</ele>
        <time>2016-12-30T14:33:32.008Z</time>
      </trkpt>
      <trkpt lat="45.00514" lon="2.89485">
        <ele>1344</ele>
        <time>2016-12-30T14:33:34.008Z</time>
      </trkpt>
      <trkpt lat="45.00518" lon="2.89485">
        <ele>1344</ele>
        <time>2016-12-30T14:33:36.008Z</time>
      </trkpt>
      <trkpt lat="45.00527" lon="2.89486">
        <ele>1344</ele>
        <time>2016-12-30T14:33:40.008Z</time>
      </trkpt>
      <trkpt lat="45.00534" lon="2.89486">
        <ele>1344</ele>
        <time>2016-12-30T14:33:43.008Z</time>
      </trkpt>
      <trkpt lat="45.00538" lon="2.89491">
        <ele>1344</ele>
        <time>2016-12-30T14:34:06.008Z</time>
      </trkpt>
      <trkpt lat="45.00532" lon="2.89486">
        <ele>1345</ele>
        <time>2016-12-30T14:42:04.008Z</time>
      </trkpt>
      <trkpt lat="45.00525" lon="2.89485">
        <ele>1345</ele>
        <time>2016-12-30T14:42:07.008Z</time>
      </trkpt>
      <trkpt lat="45.00518" lon="2.89485">
        <ele>1345.8679952897</ele>
        <time>2016-12-30T14:42:10.008Z</time>
      </trkpt>
      <trkpt lat="45.00511" lon="2.89484">
        <ele>1346</ele>
        <time>2016-12-30T14:42:12.008Z</time>
      </trkpt>
      <trkpt lat="45.00505" lon="2.89481">
        <ele>1346</ele>
        <time>2016-12-30T14:42:14.008Z</time>
      </trkpt>
      <trkpt lat="45.00496" lon="2.89476">
        <ele>1346</ele>
        <time>2016-12-30T14:42:17.008Z</time>
      </trkpt>
      <trkpt lat="45.00489" lon="2.89469">
        <ele>1346</ele>
        <time>2016-12-30T14:42:20.008Z</time>
      </trkpt>
      <trkpt lat="45.00484" lon="2.89463">
        <ele>1346</ele>
        <time>2016-12-30T14:42:22.008Z</time>
      </trkpt>
      <trkpt lat="45.00477" lon="2.89455">
        <ele>1346</ele>
        <time>2016-12-30T14:42:25.008Z</time>
      </trkpt>
      <trkpt lat="45.00468" lon="2.89445">
        <ele>1346</ele>
        <time>2016-12-30T14:42:28.008Z</time>
      </trkpt>
      <trkpt lat="45.00461" lon="2.89438">
        <ele>1344.2640094207</ele>
        <time>2016-12-30T14:42:30.008Z</time>
      </trkpt>
      <trkpt lat="45.00455" lon="2.8943">
        <ele>1344</ele>
        <time>2016-12-30T14:42:32.008Z</time>
      </trkpt>
      <trkpt lat="45.00448" lon="2.89422">
        <ele>1344</ele>
        <time>2016-12-30T14:42:34.008Z</time>
      </trkpt>
      <trkpt lat="45.00442" lon="2.89413">
        <ele>1344</ele>
        <time>2016-12-30T14:42:36.008Z</time>
      </trkpt>
      <trkpt lat="45.00435" lon="2.89404">
        <ele>1344</ele>
        <time>2016-12-30T14:42:38.008Z</time>
      </trkpt>
      <trkpt lat="45.00425" lon="2.89396">
        <ele>1339.7450933641</ele>
        <time>2016-12-30T14:42:40.008Z</time>
      </trkpt>
      <trkpt lat="45.00414" lon="2.89385">
        <ele>1336</ele>
        <time>2016-12-30T14:42:42.008Z</time>
      </trkpt>
      <trkpt lat="45.00404" lon="2.89371">
        <ele>1335</ele>
        <time>2016-12-30T14:42:44.008Z</time>
      </trkpt>
      <trkpt lat="45.00398" lon="2.89363">
        <ele>1334.1333281616</ele>
        <time>2016-12-30T14:42:45.008Z</time>
      </trkpt>
      <trkpt lat="45.00393" lon="2.89356">
        <ele>1333.1320047103</ele>
        <time>2016-12-30T14:42:46.008Z</time>
      </trkpt>
      <trkpt lat="45.00387" lon="2.89348">
        <ele>1332.1319952895</ele>
        <time>2016-12-30T14:42:47.008Z</time>
      </trkpt>
      <trkpt lat="45.00382" lon="2.8934">
        <ele>1331.1320047103</ele>
        <time>2016-12-30T14:42:48.008Z</time>
      </trkpt>
      <trkpt lat="45.00376" lon="2.89332">
        <ele>1331</ele>
        <time>2016-12-30T14:42:49.008Z</time>
      </trkpt>
      <trkpt lat="45.00371" lon="2.89323">
        <ele>1330.1405958914</ele>
        <time>2016-12-30T14:42:50.008Z</time>
      </trkpt>
      <trkpt lat="45.00366" lon="2.89315">
        <ele>1329.1333281616</ele>
        <time>2016-12-30T14:42:51.008Z</time>
      </trkpt>
      <trkpt lat="45.00361" lon="2.89307">
        <ele>1329</ele>
        <time>2016-12-30T14:42:52.008Z</time>
      </trkpt>
      <trkpt lat="45.00355" lon="2.893">
        <ele>1328.1319952895</ele>
        <time>2016-12-30T14:42:53.008Z</time>
      </trkpt>
      <trkpt lat="45.0035" lon="2.89293">
        <ele>1327.1320047103</ele>
        <time>2016-12-30T14:42:54.008Z</time>
      </trkpt>
      <trkpt lat="45.00345" lon="2.89285">
        <ele>1327.8680047105</ele>
        <time>2016-12-30T14:42:55.008Z</time>
      </trkpt>
      <trkpt lat="45.0034" lon="2.89278">
        <ele>1328</ele>
        <time>2016-12-30T14:42:56.008Z</time>
      </trkpt>
      <trkpt lat="45.00336" lon="2.89271">
        <ele>1327.1333281616</ele>
        <time>2016-12-30T14:42:57.008Z</time>
      </trkpt>
      <trkpt lat="45.00333" lon="2.89263">
        <ele>1326.1320047103</ele>
        <time>2016-12-30T14:42:58.008Z</time>
      </trkpt>
      <trkpt lat="45.0033" lon="2.89256">
        <ele>1326</ele>
        <time>2016-12-30T14:42:59.008Z</time>
      </trkpt>
      <trkpt lat="45.00327" lon="2.89249">
        <ele>1325.1320047103</ele>
        <time>2016-12-30T14:43:00.008Z</time>
      </trkpt>
      <trkpt lat="45.00323" lon="2.89242">
        <ele>1325</ele>
        <time>2016-12-30T14:43:01.008Z</time>
      </trkpt>
      <trkpt lat="45.00318" lon="2.89236">
        <ele>1325</ele>
        <time>2016-12-30T14:43:02.008Z</time>
      </trkpt>
      <trkpt lat="45.00312" lon="2.8923">
        <ele>1325</ele>
        <time>2016-12-30T14:43:03.008Z</time>
      </trkpt>
      <trkpt lat="45.00307" lon="2.89225">
        <ele>1325</ele>
        <time>2016-12-30T14:43:04.008Z</time>
      </trkpt>
      <trkpt lat="45.003" lon="2.89221">
        <ele>1322.3959858686</ele>
        <time>2016-12-30T14:43:05.008Z</time>
      </trkpt>
      <trkpt lat="45.00293" lon="2.89217">
        <ele>1322</ele>
        <time>2016-12-30T14:43:06.008Z</time>
      </trkpt>
      <trkpt lat="45.00287" lon="2.89214">
        <ele>1322</ele>
        <time>2016-12-30T14:43:07.008Z</time>
      </trkpt>
      <trkpt lat="45.00281" lon="2.89212">
        <ele>1322</ele>
        <time>2016-12-30T14:43:08.008Z</time>
      </trkpt>
      <trkpt lat="45.00275" lon="2.89209">
        <ele>1322</ele>
        <time>2016-12-30T14:43:09.008Z</time>
      </trkpt>
      <trkpt lat="45.00271" lon="2.89207">
        <ele>1320.2640094207</ele>
        <time>2016-12-30T14:43:10.008Z</time>
      </trkpt>
      <trkpt lat="45.00267" lon="2.89206">
        <ele>1318.2639905791</ele>
        <time>2016-12-30T14:43:11.008Z</time>
      </trkpt>
      <trkpt lat="45.00263" lon="2.89208">
        <ele>1317</ele>
        <time>2016-12-30T14:43:13.008Z</time>
      </trkpt>
      <trkpt lat="45.0026" lon="2.89211">
        <ele>1317</ele>
        <time>2016-12-30T14:43:16.008Z</time>
      </trkpt>
      <trkpt lat="45.00256" lon="2.89214">
        <ele>1317</ele>
        <time>2016-12-30T14:43:46.008Z</time>
      </trkpt>
      <trkpt lat="45.00251" lon="2.89218">
        <ele>1317</ele>
        <time>2016-12-30T14:43:48.008Z</time>
      </trkpt>
      <trkpt lat="45.00247" lon="2.89221">
        <ele>1317</ele>
        <time>2016-12-30T14:43:49.008Z</time>
      </trkpt>
      <trkpt lat="45.00242" lon="2.89225">
        <ele>1313.5623835655</ele>
        <time>2016-12-30T14:43:50.008Z</time>
      </trkpt>
      <trkpt lat="45.00237" lon="2.8923">
        <ele>1313</ele>
        <time>2016-12-30T14:43:51.008Z</time>
      </trkpt>
      <trkpt lat="45.00232" lon="2.89234">
        <ele>1313</ele>
        <time>2016-12-30T14:43:52.008Z</time>
      </trkpt>
      <trkpt lat="45.00226" lon="2.89239">
        <ele>1313</ele>
        <time>2016-12-30T14:43:53.008Z</time>
      </trkpt>
      <trkpt lat="45.00219" lon="2.89244">
        <ele>1313</ele>
        <time>2016-12-30T14:43:54.008Z</time>
      </trkpt>
      <trkpt lat="45.00213" lon="2.89249">
        <ele>1309.5279811582</ele>
        <time>2016-12-30T14:43:55.008Z</time>
      </trkpt>
      <trkpt lat="45.00206" lon="2.89255">
        <ele>1309</ele>
        <time>2016-12-30T14:43:56.008Z</time>
      </trkpt>
      <trkpt lat="45.002" lon="2.89262">
        <ele>1309</ele>
        <time>2016-12-30T14:43:57.008Z</time>
      </trkpt>
      <trkpt lat="45.00194" lon="2.8927">
        <ele>1309</ele>
        <time>2016-12-30T14:43:58.008Z</time>
      </trkpt>
      <trkpt lat="45.00188" lon="2.89278">
        <ele>1309</ele>
        <time>2016-12-30T14:43:59.008Z</time>
      </trkpt>
      <trkpt lat="45.00183" lon="2.89287">
        <ele>1302.0560376827</ele>
        <time>2016-12-30T14:44:00.008Z</time>
      </trkpt>
      <trkpt lat="45.00178" lon="2.89297">
        <ele>1301</ele>
        <time>2016-12-30T14:44:01.008Z</time>
      </trkpt>
      <trkpt lat="45.00174" lon="2.89308">
        <ele>1301</ele>
        <time>2016-12-30T14:44:02.008Z</time>
      </trkpt>
      <trkpt lat="45.00171" lon="2.8932">
        <ele>1300.1333281616</ele>
        <time>2016-12-30T14:44:03.008Z</time>
      </trkpt>
      <trkpt lat="45.00168" lon="2.89332">
        <ele>1299.1490186728</ele>
        <time>2016-12-30T14:44:04.008Z</time>
      </trkpt>
      <trkpt lat="45.00165" lon="2.89344">
        <ele>1299.8653117735</ele>
        <time>2016-12-30T14:44:05.008Z</time>
      </trkpt>
      <trkpt lat="45.00161" lon="2.89356">
        <ele>1299.1320047103</ele>
        <time>2016-12-30T14:44:06.008Z</time>
      </trkpt>
      <trkpt lat="45.00157" lon="2.89368">
        <ele>1298.1319952895</ele>
        <time>2016-12-30T14:44:07.008Z</time>
      </trkpt>
      <trkpt lat="45.00154" lon="2.8938">
        <ele>1298</ele>
        <time>2016-12-30T14:44:08.008Z</time>
      </trkpt>
      <trkpt lat="45.0015" lon="2.89392">
        <ele>1298</ele>
        <time>2016-12-30T14:44:09.008Z</time>
      </trkpt>
      <trkpt lat="45.00147" lon="2.89403">
        <ele>1298</ele>
        <time>2016-12-30T14:44:10.008Z</time>
      </trkpt>
      <trkpt lat="45.00144" lon="2.89415">
        <ele>1298</ele>
        <time>2016-12-30T14:44:11.008Z</time>
      </trkpt>
      <trkpt lat="45.00141" lon="2.89426">
        <ele>1298</ele>
        <time>2016-12-30T14:44:12.008Z</time>
      </trkpt>
      <trkpt lat="45.00139" lon="2.89437">
        <ele>1298</ele>
        <time>2016-12-30T14:44:13.008Z</time>
      </trkpt>
      <trkpt lat="45.00137" lon="2.89447">
        <ele>1298</ele>
        <time>2016-12-30T14:44:14.008Z</time>
      </trkpt>
      <trkpt lat="45.00134" lon="2.89458">
        <ele>1294.5333126463</ele>
        <time>2016-12-30T14:44:15.008Z</time>
      </trkpt>
      <trkpt lat="45.00131" lon="2.89468">
        <ele>1294</ele>
        <time>2016-12-30T14:44:16.008Z</time>
      </trkpt>
      <trkpt lat="45.00128" lon="2.89478">
        <ele>1294</ele>
        <time>2016-12-30T14:44:17.008Z</time>
      </trkpt>
      <trkpt lat="45.00124" lon="2.89487">
        <ele>1294</ele>
        <time>2016-12-30T14:44:18.008Z</time>
      </trkpt>
      <trkpt lat="45.00121" lon="2.89496">
        <ele>1294</ele>
        <time>2016-12-30T14:44:19.008Z</time>
      </trkpt>
      <trkpt lat="45.00118" lon="2.89505">
        <ele>1294</ele>
        <time>2016-12-30T14:44:20.008Z</time>
      </trkpt>
      <trkpt lat="45.00115" lon="2.89514">
        <ele>1294</ele>
        <time>2016-12-30T14:44:21.008Z</time>
      </trkpt>
      <trkpt lat="45.00111" lon="2.89522">
        <ele>1294</ele>
        <time>2016-12-30T14:44:22.008Z</time>
      </trkpt>
      <trkpt lat="45.00107" lon="2.8953">
        <ele>1294</ele>
        <time>2016-12-30T14:44:23.008Z</time>
      </trkpt>
      <trkpt lat="45.00103" lon="2.89538">
        <ele>1294</ele>
        <time>2016-12-30T14:44:24.008Z</time>
      </trkpt>
      <trkpt lat="45.00098" lon="2.89545">
        <ele>1294</ele>
        <time>2016-12-30T14:44:25.008Z</time>
      </trkpt>
      <trkpt lat="45.00093" lon="2.89552">
        <ele>1294</ele>
        <time>2016-12-30T14:44:26.008Z</time>
      </trkpt>
      <trkpt lat="45.00088" lon="2.89558">
        <ele>1294</ele>
        <time>2016-12-30T14:44:27.008Z</time>
      </trkpt>
      <trkpt lat="45.00084" lon="2.89565">
        <ele>1294</ele>
        <time>2016-12-30T14:44:28.008Z</time>
      </trkpt>
      <trkpt lat="45.0008" lon="2.89573">
        <ele>1294</ele>
        <time>2016-12-30T14:44:29.008Z</time>
      </trkpt>
      <trkpt lat="45.00076" lon="2.89581">
        <ele>1293.1320047103</ele>
        <time>2016-12-30T14:44:30.008Z</time>
      </trkpt>
      <trkpt lat="45.00072" lon="2.89588">
        <ele>1293</ele>
        <time>2016-12-30T14:44:31.008Z</time>
      </trkpt>
      <trkpt lat="45.00068" lon="2.89596">
        <ele>1293</ele>
        <time>2016-12-30T14:44:32.008Z</time>
      </trkpt>
      <trkpt lat="45.00064" lon="2.89604">
        <ele>1293</ele>
        <time>2016-12-30T14:44:33.008Z</time>
      </trkpt>
      <trkpt lat="45.00059" lon="2.89611">
        <ele>1293</ele>
        <time>2016-12-30T14:44:34.008Z</time>
      </trkpt>
      <trkpt lat="45.00053" lon="2.89616">
        <ele>1293</ele>
        <time>2016-12-30T14:44:35.008Z</time>
      </trkpt>
      <trkpt lat="45.00047" lon="2.89621">
        <ele>1293</ele>
        <time>2016-12-30T14:44:36.008Z</time>
      </trkpt>
      <trkpt lat="45.0004" lon="2.89625">
        <ele>1293</ele>
        <time>2016-12-30T14:44:37.008Z</time>
      </trkpt>
      <trkpt lat="45.00033" lon="2.89629">
        <ele>1293</ele>
        <time>2016-12-30T14:44:38.008Z</time>
      </trkpt>
      <trkpt lat="45.00025" lon="2.89632">
        <ele>1293</ele>
        <time>2016-12-30T14:44:39.008Z</time>
      </trkpt>
      <trkpt lat="45.00017" lon="2.89635">
        <ele>1287.792028262</ele>
        <time>2016-12-30T14:44:40.008Z</time>
      </trkpt>
      <trkpt lat="45.00009" lon="2.89637">
        <ele>1284.3959858686</ele>
        <time>2016-12-30T14:44:41.008Z</time>
      </trkpt>
      <trkpt lat="45" lon="2.89638">
        <ele>1283.1320047103</ele>
        <time>2016-12-30T14:44:42.008Z</time>
      </trkpt>
      <trkpt lat="44.99991" lon="2.8964">
        <ele>1283</ele>
        <time>2016-12-30T14:44:43.008Z</time>
      </trkpt>
      <trkpt lat="44.99983" lon="2.89643">
        <ele>1281.2811917827</ele>
        <time>2016-12-30T14:44:44.008Z</time>
      </trkpt>
      <trkpt lat="44.99974" lon="2.89645">
        <ele>1280.1333281616</ele>
        <time>2016-12-30T14:44:45.008Z</time>
      </trkpt>
      <trkpt lat="44.99966" lon="2.89647">
        <ele>1279.1320047103</ele>
        <time>2016-12-30T14:44:46.008Z</time>
      </trkpt>
      <trkpt lat="44.99958" lon="2.89648">
        <ele>1278.1319952895</ele>
        <time>2016-12-30T14:44:47.008Z</time>
      </trkpt>
      <trkpt lat="44.9995" lon="2.89651">
        <ele>1278</ele>
        <time>2016-12-30T14:44:48.008Z</time>
      </trkpt>
      <trkpt lat="44.99942" lon="2.89653">
        <ele>1278</ele>
        <time>2016-12-30T14:44:49.008Z</time>
      </trkpt>
      <trkpt lat="44.99935" lon="2.89656">
        <ele>1278</ele>
        <time>2016-12-30T14:44:50.008Z</time>
      </trkpt>
      <trkpt lat="44.99928" lon="2.89659">
        <ele>1277.1333281616</ele>
        <time>2016-12-30T14:44:51.008Z</time>
      </trkpt>
      <trkpt lat="44.99921" lon="2.89662">
        <ele>1277</ele>
        <time>2016-12-30T14:44:52.008Z</time>
      </trkpt>
      <trkpt lat="44.99914" lon="2.89665">
        <ele>1277</ele>
        <time>2016-12-30T14:44:53.008Z</time>
      </trkpt>
      <trkpt lat="44.99909" lon="2.89669">
        <ele>1276.1320047103</ele>
        <time>2016-12-30T14:44:54.008Z</time>
      </trkpt>
      <trkpt lat="44.99906" lon="2.89674">
        <ele>1277.7360094209</ele>
        <time>2016-12-30T14:44:55.008Z</time>
      </trkpt>
      <trkpt lat="44.99905" lon="2.89679">
        <ele>1278</ele>
        <time>2016-12-30T14:44:56.008Z</time>
      </trkpt>
      <trkpt lat="44.99907" lon="2.89688">
        <ele>1277</ele>
        <time>2016-12-30T14:44:58.008Z</time>
      </trkpt>
      <trkpt lat="44.99909" lon="2.89692">
        <ele>1277</ele>
        <time>2016-12-30T14:45:01.008Z</time>
      </trkpt>
      <trkpt lat="44.99912" lon="2.89697">
        <ele>1277</ele>
        <time>2016-12-30T14:45:22.008Z</time>
      </trkpt>
      <trkpt lat="44.99916" lon="2.89704">
        <ele>1277</ele>
        <time>2016-12-30T14:45:25.008Z</time>
      </trkpt>
      <trkpt lat="44.9992" lon="2.8971">
        <ele>1277</ele>
        <time>2016-12-30T14:45:27.008Z</time>
      </trkpt>
      <trkpt lat="44.99923" lon="2.89718">
        <ele>1277</ele>
        <time>2016-12-30T14:45:29.008Z</time>
      </trkpt>
      <trkpt lat="44.99928" lon="2.89726">
        <ele>1278</ele>
        <time>2016-12-30T14:45:31.008Z</time>
      </trkpt>
      <trkpt lat="44.99931" lon="2.89731">
        <ele>1278</ele>
        <time>2016-12-30T14:45:32.008Z</time>
      </trkpt>
      <trkpt lat="44.99933" lon="2.89736">
        <ele>1278</ele>
        <time>2016-12-30T14:45:33.008Z</time>
      </trkpt>
      <trkpt lat="44.99936" lon="2.89741">
        <ele>1278</ele>
        <time>2016-12-30T14:45:34.008Z</time>
      </trkpt>
      <trkpt lat="44.99939" lon="2.89746">
        <ele>1278</ele>
        <time>2016-12-30T14:45:35.008Z</time>
      </trkpt>
      <trkpt lat="44.99941" lon="2.89751">
        <ele>1278</ele>
        <time>2016-12-30T14:45:36.008Z</time>
      </trkpt>
      <trkpt lat="44.99944" lon="2.89756">
        <ele>1278</ele>
        <time>2016-12-30T14:45:37.008Z</time>
      </trkpt>
      <trkpt lat="44.99946" lon="2.89761">
        <ele>1278</ele>
        <time>2016-12-30T14:45:38.008Z</time>
      </trkpt>
      <trkpt lat="44.99949" lon="2.89766">
        <ele>1278</ele>
        <time>2016-12-30T14:45:39.008Z</time>
      </trkpt>
      <trkpt lat="44.99951" lon="2.89771">
        <ele>1279.7359905793</ele>
        <time>2016-12-30T14:45:40.008Z</time>
      </trkpt>
      <trkpt lat="44.99953" lon="2.89776">
        <ele>1280</ele>
        <time>2016-12-30T14:45:41.008Z</time>
      </trkpt>
      <trkpt lat="44.99956" lon="2.89781">
        <ele>1280</ele>
        <time>2016-12-30T14:45:42.008Z</time>
      </trkpt>
      <trkpt lat="44.99958" lon="2.89786">
        <ele>1280</ele>
        <time>2016-12-30T14:45:43.008Z</time>
      </trkpt>
      <trkpt lat="44.9996" lon="2.89792">
        <ele>1280</ele>
        <time>2016-12-30T14:45:44.008Z</time>
      </trkpt>
      <trkpt lat="44.99963" lon="2.89797">
        <ele>1280</ele>
        <time>2016-12-30T14:45:45.008Z</time>
      </trkpt>
      <trkpt lat="44.99965" lon="2.89802">
        <ele>1280</ele>
        <time>2016-12-30T14:45:46.008Z</time>
      </trkpt>
      <trkpt lat="44.99968" lon="2.89807">
        <ele>1280</ele>
        <time>2016-12-30T14:45:47.008Z</time>
      </trkpt>
      <trkpt lat="44.9997" lon="2.89812">
        <ele>1280</ele>
        <time>2016-12-30T14:45:48.008Z</time>
      </trkpt>
      <trkpt lat="44.99973" lon="2.89816">
        <ele>1280</ele>
        <time>2016-12-30T14:45:49.008Z</time>
      </trkpt>
      <trkpt lat="44.99976" lon="2.89821">
        <ele>1281.7188082173</ele>
        <time>2016-12-30T14:45:50.008Z</time>
      </trkpt>
      <trkpt lat="44.99979" lon="2.89826">
        <ele>1282</ele>
        <time>2016-12-30T14:45:51.008Z</time>
      </trkpt>
      <trkpt lat="44.99982" lon="2.8983">
        <ele>1282</ele>
        <time>2016-12-30T14:45:52.008Z</time>
      </trkpt>
      <trkpt lat="44.99985" lon="2.89835">
        <ele>1282</ele>
        <time>2016-12-30T14:45:53.008Z</time>
      </trkpt>
      <trkpt lat="44.99988" lon="2.89839">
        <ele>1282</ele>
        <time>2016-12-30T14:45:54.008Z</time>
      </trkpt>
      <trkpt lat="44.99991" lon="2.89843">
        <ele>1282</ele>
        <time>2016-12-30T14:45:55.008Z</time>
      </trkpt>
      <trkpt lat="44.99994" lon="2.89847">
        <ele>1282</ele>
        <time>2016-12-30T14:45:56.008Z</time>
      </trkpt>
      <trkpt lat="44.99997" lon="2.89851">
        <ele>1282</ele>
        <time>2016-12-30T14:45:57.008Z</time>
      </trkpt>
      <trkpt lat="45.00004" lon="2.89859">
        <ele>1282</ele>
        <time>2016-12-30T14:45:59.008Z</time>
      </trkpt>
      <trkpt lat="45.00008" lon="2.89863">
        <ele>1282</ele>
        <time>2016-12-30T14:46:00.008Z</time>
      </trkpt>
      <trkpt lat="45.00012" lon="2.89867">
        <ele>1282</ele>
        <time>2016-12-30T14:46:01.008Z</time>
      </trkpt>
      <trkpt lat="45.00016" lon="2.89871">
        <ele>1282</ele>
        <time>2016-12-30T14:46:02.008Z</time>
      </trkpt>
      <trkpt lat="45.00021" lon="2.89875">
        <ele>1282</ele>
        <time>2016-12-30T14:46:03.008Z</time>
      </trkpt>
      <trkpt lat="45.00026" lon="2.89878">
        <ele>1282</ele>
        <time>2016-12-30T14:46:04.008Z</time>
      </trkpt>
      <trkpt lat="45.0003" lon="2.89881">
        <ele>1282</ele>
        <time>2016-12-30T14:46:05.008Z</time>
      </trkpt>
      <trkpt lat="45.00035" lon="2.89883">
        <ele>1282</ele>
        <time>2016-12-30T14:46:06.008Z</time>
      </trkpt>
      <trkpt lat="45.0004" lon="2.89886">
        <ele>1282</ele>
        <time>2016-12-30T14:46:07.008Z</time>
      </trkpt>
      <trkpt lat="45.00045" lon="2.89888">
        <ele>1282</ele>
        <time>2016-12-30T14:46:08.008Z</time>
      </trkpt>
      <trkpt lat="45.00051" lon="2.8989">
        <ele>1282</ele>
        <time>2016-12-30T14:46:09.008Z</time>
      </trkpt>
      <trkpt lat="45.00056" lon="2.89892">
        <ele>1281.1320047103</ele>
        <time>2016-12-30T14:46:10.008Z</time>
      </trkpt>
      <trkpt lat="45.00063" lon="2.89895">
        <ele>1281</ele>
        <time>2016-12-30T14:46:11.008Z</time>
      </trkpt>
      <trkpt lat="45.00069" lon="2.89898">
        <ele>1281</ele>
        <time>2016-12-30T14:46:12.008Z</time>
      </trkpt>
      <trkpt lat="45.00075" lon="2.89901">
        <ele>1281</ele>
        <time>2016-12-30T14:46:13.008Z</time>
      </trkpt>
      <trkpt lat="45.00082" lon="2.89904">
        <ele>1281</ele>
        <time>2016-12-30T14:46:14.008Z</time>
      </trkpt>
      <trkpt lat="45.00089" lon="2.89907">
        <ele>1281</ele>
        <time>2016-12-30T14:46:15.008Z</time>
      </trkpt>
      <trkpt lat="45.00096" lon="2.89911">
        <ele>1281</ele>
        <time>2016-12-30T14:46:16.008Z</time>
      </trkpt>
      <trkpt lat="45.00104" lon="2.89915">
        <ele>1281</ele>
        <time>2016-12-30T14:46:17.008Z</time>
      </trkpt>
      <trkpt lat="45.00111" lon="2.89919">
        <ele>1281</ele>
        <time>2016-12-30T14:46:18.008Z</time>
      </trkpt>
      <trkpt lat="45.00119" lon="2.89923">
        <ele>1281</ele>
        <time>2016-12-30T14:46:19.008Z</time>
      </trkpt>
      <trkpt lat="45.00127" lon="2.89928">
        <ele>1278.4217876741</ele>
        <time>2016-12-30T14:46:20.008Z</time>
      </trkpt>
      <trkpt lat="45.00135" lon="2.89932">
        <ele>1278</ele>
        <time>2016-12-30T14:46:21.008Z</time>
      </trkpt>
      <trkpt lat="45.00143" lon="2.89937">
        <ele>1278</ele>
        <time>2016-12-30T14:46:22.008Z</time>
      </trkpt>
      <trkpt lat="45.00151" lon="2.89941">
        <ele>1278</ele>
        <time>2016-12-30T14:46:23.008Z</time>
      </trkpt>
      <trkpt lat="45.00159" lon="2.89945">
        <ele>1278</ele>
        <time>2016-12-30T14:46:24.008Z</time>
      </trkpt>
      <trkpt lat="45.00167" lon="2.89949">
        <ele>1275.3959858686</ele>
        <time>2016-12-30T14:46:25.008Z</time>
      </trkpt>
      <trkpt lat="45.00176" lon="2.89952">
        <ele>1275</ele>
        <time>2016-12-30T14:46:26.008Z</time>
      </trkpt>
      <trkpt lat="45.00183" lon="2.89956">
        <ele>1275</ele>
        <time>2016-12-30T14:46:27.008Z</time>
      </trkpt>
      <trkpt lat="45.00191" lon="2.8996">
        <ele>1275</ele>
        <time>2016-12-30T14:46:28.008Z</time>
      </trkpt>
      <trkpt lat="45.00205" lon="2.89969">
        <ele>1273.2640094207</ele>
        <time>2016-12-30T14:46:30.008Z</time>
      </trkpt>
      <trkpt lat="45.00212" lon="2.89973">
        <ele>1273</ele>
        <time>2016-12-30T14:46:31.008Z</time>
      </trkpt>
      <trkpt lat="45.00219" lon="2.89978">
        <ele>1273</ele>
        <time>2016-12-30T14:46:32.008Z</time>
      </trkpt>
      <trkpt lat="45.00233" lon="2.89986">
        <ele>1273</ele>
        <time>2016-12-30T14:46:34.008Z</time>
      </trkpt>
      <trkpt lat="45.00245" lon="2.89996">
        <ele>1272</ele>
        <time>2016-12-30T14:46:36.008Z</time>
      </trkpt>
      <trkpt lat="45.00257" lon="2.90006">
        <ele>1272</ele>
        <time>2016-12-30T14:46:38.008Z</time>
      </trkpt>
      <trkpt lat="45.00269" lon="2.90015">
        <ele>1271.1320047103</ele>
        <time>2016-12-30T14:46:40.008Z</time>
      </trkpt>
      <trkpt lat="45.00281" lon="2.90024">
        <ele>1271</ele>
        <time>2016-12-30T14:46:42.008Z</time>
      </trkpt>
      <trkpt lat="45.00293" lon="2.90031">
        <ele>1271</ele>
        <time>2016-12-30T14:46:44.008Z</time>
      </trkpt>
      <trkpt lat="45.00299" lon="2.90034">
        <ele>1271</ele>
        <time>2016-12-30T14:46:45.008Z</time>
      </trkpt>
      <trkpt lat="45.00311" lon="2.90042">
        <ele>1271</ele>
        <time>2016-12-30T14:46:47.008Z</time>
      </trkpt>
      <trkpt lat="45.00316" lon="2.90047">
        <ele>1271</ele>
        <time>2016-12-30T14:46:48.008Z</time>
      </trkpt>
      <trkpt lat="45.00321" lon="2.90053">
        <ele>1271</ele>
        <time>2016-12-30T14:46:49.008Z</time>
      </trkpt>
      <trkpt lat="45.00331" lon="2.90066">
        <ele>1269</ele>
        <time>2016-12-30T14:46:51.008Z</time>
      </trkpt>
      <trkpt lat="45.00336" lon="2.90072">
        <ele>1269</ele>
        <time>2016-12-30T14:46:52.008Z</time>
      </trkpt>
      <trkpt lat="45.00345" lon="2.90085">
        <ele>1269</ele>
        <time>2016-12-30T14:46:54.008Z</time>
      </trkpt>
      <trkpt lat="45.00354" lon="2.90098">
        <ele>1269</ele>
        <time>2016-12-30T14:46:56.008Z</time>
      </trkpt>
      <trkpt lat="45.00364" lon="2.9011">
        <ele>1269</ele>
        <time>2016-12-30T14:46:58.008Z</time>
      </trkpt>
      <trkpt lat="45.00369" lon="2.90116">
        <ele>1269</ele>
        <time>2016-12-30T14:46:59.008Z</time>
      </trkpt>
      <trkpt lat="45.0038" lon="2.90128">
        <ele>1266</ele>
        <time>2016-12-30T14:47:01.008Z</time>
      </trkpt>
      <trkpt lat="45.00386" lon="2.90134">
        <ele>1266</ele>
        <time>2016-12-30T14:47:02.008Z</time>
      </trkpt>
      <trkpt lat="45.00392" lon="2.90141">
        <ele>1266</ele>
        <time>2016-12-30T14:47:03.008Z</time>
      </trkpt>
      <trkpt lat="45.00398" lon="2.90147">
        <ele>1266</ele>
        <time>2016-12-30T14:47:04.008Z</time>
      </trkpt>
      <trkpt lat="45.00405" lon="2.90154">
        <ele>1264.2639905791</ele>
        <time>2016-12-30T14:47:05.008Z</time>
      </trkpt>
      <trkpt lat="45.00413" lon="2.9016">
        <ele>1264</ele>
        <time>2016-12-30T14:47:06.008Z</time>
      </trkpt>
      <trkpt lat="45.0042" lon="2.90166">
        <ele>1264</ele>
        <time>2016-12-30T14:47:07.008Z</time>
      </trkpt>
      <trkpt lat="45.00428" lon="2.90172">
        <ele>1264</ele>
        <time>2016-12-30T14:47:08.008Z</time>
      </trkpt>
      <trkpt lat="45.00436" lon="2.90178">
        <ele>1264</ele>
        <time>2016-12-30T14:47:09.008Z</time>
      </trkpt>
      <trkpt lat="45.00444" lon="2.90184">
        <ele>1261.396014131</ele>
        <time>2016-12-30T14:47:10.008Z</time>
      </trkpt>
      <trkpt lat="45.00453" lon="2.90191">
        <ele>1259.2639905791</ele>
        <time>2016-12-30T14:47:11.008Z</time>
      </trkpt>
      <trkpt lat="45.00463" lon="2.90198">
        <ele>1259</ele>
        <time>2016-12-30T14:47:12.008Z</time>
      </trkpt>
      <trkpt lat="45.00472" lon="2.90206">
        <ele>1258.1319952895</ele>
        <time>2016-12-30T14:47:13.008Z</time>
      </trkpt>
      <trkpt lat="45.00481" lon="2.90213">
        <ele>1258</ele>
        <time>2016-12-30T14:47:14.008Z</time>
      </trkpt>
      <trkpt lat="45.00489" lon="2.90221">
        <ele>1257.1333281616</ele>
        <time>2016-12-30T14:47:15.008Z</time>
      </trkpt>
      <trkpt lat="45.00498" lon="2.90228">
        <ele>1256.1320047103</ele>
        <time>2016-12-30T14:47:16.008Z</time>
      </trkpt>
      <trkpt lat="45.00506" lon="2.90236">
        <ele>1256</ele>
        <time>2016-12-30T14:47:17.008Z</time>
      </trkpt>
      <trkpt lat="45.00515" lon="2.90242">
        <ele>1256</ele>
        <time>2016-12-30T14:47:18.008Z</time>
      </trkpt>
      <trkpt lat="45.00532" lon="2.90251">
        <ele>1255.1405958914</ele>
        <time>2016-12-30T14:47:20.008Z</time>
      </trkpt>
      <trkpt lat="45.00549" lon="2.90258">
        <ele>1255</ele>
        <time>2016-12-30T14:47:22.008Z</time>
      </trkpt>
      <trkpt lat="45.00557" lon="2.90262">
        <ele>1255</ele>
        <time>2016-12-30T14:47:23.008Z</time>
      </trkpt>
      <trkpt lat="45.00565" lon="2.90266">
        <ele>1255</ele>
        <time>2016-12-30T14:47:24.008Z</time>
      </trkpt>
      <trkpt lat="45.00573" lon="2.90269">
        <ele>1254.1319952895</ele>
        <time>2016-12-30T14:47:25.008Z</time>
      </trkpt>
      <trkpt lat="45.00581" lon="2.90273">
        <ele>1254</ele>
        <time>2016-12-30T14:47:26.008Z</time>
      </trkpt>
      <trkpt lat="45.00588" lon="2.90277">
        <ele>1254</ele>
        <time>2016-12-30T14:47:27.008Z</time>
      </trkpt>
      <trkpt lat="45.00596" lon="2.90281">
        <ele>1254</ele>
        <time>2016-12-30T14:47:28.008Z</time>
      </trkpt>
      <trkpt lat="45.00603" lon="2.90284">
        <ele>1253.1319952895</ele>
        <time>2016-12-30T14:47:29.008Z</time>
      </trkpt>
      <trkpt lat="45.00611" lon="2.90287">
        <ele>1253</ele>
        <time>2016-12-30T14:47:30.008Z</time>
      </trkpt>
      <trkpt lat="45.00618" lon="2.90291">
        <ele>1253</ele>
        <time>2016-12-30T14:47:31.008Z</time>
      </trkpt>
      <trkpt lat="45.00625" lon="2.90295">
        <ele>1253</ele>
        <time>2016-12-30T14:47:32.008Z</time>
      </trkpt>
      <trkpt lat="45.00631" lon="2.903">
        <ele>1253</ele>
        <time>2016-12-30T14:47:33.008Z</time>
      </trkpt>
      <trkpt lat="45.00637" lon="2.90306">
        <ele>1253</ele>
        <time>2016-12-30T14:47:34.008Z</time>
      </trkpt>
      <trkpt lat="45.00642" lon="2.90314">
        <ele>1253</ele>
        <time>2016-12-30T14:47:35.008Z</time>
      </trkpt>
      <trkpt lat="45.00646" lon="2.90322">
        <ele>1253</ele>
        <time>2016-12-30T14:47:36.008Z</time>
      </trkpt>
      <trkpt lat="45.00649" lon="2.90331">
        <ele>1253</ele>
        <time>2016-12-30T14:47:37.008Z</time>
      </trkpt>
      <trkpt lat="45.00652" lon="2.9034">
        <ele>1253</ele>
        <time>2016-12-30T14:47:38.008Z</time>
      </trkpt>
      <trkpt lat="45.00655" lon="2.90349">
        <ele>1253</ele>
        <time>2016-12-30T14:47:39.008Z</time>
      </trkpt>
      <trkpt lat="45.00657" lon="2.90358">
        <ele>1251.2640094207</ele>
        <time>2016-12-30T14:47:40.008Z</time>
      </trkpt>
      <trkpt lat="45.0066" lon="2.90368">
        <ele>1251</ele>
        <time>2016-12-30T14:47:41.008Z</time>
      </trkpt>
      <trkpt lat="45.00662" lon="2.90377">
        <ele>1251</ele>
        <time>2016-12-30T14:47:42.008Z</time>
      </trkpt>
      <trkpt lat="45.00665" lon="2.90385">
        <ele>1251</ele>
        <time>2016-12-30T14:47:43.008Z</time>
      </trkpt>
      <trkpt lat="45.00668" lon="2.90392">
        <ele>1251</ele>
        <time>2016-12-30T14:47:44.008Z</time>
      </trkpt>
      <trkpt lat="45.00675" lon="2.90398">
        <ele>1251</ele>
        <time>2016-12-30T14:47:46.008Z</time>
      </trkpt>
      <trkpt lat="45.00686" lon="2.90396">
        <ele>1251</ele>
        <time>2016-12-30T14:47:49.008Z</time>
      </trkpt>
      <trkpt lat="45.00693" lon="2.90396">
        <ele>1250</ele>
        <time>2016-12-30T14:47:51.008Z</time>
      </trkpt>
      <trkpt lat="45.00696" lon="2.90397">
        <ele>1250</ele>
        <time>2016-12-30T14:47:52.008Z</time>
      </trkpt>
      <trkpt lat="45.007" lon="2.904">
        <ele>1250</ele>
        <time>2016-12-30T14:47:53.008Z</time>
      </trkpt>
      <trkpt lat="45.00703" lon="2.90403">
        <ele>1250</ele>
        <time>2016-12-30T14:47:54.008Z</time>
      </trkpt>
      <trkpt lat="45.00709" lon="2.90411">
        <ele>1250</ele>
        <time>2016-12-30T14:47:56.008Z</time>
      </trkpt>
      <trkpt lat="45.00712" lon="2.90415">
        <ele>1250</ele>
        <time>2016-12-30T14:47:57.008Z</time>
      </trkpt>
      <trkpt lat="45.00718" lon="2.90424">
        <ele>1250</ele>
        <time>2016-12-30T14:47:59.008Z</time>
      </trkpt>
      <trkpt lat="45.00726" lon="2.90434">
        <ele>1248</ele>
        <time>2016-12-30T14:48:01.008Z</time>
      </trkpt>
      <trkpt lat="45.0073" lon="2.90439">
        <ele>1248</ele>
        <time>2016-12-30T14:48:02.008Z</time>
      </trkpt>
      <trkpt lat="45.00735" lon="2.90443">
        <ele>1248</ele>
        <time>2016-12-30T14:48:03.008Z</time>
      </trkpt>
      <trkpt lat="45.00747" lon="2.90451">
        <ele>1248</ele>
        <time>2016-12-30T14:48:05.008Z</time>
      </trkpt>
      <trkpt lat="45.00753" lon="2.90456">
        <ele>1248</ele>
        <time>2016-12-30T14:48:06.008Z</time>
      </trkpt>
      <trkpt lat="45.00759" lon="2.90461">
        <ele>1248</ele>
        <time>2016-12-30T14:48:07.008Z</time>
      </trkpt>
      <trkpt lat="45.00772" lon="2.90472">
        <ele>1248</ele>
        <time>2016-12-30T14:48:09.008Z</time>
      </trkpt>
      <trkpt lat="45.00778" lon="2.90478">
        <ele>1245.396014131</ele>
        <time>2016-12-30T14:48:10.008Z</time>
      </trkpt>
      <trkpt lat="45.00785" lon="2.90485">
        <ele>1245</ele>
        <time>2016-12-30T14:48:11.008Z</time>
      </trkpt>
      <trkpt lat="45.00791" lon="2.90492">
        <ele>1245</ele>
        <time>2016-12-30T14:48:12.008Z</time>
      </trkpt>
      <trkpt lat="45.00797" lon="2.90498">
        <ele>1245</ele>
        <time>2016-12-30T14:48:13.008Z</time>
      </trkpt>
      <trkpt lat="45.00806" lon="2.90508">
        <ele>1241.5333126463</ele>
        <time>2016-12-30T14:48:15.008Z</time>
      </trkpt>
      <trkpt lat="45.00814" lon="2.90519">
        <ele>1241</ele>
        <time>2016-12-30T14:48:18.008Z</time>
      </trkpt>
      <trkpt lat="45.00821" lon="2.90527">
        <ele>1239.2811917827</ele>
        <time>2016-12-30T14:48:20.008Z</time>
      </trkpt>
      <trkpt lat="45.00831" lon="2.90536">
        <ele>1237.1320047103</ele>
        <time>2016-12-30T14:48:22.008Z</time>
      </trkpt>
      <trkpt lat="45.00836" lon="2.90541">
        <ele>1236.1319952895</ele>
        <time>2016-12-30T14:48:23.008Z</time>
      </trkpt>
      <trkpt lat="45.00842" lon="2.90546">
        <ele>1236</ele>
        <time>2016-12-30T14:48:24.008Z</time>
      </trkpt>
      <trkpt lat="45.00849" lon="2.90551">
        <ele>1235.1319952895</ele>
        <time>2016-12-30T14:48:25.008Z</time>
      </trkpt>
      <trkpt lat="45.00856" lon="2.90556">
        <ele>1235</ele>
        <time>2016-12-30T14:48:26.008Z</time>
      </trkpt>
      <trkpt lat="45.00863" lon="2.90561">
        <ele>1235</ele>
        <time>2016-12-30T14:48:27.008Z</time>
      </trkpt>
      <trkpt lat="45.0087" lon="2.90566">
        <ele>1235</ele>
        <time>2016-12-30T14:48:28.008Z</time>
      </trkpt>
      <trkpt lat="45.00878" lon="2.90572">
        <ele>1234.1319952895</ele>
        <time>2016-12-30T14:48:29.008Z</time>
      </trkpt>
      <trkpt lat="45.00886" lon="2.90576">
        <ele>1233.1320047103</ele>
        <time>2016-12-30T14:48:30.008Z</time>
      </trkpt>
      <trkpt lat="45.00893" lon="2.90579">
        <ele>1233</ele>
        <time>2016-12-30T14:48:31.008Z</time>
      </trkpt>
      <trkpt lat="45.009" lon="2.90583">
        <ele>1233</ele>
        <time>2016-12-30T14:48:32.008Z</time>
      </trkpt>
      <trkpt lat="45.00907" lon="2.90587">
        <ele>1233</ele>
        <time>2016-12-30T14:48:33.008Z</time>
      </trkpt>
      <trkpt lat="45.00914" lon="2.9059">
        <ele>1233</ele>
        <time>2016-12-30T14:48:34.008Z</time>
      </trkpt>
      <trkpt lat="45.0092" lon="2.90594">
        <ele>1233</ele>
        <time>2016-12-30T14:48:35.008Z</time>
      </trkpt>
      <trkpt lat="45.00926" lon="2.90597">
        <ele>1233</ele>
        <time>2016-12-30T14:48:36.008Z</time>
      </trkpt>
      <trkpt lat="45.00931" lon="2.90601">
        <ele>1233</ele>
        <time>2016-12-30T14:48:37.008Z</time>
      </trkpt>
      <trkpt lat="45.00935" lon="2.90604">
        <ele>1233.8594041086</ele>
        <time>2016-12-30T14:48:38.008Z</time>
      </trkpt>
      <trkpt lat="45.00942" lon="2.90609">
        <ele>1234.8679952897</ele>
        <time>2016-12-30T14:48:40.008Z</time>
      </trkpt>
      <trkpt lat="45.00949" lon="2.90613">
        <ele>1235</ele>
        <time>2016-12-30T14:48:42.008Z</time>
      </trkpt>
      <trkpt lat="45.00954" lon="2.90617">
        <ele>1235</ele>
        <time>2016-12-30T14:48:44.008Z</time>
      </trkpt>
      <trkpt lat="45.00959" lon="2.90622">
        <ele>1235</ele>
        <time>2016-12-30T14:48:46.008Z</time>
      </trkpt>
      <trkpt lat="45.00964" lon="2.90631">
        <ele>1235</ele>
        <time>2016-12-30T14:48:49.008Z</time>
      </trkpt>
      <trkpt lat="45.00966" lon="2.90639">
        <ele>1237</ele>
        <time>2016-12-30T14:48:51.008Z</time>
      </trkpt>
      <trkpt lat="45.00968" lon="2.90648">
        <ele>1237</ele>
        <time>2016-12-30T14:48:53.008Z</time>
      </trkpt>
      <trkpt lat="45.00969" lon="2.90653">
        <ele>1237</ele>
        <time>2016-12-30T14:48:54.008Z</time>
      </trkpt>
      <trkpt lat="45.0097" lon="2.90657">
        <ele>1237</ele>
        <time>2016-12-30T14:48:55.008Z</time>
      </trkpt>
      <trkpt lat="45.00971" lon="2.90662">
        <ele>1237</ele>
        <time>2016-12-30T14:48:56.008Z</time>
      </trkpt>
      <trkpt lat="45.00972" lon="2.90668">
        <ele>1237</ele>
        <time>2016-12-30T14:48:57.008Z</time>
      </trkpt>
      <trkpt lat="45.00973" lon="2.90673">
        <ele>1237</ele>
        <time>2016-12-30T14:48:58.008Z</time>
      </trkpt>
      <trkpt lat="45.00974" lon="2.90679">
        <ele>1237</ele>
        <time>2016-12-30T14:48:59.008Z</time>
      </trkpt>
      <trkpt lat="45.00975" lon="2.90686">
        <ele>1238.7359905793</ele>
        <time>2016-12-30T14:49:00.008Z</time>
      </trkpt>
      <trkpt lat="45.00976" lon="2.90692">
        <ele>1239</ele>
        <time>2016-12-30T14:49:01.008Z</time>
      </trkpt>
      <trkpt lat="45.00977" lon="2.90698">
        <ele>1239</ele>
        <time>2016-12-30T14:49:02.008Z</time>
      </trkpt>
      <trkpt lat="45.00978" lon="2.90704">
        <ele>1239</ele>
        <time>2016-12-30T14:49:03.008Z</time>
      </trkpt>
      <trkpt lat="45.00979" lon="2.90711">
        <ele>1239</ele>
        <time>2016-12-30T14:49:04.008Z</time>
      </trkpt>
      <trkpt lat="45.00981" lon="2.90717">
        <ele>1239</ele>
        <time>2016-12-30T14:49:05.008Z</time>
      </trkpt>
      <trkpt lat="45.00982" lon="2.90723">
        <ele>1239</ele>
        <time>2016-12-30T14:49:06.008Z</time>
      </trkpt>
      <trkpt lat="45.00983" lon="2.90729">
        <ele>1239</ele>
        <time>2016-12-30T14:49:07.008Z</time>
      </trkpt>
      <trkpt lat="45.00984" lon="2.90735">
        <ele>1239</ele>
        <time>2016-12-30T14:49:08.008Z</time>
      </trkpt>
      <trkpt lat="45.00986" lon="2.90742">
        <ele>1239</ele>
        <time>2016-12-30T14:49:09.008Z</time>
      </trkpt>
      <trkpt lat="45.00987" lon="2.90748">
        <ele>1239.8679952897</ele>
        <time>2016-12-30T14:49:10.008Z</time>
      </trkpt>
      <trkpt lat="45.00989" lon="2.90754">
        <ele>1240</ele>
        <time>2016-12-30T14:49:11.008Z</time>
      </trkpt>
      <trkpt lat="45.0099" lon="2.9076">
        <ele>1240</ele>
        <time>2016-12-30T14:49:12.008Z</time>
      </trkpt>
      <trkpt lat="45.00993" lon="2.90766">
        <ele>1240</ele>
        <time>2016-12-30T14:49:13.008Z</time>
      </trkpt>
      <trkpt lat="45.00995" lon="2.90772">
        <ele>1240</ele>
        <time>2016-12-30T14:49:14.008Z</time>
      </trkpt>
      <trkpt lat="45.00997" lon="2.90778">
        <ele>1240</ele>
        <time>2016-12-30T14:49:15.008Z</time>
      </trkpt>
      <trkpt lat="45.01" lon="2.90784">
        <ele>1240</ele>
        <time>2016-12-30T14:49:16.008Z</time>
      </trkpt>
      <trkpt lat="45.01003" lon="2.9079">
        <ele>1240</ele>
        <time>2016-12-30T14:49:17.008Z</time>
      </trkpt>
      <trkpt lat="45.01006" lon="2.90795">
        <ele>1240</ele>
        <time>2016-12-30T14:49:18.008Z</time>
      </trkpt>
      <trkpt lat="45.01009" lon="2.908">
        <ele>1240</ele>
        <time>2016-12-30T14:49:19.008Z</time>
      </trkpt>
      <trkpt lat="45.01013" lon="2.90806">
        <ele>1240.8594041086</ele>
        <time>2016-12-30T14:49:20.008Z</time>
      </trkpt>
      <trkpt lat="45.01016" lon="2.90811">
        <ele>1241</ele>
        <time>2016-12-30T14:49:21.008Z</time>
      </trkpt>
      <trkpt lat="45.0102" lon="2.90816">
        <ele>1241</ele>
        <time>2016-12-30T14:49:22.008Z</time>
      </trkpt>
      <trkpt lat="45.01024" lon="2.9082">
        <ele>1241</ele>
        <time>2016-12-30T14:49:23.008Z</time>
      </trkpt>
      <trkpt lat="45.01027" lon="2.90825">
        <ele>1241</ele>
        <time>2016-12-30T14:49:24.008Z</time>
      </trkpt>
      <trkpt lat="45.01031" lon="2.9083">
        <ele>1241</ele>
        <time>2016-12-30T14:49:25.008Z</time>
      </trkpt>
      <trkpt lat="45.01035" lon="2.90834">
        <ele>1241</ele>
        <time>2016-12-30T14:49:26.008Z</time>
      </trkpt>
      <trkpt lat="45.01039" lon="2.90838">
        <ele>1241</ele>
        <time>2016-12-30T14:49:27.008Z</time>
      </trkpt>
      <trkpt lat="45.01044" lon="2.90843">
        <ele>1241</ele>
        <time>2016-12-30T14:49:28.008Z</time>
      </trkpt>
      <trkpt lat="45.01048" lon="2.90847">
        <ele>1241</ele>
        <time>2016-12-30T14:49:29.008Z</time>
      </trkpt>
      <trkpt lat="45.01052" lon="2.9085">
        <ele>1241</ele>
        <time>2016-12-30T14:49:30.008Z</time>
      </trkpt>
      <trkpt lat="45.01062" lon="2.90856">
        <ele>1241</ele>
        <time>2016-12-30T14:49:32.008Z</time>
      </trkpt>
      <trkpt lat="45.01072" lon="2.90863">
        <ele>1241</ele>
        <time>2016-12-30T14:49:34.008Z</time>
      </trkpt>
      <trkpt lat="45.01083" lon="2.90868">
        <ele>1241</ele>
        <time>2016-12-30T14:49:36.008Z</time>
      </trkpt>
      <trkpt lat="45.01089" lon="2.9087">
        <ele>1241</ele>
        <time>2016-12-30T14:49:37.008Z</time>
      </trkpt>
      <trkpt lat="45.01095" lon="2.90872">
        <ele>1241</ele>
        <time>2016-12-30T14:49:38.008Z</time>
      </trkpt>
      <trkpt lat="45.01108" lon="2.90876">
        <ele>1239.2640094207</ele>
        <time>2016-12-30T14:49:40.008Z</time>
      </trkpt>
      <trkpt lat="45.01115" lon="2.90877">
        <ele>1239</ele>
        <time>2016-12-30T14:49:41.008Z</time>
      </trkpt>
      <trkpt lat="45.01129" lon="2.90878">
        <ele>1239</ele>
        <time>2016-12-30T14:49:43.008Z</time>
      </trkpt>
      <trkpt lat="45.01136" lon="2.90878">
        <ele>1239</ele>
        <time>2016-12-30T14:49:44.008Z</time>
      </trkpt>
      <trkpt lat="45.01144" lon="2.90878">
        <ele>1239</ele>
        <time>2016-12-30T14:49:45.008Z</time>
      </trkpt>
      <trkpt lat="45.01152" lon="2.90878">
        <ele>1239</ele>
        <time>2016-12-30T14:49:46.008Z</time>
      </trkpt>
      <trkpt lat="45.01159" lon="2.90877">
        <ele>1239</ele>
        <time>2016-12-30T14:49:47.008Z</time>
      </trkpt>
      <trkpt lat="45.01167" lon="2.90876">
        <ele>1239</ele>
        <time>2016-12-30T14:49:48.008Z</time>
      </trkpt>
      <trkpt lat="45.01175" lon="2.90875">
        <ele>1239</ele>
        <time>2016-12-30T14:49:49.008Z</time>
      </trkpt>
      <trkpt lat="45.01183" lon="2.90874">
        <ele>1237.2811917827</ele>
        <time>2016-12-30T14:49:50.008Z</time>
      </trkpt>
      <trkpt lat="45.0119" lon="2.90873">
        <ele>1237</ele>
        <time>2016-12-30T14:49:51.008Z</time>
      </trkpt>
      <trkpt lat="45.01199" lon="2.90872">
        <ele>1237</ele>
        <time>2016-12-30T14:49:52.008Z</time>
      </trkpt>
      <trkpt lat="45.01207" lon="2.90871">
        <ele>1237</ele>
        <time>2016-12-30T14:49:53.008Z</time>
      </trkpt>
      <trkpt lat="45.01215" lon="2.9087">
        <ele>1237</ele>
        <time>2016-12-30T14:49:54.008Z</time>
      </trkpt>
      <trkpt lat="45.01223" lon="2.90869">
        <ele>1237</ele>
        <time>2016-12-30T14:49:55.008Z</time>
      </trkpt>
      <trkpt lat="45.01232" lon="2.90867">
        <ele>1237</ele>
        <time>2016-12-30T14:49:56.008Z</time>
      </trkpt>
      <trkpt lat="45.0124" lon="2.90865">
        <ele>1237</ele>
        <time>2016-12-30T14:49:57.008Z</time>
      </trkpt>
      <trkpt lat="45.01248" lon="2.90862">
        <ele>1237</ele>
        <time>2016-12-30T14:49:58.008Z</time>
      </trkpt>
      <trkpt lat="45.01256" lon="2.90859">
        <ele>1237</ele>
        <time>2016-12-30T14:49:59.008Z</time>
      </trkpt>
      <trkpt lat="45.01271" lon="2.90848">
        <ele>1232</ele>
        <time>2016-12-30T14:50:01.008Z</time>
      </trkpt>
      <trkpt lat="45.01284" lon="2.90833">
        <ele>1232</ele>
        <time>2016-12-30T14:50:03.008Z</time>
      </trkpt>
      <trkpt lat="45.01291" lon="2.90824">
        <ele>1232</ele>
        <time>2016-12-30T14:50:04.008Z</time>
      </trkpt>
      <trkpt lat="45.01303" lon="2.90806">
        <ele>1231</ele>
        <time>2016-12-30T14:50:06.008Z</time>
      </trkpt>
      <trkpt lat="45.01314" lon="2.9079">
        <ele>1231</ele>
        <time>2016-12-30T14:50:08.008Z</time>
      </trkpt>
      <trkpt lat="45.0132" lon="2.90784">
        <ele>1231</ele>
        <time>2016-12-30T14:50:09.008Z</time>
      </trkpt>
      <trkpt lat="45.01328" lon="2.9078">
        <ele>1230.1320047103</ele>
        <time>2016-12-30T14:50:10.008Z</time>
      </trkpt>
      <trkpt lat="45.01337" lon="2.90779">
        <ele>1230</ele>
        <time>2016-12-30T14:50:11.008Z</time>
      </trkpt>
      <trkpt lat="45.01345" lon="2.90781">
        <ele>1230</ele>
        <time>2016-12-30T14:50:12.008Z</time>
      </trkpt>
      <trkpt lat="45.0136" lon="2.90793">
        <ele>1230</ele>
        <time>2016-12-30T14:50:14.008Z</time>
      </trkpt>
      <trkpt lat="45.01366" lon="2.90802">
        <ele>1229.1333281616</ele>
        <time>2016-12-30T14:50:15.008Z</time>
      </trkpt>
      <trkpt lat="45.0137" lon="2.90813">
        <ele>1229</ele>
        <time>2016-12-30T14:50:16.008Z</time>
      </trkpt>
      <trkpt lat="45.01374" lon="2.90824">
        <ele>1229</ele>
        <time>2016-12-30T14:50:17.008Z</time>
      </trkpt>
      <trkpt lat="45.01378" lon="2.90834">
        <ele>1229</ele>
        <time>2016-12-30T14:50:18.008Z</time>
      </trkpt>
      <trkpt lat="45.01382" lon="2.90845">
        <ele>1229</ele>
        <time>2016-12-30T14:50:19.008Z</time>
      </trkpt>
      <trkpt lat="45.01386" lon="2.90855">
        <ele>1229</ele>
        <time>2016-12-30T14:50:20.008Z</time>
      </trkpt>
      <trkpt lat="45.01389" lon="2.90865">
        <ele>1229</ele>
        <time>2016-12-30T14:50:21.008Z</time>
      </trkpt>
      <trkpt lat="45.01393" lon="2.90874">
        <ele>1229</ele>
        <time>2016-12-30T14:50:22.008Z</time>
      </trkpt>
      <trkpt lat="45.01397" lon="2.90884">
        <ele>1229</ele>
        <time>2016-12-30T14:50:23.008Z</time>
      </trkpt>
      <trkpt lat="45.014" lon="2.90893">
        <ele>1229</ele>
        <time>2016-12-30T14:50:24.008Z</time>
      </trkpt>
      <trkpt lat="45.01403" lon="2.90903">
        <ele>1229</ele>
        <time>2016-12-30T14:50:25.008Z</time>
      </trkpt>
      <trkpt lat="45.01406" lon="2.90912">
        <ele>1229</ele>
        <time>2016-12-30T14:50:26.008Z</time>
      </trkpt>
      <trkpt lat="45.01409" lon="2.90921">
        <ele>1229</ele>
        <time>2016-12-30T14:50:27.008Z</time>
      </trkpt>
      <trkpt lat="45.01413" lon="2.9093">
        <ele>1229</ele>
        <time>2016-12-30T14:50:28.008Z</time>
      </trkpt>
      <trkpt lat="45.01416" lon="2.90939">
        <ele>1229</ele>
        <time>2016-12-30T14:50:29.008Z</time>
      </trkpt>
      <trkpt lat="45.01418" lon="2.90948">
        <ele>1229</ele>
        <time>2016-12-30T14:50:30.008Z</time>
      </trkpt>
      <trkpt lat="45.01421" lon="2.90956">
        <ele>1229</ele>
        <time>2016-12-30T14:50:31.008Z</time>
      </trkpt>
      <trkpt lat="45.01424" lon="2.90964">
        <ele>1229</ele>
        <time>2016-12-30T14:50:32.008Z</time>
      </trkpt>
      <trkpt lat="45.01426" lon="2.90972">
        <ele>1229</ele>
        <time>2016-12-30T14:50:33.008Z</time>
      </trkpt>
      <trkpt lat="45.01429" lon="2.9098">
        <ele>1229</ele>
        <time>2016-12-30T14:50:34.008Z</time>
      </trkpt>
      <trkpt lat="45.01431" lon="2.90989">
        <ele>1229</ele>
        <time>2016-12-30T14:50:35.008Z</time>
      </trkpt>
      <trkpt lat="45.01432" lon="2.90997">
        <ele>1229</ele>
        <time>2016-12-30T14:50:36.008Z</time>
      </trkpt>
      <trkpt lat="45.01433" lon="2.91005">
        <ele>1229</ele>
        <time>2016-12-30T14:50:37.008Z</time>
      </trkpt>
      <trkpt lat="45.01433" lon="2.91013">
        <ele>1229</ele>
        <time>2016-12-30T14:50:38.008Z</time>
      </trkpt>
      <trkpt lat="45.01433" lon="2.91021">
        <ele>1229</ele>
        <time>2016-12-30T14:50:39.008Z</time>
      </trkpt>
      <trkpt lat="45.01433" lon="2.91029">
        <ele>1230.7359905793</ele>
        <time>2016-12-30T14:50:40.008Z</time>
      </trkpt>
      <trkpt lat="45.01433" lon="2.91036">
        <ele>1231</ele>
        <time>2016-12-30T14:50:41.008Z</time>
      </trkpt>
      <trkpt lat="45.01433" lon="2.91044">
        <ele>1231</ele>
        <time>2016-12-30T14:50:42.008Z</time>
      </trkpt>
      <trkpt lat="45.01432" lon="2.91051">
        <ele>1231</ele>
        <time>2016-12-30T14:50:43.008Z</time>
      </trkpt>
      <trkpt lat="45.01431" lon="2.91058">
        <ele>1231</ele>
        <time>2016-12-30T14:50:44.008Z</time>
      </trkpt>
      <trkpt lat="45.01431" lon="2.91066">
        <ele>1231</ele>
        <time>2016-12-30T14:50:45.008Z</time>
      </trkpt>
      <trkpt lat="45.0143" lon="2.91073">
        <ele>1231</ele>
        <time>2016-12-30T14:50:46.008Z</time>
      </trkpt>
      <trkpt lat="45.01428" lon="2.9108">
        <ele>1231</ele>
        <time>2016-12-30T14:50:47.008Z</time>
      </trkpt>
      <trkpt lat="45.01427" lon="2.91087">
        <ele>1231</ele>
        <time>2016-12-30T14:50:48.008Z</time>
      </trkpt>
      <trkpt lat="45.01425" lon="2.91094">
        <ele>1231</ele>
        <time>2016-12-30T14:50:49.008Z</time>
      </trkpt>
      <trkpt lat="45.01423" lon="2.91101">
        <ele>1231</ele>
        <time>2016-12-30T14:50:50.008Z</time>
      </trkpt>
      <trkpt lat="45.01422" lon="2.91109">
        <ele>1231</ele>
        <time>2016-12-30T14:50:51.008Z</time>
      </trkpt>
      <trkpt lat="45.0142" lon="2.91117">
        <ele>1231</ele>
        <time>2016-12-30T14:50:52.008Z</time>
      </trkpt>
      <trkpt lat="45.01419" lon="2.91125">
        <ele>1231</ele>
        <time>2016-12-30T14:50:53.008Z</time>
      </trkpt>
      <trkpt lat="45.01417" lon="2.91134">
        <ele>1231</ele>
        <time>2016-12-30T14:50:54.008Z</time>
      </trkpt>
      <trkpt lat="45.01416" lon="2.91142">
        <ele>1231</ele>
        <time>2016-12-30T14:50:55.008Z</time>
      </trkpt>
      <trkpt lat="45.01414" lon="2.9115">
        <ele>1231</ele>
        <time>2016-12-30T14:50:56.008Z</time>
      </trkpt>
      <trkpt lat="45.01413" lon="2.91159">
        <ele>1231</ele>
        <time>2016-12-30T14:50:57.008Z</time>
      </trkpt>
      <trkpt lat="45.01412" lon="2.91167">
        <ele>1231</ele>
        <time>2016-12-30T14:50:58.008Z</time>
      </trkpt>
      <trkpt lat="45.01411" lon="2.91175">
        <ele>1231</ele>
        <time>2016-12-30T14:50:59.008Z</time>
      </trkpt>
      <trkpt lat="45.0141" lon="2.91183">
        <ele>1231</ele>
        <time>2016-12-30T14:51:00.008Z</time>
      </trkpt>
      <trkpt lat="45.01409" lon="2.91192">
        <ele>1231</ele>
        <time>2016-12-30T14:51:01.008Z</time>
      </trkpt>
      <trkpt lat="45.01407" lon="2.91199">
        <ele>1231</ele>
        <time>2016-12-30T14:51:02.008Z</time>
      </trkpt>
      <trkpt lat="45.01406" lon="2.91208">
        <ele>1231</ele>
        <time>2016-12-30T14:51:03.008Z</time>
      </trkpt>
      <trkpt lat="45.01405" lon="2.91216">
        <ele>1231</ele>
        <time>2016-12-30T14:51:04.008Z</time>
      </trkpt>
      <trkpt lat="45.01404" lon="2.91223">
        <ele>1231</ele>
        <time>2016-12-30T14:51:05.008Z</time>
      </trkpt>
      <trkpt lat="45.01403" lon="2.91231">
        <ele>1231</ele>
        <time>2016-12-30T14:51:06.008Z</time>
      </trkpt>
      <trkpt lat="45.01402" lon="2.91239">
        <ele>1231</ele>
        <time>2016-12-30T14:51:07.008Z</time>
      </trkpt>
      <trkpt lat="45.01401" lon="2.91247">
        <ele>1231</ele>
        <time>2016-12-30T14:51:08.008Z</time>
      </trkpt>
      <trkpt lat="45.014" lon="2.91255">
        <ele>1231</ele>
        <time>2016-12-30T14:51:09.008Z</time>
      </trkpt>
      <trkpt lat="45.01399" lon="2.91263">
        <ele>1231</ele>
        <time>2016-12-30T14:51:10.008Z</time>
      </trkpt>
      <trkpt lat="45.01398" lon="2.91272">
        <ele>1231</ele>
        <time>2016-12-30T14:51:11.008Z</time>
      </trkpt>
      <trkpt lat="45.01397" lon="2.9128">
        <ele>1231</ele>
        <time>2016-12-30T14:51:12.008Z</time>
      </trkpt>
      <trkpt lat="45.01396" lon="2.91288">
        <ele>1231</ele>
        <time>2016-12-30T14:51:13.008Z</time>
      </trkpt>
      <trkpt lat="45.01395" lon="2.91296">
        <ele>1231</ele>
        <time>2016-12-30T14:51:14.008Z</time>
      </trkpt>
      <trkpt lat="45.01394" lon="2.91304">
        <ele>1231</ele>
        <time>2016-12-30T14:51:15.008Z</time>
      </trkpt>
      <trkpt lat="45.01393" lon="2.91312">
        <ele>1231</ele>
        <time>2016-12-30T14:51:16.008Z</time>
      </trkpt>
      <trkpt lat="45.01392" lon="2.9132">
        <ele>1231</ele>
        <time>2016-12-30T14:51:17.008Z</time>
      </trkpt>
      <trkpt lat="45.01392" lon="2.91328">
        <ele>1231</ele>
        <time>2016-12-30T14:51:18.008Z</time>
      </trkpt>
      <trkpt lat="45.01391" lon="2.91335">
        <ele>1231</ele>
        <time>2016-12-30T14:51:19.008Z</time>
      </trkpt>
      <trkpt lat="45.0139" lon="2.91343">
        <ele>1231</ele>
        <time>2016-12-30T14:51:20.008Z</time>
      </trkpt>
      <trkpt lat="45.01389" lon="2.9135">
        <ele>1231</ele>
        <time>2016-12-30T14:51:21.008Z</time>
      </trkpt>
      <trkpt lat="45.01388" lon="2.91357">
        <ele>1231</ele>
        <time>2016-12-30T14:51:22.008Z</time>
      </trkpt>
      <trkpt lat="45.01386" lon="2.91365">
        <ele>1231</ele>
        <time>2016-12-30T14:51:23.008Z</time>
      </trkpt>
      <trkpt lat="45.01385" lon="2.91372">
        <ele>1231</ele>
        <time>2016-12-30T14:51:24.008Z</time>
      </trkpt>
      <trkpt lat="45.01384" lon="2.9138">
        <ele>1231</ele>
        <time>2016-12-30T14:51:25.008Z</time>
      </trkpt>
      <trkpt lat="45.01383" lon="2.91388">
        <ele>1231</ele>
        <time>2016-12-30T14:51:26.008Z</time>
      </trkpt>
      <trkpt lat="45.01382" lon="2.91397">
        <ele>1231</ele>
        <time>2016-12-30T14:51:27.008Z</time>
      </trkpt>
      <trkpt lat="45.01381" lon="2.91406">
        <ele>1231</ele>
        <time>2016-12-30T14:51:28.008Z</time>
      </trkpt>
      <trkpt lat="45.0138" lon="2.91414">
        <ele>1231</ele>
        <time>2016-12-30T14:51:29.008Z</time>
      </trkpt>
      <trkpt lat="45.01379" lon="2.91423">
        <ele>1231</ele>
        <time>2016-12-30T14:51:30.008Z</time>
      </trkpt>
      <trkpt lat="45.01379" lon="2.91432">
        <ele>1231</ele>
        <time>2016-12-30T14:51:31.008Z</time>
      </trkpt>
      <trkpt lat="45.01377" lon="2.91441">
        <ele>1231</ele>
        <time>2016-12-30T14:51:32.008Z</time>
      </trkpt>
      <trkpt lat="45.01377" lon="2.91449">
        <ele>1231</ele>
        <time>2016-12-30T14:51:33.008Z</time>
      </trkpt>
      <trkpt lat="45.01376" lon="2.91457">
        <ele>1231</ele>
        <time>2016-12-30T14:51:34.008Z</time>
      </trkpt>
      <trkpt lat="45.01376" lon="2.91465">
        <ele>1231</ele>
        <time>2016-12-30T14:51:35.008Z</time>
      </trkpt>
      <trkpt lat="45.01375" lon="2.91474">
        <ele>1231</ele>
        <time>2016-12-30T14:51:36.008Z</time>
      </trkpt>
      <trkpt lat="45.01374" lon="2.91482">
        <ele>1231</ele>
        <time>2016-12-30T14:51:37.008Z</time>
      </trkpt>
      <trkpt lat="45.01374" lon="2.91491">
        <ele>1231</ele>
        <time>2016-12-30T14:51:38.008Z</time>
      </trkpt>
      <trkpt lat="45.01373" lon="2.91499">
        <ele>1231</ele>
        <time>2016-12-30T14:51:39.008Z</time>
      </trkpt>
      <trkpt lat="45.01373" lon="2.91508">
        <ele>1230.1320047103</ele>
        <time>2016-12-30T14:51:40.008Z</time>
      </trkpt>
      <trkpt lat="45.01373" lon="2.91517">
        <ele>1230</ele>
        <time>2016-12-30T14:51:41.008Z</time>
      </trkpt>
      <trkpt lat="45.01372" lon="2.91526">
        <ele>1230</ele>
        <time>2016-12-30T14:51:42.008Z</time>
      </trkpt>
      <trkpt lat="45.01372" lon="2.91535">
        <ele>1230</ele>
        <time>2016-12-30T14:51:43.008Z</time>
      </trkpt>
      <trkpt lat="45.01372" lon="2.91544">
        <ele>1230</ele>
        <time>2016-12-30T14:51:44.008Z</time>
      </trkpt>
      <trkpt lat="45.01372" lon="2.91554">
        <ele>1230</ele>
        <time>2016-12-30T14:51:45.008Z</time>
      </trkpt>
      <trkpt lat="45.01371" lon="2.91564">
        <ele>1230</ele>
        <time>2016-12-30T14:51:46.008Z</time>
      </trkpt>
      <trkpt lat="45.01371" lon="2.91574">
        <ele>1230</ele>
        <time>2016-12-30T14:51:47.008Z</time>
      </trkpt>
      <trkpt lat="45.0137" lon="2.91584">
        <ele>1230</ele>
        <time>2016-12-30T14:51:48.008Z</time>
      </trkpt>
      <trkpt lat="45.01369" lon="2.91594">
        <ele>1230</ele>
        <time>2016-12-30T14:51:49.008Z</time>
      </trkpt>
      <trkpt lat="45.01368" lon="2.91603">
        <ele>1228.2811917827</ele>
        <time>2016-12-30T14:51:50.008Z</time>
      </trkpt>
      <trkpt lat="45.01366" lon="2.91613">
        <ele>1228</ele>
        <time>2016-12-30T14:51:51.008Z</time>
      </trkpt>
      <trkpt lat="45.01365" lon="2.91622">
        <ele>1228</ele>
        <time>2016-12-30T14:51:52.008Z</time>
      </trkpt>
      <trkpt lat="45.01363" lon="2.91631">
        <ele>1228</ele>
        <time>2016-12-30T14:51:53.008Z</time>
      </trkpt>
      <trkpt lat="45.0136" lon="2.91641">
        <ele>1228</ele>
        <time>2016-12-30T14:51:54.008Z</time>
      </trkpt>
      <trkpt lat="45.01358" lon="2.9165">
        <ele>1228</ele>
        <time>2016-12-30T14:51:55.008Z</time>
      </trkpt>
      <trkpt lat="45.01355" lon="2.91658">
        <ele>1228</ele>
        <time>2016-12-30T14:51:56.008Z</time>
      </trkpt>
      <trkpt lat="45.01351" lon="2.91667">
        <ele>1228</ele>
        <time>2016-12-30T14:51:57.008Z</time>
      </trkpt>
      <trkpt lat="45.01348" lon="2.91676">
        <ele>1228</ele>
        <time>2016-12-30T14:51:58.008Z</time>
      </trkpt>
      <trkpt lat="45.01345" lon="2.91685">
        <ele>1228</ele>
        <time>2016-12-30T14:51:59.008Z</time>
      </trkpt>
      <trkpt lat="45.01342" lon="2.91694">
        <ele>1224.5280188414</ele>
        <time>2016-12-30T14:52:00.008Z</time>
      </trkpt>
      <trkpt lat="45.01339" lon="2.91703">
        <ele>1224</ele>
        <time>2016-12-30T14:52:01.008Z</time>
      </trkpt>
      <trkpt lat="45.01335" lon="2.91713">
        <ele>1224</ele>
        <time>2016-12-30T14:52:02.008Z</time>
      </trkpt>
      <trkpt lat="45.01332" lon="2.91723">
        <ele>1224</ele>
        <time>2016-12-30T14:52:03.008Z</time>
      </trkpt>
      <trkpt lat="45.01328" lon="2.91734">
        <ele>1224</ele>
        <time>2016-12-30T14:52:04.008Z</time>
      </trkpt>
      <trkpt lat="45.01324" lon="2.91744">
        <ele>1224</ele>
        <time>2016-12-30T14:52:05.008Z</time>
      </trkpt>
      <trkpt lat="45.0132" lon="2.91755">
        <ele>1224</ele>
        <time>2016-12-30T14:52:06.008Z</time>
      </trkpt>
      <trkpt lat="45.01316" lon="2.91767">
        <ele>1224</ele>
        <time>2016-12-30T14:52:07.008Z</time>
      </trkpt>
      <trkpt lat="45.01312" lon="2.91778">
        <ele>1224</ele>
        <time>2016-12-30T14:52:08.008Z</time>
      </trkpt>
      <trkpt lat="45.01308" lon="2.9179">
        <ele>1224</ele>
        <time>2016-12-30T14:52:09.008Z</time>
      </trkpt>
      <trkpt lat="45.01304" lon="2.91801">
        <ele>1220.5280188414</ele>
        <time>2016-12-30T14:52:10.008Z</time>
      </trkpt>
      <trkpt lat="45.013" lon="2.91813">
        <ele>1220</ele>
        <time>2016-12-30T14:52:11.008Z</time>
      </trkpt>
      <trkpt lat="45.01296" lon="2.91825">
        <ele>1220</ele>
        <time>2016-12-30T14:52:12.008Z</time>
      </trkpt>
      <trkpt lat="45.01292" lon="2.91837">
        <ele>1220</ele>
        <time>2016-12-30T14:52:13.008Z</time>
      </trkpt>
      <trkpt lat="45.01289" lon="2.91849">
        <ele>1220</ele>
        <time>2016-12-30T14:52:14.008Z</time>
      </trkpt>
      <trkpt lat="45.01286" lon="2.91861">
        <ele>1216.5333126463</ele>
        <time>2016-12-30T14:52:15.008Z</time>
      </trkpt>
      <trkpt lat="45.01283" lon="2.91873">
        <ele>1216</ele>
        <time>2016-12-30T14:52:16.008Z</time>
      </trkpt>
      <trkpt lat="45.0128" lon="2.91885">
        <ele>1216</ele>
        <time>2016-12-30T14:52:17.008Z</time>
      </trkpt>
      <trkpt lat="45.01277" lon="2.91897">
        <ele>1216</ele>
        <time>2016-12-30T14:52:18.008Z</time>
      </trkpt>
      <trkpt lat="45.01274" lon="2.91908">
        <ele>1216</ele>
        <time>2016-12-30T14:52:19.008Z</time>
      </trkpt>
      <trkpt lat="45.01272" lon="2.9192">
        <ele>1215.1405958914</ele>
        <time>2016-12-30T14:52:20.008Z</time>
      </trkpt>
      <trkpt lat="45.0127" lon="2.91932">
        <ele>1215</ele>
        <time>2016-12-30T14:52:21.008Z</time>
      </trkpt>
      <trkpt lat="45.01267" lon="2.91944">
        <ele>1215</ele>
        <time>2016-12-30T14:52:22.008Z</time>
      </trkpt>
      <trkpt lat="45.01265" lon="2.91955">
        <ele>1215</ele>
        <time>2016-12-30T14:52:23.008Z</time>
      </trkpt>
      <trkpt lat="45.01262" lon="2.91966">
        <ele>1215</ele>
        <time>2016-12-30T14:52:24.008Z</time>
      </trkpt>
      <trkpt lat="45.01259" lon="2.91977">
        <ele>1214.1319952895</ele>
        <time>2016-12-30T14:52:25.008Z</time>
      </trkpt>
      <trkpt lat="45.01256" lon="2.91988">
        <ele>1213.1405958914</ele>
        <time>2016-12-30T14:52:26.008Z</time>
      </trkpt>
      <trkpt lat="45.01252" lon="2.91998">
        <ele>1213</ele>
        <time>2016-12-30T14:52:27.008Z</time>
      </trkpt>
      <trkpt lat="45.01248" lon="2.92009">
        <ele>1212.1320047103</ele>
        <time>2016-12-30T14:52:28.008Z</time>
      </trkpt>
      <trkpt lat="45.01244" lon="2.9202">
        <ele>1211.1319952895</ele>
        <time>2016-12-30T14:52:29.008Z</time>
      </trkpt>
      <trkpt lat="45.0124" lon="2.9203">
        <ele>1211</ele>
        <time>2016-12-30T14:52:30.008Z</time>
      </trkpt>
      <trkpt lat="45.01236" lon="2.92041">
        <ele>1211</ele>
        <time>2016-12-30T14:52:31.008Z</time>
      </trkpt>
      <trkpt lat="45.01232" lon="2.92051">
        <ele>1211</ele>
        <time>2016-12-30T14:52:32.008Z</time>
      </trkpt>
      <trkpt lat="45.01228" lon="2.92062">
        <ele>1211</ele>
        <time>2016-12-30T14:52:33.008Z</time>
      </trkpt>
      <trkpt lat="45.01224" lon="2.92072">
        <ele>1211</ele>
        <time>2016-12-30T14:52:34.008Z</time>
      </trkpt>
      <trkpt lat="45.0122" lon="2.92082">
        <ele>1210.1405976732</ele>
        <time>2016-12-30T14:52:35.008Z</time>
      </trkpt>
      <trkpt lat="45.01216" lon="2.92092">
        <ele>1210</ele>
        <time>2016-12-30T14:52:36.008Z</time>
      </trkpt>
      <trkpt lat="45.01213" lon="2.92102">
        <ele>1210</ele>
        <time>2016-12-30T14:52:37.008Z</time>
      </trkpt>
      <trkpt lat="45.01209" lon="2.92111">
        <ele>1210</ele>
        <time>2016-12-30T14:52:38.008Z</time>
      </trkpt>
      <trkpt lat="45.01205" lon="2.9212">
        <ele>1210</ele>
        <time>2016-12-30T14:52:39.008Z</time>
      </trkpt>
      <trkpt lat="45.01201" lon="2.92129">
        <ele>1209.1490186728</ele>
        <time>2016-12-30T14:52:40.008Z</time>
      </trkpt>
      <trkpt lat="45.01197" lon="2.92138">
        <ele>1209</ele>
        <time>2016-12-30T14:52:41.008Z</time>
      </trkpt>
      <trkpt lat="45.01193" lon="2.92147">
        <ele>1209</ele>
        <time>2016-12-30T14:52:42.008Z</time>
      </trkpt>
      <trkpt lat="45.01189" lon="2.92156">
        <ele>1209</ele>
        <time>2016-12-30T14:52:43.008Z</time>
      </trkpt>
      <trkpt lat="45.01185" lon="2.92165">
        <ele>1209</ele>
        <time>2016-12-30T14:52:44.008Z</time>
      </trkpt>
      <trkpt lat="45.01181" lon="2.92174">
        <ele>1209</ele>
        <time>2016-12-30T14:52:45.008Z</time>
      </trkpt>
      <trkpt lat="45.01177" lon="2.92183">
        <ele>1209</ele>
        <time>2016-12-30T14:52:46.008Z</time>
      </trkpt>
      <trkpt lat="45.01173" lon="2.92193">
        <ele>1209</ele>
        <time>2016-12-30T14:52:47.008Z</time>
      </trkpt>
      <trkpt lat="45.0117" lon="2.92203">
        <ele>1209</ele>
        <time>2016-12-30T14:52:48.008Z</time>
      </trkpt>
      <trkpt lat="45.01167" lon="2.92214">
        <ele>1209</ele>
        <time>2016-12-30T14:52:49.008Z</time>
      </trkpt>
      <trkpt lat="45.01164" lon="2.92224">
        <ele>1207.2811917827</ele>
        <time>2016-12-30T14:52:50.008Z</time>
      </trkpt>
      <trkpt lat="45.01161" lon="2.92235">
        <ele>1207</ele>
        <time>2016-12-30T14:52:51.008Z</time>
      </trkpt>
      <trkpt lat="45.01158" lon="2.92246">
        <ele>1207</ele>
        <time>2016-12-30T14:52:52.008Z</time>
      </trkpt>
      <trkpt lat="45.01155" lon="2.92256">
        <ele>1207</ele>
        <time>2016-12-30T14:52:53.008Z</time>
      </trkpt>
      <trkpt lat="45.01152" lon="2.92267">
        <ele>1207</ele>
        <time>2016-12-30T14:52:54.008Z</time>
      </trkpt>
      <trkpt lat="45.01149" lon="2.92278">
        <ele>1207</ele>
        <time>2016-12-30T14:52:55.008Z</time>
      </trkpt>
      <trkpt lat="45.01146" lon="2.92289">
        <ele>1207</ele>
        <time>2016-12-30T14:52:56.008Z</time>
      </trkpt>
      <trkpt lat="45.01143" lon="2.92299">
        <ele>1207</ele>
        <time>2016-12-30T14:52:57.008Z</time>
      </trkpt>
      <trkpt lat="45.0114" lon="2.92309">
        <ele>1207</ele>
        <time>2016-12-30T14:52:58.008Z</time>
      </trkpt>
      <trkpt lat="45.01137" lon="2.92319">
        <ele>1207</ele>
        <time>2016-12-30T14:52:59.008Z</time>
      </trkpt>
      <trkpt lat="45.01133" lon="2.92329">
        <ele>1201.792028262</ele>
        <time>2016-12-30T14:53:00.008Z</time>
      </trkpt>
      <trkpt lat="45.0113" lon="2.92338">
        <ele>1201</ele>
        <time>2016-12-30T14:53:01.008Z</time>
      </trkpt>
      <trkpt lat="45.01126" lon="2.92348">
        <ele>1201.8594041086</ele>
        <time>2016-12-30T14:53:02.008Z</time>
      </trkpt>
      <trkpt lat="45.01123" lon="2.92357">
        <ele>1201.1333281616</ele>
        <time>2016-12-30T14:53:03.008Z</time>
      </trkpt>
      <trkpt lat="45.01119" lon="2.92366">
        <ele>1200.1320047103</ele>
        <time>2016-12-30T14:53:04.008Z</time>
      </trkpt>
      <trkpt lat="45.01116" lon="2.92375">
        <ele>1200</ele>
        <time>2016-12-30T14:53:05.008Z</time>
      </trkpt>
      <trkpt lat="45.01112" lon="2.92384">
        <ele>1200</ele>
        <time>2016-12-30T14:53:06.008Z</time>
      </trkpt>
      <trkpt lat="45.01109" lon="2.92394">
        <ele>1200</ele>
        <time>2016-12-30T14:53:07.008Z</time>
      </trkpt>
      <trkpt lat="45.01105" lon="2.92403">
        <ele>1200</ele>
        <time>2016-12-30T14:53:08.008Z</time>
      </trkpt>
      <trkpt lat="45.01101" lon="2.92412">
        <ele>1199.1333281616</ele>
        <time>2016-12-30T14:53:09.008Z</time>
      </trkpt>
      <trkpt lat="45.01096" lon="2.92421">
        <ele>1198.1320047103</ele>
        <time>2016-12-30T14:53:10.008Z</time>
      </trkpt>
      <trkpt lat="45.01092" lon="2.9243">
        <ele>1198</ele>
        <time>2016-12-30T14:53:11.008Z</time>
      </trkpt>
      <trkpt lat="45.01088" lon="2.92441">
        <ele>1198</ele>
        <time>2016-12-30T14:53:12.008Z</time>
      </trkpt>
      <trkpt lat="45.01084" lon="2.92452">
        <ele>1198</ele>
        <time>2016-12-30T14:53:13.008Z</time>
      </trkpt>
      <trkpt lat="45.01079" lon="2.92463">
        <ele>1198</ele>
        <time>2016-12-30T14:53:14.008Z</time>
      </trkpt>
      <trkpt lat="45.01075" lon="2.92475">
        <ele>1196.2666563231</ele>
        <time>2016-12-30T14:53:15.008Z</time>
      </trkpt>
      <trkpt lat="45.01071" lon="2.92487">
        <ele>1196</ele>
        <time>2016-12-30T14:53:16.008Z</time>
      </trkpt>
      <trkpt lat="45.01068" lon="2.92498">
        <ele>1196</ele>
        <time>2016-12-30T14:53:17.008Z</time>
      </trkpt>
      <trkpt lat="45.01065" lon="2.92508">
        <ele>1196</ele>
        <time>2016-12-30T14:53:18.008Z</time>
      </trkpt>
      <trkpt lat="45.01062" lon="2.92518">
        <ele>1196</ele>
        <time>2016-12-30T14:53:19.008Z</time>
      </trkpt>
      <trkpt lat="45.01059" lon="2.92526">
        <ele>1192.5623835655</ele>
        <time>2016-12-30T14:53:20.008Z</time>
      </trkpt>
      <trkpt lat="45.01058" lon="2.92534">
        <ele>1191.1333281616</ele>
        <time>2016-12-30T14:53:21.008Z</time>
      </trkpt>
      <trkpt lat="45.01059" lon="2.92542">
        <ele>1191</ele>
        <time>2016-12-30T14:53:22.008Z</time>
      </trkpt>
      <trkpt lat="45.01061" lon="2.9255">
        <ele>1190.1319952895</ele>
        <time>2016-12-30T14:53:23.008Z</time>
      </trkpt>
      <trkpt lat="45.01064" lon="2.92558">
        <ele>1190</ele>
        <time>2016-12-30T14:53:24.008Z</time>
      </trkpt>
      <trkpt lat="45.01068" lon="2.92565">
        <ele>1189.1319952895</ele>
        <time>2016-12-30T14:53:25.008Z</time>
      </trkpt>
      <trkpt lat="45.01072" lon="2.92574">
        <ele>1188.1405958914</ele>
        <time>2016-12-30T14:53:26.008Z</time>
      </trkpt>
      <trkpt lat="45.01075" lon="2.92584">
        <ele>1187.1333281616</ele>
        <time>2016-12-30T14:53:27.008Z</time>
      </trkpt>
      <trkpt lat="45.01077" lon="2.92594">
        <ele>1187</ele>
        <time>2016-12-30T14:53:28.008Z</time>
      </trkpt>
      <trkpt lat="45.0108" lon="2.92605">
        <ele>1187</ele>
        <time>2016-12-30T14:53:29.008Z</time>
      </trkpt>
      <trkpt lat="45.01082" lon="2.92616">
        <ele>1187</ele>
        <time>2016-12-30T14:53:30.008Z</time>
      </trkpt>
      <trkpt lat="45.01084" lon="2.92628">
        <ele>1187</ele>
        <time>2016-12-30T14:53:31.008Z</time>
      </trkpt>
      <trkpt lat="45.01086" lon="2.92639">
        <ele>1187</ele>
        <time>2016-12-30T14:53:32.008Z</time>
      </trkpt>
      <trkpt lat="45.01087" lon="2.92651">
        <ele>1187</ele>
        <time>2016-12-30T14:53:33.008Z</time>
      </trkpt>
      <trkpt lat="45.01088" lon="2.92663">
        <ele>1187</ele>
        <time>2016-12-30T14:53:34.008Z</time>
      </trkpt>
      <trkpt lat="45.01089" lon="2.92675">
        <ele>1184.3959858686</ele>
        <time>2016-12-30T14:53:35.008Z</time>
      </trkpt>
      <trkpt lat="45.01089" lon="2.92686">
        <ele>1184</ele>
        <time>2016-12-30T14:53:36.008Z</time>
      </trkpt>
      <trkpt lat="45.01089" lon="2.92698">
        <ele>1184</ele>
        <time>2016-12-30T14:53:37.008Z</time>
      </trkpt>
      <trkpt lat="45.01088" lon="2.92709">
        <ele>1184</ele>
        <time>2016-12-30T14:53:38.008Z</time>
      </trkpt>
      <trkpt lat="45.01087" lon="2.9272">
        <ele>1184</ele>
        <time>2016-12-30T14:53:39.008Z</time>
      </trkpt>
      <trkpt lat="45.01085" lon="2.92731">
        <ele>1182.2640094207</ele>
        <time>2016-12-30T14:53:40.008Z</time>
      </trkpt>
      <trkpt lat="45.01083" lon="2.92742">
        <ele>1181.1319952895</ele>
        <time>2016-12-30T14:53:41.008Z</time>
      </trkpt>
      <trkpt lat="45.01082" lon="2.92753">
        <ele>1181</ele>
        <time>2016-12-30T14:53:42.008Z</time>
      </trkpt>
      <trkpt lat="45.01081" lon="2.92764">
        <ele>1180.1319952895</ele>
        <time>2016-12-30T14:53:43.008Z</time>
      </trkpt>
      <trkpt lat="45.0108" lon="2.92775">
        <ele>1180</ele>
        <time>2016-12-30T14:53:44.008Z</time>
      </trkpt>
      <trkpt lat="45.01079" lon="2.92785">
        <ele>1180</ele>
        <time>2016-12-30T14:53:45.008Z</time>
      </trkpt>
      <trkpt lat="45.01079" lon="2.92795">
        <ele>1180</ele>
        <time>2016-12-30T14:53:46.008Z</time>
      </trkpt>
      <trkpt lat="45.01079" lon="2.92805">
        <ele>1180</ele>
        <time>2016-12-30T14:53:47.008Z</time>
      </trkpt>
      <trkpt lat="45.0108" lon="2.92815">
        <ele>1180</ele>
        <time>2016-12-30T14:53:48.008Z</time>
      </trkpt>
      <trkpt lat="45.01083" lon="2.92825">
        <ele>1180</ele>
        <time>2016-12-30T14:53:49.008Z</time>
      </trkpt>
      <trkpt lat="45.01086" lon="2.92834">
        <ele>1179.1405958914</ele>
        <time>2016-12-30T14:53:50.008Z</time>
      </trkpt>
      <trkpt lat="45.01089" lon="2.92842">
        <ele>1179</ele>
        <time>2016-12-30T14:53:51.008Z</time>
      </trkpt>
      <trkpt lat="45.01092" lon="2.92851">
        <ele>1179</ele>
        <time>2016-12-30T14:53:52.008Z</time>
      </trkpt>
      <trkpt lat="45.01095" lon="2.92859">
        <ele>1179</ele>
        <time>2016-12-30T14:53:53.008Z</time>
      </trkpt>
      <trkpt lat="45.01098" lon="2.92868">
        <ele>1179</ele>
        <time>2016-12-30T14:53:54.008Z</time>
      </trkpt>
      <trkpt lat="45.01102" lon="2.92876">
        <ele>1177.2639905791</ele>
        <time>2016-12-30T14:53:55.008Z</time>
      </trkpt>
      <trkpt lat="45.01105" lon="2.92885">
        <ele>1177</ele>
        <time>2016-12-30T14:53:56.008Z</time>
      </trkpt>
      <trkpt lat="45.01109" lon="2.92894">
        <ele>1177</ele>
        <time>2016-12-30T14:53:57.008Z</time>
      </trkpt>
      <trkpt lat="45.01112" lon="2.92904">
        <ele>1177</ele>
        <time>2016-12-30T14:53:58.008Z</time>
      </trkpt>
      <trkpt lat="45.01115" lon="2.92913">
        <ele>1177</ele>
        <time>2016-12-30T14:53:59.008Z</time>
      </trkpt>
      <trkpt lat="45.01118" lon="2.92923">
        <ele>1175.2640094207</ele>
        <time>2016-12-30T14:54:00.008Z</time>
      </trkpt>
      <trkpt lat="45.01122" lon="2.92932">
        <ele>1175</ele>
        <time>2016-12-30T14:54:01.008Z</time>
      </trkpt>
      <trkpt lat="45.01126" lon="2.92941">
        <ele>1175</ele>
        <time>2016-12-30T14:54:02.008Z</time>
      </trkpt>
      <trkpt lat="45.01129" lon="2.9295">
        <ele>1175</ele>
        <time>2016-12-30T14:54:03.008Z</time>
      </trkpt>
      <trkpt lat="45.01132" lon="2.92959">
        <ele>1175</ele>
        <time>2016-12-30T14:54:04.008Z</time>
      </trkpt>
      <trkpt lat="45.01136" lon="2.92968">
        <ele>1175</ele>
        <time>2016-12-30T14:54:05.008Z</time>
      </trkpt>
      <trkpt lat="45.01139" lon="2.92977">
        <ele>1175</ele>
        <time>2016-12-30T14:54:06.008Z</time>
      </trkpt>
      <trkpt lat="45.01142" lon="2.92986">
        <ele>1175</ele>
        <time>2016-12-30T14:54:07.008Z</time>
      </trkpt>
      <trkpt lat="45.01145" lon="2.92995">
        <ele>1175</ele>
        <time>2016-12-30T14:54:08.008Z</time>
      </trkpt>
      <trkpt lat="45.01148" lon="2.93003">
        <ele>1175</ele>
        <time>2016-12-30T14:54:09.008Z</time>
      </trkpt>
      <trkpt lat="45.01152" lon="2.93012">
        <ele>1173.2640094207</ele>
        <time>2016-12-30T14:54:10.008Z</time>
      </trkpt>
      <trkpt lat="45.01155" lon="2.9302">
        <ele>1173</ele>
        <time>2016-12-30T14:54:11.008Z</time>
      </trkpt>
      <trkpt lat="45.01158" lon="2.93028">
        <ele>1173</ele>
        <time>2016-12-30T14:54:12.008Z</time>
      </trkpt>
      <trkpt lat="45.01161" lon="2.93037">
        <ele>1173</ele>
        <time>2016-12-30T14:54:13.008Z</time>
      </trkpt>
      <trkpt lat="45.01164" lon="2.93045">
        <ele>1173</ele>
        <time>2016-12-30T14:54:14.008Z</time>
      </trkpt>
      <trkpt lat="45.01167" lon="2.93054">
        <ele>1173</ele>
        <time>2016-12-30T14:54:15.008Z</time>
      </trkpt>
      <trkpt lat="45.0117" lon="2.93062">
        <ele>1173</ele>
        <time>2016-12-30T14:54:16.008Z</time>
      </trkpt>
      <trkpt lat="45.01173" lon="2.93071">
        <ele>1173</ele>
        <time>2016-12-30T14:54:17.008Z</time>
      </trkpt>
      <trkpt lat="45.01176" lon="2.9308">
        <ele>1173</ele>
        <time>2016-12-30T14:54:18.008Z</time>
      </trkpt>
      <trkpt lat="45.01179" lon="2.93088">
        <ele>1173</ele>
        <time>2016-12-30T14:54:19.008Z</time>
      </trkpt>
      <trkpt lat="45.01182" lon="2.93097">
        <ele>1170.4217876741</ele>
        <time>2016-12-30T14:54:20.008Z</time>
      </trkpt>
      <trkpt lat="45.01185" lon="2.93105">
        <ele>1170</ele>
        <time>2016-12-30T14:54:21.008Z</time>
      </trkpt>
      <trkpt lat="45.01188" lon="2.93114">
        <ele>1170</ele>
        <time>2016-12-30T14:54:22.008Z</time>
      </trkpt>
      <trkpt lat="45.01191" lon="2.93122">
        <ele>1170</ele>
        <time>2016-12-30T14:54:23.008Z</time>
      </trkpt>
      <trkpt lat="45.01194" lon="2.9313">
        <ele>1170</ele>
        <time>2016-12-30T14:54:24.008Z</time>
      </trkpt>
      <trkpt lat="45.01197" lon="2.93138">
        <ele>1169.1319952895</ele>
        <time>2016-12-30T14:54:25.008Z</time>
      </trkpt>
      <trkpt lat="45.012" lon="2.93146">
        <ele>1169</ele>
        <time>2016-12-30T14:54:26.008Z</time>
      </trkpt>
      <trkpt lat="45.01202" lon="2.93154">
        <ele>1169</ele>
        <time>2016-12-30T14:54:27.008Z</time>
      </trkpt>
      <trkpt lat="45.01205" lon="2.93162">
        <ele>1169</ele>
        <time>2016-12-30T14:54:28.008Z</time>
      </trkpt>
      <trkpt lat="45.01208" lon="2.9317">
        <ele>1169</ele>
        <time>2016-12-30T14:54:29.008Z</time>
      </trkpt>
      <trkpt lat="45.0121" lon="2.93178">
        <ele>1168.1320047103</ele>
        <time>2016-12-30T14:54:30.008Z</time>
      </trkpt>
      <trkpt lat="45.01213" lon="2.93186">
        <ele>1168</ele>
        <time>2016-12-30T14:54:31.008Z</time>
      </trkpt>
      <trkpt lat="45.01215" lon="2.93194">
        <ele>1168</ele>
        <time>2016-12-30T14:54:32.008Z</time>
      </trkpt>
      <trkpt lat="45.01218" lon="2.93202">
        <ele>1168</ele>
        <time>2016-12-30T14:54:33.008Z</time>
      </trkpt>
      <trkpt lat="45.01222" lon="2.93209">
        <ele>1168</ele>
        <time>2016-12-30T14:54:34.008Z</time>
      </trkpt>
      <trkpt lat="45.01225" lon="2.93217">
        <ele>1168</ele>
        <time>2016-12-30T14:54:35.008Z</time>
      </trkpt>
      <trkpt lat="45.0123" lon="2.93224">
        <ele>1168</ele>
        <time>2016-12-30T14:54:36.008Z</time>
      </trkpt>
      <trkpt lat="45.01234" lon="2.93231">
        <ele>1168</ele>
        <time>2016-12-30T14:54:37.008Z</time>
      </trkpt>
      <trkpt lat="45.01238" lon="2.93238">
        <ele>1168</ele>
        <time>2016-12-30T14:54:38.008Z</time>
      </trkpt>
      <trkpt lat="45.01242" lon="2.93246">
        <ele>1168</ele>
        <time>2016-12-30T14:54:39.008Z</time>
      </trkpt>
      <trkpt lat="45.01245" lon="2.93254">
        <ele>1166.2640094207</ele>
        <time>2016-12-30T14:54:40.008Z</time>
      </trkpt>
      <trkpt lat="45.01246" lon="2.93262">
        <ele>1166</ele>
        <time>2016-12-30T14:54:41.008Z</time>
      </trkpt>
      <trkpt lat="45.01247" lon="2.93269">
        <ele>1166</ele>
        <time>2016-12-30T14:54:42.008Z</time>
      </trkpt>
      <trkpt lat="45.01246" lon="2.93274">
        <ele>1166</ele>
        <time>2016-12-30T14:54:43.008Z</time>
      </trkpt>
      <trkpt lat="45.01245" lon="2.93279">
        <ele>1164.2666563231</ele>
        <time>2016-12-30T14:54:45.008Z</time>
      </trkpt>
      <trkpt lat="45.01245" lon="2.93286">
        <ele>1164</ele>
        <time>2016-12-30T14:54:53.008Z</time>
      </trkpt>
      <trkpt lat="45.01243" lon="2.93292">
        <ele>1164</ele>
        <time>2016-12-30T14:55:01.008Z</time>
      </trkpt>
      <trkpt lat="45.01243" lon="2.93299">
        <ele>1164</ele>
        <time>2016-12-30T14:55:06.008Z</time>
      </trkpt>
      <trkpt lat="45.01244" lon="2.93305">
        <ele>1164</ele>
        <time>2016-12-30T14:55:15.008Z</time>
      </trkpt>
      <trkpt lat="45.01244" lon="2.9331">
        <ele>1164</ele>
        <time>2016-12-30T14:55:17.008Z</time>
      </trkpt>
      <trkpt lat="45.01245" lon="2.93316">
        <ele>1164</ele>
        <time>2016-12-30T14:55:19.008Z</time>
      </trkpt>
      <trkpt lat="45.01246" lon="2.93324">
        <ele>1163</ele>
        <time>2016-12-30T14:55:21.008Z</time>
      </trkpt>
      <trkpt lat="45.01247" lon="2.93333">
        <ele>1163</ele>
        <time>2016-12-30T14:55:23.008Z</time>
      </trkpt>
      <trkpt lat="45.01248" lon="2.93343">
        <ele>1163</ele>
        <time>2016-12-30T14:55:25.008Z</time>
      </trkpt>
      <trkpt lat="45.0125" lon="2.93353">
        <ele>1163</ele>
        <time>2016-12-30T14:55:27.008Z</time>
      </trkpt>
      <trkpt lat="45.01251" lon="2.93358">
        <ele>1163</ele>
        <time>2016-12-30T14:55:28.008Z</time>
      </trkpt>
      <trkpt lat="45.01252" lon="2.93364">
        <ele>1163</ele>
        <time>2016-12-30T14:55:29.008Z</time>
      </trkpt>
      <trkpt lat="45.01253" lon="2.93369">
        <ele>1163</ele>
        <time>2016-12-30T14:55:30.008Z</time>
      </trkpt>
      <trkpt lat="45.01253" lon="2.93375">
        <ele>1163</ele>
        <time>2016-12-30T14:55:31.008Z</time>
      </trkpt>
      <trkpt lat="45.01254" lon="2.9338">
        <ele>1163</ele>
        <time>2016-12-30T14:55:32.008Z</time>
      </trkpt>
      <trkpt lat="45.01256" lon="2.93386">
        <ele>1163</ele>
        <time>2016-12-30T14:55:33.008Z</time>
      </trkpt>
      <trkpt lat="45.01257" lon="2.93391">
        <ele>1163</ele>
        <time>2016-12-30T14:55:34.008Z</time>
      </trkpt>
      <trkpt lat="45.01259" lon="2.93397">
        <ele>1163</ele>
        <time>2016-12-30T14:55:35.008Z</time>
      </trkpt>
      <trkpt lat="45.01262" lon="2.93402">
        <ele>1163</ele>
        <time>2016-12-30T14:55:36.008Z</time>
      </trkpt>
      <trkpt lat="45.01265" lon="2.93407">
        <ele>1163</ele>
        <time>2016-12-30T14:55:37.008Z</time>
      </trkpt>
      <trkpt lat="45.01268" lon="2.93412">
        <ele>1163</ele>
        <time>2016-12-30T14:55:38.008Z</time>
      </trkpt>
      <trkpt lat="45.01271" lon="2.93417">
        <ele>1163</ele>
        <time>2016-12-30T14:55:39.008Z</time>
      </trkpt>
      <trkpt lat="45.01274" lon="2.93421">
        <ele>1161.2640094207</ele>
        <time>2016-12-30T14:55:40.008Z</time>
      </trkpt>
      <trkpt lat="45.01278" lon="2.93426">
        <ele>1161</ele>
        <time>2016-12-30T14:55:41.008Z</time>
      </trkpt>
      <trkpt lat="45.01281" lon="2.93431">
        <ele>1161</ele>
        <time>2016-12-30T14:55:42.008Z</time>
      </trkpt>
      <trkpt lat="45.01285" lon="2.93435">
        <ele>1161</ele>
        <time>2016-12-30T14:55:43.008Z</time>
      </trkpt>
      <trkpt lat="45.01288" lon="2.9344">
        <ele>1161</ele>
        <time>2016-12-30T14:55:44.008Z</time>
      </trkpt>
      <trkpt lat="45.01291" lon="2.93445">
        <ele>1161</ele>
        <time>2016-12-30T14:55:45.008Z</time>
      </trkpt>
      <trkpt lat="45.01295" lon="2.9345">
        <ele>1161</ele>
        <time>2016-12-30T14:55:46.008Z</time>
      </trkpt>
      <trkpt lat="45.01298" lon="2.93454">
        <ele>1161</ele>
        <time>2016-12-30T14:55:47.008Z</time>
      </trkpt>
      <trkpt lat="45.01302" lon="2.93459">
        <ele>1161</ele>
        <time>2016-12-30T14:55:48.008Z</time>
      </trkpt>
      <trkpt lat="45.01305" lon="2.93464">
        <ele>1161</ele>
        <time>2016-12-30T14:55:49.008Z</time>
      </trkpt>
      <trkpt lat="45.01308" lon="2.93469">
        <ele>1160.1405958914</ele>
        <time>2016-12-30T14:55:50.008Z</time>
      </trkpt>
      <trkpt lat="45.01311" lon="2.93474">
        <ele>1160</ele>
        <time>2016-12-30T14:55:51.008Z</time>
      </trkpt>
      <trkpt lat="45.01314" lon="2.9348">
        <ele>1160</ele>
        <time>2016-12-30T14:55:52.008Z</time>
      </trkpt>
      <trkpt lat="45.01316" lon="2.93485">
        <ele>1160</ele>
        <time>2016-12-30T14:55:53.008Z</time>
      </trkpt>
      <trkpt lat="45.01319" lon="2.93491">
        <ele>1160</ele>
        <time>2016-12-30T14:55:54.008Z</time>
      </trkpt>
      <trkpt lat="45.01321" lon="2.93496">
        <ele>1160</ele>
        <time>2016-12-30T14:55:55.008Z</time>
      </trkpt>
      <trkpt lat="45.01323" lon="2.93501">
        <ele>1160</ele>
        <time>2016-12-30T14:55:56.008Z</time>
      </trkpt>
      <trkpt lat="45.01325" lon="2.93506">
        <ele>1160</ele>
        <time>2016-12-30T14:55:57.008Z</time>
      </trkpt>
      <trkpt lat="45.01327" lon="2.93511">
        <ele>1160</ele>
        <time>2016-12-30T14:55:58.008Z</time>
      </trkpt>
      <trkpt lat="45.01329" lon="2.93516">
        <ele>1160</ele>
        <time>2016-12-30T14:55:59.008Z</time>
      </trkpt>
      <trkpt lat="45.0133" lon="2.93521">
        <ele>1159.1320047103</ele>
        <time>2016-12-30T14:56:00.008Z</time>
      </trkpt>
      <trkpt lat="45.01332" lon="2.93526">
        <ele>1159</ele>
        <time>2016-12-30T14:56:01.008Z</time>
      </trkpt>
      <trkpt lat="45.01334" lon="2.93531">
        <ele>1159</ele>
        <time>2016-12-30T14:56:02.008Z</time>
      </trkpt>
      <trkpt lat="45.01336" lon="2.93535">
        <ele>1159</ele>
        <time>2016-12-30T14:56:03.008Z</time>
      </trkpt>
      <trkpt lat="45.01339" lon="2.9354">
        <ele>1159</ele>
        <time>2016-12-30T14:56:05.008Z</time>
      </trkpt>
      <trkpt lat="45.01342" lon="2.93544">
        <ele>1159</ele>
        <time>2016-12-30T14:56:07.008Z</time>
      </trkpt>
      <trkpt lat="45.01343" lon="2.93549">
        <ele>1159</ele>
        <time>2016-12-30T14:56:09.008Z</time>
      </trkpt>
      <trkpt lat="45.01345" lon="2.93557">
        <ele>1159</ele>
        <time>2016-12-30T14:58:05.008Z</time>
      </trkpt>
      <trkpt lat="45.01347" lon="2.93564">
        <ele>1159</ele>
        <time>2016-12-30T14:58:07.008Z</time>
      </trkpt>
      <trkpt lat="45.01349" lon="2.93572">
        <ele>1159</ele>
        <time>2016-12-30T14:58:09.008Z</time>
      </trkpt>
      <trkpt lat="45.0135" lon="2.93577">
        <ele>1159</ele>
        <time>2016-12-30T14:58:10.008Z</time>
      </trkpt>
      <trkpt lat="45.01351" lon="2.93582">
        <ele>1159</ele>
        <time>2016-12-30T14:58:11.008Z</time>
      </trkpt>
      <trkpt lat="45.01353" lon="2.93587">
        <ele>1159</ele>
        <time>2016-12-30T14:58:12.008Z</time>
      </trkpt>
      <trkpt lat="45.01354" lon="2.93592">
        <ele>1159</ele>
        <time>2016-12-30T14:58:13.008Z</time>
      </trkpt>
      <trkpt lat="45.01354" lon="2.93597">
        <ele>1159</ele>
        <time>2016-12-30T14:58:14.008Z</time>
      </trkpt>
      <trkpt lat="45.01355" lon="2.93602">
        <ele>1159</ele>
        <time>2016-12-30T14:58:15.008Z</time>
      </trkpt>
      <trkpt lat="45.01357" lon="2.93613">
        <ele>1159</ele>
        <time>2016-12-30T14:58:17.008Z</time>
      </trkpt>
      <trkpt lat="45.01358" lon="2.93623">
        <ele>1159</ele>
        <time>2016-12-30T14:58:19.008Z</time>
      </trkpt>
      <trkpt lat="45.01359" lon="2.93628">
        <ele>1159</ele>
        <time>2016-12-30T14:58:20.008Z</time>
      </trkpt>
      <trkpt lat="45.0136" lon="2.93635">
        <ele>1159</ele>
        <time>2016-12-30T14:58:21.008Z</time>
      </trkpt>
      <trkpt lat="45.0136" lon="2.93641">
        <ele>1159</ele>
        <time>2016-12-30T14:58:22.008Z</time>
      </trkpt>
      <trkpt lat="45.01362" lon="2.93648">
        <ele>1159</ele>
        <time>2016-12-30T14:58:23.008Z</time>
      </trkpt>
      <trkpt lat="45.01363" lon="2.93655">
        <ele>1159</ele>
        <time>2016-12-30T14:58:24.008Z</time>
      </trkpt>
      <trkpt lat="45.01364" lon="2.93663">
        <ele>1159</ele>
        <time>2016-12-30T14:58:25.008Z</time>
      </trkpt>
      <trkpt lat="45.01365" lon="2.93672">
        <ele>1159</ele>
        <time>2016-12-30T14:58:26.008Z</time>
      </trkpt>
      <trkpt lat="45.01367" lon="2.93681">
        <ele>1159</ele>
        <time>2016-12-30T14:58:27.008Z</time>
      </trkpt>
      <trkpt lat="45.01368" lon="2.9369">
        <ele>1159</ele>
        <time>2016-12-30T14:58:28.008Z</time>
      </trkpt>
      <trkpt lat="45.0137" lon="2.93699">
        <ele>1159</ele>
        <time>2016-12-30T14:58:29.008Z</time>
      </trkpt>
      <trkpt lat="45.01371" lon="2.93708">
        <ele>1156.396014131</ele>
        <time>2016-12-30T14:58:30.008Z</time>
      </trkpt>
      <trkpt lat="45.01373" lon="2.93717">
        <ele>1156</ele>
        <time>2016-12-30T14:58:31.008Z</time>
      </trkpt>
      <trkpt lat="45.01374" lon="2.93726">
        <ele>1156</ele>
        <time>2016-12-30T14:58:32.008Z</time>
      </trkpt>
      <trkpt lat="45.01375" lon="2.93734">
        <ele>1156</ele>
        <time>2016-12-30T14:58:33.008Z</time>
      </trkpt>
      <trkpt lat="45.01377" lon="2.93742">
        <ele>1156</ele>
        <time>2016-12-30T14:58:34.008Z</time>
      </trkpt>
      <trkpt lat="45.01378" lon="2.93749">
        <ele>1153.3959858686</ele>
        <time>2016-12-30T14:58:35.008Z</time>
      </trkpt>
      <trkpt lat="45.01378" lon="2.93756">
        <ele>1153</ele>
        <time>2016-12-30T14:58:36.008Z</time>
      </trkpt>
      <trkpt lat="45.01379" lon="2.93763">
        <ele>1153</ele>
        <time>2016-12-30T14:58:37.008Z</time>
      </trkpt>
      <trkpt lat="45.0138" lon="2.93769">
        <ele>1153</ele>
        <time>2016-12-30T14:58:38.008Z</time>
      </trkpt>
      <trkpt lat="45.01381" lon="2.93775">
        <ele>1153</ele>
        <time>2016-12-30T14:58:39.008Z</time>
      </trkpt>
      <trkpt lat="45.01382" lon="2.93782">
        <ele>1153</ele>
        <time>2016-12-30T14:58:40.008Z</time>
      </trkpt>
      <trkpt lat="45.01383" lon="2.93788">
        <ele>1153</ele>
        <time>2016-12-30T14:58:41.008Z</time>
      </trkpt>
      <trkpt lat="45.01385" lon="2.93795">
        <ele>1153</ele>
        <time>2016-12-30T14:58:42.008Z</time>
      </trkpt>
      <trkpt lat="45.01387" lon="2.93801">
        <ele>1153</ele>
        <time>2016-12-30T14:58:43.008Z</time>
      </trkpt>
      <trkpt lat="45.01389" lon="2.93808">
        <ele>1153</ele>
        <time>2016-12-30T14:58:44.008Z</time>
      </trkpt>
      <trkpt lat="45.01392" lon="2.93814">
        <ele>1152.1333281616</ele>
        <time>2016-12-30T14:58:45.008Z</time>
      </trkpt>
      <trkpt lat="45.01395" lon="2.9382">
        <ele>1152</ele>
        <time>2016-12-30T14:58:46.008Z</time>
      </trkpt>
      <trkpt lat="45.01397" lon="2.93826">
        <ele>1152</ele>
        <time>2016-12-30T14:58:47.008Z</time>
      </trkpt>
      <trkpt lat="45.014" lon="2.93832">
        <ele>1152</ele>
        <time>2016-12-30T14:58:48.008Z</time>
      </trkpt>
      <trkpt lat="45.01403" lon="2.93837">
        <ele>1152</ele>
        <time>2016-12-30T14:58:49.008Z</time>
      </trkpt>
      <trkpt lat="45.01407" lon="2.93842">
        <ele>1152</ele>
        <time>2016-12-30T14:58:50.008Z</time>
      </trkpt>
      <trkpt lat="45.01411" lon="2.93847">
        <ele>1152</ele>
        <time>2016-12-30T14:58:51.008Z</time>
      </trkpt>
      <trkpt lat="45.01415" lon="2.93851">
        <ele>1152</ele>
        <time>2016-12-30T14:58:52.008Z</time>
      </trkpt>
      <trkpt lat="45.01419" lon="2.93854">
        <ele>1152</ele>
        <time>2016-12-30T14:58:53.008Z</time>
      </trkpt>
      <trkpt lat="45.01427" lon="2.93859">
        <ele>1152</ele>
        <time>2016-12-30T14:58:55.008Z</time>
      </trkpt>
      <trkpt lat="45.01431" lon="2.93861">
        <ele>1152</ele>
        <time>2016-12-30T14:58:56.008Z</time>
      </trkpt>
      <trkpt lat="45.01435" lon="2.93862">
        <ele>1152</ele>
        <time>2016-12-30T14:58:57.008Z</time>
      </trkpt>
      <trkpt lat="45.01439" lon="2.93864">
        <ele>1152</ele>
        <time>2016-12-30T14:58:58.008Z</time>
      </trkpt>
      <trkpt lat="45.01443" lon="2.93865">
        <ele>1152</ele>
        <time>2016-12-30T14:58:59.008Z</time>
      </trkpt>
      <trkpt lat="45.01447" lon="2.93866">
        <ele>1152</ele>
        <time>2016-12-30T14:59:00.008Z</time>
      </trkpt>
      <trkpt lat="45.01451" lon="2.93867">
        <ele>1152</ele>
        <time>2016-12-30T14:59:01.008Z</time>
      </trkpt>
      <trkpt lat="45.01458" lon="2.9387">
        <ele>1152</ele>
        <time>2016-12-30T14:59:03.008Z</time>
      </trkpt>
      <trkpt lat="45.01461" lon="2.93871">
        <ele>1152</ele>
        <time>2016-12-30T14:59:04.008Z</time>
      </trkpt>
      <trkpt lat="45.01468" lon="2.93876">
        <ele>1152</ele>
        <time>2016-12-30T14:59:06.008Z</time>
      </trkpt>
      <trkpt lat="45.01472" lon="2.93878">
        <ele>1152</ele>
        <time>2016-12-30T14:59:07.008Z</time>
      </trkpt>
      <trkpt lat="45.01475" lon="2.93879">
        <ele>1152</ele>
        <time>2016-12-30T14:59:08.008Z</time>
      </trkpt>
      <trkpt lat="45.01479" lon="2.93881">
        <ele>1152</ele>
        <time>2016-12-30T14:59:09.008Z</time>
      </trkpt>
      <trkpt lat="45.01483" lon="2.93883">
        <ele>1152</ele>
        <time>2016-12-30T14:59:10.008Z</time>
      </trkpt>
      <trkpt lat="45.01486" lon="2.93886">
        <ele>1152</ele>
        <time>2016-12-30T14:59:11.008Z</time>
      </trkpt>
      <trkpt lat="45.0149" lon="2.93888">
        <ele>1152</ele>
        <time>2016-12-30T14:59:12.008Z</time>
      </trkpt>
      <trkpt lat="45.01493" lon="2.93891">
        <ele>1152</ele>
        <time>2016-12-30T14:59:13.008Z</time>
      </trkpt>
      <trkpt lat="45.01496" lon="2.93893">
        <ele>1152</ele>
        <time>2016-12-30T14:59:14.008Z</time>
      </trkpt>
      <trkpt lat="45.01499" lon="2.93896">
        <ele>1152</ele>
        <time>2016-12-30T14:59:15.008Z</time>
      </trkpt>
      <trkpt lat="45.01503" lon="2.93899">
        <ele>1152</ele>
        <time>2016-12-30T14:59:16.008Z</time>
      </trkpt>
      <trkpt lat="45.01506" lon="2.93901">
        <ele>1152</ele>
        <time>2016-12-30T14:59:17.008Z</time>
      </trkpt>
      <trkpt lat="45.01509" lon="2.93904">
        <ele>1152</ele>
        <time>2016-12-30T14:59:18.008Z</time>
      </trkpt>
      <trkpt lat="45.01512" lon="2.93906">
        <ele>1152</ele>
        <time>2016-12-30T14:59:19.008Z</time>
      </trkpt>
      <trkpt lat="45.01519" lon="2.93911">
        <ele>1152</ele>
        <time>2016-12-30T14:59:21.008Z</time>
      </trkpt>
      <trkpt lat="45.01525" lon="2.93916">
        <ele>1152</ele>
        <time>2016-12-30T14:59:23.008Z</time>
      </trkpt>
      <trkpt lat="45.01531" lon="2.93922">
        <ele>1152</ele>
        <time>2016-12-30T14:59:25.008Z</time>
      </trkpt>
      <trkpt lat="45.01537" lon="2.93927">
        <ele>1152</ele>
        <time>2016-12-30T14:59:27.008Z</time>
      </trkpt>
      <trkpt lat="45.01542" lon="2.93932">
        <ele>1152</ele>
        <time>2016-12-30T14:59:29.008Z</time>
      </trkpt>
      <trkpt lat="45.01548" lon="2.93937">
        <ele>1152</ele>
        <time>2016-12-30T14:59:31.008Z</time>
      </trkpt>
      <trkpt lat="45.01553" lon="2.93943">
        <ele>1152</ele>
        <time>2016-12-30T14:59:33.008Z</time>
      </trkpt>
      <trkpt lat="45.01558" lon="2.93949">
        <ele>1152</ele>
        <time>2016-12-30T14:59:35.008Z</time>
      </trkpt>
      <trkpt lat="45.01563" lon="2.93954">
        <ele>1152</ele>
        <time>2016-12-30T14:59:37.008Z</time>
      </trkpt>
      <trkpt lat="45.01569" lon="2.93958">
        <ele>1152</ele>
        <time>2016-12-30T14:59:39.008Z</time>
      </trkpt>
      <trkpt lat="45.01572" lon="2.93961">
        <ele>1152</ele>
        <time>2016-12-30T14:59:40.008Z</time>
      </trkpt>
      <trkpt lat="45.01574" lon="2.93964">
        <ele>1152</ele>
        <time>2016-12-30T14:59:41.008Z</time>
      </trkpt>
      <trkpt lat="45.01577" lon="2.93968">
        <ele>1152</ele>
        <time>2016-12-30T14:59:42.008Z</time>
      </trkpt>
      <trkpt lat="45.01579" lon="2.93971">
        <ele>1152</ele>
        <time>2016-12-30T14:59:43.008Z</time>
      </trkpt>
      <trkpt lat="45.01581" lon="2.93975">
        <ele>1152</ele>
        <time>2016-12-30T14:59:44.008Z</time>
      </trkpt>
      <trkpt lat="45.01583" lon="2.93979">
        <ele>1152</ele>
        <time>2016-12-30T14:59:45.008Z</time>
      </trkpt>
      <trkpt lat="45.01585" lon="2.93984">
        <ele>1152</ele>
        <time>2016-12-30T14:59:46.008Z</time>
      </trkpt>
      <trkpt lat="45.01587" lon="2.93989">
        <ele>1152</ele>
        <time>2016-12-30T14:59:47.008Z</time>
      </trkpt>
      <trkpt lat="45.01589" lon="2.93995">
        <ele>1152</ele>
        <time>2016-12-30T14:59:48.008Z</time>
      </trkpt>
      <trkpt lat="45.01592" lon="2.94">
        <ele>1152</ele>
        <time>2016-12-30T14:59:49.008Z</time>
      </trkpt>
      <trkpt lat="45.01594" lon="2.94006">
        <ele>1152.8594041086</ele>
        <time>2016-12-30T14:59:50.008Z</time>
      </trkpt>
      <trkpt lat="45.01597" lon="2.94012">
        <ele>1153</ele>
        <time>2016-12-30T14:59:51.008Z</time>
      </trkpt>
      <trkpt lat="45.01599" lon="2.94017">
        <ele>1153</ele>
        <time>2016-12-30T14:59:52.008Z</time>
      </trkpt>
      <trkpt lat="45.01602" lon="2.94023">
        <ele>1153</ele>
        <time>2016-12-30T14:59:53.008Z</time>
      </trkpt>
      <trkpt lat="45.01605" lon="2.94028">
        <ele>1153</ele>
        <time>2016-12-30T14:59:54.008Z</time>
      </trkpt>
      <trkpt lat="45.01608" lon="2.94033">
        <ele>1153</ele>
        <time>2016-12-30T14:59:55.008Z</time>
      </trkpt>
      <trkpt lat="45.01615" lon="2.94043">
        <ele>1153</ele>
        <time>2016-12-30T14:59:57.008Z</time>
      </trkpt>
      <trkpt lat="45.01618" lon="2.94048">
        <ele>1153</ele>
        <time>2016-12-30T14:59:58.008Z</time>
      </trkpt>
      <trkpt lat="45.01625" lon="2.94057">
        <ele>1151.2640094207</ele>
        <time>2016-12-30T15:00:00.008Z</time>
      </trkpt>
      <trkpt lat="45.01631" lon="2.94067">
        <ele>1151</ele>
        <time>2016-12-30T15:00:02.008Z</time>
      </trkpt>
      <trkpt lat="45.01634" lon="2.94072">
        <ele>1151</ele>
        <time>2016-12-30T15:00:03.008Z</time>
      </trkpt>
      <trkpt lat="45.01637" lon="2.94077">
        <ele>1151</ele>
        <time>2016-12-30T15:00:04.008Z</time>
      </trkpt>
      <trkpt lat="45.01639" lon="2.94082">
        <ele>1151</ele>
        <time>2016-12-30T15:00:05.008Z</time>
      </trkpt>
      <trkpt lat="45.01642" lon="2.94087">
        <ele>1151</ele>
        <time>2016-12-30T15:00:06.008Z</time>
      </trkpt>
      <trkpt lat="45.01644" lon="2.94093">
        <ele>1151</ele>
        <time>2016-12-30T15:00:07.008Z</time>
      </trkpt>
      <trkpt lat="45.01647" lon="2.94098">
        <ele>1151</ele>
        <time>2016-12-30T15:00:08.008Z</time>
      </trkpt>
      <trkpt lat="45.01649" lon="2.94103">
        <ele>1151</ele>
        <time>2016-12-30T15:00:09.008Z</time>
      </trkpt>
      <trkpt lat="45.01653" lon="2.94113">
        <ele>1151</ele>
        <time>2016-12-30T15:00:11.008Z</time>
      </trkpt>
      <trkpt lat="45.01655" lon="2.94118">
        <ele>1151</ele>
        <time>2016-12-30T15:00:12.008Z</time>
      </trkpt>
      <trkpt lat="45.01657" lon="2.94124">
        <ele>1151</ele>
        <time>2016-12-30T15:00:13.008Z</time>
      </trkpt>
      <trkpt lat="45.01659" lon="2.94129">
        <ele>1151</ele>
        <time>2016-12-30T15:00:14.008Z</time>
      </trkpt>
      <trkpt lat="45.0166" lon="2.94134">
        <ele>1151</ele>
        <time>2016-12-30T15:00:15.008Z</time>
      </trkpt>
      <trkpt lat="45.01661" lon="2.94139">
        <ele>1151</ele>
        <time>2016-12-30T15:00:16.008Z</time>
      </trkpt>
      <trkpt lat="45.01663" lon="2.94144">
        <ele>1151</ele>
        <time>2016-12-30T15:00:17.008Z</time>
      </trkpt>
      <trkpt lat="45.01664" lon="2.94149">
        <ele>1151</ele>
        <time>2016-12-30T15:00:18.008Z</time>
      </trkpt>
      <trkpt lat="45.01666" lon="2.94154">
        <ele>1151</ele>
        <time>2016-12-30T15:00:19.008Z</time>
      </trkpt>
      <trkpt lat="45.01667" lon="2.94158">
        <ele>1150.1405958914</ele>
        <time>2016-12-30T15:00:20.008Z</time>
      </trkpt>
      <trkpt lat="45.01669" lon="2.94163">
        <ele>1150</ele>
        <time>2016-12-30T15:00:21.008Z</time>
      </trkpt>
      <trkpt lat="45.0167" lon="2.94167">
        <ele>1150</ele>
        <time>2016-12-30T15:00:22.008Z</time>
      </trkpt>
      <trkpt lat="45.01672" lon="2.94174">
        <ele>1150</ele>
        <time>2016-12-30T15:00:24.008Z</time>
      </trkpt>
      <trkpt lat="45.01673" lon="2.94183">
        <ele>1148</ele>
        <time>2016-12-30T15:01:33.008Z</time>
      </trkpt>
      <trkpt lat="45.01675" lon="2.94191">
        <ele>1148</ele>
        <time>2016-12-30T15:01:35.008Z</time>
      </trkpt>
      <trkpt lat="45.01676" lon="2.94196">
        <ele>1148</ele>
        <time>2016-12-30T15:01:36.008Z</time>
      </trkpt>
      <trkpt lat="45.01678" lon="2.94201">
        <ele>1148</ele>
        <time>2016-12-30T15:01:37.008Z</time>
      </trkpt>
      <trkpt lat="45.0168" lon="2.94212">
        <ele>1148</ele>
        <time>2016-12-30T15:01:39.008Z</time>
      </trkpt>
      <trkpt lat="45.01682" lon="2.94217">
        <ele>1147.1320047103</ele>
        <time>2016-12-30T15:01:40.008Z</time>
      </trkpt>
      <trkpt lat="45.01684" lon="2.94223">
        <ele>1147</ele>
        <time>2016-12-30T15:01:41.008Z</time>
      </trkpt>
      <trkpt lat="45.01685" lon="2.94229">
        <ele>1147</ele>
        <time>2016-12-30T15:01:42.008Z</time>
      </trkpt>
      <trkpt lat="45.01686" lon="2.94234">
        <ele>1147</ele>
        <time>2016-12-30T15:01:43.008Z</time>
      </trkpt>
      <trkpt lat="45.01688" lon="2.9424">
        <ele>1147</ele>
        <time>2016-12-30T15:01:44.008Z</time>
      </trkpt>
      <trkpt lat="45.0169" lon="2.94245">
        <ele>1147</ele>
        <time>2016-12-30T15:01:45.008Z</time>
      </trkpt>
      <trkpt lat="45.01691" lon="2.94251">
        <ele>1147</ele>
        <time>2016-12-30T15:01:46.008Z</time>
      </trkpt>
      <trkpt lat="45.01695" lon="2.94263">
        <ele>1147</ele>
        <time>2016-12-30T15:01:48.008Z</time>
      </trkpt>
      <trkpt lat="45.01696" lon="2.94268">
        <ele>1147</ele>
        <time>2016-12-30T15:01:49.008Z</time>
      </trkpt>
      <trkpt lat="45.01698" lon="2.94274">
        <ele>1146.1405958914</ele>
        <time>2016-12-30T15:01:50.008Z</time>
      </trkpt>
      <trkpt lat="45.017" lon="2.9428">
        <ele>1146</ele>
        <time>2016-12-30T15:01:51.008Z</time>
      </trkpt>
      <trkpt lat="45.01702" lon="2.94286">
        <ele>1146</ele>
        <time>2016-12-30T15:01:52.008Z</time>
      </trkpt>
      <trkpt lat="45.01704" lon="2.94293">
        <ele>1146</ele>
        <time>2016-12-30T15:01:53.008Z</time>
      </trkpt>
      <trkpt lat="45.01706" lon="2.94299">
        <ele>1146</ele>
        <time>2016-12-30T15:01:54.008Z</time>
      </trkpt>
      <trkpt lat="45.01708" lon="2.94306">
        <ele>1146</ele>
        <time>2016-12-30T15:01:55.008Z</time>
      </trkpt>
      <trkpt lat="45.0171" lon="2.94314">
        <ele>1146</ele>
        <time>2016-12-30T15:01:56.008Z</time>
      </trkpt>
      <trkpt lat="45.01712" lon="2.94321">
        <ele>1146</ele>
        <time>2016-12-30T15:01:57.008Z</time>
      </trkpt>
      <trkpt lat="45.01713" lon="2.94329">
        <ele>1146</ele>
        <time>2016-12-30T15:01:58.008Z</time>
      </trkpt>
      <trkpt lat="45.01715" lon="2.94337">
        <ele>1146</ele>
        <time>2016-12-30T15:01:59.008Z</time>
      </trkpt>
      <trkpt lat="45.01717" lon="2.94344">
        <ele>1144.2640094207</ele>
        <time>2016-12-30T15:02:00.008Z</time>
      </trkpt>
      <trkpt lat="45.01719" lon="2.94352">
        <ele>1144</ele>
        <time>2016-12-30T15:02:01.008Z</time>
      </trkpt>
      <trkpt lat="45.01721" lon="2.94359">
        <ele>1144</ele>
        <time>2016-12-30T15:02:02.008Z</time>
      </trkpt>
      <trkpt lat="45.01723" lon="2.94367">
        <ele>1144</ele>
        <time>2016-12-30T15:02:03.008Z</time>
      </trkpt>
      <trkpt lat="45.01724" lon="2.94374">
        <ele>1144</ele>
        <time>2016-12-30T15:02:04.008Z</time>
      </trkpt>
      <trkpt lat="45.01726" lon="2.94381">
        <ele>1144</ele>
        <time>2016-12-30T15:02:05.008Z</time>
      </trkpt>
      <trkpt lat="45.01727" lon="2.94388">
        <ele>1144</ele>
        <time>2016-12-30T15:02:06.008Z</time>
      </trkpt>
      <trkpt lat="45.01729" lon="2.94395">
        <ele>1144</ele>
        <time>2016-12-30T15:02:07.008Z</time>
      </trkpt>
      <trkpt lat="45.01731" lon="2.94402">
        <ele>1144</ele>
        <time>2016-12-30T15:02:08.008Z</time>
      </trkpt>
      <trkpt lat="45.01732" lon="2.9441">
        <ele>1144</ele>
        <time>2016-12-30T15:02:09.008Z</time>
      </trkpt>
      <trkpt lat="45.01733" lon="2.94417">
        <ele>1143.1320047103</ele>
        <time>2016-12-30T15:02:10.008Z</time>
      </trkpt>
      <trkpt lat="45.01735" lon="2.94423">
        <ele>1143</ele>
        <time>2016-12-30T15:02:11.008Z</time>
      </trkpt>
      <trkpt lat="45.01737" lon="2.9443">
        <ele>1143</ele>
        <time>2016-12-30T15:02:12.008Z</time>
      </trkpt>
      <trkpt lat="45.01738" lon="2.94437">
        <ele>1143</ele>
        <time>2016-12-30T15:02:13.008Z</time>
      </trkpt>
      <trkpt lat="45.0174" lon="2.94443">
        <ele>1143</ele>
        <time>2016-12-30T15:02:14.008Z</time>
      </trkpt>
      <trkpt lat="45.01742" lon="2.94448">
        <ele>1143</ele>
        <time>2016-12-30T15:02:15.008Z</time>
      </trkpt>
      <trkpt lat="45.01744" lon="2.94452">
        <ele>1143</ele>
        <time>2016-12-30T15:02:16.008Z</time>
      </trkpt>
      <trkpt lat="45.01751" lon="2.94454">
        <ele>1143</ele>
        <time>2016-12-30T15:02:18.008Z</time>
      </trkpt>
      <trkpt lat="45.01759" lon="2.9445">
        <ele>1142.1405958914</ele>
        <time>2016-12-30T15:02:20.008Z</time>
      </trkpt>
      <trkpt lat="45.01767" lon="2.94447">
        <ele>1142</ele>
        <time>2016-12-30T15:02:22.008Z</time>
      </trkpt>
      <trkpt lat="45.01776" lon="2.94445">
        <ele>1142</ele>
        <time>2016-12-30T15:02:24.008Z</time>
      </trkpt>
      <trkpt lat="45.0178" lon="2.94444">
        <ele>1142</ele>
        <time>2016-12-30T15:02:25.008Z</time>
      </trkpt>
      <trkpt lat="45.0179" lon="2.94442">
        <ele>1142</ele>
        <time>2016-12-30T15:02:27.008Z</time>
      </trkpt>
      <trkpt lat="45.01799" lon="2.94439">
        <ele>1142</ele>
        <time>2016-12-30T15:02:29.008Z</time>
      </trkpt>
      <trkpt lat="45.01808" lon="2.94436">
        <ele>1142</ele>
        <time>2016-12-30T15:02:31.008Z</time>
      </trkpt>
      <trkpt lat="45.01818" lon="2.94434">
        <ele>1142</ele>
        <time>2016-12-30T15:02:33.008Z</time>
      </trkpt>
      <trkpt lat="45.01827" lon="2.94432">
        <ele>1142</ele>
        <time>2016-12-30T15:02:35.008Z</time>
      </trkpt>
      <trkpt lat="45.01837" lon="2.94431">
        <ele>1142</ele>
        <time>2016-12-30T15:02:37.008Z</time>
      </trkpt>
      <trkpt lat="45.01847" lon="2.94429">
        <ele>1142</ele>
        <time>2016-12-30T15:02:39.008Z</time>
      </trkpt>
      <trkpt lat="45.01857" lon="2.94428">
        <ele>1142</ele>
        <time>2016-12-30T15:02:41.008Z</time>
      </trkpt>
      <trkpt lat="45.01866" lon="2.94426">
        <ele>1142</ele>
        <time>2016-12-30T15:02:43.008Z</time>
      </trkpt>
      <trkpt lat="45.01875" lon="2.94424">
        <ele>1142</ele>
        <time>2016-12-30T15:02:45.008Z</time>
      </trkpt>
      <trkpt lat="45.01883" lon="2.94422">
        <ele>1142</ele>
        <time>2016-12-30T15:02:47.008Z</time>
      </trkpt>
      <trkpt lat="45.01891" lon="2.94421">
        <ele>1142</ele>
        <time>2016-12-30T15:02:49.008Z</time>
      </trkpt>
      <trkpt lat="45.01898" lon="2.94422">
        <ele>1144</ele>
        <time>2016-12-30T15:02:51.008Z</time>
      </trkpt>
      <trkpt lat="45.01904" lon="2.94429">
        <ele>1144</ele>
        <time>2016-12-30T15:02:53.008Z</time>
      </trkpt>
      <trkpt lat="45.01905" lon="2.9444">
        <ele>1144</ele>
        <time>2016-12-30T15:02:55.008Z</time>
      </trkpt>
      <trkpt lat="45.01905" lon="2.94451">
        <ele>1144</ele>
        <time>2016-12-30T15:02:57.008Z</time>
      </trkpt>
      <trkpt lat="45.01905" lon="2.94457">
        <ele>1144</ele>
        <time>2016-12-30T15:02:58.008Z</time>
      </trkpt>
      <trkpt lat="45.01905" lon="2.94463">
        <ele>1144</ele>
        <time>2016-12-30T15:02:59.008Z</time>
      </trkpt>
      <trkpt lat="45.01904" lon="2.9447">
        <ele>1143.1320047103</ele>
        <time>2016-12-30T15:03:00.008Z</time>
      </trkpt>
      <trkpt lat="45.01903" lon="2.94477">
        <ele>1143</ele>
        <time>2016-12-30T15:03:01.008Z</time>
      </trkpt>
      <trkpt lat="45.01903" lon="2.94484">
        <ele>1143</ele>
        <time>2016-12-30T15:03:02.008Z</time>
      </trkpt>
      <trkpt lat="45.01902" lon="2.94492">
        <ele>1143</ele>
        <time>2016-12-30T15:03:03.008Z</time>
      </trkpt>
      <trkpt lat="45.01901" lon="2.945">
        <ele>1143</ele>
        <time>2016-12-30T15:03:04.008Z</time>
      </trkpt>
      <trkpt lat="45.01901" lon="2.94509">
        <ele>1143</ele>
        <time>2016-12-30T15:03:05.008Z</time>
      </trkpt>
      <trkpt lat="45.01901" lon="2.94518">
        <ele>1143</ele>
        <time>2016-12-30T15:03:06.008Z</time>
      </trkpt>
      <trkpt lat="45.01903" lon="2.94526">
        <ele>1143</ele>
        <time>2016-12-30T15:03:07.008Z</time>
      </trkpt>
      <trkpt lat="45.01906" lon="2.94533">
        <ele>1143</ele>
        <time>2016-12-30T15:03:08.008Z</time>
      </trkpt>
      <trkpt lat="45.0191" lon="2.94538">
        <ele>1143</ele>
        <time>2016-12-30T15:03:09.008Z</time>
      </trkpt>
      <trkpt lat="45.01921" lon="2.94543">
        <ele>1142</ele>
        <time>2016-12-30T15:03:11.008Z</time>
      </trkpt>
      <trkpt lat="45.01932" lon="2.94544">
        <ele>1142</ele>
        <time>2016-12-30T15:03:13.008Z</time>
      </trkpt>
      <trkpt lat="45.01938" lon="2.94543">
        <ele>1142</ele>
        <time>2016-12-30T15:03:14.008Z</time>
      </trkpt>
      <trkpt lat="45.01944" lon="2.94543">
        <ele>1142</ele>
        <time>2016-12-30T15:03:15.008Z</time>
      </trkpt>
      <trkpt lat="45.01949" lon="2.94543">
        <ele>1142</ele>
        <time>2016-12-30T15:03:16.008Z</time>
      </trkpt>
      <trkpt lat="45.01954" lon="2.94543">
        <ele>1142</ele>
        <time>2016-12-30T15:03:17.008Z</time>
      </trkpt>
      <trkpt lat="45.0196" lon="2.94544">
        <ele>1142</ele>
        <time>2016-12-30T15:03:18.008Z</time>
      </trkpt>
      <trkpt lat="45.0197" lon="2.94546">
        <ele>1141.1405958914</ele>
        <time>2016-12-30T15:03:20.008Z</time>
      </trkpt>
      <trkpt lat="45.0198" lon="2.94549">
        <ele>1141</ele>
        <time>2016-12-30T15:03:22.008Z</time>
      </trkpt>
      <trkpt lat="45.01989" lon="2.94554">
        <ele>1141</ele>
        <time>2016-12-30T15:03:24.008Z</time>
      </trkpt>
      <trkpt lat="45.01998" lon="2.94558">
        <ele>1141</ele>
        <time>2016-12-30T15:03:26.008Z</time>
      </trkpt>
      <trkpt lat="45.02007" lon="2.94564">
        <ele>1141</ele>
        <time>2016-12-30T15:03:28.008Z</time>
      </trkpt>
      <trkpt lat="45.0202" lon="2.94572">
        <ele>1140</ele>
        <time>2016-12-30T15:03:31.008Z</time>
      </trkpt>
      <trkpt lat="45.02029" lon="2.94574">
        <ele>1140</ele>
        <time>2016-12-30T15:03:33.008Z</time>
      </trkpt>
      <trkpt lat="45.02038" lon="2.94572">
        <ele>1140</ele>
        <time>2016-12-30T15:03:35.008Z</time>
      </trkpt>
      <trkpt lat="45.02047" lon="2.94568">
        <ele>1140</ele>
        <time>2016-12-30T15:03:37.008Z</time>
      </trkpt>
      <trkpt lat="45.02056" lon="2.94565">
        <ele>1140</ele>
        <time>2016-12-30T15:03:39.008Z</time>
      </trkpt>
      <trkpt lat="45.02065" lon="2.94564">
        <ele>1141</ele>
        <time>2016-12-30T15:03:41.008Z</time>
      </trkpt>
      <trkpt lat="45.02074" lon="2.94562">
        <ele>1141</ele>
        <time>2016-12-30T15:03:43.008Z</time>
      </trkpt>
      <trkpt lat="45.02083" lon="2.9456">
        <ele>1141</ele>
        <time>2016-12-30T15:03:45.008Z</time>
      </trkpt>
      <trkpt lat="45.02092" lon="2.94556">
        <ele>1141</ele>
        <time>2016-12-30T15:03:47.008Z</time>
      </trkpt>
      <trkpt lat="45.02101" lon="2.94552">
        <ele>1141</ele>
        <time>2016-12-30T15:03:49.008Z</time>
      </trkpt>
      <trkpt lat="45.0211" lon="2.94553">
        <ele>1142</ele>
        <time>2016-12-30T15:03:51.008Z</time>
      </trkpt>
      <trkpt lat="45.02119" lon="2.94558">
        <ele>1142</ele>
        <time>2016-12-30T15:03:53.008Z</time>
      </trkpt>
      <trkpt lat="45.02127" lon="2.94566">
        <ele>1142</ele>
        <time>2016-12-30T15:03:55.008Z</time>
      </trkpt>
      <trkpt lat="45.02136" lon="2.94574">
        <ele>1142</ele>
        <time>2016-12-30T15:03:57.008Z</time>
      </trkpt>
      <trkpt lat="45.02145" lon="2.94581">
        <ele>1142</ele>
        <time>2016-12-30T15:03:59.008Z</time>
      </trkpt>
      <trkpt lat="45.02154" lon="2.94588">
        <ele>1141</ele>
        <time>2016-12-30T15:04:01.008Z</time>
      </trkpt>
      <trkpt lat="45.02164" lon="2.94595">
        <ele>1141</ele>
        <time>2016-12-30T15:04:03.008Z</time>
      </trkpt>
      <trkpt lat="45.02173" lon="2.946">
        <ele>1141</ele>
        <time>2016-12-30T15:04:05.008Z</time>
      </trkpt>
      <trkpt lat="45.02183" lon="2.94605">
        <ele>1141</ele>
        <time>2016-12-30T15:04:07.008Z</time>
      </trkpt>
      <trkpt lat="45.02193" lon="2.94609">
        <ele>1141</ele>
        <time>2016-12-30T15:04:09.008Z</time>
      </trkpt>
      <trkpt lat="45.02204" lon="2.94611">
        <ele>1141</ele>
        <time>2016-12-30T15:04:11.008Z</time>
      </trkpt>
      <trkpt lat="45.02209" lon="2.94613">
        <ele>1141</ele>
        <time>2016-12-30T15:04:12.008Z</time>
      </trkpt>
      <trkpt lat="45.02214" lon="2.94614">
        <ele>1141</ele>
        <time>2016-12-30T15:04:13.008Z</time>
      </trkpt>
      <trkpt lat="45.02219" lon="2.94616">
        <ele>1141</ele>
        <time>2016-12-30T15:04:14.008Z</time>
      </trkpt>
      <trkpt lat="45.02224" lon="2.94618">
        <ele>1141</ele>
        <time>2016-12-30T15:04:15.008Z</time>
      </trkpt>
      <trkpt lat="45.02229" lon="2.94619">
        <ele>1141</ele>
        <time>2016-12-30T15:04:16.008Z</time>
      </trkpt>
      <trkpt lat="45.02234" lon="2.94622">
        <ele>1141</ele>
        <time>2016-12-30T15:04:17.008Z</time>
      </trkpt>
      <trkpt lat="45.02238" lon="2.94624">
        <ele>1141</ele>
        <time>2016-12-30T15:04:18.008Z</time>
      </trkpt>
      <trkpt lat="45.02243" lon="2.94627">
        <ele>1141</ele>
        <time>2016-12-30T15:04:19.008Z</time>
      </trkpt>
      <trkpt lat="45.02247" lon="2.94631">
        <ele>1140.1405958914</ele>
        <time>2016-12-30T15:04:20.008Z</time>
      </trkpt>
      <trkpt lat="45.02251" lon="2.94635">
        <ele>1140</ele>
        <time>2016-12-30T15:04:21.008Z</time>
      </trkpt>
      <trkpt lat="45.02255" lon="2.94639">
        <ele>1140</ele>
        <time>2016-12-30T15:04:22.008Z</time>
      </trkpt>
      <trkpt lat="45.02259" lon="2.94644">
        <ele>1140</ele>
        <time>2016-12-30T15:04:23.008Z</time>
      </trkpt>
      <trkpt lat="45.02263" lon="2.94649">
        <ele>1140</ele>
        <time>2016-12-30T15:04:24.008Z</time>
      </trkpt>
      <trkpt lat="45.02266" lon="2.94655">
        <ele>1140</ele>
        <time>2016-12-30T15:04:25.008Z</time>
      </trkpt>
      <trkpt lat="45.02268" lon="2.94661">
        <ele>1140</ele>
        <time>2016-12-30T15:04:26.008Z</time>
      </trkpt>
      <trkpt lat="45.02271" lon="2.94667">
        <ele>1140</ele>
        <time>2016-12-30T15:04:27.008Z</time>
      </trkpt>
      <trkpt lat="45.02272" lon="2.94674">
        <ele>1140</ele>
        <time>2016-12-30T15:04:28.008Z</time>
      </trkpt>
      <trkpt lat="45.02273" lon="2.94681">
        <ele>1140</ele>
        <time>2016-12-30T15:04:29.008Z</time>
      </trkpt>
      <trkpt lat="45.02275" lon="2.94688">
        <ele>1140</ele>
        <time>2016-12-30T15:04:30.008Z</time>
      </trkpt>
      <trkpt lat="45.02277" lon="2.94694">
        <ele>1140</ele>
        <time>2016-12-30T15:04:31.008Z</time>
      </trkpt>
      <trkpt lat="45.02279" lon="2.94701">
        <ele>1140</ele>
        <time>2016-12-30T15:04:32.008Z</time>
      </trkpt>
      <trkpt lat="45.0228" lon="2.94708">
        <ele>1140</ele>
        <time>2016-12-30T15:04:33.008Z</time>
      </trkpt>
      <trkpt lat="45.02282" lon="2.94715">
        <ele>1140</ele>
        <time>2016-12-30T15:04:34.008Z</time>
      </trkpt>
      <trkpt lat="45.02284" lon="2.94722">
        <ele>1140</ele>
        <time>2016-12-30T15:04:35.008Z</time>
      </trkpt>
      <trkpt lat="45.02286" lon="2.94729">
        <ele>1140</ele>
        <time>2016-12-30T15:04:36.008Z</time>
      </trkpt>
      <trkpt lat="45.02288" lon="2.94737">
        <ele>1140</ele>
        <time>2016-12-30T15:04:37.008Z</time>
      </trkpt>
      <trkpt lat="45.02291" lon="2.94744">
        <ele>1140</ele>
        <time>2016-12-30T15:04:38.008Z</time>
      </trkpt>
      <trkpt lat="45.02293" lon="2.94751">
        <ele>1140</ele>
        <time>2016-12-30T15:04:39.008Z</time>
      </trkpt>
      <trkpt lat="45.02296" lon="2.94758">
        <ele>1138.2640094207</ele>
        <time>2016-12-30T15:04:40.008Z</time>
      </trkpt>
      <trkpt lat="45.02299" lon="2.94764">
        <ele>1138</ele>
        <time>2016-12-30T15:04:41.008Z</time>
      </trkpt>
      <trkpt lat="45.02304" lon="2.94769">
        <ele>1138</ele>
        <time>2016-12-30T15:04:42.008Z</time>
      </trkpt>
      <trkpt lat="45.02314" lon="2.94775">
        <ele>1138</ele>
        <time>2016-12-30T15:04:44.008Z</time>
      </trkpt>
      <trkpt lat="45.02324" lon="2.94779">
        <ele>1138</ele>
        <time>2016-12-30T15:04:46.008Z</time>
      </trkpt>
      <trkpt lat="45.02334" lon="2.94783">
        <ele>1138</ele>
        <time>2016-12-30T15:04:48.008Z</time>
      </trkpt>
      <trkpt lat="45.02345" lon="2.94785">
        <ele>1137.1405958914</ele>
        <time>2016-12-30T15:04:50.008Z</time>
      </trkpt>
      <trkpt lat="45.02356" lon="2.94787">
        <ele>1137</ele>
        <time>2016-12-30T15:04:52.008Z</time>
      </trkpt>
      <trkpt lat="45.02367" lon="2.94786">
        <ele>1137</ele>
        <time>2016-12-30T15:04:54.008Z</time>
      </trkpt>
      <trkpt lat="45.02372" lon="2.94783">
        <ele>1137</ele>
        <time>2016-12-30T15:04:55.008Z</time>
      </trkpt>
      <trkpt lat="45.02376" lon="2.9478">
        <ele>1137</ele>
        <time>2016-12-30T15:04:56.008Z</time>
      </trkpt>
      <trkpt lat="45.0238" lon="2.94775">
        <ele>1137</ele>
        <time>2016-12-30T15:04:57.008Z</time>
      </trkpt>
      <trkpt lat="45.02384" lon="2.94769">
        <ele>1137</ele>
        <time>2016-12-30T15:04:58.008Z</time>
      </trkpt>
      <trkpt lat="45.02387" lon="2.94763">
        <ele>1137</ele>
        <time>2016-12-30T15:04:59.008Z</time>
      </trkpt>
      <trkpt lat="45.0239" lon="2.94756">
        <ele>1136.1320047103</ele>
        <time>2016-12-30T15:05:00.008Z</time>
      </trkpt>
      <trkpt lat="45.02393" lon="2.9475">
        <ele>1136</ele>
        <time>2016-12-30T15:05:01.008Z</time>
      </trkpt>
      <trkpt lat="45.02396" lon="2.94743">
        <ele>1136</ele>
        <time>2016-12-30T15:05:02.008Z</time>
      </trkpt>
      <trkpt lat="45.024" lon="2.94737">
        <ele>1136</ele>
        <time>2016-12-30T15:05:03.008Z</time>
      </trkpt>
      <trkpt lat="45.02405" lon="2.94732">
        <ele>1136</ele>
        <time>2016-12-30T15:05:04.008Z</time>
      </trkpt>
      <trkpt lat="45.0241" lon="2.94729">
        <ele>1136</ele>
        <time>2016-12-30T15:05:05.008Z</time>
      </trkpt>
      <trkpt lat="45.02415" lon="2.94727">
        <ele>1136</ele>
        <time>2016-12-30T15:05:06.008Z</time>
      </trkpt>
      <trkpt lat="45.02421" lon="2.94727">
        <ele>1136</ele>
        <time>2016-12-30T15:05:07.008Z</time>
      </trkpt>
      <trkpt lat="45.02426" lon="2.94729">
        <ele>1136</ele>
        <time>2016-12-30T15:05:08.008Z</time>
      </trkpt>
      <trkpt lat="45.02431" lon="2.94732">
        <ele>1136</ele>
        <time>2016-12-30T15:05:09.008Z</time>
      </trkpt>
      <trkpt lat="45.02436" lon="2.94736">
        <ele>1136</ele>
        <time>2016-12-30T15:05:10.008Z</time>
      </trkpt>
      <trkpt lat="45.02441" lon="2.9474">
        <ele>1136</ele>
        <time>2016-12-30T15:05:11.008Z</time>
      </trkpt>
      <trkpt lat="45.02445" lon="2.94744">
        <ele>1136</ele>
        <time>2016-12-30T15:05:12.008Z</time>
      </trkpt>
      <trkpt lat="45.0245" lon="2.94748">
        <ele>1136</ele>
        <time>2016-12-30T15:05:13.008Z</time>
      </trkpt>
      <trkpt lat="45.02455" lon="2.94752">
        <ele>1136</ele>
        <time>2016-12-30T15:05:14.008Z</time>
      </trkpt>
      <trkpt lat="45.02459" lon="2.94756">
        <ele>1136</ele>
        <time>2016-12-30T15:05:15.008Z</time>
      </trkpt>
      <trkpt lat="45.02464" lon="2.9476">
        <ele>1136</ele>
        <time>2016-12-30T15:05:16.008Z</time>
      </trkpt>
      <trkpt lat="45.02469" lon="2.94763">
        <ele>1136</ele>
        <time>2016-12-30T15:05:17.008Z</time>
      </trkpt>
      <trkpt lat="45.02473" lon="2.94766">
        <ele>1136</ele>
        <time>2016-12-30T15:05:18.008Z</time>
      </trkpt>
      <trkpt lat="45.02477" lon="2.94771">
        <ele>1136</ele>
        <time>2016-12-30T15:05:19.008Z</time>
      </trkpt>
      <trkpt lat="45.02481" lon="2.94775">
        <ele>1135.1405958914</ele>
        <time>2016-12-30T15:05:20.008Z</time>
      </trkpt>
      <trkpt lat="45.02486" lon="2.94779">
        <ele>1135</ele>
        <time>2016-12-30T15:05:21.008Z</time>
      </trkpt>
      <trkpt lat="45.02494" lon="2.94788">
        <ele>1135</ele>
        <time>2016-12-30T15:05:23.008Z</time>
      </trkpt>
      <trkpt lat="45.02502" lon="2.94796">
        <ele>1135</ele>
        <time>2016-12-30T15:05:25.008Z</time>
      </trkpt>
      <trkpt lat="45.02511" lon="2.94802">
        <ele>1135</ele>
        <time>2016-12-30T15:05:27.008Z</time>
      </trkpt>
      <trkpt lat="45.02515" lon="2.94805">
        <ele>1135</ele>
        <time>2016-12-30T15:05:28.008Z</time>
      </trkpt>
      <trkpt lat="45.02519" lon="2.94807">
        <ele>1135</ele>
        <time>2016-12-30T15:05:29.008Z</time>
      </trkpt>
      <trkpt lat="45.02523" lon="2.9481">
        <ele>1136.7359905793</ele>
        <time>2016-12-30T15:05:30.008Z</time>
      </trkpt>
      <trkpt lat="45.02527" lon="2.94814">
        <ele>1137</ele>
        <time>2016-12-30T15:05:31.008Z</time>
      </trkpt>
      <trkpt lat="45.02531" lon="2.94817">
        <ele>1137</ele>
        <time>2016-12-30T15:05:32.008Z</time>
      </trkpt>
      <trkpt lat="45.02535" lon="2.9482">
        <ele>1137</ele>
        <time>2016-12-30T15:05:33.008Z</time>
      </trkpt>
      <trkpt lat="45.02539" lon="2.94824">
        <ele>1137</ele>
        <time>2016-12-30T15:05:34.008Z</time>
      </trkpt>
      <trkpt lat="45.02543" lon="2.94827">
        <ele>1137</ele>
        <time>2016-12-30T15:05:35.008Z</time>
      </trkpt>
      <trkpt lat="45.02547" lon="2.94831">
        <ele>1137</ele>
        <time>2016-12-30T15:05:36.008Z</time>
      </trkpt>
      <trkpt lat="45.02551" lon="2.94835">
        <ele>1137</ele>
        <time>2016-12-30T15:05:37.008Z</time>
      </trkpt>
      <trkpt lat="45.02555" lon="2.94838">
        <ele>1137</ele>
        <time>2016-12-30T15:05:38.008Z</time>
      </trkpt>
      <trkpt lat="45.02559" lon="2.94841">
        <ele>1137</ele>
        <time>2016-12-30T15:05:39.008Z</time>
      </trkpt>
      <trkpt lat="45.02563" lon="2.94845">
        <ele>1137</ele>
        <time>2016-12-30T15:05:40.008Z</time>
      </trkpt>
      <trkpt lat="45.02567" lon="2.94848">
        <ele>1137</ele>
        <time>2016-12-30T15:05:41.008Z</time>
      </trkpt>
      <trkpt lat="45.02571" lon="2.94851">
        <ele>1137</ele>
        <time>2016-12-30T15:05:42.008Z</time>
      </trkpt>
      <trkpt lat="45.02575" lon="2.94854">
        <ele>1137</ele>
        <time>2016-12-30T15:05:43.008Z</time>
      </trkpt>
      <trkpt lat="45.02579" lon="2.94857">
        <ele>1137</ele>
        <time>2016-12-30T15:05:44.008Z</time>
      </trkpt>
      <trkpt lat="45.02583" lon="2.9486">
        <ele>1137</ele>
        <time>2016-12-30T15:05:45.008Z</time>
      </trkpt>
      <trkpt lat="45.02587" lon="2.94863">
        <ele>1137</ele>
        <time>2016-12-30T15:05:46.008Z</time>
      </trkpt>
      <trkpt lat="45.02591" lon="2.94866">
        <ele>1137</ele>
        <time>2016-12-30T15:05:47.008Z</time>
      </trkpt>
      <trkpt lat="45.02596" lon="2.94869">
        <ele>1137</ele>
        <time>2016-12-30T15:05:48.008Z</time>
      </trkpt>
      <trkpt lat="45.02604" lon="2.94875">
        <ele>1137.8594041086</ele>
        <time>2016-12-30T15:05:50.008Z</time>
      </trkpt>
      <trkpt lat="45.02613" lon="2.9488">
        <ele>1138</ele>
        <time>2016-12-30T15:05:52.008Z</time>
      </trkpt>
      <trkpt lat="45.02622" lon="2.94884">
        <ele>1138</ele>
        <time>2016-12-30T15:05:54.008Z</time>
      </trkpt>
      <trkpt lat="45.02631" lon="2.94888">
        <ele>1138</ele>
        <time>2016-12-30T15:05:56.008Z</time>
      </trkpt>
      <trkpt lat="45.02639" lon="2.94893">
        <ele>1138</ele>
        <time>2016-12-30T15:05:58.008Z</time>
      </trkpt>
      <trkpt lat="45.02648" lon="2.949">
        <ele>1137.1320047103</ele>
        <time>2016-12-30T15:06:00.008Z</time>
      </trkpt>
      <trkpt lat="45.02652" lon="2.94904">
        <ele>1137</ele>
        <time>2016-12-30T15:06:01.008Z</time>
      </trkpt>
      <trkpt lat="45.02655" lon="2.94908">
        <ele>1137</ele>
        <time>2016-12-30T15:06:02.008Z</time>
      </trkpt>
      <trkpt lat="45.02658" lon="2.94913">
        <ele>1137</ele>
        <time>2016-12-30T15:06:03.008Z</time>
      </trkpt>
      <trkpt lat="45.02659" lon="2.94919">
        <ele>1137</ele>
        <time>2016-12-30T15:06:04.008Z</time>
      </trkpt>
      <trkpt lat="45.02659" lon="2.94932">
        <ele>1137</ele>
        <time>2016-12-30T15:06:06.008Z</time>
      </trkpt>
      <trkpt lat="45.02658" lon="2.94942">
        <ele>1137</ele>
        <time>2016-12-30T15:06:08.008Z</time>
      </trkpt>
      <trkpt lat="45.02657" lon="2.94952">
        <ele>1137</ele>
        <time>2016-12-30T15:06:10.008Z</time>
      </trkpt>
      <trkpt lat="45.02656" lon="2.94957">
        <ele>1137</ele>
        <time>2016-12-30T15:06:11.008Z</time>
      </trkpt>
      <trkpt lat="45.02655" lon="2.9497">
        <ele>1137</ele>
        <time>2016-12-30T15:06:13.008Z</time>
      </trkpt>
      <trkpt lat="45.02654" lon="2.94976">
        <ele>1137</ele>
        <time>2016-12-30T15:06:14.008Z</time>
      </trkpt>
      <trkpt lat="45.02653" lon="2.94983">
        <ele>1137</ele>
        <time>2016-12-30T15:06:15.008Z</time>
      </trkpt>
      <trkpt lat="45.02652" lon="2.9499">
        <ele>1137</ele>
        <time>2016-12-30T15:06:16.008Z</time>
      </trkpt>
      <trkpt lat="45.02651" lon="2.94997">
        <ele>1137</ele>
        <time>2016-12-30T15:06:17.008Z</time>
      </trkpt>
      <trkpt lat="45.0265" lon="2.95005">
        <ele>1137</ele>
        <time>2016-12-30T15:06:18.008Z</time>
      </trkpt>
      <trkpt lat="45.02649" lon="2.95013">
        <ele>1137</ele>
        <time>2016-12-30T15:06:19.008Z</time>
      </trkpt>
      <trkpt lat="45.02648" lon="2.95021">
        <ele>1137</ele>
        <time>2016-12-30T15:06:20.008Z</time>
      </trkpt>
      <trkpt lat="45.02648" lon="2.95029">
        <ele>1137</ele>
        <time>2016-12-30T15:06:21.008Z</time>
      </trkpt>
      <trkpt lat="45.02647" lon="2.95037">
        <ele>1137</ele>
        <time>2016-12-30T15:06:22.008Z</time>
      </trkpt>
      <trkpt lat="45.02645" lon="2.95045">
        <ele>1137</ele>
        <time>2016-12-30T15:06:23.008Z</time>
      </trkpt>
      <trkpt lat="45.02644" lon="2.95053">
        <ele>1137</ele>
        <time>2016-12-30T15:06:24.008Z</time>
      </trkpt>
      <trkpt lat="45.02643" lon="2.95062">
        <ele>1137</ele>
        <time>2016-12-30T15:06:25.008Z</time>
      </trkpt>
      <trkpt lat="45.02642" lon="2.9507">
        <ele>1137</ele>
        <time>2016-12-30T15:06:26.008Z</time>
      </trkpt>
      <trkpt lat="45.02641" lon="2.9508">
        <ele>1137</ele>
        <time>2016-12-30T15:06:27.008Z</time>
      </trkpt>
      <trkpt lat="45.0264" lon="2.9509">
        <ele>1137</ele>
        <time>2016-12-30T15:06:28.008Z</time>
      </trkpt>
      <trkpt lat="45.02639" lon="2.951">
        <ele>1137</ele>
        <time>2016-12-30T15:06:29.008Z</time>
      </trkpt>
      <trkpt lat="45.02637" lon="2.95109">
        <ele>1135.2640094207</ele>
        <time>2016-12-30T15:06:30.008Z</time>
      </trkpt>
      <trkpt lat="45.02636" lon="2.95119">
        <ele>1135</ele>
        <time>2016-12-30T15:06:31.008Z</time>
      </trkpt>
      <trkpt lat="45.02635" lon="2.95129">
        <ele>1135</ele>
        <time>2016-12-30T15:06:32.008Z</time>
      </trkpt>
      <trkpt lat="45.02633" lon="2.95139">
        <ele>1135</ele>
        <time>2016-12-30T15:06:33.008Z</time>
      </trkpt>
      <trkpt lat="45.02632" lon="2.95149">
        <ele>1135</ele>
        <time>2016-12-30T15:06:34.008Z</time>
      </trkpt>
      <trkpt lat="45.02631" lon="2.95158">
        <ele>1135</ele>
        <time>2016-12-30T15:06:35.008Z</time>
      </trkpt>
      <trkpt lat="45.02629" lon="2.95168">
        <ele>1135</ele>
        <time>2016-12-30T15:06:36.008Z</time>
      </trkpt>
      <trkpt lat="45.02628" lon="2.95178">
        <ele>1135</ele>
        <time>2016-12-30T15:06:37.008Z</time>
      </trkpt>
      <trkpt lat="45.02627" lon="2.95188">
        <ele>1135</ele>
        <time>2016-12-30T15:06:38.008Z</time>
      </trkpt>
      <trkpt lat="45.02626" lon="2.95198">
        <ele>1135</ele>
        <time>2016-12-30T15:06:39.008Z</time>
      </trkpt>
      <trkpt lat="45.02625" lon="2.95208">
        <ele>1134.1320047103</ele>
        <time>2016-12-30T15:06:40.008Z</time>
      </trkpt>
      <trkpt lat="45.02624" lon="2.95218">
        <ele>1134</ele>
        <time>2016-12-30T15:06:41.008Z</time>
      </trkpt>
      <trkpt lat="45.02622" lon="2.95228">
        <ele>1134</ele>
        <time>2016-12-30T15:06:42.008Z</time>
      </trkpt>
      <trkpt lat="45.02621" lon="2.95238">
        <ele>1134</ele>
        <time>2016-12-30T15:06:43.008Z</time>
      </trkpt>
      <trkpt lat="45.02619" lon="2.95247">
        <ele>1134</ele>
        <time>2016-12-30T15:06:44.008Z</time>
      </trkpt>
      <trkpt lat="45.02618" lon="2.95257">
        <ele>1134</ele>
        <time>2016-12-30T15:06:45.008Z</time>
      </trkpt>
      <trkpt lat="45.02616" lon="2.95267">
        <ele>1134</ele>
        <time>2016-12-30T15:06:46.008Z</time>
      </trkpt>
      <trkpt lat="45.02615" lon="2.95277">
        <ele>1134</ele>
        <time>2016-12-30T15:06:47.008Z</time>
      </trkpt>
      <trkpt lat="45.02613" lon="2.95286">
        <ele>1134</ele>
        <time>2016-12-30T15:06:48.008Z</time>
      </trkpt>
      <trkpt lat="45.02612" lon="2.95295">
        <ele>1134</ele>
        <time>2016-12-30T15:06:49.008Z</time>
      </trkpt>
      <trkpt lat="45.02611" lon="2.95304">
        <ele>1134</ele>
        <time>2016-12-30T15:06:50.008Z</time>
      </trkpt>
      <trkpt lat="45.0261" lon="2.95313">
        <ele>1134</ele>
        <time>2016-12-30T15:06:51.008Z</time>
      </trkpt>
      <trkpt lat="45.02608" lon="2.95322">
        <ele>1134</ele>
        <time>2016-12-30T15:06:52.008Z</time>
      </trkpt>
      <trkpt lat="45.02607" lon="2.95331">
        <ele>1134</ele>
        <time>2016-12-30T15:06:53.008Z</time>
      </trkpt>
      <trkpt lat="45.02605" lon="2.9534">
        <ele>1134</ele>
        <time>2016-12-30T15:06:54.008Z</time>
      </trkpt>
      <trkpt lat="45.02603" lon="2.95348">
        <ele>1134</ele>
        <time>2016-12-30T15:06:55.008Z</time>
      </trkpt>
      <trkpt lat="45.02601" lon="2.95357">
        <ele>1134</ele>
        <time>2016-12-30T15:06:56.008Z</time>
      </trkpt>
      <trkpt lat="45.02599" lon="2.95366">
        <ele>1134</ele>
        <time>2016-12-30T15:06:57.008Z</time>
      </trkpt>
      <trkpt lat="45.02597" lon="2.95374">
        <ele>1134</ele>
        <time>2016-12-30T15:06:58.008Z</time>
      </trkpt>
      <trkpt lat="45.02595" lon="2.95383">
        <ele>1134</ele>
        <time>2016-12-30T15:06:59.008Z</time>
      </trkpt>
      <trkpt lat="45.02594" lon="2.95391">
        <ele>1132.2640094207</ele>
        <time>2016-12-30T15:07:00.008Z</time>
      </trkpt>
      <trkpt lat="45.02592" lon="2.954">
        <ele>1132</ele>
        <time>2016-12-30T15:07:01.008Z</time>
      </trkpt>
      <trkpt lat="45.02592" lon="2.95409">
        <ele>1132</ele>
        <time>2016-12-30T15:07:02.008Z</time>
      </trkpt>
      <trkpt lat="45.02591" lon="2.95417">
        <ele>1132</ele>
        <time>2016-12-30T15:07:03.008Z</time>
      </trkpt>
      <trkpt lat="45.02591" lon="2.95426">
        <ele>1132</ele>
        <time>2016-12-30T15:07:04.008Z</time>
      </trkpt>
      <trkpt lat="45.0259" lon="2.95435">
        <ele>1132</ele>
        <time>2016-12-30T15:07:05.008Z</time>
      </trkpt>
      <trkpt lat="45.0259" lon="2.95444">
        <ele>1132</ele>
        <time>2016-12-30T15:07:06.008Z</time>
      </trkpt>
      <trkpt lat="45.0259" lon="2.95452">
        <ele>1132</ele>
        <time>2016-12-30T15:07:07.008Z</time>
      </trkpt>
      <trkpt lat="45.0259" lon="2.9546">
        <ele>1132</ele>
        <time>2016-12-30T15:07:08.008Z</time>
      </trkpt>
      <trkpt lat="45.0259" lon="2.95468">
        <ele>1132</ele>
        <time>2016-12-30T15:07:09.008Z</time>
      </trkpt>
      <trkpt lat="45.0259" lon="2.95476">
        <ele>1131.133339367</ele>
        <time>2016-12-30T15:07:10.008Z</time>
      </trkpt>
      <trkpt lat="45.0259" lon="2.95484">
        <ele>1131</ele>
        <time>2016-12-30T15:07:11.008Z</time>
      </trkpt>
      <trkpt lat="45.0259" lon="2.95491">
        <ele>1131</ele>
        <time>2016-12-30T15:07:12.008Z</time>
      </trkpt>
      <trkpt lat="45.0259" lon="2.95499">
        <ele>1131</ele>
        <time>2016-12-30T15:07:13.008Z</time>
      </trkpt>
      <trkpt lat="45.0259" lon="2.95506">
        <ele>1131</ele>
        <time>2016-12-30T15:07:14.008Z</time>
      </trkpt>
      <trkpt lat="45.0259" lon="2.95514">
        <ele>1131</ele>
        <time>2016-12-30T15:07:15.008Z</time>
      </trkpt>
      <trkpt lat="45.0259" lon="2.95521">
        <ele>1131</ele>
        <time>2016-12-30T15:07:16.008Z</time>
      </trkpt>
      <trkpt lat="45.0259" lon="2.95528">
        <ele>1131</ele>
        <time>2016-12-30T15:07:17.008Z</time>
      </trkpt>
      <trkpt lat="45.02589" lon="2.95536">
        <ele>1131</ele>
        <time>2016-12-30T15:07:18.008Z</time>
      </trkpt>
      <trkpt lat="45.02589" lon="2.95543">
        <ele>1131</ele>
        <time>2016-12-30T15:07:19.008Z</time>
      </trkpt>
      <trkpt lat="45.02589" lon="2.95551">
        <ele>1130.1405958914</ele>
        <time>2016-12-30T15:07:20.008Z</time>
      </trkpt>
      <trkpt lat="45.02589" lon="2.95558">
        <ele>1130</ele>
        <time>2016-12-30T15:07:21.008Z</time>
      </trkpt>
      <trkpt lat="45.02589" lon="2.95566">
        <ele>1130</ele>
        <time>2016-12-30T15:07:22.008Z</time>
      </trkpt>
      <trkpt lat="45.02589" lon="2.95573">
        <ele>1130</ele>
        <time>2016-12-30T15:07:23.008Z</time>
      </trkpt>
      <trkpt lat="45.02589" lon="2.95581">
        <ele>1130</ele>
        <time>2016-12-30T15:07:24.008Z</time>
      </trkpt>
      <trkpt lat="45.02589" lon="2.95588">
        <ele>1130</ele>
        <time>2016-12-30T15:07:25.008Z</time>
      </trkpt>
      <trkpt lat="45.02589" lon="2.95596">
        <ele>1130</ele>
        <time>2016-12-30T15:07:26.008Z</time>
      </trkpt>
      <trkpt lat="45.02589" lon="2.95603">
        <ele>1130</ele>
        <time>2016-12-30T15:07:27.008Z</time>
      </trkpt>
      <trkpt lat="45.02589" lon="2.95611">
        <ele>1130</ele>
        <time>2016-12-30T15:07:28.008Z</time>
      </trkpt>
      <trkpt lat="45.02589" lon="2.95618">
        <ele>1130</ele>
        <time>2016-12-30T15:07:29.008Z</time>
      </trkpt>
      <trkpt lat="45.02589" lon="2.95626">
        <ele>1129.1320047103</ele>
        <time>2016-12-30T15:07:30.008Z</time>
      </trkpt>
      <trkpt lat="45.02589" lon="2.95633">
        <ele>1129</ele>
        <time>2016-12-30T15:07:31.008Z</time>
      </trkpt>
      <trkpt lat="45.02589" lon="2.9564">
        <ele>1129</ele>
        <time>2016-12-30T15:07:32.008Z</time>
      </trkpt>
      <trkpt lat="45.02589" lon="2.95654">
        <ele>1129</ele>
        <time>2016-12-30T15:07:34.008Z</time>
      </trkpt>
      <trkpt lat="45.02589" lon="2.95662">
        <ele>1129</ele>
        <time>2016-12-30T15:07:35.008Z</time>
      </trkpt>
      <trkpt lat="45.02589" lon="2.95669">
        <ele>1129</ele>
        <time>2016-12-30T15:07:36.008Z</time>
      </trkpt>
      <trkpt lat="45.02589" lon="2.95676">
        <ele>1129</ele>
        <time>2016-12-30T15:07:37.008Z</time>
      </trkpt>
      <trkpt lat="45.02589" lon="2.95684">
        <ele>1129</ele>
        <time>2016-12-30T15:07:38.008Z</time>
      </trkpt>
      <trkpt lat="45.02589" lon="2.95692">
        <ele>1129</ele>
        <time>2016-12-30T15:07:39.008Z</time>
      </trkpt>
      <trkpt lat="45.02589" lon="2.95699">
        <ele>1129</ele>
        <time>2016-12-30T15:07:40.008Z</time>
      </trkpt>
      <trkpt lat="45.02589" lon="2.95706">
        <ele>1129</ele>
        <time>2016-12-30T15:07:41.008Z</time>
      </trkpt>
      <trkpt lat="45.0259" lon="2.95721">
        <ele>1129</ele>
        <time>2016-12-30T15:07:43.008Z</time>
      </trkpt>
      <trkpt lat="45.0259" lon="2.95736">
        <ele>1129</ele>
        <time>2016-12-30T15:07:45.008Z</time>
      </trkpt>
      <trkpt lat="45.0259" lon="2.95752">
        <ele>1129</ele>
        <time>2016-12-30T15:07:47.008Z</time>
      </trkpt>
      <trkpt lat="45.0259" lon="2.95766">
        <ele>1129</ele>
        <time>2016-12-30T15:07:49.008Z</time>
      </trkpt>
      <trkpt lat="45.0259" lon="2.95774">
        <ele>1129</ele>
        <time>2016-12-30T15:07:50.008Z</time>
      </trkpt>
      <trkpt lat="45.0259" lon="2.95782">
        <ele>1129</ele>
        <time>2016-12-30T15:07:51.008Z</time>
      </trkpt>
      <trkpt lat="45.0259" lon="2.95789">
        <ele>1129</ele>
        <time>2016-12-30T15:07:52.008Z</time>
      </trkpt>
      <trkpt lat="45.0259" lon="2.95797">
        <ele>1129</ele>
        <time>2016-12-30T15:07:53.008Z</time>
      </trkpt>
      <trkpt lat="45.0259" lon="2.95805">
        <ele>1129</ele>
        <time>2016-12-30T15:07:54.008Z</time>
      </trkpt>
      <trkpt lat="45.0259" lon="2.95813">
        <ele>1129</ele>
        <time>2016-12-30T15:07:55.008Z</time>
      </trkpt>
      <trkpt lat="45.0259" lon="2.95821">
        <ele>1129</ele>
        <time>2016-12-30T15:07:56.008Z</time>
      </trkpt>
      <trkpt lat="45.0259" lon="2.9583">
        <ele>1129</ele>
        <time>2016-12-30T15:07:57.008Z</time>
      </trkpt>
      <trkpt lat="45.0259" lon="2.95838">
        <ele>1129</ele>
        <time>2016-12-30T15:07:58.008Z</time>
      </trkpt>
      <trkpt lat="45.0259" lon="2.95846">
        <ele>1129</ele>
        <time>2016-12-30T15:07:59.008Z</time>
      </trkpt>
      <trkpt lat="45.0259" lon="2.95854">
        <ele>1128.1320047103</ele>
        <time>2016-12-30T15:08:00.008Z</time>
      </trkpt>
      <trkpt lat="45.02591" lon="2.95862">
        <ele>1128</ele>
        <time>2016-12-30T15:08:01.008Z</time>
      </trkpt>
      <trkpt lat="45.02591" lon="2.95871">
        <ele>1128</ele>
        <time>2016-12-30T15:08:02.008Z</time>
      </trkpt>
      <trkpt lat="45.02592" lon="2.95879">
        <ele>1128</ele>
        <time>2016-12-30T15:08:03.008Z</time>
      </trkpt>
      <trkpt lat="45.02593" lon="2.95887">
        <ele>1128</ele>
        <time>2016-12-30T15:08:04.008Z</time>
      </trkpt>
      <trkpt lat="45.02594" lon="2.95895">
        <ele>1128</ele>
        <time>2016-12-30T15:08:05.008Z</time>
      </trkpt>
      <trkpt lat="45.02595" lon="2.95904">
        <ele>1128</ele>
        <time>2016-12-30T15:08:06.008Z</time>
      </trkpt>
      <trkpt lat="45.02596" lon="2.95912">
        <ele>1128</ele>
        <time>2016-12-30T15:08:07.008Z</time>
      </trkpt>
      <trkpt lat="45.02597" lon="2.9592">
        <ele>1128</ele>
        <time>2016-12-30T15:08:08.008Z</time>
      </trkpt>
      <trkpt lat="45.02598" lon="2.95929">
        <ele>1128</ele>
        <time>2016-12-30T15:08:09.008Z</time>
      </trkpt>
      <trkpt lat="45.02598" lon="2.95937">
        <ele>1128</ele>
        <time>2016-12-30T15:08:10.008Z</time>
      </trkpt>
      <trkpt lat="45.02599" lon="2.95945">
        <ele>1128</ele>
        <time>2016-12-30T15:08:11.008Z</time>
      </trkpt>
      <trkpt lat="45.02599" lon="2.95953">
        <ele>1128</ele>
        <time>2016-12-30T15:08:12.008Z</time>
      </trkpt>
      <trkpt lat="45.026" lon="2.95962">
        <ele>1128</ele>
        <time>2016-12-30T15:08:13.008Z</time>
      </trkpt>
      <trkpt lat="45.02601" lon="2.9597">
        <ele>1128</ele>
        <time>2016-12-30T15:08:14.008Z</time>
      </trkpt>
      <trkpt lat="45.02601" lon="2.95978">
        <ele>1128</ele>
        <time>2016-12-30T15:08:15.008Z</time>
      </trkpt>
      <trkpt lat="45.02602" lon="2.95987">
        <ele>1128</ele>
        <time>2016-12-30T15:08:16.008Z</time>
      </trkpt>
      <trkpt lat="45.02603" lon="2.95995">
        <ele>1128</ele>
        <time>2016-12-30T15:08:17.008Z</time>
      </trkpt>
      <trkpt lat="45.02605" lon="2.96003">
        <ele>1128</ele>
        <time>2016-12-30T15:08:18.008Z</time>
      </trkpt>
      <trkpt lat="45.02606" lon="2.96012">
        <ele>1128</ele>
        <time>2016-12-30T15:08:19.008Z</time>
      </trkpt>
      <trkpt lat="45.02608" lon="2.9602">
        <ele>1127.1405958914</ele>
        <time>2016-12-30T15:08:20.008Z</time>
      </trkpt>
      <trkpt lat="45.02611" lon="2.96027">
        <ele>1127</ele>
        <time>2016-12-30T15:08:21.008Z</time>
      </trkpt>
      <trkpt lat="45.02615" lon="2.96034">
        <ele>1127</ele>
        <time>2016-12-30T15:08:22.008Z</time>
      </trkpt>
      <trkpt lat="45.02619" lon="2.9604">
        <ele>1127</ele>
        <time>2016-12-30T15:08:23.008Z</time>
      </trkpt>
      <trkpt lat="45.02624" lon="2.96045">
        <ele>1127</ele>
        <time>2016-12-30T15:08:24.008Z</time>
      </trkpt>
      <trkpt lat="45.02628" lon="2.9605">
        <ele>1127</ele>
        <time>2016-12-30T15:08:25.008Z</time>
      </trkpt>
      <trkpt lat="45.02633" lon="2.96055">
        <ele>1127</ele>
        <time>2016-12-30T15:08:26.008Z</time>
      </trkpt>
      <trkpt lat="45.02637" lon="2.9606">
        <ele>1127</ele>
        <time>2016-12-30T15:08:27.008Z</time>
      </trkpt>
      <trkpt lat="45.02641" lon="2.96066">
        <ele>1127</ele>
        <time>2016-12-30T15:08:28.008Z</time>
      </trkpt>
      <trkpt lat="45.02645" lon="2.96071">
        <ele>1127</ele>
        <time>2016-12-30T15:08:29.008Z</time>
      </trkpt>
      <trkpt lat="45.02649" lon="2.96077">
        <ele>1128.7359905793</ele>
        <time>2016-12-30T15:08:30.008Z</time>
      </trkpt>
      <trkpt lat="45.02653" lon="2.96082">
        <ele>1129</ele>
        <time>2016-12-30T15:08:31.008Z</time>
      </trkpt>
      <trkpt lat="45.02657" lon="2.96088">
        <ele>1129</ele>
        <time>2016-12-30T15:08:32.008Z</time>
      </trkpt>
      <trkpt lat="45.02661" lon="2.96093">
        <ele>1129</ele>
        <time>2016-12-30T15:08:33.008Z</time>
      </trkpt>
      <trkpt lat="45.02665" lon="2.96098">
        <ele>1129</ele>
        <time>2016-12-30T15:08:34.008Z</time>
      </trkpt>
      <trkpt lat="45.02669" lon="2.96104">
        <ele>1129</ele>
        <time>2016-12-30T15:08:35.008Z</time>
      </trkpt>
      <trkpt lat="45.02673" lon="2.96109">
        <ele>1129</ele>
        <time>2016-12-30T15:08:36.008Z</time>
      </trkpt>
      <trkpt lat="45.02677" lon="2.96114">
        <ele>1129</ele>
        <time>2016-12-30T15:08:37.008Z</time>
      </trkpt>
      <trkpt lat="45.02681" lon="2.96118">
        <ele>1129</ele>
        <time>2016-12-30T15:08:38.008Z</time>
      </trkpt>
      <trkpt lat="45.02685" lon="2.96123">
        <ele>1129</ele>
        <time>2016-12-30T15:08:39.008Z</time>
      </trkpt>
      <trkpt lat="45.02689" lon="2.96128">
        <ele>1130.733321266</ele>
        <time>2016-12-30T15:08:40.008Z</time>
      </trkpt>
      <trkpt lat="45.02693" lon="2.96132">
        <ele>1131</ele>
        <time>2016-12-30T15:08:41.008Z</time>
      </trkpt>
      <trkpt lat="45.02697" lon="2.96136">
        <ele>1131</ele>
        <time>2016-12-30T15:08:42.008Z</time>
      </trkpt>
      <trkpt lat="45.02702" lon="2.9614">
        <ele>1131</ele>
        <time>2016-12-30T15:08:43.008Z</time>
      </trkpt>
      <trkpt lat="45.02706" lon="2.96144">
        <ele>1131</ele>
        <time>2016-12-30T15:08:44.008Z</time>
      </trkpt>
      <trkpt lat="45.0271" lon="2.96148">
        <ele>1131</ele>
        <time>2016-12-30T15:08:45.008Z</time>
      </trkpt>
      <trkpt lat="45.02714" lon="2.96152">
        <ele>1131</ele>
        <time>2016-12-30T15:08:46.008Z</time>
      </trkpt>
      <trkpt lat="45.02718" lon="2.96157">
        <ele>1131</ele>
        <time>2016-12-30T15:08:47.008Z</time>
      </trkpt>
      <trkpt lat="45.02722" lon="2.96161">
        <ele>1131</ele>
        <time>2016-12-30T15:08:48.008Z</time>
      </trkpt>
      <trkpt lat="45.02726" lon="2.96166">
        <ele>1131</ele>
        <time>2016-12-30T15:08:49.008Z</time>
      </trkpt>
      <trkpt lat="45.02729" lon="2.9617">
        <ele>1131.8594041086</ele>
        <time>2016-12-30T15:08:50.008Z</time>
      </trkpt>
      <trkpt lat="45.02733" lon="2.96175">
        <ele>1132</ele>
        <time>2016-12-30T15:08:51.008Z</time>
      </trkpt>
      <trkpt lat="45.02737" lon="2.96179">
        <ele>1132</ele>
        <time>2016-12-30T15:08:52.008Z</time>
      </trkpt>
      <trkpt lat="45.0274" lon="2.96184">
        <ele>1132</ele>
        <time>2016-12-30T15:08:53.008Z</time>
      </trkpt>
      <trkpt lat="45.02744" lon="2.96188">
        <ele>1132</ele>
        <time>2016-12-30T15:08:54.008Z</time>
      </trkpt>
      <trkpt lat="45.02747" lon="2.96193">
        <ele>1132</ele>
        <time>2016-12-30T15:08:55.008Z</time>
      </trkpt>
      <trkpt lat="45.0275" lon="2.96198">
        <ele>1132</ele>
        <time>2016-12-30T15:08:56.008Z</time>
      </trkpt>
      <trkpt lat="45.02754" lon="2.96203">
        <ele>1132</ele>
        <time>2016-12-30T15:08:57.008Z</time>
      </trkpt>
      <trkpt lat="45.02757" lon="2.96208">
        <ele>1132</ele>
        <time>2016-12-30T15:08:58.008Z</time>
      </trkpt>
      <trkpt lat="45.0276" lon="2.96212">
        <ele>1132</ele>
        <time>2016-12-30T15:08:59.008Z</time>
      </trkpt>
      <trkpt lat="45.02763" lon="2.96217">
        <ele>1132.8679952897</ele>
        <time>2016-12-30T15:09:00.008Z</time>
      </trkpt>
      <trkpt lat="45.02766" lon="2.96222">
        <ele>1133</ele>
        <time>2016-12-30T15:09:01.008Z</time>
      </trkpt>
      <trkpt lat="45.02769" lon="2.96227">
        <ele>1133</ele>
        <time>2016-12-30T15:09:02.008Z</time>
      </trkpt>
      <trkpt lat="45.02772" lon="2.96232">
        <ele>1133</ele>
        <time>2016-12-30T15:09:03.008Z</time>
      </trkpt>
      <trkpt lat="45.02775" lon="2.96237">
        <ele>1133</ele>
        <time>2016-12-30T15:09:04.008Z</time>
      </trkpt>
      <trkpt lat="45.02778" lon="2.96242">
        <ele>1133</ele>
        <time>2016-12-30T15:09:05.008Z</time>
      </trkpt>
      <trkpt lat="45.02781" lon="2.96247">
        <ele>1133</ele>
        <time>2016-12-30T15:09:06.008Z</time>
      </trkpt>
      <trkpt lat="45.02784" lon="2.96252">
        <ele>1133</ele>
        <time>2016-12-30T15:09:07.008Z</time>
      </trkpt>
      <trkpt lat="45.02787" lon="2.96256">
        <ele>1133</ele>
        <time>2016-12-30T15:09:08.008Z</time>
      </trkpt>
      <trkpt lat="45.0279" lon="2.96261">
        <ele>1133</ele>
        <time>2016-12-30T15:09:09.008Z</time>
      </trkpt>
      <trkpt lat="45.02793" lon="2.96265">
        <ele>1134.7359905793</ele>
        <time>2016-12-30T15:09:10.008Z</time>
      </trkpt>
      <trkpt lat="45.02795" lon="2.9627">
        <ele>1135</ele>
        <time>2016-12-30T15:09:11.008Z</time>
      </trkpt>
      <trkpt lat="45.02798" lon="2.96275">
        <ele>1135</ele>
        <time>2016-12-30T15:09:12.008Z</time>
      </trkpt>
      <trkpt lat="45.02801" lon="2.9628">
        <ele>1135</ele>
        <time>2016-12-30T15:09:13.008Z</time>
      </trkpt>
      <trkpt lat="45.02804" lon="2.96286">
        <ele>1135</ele>
        <time>2016-12-30T15:09:14.008Z</time>
      </trkpt>
      <trkpt lat="45.02807" lon="2.96291">
        <ele>1135</ele>
        <time>2016-12-30T15:09:15.008Z</time>
      </trkpt>
      <trkpt lat="45.02809" lon="2.96296">
        <ele>1135</ele>
        <time>2016-12-30T15:09:16.008Z</time>
      </trkpt>
      <trkpt lat="45.02812" lon="2.96301">
        <ele>1135</ele>
        <time>2016-12-30T15:09:17.008Z</time>
      </trkpt>
      <trkpt lat="45.02815" lon="2.96306">
        <ele>1135</ele>
        <time>2016-12-30T15:09:18.008Z</time>
      </trkpt>
      <trkpt lat="45.02817" lon="2.96311">
        <ele>1135</ele>
        <time>2016-12-30T15:09:19.008Z</time>
      </trkpt>
      <trkpt lat="45.0282" lon="2.96316">
        <ele>1136.7188082173</ele>
        <time>2016-12-30T15:09:20.008Z</time>
      </trkpt>
      <trkpt lat="45.02823" lon="2.96321">
        <ele>1137</ele>
        <time>2016-12-30T15:09:21.008Z</time>
      </trkpt>
      <trkpt lat="45.02826" lon="2.96326">
        <ele>1137</ele>
        <time>2016-12-30T15:09:22.008Z</time>
      </trkpt>
      <trkpt lat="45.02828" lon="2.96331">
        <ele>1137</ele>
        <time>2016-12-30T15:09:23.008Z</time>
      </trkpt>
      <trkpt lat="45.02831" lon="2.96336">
        <ele>1137</ele>
        <time>2016-12-30T15:09:24.008Z</time>
      </trkpt>
      <trkpt lat="45.02834" lon="2.96341">
        <ele>1137</ele>
        <time>2016-12-30T15:09:25.008Z</time>
      </trkpt>
      <trkpt lat="45.02836" lon="2.96346">
        <ele>1137</ele>
        <time>2016-12-30T15:09:26.008Z</time>
      </trkpt>
      <trkpt lat="45.02839" lon="2.9635">
        <ele>1137</ele>
        <time>2016-12-30T15:09:27.008Z</time>
      </trkpt>
      <trkpt lat="45.02841" lon="2.96355">
        <ele>1137</ele>
        <time>2016-12-30T15:09:28.008Z</time>
      </trkpt>
      <trkpt lat="45.02844" lon="2.96359">
        <ele>1137</ele>
        <time>2016-12-30T15:09:29.008Z</time>
      </trkpt>
      <trkpt lat="45.02846" lon="2.96364">
        <ele>1137</ele>
        <time>2016-12-30T15:09:30.008Z</time>
      </trkpt>
      <trkpt lat="45.02849" lon="2.96369">
        <ele>1137</ele>
        <time>2016-12-30T15:09:31.008Z</time>
      </trkpt>
      <trkpt lat="45.02851" lon="2.96373">
        <ele>1137</ele>
        <time>2016-12-30T15:09:32.008Z</time>
      </trkpt>
      <trkpt lat="45.02854" lon="2.96378">
        <ele>1137</ele>
        <time>2016-12-30T15:09:33.008Z</time>
      </trkpt>
      <trkpt lat="45.02856" lon="2.96382">
        <ele>1137</ele>
        <time>2016-12-30T15:09:34.008Z</time>
      </trkpt>
      <trkpt lat="45.02859" lon="2.96387">
        <ele>1137</ele>
        <time>2016-12-30T15:09:35.008Z</time>
      </trkpt>
      <trkpt lat="45.02862" lon="2.96391">
        <ele>1137</ele>
        <time>2016-12-30T15:09:36.008Z</time>
      </trkpt>
      <trkpt lat="45.02864" lon="2.96395">
        <ele>1137</ele>
        <time>2016-12-30T15:09:37.008Z</time>
      </trkpt>
      <trkpt lat="45.02866" lon="2.964">
        <ele>1137</ele>
        <time>2016-12-30T15:09:38.008Z</time>
      </trkpt>
      <trkpt lat="45.02869" lon="2.96404">
        <ele>1137</ele>
        <time>2016-12-30T15:09:39.008Z</time>
      </trkpt>
      <trkpt lat="45.02871" lon="2.96409">
        <ele>1137</ele>
        <time>2016-12-30T15:09:40.008Z</time>
      </trkpt>
      <trkpt lat="45.02873" lon="2.96413">
        <ele>1137</ele>
        <time>2016-12-30T15:09:41.008Z</time>
      </trkpt>
      <trkpt lat="45.02875" lon="2.96417">
        <ele>1137</ele>
        <time>2016-12-30T15:09:42.008Z</time>
      </trkpt>
      <trkpt lat="45.02877" lon="2.96422">
        <ele>1137</ele>
        <time>2016-12-30T15:09:43.008Z</time>
      </trkpt>
      <trkpt lat="45.02879" lon="2.96426">
        <ele>1137</ele>
        <time>2016-12-30T15:09:44.008Z</time>
      </trkpt>
      <trkpt lat="45.02881" lon="2.96431">
        <ele>1137</ele>
        <time>2016-12-30T15:09:45.008Z</time>
      </trkpt>
      <trkpt lat="45.02883" lon="2.96435">
        <ele>1137</ele>
        <time>2016-12-30T15:09:46.008Z</time>
      </trkpt>
      <trkpt lat="45.02884" lon="2.9644">
        <ele>1137</ele>
        <time>2016-12-30T15:09:47.008Z</time>
      </trkpt>
      <trkpt lat="45.02886" lon="2.96444">
        <ele>1137</ele>
        <time>2016-12-30T15:09:48.008Z</time>
      </trkpt>
      <trkpt lat="45.02888" lon="2.96448">
        <ele>1137</ele>
        <time>2016-12-30T15:09:49.008Z</time>
      </trkpt>
      <trkpt lat="45.02891" lon="2.96455">
        <ele>1137</ele>
        <time>2016-12-30T15:09:51.008Z</time>
      </trkpt>
      <trkpt lat="45.02892" lon="2.96462">
        <ele>1137</ele>
        <time>2016-12-30T15:09:53.008Z</time>
      </trkpt>
      <trkpt lat="45.02894" lon="2.96472">
        <ele>1137</ele>
        <time>2016-12-30T15:09:56.008Z</time>
      </trkpt>
      <trkpt lat="45.02897" lon="2.9648">
        <ele>1137</ele>
        <time>2016-12-30T15:09:59.008Z</time>
      </trkpt>
      <trkpt lat="45.02899" lon="2.96485">
        <ele>1137</ele>
        <time>2016-12-30T15:10:01.008Z</time>
      </trkpt>
      <trkpt lat="45.02902" lon="2.96492">
        <ele>1137</ele>
        <time>2016-12-30T15:10:03.008Z</time>
      </trkpt>
      <trkpt lat="45.02903" lon="2.96496">
        <ele>1137</ele>
        <time>2016-12-30T15:10:04.008Z</time>
      </trkpt>
      <trkpt lat="45.02905" lon="2.965">
        <ele>1137</ele>
        <time>2016-12-30T15:10:05.008Z</time>
      </trkpt>
      <trkpt lat="45.02907" lon="2.96504">
        <ele>1137</ele>
        <time>2016-12-30T15:10:06.008Z</time>
      </trkpt>
      <trkpt lat="45.0291" lon="2.96508">
        <ele>1137</ele>
        <time>2016-12-30T15:10:07.008Z</time>
      </trkpt>
      <trkpt lat="45.02912" lon="2.96512">
        <ele>1137</ele>
        <time>2016-12-30T15:10:08.008Z</time>
      </trkpt>
      <trkpt lat="45.02915" lon="2.96516">
        <ele>1137</ele>
        <time>2016-12-30T15:10:09.008Z</time>
      </trkpt>
      <trkpt lat="45.02918" lon="2.9652">
        <ele>1137</ele>
        <time>2016-12-30T15:10:10.008Z</time>
      </trkpt>
      <trkpt lat="45.02922" lon="2.96524">
        <ele>1137</ele>
        <time>2016-12-30T15:10:11.008Z</time>
      </trkpt>
      <trkpt lat="45.02925" lon="2.96529">
        <ele>1137</ele>
        <time>2016-12-30T15:10:12.008Z</time>
      </trkpt>
      <trkpt lat="45.02928" lon="2.96533">
        <ele>1137</ele>
        <time>2016-12-30T15:10:13.008Z</time>
      </trkpt>
      <trkpt lat="45.02934" lon="2.96543">
        <ele>1137</ele>
        <time>2016-12-30T15:10:15.008Z</time>
      </trkpt>
      <trkpt lat="45.02937" lon="2.96548">
        <ele>1137</ele>
        <time>2016-12-30T15:10:16.008Z</time>
      </trkpt>
      <trkpt lat="45.02941" lon="2.96554">
        <ele>1137</ele>
        <time>2016-12-30T15:10:17.008Z</time>
      </trkpt>
      <trkpt lat="45.02944" lon="2.96559">
        <ele>1137</ele>
        <time>2016-12-30T15:10:18.008Z</time>
      </trkpt>
      <trkpt lat="45.02947" lon="2.96565">
        <ele>1137</ele>
        <time>2016-12-30T15:10:19.008Z</time>
      </trkpt>
      <trkpt lat="45.02955" lon="2.96577">
        <ele>1137</ele>
        <time>2016-12-30T15:10:21.008Z</time>
      </trkpt>
      <trkpt lat="45.02958" lon="2.96583">
        <ele>1137</ele>
        <time>2016-12-30T15:10:22.008Z</time>
      </trkpt>
      <trkpt lat="45.02962" lon="2.96589">
        <ele>1137</ele>
        <time>2016-12-30T15:10:23.008Z</time>
      </trkpt>
      <trkpt lat="45.02969" lon="2.96602">
        <ele>1137</ele>
        <time>2016-12-30T15:10:25.008Z</time>
      </trkpt>
      <trkpt lat="45.02973" lon="2.96609">
        <ele>1137</ele>
        <time>2016-12-30T15:10:26.008Z</time>
      </trkpt>
      <trkpt lat="45.02976" lon="2.96615">
        <ele>1137</ele>
        <time>2016-12-30T15:10:27.008Z</time>
      </trkpt>
      <trkpt lat="45.0298" lon="2.96622">
        <ele>1137</ele>
        <time>2016-12-30T15:10:28.008Z</time>
      </trkpt>
      <trkpt lat="45.02984" lon="2.96628">
        <ele>1137</ele>
        <time>2016-12-30T15:10:29.008Z</time>
      </trkpt>
      <trkpt lat="45.02988" lon="2.96634">
        <ele>1136.1320047103</ele>
        <time>2016-12-30T15:10:30.008Z</time>
      </trkpt>
      <trkpt lat="45.02992" lon="2.96641">
        <ele>1136</ele>
        <time>2016-12-30T15:10:31.008Z</time>
      </trkpt>
      <trkpt lat="45.02996" lon="2.96647">
        <ele>1136</ele>
        <time>2016-12-30T15:10:32.008Z</time>
      </trkpt>
      <trkpt lat="45.03" lon="2.96653">
        <ele>1136</ele>
        <time>2016-12-30T15:10:33.008Z</time>
      </trkpt>
      <trkpt lat="45.03004" lon="2.96659">
        <ele>1136</ele>
        <time>2016-12-30T15:10:34.008Z</time>
      </trkpt>
      <trkpt lat="45.03008" lon="2.96665">
        <ele>1136</ele>
        <time>2016-12-30T15:10:35.008Z</time>
      </trkpt>
      <trkpt lat="45.03013" lon="2.96671">
        <ele>1136</ele>
        <time>2016-12-30T15:10:36.008Z</time>
      </trkpt>
      <trkpt lat="45.03017" lon="2.96677">
        <ele>1136</ele>
        <time>2016-12-30T15:10:37.008Z</time>
      </trkpt>
      <trkpt lat="45.03021" lon="2.96683">
        <ele>1136</ele>
        <time>2016-12-30T15:10:38.008Z</time>
      </trkpt>
      <trkpt lat="45.03026" lon="2.96689">
        <ele>1136</ele>
        <time>2016-12-30T15:10:39.008Z</time>
      </trkpt>
      <trkpt lat="45.0303" lon="2.96694">
        <ele>1136</ele>
        <time>2016-12-30T15:10:40.008Z</time>
      </trkpt>
      <trkpt lat="45.03035" lon="2.967">
        <ele>1136</ele>
        <time>2016-12-30T15:10:41.008Z</time>
      </trkpt>
      <trkpt lat="45.0304" lon="2.96706">
        <ele>1136</ele>
        <time>2016-12-30T15:10:42.008Z</time>
      </trkpt>
      <trkpt lat="45.03044" lon="2.96711">
        <ele>1136</ele>
        <time>2016-12-30T15:10:43.008Z</time>
      </trkpt>
      <trkpt lat="45.03049" lon="2.96717">
        <ele>1136</ele>
        <time>2016-12-30T15:10:44.008Z</time>
      </trkpt>
      <trkpt lat="45.03053" lon="2.96723">
        <ele>1136</ele>
        <time>2016-12-30T15:10:45.008Z</time>
      </trkpt>
      <trkpt lat="45.03057" lon="2.96729">
        <ele>1136</ele>
        <time>2016-12-30T15:10:46.008Z</time>
      </trkpt>
      <trkpt lat="45.03062" lon="2.96734">
        <ele>1136</ele>
        <time>2016-12-30T15:10:47.008Z</time>
      </trkpt>
      <trkpt lat="45.03066" lon="2.9674">
        <ele>1136</ele>
        <time>2016-12-30T15:10:48.008Z</time>
      </trkpt>
      <trkpt lat="45.0307" lon="2.96747">
        <ele>1136</ele>
        <time>2016-12-30T15:10:49.008Z</time>
      </trkpt>
      <trkpt lat="45.03074" lon="2.96753">
        <ele>1136</ele>
        <time>2016-12-30T15:10:50.008Z</time>
      </trkpt>
      <trkpt lat="45.03077" lon="2.9676">
        <ele>1136</ele>
        <time>2016-12-30T15:10:51.008Z</time>
      </trkpt>
      <trkpt lat="45.03081" lon="2.96767">
        <ele>1136</ele>
        <time>2016-12-30T15:10:52.008Z</time>
      </trkpt>
      <trkpt lat="45.03084" lon="2.96774">
        <ele>1136</ele>
        <time>2016-12-30T15:10:53.008Z</time>
      </trkpt>
      <trkpt lat="45.03087" lon="2.96781">
        <ele>1136</ele>
        <time>2016-12-30T15:10:54.008Z</time>
      </trkpt>
      <trkpt lat="45.03091" lon="2.96788">
        <ele>1136</ele>
        <time>2016-12-30T15:10:55.008Z</time>
      </trkpt>
      <trkpt lat="45.03094" lon="2.96795">
        <ele>1136</ele>
        <time>2016-12-30T15:10:56.008Z</time>
      </trkpt>
      <trkpt lat="45.03097" lon="2.96802">
        <ele>1136</ele>
        <time>2016-12-30T15:10:57.008Z</time>
      </trkpt>
      <trkpt lat="45.031" lon="2.96809">
        <ele>1136</ele>
        <time>2016-12-30T15:10:58.008Z</time>
      </trkpt>
      <trkpt lat="45.03103" lon="2.96815">
        <ele>1136</ele>
        <time>2016-12-30T15:10:59.008Z</time>
      </trkpt>
      <trkpt lat="45.03105" lon="2.96822">
        <ele>1134.2640094207</ele>
        <time>2016-12-30T15:11:00.008Z</time>
      </trkpt>
      <trkpt lat="45.03107" lon="2.96827">
        <ele>1134</ele>
        <time>2016-12-30T15:11:01.008Z</time>
      </trkpt>
      <trkpt lat="45.03109" lon="2.96832">
        <ele>1134</ele>
        <time>2016-12-30T15:11:02.008Z</time>
      </trkpt>
      <trkpt lat="45.03111" lon="2.96837">
        <ele>1134</ele>
        <time>2016-12-30T15:11:04.008Z</time>
      </trkpt>
      <trkpt lat="45.03106" lon="2.9684">
        <ele>1134</ele>
        <time>2016-12-30T15:11:09.008Z</time>
      </trkpt>
      <trkpt lat="45.03101" lon="2.96844">
        <ele>1133</ele>
        <time>2016-12-30T15:11:11.008Z</time>
      </trkpt>
      <trkpt lat="45.03096" lon="2.96849">
        <ele>1133</ele>
        <time>2016-12-30T15:11:13.008Z</time>
      </trkpt>
      <trkpt lat="45.03092" lon="2.96854">
        <ele>1133</ele>
        <time>2016-12-30T15:11:15.008Z</time>
      </trkpt>
      <trkpt lat="45.03087" lon="2.9686">
        <ele>1133</ele>
        <time>2016-12-30T15:11:17.008Z</time>
      </trkpt>
      <trkpt lat="45.03083" lon="2.96866">
        <ele>1133</ele>
        <time>2016-12-30T15:11:19.008Z</time>
      </trkpt>
      <trkpt lat="45.03078" lon="2.96873">
        <ele>1133</ele>
        <time>2016-12-30T15:11:21.008Z</time>
      </trkpt>
      <trkpt lat="45.03073" lon="2.96879">
        <ele>1133</ele>
        <time>2016-12-30T15:11:23.008Z</time>
      </trkpt>
      <trkpt lat="45.03068" lon="2.96886">
        <ele>1133</ele>
        <time>2016-12-30T15:11:25.008Z</time>
      </trkpt>
      <trkpt lat="45.03064" lon="2.96893">
        <ele>1133</ele>
        <time>2016-12-30T15:11:27.008Z</time>
      </trkpt>
      <trkpt lat="45.03059" lon="2.96898">
        <ele>1133</ele>
        <time>2016-12-30T15:11:29.008Z</time>
      </trkpt>
      <trkpt lat="45.03054" lon="2.96904">
        <ele>1133</ele>
        <time>2016-12-30T15:11:31.008Z</time>
      </trkpt>
      <trkpt lat="45.0305" lon="2.9691">
        <ele>1133</ele>
        <time>2016-12-30T15:11:33.008Z</time>
      </trkpt>
      <trkpt lat="45.03045" lon="2.96915">
        <ele>1133</ele>
        <time>2016-12-30T15:11:35.008Z</time>
      </trkpt>
      <trkpt lat="45.03039" lon="2.96919">
        <ele>1133</ele>
        <time>2016-12-30T15:11:37.008Z</time>
      </trkpt>
      <trkpt lat="45.03034" lon="2.96927">
        <ele>1133</ele>
        <time>2016-12-30T15:11:39.008Z</time>
      </trkpt>
      <trkpt lat="45.03028" lon="2.96936">
        <ele>1133</ele>
        <time>2016-12-30T15:11:41.008Z</time>
      </trkpt>
      <trkpt lat="45.03025" lon="2.96941">
        <ele>1133</ele>
        <time>2016-12-30T15:11:42.008Z</time>
      </trkpt>
      <trkpt lat="45.03022" lon="2.96946">
        <ele>1133</ele>
        <time>2016-12-30T15:11:43.008Z</time>
      </trkpt>
      <trkpt lat="45.03019" lon="2.96953">
        <ele>1133</ele>
        <time>2016-12-30T15:11:44.008Z</time>
      </trkpt>
      <trkpt lat="45.03017" lon="2.96959">
        <ele>1133</ele>
        <time>2016-12-30T15:11:45.008Z</time>
      </trkpt>
      <trkpt lat="45.03014" lon="2.96966">
        <ele>1133</ele>
        <time>2016-12-30T15:11:46.008Z</time>
      </trkpt>
      <trkpt lat="45.03007" lon="2.96977">
        <ele>1133</ele>
        <time>2016-12-30T15:11:48.008Z</time>
      </trkpt>
      <trkpt lat="45.03" lon="2.96987">
        <ele>1129.5623835655</ele>
        <time>2016-12-30T15:11:50.008Z</time>
      </trkpt>
      <trkpt lat="45.02998" lon="2.96992">
        <ele>1129</ele>
        <time>2016-12-30T15:11:51.008Z</time>
      </trkpt>
      <trkpt lat="45.02993" lon="2.97">
        <ele>1129</ele>
        <time>2016-12-30T15:11:53.008Z</time>
      </trkpt>
      <trkpt lat="45.02988" lon="2.97008">
        <ele>1126.3959858686</ele>
        <time>2016-12-30T15:11:55.008Z</time>
      </trkpt>
      <trkpt lat="45.02984" lon="2.97016">
        <ele>1126</ele>
        <time>2016-12-30T15:11:57.008Z</time>
      </trkpt>
      <trkpt lat="45.0298" lon="2.97024">
        <ele>1126</ele>
        <time>2016-12-30T15:11:59.008Z</time>
      </trkpt>
      <trkpt lat="45.02977" lon="2.97031">
        <ele>1124</ele>
        <time>2016-12-30T15:12:01.008Z</time>
      </trkpt>
      <trkpt lat="45.02975" lon="2.97035">
        <ele>1124</ele>
        <time>2016-12-30T15:12:03.008Z</time>
      </trkpt>
      <trkpt lat="45.02971" lon="2.97037">
        <ele>1123</ele>
        <time>2016-12-30T15:12:11.008Z</time>
      </trkpt>
      <trkpt lat="45.02965" lon="2.97042">
        <ele>1123</ele>
        <time>2016-12-30T15:12:14.008Z</time>
      </trkpt>
      <trkpt lat="45.02962" lon="2.97047">
        <ele>1123</ele>
        <time>2016-12-30T15:12:16.008Z</time>
      </trkpt>
      <trkpt lat="45.0296" lon="2.97053">
        <ele>1123</ele>
        <time>2016-12-30T15:12:18.008Z</time>
      </trkpt>
      <trkpt lat="45.02961" lon="2.97057">
        <ele>1122.1405958914</ele>
        <time>2016-12-30T15:12:20.008Z</time>
      </trkpt>
      <trkpt lat="45.02961" lon="2.9706">
        <ele>1122</ele>
        <time>2016-12-30T15:12:26.008Z</time>
      </trkpt>
      <trkpt lat="45.02962" lon="2.97064">
        <ele>1122</ele>
        <time>2016-12-30T15:12:28.008Z</time>
      </trkpt>
      <trkpt lat="45.02964" lon="2.97068">
        <ele>1121.1320047103</ele>
        <time>2016-12-30T15:12:30.008Z</time>
      </trkpt>
      <trkpt lat="45.02967" lon="2.97074">
        <ele>1121</ele>
        <time>2016-12-30T15:12:32.008Z</time>
      </trkpt>
      <trkpt lat="45.02968" lon="2.97077">
        <ele>1121</ele>
        <time>2016-12-30T15:12:33.008Z</time>
      </trkpt>
      <trkpt lat="45.0297" lon="2.97082">
        <ele>1121</ele>
        <time>2016-12-30T15:12:34.008Z</time>
      </trkpt>
      <trkpt lat="45.02972" lon="2.97086">
        <ele>1121</ele>
        <time>2016-12-30T15:12:35.008Z</time>
      </trkpt>
      <trkpt lat="45.02974" lon="2.97091">
        <ele>1121</ele>
        <time>2016-12-30T15:12:36.008Z</time>
      </trkpt>
      <trkpt lat="45.02976" lon="2.97096">
        <ele>1121</ele>
        <time>2016-12-30T15:12:37.008Z</time>
      </trkpt>
      <trkpt lat="45.02977" lon="2.971">
        <ele>1121</ele>
        <time>2016-12-30T15:12:38.008Z</time>
      </trkpt>
      <trkpt lat="45.02976" lon="2.97109">
        <ele>1120.1320047103</ele>
        <time>2016-12-30T15:12:40.008Z</time>
      </trkpt>
      <trkpt lat="45.02974" lon="2.97114">
        <ele>1120</ele>
        <time>2016-12-30T15:12:41.008Z</time>
      </trkpt>
      <trkpt lat="45.02972" lon="2.97119">
        <ele>1120</ele>
        <time>2016-12-30T15:12:42.008Z</time>
      </trkpt>
      <trkpt lat="45.0297" lon="2.97125">
        <ele>1120</ele>
        <time>2016-12-30T15:12:43.008Z</time>
      </trkpt>
      <trkpt lat="45.02968" lon="2.97131">
        <ele>1120</ele>
        <time>2016-12-30T15:12:44.008Z</time>
      </trkpt>
      <trkpt lat="45.02967" lon="2.97138">
        <ele>1120</ele>
        <time>2016-12-30T15:12:45.008Z</time>
      </trkpt>
      <trkpt lat="45.02966" lon="2.97144">
        <ele>1120</ele>
        <time>2016-12-30T15:12:46.008Z</time>
      </trkpt>
      <trkpt lat="45.02965" lon="2.97151">
        <ele>1120</ele>
        <time>2016-12-30T15:12:47.008Z</time>
      </trkpt>
      <trkpt lat="45.02963" lon="2.97158">
        <ele>1120</ele>
        <time>2016-12-30T15:12:48.008Z</time>
      </trkpt>
      <trkpt lat="45.0296" lon="2.97164">
        <ele>1120</ele>
        <time>2016-12-30T15:12:49.008Z</time>
      </trkpt>
      <trkpt lat="45.02958" lon="2.9717">
        <ele>1119.1405958914</ele>
        <time>2016-12-30T15:12:50.008Z</time>
      </trkpt>
      <trkpt lat="45.02955" lon="2.97176">
        <ele>1119</ele>
        <time>2016-12-30T15:12:51.008Z</time>
      </trkpt>
      <trkpt lat="45.02953" lon="2.97181">
        <ele>1119</ele>
        <time>2016-12-30T15:12:52.008Z</time>
      </trkpt>
      <trkpt lat="45.02951" lon="2.97186">
        <ele>1119</ele>
        <time>2016-12-30T15:12:53.008Z</time>
      </trkpt>
      <trkpt lat="45.02949" lon="2.97191">
        <ele>1119</ele>
        <time>2016-12-30T15:12:54.008Z</time>
      </trkpt>
      <trkpt lat="45.02947" lon="2.97197">
        <ele>1119</ele>
        <time>2016-12-30T15:12:55.008Z</time>
      </trkpt>
      <trkpt lat="45.02944" lon="2.97202">
        <ele>1119</ele>
        <time>2016-12-30T15:12:56.008Z</time>
      </trkpt>
      <trkpt lat="45.02942" lon="2.97207">
        <ele>1119</ele>
        <time>2016-12-30T15:12:57.008Z</time>
      </trkpt>
      <trkpt lat="45.0294" lon="2.97212">
        <ele>1119</ele>
        <time>2016-12-30T15:12:58.008Z</time>
      </trkpt>
      <trkpt lat="45.02937" lon="2.97217">
        <ele>1119</ele>
        <time>2016-12-30T15:12:59.008Z</time>
      </trkpt>
      <trkpt lat="45.02935" lon="2.97222">
        <ele>1118.1320047103</ele>
        <time>2016-12-30T15:13:00.008Z</time>
      </trkpt>
      <trkpt lat="45.02933" lon="2.97227">
        <ele>1118</ele>
        <time>2016-12-30T15:13:01.008Z</time>
      </trkpt>
      <trkpt lat="45.02931" lon="2.97231">
        <ele>1118</ele>
        <time>2016-12-30T15:13:02.008Z</time>
      </trkpt>
      <trkpt lat="45.02929" lon="2.97236">
        <ele>1118</ele>
        <time>2016-12-30T15:13:03.008Z</time>
      </trkpt>
      <trkpt lat="45.02927" lon="2.97241">
        <ele>1118</ele>
        <time>2016-12-30T15:13:04.008Z</time>
      </trkpt>
      <trkpt lat="45.02926" lon="2.97246">
        <ele>1118</ele>
        <time>2016-12-30T15:13:05.008Z</time>
      </trkpt>
      <trkpt lat="45.02924" lon="2.97251">
        <ele>1118</ele>
        <time>2016-12-30T15:13:06.008Z</time>
      </trkpt>
      <trkpt lat="45.02923" lon="2.97256">
        <ele>1118</ele>
        <time>2016-12-30T15:13:07.008Z</time>
      </trkpt>
      <trkpt lat="45.02922" lon="2.97261">
        <ele>1118</ele>
        <time>2016-12-30T15:13:08.008Z</time>
      </trkpt>
      <trkpt lat="45.02921" lon="2.97266">
        <ele>1118</ele>
        <time>2016-12-30T15:13:09.008Z</time>
      </trkpt>
      <trkpt lat="45.0292" lon="2.97271">
        <ele>1119.7359905793</ele>
        <time>2016-12-30T15:13:10.008Z</time>
      </trkpt>
      <trkpt lat="45.0292" lon="2.97276">
        <ele>1120</ele>
        <time>2016-12-30T15:13:11.008Z</time>
      </trkpt>
      <trkpt lat="45.02919" lon="2.97281">
        <ele>1120</ele>
        <time>2016-12-30T15:13:12.008Z</time>
      </trkpt>
      <trkpt lat="45.02917" lon="2.97291">
        <ele>1120</ele>
        <time>2016-12-30T15:13:14.008Z</time>
      </trkpt>
      <trkpt lat="45.02916" lon="2.97301">
        <ele>1120</ele>
        <time>2016-12-30T15:13:16.008Z</time>
      </trkpt>
      <trkpt lat="45.02915" lon="2.9731">
        <ele>1120</ele>
        <time>2016-12-30T15:13:18.008Z</time>
      </trkpt>
      <trkpt lat="45.02915" lon="2.97319">
        <ele>1120.8594041086</ele>
        <time>2016-12-30T15:13:20.008Z</time>
      </trkpt>
      <trkpt lat="45.02914" lon="2.97328">
        <ele>1121</ele>
        <time>2016-12-30T15:13:22.008Z</time>
      </trkpt>
      <trkpt lat="45.02913" lon="2.97337">
        <ele>1121</ele>
        <time>2016-12-30T15:13:24.008Z</time>
      </trkpt>
      <trkpt lat="45.02911" lon="2.97344">
        <ele>1121</ele>
        <time>2016-12-30T15:13:26.008Z</time>
      </trkpt>
      <trkpt lat="45.02908" lon="2.97349">
        <ele>1121</ele>
        <time>2016-12-30T15:13:29.008Z</time>
      </trkpt>
      <trkpt lat="45.02905" lon="2.97353">
        <ele>1122</ele>
        <time>2016-12-30T15:13:32.008Z</time>
      </trkpt>
      <trkpt lat="45.02903" lon="2.97357">
        <ele>1122</ele>
        <time>2016-12-30T15:13:35.008Z</time>
      </trkpt>
      <trkpt lat="45.029" lon="2.97361">
        <ele>1122</ele>
        <time>2016-12-30T15:13:38.008Z</time>
      </trkpt>
      <trkpt lat="45.02897" lon="2.97364">
        <ele>1124</ele>
        <time>2016-12-30T15:13:41.008Z</time>
      </trkpt>
      <trkpt lat="45.02894" lon="2.97369">
        <ele>1124</ele>
        <time>2016-12-30T15:13:44.008Z</time>
      </trkpt>
      <trkpt lat="45.0289" lon="2.97373">
        <ele>1124</ele>
        <time>2016-12-30T15:13:47.008Z</time>
      </trkpt>
      <trkpt lat="45.02887" lon="2.97378">
        <ele>1124.8594041086</ele>
        <time>2016-12-30T15:13:50.008Z</time>
      </trkpt>
      <trkpt lat="45.02884" lon="2.97383">
        <ele>1125</ele>
        <time>2016-12-30T15:13:53.008Z</time>
      </trkpt>
      <trkpt lat="45.02881" lon="2.97387">
        <ele>1125</ele>
        <time>2016-12-30T15:13:55.008Z</time>
      </trkpt>
      <trkpt lat="45.02878" lon="2.97392">
        <ele>1125</ele>
        <time>2016-12-30T15:13:57.008Z</time>
      </trkpt>
      <trkpt lat="45.02875" lon="2.97397">
        <ele>1125</ele>
        <time>2016-12-30T15:13:59.008Z</time>
      </trkpt>
      <trkpt lat="45.0287" lon="2.97404">
        <ele>1128</ele>
        <time>2016-12-30T15:14:02.008Z</time>
      </trkpt>
      <trkpt lat="45.02866" lon="2.97409">
        <ele>1128</ele>
        <time>2016-12-30T15:14:04.008Z</time>
      </trkpt>
      <trkpt lat="45.02863" lon="2.97414">
        <ele>1129</ele>
        <time>2016-12-30T15:14:06.008Z</time>
      </trkpt>
      <trkpt lat="45.02861" lon="2.9742">
        <ele>1129</ele>
        <time>2016-12-30T15:14:08.008Z</time>
      </trkpt>
      <trkpt lat="45.02858" lon="2.97426">
        <ele>1130.7359905793</ele>
        <time>2016-12-30T15:14:10.008Z</time>
      </trkpt>
      <trkpt lat="45.02856" lon="2.97432">
        <ele>1131</ele>
        <time>2016-12-30T15:14:12.008Z</time>
      </trkpt>
      <trkpt lat="45.02853" lon="2.97441">
        <ele>1131.8666718384</ele>
        <time>2016-12-30T15:14:15.008Z</time>
      </trkpt>
      <trkpt lat="45.02851" lon="2.97447">
        <ele>1132</ele>
        <time>2016-12-30T15:14:17.008Z</time>
      </trkpt>
      <trkpt lat="45.02848" lon="2.97452">
        <ele>1132</ele>
        <time>2016-12-30T15:14:19.008Z</time>
      </trkpt>
      <trkpt lat="45.02846" lon="2.97458">
        <ele>1134</ele>
        <time>2016-12-30T15:14:21.008Z</time>
      </trkpt>
      <trkpt lat="45.02843" lon="2.97462">
        <ele>1134</ele>
        <time>2016-12-30T15:14:23.008Z</time>
      </trkpt>
      <trkpt lat="45.0284" lon="2.97467">
        <ele>1134.8680047105</ele>
        <time>2016-12-30T15:14:25.008Z</time>
      </trkpt>
      <trkpt lat="45.02836" lon="2.97471">
        <ele>1135</ele>
        <time>2016-12-30T15:14:27.008Z</time>
      </trkpt>
      <trkpt lat="45.02833" lon="2.97474">
        <ele>1135</ele>
        <time>2016-12-30T15:14:29.008Z</time>
      </trkpt>
      <trkpt lat="45.0283" lon="2.97477">
        <ele>1136</ele>
        <time>2016-12-30T15:14:31.008Z</time>
      </trkpt>
      <trkpt lat="45.02825" lon="2.97481">
        <ele>1136</ele>
        <time>2016-12-30T15:14:34.008Z</time>
      </trkpt>
      <trkpt lat="45.02821" lon="2.97484">
        <ele>1136</ele>
        <time>2016-12-30T15:14:36.008Z</time>
      </trkpt>
      <trkpt lat="45.02818" lon="2.97488">
        <ele>1136</ele>
        <time>2016-12-30T15:14:38.008Z</time>
      </trkpt>
      <trkpt lat="45.02814" lon="2.97494">
        <ele>1138</ele>
        <time>2016-12-30T15:14:41.008Z</time>
      </trkpt>
      <trkpt lat="45.02811" lon="2.97501">
        <ele>1138</ele>
        <time>2016-12-30T15:14:44.008Z</time>
      </trkpt>
      <trkpt lat="45.02809" lon="2.97505">
        <ele>1139</ele>
        <time>2016-12-30T15:14:46.008Z</time>
      </trkpt>
      <trkpt lat="45.02806" lon="2.97509">
        <ele>1139</ele>
        <time>2016-12-30T15:14:48.008Z</time>
      </trkpt>
      <trkpt lat="45.02804" lon="2.97514">
        <ele>1139</ele>
        <time>2016-12-30T15:14:50.008Z</time>
      </trkpt>
      <trkpt lat="45.028" lon="2.9752">
        <ele>1139</ele>
        <time>2016-12-30T15:14:52.008Z</time>
      </trkpt>
      <trkpt lat="45.02797" lon="2.97525">
        <ele>1139</ele>
        <time>2016-12-30T15:14:54.008Z</time>
      </trkpt>
      <trkpt lat="45.02793" lon="2.97531">
        <ele>1139</ele>
        <time>2016-12-30T15:14:56.008Z</time>
      </trkpt>
      <trkpt lat="45.0279" lon="2.97537">
        <ele>1139</ele>
        <time>2016-12-30T15:14:58.008Z</time>
      </trkpt>
      <trkpt lat="45.02788" lon="2.9754">
        <ele>1139</ele>
        <time>2016-12-30T15:14:59.008Z</time>
      </trkpt>
      <trkpt lat="45.02786" lon="2.97543">
        <ele>1140.7359905793</ele>
        <time>2016-12-30T15:15:00.008Z</time>
      </trkpt>
      <trkpt lat="45.02784" lon="2.97547">
        <ele>1141</ele>
        <time>2016-12-30T15:15:01.008Z</time>
      </trkpt>
      <trkpt lat="45.02779" lon="2.97553">
        <ele>1141</ele>
        <time>2016-12-30T15:15:03.008Z</time>
      </trkpt>
      <trkpt lat="45.02777" lon="2.97557">
        <ele>1141</ele>
        <time>2016-12-30T15:15:04.008Z</time>
      </trkpt>
      <trkpt lat="45.02775" lon="2.9756">
        <ele>1141</ele>
        <time>2016-12-30T15:15:05.008Z</time>
      </trkpt>
      <trkpt lat="45.02772" lon="2.97564">
        <ele>1141</ele>
        <time>2016-12-30T15:15:06.008Z</time>
      </trkpt>
      <trkpt lat="45.0277" lon="2.97567">
        <ele>1141</ele>
        <time>2016-12-30T15:15:07.008Z</time>
      </trkpt>
      <trkpt lat="45.02767" lon="2.9757">
        <ele>1141</ele>
        <time>2016-12-30T15:15:08.008Z</time>
      </trkpt>
      <trkpt lat="45.02765" lon="2.97573">
        <ele>1141</ele>
        <time>2016-12-30T15:15:09.008Z</time>
      </trkpt>
      <trkpt lat="45.02761" lon="2.97577">
        <ele>1141</ele>
        <time>2016-12-30T15:15:11.008Z</time>
      </trkpt>
      <trkpt lat="45.02757" lon="2.97583">
        <ele>1141</ele>
        <time>2016-12-30T15:15:13.008Z</time>
      </trkpt>
      <trkpt lat="45.02755" lon="2.97586">
        <ele>1141</ele>
        <time>2016-12-30T15:15:14.008Z</time>
      </trkpt>
      <trkpt lat="45.02753" lon="2.97589">
        <ele>1141</ele>
        <time>2016-12-30T15:15:15.008Z</time>
      </trkpt>
      <trkpt lat="45.0275" lon="2.97593">
        <ele>1141</ele>
        <time>2016-12-30T15:15:16.008Z</time>
      </trkpt>
      <trkpt lat="45.02748" lon="2.97598">
        <ele>1141</ele>
        <time>2016-12-30T15:15:17.008Z</time>
      </trkpt>
      <trkpt lat="45.02744" lon="2.97608">
        <ele>1141</ele>
        <time>2016-12-30T15:15:19.008Z</time>
      </trkpt>
      <trkpt lat="45.02743" lon="2.97614">
        <ele>1140.1405958914</ele>
        <time>2016-12-30T15:15:20.008Z</time>
      </trkpt>
      <trkpt lat="45.02741" lon="2.9762">
        <ele>1140</ele>
        <time>2016-12-30T15:15:21.008Z</time>
      </trkpt>
      <trkpt lat="45.02739" lon="2.97626">
        <ele>1140</ele>
        <time>2016-12-30T15:15:22.008Z</time>
      </trkpt>
      <trkpt lat="45.02738" lon="2.97633">
        <ele>1140</ele>
        <time>2016-12-30T15:15:23.008Z</time>
      </trkpt>
      <trkpt lat="45.02736" lon="2.97639">
        <ele>1140</ele>
        <time>2016-12-30T15:15:24.008Z</time>
      </trkpt>
      <trkpt lat="45.02734" lon="2.97646">
        <ele>1140</ele>
        <time>2016-12-30T15:15:25.008Z</time>
      </trkpt>
      <trkpt lat="45.02732" lon="2.97652">
        <ele>1140</ele>
        <time>2016-12-30T15:15:26.008Z</time>
      </trkpt>
      <trkpt lat="45.0273" lon="2.97659">
        <ele>1140</ele>
        <time>2016-12-30T15:15:27.008Z</time>
      </trkpt>
      <trkpt lat="45.02728" lon="2.97666">
        <ele>1140</ele>
        <time>2016-12-30T15:15:28.008Z</time>
      </trkpt>
      <trkpt lat="45.02726" lon="2.97673">
        <ele>1140</ele>
        <time>2016-12-30T15:15:29.008Z</time>
      </trkpt>
      <trkpt lat="45.02723" lon="2.9768">
        <ele>1137.396014131</ele>
        <time>2016-12-30T15:15:30.008Z</time>
      </trkpt>
      <trkpt lat="45.02719" lon="2.97685">
        <ele>1137</ele>
        <time>2016-12-30T15:15:31.008Z</time>
      </trkpt>
      <trkpt lat="45.02715" lon="2.97691">
        <ele>1137</ele>
        <time>2016-12-30T15:15:32.008Z</time>
      </trkpt>
      <trkpt lat="45.02711" lon="2.97695">
        <ele>1137</ele>
        <time>2016-12-30T15:15:33.008Z</time>
      </trkpt>
      <trkpt lat="45.02707" lon="2.97698">
        <ele>1137</ele>
        <time>2016-12-30T15:15:34.008Z</time>
      </trkpt>
      <trkpt lat="45.02699" lon="2.97706">
        <ele>1137</ele>
        <time>2016-12-30T15:15:36.008Z</time>
      </trkpt>
      <trkpt lat="45.02695" lon="2.97709">
        <ele>1137</ele>
        <time>2016-12-30T15:15:37.008Z</time>
      </trkpt>
      <trkpt lat="45.02687" lon="2.97717">
        <ele>1137</ele>
        <time>2016-12-30T15:15:39.008Z</time>
      </trkpt>
      <trkpt lat="45.02679" lon="2.97725">
        <ele>1137</ele>
        <time>2016-12-30T15:15:41.008Z</time>
      </trkpt>
      <trkpt lat="45.02675" lon="2.97729">
        <ele>1137</ele>
        <time>2016-12-30T15:15:42.008Z</time>
      </trkpt>
      <trkpt lat="45.02671" lon="2.97733">
        <ele>1137</ele>
        <time>2016-12-30T15:15:43.008Z</time>
      </trkpt>
      <trkpt lat="45.02667" lon="2.97738">
        <ele>1137</ele>
        <time>2016-12-30T15:15:44.008Z</time>
      </trkpt>
      <trkpt lat="45.0266" lon="2.97746">
        <ele>1137</ele>
        <time>2016-12-30T15:15:46.008Z</time>
      </trkpt>
      <trkpt lat="45.02652" lon="2.97753">
        <ele>1137</ele>
        <time>2016-12-30T15:15:48.008Z</time>
      </trkpt>
      <trkpt lat="45.02649" lon="2.97757">
        <ele>1137</ele>
        <time>2016-12-30T15:15:49.008Z</time>
      </trkpt>
      <trkpt lat="45.02645" lon="2.97762">
        <ele>1137</ele>
        <time>2016-12-30T15:15:50.008Z</time>
      </trkpt>
      <trkpt lat="45.02642" lon="2.97766">
        <ele>1137</ele>
        <time>2016-12-30T15:15:51.008Z</time>
      </trkpt>
      <trkpt lat="45.02639" lon="2.9777">
        <ele>1137</ele>
        <time>2016-12-30T15:15:52.008Z</time>
      </trkpt>
      <trkpt lat="45.02635" lon="2.97774">
        <ele>1137</ele>
        <time>2016-12-30T15:15:53.008Z</time>
      </trkpt>
      <trkpt lat="45.02632" lon="2.97778">
        <ele>1137</ele>
        <time>2016-12-30T15:15:54.008Z</time>
      </trkpt>
      <trkpt lat="45.02629" lon="2.97783">
        <ele>1137</ele>
        <time>2016-12-30T15:15:55.008Z</time>
      </trkpt>
      <trkpt lat="45.02626" lon="2.97787">
        <ele>1137</ele>
        <time>2016-12-30T15:15:56.008Z</time>
      </trkpt>
      <trkpt lat="45.02623" lon="2.97792">
        <ele>1137</ele>
        <time>2016-12-30T15:15:57.008Z</time>
      </trkpt>
      <trkpt lat="45.02621" lon="2.97796">
        <ele>1137</ele>
        <time>2016-12-30T15:15:58.008Z</time>
      </trkpt>
      <trkpt lat="45.02622" lon="2.97806">
        <ele>1136.1320047103</ele>
        <time>2016-12-30T15:16:00.008Z</time>
      </trkpt>
      <trkpt lat="45.02626" lon="2.97815">
        <ele>1136</ele>
        <time>2016-12-30T15:16:02.008Z</time>
      </trkpt>
      <trkpt lat="45.02627" lon="2.97821">
        <ele>1136</ele>
        <time>2016-12-30T15:16:03.008Z</time>
      </trkpt>
      <trkpt lat="45.02629" lon="2.97826">
        <ele>1136</ele>
        <time>2016-12-30T15:16:04.008Z</time>
      </trkpt>
      <trkpt lat="45.02632" lon="2.97837">
        <ele>1136</ele>
        <time>2016-12-30T15:16:06.008Z</time>
      </trkpt>
      <trkpt lat="45.02633" lon="2.97843">
        <ele>1136</ele>
        <time>2016-12-30T15:16:07.008Z</time>
      </trkpt>
      <trkpt lat="45.02635" lon="2.97849">
        <ele>1136</ele>
        <time>2016-12-30T15:16:08.008Z</time>
      </trkpt>
      <trkpt lat="45.02637" lon="2.97854">
        <ele>1136</ele>
        <time>2016-12-30T15:16:09.008Z</time>
      </trkpt>
      <trkpt lat="45.02639" lon="2.9786">
        <ele>1136</ele>
        <time>2016-12-30T15:16:10.008Z</time>
      </trkpt>
      <trkpt lat="45.02641" lon="2.97866">
        <ele>1136</ele>
        <time>2016-12-30T15:16:11.008Z</time>
      </trkpt>
      <trkpt lat="45.02643" lon="2.97872">
        <ele>1136</ele>
        <time>2016-12-30T15:16:12.008Z</time>
      </trkpt>
      <trkpt lat="45.02645" lon="2.97878">
        <ele>1136</ele>
        <time>2016-12-30T15:16:13.008Z</time>
      </trkpt>
      <trkpt lat="45.02647" lon="2.97884">
        <ele>1136</ele>
        <time>2016-12-30T15:16:14.008Z</time>
      </trkpt>
      <trkpt lat="45.02648" lon="2.97891">
        <ele>1136</ele>
        <time>2016-12-30T15:16:15.008Z</time>
      </trkpt>
      <trkpt lat="45.02649" lon="2.97897">
        <ele>1136</ele>
        <time>2016-12-30T15:16:16.008Z</time>
      </trkpt>
      <trkpt lat="45.02651" lon="2.97904">
        <ele>1136</ele>
        <time>2016-12-30T15:16:17.008Z</time>
      </trkpt>
      <trkpt lat="45.02651" lon="2.9791">
        <ele>1136</ele>
        <time>2016-12-30T15:16:18.008Z</time>
      </trkpt>
      <trkpt lat="45.02652" lon="2.97917">
        <ele>1136</ele>
        <time>2016-12-30T15:16:19.008Z</time>
      </trkpt>
      <trkpt lat="45.02653" lon="2.97923">
        <ele>1135.1405958914</ele>
        <time>2016-12-30T15:16:20.008Z</time>
      </trkpt>
      <trkpt lat="45.02655" lon="2.97936">
        <ele>1135</ele>
        <time>2016-12-30T15:16:22.008Z</time>
      </trkpt>
      <trkpt lat="45.02657" lon="2.97942">
        <ele>1135</ele>
        <time>2016-12-30T15:16:23.008Z</time>
      </trkpt>
      <trkpt lat="45.02661" lon="2.97954">
        <ele>1135</ele>
        <time>2016-12-30T15:16:25.008Z</time>
      </trkpt>
      <trkpt lat="45.02664" lon="2.97959">
        <ele>1135</ele>
        <time>2016-12-30T15:16:26.008Z</time>
      </trkpt>
      <trkpt lat="45.02667" lon="2.97964">
        <ele>1135</ele>
        <time>2016-12-30T15:16:27.008Z</time>
      </trkpt>
      <trkpt lat="45.0267" lon="2.97968">
        <ele>1135</ele>
        <time>2016-12-30T15:16:28.008Z</time>
      </trkpt>
      <trkpt lat="45.02673" lon="2.97973">
        <ele>1135</ele>
        <time>2016-12-30T15:16:29.008Z</time>
      </trkpt>
      <trkpt lat="45.02676" lon="2.97977">
        <ele>1134.1320047103</ele>
        <time>2016-12-30T15:16:30.008Z</time>
      </trkpt>
      <trkpt lat="45.02679" lon="2.97982">
        <ele>1134</ele>
        <time>2016-12-30T15:16:31.008Z</time>
      </trkpt>
      <trkpt lat="45.02682" lon="2.97985">
        <ele>1134</ele>
        <time>2016-12-30T15:16:32.008Z</time>
      </trkpt>
      <trkpt lat="45.02684" lon="2.97989">
        <ele>1134</ele>
        <time>2016-12-30T15:16:33.008Z</time>
      </trkpt>
      <trkpt lat="45.02686" lon="2.97993">
        <ele>1134</ele>
        <time>2016-12-30T15:16:34.008Z</time>
      </trkpt>
      <trkpt lat="45.02686" lon="2.98001">
        <ele>1134</ele>
        <time>2016-12-30T15:16:36.008Z</time>
      </trkpt>
      <trkpt lat="45.02683" lon="2.98008">
        <ele>1134</ele>
        <time>2016-12-30T15:16:38.008Z</time>
      </trkpt>
      <trkpt lat="45.02681" lon="2.98014">
        <ele>1133.1405958914</ele>
        <time>2016-12-30T15:16:40.008Z</time>
      </trkpt>
      <trkpt lat="45.02679" lon="2.98019">
        <ele>1133</ele>
        <time>2016-12-30T15:16:42.008Z</time>
      </trkpt>
      <trkpt lat="45.02676" lon="2.98025">
        <ele>1133</ele>
        <time>2016-12-30T15:16:44.008Z</time>
      </trkpt>
      <trkpt lat="45.02674" lon="2.9803">
        <ele>1133</ele>
        <time>2016-12-30T15:16:46.008Z</time>
      </trkpt>
      <trkpt lat="45.02672" lon="2.98035">
        <ele>1133</ele>
        <time>2016-12-30T15:16:48.008Z</time>
      </trkpt>
      <trkpt lat="45.0267" lon="2.98041">
        <ele>1133</ele>
        <time>2016-12-30T15:16:50.008Z</time>
      </trkpt>
      <trkpt lat="45.02668" lon="2.98047">
        <ele>1133</ele>
        <time>2016-12-30T15:16:52.008Z</time>
      </trkpt>
      <trkpt lat="45.02667" lon="2.98052">
        <ele>1133</ele>
        <time>2016-12-30T15:16:54.008Z</time>
      </trkpt>
      <trkpt lat="45.02666" lon="2.98058">
        <ele>1133</ele>
        <time>2016-12-30T15:16:56.008Z</time>
      </trkpt>
      <trkpt lat="45.02664" lon="2.98063">
        <ele>1133</ele>
        <time>2016-12-30T15:16:58.008Z</time>
      </trkpt>
      <trkpt lat="45.02662" lon="2.9807">
        <ele>1133</ele>
        <time>2016-12-30T15:17:00.008Z</time>
      </trkpt>
      <trkpt lat="45.02661" lon="2.98077">
        <ele>1133</ele>
        <time>2016-12-30T15:17:02.008Z</time>
      </trkpt>
      <trkpt lat="45.0266" lon="2.98084">
        <ele>1133</ele>
        <time>2016-12-30T15:17:04.008Z</time>
      </trkpt>
      <trkpt lat="45.02659" lon="2.9809">
        <ele>1133</ele>
        <time>2016-12-30T15:17:06.008Z</time>
      </trkpt>
      <trkpt lat="45.0266" lon="2.98095">
        <ele>1133</ele>
        <time>2016-12-30T15:17:08.008Z</time>
      </trkpt>
      <trkpt lat="45.02661" lon="2.981">
        <ele>1133</ele>
        <time>2016-12-30T15:17:10.008Z</time>
      </trkpt>
      <trkpt lat="45.02661" lon="2.98105">
        <ele>1133</ele>
        <time>2016-12-30T15:17:12.008Z</time>
      </trkpt>
      <trkpt lat="45.02661" lon="2.98113">
        <ele>1133</ele>
        <time>2016-12-30T15:17:15.008Z</time>
      </trkpt>
      <trkpt lat="45.0266" lon="2.98123">
        <ele>1133</ele>
        <time>2016-12-30T15:17:18.008Z</time>
      </trkpt>
      <trkpt lat="45.0266" lon="2.98134">
        <ele>1135</ele>
        <time>2016-12-30T15:17:21.008Z</time>
      </trkpt>
      <trkpt lat="45.02661" lon="2.98145">
        <ele>1135</ele>
        <time>2016-12-30T15:17:24.008Z</time>
      </trkpt>
      <trkpt lat="45.02662" lon="2.98152">
        <ele>1135</ele>
        <time>2016-12-30T15:17:26.008Z</time>
      </trkpt>
      <trkpt lat="45.02664" lon="2.98159">
        <ele>1135</ele>
        <time>2016-12-30T15:17:28.008Z</time>
      </trkpt>
      <trkpt lat="45.02666" lon="2.98167">
        <ele>1135</ele>
        <time>2016-12-30T15:17:30.008Z</time>
      </trkpt>
      <trkpt lat="45.02667" lon="2.98175">
        <ele>1135</ele>
        <time>2016-12-30T15:17:32.008Z</time>
      </trkpt>
      <trkpt lat="45.02669" lon="2.98182">
        <ele>1135</ele>
        <time>2016-12-30T15:17:34.008Z</time>
      </trkpt>
      <trkpt lat="45.02671" lon="2.9819">
        <ele>1135</ele>
        <time>2016-12-30T15:17:36.008Z</time>
      </trkpt>
      <trkpt lat="45.02674" lon="2.98197">
        <ele>1135</ele>
        <time>2016-12-30T15:17:38.008Z</time>
      </trkpt>
      <trkpt lat="45.02675" lon="2.982">
        <ele>1135</ele>
        <time>2016-12-30T15:17:39.008Z</time>
      </trkpt>
      <trkpt lat="45.02677" lon="2.98207">
        <ele>1137</ele>
        <time>2016-12-30T15:17:41.008Z</time>
      </trkpt>
      <trkpt lat="45.02678" lon="2.98211">
        <ele>1137</ele>
        <time>2016-12-30T15:17:42.008Z</time>
      </trkpt>
      <trkpt lat="45.02679" lon="2.98214">
        <ele>1137</ele>
        <time>2016-12-30T15:17:43.008Z</time>
      </trkpt>
      <trkpt lat="45.02681" lon="2.98224">
        <ele>1137</ele>
        <time>2016-12-30T15:17:46.008Z</time>
      </trkpt>
      <trkpt lat="45.0268" lon="2.98232">
        <ele>1137</ele>
        <time>2016-12-30T15:17:49.008Z</time>
      </trkpt>
      <trkpt lat="45.0268" lon="2.98238">
        <ele>1137</ele>
        <time>2016-12-30T15:17:51.008Z</time>
      </trkpt>
      <trkpt lat="45.0268" lon="2.98243">
        <ele>1137</ele>
        <time>2016-12-30T15:17:53.008Z</time>
      </trkpt>
      <trkpt lat="45.02679" lon="2.9825">
        <ele>1137</ele>
        <time>2016-12-30T15:17:55.008Z</time>
      </trkpt>
      <trkpt lat="45.02679" lon="2.98256">
        <ele>1137</ele>
        <time>2016-12-30T15:17:57.008Z</time>
      </trkpt>
      <trkpt lat="45.02678" lon="2.98263">
        <ele>1137</ele>
        <time>2016-12-30T15:17:59.008Z</time>
      </trkpt>
      <trkpt lat="45.02678" lon="2.98273">
        <ele>1137</ele>
        <time>2016-12-30T15:18:02.008Z</time>
      </trkpt>
      <trkpt lat="45.02677" lon="2.98284">
        <ele>1137</ele>
        <time>2016-12-30T15:18:05.008Z</time>
      </trkpt>
      <trkpt lat="45.02676" lon="2.98291">
        <ele>1137</ele>
        <time>2016-12-30T15:18:07.008Z</time>
      </trkpt>
      <trkpt lat="45.02676" lon="2.98297">
        <ele>1137</ele>
        <time>2016-12-30T15:18:09.008Z</time>
      </trkpt>
      <trkpt lat="45.02676" lon="2.98305">
        <ele>1137</ele>
        <time>2016-12-30T15:18:11.008Z</time>
      </trkpt>
      <trkpt lat="45.02675" lon="2.98312">
        <ele>1137</ele>
        <time>2016-12-30T15:18:13.008Z</time>
      </trkpt>
      <trkpt lat="45.02674" lon="2.98319">
        <ele>1137</ele>
        <time>2016-12-30T15:18:15.008Z</time>
      </trkpt>
      <trkpt lat="45.02674" lon="2.98327">
        <ele>1137</ele>
        <time>2016-12-30T15:18:17.008Z</time>
      </trkpt>
      <trkpt lat="45.02672" lon="2.98338">
        <ele>1137.8594041086</ele>
        <time>2016-12-30T15:18:20.008Z</time>
      </trkpt>
      <trkpt lat="45.0267" lon="2.98345">
        <ele>1138</ele>
        <time>2016-12-30T15:18:22.008Z</time>
      </trkpt>
      <trkpt lat="45.02668" lon="2.98352">
        <ele>1138</ele>
        <time>2016-12-30T15:18:24.008Z</time>
      </trkpt>
      <trkpt lat="45.02665" lon="2.98358">
        <ele>1138</ele>
        <time>2016-12-30T15:18:26.008Z</time>
      </trkpt>
      <trkpt lat="45.02662" lon="2.98364">
        <ele>1138</ele>
        <time>2016-12-30T15:18:28.008Z</time>
      </trkpt>
      <trkpt lat="45.02659" lon="2.9837">
        <ele>1138.8679952897</ele>
        <time>2016-12-30T15:18:30.008Z</time>
      </trkpt>
      <trkpt lat="45.02655" lon="2.98376">
        <ele>1139</ele>
        <time>2016-12-30T15:18:32.008Z</time>
      </trkpt>
      <trkpt lat="45.02652" lon="2.98383">
        <ele>1139</ele>
        <time>2016-12-30T15:18:34.008Z</time>
      </trkpt>
      <trkpt lat="45.0265" lon="2.98386">
        <ele>1139</ele>
        <time>2016-12-30T15:18:35.008Z</time>
      </trkpt>
      <trkpt lat="45.02648" lon="2.98389">
        <ele>1139</ele>
        <time>2016-12-30T15:18:36.008Z</time>
      </trkpt>
      <trkpt lat="45.02644" lon="2.98394">
        <ele>1139</ele>
        <time>2016-12-30T15:18:38.008Z</time>
      </trkpt>
      <trkpt lat="45.02641" lon="2.98397">
        <ele>1139</ele>
        <time>2016-12-30T15:18:39.008Z</time>
      </trkpt>
      <trkpt lat="45.02639" lon="2.984">
        <ele>1139.8679952897</ele>
        <time>2016-12-30T15:18:40.008Z</time>
      </trkpt>
      <trkpt lat="45.02638" lon="2.98403">
        <ele>1140</ele>
        <time>2016-12-30T15:18:41.008Z</time>
      </trkpt>
      <trkpt lat="45.02636" lon="2.98406">
        <ele>1140</ele>
        <time>2016-12-30T15:18:42.008Z</time>
      </trkpt>
      <trkpt lat="45.02632" lon="2.98412">
        <ele>1140</ele>
        <time>2016-12-30T15:18:44.008Z</time>
      </trkpt>
      <trkpt lat="45.02629" lon="2.98418">
        <ele>1140</ele>
        <time>2016-12-30T15:18:46.008Z</time>
      </trkpt>
      <trkpt lat="45.02627" lon="2.98425">
        <ele>1140</ele>
        <time>2016-12-30T15:18:48.008Z</time>
      </trkpt>
      <trkpt lat="45.02624" lon="2.98432">
        <ele>1140.8594041086</ele>
        <time>2016-12-30T15:18:50.008Z</time>
      </trkpt>
      <trkpt lat="45.02622" lon="2.9844">
        <ele>1141</ele>
        <time>2016-12-30T15:18:52.008Z</time>
      </trkpt>
      <trkpt lat="45.02621" lon="2.98443">
        <ele>1141</ele>
        <time>2016-12-30T15:18:53.008Z</time>
      </trkpt>
      <trkpt lat="45.0262" lon="2.98447">
        <ele>1141</ele>
        <time>2016-12-30T15:18:54.008Z</time>
      </trkpt>
      <trkpt lat="45.02619" lon="2.9845">
        <ele>1141</ele>
        <time>2016-12-30T15:18:55.008Z</time>
      </trkpt>
      <trkpt lat="45.02618" lon="2.98454">
        <ele>1141</ele>
        <time>2016-12-30T15:18:56.008Z</time>
      </trkpt>
      <trkpt lat="45.02617" lon="2.98461">
        <ele>1141</ele>
        <time>2016-12-30T15:18:58.008Z</time>
      </trkpt>
      <trkpt lat="45.02617" lon="2.98468">
        <ele>1141.8679952897</ele>
        <time>2016-12-30T15:19:00.008Z</time>
      </trkpt>
      <trkpt lat="45.02618" lon="2.98474">
        <ele>1142</ele>
        <time>2016-12-30T15:19:03.008Z</time>
      </trkpt>
      <trkpt lat="45.0262" lon="2.98478">
        <ele>1141</ele>
        <time>2016-12-30T15:19:38.008Z</time>
      </trkpt>
      <trkpt lat="45.02622" lon="2.98484">
        <ele>1141</ele>
        <time>2016-12-30T15:19:40.008Z</time>
      </trkpt>
      <trkpt lat="45.02623" lon="2.98488">
        <ele>1141</ele>
        <time>2016-12-30T15:19:41.008Z</time>
      </trkpt>
      <trkpt lat="45.02624" lon="2.98491">
        <ele>1141</ele>
        <time>2016-12-30T15:19:42.008Z</time>
      </trkpt>
      <trkpt lat="45.02626" lon="2.98494">
        <ele>1141</ele>
        <time>2016-12-30T15:19:43.008Z</time>
      </trkpt>
      <trkpt lat="45.02629" lon="2.98501">
        <ele>1141</ele>
        <time>2016-12-30T15:19:45.008Z</time>
      </trkpt>
      <trkpt lat="45.02633" lon="2.98508">
        <ele>1141</ele>
        <time>2016-12-30T15:19:47.008Z</time>
      </trkpt>
      <trkpt lat="45.02635" lon="2.98515">
        <ele>1141</ele>
        <time>2016-12-30T15:19:49.008Z</time>
      </trkpt>
      <trkpt lat="45.02638" lon="2.98521">
        <ele>1143</ele>
        <time>2016-12-30T15:19:51.008Z</time>
      </trkpt>
      <trkpt lat="45.02641" lon="2.98528">
        <ele>1143</ele>
        <time>2016-12-30T15:19:53.008Z</time>
      </trkpt>
      <trkpt lat="45.02644" lon="2.98534">
        <ele>1143</ele>
        <time>2016-12-30T15:19:55.008Z</time>
      </trkpt>
      <trkpt lat="45.02646" lon="2.9854">
        <ele>1143</ele>
        <time>2016-12-30T15:19:57.008Z</time>
      </trkpt>
      <trkpt lat="45.02648" lon="2.98545">
        <ele>1143</ele>
        <time>2016-12-30T15:19:59.008Z</time>
      </trkpt>
      <trkpt lat="45.0265" lon="2.98551">
        <ele>1143</ele>
        <time>2016-12-30T15:20:02.008Z</time>
      </trkpt>
      <trkpt lat="45.02651" lon="2.98556">
        <ele>1143</ele>
        <time>2016-12-30T15:20:04.008Z</time>
      </trkpt>
      <trkpt lat="45.02653" lon="2.98561">
        <ele>1143</ele>
        <time>2016-12-30T15:20:06.008Z</time>
      </trkpt>
      <trkpt lat="45.02655" lon="2.98567">
        <ele>1143</ele>
        <time>2016-12-30T15:20:08.008Z</time>
      </trkpt>
      <trkpt lat="45.02656" lon="2.98572">
        <ele>1143</ele>
        <time>2016-12-30T15:20:10.008Z</time>
      </trkpt>
      <trkpt lat="45.02658" lon="2.98577">
        <ele>1143</ele>
        <time>2016-12-30T15:20:13.008Z</time>
      </trkpt>
      <trkpt lat="45.0266" lon="2.98582">
        <ele>1143</ele>
        <time>2016-12-30T15:20:15.008Z</time>
      </trkpt>
      <trkpt lat="45.02662" lon="2.98591">
        <ele>1143</ele>
        <time>2016-12-30T15:20:18.008Z</time>
      </trkpt>
      <trkpt lat="45.02665" lon="2.986">
        <ele>1145</ele>
        <time>2016-12-30T15:20:21.008Z</time>
      </trkpt>
      <trkpt lat="45.02667" lon="2.98606">
        <ele>1145</ele>
        <time>2016-12-30T15:20:23.008Z</time>
      </trkpt>
      <trkpt lat="45.0267" lon="2.98616">
        <ele>1145</ele>
        <time>2016-12-30T15:20:26.008Z</time>
      </trkpt>
      <trkpt lat="45.02673" lon="2.98626">
        <ele>1145</ele>
        <time>2016-12-30T15:20:29.008Z</time>
      </trkpt>
      <trkpt lat="45.02675" lon="2.98634">
        <ele>1145</ele>
        <time>2016-12-30T15:20:31.008Z</time>
      </trkpt>
      <trkpt lat="45.02676" lon="2.98637">
        <ele>1145</ele>
        <time>2016-12-30T15:20:32.008Z</time>
      </trkpt>
      <trkpt lat="45.02677" lon="2.98641">
        <ele>1145</ele>
        <time>2016-12-30T15:20:33.008Z</time>
      </trkpt>
      <trkpt lat="45.02679" lon="2.98645">
        <ele>1145</ele>
        <time>2016-12-30T15:20:34.008Z</time>
      </trkpt>
      <trkpt lat="45.02681" lon="2.98654">
        <ele>1145</ele>
        <time>2016-12-30T15:20:36.008Z</time>
      </trkpt>
      <trkpt lat="45.02682" lon="2.98658">
        <ele>1145</ele>
        <time>2016-12-30T15:20:37.008Z</time>
      </trkpt>
      <trkpt lat="45.02683" lon="2.98662">
        <ele>1145</ele>
        <time>2016-12-30T15:20:38.008Z</time>
      </trkpt>
      <trkpt lat="45.02684" lon="2.98667">
        <ele>1145</ele>
        <time>2016-12-30T15:20:39.008Z</time>
      </trkpt>
      <trkpt lat="45.02685" lon="2.98671">
        <ele>1145.8679952897</ele>
        <time>2016-12-30T15:20:40.008Z</time>
      </trkpt>
      <trkpt lat="45.02686" lon="2.98676">
        <ele>1146</ele>
        <time>2016-12-30T15:20:41.008Z</time>
      </trkpt>
      <trkpt lat="45.02687" lon="2.98681">
        <ele>1146</ele>
        <time>2016-12-30T15:20:42.008Z</time>
      </trkpt>
      <trkpt lat="45.02689" lon="2.9869">
        <ele>1146</ele>
        <time>2016-12-30T15:20:44.008Z</time>
      </trkpt>
      <trkpt lat="45.02692" lon="2.987">
        <ele>1146</ele>
        <time>2016-12-30T15:20:46.008Z</time>
      </trkpt>
      <trkpt lat="45.02693" lon="2.98705">
        <ele>1146</ele>
        <time>2016-12-30T15:20:47.008Z</time>
      </trkpt>
      <trkpt lat="45.02697" lon="2.98714">
        <ele>1146</ele>
        <time>2016-12-30T15:20:49.008Z</time>
      </trkpt>
      <trkpt lat="45.02701" lon="2.98724">
        <ele>1146</ele>
        <time>2016-12-30T15:20:51.008Z</time>
      </trkpt>
      <trkpt lat="45.02705" lon="2.98734">
        <ele>1146</ele>
        <time>2016-12-30T15:20:53.008Z</time>
      </trkpt>
      <trkpt lat="45.0271" lon="2.98743">
        <ele>1146</ele>
        <time>2016-12-30T15:20:55.008Z</time>
      </trkpt>
      <trkpt lat="45.02715" lon="2.98753">
        <ele>1146</ele>
        <time>2016-12-30T15:20:57.008Z</time>
      </trkpt>
      <trkpt lat="45.02718" lon="2.98757">
        <ele>1146</ele>
        <time>2016-12-30T15:20:58.008Z</time>
      </trkpt>
      <trkpt lat="45.02723" lon="2.98767">
        <ele>1146</ele>
        <time>2016-12-30T15:21:00.008Z</time>
      </trkpt>
      <trkpt lat="45.02728" lon="2.98776">
        <ele>1146</ele>
        <time>2016-12-30T15:21:02.008Z</time>
      </trkpt>
      <trkpt lat="45.02734" lon="2.98785">
        <ele>1146</ele>
        <time>2016-12-30T15:21:04.008Z</time>
      </trkpt>
      <trkpt lat="45.02739" lon="2.98794">
        <ele>1146</ele>
        <time>2016-12-30T15:21:06.008Z</time>
      </trkpt>
      <trkpt lat="45.02745" lon="2.98803">
        <ele>1146</ele>
        <time>2016-12-30T15:21:08.008Z</time>
      </trkpt>
      <trkpt lat="45.0275" lon="2.98811">
        <ele>1146.8679952897</ele>
        <time>2016-12-30T15:21:10.008Z</time>
      </trkpt>
      <trkpt lat="45.02755" lon="2.9882">
        <ele>1147</ele>
        <time>2016-12-30T15:21:12.008Z</time>
      </trkpt>
      <trkpt lat="45.0276" lon="2.98829">
        <ele>1147</ele>
        <time>2016-12-30T15:21:14.008Z</time>
      </trkpt>
      <trkpt lat="45.02764" lon="2.98838">
        <ele>1147</ele>
        <time>2016-12-30T15:21:16.008Z</time>
      </trkpt>
      <trkpt lat="45.02768" lon="2.98846">
        <ele>1147</ele>
        <time>2016-12-30T15:21:18.008Z</time>
      </trkpt>
      <trkpt lat="45.0277" lon="2.9885">
        <ele>1147</ele>
        <time>2016-12-30T15:21:19.008Z</time>
      </trkpt>
      <trkpt lat="45.02772" lon="2.98854">
        <ele>1147.8594041086</ele>
        <time>2016-12-30T15:21:20.008Z</time>
      </trkpt>
      <trkpt lat="45.02774" lon="2.98858">
        <ele>1148</ele>
        <time>2016-12-30T15:21:21.008Z</time>
      </trkpt>
      <trkpt lat="45.02776" lon="2.98861">
        <ele>1148</ele>
        <time>2016-12-30T15:21:22.008Z</time>
      </trkpt>
      <trkpt lat="45.02778" lon="2.98865">
        <ele>1148</ele>
        <time>2016-12-30T15:21:23.008Z</time>
      </trkpt>
      <trkpt lat="45.0278" lon="2.98869">
        <ele>1148</ele>
        <time>2016-12-30T15:21:24.008Z</time>
      </trkpt>
      <trkpt lat="45.02782" lon="2.98873">
        <ele>1148</ele>
        <time>2016-12-30T15:21:25.008Z</time>
      </trkpt>
      <trkpt lat="45.02784" lon="2.98877">
        <ele>1148</ele>
        <time>2016-12-30T15:21:26.008Z</time>
      </trkpt>
      <trkpt lat="45.02787" lon="2.98886">
        <ele>1148</ele>
        <time>2016-12-30T15:21:28.008Z</time>
      </trkpt>
      <trkpt lat="45.02789" lon="2.98895">
        <ele>1148</ele>
        <time>2016-12-30T15:21:30.008Z</time>
      </trkpt>
      <trkpt lat="45.02791" lon="2.98904">
        <ele>1148</ele>
        <time>2016-12-30T15:21:32.008Z</time>
      </trkpt>
      <trkpt lat="45.02792" lon="2.98913">
        <ele>1148</ele>
        <time>2016-12-30T15:21:34.008Z</time>
      </trkpt>
      <trkpt lat="45.02793" lon="2.98922">
        <ele>1148</ele>
        <time>2016-12-30T15:21:36.008Z</time>
      </trkpt>
      <trkpt lat="45.02794" lon="2.98932">
        <ele>1148</ele>
        <time>2016-12-30T15:21:38.008Z</time>
      </trkpt>
      <trkpt lat="45.02795" lon="2.98936">
        <ele>1148</ele>
        <time>2016-12-30T15:21:39.008Z</time>
      </trkpt>
      <trkpt lat="45.02796" lon="2.98946">
        <ele>1150</ele>
        <time>2016-12-30T15:21:41.008Z</time>
      </trkpt>
      <trkpt lat="45.02797" lon="2.98955">
        <ele>1150</ele>
        <time>2016-12-30T15:21:43.008Z</time>
      </trkpt>
      <trkpt lat="45.02798" lon="2.98964">
        <ele>1150</ele>
        <time>2016-12-30T15:21:45.008Z</time>
      </trkpt>
      <trkpt lat="45.02799" lon="2.98973">
        <ele>1150</ele>
        <time>2016-12-30T15:21:47.008Z</time>
      </trkpt>
      <trkpt lat="45.028" lon="2.98983">
        <ele>1150</ele>
        <time>2016-12-30T15:21:49.008Z</time>
      </trkpt>
      <trkpt lat="45.02802" lon="2.98992">
        <ele>1150</ele>
        <time>2016-12-30T15:21:51.008Z</time>
      </trkpt>
      <trkpt lat="45.02803" lon="2.99001">
        <ele>1150</ele>
        <time>2016-12-30T15:21:53.008Z</time>
      </trkpt>
      <trkpt lat="45.02804" lon="2.9901">
        <ele>1150</ele>
        <time>2016-12-30T15:21:55.008Z</time>
      </trkpt>
      <trkpt lat="45.02805" lon="2.99019">
        <ele>1150</ele>
        <time>2016-12-30T15:21:57.008Z</time>
      </trkpt>
      <trkpt lat="45.02806" lon="2.99029">
        <ele>1150</ele>
        <time>2016-12-30T15:21:59.008Z</time>
      </trkpt>
      <trkpt lat="45.02807" lon="2.99037">
        <ele>1152</ele>
        <time>2016-12-30T15:22:01.008Z</time>
      </trkpt>
      <trkpt lat="45.02808" lon="2.99047">
        <ele>1152</ele>
        <time>2016-12-30T15:22:03.008Z</time>
      </trkpt>
      <trkpt lat="45.0281" lon="2.99056">
        <ele>1152</ele>
        <time>2016-12-30T15:22:05.008Z</time>
      </trkpt>
      <trkpt lat="45.02811" lon="2.99065">
        <ele>1152</ele>
        <time>2016-12-30T15:22:07.008Z</time>
      </trkpt>
      <trkpt lat="45.02813" lon="2.99075">
        <ele>1152</ele>
        <time>2016-12-30T15:22:09.008Z</time>
      </trkpt>
      <trkpt lat="45.02816" lon="2.99085">
        <ele>1153</ele>
        <time>2016-12-30T15:22:11.008Z</time>
      </trkpt>
      <trkpt lat="45.02818" lon="2.99095">
        <ele>1153</ele>
        <time>2016-12-30T15:22:13.008Z</time>
      </trkpt>
      <trkpt lat="45.0282" lon="2.99106">
        <ele>1153</ele>
        <time>2016-12-30T15:22:15.008Z</time>
      </trkpt>
      <trkpt lat="45.02823" lon="2.99117">
        <ele>1153</ele>
        <time>2016-12-30T15:22:17.008Z</time>
      </trkpt>
      <trkpt lat="45.02825" lon="2.99128">
        <ele>1153</ele>
        <time>2016-12-30T15:22:19.008Z</time>
      </trkpt>
      <trkpt lat="45.02827" lon="2.9914">
        <ele>1153</ele>
        <time>2016-12-30T15:22:21.008Z</time>
      </trkpt>
      <trkpt lat="45.02828" lon="2.99152">
        <ele>1153</ele>
        <time>2016-12-30T15:22:23.008Z</time>
      </trkpt>
      <trkpt lat="45.02829" lon="2.99157">
        <ele>1153</ele>
        <time>2016-12-30T15:22:24.008Z</time>
      </trkpt>
      <trkpt lat="45.02829" lon="2.99161">
        <ele>1153</ele>
        <time>2016-12-30T15:22:25.008Z</time>
      </trkpt>
      <trkpt lat="45.02829" lon="2.9917">
        <ele>1153</ele>
        <time>2016-12-30T15:22:27.008Z</time>
      </trkpt>
      <trkpt lat="45.02829" lon="2.99176">
        <ele>1152</ele>
        <time>2016-12-30T15:22:53.008Z</time>
      </trkpt>
      <trkpt lat="45.0283" lon="2.99186">
        <ele>1152</ele>
        <time>2016-12-30T15:23:13.008Z</time>
      </trkpt>
      <trkpt lat="45.02833" lon="2.99194">
        <ele>1152</ele>
        <time>2016-12-30T15:23:15.008Z</time>
      </trkpt>
      <trkpt lat="45.02837" lon="2.99203">
        <ele>1152</ele>
        <time>2016-12-30T15:23:17.008Z</time>
      </trkpt>
      <trkpt lat="45.02843" lon="2.99213">
        <ele>1152</ele>
        <time>2016-12-30T15:23:19.008Z</time>
      </trkpt>
      <trkpt lat="45.02849" lon="2.99223">
        <ele>1150</ele>
        <time>2016-12-30T15:23:21.008Z</time>
      </trkpt>
      <trkpt lat="45.02857" lon="2.99235">
        <ele>1150</ele>
        <time>2016-12-30T15:23:23.008Z</time>
      </trkpt>
      <trkpt lat="45.02865" lon="2.99247">
        <ele>1150</ele>
        <time>2016-12-30T15:23:25.008Z</time>
      </trkpt>
      <trkpt lat="45.02869" lon="2.99253">
        <ele>1150</ele>
        <time>2016-12-30T15:23:26.008Z</time>
      </trkpt>
      <trkpt lat="45.02873" lon="2.9926">
        <ele>1150</ele>
        <time>2016-12-30T15:23:27.008Z</time>
      </trkpt>
      <trkpt lat="45.02878" lon="2.99266">
        <ele>1150</ele>
        <time>2016-12-30T15:23:28.008Z</time>
      </trkpt>
      <trkpt lat="45.02883" lon="2.99272">
        <ele>1150</ele>
        <time>2016-12-30T15:23:29.008Z</time>
      </trkpt>
      <trkpt lat="45.02887" lon="2.99279">
        <ele>1148.2640094207</ele>
        <time>2016-12-30T15:23:30.008Z</time>
      </trkpt>
      <trkpt lat="45.02891" lon="2.99285">
        <ele>1148</ele>
        <time>2016-12-30T15:23:31.008Z</time>
      </trkpt>
      <trkpt lat="45.02895" lon="2.99292">
        <ele>1148</ele>
        <time>2016-12-30T15:23:32.008Z</time>
      </trkpt>
      <trkpt lat="45.02899" lon="2.99299">
        <ele>1148</ele>
        <time>2016-12-30T15:23:33.008Z</time>
      </trkpt>
      <trkpt lat="45.02902" lon="2.99306">
        <ele>1148</ele>
        <time>2016-12-30T15:23:34.008Z</time>
      </trkpt>
      <trkpt lat="45.02906" lon="2.99313">
        <ele>1148</ele>
        <time>2016-12-30T15:23:35.008Z</time>
      </trkpt>
      <trkpt lat="45.02913" lon="2.99328">
        <ele>1148</ele>
        <time>2016-12-30T15:23:37.008Z</time>
      </trkpt>
      <trkpt lat="45.02919" lon="2.99342">
        <ele>1148</ele>
        <time>2016-12-30T15:23:39.008Z</time>
      </trkpt>
      <trkpt lat="45.02925" lon="2.99357">
        <ele>1146</ele>
        <time>2016-12-30T15:23:41.008Z</time>
      </trkpt>
      <trkpt lat="45.02931" lon="2.99372">
        <ele>1146</ele>
        <time>2016-12-30T15:23:43.008Z</time>
      </trkpt>
      <trkpt lat="45.02936" lon="2.99386">
        <ele>1146</ele>
        <time>2016-12-30T15:23:45.008Z</time>
      </trkpt>
      <trkpt lat="45.02943" lon="2.994">
        <ele>1146</ele>
        <time>2016-12-30T15:23:47.008Z</time>
      </trkpt>
      <trkpt lat="45.02949" lon="2.99412">
        <ele>1146</ele>
        <time>2016-12-30T15:23:49.008Z</time>
      </trkpt>
      <trkpt lat="45.02956" lon="2.99424">
        <ele>1144</ele>
        <time>2016-12-30T15:23:51.008Z</time>
      </trkpt>
      <trkpt lat="45.02962" lon="2.99436">
        <ele>1144</ele>
        <time>2016-12-30T15:23:53.008Z</time>
      </trkpt>
      <trkpt lat="45.02964" lon="2.99441">
        <ele>1144</ele>
        <time>2016-12-30T15:23:54.008Z</time>
      </trkpt>
      <trkpt lat="45.02967" lon="2.99447">
        <ele>1144</ele>
        <time>2016-12-30T15:23:55.008Z</time>
      </trkpt>
      <trkpt lat="45.0297" lon="2.99454">
        <ele>1144</ele>
        <time>2016-12-30T15:23:56.008Z</time>
      </trkpt>
      <trkpt lat="45.02976" lon="2.99467">
        <ele>1144</ele>
        <time>2016-12-30T15:23:58.008Z</time>
      </trkpt>
      <trkpt lat="45.02982" lon="2.9948">
        <ele>1137.9240329724</ele>
        <time>2016-12-30T15:24:00.008Z</time>
      </trkpt>
      <trkpt lat="45.02983" lon="2.99485">
        <ele>1137.8680047105</ele>
        <time>2016-12-30T15:24:01.008Z</time>
      </trkpt>
      <trkpt lat="45.02985" lon="2.9949">
        <ele>1138</ele>
        <time>2016-12-30T15:24:02.008Z</time>
      </trkpt>
      <trkpt lat="45.02984" lon="2.99498">
        <ele>1137</ele>
        <time>2016-12-30T15:24:04.008Z</time>
      </trkpt>
      <trkpt lat="45.0298" lon="2.99503">
        <ele>1138</ele>
        <time>2016-12-30T15:24:06.008Z</time>
      </trkpt>
      <trkpt lat="45.02976" lon="2.99504">
        <ele>1138</ele>
        <time>2016-12-30T15:24:08.008Z</time>
      </trkpt>
      <trkpt lat="45.02972" lon="2.99507">
        <ele>1138</ele>
        <time>2016-12-30T15:24:10.008Z</time>
      </trkpt>
      <trkpt lat="45.02967" lon="2.99509">
        <ele>1138</ele>
        <time>2016-12-30T15:24:13.008Z</time>
      </trkpt>
      <trkpt lat="45.02963" lon="2.99511">
        <ele>1138</ele>
        <time>2016-12-30T15:24:16.008Z</time>
      </trkpt>
      <trkpt lat="45.02958" lon="2.99513">
        <ele>1138</ele>
        <time>2016-12-30T15:24:19.008Z</time>
      </trkpt>
      <trkpt lat="45.02953" lon="2.99515">
        <ele>1140</ele>
        <time>2016-12-30T15:24:22.008Z</time>
      </trkpt>
      <trkpt lat="45.02947" lon="2.99517">
        <ele>1140</ele>
        <time>2016-12-30T15:24:26.008Z</time>
      </trkpt>
      <trkpt lat="45.02943" lon="2.99519">
        <ele>1140</ele>
        <time>2016-12-30T15:24:29.008Z</time>
      </trkpt>
      <trkpt lat="45.02937" lon="2.99522">
        <ele>1142</ele>
        <time>2016-12-30T15:24:33.008Z</time>
      </trkpt>
      <trkpt lat="45.0293" lon="2.99524">
        <ele>1142</ele>
        <time>2016-12-30T15:24:37.008Z</time>
      </trkpt>
      <trkpt lat="45.02922" lon="2.99527">
        <ele>1145</ele>
        <time>2016-12-30T15:24:41.008Z</time>
      </trkpt>
      <trkpt lat="45.02915" lon="2.99529">
        <ele>1145</ele>
        <time>2016-12-30T15:24:44.008Z</time>
      </trkpt>
      <trkpt lat="45.02908" lon="2.99532">
        <ele>1146</ele>
        <time>2016-12-30T15:24:47.008Z</time>
      </trkpt>
      <trkpt lat="45.029" lon="2.99535">
        <ele>1146</ele>
        <time>2016-12-30T15:24:50.008Z</time>
      </trkpt>
      <trkpt lat="45.02896" lon="2.99537">
        <ele>1146</ele>
        <time>2016-12-30T15:24:52.008Z</time>
      </trkpt>
      <trkpt lat="45.02891" lon="2.99539">
        <ele>1146</ele>
        <time>2016-12-30T15:24:54.008Z</time>
      </trkpt>
      <trkpt lat="45.02886" lon="2.9954">
        <ele>1146</ele>
        <time>2016-12-30T15:24:56.008Z</time>
      </trkpt>
      <trkpt lat="45.02882" lon="2.99542">
        <ele>1146</ele>
        <time>2016-12-30T15:24:58.008Z</time>
      </trkpt>
      <trkpt lat="45.02877" lon="2.99543">
        <ele>1148.5959014145</ele>
        <time>2016-12-30T15:25:00.008Z</time>
      </trkpt>
      <trkpt lat="45.02867" lon="2.99547">
        <ele>1149.8680047105</ele>
        <time>2016-12-30T15:25:05.008Z</time>
      </trkpt>
      <trkpt lat="45.02863" lon="2.99549">
        <ele>1150</ele>
        <time>2016-12-30T15:25:07.008Z</time>
      </trkpt>
      <trkpt lat="45.02856" lon="2.99551">
        <ele>1151.7359905793</ele>
        <time>2016-12-30T15:25:10.008Z</time>
      </trkpt>
      <trkpt lat="45.0285" lon="2.99553">
        <ele>1152</ele>
        <time>2016-12-30T15:25:13.008Z</time>
      </trkpt>
      <trkpt lat="45.02844" lon="2.99556">
        <ele>1153</ele>
        <time>2016-12-30T15:25:16.008Z</time>
      </trkpt>
      <trkpt lat="45.02838" lon="2.99559">
        <ele>1153</ele>
        <time>2016-12-30T15:25:19.008Z</time>
      </trkpt>
      <trkpt lat="45.02832" lon="2.99562">
        <ele>1153</ele>
        <time>2016-12-30T15:25:23.008Z</time>
      </trkpt>
      <trkpt lat="45.02826" lon="2.99565">
        <ele>1153</ele>
        <time>2016-12-30T15:25:26.008Z</time>
      </trkpt>
      <trkpt lat="45.02821" lon="2.99568">
        <ele>1153</ele>
        <time>2016-12-30T15:25:29.008Z</time>
      </trkpt>
      <trkpt lat="45.02816" lon="2.99572">
        <ele>1155</ele>
        <time>2016-12-30T15:25:32.008Z</time>
      </trkpt>
      <trkpt lat="45.02811" lon="2.99576">
        <ele>1155</ele>
        <time>2016-12-30T15:25:35.008Z</time>
      </trkpt>
      <trkpt lat="45.02806" lon="2.99581">
        <ele>1155</ele>
        <time>2016-12-30T15:25:38.008Z</time>
      </trkpt>
      <trkpt lat="45.02802" lon="2.99586">
        <ele>1158</ele>
        <time>2016-12-30T15:25:41.008Z</time>
      </trkpt>
      <trkpt lat="45.02796" lon="2.99593">
        <ele>1159.7333436769</ele>
        <time>2016-12-30T15:25:45.008Z</time>
      </trkpt>
      <trkpt lat="45.02791" lon="2.99602">
        <ele>1161.7188082173</ele>
        <time>2016-12-30T15:25:50.008Z</time>
      </trkpt>
      <trkpt lat="45.02786" lon="2.99611">
        <ele>1163.7360094209</ele>
        <time>2016-12-30T15:25:55.008Z</time>
      </trkpt>
      <trkpt lat="45.0278" lon="2.99619">
        <ele>1164</ele>
        <time>2016-12-30T15:26:00.008Z</time>
      </trkpt>
      <trkpt lat="45.02777" lon="2.99624">
        <ele>1164</ele>
        <time>2016-12-30T15:26:03.008Z</time>
      </trkpt>
      <trkpt lat="45.02773" lon="2.99628">
        <ele>1164</ele>
        <time>2016-12-30T15:26:06.008Z</time>
      </trkpt>
      <trkpt lat="45.02771" lon="2.99631">
        <ele>1164</ele>
        <time>2016-12-30T15:26:08.008Z</time>
      </trkpt>
      <trkpt lat="45.02768" lon="2.99634">
        <ele>1165.7359905793</ele>
        <time>2016-12-30T15:26:10.008Z</time>
      </trkpt>
      <trkpt lat="45.02765" lon="2.99637">
        <ele>1166</ele>
        <time>2016-12-30T15:26:12.008Z</time>
      </trkpt>
      <trkpt lat="45.02762" lon="2.99639">
        <ele>1166</ele>
        <time>2016-12-30T15:26:14.008Z</time>
      </trkpt>
      <trkpt lat="45.02758" lon="2.99642">
        <ele>1166</ele>
        <time>2016-12-30T15:26:17.008Z</time>
      </trkpt>
      <trkpt lat="45.0275" lon="2.9965">
        <ele>1168</ele>
        <time>2016-12-30T15:26:23.008Z</time>
      </trkpt>
      <trkpt lat="45.02745" lon="2.99655">
        <ele>1170</ele>
        <time>2016-12-30T15:26:27.008Z</time>
      </trkpt>
      <trkpt lat="45.0274" lon="2.99663">
        <ele>1172</ele>
        <time>2016-12-30T15:26:32.008Z</time>
      </trkpt>
      <trkpt lat="45.02734" lon="2.99671">
        <ele>1173</ele>
        <time>2016-12-30T15:26:37.008Z</time>
      </trkpt>
      <trkpt lat="45.0273" lon="2.99678">
        <ele>1174</ele>
        <time>2016-12-30T15:26:41.008Z</time>
      </trkpt>
      <trkpt lat="45.02724" lon="2.99688">
        <ele>1174</ele>
        <time>2016-12-30T15:26:46.008Z</time>
      </trkpt>
      <trkpt lat="45.0272" lon="2.99695">
        <ele>1176.5782123259</ele>
        <time>2016-12-30T15:26:50.008Z</time>
      </trkpt>
      <trkpt lat="45.02716" lon="2.99703">
        <ele>1177</ele>
        <time>2016-12-30T15:26:54.008Z</time>
      </trkpt>
      <trkpt lat="45.02712" lon="2.99708">
        <ele>1178</ele>
        <time>2016-12-30T15:26:57.008Z</time>
      </trkpt>
      <trkpt lat="45.0271" lon="2.99712">
        <ele>1178</ele>
        <time>2016-12-30T15:26:59.008Z</time>
      </trkpt>
      <trkpt lat="45.02708" lon="2.99716">
        <ele>1179</ele>
        <time>2016-12-30T15:27:01.008Z</time>
      </trkpt>
      <trkpt lat="45.02705" lon="2.99719">
        <ele>1179</ele>
        <time>2016-12-30T15:27:03.008Z</time>
      </trkpt>
      <trkpt lat="45.02703" lon="2.99723">
        <ele>1179</ele>
        <time>2016-12-30T15:27:05.008Z</time>
      </trkpt>
      <trkpt lat="45.027" lon="2.99726">
        <ele>1179</ele>
        <time>2016-12-30T15:27:07.008Z</time>
      </trkpt>
      <trkpt lat="45.02697" lon="2.9973">
        <ele>1179</ele>
        <time>2016-12-30T15:27:09.008Z</time>
      </trkpt>
      <trkpt lat="45.02694" lon="2.99734">
        <ele>1181</ele>
        <time>2016-12-30T15:27:11.008Z</time>
      </trkpt>
      <trkpt lat="45.0269" lon="2.99739">
        <ele>1181</ele>
        <time>2016-12-30T15:27:14.008Z</time>
      </trkpt>
      <trkpt lat="45.02686" lon="2.99743">
        <ele>1181</ele>
        <time>2016-12-30T15:27:18.008Z</time>
      </trkpt>
      <trkpt lat="45.0268" lon="2.99748">
        <ele>1183</ele>
        <time>2016-12-30T15:27:22.008Z</time>
      </trkpt>
      <trkpt lat="45.02675" lon="2.99754">
        <ele>1183</ele>
        <time>2016-12-30T15:27:26.008Z</time>
      </trkpt>
      <trkpt lat="45.02671" lon="2.99757">
        <ele>1183</ele>
        <time>2016-12-30T15:27:29.008Z</time>
      </trkpt>
      <trkpt lat="45.02666" lon="2.99761">
        <ele>1184</ele>
        <time>2016-12-30T15:27:32.008Z</time>
      </trkpt>
      <trkpt lat="45.02661" lon="2.99763">
        <ele>1184</ele>
        <time>2016-12-30T15:27:35.008Z</time>
      </trkpt>
      <trkpt lat="45.02657" lon="2.99766">
        <ele>1184</ele>
        <time>2016-12-30T15:27:38.008Z</time>
      </trkpt>
      <trkpt lat="45.02652" lon="2.99769">
        <ele>1186</ele>
        <time>2016-12-30T15:27:41.008Z</time>
      </trkpt>
      <trkpt lat="45.02648" lon="2.99772">
        <ele>1186</ele>
        <time>2016-12-30T15:27:44.008Z</time>
      </trkpt>
      <trkpt lat="45.02643" lon="2.99775">
        <ele>1186</ele>
        <time>2016-12-30T15:27:47.008Z</time>
      </trkpt>
      <trkpt lat="45.02639" lon="2.99778">
        <ele>1188.5782123259</ele>
        <time>2016-12-30T15:27:50.008Z</time>
      </trkpt>
      <trkpt lat="45.02634" lon="2.99781">
        <ele>1189</ele>
        <time>2016-12-30T15:27:53.008Z</time>
      </trkpt>
      <trkpt lat="45.0263" lon="2.99783">
        <ele>1192</ele>
        <time>2016-12-30T15:27:56.008Z</time>
      </trkpt>
      <trkpt lat="45.02626" lon="2.99786">
        <ele>1192</ele>
        <time>2016-12-30T15:27:59.008Z</time>
      </trkpt>
      <trkpt lat="45.02621" lon="2.99788">
        <ele>1193</ele>
        <time>2016-12-30T15:28:02.008Z</time>
      </trkpt>
      <trkpt lat="45.02617" lon="2.99791">
        <ele>1193.8680047105</ele>
        <time>2016-12-30T15:28:05.008Z</time>
      </trkpt>
      <trkpt lat="45.02612" lon="2.99794">
        <ele>1194</ele>
        <time>2016-12-30T15:28:08.008Z</time>
      </trkpt>
      <trkpt lat="45.02607" lon="2.99797">
        <ele>1196</ele>
        <time>2016-12-30T15:28:11.008Z</time>
      </trkpt>
      <trkpt lat="45.02602" lon="2.99801">
        <ele>1196</ele>
        <time>2016-12-30T15:28:15.008Z</time>
      </trkpt>
      <trkpt lat="45.02595" lon="2.99806">
        <ele>1196.8594041086</ele>
        <time>2016-12-30T15:28:20.008Z</time>
      </trkpt>
      <trkpt lat="45.02588" lon="2.99812">
        <ele>1197</ele>
        <time>2016-12-30T15:28:26.008Z</time>
      </trkpt>
      <trkpt lat="45.02582" lon="2.99818">
        <ele>1199</ele>
        <time>2016-12-30T15:28:31.008Z</time>
      </trkpt>
      <trkpt lat="45.02575" lon="2.99822">
        <ele>1199</ele>
        <time>2016-12-30T15:28:36.008Z</time>
      </trkpt>
      <trkpt lat="45.02568" lon="2.99828">
        <ele>1202</ele>
        <time>2016-12-30T15:28:41.008Z</time>
      </trkpt>
      <trkpt lat="45.02562" lon="2.99835">
        <ele>1205</ele>
        <time>2016-12-30T15:28:46.008Z</time>
      </trkpt>
      <trkpt lat="45.02555" lon="2.99841">
        <ele>1207</ele>
        <time>2016-12-30T15:28:51.008Z</time>
      </trkpt>
      <trkpt lat="45.02549" lon="2.99847">
        <ele>1208</ele>
        <time>2016-12-30T15:28:56.008Z</time>
      </trkpt>
      <trkpt lat="45.02543" lon="2.99854">
        <ele>1208</ele>
        <time>2016-12-30T15:29:01.008Z</time>
      </trkpt>
      <trkpt lat="45.02538" lon="2.99861">
        <ele>1208</ele>
        <time>2016-12-30T15:29:07.008Z</time>
      </trkpt>
      <trkpt lat="45.02533" lon="2.99866">
        <ele>1209.7359905793</ele>
        <time>2016-12-30T15:29:10.008Z</time>
      </trkpt>
      <trkpt lat="45.02529" lon="2.99871">
        <ele>1210</ele>
        <time>2016-12-30T15:29:13.008Z</time>
      </trkpt>
      <trkpt lat="45.02524" lon="2.99876">
        <ele>1210</ele>
        <time>2016-12-30T15:29:16.008Z</time>
      </trkpt>
      <trkpt lat="45.0252" lon="2.99881">
        <ele>1210</ele>
        <time>2016-12-30T15:29:19.008Z</time>
      </trkpt>
      <trkpt lat="45.02515" lon="2.99885">
        <ele>1212</ele>
        <time>2016-12-30T15:29:22.008Z</time>
      </trkpt>
      <trkpt lat="45.02511" lon="2.9989">
        <ele>1212</ele>
        <time>2016-12-30T15:29:25.008Z</time>
      </trkpt>
      <trkpt lat="45.02506" lon="2.99895">
        <ele>1212</ele>
        <time>2016-12-30T15:29:28.008Z</time>
      </trkpt>
      <trkpt lat="45.02502" lon="2.99898">
        <ele>1212.8679952897</ele>
        <time>2016-12-30T15:29:30.008Z</time>
      </trkpt>
      <trkpt lat="45.02498" lon="2.99901">
        <ele>1213</ele>
        <time>2016-12-30T15:29:32.008Z</time>
      </trkpt>
      <trkpt lat="45.02494" lon="2.99904">
        <ele>1213</ele>
        <time>2016-12-30T15:29:34.008Z</time>
      </trkpt>
      <trkpt lat="45.02488" lon="2.99909">
        <ele>1213</ele>
        <time>2016-12-30T15:29:37.008Z</time>
      </trkpt>
      <trkpt lat="45.02484" lon="2.99912">
        <ele>1213</ele>
        <time>2016-12-30T15:29:39.008Z</time>
      </trkpt>
      <trkpt lat="45.02479" lon="2.99915">
        <ele>1213</ele>
        <time>2016-12-30T15:29:41.008Z</time>
      </trkpt>
      <trkpt lat="45.02474" lon="2.99917">
        <ele>1213</ele>
        <time>2016-12-30T15:29:43.008Z</time>
      </trkpt>
      <trkpt lat="45.02469" lon="2.9992">
        <ele>1213</ele>
        <time>2016-12-30T15:29:45.008Z</time>
      </trkpt>
      <trkpt lat="45.02464" lon="2.99921">
        <ele>1213</ele>
        <time>2016-12-30T15:29:47.008Z</time>
      </trkpt>
      <trkpt lat="45.02458" lon="2.99921">
        <ele>1213</ele>
        <time>2016-12-30T15:29:49.008Z</time>
      </trkpt>
      <trkpt lat="45.02452" lon="2.9992">
        <ele>1213</ele>
        <time>2016-12-30T15:29:51.008Z</time>
      </trkpt>
      <trkpt lat="45.02448" lon="2.99919">
        <ele>1213</ele>
        <time>2016-12-30T15:29:52.008Z</time>
      </trkpt>
      <trkpt lat="45.02445" lon="2.99918">
        <ele>1213</ele>
        <time>2016-12-30T15:29:53.008Z</time>
      </trkpt>
      <trkpt lat="45.02441" lon="2.99916">
        <ele>1213</ele>
        <time>2016-12-30T15:29:54.008Z</time>
      </trkpt>
      <trkpt lat="45.02437" lon="2.99915">
        <ele>1213</ele>
        <time>2016-12-30T15:29:55.008Z</time>
      </trkpt>
      <trkpt lat="45.02433" lon="2.99914">
        <ele>1213</ele>
        <time>2016-12-30T15:29:56.008Z</time>
      </trkpt>
      <trkpt lat="45.02429" lon="2.99913">
        <ele>1213</ele>
        <time>2016-12-30T15:29:57.008Z</time>
      </trkpt>
      <trkpt lat="45.02425" lon="2.99912">
        <ele>1213</ele>
        <time>2016-12-30T15:29:58.008Z</time>
      </trkpt>
      <trkpt lat="45.0242" lon="2.99911">
        <ele>1213</ele>
        <time>2016-12-30T15:29:59.008Z</time>
      </trkpt>
      <trkpt lat="45.02412" lon="2.9991">
        <ele>1211</ele>
        <time>2016-12-30T15:30:01.008Z</time>
      </trkpt>
      <trkpt lat="45.02407" lon="2.99909">
        <ele>1211</ele>
        <time>2016-12-30T15:30:02.008Z</time>
      </trkpt>
      <trkpt lat="45.02403" lon="2.99909">
        <ele>1211</ele>
        <time>2016-12-30T15:30:03.008Z</time>
      </trkpt>
      <trkpt lat="45.02398" lon="2.99908">
        <ele>1211</ele>
        <time>2016-12-30T15:30:04.008Z</time>
      </trkpt>
      <trkpt lat="45.02394" lon="2.99908">
        <ele>1211</ele>
        <time>2016-12-30T15:30:05.008Z</time>
      </trkpt>
      <trkpt lat="45.02385" lon="2.99907">
        <ele>1211</ele>
        <time>2016-12-30T15:30:07.008Z</time>
      </trkpt>
      <trkpt lat="45.0238" lon="2.99907">
        <ele>1211</ele>
        <time>2016-12-30T15:30:08.008Z</time>
      </trkpt>
      <trkpt lat="45.02376" lon="2.99906">
        <ele>1211</ele>
        <time>2016-12-30T15:30:09.008Z</time>
      </trkpt>
      <trkpt lat="45.02371" lon="2.99906">
        <ele>1211</ele>
        <time>2016-12-30T15:30:10.008Z</time>
      </trkpt>
      <trkpt lat="45.02367" lon="2.99905">
        <ele>1211</ele>
        <time>2016-12-30T15:30:11.008Z</time>
      </trkpt>
      <trkpt lat="45.02363" lon="2.99904">
        <ele>1211</ele>
        <time>2016-12-30T15:30:12.008Z</time>
      </trkpt>
      <trkpt lat="45.02358" lon="2.99903">
        <ele>1211</ele>
        <time>2016-12-30T15:30:13.008Z</time>
      </trkpt>
      <trkpt lat="45.02354" lon="2.99903">
        <ele>1211</ele>
        <time>2016-12-30T15:30:14.008Z</time>
      </trkpt>
      <trkpt lat="45.02348" lon="2.99907">
        <ele>1211</ele>
        <time>2016-12-30T15:30:16.008Z</time>
      </trkpt>
      <trkpt lat="45.02342" lon="2.99912">
        <ele>1211</ele>
        <time>2016-12-30T15:30:18.008Z</time>
      </trkpt>
      <trkpt lat="45.02337" lon="2.99916">
        <ele>1211</ele>
        <time>2016-12-30T15:30:20.008Z</time>
      </trkpt>
      <trkpt lat="45.02328" lon="2.99923">
        <ele>1211</ele>
        <time>2016-12-30T15:30:24.008Z</time>
      </trkpt>
      <trkpt lat="45.02319" lon="2.99927">
        <ele>1211</ele>
        <time>2016-12-30T15:30:27.008Z</time>
      </trkpt>
      <trkpt lat="45.02314" lon="2.99935">
        <ele>1212.7359905793</ele>
        <time>2016-12-30T15:30:30.008Z</time>
      </trkpt>
      <trkpt lat="45.0231" lon="2.99941">
        <ele>1213</ele>
        <time>2016-12-30T15:30:32.008Z</time>
      </trkpt>
      <trkpt lat="45.02305" lon="2.99946">
        <ele>1213</ele>
        <time>2016-12-30T15:30:35.008Z</time>
      </trkpt>
      <trkpt lat="45.02301" lon="2.99946">
        <ele>1213</ele>
        <time>2016-12-30T15:30:37.008Z</time>
      </trkpt>
      <trkpt lat="45.02297" lon="2.99944">
        <ele>1213</ele>
        <time>2016-12-30T15:30:39.008Z</time>
      </trkpt>
      <trkpt lat="45.02293" lon="2.99939">
        <ele>1213</ele>
        <time>2016-12-30T15:30:42.008Z</time>
      </trkpt>
      <trkpt lat="45.02286" lon="2.99935">
        <ele>1213</ele>
        <time>2016-12-30T15:30:46.008Z</time>
      </trkpt>
      <trkpt lat="45.0228" lon="2.99938">
        <ele>1213</ele>
        <time>2016-12-30T15:30:49.008Z</time>
      </trkpt>
      <trkpt lat="45.02278" lon="2.99952">
        <ele>1215</ele>
        <time>2016-12-30T15:30:55.008Z</time>
      </trkpt>
      <trkpt lat="45.02278" lon="2.99965">
        <ele>1216.7359905793</ele>
        <time>2016-12-30T15:31:00.008Z</time>
      </trkpt>
      <trkpt lat="45.02278" lon="2.99976">
        <ele>1218.7360094209</ele>
        <time>2016-12-30T15:31:05.008Z</time>
      </trkpt>
      <trkpt lat="45.02279" lon="2.99984">
        <ele>1223</ele>
        <time>2016-12-30T15:31:44.008Z</time>
      </trkpt>
      <trkpt lat="45.02281" lon="2.99976">
        <ele>1223</ele>
        <time>2016-12-30T15:36:29.008Z</time>
      </trkpt>
      <trkpt lat="45.02275" lon="2.9997">
        <ele>1217</ele>
        <time>2016-12-30T15:36:43.008Z</time>
      </trkpt>
      <trkpt lat="45.02276" lon="2.99953">
        <ele>1216</ele>
        <time>2016-12-30T15:36:54.008Z</time>
      </trkpt>
      <trkpt lat="45.02282" lon="2.99942">
        <ele>1213.396014131</ele>
        <time>2016-12-30T15:37:00.008Z</time>
      </trkpt>
      <trkpt lat="45.02288" lon="2.99934">
        <ele>1213</ele>
        <time>2016-12-30T15:37:05.008Z</time>
      </trkpt>
      <trkpt lat="45.02286" lon="2.99929">
        <ele>1212</ele>
        <time>2016-12-30T15:37:20.008Z</time>
      </trkpt>
      <trkpt lat="45.02282" lon="2.99928">
        <ele>1212</ele>
        <time>2016-12-30T15:38:34.008Z</time>
      </trkpt>
      <trkpt lat="45.02276" lon="2.99925">
        <ele>1212</ele>
        <time>2016-12-30T15:38:37.008Z</time>
      </trkpt>
      <trkpt lat="45.02271" lon="2.99924">
        <ele>1212</ele>
        <time>2016-12-30T15:38:39.008Z</time>
      </trkpt>
      <trkpt lat="45.02267" lon="2.99922">
        <ele>1214</ele>
        <time>2016-12-30T15:38:41.008Z</time>
      </trkpt>
      <trkpt lat="45.02263" lon="2.99921">
        <ele>1214</ele>
        <time>2016-12-30T15:38:43.008Z</time>
      </trkpt>
      <trkpt lat="45.02259" lon="2.9992">
        <ele>1214</ele>
        <time>2016-12-30T15:38:45.008Z</time>
      </trkpt>
      <trkpt lat="45.02253" lon="2.99925">
        <ele>1214</ele>
        <time>2016-12-30T15:38:48.008Z</time>
      </trkpt>
      <trkpt lat="45.02249" lon="2.9993">
        <ele>1214</ele>
        <time>2016-12-30T15:38:50.008Z</time>
      </trkpt>
      <trkpt lat="45.02246" lon="2.99936">
        <ele>1214</ele>
        <time>2016-12-30T15:38:52.008Z</time>
      </trkpt>
      <trkpt lat="45.02242" lon="2.99947">
        <ele>1214</ele>
        <time>2016-12-30T15:38:55.008Z</time>
      </trkpt>
      <trkpt lat="45.02239" lon="2.99955">
        <ele>1214</ele>
        <time>2016-12-30T15:38:57.008Z</time>
      </trkpt>
      <trkpt lat="45.02233" lon="2.99966">
        <ele>1213.1320047103</ele>
        <time>2016-12-30T15:39:00.008Z</time>
      </trkpt>
      <trkpt lat="45.02225" lon="2.99974">
        <ele>1213</ele>
        <time>2016-12-30T15:39:03.008Z</time>
      </trkpt>
      <trkpt lat="45.02219" lon="2.99979">
        <ele>1213</ele>
        <time>2016-12-30T15:39:05.008Z</time>
      </trkpt>
      <trkpt lat="45.02214" lon="2.99981">
        <ele>1213</ele>
        <time>2016-12-30T15:39:07.008Z</time>
      </trkpt>
      <trkpt lat="45.02207" lon="2.99976">
        <ele>1213</ele>
        <time>2016-12-30T15:39:11.008Z</time>
      </trkpt>
      <trkpt lat="45.02205" lon="2.99968">
        <ele>1213</ele>
        <time>2016-12-30T15:39:13.008Z</time>
      </trkpt>
      <trkpt lat="45.02205" lon="2.99959">
        <ele>1213</ele>
        <time>2016-12-30T15:39:15.008Z</time>
      </trkpt>
      <trkpt lat="45.02205" lon="2.9995">
        <ele>1213</ele>
        <time>2016-12-30T15:39:17.008Z</time>
      </trkpt>
      <trkpt lat="45.02204" lon="2.99939">
        <ele>1213</ele>
        <time>2016-12-30T15:39:19.008Z</time>
      </trkpt>
      <trkpt lat="45.02203" lon="2.99926">
        <ele>1212</ele>
        <time>2016-12-30T15:39:21.008Z</time>
      </trkpt>
      <trkpt lat="45.02202" lon="2.99915">
        <ele>1212</ele>
        <time>2016-12-30T15:39:23.008Z</time>
      </trkpt>
      <trkpt lat="45.022" lon="2.99906">
        <ele>1212</ele>
        <time>2016-12-30T15:39:25.008Z</time>
      </trkpt>
      <trkpt lat="45.02199" lon="2.99899">
        <ele>1212</ele>
        <time>2016-12-30T15:39:27.008Z</time>
      </trkpt>
      <trkpt lat="45.02199" lon="2.99891">
        <ele>1212</ele>
        <time>2016-12-30T15:39:29.008Z</time>
      </trkpt>
      <trkpt lat="45.022" lon="2.99881">
        <ele>1211</ele>
        <time>2016-12-30T15:39:31.008Z</time>
      </trkpt>
      <trkpt lat="45.02199" lon="2.99866">
        <ele>1211</ele>
        <time>2016-12-30T15:39:34.008Z</time>
      </trkpt>
      <trkpt lat="45.02199" lon="2.99848">
        <ele>1211</ele>
        <time>2016-12-30T15:39:37.008Z</time>
      </trkpt>
      <trkpt lat="45.022" lon="2.99832">
        <ele>1210.1320047103</ele>
        <time>2016-12-30T15:39:40.008Z</time>
      </trkpt>
      <trkpt lat="45.022" lon="2.99818">
        <ele>1210</ele>
        <time>2016-12-30T15:39:43.008Z</time>
      </trkpt>
      <trkpt lat="45.02195" lon="2.99808">
        <ele>1210</ele>
        <time>2016-12-30T15:39:46.008Z</time>
      </trkpt>
      <trkpt lat="45.02185" lon="2.99804">
        <ele>1210</ele>
        <time>2016-12-30T15:39:49.008Z</time>
      </trkpt>
      <trkpt lat="45.02177" lon="2.99802">
        <ele>1207</ele>
        <time>2016-12-30T15:39:51.008Z</time>
      </trkpt>
      <trkpt lat="45.02169" lon="2.998">
        <ele>1207</ele>
        <time>2016-12-30T15:39:53.008Z</time>
      </trkpt>
      <trkpt lat="45.02164" lon="2.998">
        <ele>1207</ele>
        <time>2016-12-30T15:39:54.008Z</time>
      </trkpt>
      <trkpt lat="45.02157" lon="2.99804">
        <ele>1207</ele>
        <time>2016-12-30T15:39:56.008Z</time>
      </trkpt>
      <trkpt lat="45.02153" lon="2.99815">
        <ele>1207</ele>
        <time>2016-12-30T15:39:58.008Z</time>
      </trkpt>
      <trkpt lat="45.02152" lon="2.99822">
        <ele>1207</ele>
        <time>2016-12-30T15:39:59.008Z</time>
      </trkpt>
      <trkpt lat="45.02152" lon="2.99835">
        <ele>1205</ele>
        <time>2016-12-30T15:40:01.008Z</time>
      </trkpt>
      <trkpt lat="45.02152" lon="2.99847">
        <ele>1205</ele>
        <time>2016-12-30T15:40:03.008Z</time>
      </trkpt>
      <trkpt lat="45.02153" lon="2.99852">
        <ele>1205</ele>
        <time>2016-12-30T15:40:04.008Z</time>
      </trkpt>
      <trkpt lat="45.02152" lon="2.9986">
        <ele>1205</ele>
        <time>2016-12-30T15:40:06.008Z</time>
      </trkpt>
      <trkpt lat="45.0215" lon="2.99868">
        <ele>1205</ele>
        <time>2016-12-30T15:40:08.008Z</time>
      </trkpt>
      <trkpt lat="45.02146" lon="2.99876">
        <ele>1205</ele>
        <time>2016-12-30T15:40:10.008Z</time>
      </trkpt>
      <trkpt lat="45.0214" lon="2.99883">
        <ele>1205</ele>
        <time>2016-12-30T15:40:13.008Z</time>
      </trkpt>
      <trkpt lat="45.02135" lon="2.99884">
        <ele>1205</ele>
        <time>2016-12-30T15:40:15.008Z</time>
      </trkpt>
      <trkpt lat="45.0213" lon="2.99884">
        <ele>1205</ele>
        <time>2016-12-30T15:40:17.008Z</time>
      </trkpt>
      <trkpt lat="45.02125" lon="2.99889">
        <ele>1203</ele>
        <time>2016-12-30T15:40:21.008Z</time>
      </trkpt>
      <trkpt lat="45.02132" lon="2.99884">
        <ele>1204</ele>
        <time>2016-12-30T15:40:54.008Z</time>
      </trkpt>
      <trkpt lat="45.0214" lon="2.99881">
        <ele>1204</ele>
        <time>2016-12-30T15:40:57.008Z</time>
      </trkpt>
      <trkpt lat="45.02146" lon="2.99877">
        <ele>1205.7188082173</ele>
        <time>2016-12-30T15:41:00.008Z</time>
      </trkpt>
      <trkpt lat="45.02149" lon="2.99872">
        <ele>1206</ele>
        <time>2016-12-30T15:41:02.008Z</time>
      </trkpt>
      <trkpt lat="45.02152" lon="2.99867">
        <ele>1206</ele>
        <time>2016-12-30T15:41:04.008Z</time>
      </trkpt>
      <trkpt lat="45.02153" lon="2.9986">
        <ele>1206</ele>
        <time>2016-12-30T15:41:06.008Z</time>
      </trkpt>
      <trkpt lat="45.02154" lon="2.99851">
        <ele>1206</ele>
        <time>2016-12-30T15:41:08.008Z</time>
      </trkpt>
      <trkpt lat="45.02153" lon="2.9984">
        <ele>1206</ele>
        <time>2016-12-30T15:41:10.008Z</time>
      </trkpt>
      <trkpt lat="45.02153" lon="2.99829">
        <ele>1206</ele>
        <time>2016-12-30T15:41:12.008Z</time>
      </trkpt>
      <trkpt lat="45.02154" lon="2.99823">
        <ele>1206</ele>
        <time>2016-12-30T15:41:13.008Z</time>
      </trkpt>
      <trkpt lat="45.02155" lon="2.99818">
        <ele>1206</ele>
        <time>2016-12-30T15:41:14.008Z</time>
      </trkpt>
      <trkpt lat="45.0216" lon="2.99805">
        <ele>1206</ele>
        <time>2016-12-30T15:41:17.008Z</time>
      </trkpt>
      <trkpt lat="45.02166" lon="2.99802">
        <ele>1206</ele>
        <time>2016-12-30T15:41:19.008Z</time>
      </trkpt>
      <trkpt lat="45.02173" lon="2.99801">
        <ele>1206</ele>
        <time>2016-12-30T15:41:21.008Z</time>
      </trkpt>
      <trkpt lat="45.02182" lon="2.99803">
        <ele>1206</ele>
        <time>2016-12-30T15:41:24.008Z</time>
      </trkpt>
      <trkpt lat="45.02188" lon="2.99805">
        <ele>1206</ele>
        <time>2016-12-30T15:41:26.008Z</time>
      </trkpt>
      <trkpt lat="45.02197" lon="2.99809">
        <ele>1206</ele>
        <time>2016-12-30T15:41:29.008Z</time>
      </trkpt>
      <trkpt lat="45.02205" lon="2.99809">
        <ele>1207</ele>
        <time>2016-12-30T15:41:32.008Z</time>
      </trkpt>
      <trkpt lat="45.02213" lon="2.99807">
        <ele>1207</ele>
        <time>2016-12-30T15:41:35.008Z</time>
      </trkpt>
      <trkpt lat="45.02219" lon="2.99797">
        <ele>1207</ele>
        <time>2016-12-30T15:42:05.008Z</time>
      </trkpt>
      <trkpt lat="45.02226" lon="2.99784">
        <ele>1207</ele>
        <time>2016-12-30T15:42:08.008Z</time>
      </trkpt>
      <trkpt lat="45.02232" lon="2.99774">
        <ele>1206.1320047103</ele>
        <time>2016-12-30T15:42:10.008Z</time>
      </trkpt>
      <trkpt lat="45.02239" lon="2.99763">
        <ele>1206</ele>
        <time>2016-12-30T15:42:12.008Z</time>
      </trkpt>
      <trkpt lat="45.02246" lon="2.99751">
        <ele>1206</ele>
        <time>2016-12-30T15:42:14.008Z</time>
      </trkpt>
      <trkpt lat="45.02252" lon="2.99739">
        <ele>1206</ele>
        <time>2016-12-30T15:42:16.008Z</time>
      </trkpt>
      <trkpt lat="45.0226" lon="2.99726">
        <ele>1206</ele>
        <time>2016-12-30T15:42:18.008Z</time>
      </trkpt>
      <trkpt lat="45.02267" lon="2.99711">
        <ele>1203.4217876741</ele>
        <time>2016-12-30T15:42:20.008Z</time>
      </trkpt>
      <trkpt lat="45.02271" lon="2.99697">
        <ele>1203</ele>
        <time>2016-12-30T15:42:22.008Z</time>
      </trkpt>
      <trkpt lat="45.02266" lon="2.99683">
        <ele>1203</ele>
        <time>2016-12-30T15:42:24.008Z</time>
      </trkpt>
      <trkpt lat="45.02256" lon="2.99673">
        <ele>1200</ele>
        <time>2016-12-30T15:42:26.008Z</time>
      </trkpt>
      <trkpt lat="45.02244" lon="2.99667">
        <ele>1200</ele>
        <time>2016-12-30T15:42:28.008Z</time>
      </trkpt>
      <trkpt lat="45.02233" lon="2.99661">
        <ele>1200</ele>
        <time>2016-12-30T15:42:30.008Z</time>
      </trkpt>
      <trkpt lat="45.02221" lon="2.99654">
        <ele>1200</ele>
        <time>2016-12-30T15:42:32.008Z</time>
      </trkpt>
      <trkpt lat="45.02208" lon="2.99647">
        <ele>1200</ele>
        <time>2016-12-30T15:42:34.008Z</time>
      </trkpt>
      <trkpt lat="45.02202" lon="2.99643">
        <ele>1198.2639905791</ele>
        <time>2016-12-30T15:42:35.008Z</time>
      </trkpt>
      <trkpt lat="45.02195" lon="2.99639">
        <ele>1198</ele>
        <time>2016-12-30T15:42:36.008Z</time>
      </trkpt>
      <trkpt lat="45.02188" lon="2.99636">
        <ele>1198</ele>
        <time>2016-12-30T15:42:37.008Z</time>
      </trkpt>
      <trkpt lat="45.0218" lon="2.99633">
        <ele>1198</ele>
        <time>2016-12-30T15:42:38.008Z</time>
      </trkpt>
      <trkpt lat="45.02173" lon="2.9963">
        <ele>1198</ele>
        <time>2016-12-30T15:42:39.008Z</time>
      </trkpt>
      <trkpt lat="45.02158" lon="2.99626">
        <ele>1196</ele>
        <time>2016-12-30T15:42:41.008Z</time>
      </trkpt>
      <trkpt lat="45.02143" lon="2.99623">
        <ele>1196</ele>
        <time>2016-12-30T15:42:43.008Z</time>
      </trkpt>
      <trkpt lat="45.02135" lon="2.99621">
        <ele>1196</ele>
        <time>2016-12-30T15:42:44.008Z</time>
      </trkpt>
      <trkpt lat="45.02127" lon="2.9962">
        <ele>1193.3999844847</ele>
        <time>2016-12-30T15:42:45.008Z</time>
      </trkpt>
      <trkpt lat="45.02119" lon="2.99618">
        <ele>1193</ele>
        <time>2016-12-30T15:42:46.008Z</time>
      </trkpt>
      <trkpt lat="45.0211" lon="2.99617">
        <ele>1193</ele>
        <time>2016-12-30T15:42:47.008Z</time>
      </trkpt>
      <trkpt lat="45.02101" lon="2.99616">
        <ele>1193</ele>
        <time>2016-12-30T15:42:48.008Z</time>
      </trkpt>
      <trkpt lat="45.02092" lon="2.99614">
        <ele>1193</ele>
        <time>2016-12-30T15:42:49.008Z</time>
      </trkpt>
      <trkpt lat="45.02083" lon="2.99613">
        <ele>1189.5680128</ele>
        <time>2016-12-30T15:42:50.008Z</time>
      </trkpt>
      <trkpt lat="45.02074" lon="2.99611">
        <ele>1186.3999844847</ele>
        <time>2016-12-30T15:42:51.008Z</time>
      </trkpt>
      <trkpt lat="45.02064" lon="2.99609">
        <ele>1185.1320047103</ele>
        <time>2016-12-30T15:42:52.008Z</time>
      </trkpt>
      <trkpt lat="45.02054" lon="2.99607">
        <ele>1184.1319952895</ele>
        <time>2016-12-30T15:42:53.008Z</time>
      </trkpt>
      <trkpt lat="45.02044" lon="2.99605">
        <ele>1184</ele>
        <time>2016-12-30T15:42:54.008Z</time>
      </trkpt>
      <trkpt lat="45.02034" lon="2.99602">
        <ele>1183.1319952895</ele>
        <time>2016-12-30T15:42:55.008Z</time>
      </trkpt>
      <trkpt lat="45.02025" lon="2.99599">
        <ele>1182.1405958914</ele>
        <time>2016-12-30T15:42:56.008Z</time>
      </trkpt>
      <trkpt lat="45.02015" lon="2.99596">
        <ele>1181.1333281616</ele>
        <time>2016-12-30T15:42:57.008Z</time>
      </trkpt>
      <trkpt lat="45.02006" lon="2.99592">
        <ele>1179.2640094207</ele>
        <time>2016-12-30T15:42:58.008Z</time>
      </trkpt>
      <trkpt lat="45.01997" lon="2.99588">
        <ele>1178.1319952895</ele>
        <time>2016-12-30T15:42:59.008Z</time>
      </trkpt>
      <trkpt lat="45.01988" lon="2.99584">
        <ele>1176.2640094207</ele>
        <time>2016-12-30T15:43:00.008Z</time>
      </trkpt>
      <trkpt lat="45.0198" lon="2.9958">
        <ele>1176</ele>
        <time>2016-12-30T15:43:01.008Z</time>
      </trkpt>
      <trkpt lat="45.01972" lon="2.99576">
        <ele>1175.1405958914</ele>
        <time>2016-12-30T15:43:02.008Z</time>
      </trkpt>
      <trkpt lat="45.01965" lon="2.99571">
        <ele>1175</ele>
        <time>2016-12-30T15:43:03.008Z</time>
      </trkpt>
      <trkpt lat="45.0196" lon="2.99564">
        <ele>1173.2640094207</ele>
        <time>2016-12-30T15:43:04.008Z</time>
      </trkpt>
      <trkpt lat="45.01956" lon="2.99555">
        <ele>1172.1319952895</ele>
        <time>2016-12-30T15:43:05.008Z</time>
      </trkpt>
      <trkpt lat="45.01953" lon="2.99545">
        <ele>1171.1320047103</ele>
        <time>2016-12-30T15:43:06.008Z</time>
      </trkpt>
      <trkpt lat="45.0195" lon="2.99535">
        <ele>1171.8680047105</ele>
        <time>2016-12-30T15:43:07.008Z</time>
      </trkpt>
      <trkpt lat="45.01948" lon="2.99524">
        <ele>1172</ele>
        <time>2016-12-30T15:43:08.008Z</time>
      </trkpt>
      <trkpt lat="45.01947" lon="2.99514">
        <ele>1171.1333281616</ele>
        <time>2016-12-30T15:43:09.008Z</time>
      </trkpt>
      <trkpt lat="45.01944" lon="2.99505">
        <ele>1170.1320047103</ele>
        <time>2016-12-30T15:43:10.008Z</time>
      </trkpt>
      <trkpt lat="45.01934" lon="2.9949">
        <ele>1168.1320047103</ele>
        <time>2016-12-30T15:43:12.008Z</time>
      </trkpt>
      <trkpt lat="45.01926" lon="2.99484">
        <ele>1168</ele>
        <time>2016-12-30T15:43:13.008Z</time>
      </trkpt>
      <trkpt lat="45.01909" lon="2.9948">
        <ele>1168</ele>
        <time>2016-12-30T15:43:15.008Z</time>
      </trkpt>
      <trkpt lat="45.01899" lon="2.99481">
        <ele>1168</ele>
        <time>2016-12-30T15:43:16.008Z</time>
      </trkpt>
      <trkpt lat="45.01889" lon="2.99482">
        <ele>1167.1319952895</ele>
        <time>2016-12-30T15:43:17.008Z</time>
      </trkpt>
      <trkpt lat="45.01879" lon="2.99484">
        <ele>1165.2640094207</ele>
        <time>2016-12-30T15:43:18.008Z</time>
      </trkpt>
      <trkpt lat="45.01869" lon="2.99486">
        <ele>1164.1319952895</ele>
        <time>2016-12-30T15:43:19.008Z</time>
      </trkpt>
      <trkpt lat="45.01858" lon="2.99488">
        <ele>1163.1405958914</ele>
        <time>2016-12-30T15:43:20.008Z</time>
      </trkpt>
      <trkpt lat="45.01848" lon="2.9949">
        <ele>1163</ele>
        <time>2016-12-30T15:43:21.008Z</time>
      </trkpt>
      <trkpt lat="45.01837" lon="2.99493">
        <ele>1162.1320047103</ele>
        <time>2016-12-30T15:43:22.008Z</time>
      </trkpt>
      <trkpt lat="45.01826" lon="2.99494">
        <ele>1161.1319952895</ele>
        <time>2016-12-30T15:43:23.008Z</time>
      </trkpt>
      <trkpt lat="45.01815" lon="2.99494">
        <ele>1160.1320047103</ele>
        <time>2016-12-30T15:43:24.008Z</time>
      </trkpt>
      <trkpt lat="45.01804" lon="2.99492">
        <ele>1160</ele>
        <time>2016-12-30T15:43:25.008Z</time>
      </trkpt>
      <trkpt lat="45.01793" lon="2.99488">
        <ele>1158.2811917827</ele>
        <time>2016-12-30T15:43:26.008Z</time>
      </trkpt>
      <trkpt lat="45.01783" lon="2.99483">
        <ele>1158</ele>
        <time>2016-12-30T15:43:27.008Z</time>
      </trkpt>
      <trkpt lat="45.01773" lon="2.99477">
        <ele>1157.133339367</ele>
        <time>2016-12-30T15:43:28.008Z</time>
      </trkpt>
      <trkpt lat="45.01763" lon="2.9947">
        <ele>1155.2639905791</ele>
        <time>2016-12-30T15:43:29.008Z</time>
      </trkpt>
      <trkpt lat="45.01753" lon="2.99463">
        <ele>1154.1320047103</ele>
        <time>2016-12-30T15:43:30.008Z</time>
      </trkpt>
      <trkpt lat="45.01744" lon="2.99456">
        <ele>1153.1319952895</ele>
        <time>2016-12-30T15:43:31.008Z</time>
      </trkpt>
      <trkpt lat="45.01735" lon="2.99448">
        <ele>1153</ele>
        <time>2016-12-30T15:43:32.008Z</time>
      </trkpt>
      <trkpt lat="45.01726" lon="2.99441">
        <ele>1153</ele>
        <time>2016-12-30T15:43:33.008Z</time>
      </trkpt>
      <trkpt lat="45.01717" lon="2.99434">
        <ele>1153</ele>
        <time>2016-12-30T15:43:34.008Z</time>
      </trkpt>
      <trkpt lat="45.01709" lon="2.99427">
        <ele>1153</ele>
        <time>2016-12-30T15:43:35.008Z</time>
      </trkpt>
      <trkpt lat="45.01693" lon="2.99415">
        <ele>1152</ele>
        <time>2016-12-30T15:43:37.008Z</time>
      </trkpt>
      <trkpt lat="45.01678" lon="2.99403">
        <ele>1151</ele>
        <time>2016-12-30T15:43:39.008Z</time>
      </trkpt>
      <trkpt lat="45.01671" lon="2.99398">
        <ele>1150.1320047103</ele>
        <time>2016-12-30T15:43:40.008Z</time>
      </trkpt>
      <trkpt lat="45.01658" lon="2.99387">
        <ele>1150</ele>
        <time>2016-12-30T15:43:42.008Z</time>
      </trkpt>
      <trkpt lat="45.01648" lon="2.99374">
        <ele>1150</ele>
        <time>2016-12-30T15:43:44.008Z</time>
      </trkpt>
      <trkpt lat="45.01641" lon="2.9936">
        <ele>1150</ele>
        <time>2016-12-30T15:43:46.008Z</time>
      </trkpt>
      <trkpt lat="45.01638" lon="2.99353">
        <ele>1150</ele>
        <time>2016-12-30T15:43:47.008Z</time>
      </trkpt>
      <trkpt lat="45.01636" lon="2.99346">
        <ele>1150</ele>
        <time>2016-12-30T15:43:48.008Z</time>
      </trkpt>
      <trkpt lat="45.01634" lon="2.99338">
        <ele>1150</ele>
        <time>2016-12-30T15:43:49.008Z</time>
      </trkpt>
      <trkpt lat="45.01632" lon="2.99331">
        <ele>1149.1405958914</ele>
        <time>2016-12-30T15:43:50.008Z</time>
      </trkpt>
      <trkpt lat="45.01629" lon="2.99324">
        <ele>1149</ele>
        <time>2016-12-30T15:43:51.008Z</time>
      </trkpt>
      <trkpt lat="45.01627" lon="2.99316">
        <ele>1149</ele>
        <time>2016-12-30T15:43:52.008Z</time>
      </trkpt>
      <trkpt lat="45.01625" lon="2.99309">
        <ele>1149</ele>
        <time>2016-12-30T15:43:53.008Z</time>
      </trkpt>
      <trkpt lat="45.01623" lon="2.99301">
        <ele>1149</ele>
        <time>2016-12-30T15:43:54.008Z</time>
      </trkpt>
      <trkpt lat="45.0162" lon="2.99294">
        <ele>1149</ele>
        <time>2016-12-30T15:43:55.008Z</time>
      </trkpt>
      <trkpt lat="45.01617" lon="2.99287">
        <ele>1149</ele>
        <time>2016-12-30T15:43:56.008Z</time>
      </trkpt>
      <trkpt lat="45.0161" lon="2.99274">
        <ele>1149</ele>
        <time>2016-12-30T15:43:58.008Z</time>
      </trkpt>
      <trkpt lat="45.01599" lon="2.99263">
        <ele>1146.396014131</ele>
        <time>2016-12-30T15:44:00.008Z</time>
      </trkpt>
      <trkpt lat="45.01586" lon="2.99254">
        <ele>1146</ele>
        <time>2016-12-30T15:44:02.008Z</time>
      </trkpt>
      <trkpt lat="45.01579" lon="2.99249">
        <ele>1146</ele>
        <time>2016-12-30T15:44:03.008Z</time>
      </trkpt>
      <trkpt lat="45.01572" lon="2.99244">
        <ele>1146</ele>
        <time>2016-12-30T15:44:04.008Z</time>
      </trkpt>
      <trkpt lat="45.01565" lon="2.99239">
        <ele>1145.1319952895</ele>
        <time>2016-12-30T15:44:05.008Z</time>
      </trkpt>
      <trkpt lat="45.01557" lon="2.99235">
        <ele>1145</ele>
        <time>2016-12-30T15:44:06.008Z</time>
      </trkpt>
      <trkpt lat="45.01549" lon="2.99232">
        <ele>1145</ele>
        <time>2016-12-30T15:44:07.008Z</time>
      </trkpt>
      <trkpt lat="45.01541" lon="2.99229">
        <ele>1145</ele>
        <time>2016-12-30T15:44:08.008Z</time>
      </trkpt>
      <trkpt lat="45.01535" lon="2.99225">
        <ele>1145</ele>
        <time>2016-12-30T15:44:09.008Z</time>
      </trkpt>
      <trkpt lat="45.01526" lon="2.99213">
        <ele>1142</ele>
        <time>2016-12-30T15:44:11.008Z</time>
      </trkpt>
      <trkpt lat="45.01525" lon="2.99204">
        <ele>1142</ele>
        <time>2016-12-30T15:44:12.008Z</time>
      </trkpt>
      <trkpt lat="45.01522" lon="2.99188">
        <ele>1142</ele>
        <time>2016-12-30T15:44:14.008Z</time>
      </trkpt>
      <trkpt lat="45.01516" lon="2.99172">
        <ele>1141</ele>
        <time>2016-12-30T15:44:16.008Z</time>
      </trkpt>
      <trkpt lat="45.01506" lon="2.99159">
        <ele>1141</ele>
        <time>2016-12-30T15:44:18.008Z</time>
      </trkpt>
      <trkpt lat="45.01501" lon="2.99155">
        <ele>1141</ele>
        <time>2016-12-30T15:44:19.008Z</time>
      </trkpt>
      <trkpt lat="45.01494" lon="2.99152">
        <ele>1139.2811917827</ele>
        <time>2016-12-30T15:44:20.008Z</time>
      </trkpt>
      <trkpt lat="45.0148" lon="2.99147">
        <ele>1139</ele>
        <time>2016-12-30T15:44:22.008Z</time>
      </trkpt>
      <trkpt lat="45.01472" lon="2.99145">
        <ele>1139</ele>
        <time>2016-12-30T15:44:23.008Z</time>
      </trkpt>
      <trkpt lat="45.01457" lon="2.99141">
        <ele>1138.1319952895</ele>
        <time>2016-12-30T15:44:25.008Z</time>
      </trkpt>
      <trkpt lat="45.01449" lon="2.99139">
        <ele>1138</ele>
        <time>2016-12-30T15:44:26.008Z</time>
      </trkpt>
      <trkpt lat="45.01441" lon="2.99137">
        <ele>1138</ele>
        <time>2016-12-30T15:44:27.008Z</time>
      </trkpt>
      <trkpt lat="45.01433" lon="2.99135">
        <ele>1138</ele>
        <time>2016-12-30T15:44:28.008Z</time>
      </trkpt>
      <trkpt lat="45.01426" lon="2.99131">
        <ele>1138</ele>
        <time>2016-12-30T15:44:29.008Z</time>
      </trkpt>
      <trkpt lat="45.01419" lon="2.99125">
        <ele>1137.1320047103</ele>
        <time>2016-12-30T15:44:30.008Z</time>
      </trkpt>
      <trkpt lat="45.01413" lon="2.99118">
        <ele>1137</ele>
        <time>2016-12-30T15:44:31.008Z</time>
      </trkpt>
      <trkpt lat="45.01408" lon="2.9911">
        <ele>1137</ele>
        <time>2016-12-30T15:44:32.008Z</time>
      </trkpt>
      <trkpt lat="45.01403" lon="2.99103">
        <ele>1137</ele>
        <time>2016-12-30T15:44:33.008Z</time>
      </trkpt>
      <trkpt lat="45.01397" lon="2.99096">
        <ele>1137</ele>
        <time>2016-12-30T15:44:34.008Z</time>
      </trkpt>
      <trkpt lat="45.01391" lon="2.9909">
        <ele>1136.1319952895</ele>
        <time>2016-12-30T15:44:35.008Z</time>
      </trkpt>
      <trkpt lat="45.01378" lon="2.99082">
        <ele>1136</ele>
        <time>2016-12-30T15:44:37.008Z</time>
      </trkpt>
      <trkpt lat="45.01371" lon="2.99078">
        <ele>1136</ele>
        <time>2016-12-30T15:44:38.008Z</time>
      </trkpt>
      <trkpt lat="45.01364" lon="2.99075">
        <ele>1136</ele>
        <time>2016-12-30T15:44:39.008Z</time>
      </trkpt>
      <trkpt lat="45.01358" lon="2.99072">
        <ele>1136</ele>
        <time>2016-12-30T15:44:40.008Z</time>
      </trkpt>
      <trkpt lat="45.01344" lon="2.99068">
        <ele>1136</ele>
        <time>2016-12-30T15:44:42.008Z</time>
      </trkpt>
      <trkpt lat="45.01331" lon="2.99064">
        <ele>1136</ele>
        <time>2016-12-30T15:44:44.008Z</time>
      </trkpt>
      <trkpt lat="45.01324" lon="2.99061">
        <ele>1136</ele>
        <time>2016-12-30T15:44:45.008Z</time>
      </trkpt>
      <trkpt lat="45.01317" lon="2.99059">
        <ele>1136</ele>
        <time>2016-12-30T15:44:46.008Z</time>
      </trkpt>
      <trkpt lat="45.0131" lon="2.99056">
        <ele>1136</ele>
        <time>2016-12-30T15:44:47.008Z</time>
      </trkpt>
      <trkpt lat="45.01303" lon="2.99054">
        <ele>1136</ele>
        <time>2016-12-30T15:44:48.008Z</time>
      </trkpt>
      <trkpt lat="45.01288" lon="2.99049">
        <ele>1134.2811917827</ele>
        <time>2016-12-30T15:44:50.008Z</time>
      </trkpt>
      <trkpt lat="45.01281" lon="2.99047">
        <ele>1134</ele>
        <time>2016-12-30T15:44:51.008Z</time>
      </trkpt>
      <trkpt lat="45.01267" lon="2.99044">
        <ele>1134</ele>
        <time>2016-12-30T15:44:53.008Z</time>
      </trkpt>
      <trkpt lat="45.01253" lon="2.9904">
        <ele>1134</ele>
        <time>2016-12-30T15:44:55.008Z</time>
      </trkpt>
      <trkpt lat="45.01246" lon="2.99039">
        <ele>1134</ele>
        <time>2016-12-30T15:44:56.008Z</time>
      </trkpt>
      <trkpt lat="45.01239" lon="2.99038">
        <ele>1134</ele>
        <time>2016-12-30T15:44:57.008Z</time>
      </trkpt>
      <trkpt lat="45.01225" lon="2.99035">
        <ele>1134</ele>
        <time>2016-12-30T15:44:59.008Z</time>
      </trkpt>
      <trkpt lat="45.01212" lon="2.99033">
        <ele>1132</ele>
        <time>2016-12-30T15:45:01.008Z</time>
      </trkpt>
      <trkpt lat="45.012" lon="2.99031">
        <ele>1132</ele>
        <time>2016-12-30T15:45:03.008Z</time>
      </trkpt>
      <trkpt lat="45.01188" lon="2.99028">
        <ele>1132</ele>
        <time>2016-12-30T15:45:05.008Z</time>
      </trkpt>
      <trkpt lat="45.01176" lon="2.99027">
        <ele>1132</ele>
        <time>2016-12-30T15:45:07.008Z</time>
      </trkpt>
      <trkpt lat="45.01164" lon="2.99025">
        <ele>1132</ele>
        <time>2016-12-30T15:45:09.008Z</time>
      </trkpt>
      <trkpt lat="45.01153" lon="2.99023">
        <ele>1131</ele>
        <time>2016-12-30T15:45:11.008Z</time>
      </trkpt>
      <trkpt lat="45.01143" lon="2.99022">
        <ele>1131</ele>
        <time>2016-12-30T15:45:13.008Z</time>
      </trkpt>
      <trkpt lat="45.01136" lon="2.99021">
        <ele>1131</ele>
        <time>2016-12-30T15:45:15.008Z</time>
      </trkpt>
      <trkpt lat="45.01129" lon="2.99021">
        <ele>1131</ele>
        <time>2016-12-30T15:45:18.008Z</time>
      </trkpt>
      <trkpt lat="45.01127" lon="2.99033">
        <ele>1128</ele>
        <time>2016-12-30T15:45:37.008Z</time>
      </trkpt>
      <trkpt lat="45.01129" lon="2.99041">
        <ele>1128.8679952897</ele>
        <time>2016-12-30T15:45:40.008Z</time>
      </trkpt>
      <trkpt lat="45.01133" lon="2.99055">
        <ele>1129</ele>
        <time>2016-12-30T15:45:43.008Z</time>
      </trkpt>
      <trkpt lat="45.01136" lon="2.99068">
        <ele>1129</ele>
        <time>2016-12-30T15:45:45.008Z</time>
      </trkpt>
      <trkpt lat="45.0114" lon="2.99083">
        <ele>1129</ele>
        <time>2016-12-30T15:45:47.008Z</time>
      </trkpt>
      <trkpt lat="45.01143" lon="2.99098">
        <ele>1129</ele>
        <time>2016-12-30T15:45:49.008Z</time>
      </trkpt>
      <trkpt lat="45.01147" lon="2.99114">
        <ele>1129</ele>
        <time>2016-12-30T15:45:51.008Z</time>
      </trkpt>
      <trkpt lat="45.0115" lon="2.9913">
        <ele>1129</ele>
        <time>2016-12-30T15:45:53.008Z</time>
      </trkpt>
      <trkpt lat="45.01154" lon="2.99148">
        <ele>1129</ele>
        <time>2016-12-30T15:45:55.008Z</time>
      </trkpt>
      <trkpt lat="45.01156" lon="2.99157">
        <ele>1129</ele>
        <time>2016-12-30T15:45:56.008Z</time>
      </trkpt>
      <trkpt lat="45.0116" lon="2.99177">
        <ele>1129</ele>
        <time>2016-12-30T15:45:58.008Z</time>
      </trkpt>
      <trkpt lat="45.01162" lon="2.99187">
        <ele>1129</ele>
        <time>2016-12-30T15:45:59.008Z</time>
      </trkpt>
      <trkpt lat="45.01164" lon="2.99197">
        <ele>1128.1320047103</ele>
        <time>2016-12-30T15:46:00.008Z</time>
      </trkpt>
      <trkpt lat="45.01166" lon="2.99206">
        <ele>1128</ele>
        <time>2016-12-30T15:46:01.008Z</time>
      </trkpt>
      <trkpt lat="45.01171" lon="2.99234">
        <ele>1128</ele>
        <time>2016-12-30T15:46:04.008Z</time>
      </trkpt>
      <trkpt lat="45.01174" lon="2.99252">
        <ele>1128</ele>
        <time>2016-12-30T15:46:06.008Z</time>
      </trkpt>
      <trkpt lat="45.01176" lon="2.99269">
        <ele>1128</ele>
        <time>2016-12-30T15:46:08.008Z</time>
      </trkpt>
      <trkpt lat="45.01179" lon="2.99286">
        <ele>1128</ele>
        <time>2016-12-30T15:46:10.008Z</time>
      </trkpt>
      <trkpt lat="45.01181" lon="2.99302">
        <ele>1128</ele>
        <time>2016-12-30T15:46:12.008Z</time>
      </trkpt>
      <trkpt lat="45.01184" lon="2.99319">
        <ele>1128</ele>
        <time>2016-12-30T15:46:14.008Z</time>
      </trkpt>
      <trkpt lat="45.01187" lon="2.99335">
        <ele>1128</ele>
        <time>2016-12-30T15:46:16.008Z</time>
      </trkpt>
      <trkpt lat="45.01189" lon="2.99351">
        <ele>1128</ele>
        <time>2016-12-30T15:46:18.008Z</time>
      </trkpt>
      <trkpt lat="45.01192" lon="2.99368">
        <ele>1128.8594041086</ele>
        <time>2016-12-30T15:46:20.008Z</time>
      </trkpt>
      <trkpt lat="45.01195" lon="2.99384">
        <ele>1129</ele>
        <time>2016-12-30T15:46:22.008Z</time>
      </trkpt>
      <trkpt lat="45.01197" lon="2.994">
        <ele>1129</ele>
        <time>2016-12-30T15:46:24.008Z</time>
      </trkpt>
      <trkpt lat="45.012" lon="2.99417">
        <ele>1129</ele>
        <time>2016-12-30T15:46:26.008Z</time>
      </trkpt>
      <trkpt lat="45.01203" lon="2.99433">
        <ele>1129</ele>
        <time>2016-12-30T15:46:28.008Z</time>
      </trkpt>
      <trkpt lat="45.01205" lon="2.99449">
        <ele>1129.8679952897</ele>
        <time>2016-12-30T15:46:30.008Z</time>
      </trkpt>
      <trkpt lat="45.01208" lon="2.99464">
        <ele>1130</ele>
        <time>2016-12-30T15:46:32.008Z</time>
      </trkpt>
      <trkpt lat="45.01211" lon="2.9948">
        <ele>1130</ele>
        <time>2016-12-30T15:46:34.008Z</time>
      </trkpt>
      <trkpt lat="45.01213" lon="2.99496">
        <ele>1130</ele>
        <time>2016-12-30T15:46:36.008Z</time>
      </trkpt>
      <trkpt lat="45.01216" lon="2.99511">
        <ele>1130</ele>
        <time>2016-12-30T15:46:38.008Z</time>
      </trkpt>
      <trkpt lat="45.01218" lon="2.99527">
        <ele>1130.8679952897</ele>
        <time>2016-12-30T15:46:40.008Z</time>
      </trkpt>
      <trkpt lat="45.01221" lon="2.99543">
        <ele>1131</ele>
        <time>2016-12-30T15:46:42.008Z</time>
      </trkpt>
      <trkpt lat="45.01224" lon="2.99558">
        <ele>1131</ele>
        <time>2016-12-30T15:46:44.008Z</time>
      </trkpt>
      <trkpt lat="45.01226" lon="2.99574">
        <ele>1131</ele>
        <time>2016-12-30T15:46:46.008Z</time>
      </trkpt>
      <trkpt lat="45.01229" lon="2.9959">
        <ele>1131</ele>
        <time>2016-12-30T15:46:48.008Z</time>
      </trkpt>
      <trkpt lat="45.01232" lon="2.99605">
        <ele>1131</ele>
        <time>2016-12-30T15:46:50.008Z</time>
      </trkpt>
      <trkpt lat="45.01234" lon="2.99619">
        <ele>1131</ele>
        <time>2016-12-30T15:46:52.008Z</time>
      </trkpt>
      <trkpt lat="45.01237" lon="2.99634">
        <ele>1131</ele>
        <time>2016-12-30T15:46:54.008Z</time>
      </trkpt>
      <trkpt lat="45.01239" lon="2.99649">
        <ele>1131</ele>
        <time>2016-12-30T15:46:56.008Z</time>
      </trkpt>
      <trkpt lat="45.01242" lon="2.99663">
        <ele>1131</ele>
        <time>2016-12-30T15:46:58.008Z</time>
      </trkpt>
      <trkpt lat="45.01244" lon="2.99677">
        <ele>1131.8679952897</ele>
        <time>2016-12-30T15:47:00.008Z</time>
      </trkpt>
      <trkpt lat="45.01246" lon="2.99691">
        <ele>1132</ele>
        <time>2016-12-30T15:47:02.008Z</time>
      </trkpt>
      <trkpt lat="45.01248" lon="2.99704">
        <ele>1132</ele>
        <time>2016-12-30T15:47:04.008Z</time>
      </trkpt>
      <trkpt lat="45.01251" lon="2.99718">
        <ele>1132</ele>
        <time>2016-12-30T15:47:06.008Z</time>
      </trkpt>
      <trkpt lat="45.01253" lon="2.99731">
        <ele>1132</ele>
        <time>2016-12-30T15:47:08.008Z</time>
      </trkpt>
      <trkpt lat="45.01256" lon="2.99744">
        <ele>1132.8679952897</ele>
        <time>2016-12-30T15:47:10.008Z</time>
      </trkpt>
      <trkpt lat="45.01258" lon="2.99757">
        <ele>1133</ele>
        <time>2016-12-30T15:47:12.008Z</time>
      </trkpt>
      <trkpt lat="45.0126" lon="2.99769">
        <ele>1133</ele>
        <time>2016-12-30T15:47:14.008Z</time>
      </trkpt>
      <trkpt lat="45.01263" lon="2.99782">
        <ele>1133</ele>
        <time>2016-12-30T15:47:16.008Z</time>
      </trkpt>
      <trkpt lat="45.01265" lon="2.99796">
        <ele>1133</ele>
        <time>2016-12-30T15:47:18.008Z</time>
      </trkpt>
      <trkpt lat="45.01268" lon="2.9981">
        <ele>1134.7188082173</ele>
        <time>2016-12-30T15:47:20.008Z</time>
      </trkpt>
      <trkpt lat="45.0127" lon="2.99824">
        <ele>1135</ele>
        <time>2016-12-30T15:47:22.008Z</time>
      </trkpt>
      <trkpt lat="45.01273" lon="2.99838">
        <ele>1135</ele>
        <time>2016-12-30T15:47:24.008Z</time>
      </trkpt>
      <trkpt lat="45.01276" lon="2.99852">
        <ele>1135</ele>
        <time>2016-12-30T15:47:26.008Z</time>
      </trkpt>
      <trkpt lat="45.01279" lon="2.99867">
        <ele>1135</ele>
        <time>2016-12-30T15:47:28.008Z</time>
      </trkpt>
      <trkpt lat="45.01282" lon="2.99881">
        <ele>1135</ele>
        <time>2016-12-30T15:47:30.008Z</time>
      </trkpt>
      <trkpt lat="45.01285" lon="2.99895">
        <ele>1135</ele>
        <time>2016-12-30T15:47:32.008Z</time>
      </trkpt>
      <trkpt lat="45.01288" lon="2.9991">
        <ele>1135</ele>
        <time>2016-12-30T15:47:34.008Z</time>
      </trkpt>
      <trkpt lat="45.0129" lon="2.99925">
        <ele>1135</ele>
        <time>2016-12-30T15:47:36.008Z</time>
      </trkpt>
      <trkpt lat="45.01293" lon="2.9994">
        <ele>1135</ele>
        <time>2016-12-30T15:47:38.008Z</time>
      </trkpt>
      <trkpt lat="45.01295" lon="2.99956">
        <ele>1133.2640094207</ele>
        <time>2016-12-30T15:47:40.008Z</time>
      </trkpt>
      <trkpt lat="45.01297" lon="2.99972">
        <ele>1133</ele>
        <time>2016-12-30T15:47:42.008Z</time>
      </trkpt>
      <trkpt lat="45.01299" lon="2.99988">
        <ele>1133</ele>
        <time>2016-12-30T15:47:44.008Z</time>
      </trkpt>
      <trkpt lat="45.01301" lon="3.00005">
        <ele>1133</ele>
        <time>2016-12-30T15:47:46.008Z</time>
      </trkpt>
      <trkpt lat="45.01304" lon="3.00021">
        <ele>1133</ele>
        <time>2016-12-30T15:47:48.008Z</time>
      </trkpt>
      <trkpt lat="45.01306" lon="3.00038">
        <ele>1133.8594041086</ele>
        <time>2016-12-30T15:47:50.008Z</time>
      </trkpt>
      <trkpt lat="45.01308" lon="3.00055">
        <ele>1134</ele>
        <time>2016-12-30T15:47:52.008Z</time>
      </trkpt>
      <trkpt lat="45.0131" lon="3.00071">
        <ele>1134</ele>
        <time>2016-12-30T15:47:54.008Z</time>
      </trkpt>
      <trkpt lat="45.01312" lon="3.00088">
        <ele>1134</ele>
        <time>2016-12-30T15:47:56.008Z</time>
      </trkpt>
      <trkpt lat="45.01314" lon="3.00104">
        <ele>1134</ele>
        <time>2016-12-30T15:47:58.008Z</time>
      </trkpt>
      <trkpt lat="45.01315" lon="3.00121">
        <ele>1134</ele>
        <time>2016-12-30T15:48:00.008Z</time>
      </trkpt>
      <trkpt lat="45.01315" lon="3.00137">
        <ele>1134</ele>
        <time>2016-12-30T15:48:02.008Z</time>
      </trkpt>
      <trkpt lat="45.01316" lon="3.00154">
        <ele>1134</ele>
        <time>2016-12-30T15:48:04.008Z</time>
      </trkpt>
      <trkpt lat="45.01316" lon="3.0017">
        <ele>1134</ele>
        <time>2016-12-30T15:48:06.008Z</time>
      </trkpt>
      <trkpt lat="45.01316" lon="3.00187">
        <ele>1134</ele>
        <time>2016-12-30T15:48:08.008Z</time>
      </trkpt>
      <trkpt lat="45.01315" lon="3.00203">
        <ele>1134</ele>
        <time>2016-12-30T15:48:10.008Z</time>
      </trkpt>
      <trkpt lat="45.01314" lon="3.00219">
        <ele>1134</ele>
        <time>2016-12-30T15:48:12.008Z</time>
      </trkpt>
      <trkpt lat="45.01314" lon="3.00234">
        <ele>1134</ele>
        <time>2016-12-30T15:48:14.008Z</time>
      </trkpt>
      <trkpt lat="45.01313" lon="3.0025">
        <ele>1134</ele>
        <time>2016-12-30T15:48:16.008Z</time>
      </trkpt>
      <trkpt lat="45.01312" lon="3.00264">
        <ele>1134</ele>
        <time>2016-12-30T15:48:18.008Z</time>
      </trkpt>
      <trkpt lat="45.01306" lon="3.00275">
        <ele>1134</ele>
        <time>2016-12-30T15:48:20.008Z</time>
      </trkpt>
      <trkpt lat="45.01303" lon="3.0028">
        <ele>1134</ele>
        <time>2016-12-30T15:48:21.008Z</time>
      </trkpt>
      <trkpt lat="45.01299" lon="3.00284">
        <ele>1134</ele>
        <time>2016-12-30T15:48:22.008Z</time>
      </trkpt>
      <trkpt lat="45.01295" lon="3.00289">
        <ele>1134</ele>
        <time>2016-12-30T15:48:23.008Z</time>
      </trkpt>
      <trkpt lat="45.01292" lon="3.00293">
        <ele>1134</ele>
        <time>2016-12-30T15:48:24.008Z</time>
      </trkpt>
      <trkpt lat="45.01288" lon="3.00297">
        <ele>1134</ele>
        <time>2016-12-30T15:48:25.008Z</time>
      </trkpt>
      <trkpt lat="45.01284" lon="3.00302">
        <ele>1134</ele>
        <time>2016-12-30T15:48:26.008Z</time>
      </trkpt>
      <trkpt lat="45.01281" lon="3.00306">
        <ele>1134</ele>
        <time>2016-12-30T15:48:27.008Z</time>
      </trkpt>
      <trkpt lat="45.01277" lon="3.0031">
        <ele>1134</ele>
        <time>2016-12-30T15:48:28.008Z</time>
      </trkpt>
      <trkpt lat="45.01273" lon="3.00314">
        <ele>1134</ele>
        <time>2016-12-30T15:48:29.008Z</time>
      </trkpt>
      <trkpt lat="45.01269" lon="3.00318">
        <ele>1134</ele>
        <time>2016-12-30T15:48:30.008Z</time>
      </trkpt>
      <trkpt lat="45.01264" lon="3.00322">
        <ele>1134</ele>
        <time>2016-12-30T15:48:31.008Z</time>
      </trkpt>
      <trkpt lat="45.0126" lon="3.00325">
        <ele>1134</ele>
        <time>2016-12-30T15:48:32.008Z</time>
      </trkpt>
      <trkpt lat="45.01255" lon="3.00328">
        <ele>1134</ele>
        <time>2016-12-30T15:48:33.008Z</time>
      </trkpt>
      <trkpt lat="45.01251" lon="3.00331">
        <ele>1134</ele>
        <time>2016-12-30T15:48:34.008Z</time>
      </trkpt>
      <trkpt lat="45.01242" lon="3.00338">
        <ele>1134</ele>
        <time>2016-12-30T15:48:36.008Z</time>
      </trkpt>
      <trkpt lat="45.01233" lon="3.00344">
        <ele>1134</ele>
        <time>2016-12-30T15:48:38.008Z</time>
      </trkpt>
      <trkpt lat="45.01224" lon="3.00349">
        <ele>1133.1320047103</ele>
        <time>2016-12-30T15:48:40.008Z</time>
      </trkpt>
      <trkpt lat="45.01214" lon="3.00355">
        <ele>1133</ele>
        <time>2016-12-30T15:48:42.008Z</time>
      </trkpt>
      <trkpt lat="45.01205" lon="3.00361">
        <ele>1133</ele>
        <time>2016-12-30T15:48:44.008Z</time>
      </trkpt>
      <trkpt lat="45.01201" lon="3.00365">
        <ele>1133</ele>
        <time>2016-12-30T15:48:45.008Z</time>
      </trkpt>
      <trkpt lat="45.01197" lon="3.00369">
        <ele>1133</ele>
        <time>2016-12-30T15:48:46.008Z</time>
      </trkpt>
      <trkpt lat="45.01194" lon="3.00373">
        <ele>1133</ele>
        <time>2016-12-30T15:48:47.008Z</time>
      </trkpt>
      <trkpt lat="45.0119" lon="3.00377">
        <ele>1133</ele>
        <time>2016-12-30T15:48:48.008Z</time>
      </trkpt>
      <trkpt lat="45.01186" lon="3.00382">
        <ele>1133</ele>
        <time>2016-12-30T15:48:49.008Z</time>
      </trkpt>
      <trkpt lat="45.01183" lon="3.00387">
        <ele>1132.1405958914</ele>
        <time>2016-12-30T15:48:50.008Z</time>
      </trkpt>
      <trkpt lat="45.01177" lon="3.00397">
        <ele>1132</ele>
        <time>2016-12-30T15:48:52.008Z</time>
      </trkpt>
      <trkpt lat="45.01174" lon="3.00402">
        <ele>1132</ele>
        <time>2016-12-30T15:48:53.008Z</time>
      </trkpt>
      <trkpt lat="45.01168" lon="3.00412">
        <ele>1132</ele>
        <time>2016-12-30T15:48:55.008Z</time>
      </trkpt>
      <trkpt lat="45.01165" lon="3.00417">
        <ele>1132</ele>
        <time>2016-12-30T15:48:56.008Z</time>
      </trkpt>
      <trkpt lat="45.01162" lon="3.00422">
        <ele>1132</ele>
        <time>2016-12-30T15:48:57.008Z</time>
      </trkpt>
      <trkpt lat="45.01156" lon="3.00432">
        <ele>1132</ele>
        <time>2016-12-30T15:48:59.008Z</time>
      </trkpt>
      <trkpt lat="45.0115" lon="3.00442">
        <ele>1131</ele>
        <time>2016-12-30T15:49:01.008Z</time>
      </trkpt>
      <trkpt lat="45.01147" lon="3.00447">
        <ele>1131</ele>
        <time>2016-12-30T15:49:02.008Z</time>
      </trkpt>
      <trkpt lat="45.01144" lon="3.00452">
        <ele>1131</ele>
        <time>2016-12-30T15:49:03.008Z</time>
      </trkpt>
      <trkpt lat="45.01141" lon="3.00457">
        <ele>1131</ele>
        <time>2016-12-30T15:49:04.008Z</time>
      </trkpt>
      <trkpt lat="45.01138" lon="3.00461">
        <ele>1131</ele>
        <time>2016-12-30T15:49:05.008Z</time>
      </trkpt>
      <trkpt lat="45.01135" lon="3.00465">
        <ele>1131</ele>
        <time>2016-12-30T15:49:06.008Z</time>
      </trkpt>
      <trkpt lat="45.01132" lon="3.0047">
        <ele>1131</ele>
        <time>2016-12-30T15:49:07.008Z</time>
      </trkpt>
      <trkpt lat="45.01129" lon="3.00474">
        <ele>1131</ele>
        <time>2016-12-30T15:49:08.008Z</time>
      </trkpt>
      <trkpt lat="45.01127" lon="3.00479">
        <ele>1131</ele>
        <time>2016-12-30T15:49:09.008Z</time>
      </trkpt>
      <trkpt lat="45.01124" lon="3.00484">
        <ele>1131.8679952897</ele>
        <time>2016-12-30T15:49:10.008Z</time>
      </trkpt>
      <trkpt lat="45.0112" lon="3.00495">
        <ele>1132</ele>
        <time>2016-12-30T15:49:12.008Z</time>
      </trkpt>
      <trkpt lat="45.01117" lon="3.005">
        <ele>1132</ele>
        <time>2016-12-30T15:49:13.008Z</time>
      </trkpt>
      <trkpt lat="45.01115" lon="3.00505">
        <ele>1132</ele>
        <time>2016-12-30T15:49:14.008Z</time>
      </trkpt>
      <trkpt lat="45.01112" lon="3.00511">
        <ele>1132</ele>
        <time>2016-12-30T15:49:15.008Z</time>
      </trkpt>
      <trkpt lat="45.0111" lon="3.00517">
        <ele>1132</ele>
        <time>2016-12-30T15:49:16.008Z</time>
      </trkpt>
      <trkpt lat="45.01107" lon="3.00522">
        <ele>1132</ele>
        <time>2016-12-30T15:49:17.008Z</time>
      </trkpt>
      <trkpt lat="45.01105" lon="3.00528">
        <ele>1132</ele>
        <time>2016-12-30T15:49:18.008Z</time>
      </trkpt>
      <trkpt lat="45.01102" lon="3.00533">
        <ele>1132</ele>
        <time>2016-12-30T15:49:19.008Z</time>
      </trkpt>
      <trkpt lat="45.01099" lon="3.00538">
        <ele>1132</ele>
        <time>2016-12-30T15:49:20.008Z</time>
      </trkpt>
      <trkpt lat="45.01097" lon="3.00544">
        <ele>1132</ele>
        <time>2016-12-30T15:49:21.008Z</time>
      </trkpt>
      <trkpt lat="45.01095" lon="3.0055">
        <ele>1132</ele>
        <time>2016-12-30T15:49:22.008Z</time>
      </trkpt>
      <trkpt lat="45.01091" lon="3.00561">
        <ele>1132</ele>
        <time>2016-12-30T15:49:24.008Z</time>
      </trkpt>
      <trkpt lat="45.01088" lon="3.00573">
        <ele>1132</ele>
        <time>2016-12-30T15:49:26.008Z</time>
      </trkpt>
      <trkpt lat="45.01085" lon="3.00585">
        <ele>1132</ele>
        <time>2016-12-30T15:49:28.008Z</time>
      </trkpt>
      <trkpt lat="45.01082" lon="3.00596">
        <ele>1131.1320047103</ele>
        <time>2016-12-30T15:49:30.008Z</time>
      </trkpt>
      <trkpt lat="45.01078" lon="3.00608">
        <ele>1131</ele>
        <time>2016-12-30T15:49:32.008Z</time>
      </trkpt>
      <trkpt lat="45.01075" lon="3.00619">
        <ele>1131</ele>
        <time>2016-12-30T15:49:34.008Z</time>
      </trkpt>
      <trkpt lat="45.01072" lon="3.0063">
        <ele>1131</ele>
        <time>2016-12-30T15:49:36.008Z</time>
      </trkpt>
      <trkpt lat="45.01068" lon="3.00641">
        <ele>1131</ele>
        <time>2016-12-30T15:49:38.008Z</time>
      </trkpt>
      <trkpt lat="45.01065" lon="3.00653">
        <ele>1130.1320047103</ele>
        <time>2016-12-30T15:49:40.008Z</time>
      </trkpt>
      <trkpt lat="45.01061" lon="3.00664">
        <ele>1130</ele>
        <time>2016-12-30T15:49:42.008Z</time>
      </trkpt>
      <trkpt lat="45.01059" lon="3.00669">
        <ele>1130</ele>
        <time>2016-12-30T15:49:43.008Z</time>
      </trkpt>
      <trkpt lat="45.01058" lon="3.00675">
        <ele>1130</ele>
        <time>2016-12-30T15:49:44.008Z</time>
      </trkpt>
      <trkpt lat="45.01057" lon="3.0068">
        <ele>1130</ele>
        <time>2016-12-30T15:49:45.008Z</time>
      </trkpt>
      <trkpt lat="45.01055" lon="3.00685">
        <ele>1130</ele>
        <time>2016-12-30T15:49:46.008Z</time>
      </trkpt>
      <trkpt lat="45.01054" lon="3.0069">
        <ele>1130</ele>
        <time>2016-12-30T15:49:47.008Z</time>
      </trkpt>
      <trkpt lat="45.01052" lon="3.00696">
        <ele>1130</ele>
        <time>2016-12-30T15:49:48.008Z</time>
      </trkpt>
      <trkpt lat="45.01051" lon="3.007">
        <ele>1130</ele>
        <time>2016-12-30T15:49:49.008Z</time>
      </trkpt>
      <trkpt lat="45.01054" lon="3.00713">
        <ele>1130</ele>
        <time>2016-12-30T15:49:52.008Z</time>
      </trkpt>
      <trkpt lat="45.01061" lon="3.00721">
        <ele>1130</ele>
        <time>2016-12-30T15:49:55.008Z</time>
      </trkpt>
      <trkpt lat="45.01067" lon="3.00731">
        <ele>1130</ele>
        <time>2016-12-30T15:49:58.008Z</time>
      </trkpt>
      <trkpt lat="45.01072" lon="3.00739">
        <ele>1130</ele>
        <time>2016-12-30T15:50:01.008Z</time>
      </trkpt>
      <trkpt lat="45.01078" lon="3.00749">
        <ele>1130</ele>
        <time>2016-12-30T15:50:05.008Z</time>
      </trkpt>
      <trkpt lat="45.01083" lon="3.00757">
        <ele>1130</ele>
        <time>2016-12-30T15:50:08.008Z</time>
      </trkpt>
      <trkpt lat="45.01088" lon="3.00765">
        <ele>1130</ele>
        <time>2016-12-30T15:50:11.008Z</time>
      </trkpt>
      <trkpt lat="45.01092" lon="3.00772">
        <ele>1130</ele>
        <time>2016-12-30T15:50:14.008Z</time>
      </trkpt>
      <trkpt lat="45.01097" lon="3.00782">
        <ele>1130</ele>
        <time>2016-12-30T15:50:18.008Z</time>
      </trkpt>
      <trkpt lat="45.01101" lon="3.0079">
        <ele>1130</ele>
        <time>2016-12-30T15:50:21.008Z</time>
      </trkpt>
      <trkpt lat="45.01107" lon="3.00799">
        <ele>1130</ele>
        <time>2016-12-30T15:50:24.008Z</time>
      </trkpt>
      <trkpt lat="45.01113" lon="3.00809">
        <ele>1130</ele>
        <time>2016-12-30T15:50:27.008Z</time>
      </trkpt>
      <trkpt lat="45.01119" lon="3.00818">
        <ele>1131.7359905793</ele>
        <time>2016-12-30T15:50:30.008Z</time>
      </trkpt>
      <trkpt lat="45.01126" lon="3.00827">
        <ele>1132</ele>
        <time>2016-12-30T15:50:33.008Z</time>
      </trkpt>
      <trkpt lat="45.0113" lon="3.00833">
        <ele>1132</ele>
        <time>2016-12-30T15:50:35.008Z</time>
      </trkpt>
      <trkpt lat="45.01137" lon="3.00841">
        <ele>1132</ele>
        <time>2016-12-30T15:50:38.008Z</time>
      </trkpt>
      <trkpt lat="45.01143" lon="3.00849">
        <ele>1133</ele>
        <time>2016-12-30T15:50:41.008Z</time>
      </trkpt>
      <trkpt lat="45.01149" lon="3.00858">
        <ele>1133</ele>
        <time>2016-12-30T15:50:44.008Z</time>
      </trkpt>
      <trkpt lat="45.01154" lon="3.00868">
        <ele>1133</ele>
        <time>2016-12-30T15:50:47.008Z</time>
      </trkpt>
      <trkpt lat="45.01158" lon="3.00878">
        <ele>1133</ele>
        <time>2016-12-30T15:50:50.008Z</time>
      </trkpt>
      <trkpt lat="45.01161" lon="3.00888">
        <ele>1133</ele>
        <time>2016-12-30T15:50:53.008Z</time>
      </trkpt>
      <trkpt lat="45.01162" lon="3.00896">
        <ele>1133</ele>
        <time>2016-12-30T15:50:55.008Z</time>
      </trkpt>
      <trkpt lat="45.01163" lon="3.00906">
        <ele>1133</ele>
        <time>2016-12-30T15:50:58.008Z</time>
      </trkpt>
      <trkpt lat="45.01168" lon="3.00918">
        <ele>1134</ele>
        <time>2016-12-30T15:51:02.008Z</time>
      </trkpt>
      <trkpt lat="45.01171" lon="3.00923">
        <ele>1134</ele>
        <time>2016-12-30T15:51:04.008Z</time>
      </trkpt>
      <trkpt lat="45.01175" lon="3.00932">
        <ele>1134</ele>
        <time>2016-12-30T15:51:07.008Z</time>
      </trkpt>
      <trkpt lat="45.0118" lon="3.00943">
        <ele>1134</ele>
        <time>2016-12-30T15:51:11.008Z</time>
      </trkpt>
      <trkpt lat="45.01187" lon="3.0095">
        <ele>1134</ele>
        <time>2016-12-30T15:51:15.008Z</time>
      </trkpt>
      <trkpt lat="45.01191" lon="3.0096">
        <ele>1134</ele>
        <time>2016-12-30T15:51:19.008Z</time>
      </trkpt>
      <trkpt lat="45.01195" lon="3.0097">
        <ele>1136</ele>
        <time>2016-12-30T15:51:23.008Z</time>
      </trkpt>
      <trkpt lat="45.01199" lon="3.00979">
        <ele>1136</ele>
        <time>2016-12-30T15:51:26.008Z</time>
      </trkpt>
      <trkpt lat="45.01204" lon="3.00987">
        <ele>1136</ele>
        <time>2016-12-30T15:51:29.008Z</time>
      </trkpt>
      <trkpt lat="45.01209" lon="3.00997">
        <ele>1137</ele>
        <time>2016-12-30T15:51:32.008Z</time>
      </trkpt>
      <trkpt lat="45.01214" lon="3.01007">
        <ele>1137</ele>
        <time>2016-12-30T15:51:35.008Z</time>
      </trkpt>
      <trkpt lat="45.01219" lon="3.01017">
        <ele>1137</ele>
        <time>2016-12-30T15:51:38.008Z</time>
      </trkpt>
      <trkpt lat="45.01225" lon="3.01026">
        <ele>1137</ele>
        <time>2016-12-30T15:51:41.008Z</time>
      </trkpt>
      <trkpt lat="45.01232" lon="3.01035">
        <ele>1137</ele>
        <time>2016-12-30T15:51:44.008Z</time>
      </trkpt>
      <trkpt lat="45.01238" lon="3.01044">
        <ele>1137</ele>
        <time>2016-12-30T15:51:47.008Z</time>
      </trkpt>
      <trkpt lat="45.01245" lon="3.01054">
        <ele>1137</ele>
        <time>2016-12-30T15:51:50.008Z</time>
      </trkpt>
      <trkpt lat="45.01251" lon="3.01063">
        <ele>1137</ele>
        <time>2016-12-30T15:51:53.008Z</time>
      </trkpt>
      <trkpt lat="45.01258" lon="3.01072">
        <ele>1137</ele>
        <time>2016-12-30T15:51:56.008Z</time>
      </trkpt>
      <trkpt lat="45.01265" lon="3.01081">
        <ele>1137</ele>
        <time>2016-12-30T15:51:59.008Z</time>
      </trkpt>
      <trkpt lat="45.01272" lon="3.0109">
        <ele>1137</ele>
        <time>2016-12-30T15:52:02.008Z</time>
      </trkpt>
      <trkpt lat="45.01276" lon="3.01098">
        <ele>1137</ele>
        <time>2016-12-30T15:52:04.008Z</time>
      </trkpt>
      <trkpt lat="45.01281" lon="3.01104">
        <ele>1137</ele>
        <time>2016-12-30T15:52:06.008Z</time>
      </trkpt>
      <trkpt lat="45.01286" lon="3.0111">
        <ele>1137</ele>
        <time>2016-12-30T15:52:08.008Z</time>
      </trkpt>
      <trkpt lat="45.01292" lon="3.01115">
        <ele>1137</ele>
        <time>2016-12-30T15:52:10.008Z</time>
      </trkpt>
      <trkpt lat="45.01297" lon="3.01122">
        <ele>1137</ele>
        <time>2016-12-30T15:52:12.008Z</time>
      </trkpt>
      <trkpt lat="45.01301" lon="3.01129">
        <ele>1137</ele>
        <time>2016-12-30T15:52:14.008Z</time>
      </trkpt>
      <trkpt lat="45.01305" lon="3.01137">
        <ele>1137</ele>
        <time>2016-12-30T15:52:16.008Z</time>
      </trkpt>
      <trkpt lat="45.01309" lon="3.01145">
        <ele>1137</ele>
        <time>2016-12-30T15:52:18.008Z</time>
      </trkpt>
      <trkpt lat="45.01313" lon="3.01153">
        <ele>1137</ele>
        <time>2016-12-30T15:52:20.008Z</time>
      </trkpt>
      <trkpt lat="45.01319" lon="3.01165">
        <ele>1137</ele>
        <time>2016-12-30T15:52:23.008Z</time>
      </trkpt>
      <trkpt lat="45.01325" lon="3.01176">
        <ele>1137</ele>
        <time>2016-12-30T15:52:26.008Z</time>
      </trkpt>
      <trkpt lat="45.01331" lon="3.01187">
        <ele>1137</ele>
        <time>2016-12-30T15:52:29.008Z</time>
      </trkpt>
      <trkpt lat="45.01337" lon="3.01198">
        <ele>1138</ele>
        <time>2016-12-30T15:52:32.008Z</time>
      </trkpt>
      <trkpt lat="45.01343" lon="3.0121">
        <ele>1138</ele>
        <time>2016-12-30T15:52:35.008Z</time>
      </trkpt>
      <trkpt lat="45.01348" lon="3.01221">
        <ele>1138</ele>
        <time>2016-12-30T15:52:38.008Z</time>
      </trkpt>
      <trkpt lat="45.01355" lon="3.01232">
        <ele>1138</ele>
        <time>2016-12-30T15:52:41.008Z</time>
      </trkpt>
      <trkpt lat="45.01361" lon="3.01242">
        <ele>1138</ele>
        <time>2016-12-30T15:52:44.008Z</time>
      </trkpt>
      <trkpt lat="45.01369" lon="3.01252">
        <ele>1138</ele>
        <time>2016-12-30T15:52:47.008Z</time>
      </trkpt>
      <trkpt lat="45.01373" lon="3.01259">
        <ele>1138</ele>
        <time>2016-12-30T15:52:49.008Z</time>
      </trkpt>
      <trkpt lat="45.01377" lon="3.01267">
        <ele>1139</ele>
        <time>2016-12-30T15:52:51.008Z</time>
      </trkpt>
      <trkpt lat="45.0138" lon="3.01276">
        <ele>1139</ele>
        <time>2016-12-30T15:52:53.008Z</time>
      </trkpt>
      <trkpt lat="45.01383" lon="3.01288">
        <ele>1139</ele>
        <time>2016-12-30T15:52:56.008Z</time>
      </trkpt>
      <trkpt lat="45.01389" lon="3.013">
        <ele>1139</ele>
        <time>2016-12-30T15:52:59.008Z</time>
      </trkpt>
      <trkpt lat="45.01394" lon="3.01312">
        <ele>1138</ele>
        <time>2016-12-30T15:53:02.008Z</time>
      </trkpt>
      <trkpt lat="45.01396" lon="3.0132">
        <ele>1138</ele>
        <time>2016-12-30T15:53:04.008Z</time>
      </trkpt>
      <trkpt lat="45.01398" lon="3.01327">
        <ele>1138</ele>
        <time>2016-12-30T15:53:06.008Z</time>
      </trkpt>
      <trkpt lat="45.01402" lon="3.0134">
        <ele>1138</ele>
        <time>2016-12-30T15:53:09.008Z</time>
      </trkpt>
      <trkpt lat="45.01405" lon="3.01353">
        <ele>1138</ele>
        <time>2016-12-30T15:53:12.008Z</time>
      </trkpt>
      <trkpt lat="45.01409" lon="3.01367">
        <ele>1138</ele>
        <time>2016-12-30T15:53:15.008Z</time>
      </trkpt>
      <trkpt lat="45.01413" lon="3.0138">
        <ele>1138</ele>
        <time>2016-12-30T15:53:18.008Z</time>
      </trkpt>
      <trkpt lat="45.01418" lon="3.01392">
        <ele>1139</ele>
        <time>2016-12-30T15:53:21.008Z</time>
      </trkpt>
      <trkpt lat="45.01421" lon="3.014">
        <ele>1139</ele>
        <time>2016-12-30T15:53:23.008Z</time>
      </trkpt>
      <trkpt lat="45.01427" lon="3.01413">
        <ele>1139</ele>
        <time>2016-12-30T15:53:26.008Z</time>
      </trkpt>
      <trkpt lat="45.01433" lon="3.01426">
        <ele>1139</ele>
        <time>2016-12-30T15:53:29.008Z</time>
      </trkpt>
      <trkpt lat="45.01437" lon="3.01436">
        <ele>1138</ele>
        <time>2016-12-30T15:53:31.008Z</time>
      </trkpt>
      <trkpt lat="45.01442" lon="3.01448">
        <ele>1138</ele>
        <time>2016-12-30T15:53:33.008Z</time>
      </trkpt>
      <trkpt lat="45.01447" lon="3.01461">
        <ele>1138</ele>
        <time>2016-12-30T15:53:35.008Z</time>
      </trkpt>
      <trkpt lat="45.01452" lon="3.01474">
        <ele>1138</ele>
        <time>2016-12-30T15:53:37.008Z</time>
      </trkpt>
      <trkpt lat="45.01456" lon="3.01488">
        <ele>1138</ele>
        <time>2016-12-30T15:53:39.008Z</time>
      </trkpt>
      <trkpt lat="45.01461" lon="3.01502">
        <ele>1137</ele>
        <time>2016-12-30T15:53:41.008Z</time>
      </trkpt>
      <trkpt lat="45.01464" lon="3.01517">
        <ele>1137</ele>
        <time>2016-12-30T15:53:43.008Z</time>
      </trkpt>
      <trkpt lat="45.01466" lon="3.01524">
        <ele>1137</ele>
        <time>2016-12-30T15:53:44.008Z</time>
      </trkpt>
      <trkpt lat="45.01468" lon="3.01532">
        <ele>1137</ele>
        <time>2016-12-30T15:53:45.008Z</time>
      </trkpt>
      <trkpt lat="45.01471" lon="3.01546">
        <ele>1137</ele>
        <time>2016-12-30T15:53:47.008Z</time>
      </trkpt>
      <trkpt lat="45.01474" lon="3.0156">
        <ele>1137</ele>
        <time>2016-12-30T15:53:49.008Z</time>
      </trkpt>
      <trkpt lat="45.01477" lon="3.01575">
        <ele>1136</ele>
        <time>2016-12-30T15:53:51.008Z</time>
      </trkpt>
      <trkpt lat="45.01478" lon="3.0159">
        <ele>1136</ele>
        <time>2016-12-30T15:53:53.008Z</time>
      </trkpt>
      <trkpt lat="45.01473" lon="3.01603">
        <ele>1136</ele>
        <time>2016-12-30T15:53:55.008Z</time>
      </trkpt>
      <trkpt lat="45.01469" lon="3.01608">
        <ele>1136</ele>
        <time>2016-12-30T15:53:56.008Z</time>
      </trkpt>
      <trkpt lat="45.01467" lon="3.01614">
        <ele>1136</ele>
        <time>2016-12-30T15:53:57.008Z</time>
      </trkpt>
      <trkpt lat="45.01466" lon="3.01628">
        <ele>1136</ele>
        <time>2016-12-30T15:53:59.008Z</time>
      </trkpt>
      <trkpt lat="45.0147" lon="3.01641">
        <ele>1133</ele>
        <time>2016-12-30T15:54:01.008Z</time>
      </trkpt>
      <trkpt lat="45.01474" lon="3.01655">
        <ele>1133</ele>
        <time>2016-12-30T15:54:03.008Z</time>
      </trkpt>
      <trkpt lat="45.01479" lon="3.01669">
        <ele>1133</ele>
        <time>2016-12-30T15:54:05.008Z</time>
      </trkpt>
      <trkpt lat="45.01486" lon="3.01683">
        <ele>1133</ele>
        <time>2016-12-30T15:54:07.008Z</time>
      </trkpt>
      <trkpt lat="45.01495" lon="3.01694">
        <ele>1133</ele>
        <time>2016-12-30T15:54:09.008Z</time>
      </trkpt>
      <trkpt lat="45.01505" lon="3.01704">
        <ele>1133</ele>
        <time>2016-12-30T15:54:11.008Z</time>
      </trkpt>
      <trkpt lat="45.01514" lon="3.01716">
        <ele>1133</ele>
        <time>2016-12-30T15:54:13.008Z</time>
      </trkpt>
      <trkpt lat="45.01522" lon="3.01728">
        <ele>1133</ele>
        <time>2016-12-30T15:54:15.008Z</time>
      </trkpt>
      <trkpt lat="45.01531" lon="3.0174">
        <ele>1133</ele>
        <time>2016-12-30T15:54:17.008Z</time>
      </trkpt>
      <trkpt lat="45.01535" lon="3.01746">
        <ele>1133</ele>
        <time>2016-12-30T15:54:18.008Z</time>
      </trkpt>
      <trkpt lat="45.01538" lon="3.01753">
        <ele>1133</ele>
        <time>2016-12-30T15:54:19.008Z</time>
      </trkpt>
      <trkpt lat="45.01542" lon="3.01759">
        <ele>1130.4260096</ele>
        <time>2016-12-30T15:54:20.008Z</time>
      </trkpt>
      <trkpt lat="45.01546" lon="3.01765">
        <ele>1130</ele>
        <time>2016-12-30T15:54:21.008Z</time>
      </trkpt>
      <trkpt lat="45.0155" lon="3.01771">
        <ele>1130</ele>
        <time>2016-12-30T15:54:22.008Z</time>
      </trkpt>
      <trkpt lat="45.01555" lon="3.01777">
        <ele>1130</ele>
        <time>2016-12-30T15:54:23.008Z</time>
      </trkpt>
      <trkpt lat="45.01559" lon="3.01783">
        <ele>1130</ele>
        <time>2016-12-30T15:54:24.008Z</time>
      </trkpt>
      <trkpt lat="45.01569" lon="3.01794">
        <ele>1129</ele>
        <time>2016-12-30T15:54:26.008Z</time>
      </trkpt>
      <trkpt lat="45.01573" lon="3.01801">
        <ele>1129</ele>
        <time>2016-12-30T15:54:27.008Z</time>
      </trkpt>
      <trkpt lat="45.01581" lon="3.01813">
        <ele>1129</ele>
        <time>2016-12-30T15:54:29.008Z</time>
      </trkpt>
      <trkpt lat="45.01588" lon="3.01823">
        <ele>1130</ele>
        <time>2016-12-30T15:54:31.008Z</time>
      </trkpt>
      <trkpt lat="45.01593" lon="3.01833">
        <ele>1130</ele>
        <time>2016-12-30T15:54:33.008Z</time>
      </trkpt>
      <trkpt lat="45.01596" lon="3.01845">
        <ele>1130</ele>
        <time>2016-12-30T15:54:35.008Z</time>
      </trkpt>
      <trkpt lat="45.01598" lon="3.01857">
        <ele>1130</ele>
        <time>2016-12-30T15:54:37.008Z</time>
      </trkpt>
      <trkpt lat="45.01599" lon="3.01862">
        <ele>1130</ele>
        <time>2016-12-30T15:54:38.008Z</time>
      </trkpt>
      <trkpt lat="45.016" lon="3.01868">
        <ele>1130</ele>
        <time>2016-12-30T15:54:39.008Z</time>
      </trkpt>
      <trkpt lat="45.01601" lon="3.01874">
        <ele>1130</ele>
        <time>2016-12-30T15:54:40.008Z</time>
      </trkpt>
      <trkpt lat="45.01603" lon="3.01879">
        <ele>1130</ele>
        <time>2016-12-30T15:54:41.008Z</time>
      </trkpt>
      <trkpt lat="45.01604" lon="3.01885">
        <ele>1130</ele>
        <time>2016-12-30T15:54:42.008Z</time>
      </trkpt>
      <trkpt lat="45.01608" lon="3.01895">
        <ele>1130</ele>
        <time>2016-12-30T15:54:44.008Z</time>
      </trkpt>
      <trkpt lat="45.01612" lon="3.01904">
        <ele>1130</ele>
        <time>2016-12-30T15:54:46.008Z</time>
      </trkpt>
      <trkpt lat="45.01617" lon="3.01914">
        <ele>1130</ele>
        <time>2016-12-30T15:54:49.008Z</time>
      </trkpt>
      <trkpt lat="45.0162" lon="3.01924">
        <ele>1131</ele>
        <time>2016-12-30T15:54:52.008Z</time>
      </trkpt>
      <trkpt lat="45.01624" lon="3.01936">
        <ele>1131</ele>
        <time>2016-12-30T15:54:55.008Z</time>
      </trkpt>
      <trkpt lat="45.01625" lon="3.01945">
        <ele>1131</ele>
        <time>2016-12-30T15:54:57.008Z</time>
      </trkpt>
      <trkpt lat="45.01626" lon="3.01955">
        <ele>1131</ele>
        <time>2016-12-30T15:54:59.008Z</time>
      </trkpt>
      <trkpt lat="45.01625" lon="3.01964">
        <ele>1131</ele>
        <time>2016-12-30T15:55:01.008Z</time>
      </trkpt>
      <trkpt lat="45.01624" lon="3.01972">
        <ele>1131</ele>
        <time>2016-12-30T15:55:03.008Z</time>
      </trkpt>
      <trkpt lat="45.01622" lon="3.0198">
        <ele>1131</ele>
        <time>2016-12-30T15:55:05.008Z</time>
      </trkpt>
      <trkpt lat="45.01619" lon="3.01992">
        <ele>1131</ele>
        <time>2016-12-30T15:55:08.008Z</time>
      </trkpt>
      <trkpt lat="45.01617" lon="3.02001">
        <ele>1131.8679952897</ele>
        <time>2016-12-30T15:55:10.008Z</time>
      </trkpt>
      <trkpt lat="45.01617" lon="3.02006">
        <ele>1132</ele>
        <time>2016-12-30T15:55:11.008Z</time>
      </trkpt>
      <trkpt lat="45.01615" lon="3.02014">
        <ele>1132</ele>
        <time>2016-12-30T15:55:13.008Z</time>
      </trkpt>
      <trkpt lat="45.01614" lon="3.02019">
        <ele>1132</ele>
        <time>2016-12-30T15:55:14.008Z</time>
      </trkpt>
      <trkpt lat="45.01613" lon="3.02027">
        <ele>1132</ele>
        <time>2016-12-30T15:55:16.008Z</time>
      </trkpt>
      <trkpt lat="45.01612" lon="3.02034">
        <ele>1132</ele>
        <time>2016-12-30T15:55:18.008Z</time>
      </trkpt>
      <trkpt lat="45.01611" lon="3.02047">
        <ele>1133</ele>
        <time>2016-12-30T15:55:21.008Z</time>
      </trkpt>
      <trkpt lat="45.01609" lon="3.02057">
        <ele>1133</ele>
        <time>2016-12-30T15:55:23.008Z</time>
      </trkpt>
      <trkpt lat="45.01608" lon="3.02067">
        <ele>1133</ele>
        <time>2016-12-30T15:55:25.008Z</time>
      </trkpt>
      <trkpt lat="45.01608" lon="3.02073">
        <ele>1133</ele>
        <time>2016-12-30T15:55:26.008Z</time>
      </trkpt>
      <trkpt lat="45.01607" lon="3.02078">
        <ele>1133</ele>
        <time>2016-12-30T15:55:27.008Z</time>
      </trkpt>
      <trkpt lat="45.01607" lon="3.02084">
        <ele>1133</ele>
        <time>2016-12-30T15:55:28.008Z</time>
      </trkpt>
      <trkpt lat="45.01607" lon="3.02096">
        <ele>1133.8679952897</ele>
        <time>2016-12-30T15:55:30.008Z</time>
      </trkpt>
      <trkpt lat="45.01606" lon="3.02108">
        <ele>1134</ele>
        <time>2016-12-30T15:55:32.008Z</time>
      </trkpt>
      <trkpt lat="45.01606" lon="3.02114">
        <ele>1134</ele>
        <time>2016-12-30T15:55:33.008Z</time>
      </trkpt>
      <trkpt lat="45.01606" lon="3.0212">
        <ele>1134</ele>
        <time>2016-12-30T15:55:34.008Z</time>
      </trkpt>
      <trkpt lat="45.01606" lon="3.02126">
        <ele>1134</ele>
        <time>2016-12-30T15:55:35.008Z</time>
      </trkpt>
      <trkpt lat="45.01606" lon="3.02139">
        <ele>1134</ele>
        <time>2016-12-30T15:55:37.008Z</time>
      </trkpt>
      <trkpt lat="45.01606" lon="3.02151">
        <ele>1134</ele>
        <time>2016-12-30T15:55:39.008Z</time>
      </trkpt>
      <trkpt lat="45.01606" lon="3.02164">
        <ele>1134</ele>
        <time>2016-12-30T15:55:41.008Z</time>
      </trkpt>
      <trkpt lat="45.01606" lon="3.0217">
        <ele>1134</ele>
        <time>2016-12-30T15:55:42.008Z</time>
      </trkpt>
      <trkpt lat="45.01606" lon="3.02176">
        <ele>1134</ele>
        <time>2016-12-30T15:55:43.008Z</time>
      </trkpt>
      <trkpt lat="45.01606" lon="3.02182">
        <ele>1134</ele>
        <time>2016-12-30T15:55:44.008Z</time>
      </trkpt>
      <trkpt lat="45.01606" lon="3.02188">
        <ele>1134</ele>
        <time>2016-12-30T15:55:45.008Z</time>
      </trkpt>
      <trkpt lat="45.01606" lon="3.022">
        <ele>1134</ele>
        <time>2016-12-30T15:55:47.008Z</time>
      </trkpt>
      <trkpt lat="45.01607" lon="3.02212">
        <ele>1134</ele>
        <time>2016-12-30T15:55:49.008Z</time>
      </trkpt>
      <trkpt lat="45.01608" lon="3.02224">
        <ele>1136</ele>
        <time>2016-12-30T15:55:51.008Z</time>
      </trkpt>
      <trkpt lat="45.01609" lon="3.02229">
        <ele>1136</ele>
        <time>2016-12-30T15:55:52.008Z</time>
      </trkpt>
      <trkpt lat="45.0161" lon="3.02235">
        <ele>1136</ele>
        <time>2016-12-30T15:55:53.008Z</time>
      </trkpt>
      <trkpt lat="45.01611" lon="3.02248">
        <ele>1136</ele>
        <time>2016-12-30T15:55:55.008Z</time>
      </trkpt>
      <trkpt lat="45.01611" lon="3.0226">
        <ele>1136</ele>
        <time>2016-12-30T15:55:57.008Z</time>
      </trkpt>
      <trkpt lat="45.01611" lon="3.02271">
        <ele>1136</ele>
        <time>2016-12-30T15:55:59.008Z</time>
      </trkpt>
      <trkpt lat="45.01611" lon="3.02283">
        <ele>1137</ele>
        <time>2016-12-30T15:56:01.008Z</time>
      </trkpt>
      <trkpt lat="45.0161" lon="3.02295">
        <ele>1137</ele>
        <time>2016-12-30T15:56:03.008Z</time>
      </trkpt>
      <trkpt lat="45.01609" lon="3.02306">
        <ele>1137</ele>
        <time>2016-12-30T15:56:05.008Z</time>
      </trkpt>
      <trkpt lat="45.01607" lon="3.02317">
        <ele>1137</ele>
        <time>2016-12-30T15:56:07.008Z</time>
      </trkpt>
      <trkpt lat="45.01605" lon="3.02328">
        <ele>1137</ele>
        <time>2016-12-30T15:56:09.008Z</time>
      </trkpt>
      <trkpt lat="45.01604" lon="3.02334">
        <ele>1137</ele>
        <time>2016-12-30T15:56:10.008Z</time>
      </trkpt>
      <trkpt lat="45.01603" lon="3.02339">
        <ele>1137</ele>
        <time>2016-12-30T15:56:11.008Z</time>
      </trkpt>
      <trkpt lat="45.01601" lon="3.0235">
        <ele>1137</ele>
        <time>2016-12-30T15:56:13.008Z</time>
      </trkpt>
      <trkpt lat="45.016" lon="3.02355">
        <ele>1137</ele>
        <time>2016-12-30T15:56:14.008Z</time>
      </trkpt>
      <trkpt lat="45.01599" lon="3.02366">
        <ele>1137</ele>
        <time>2016-12-30T15:56:16.008Z</time>
      </trkpt>
      <trkpt lat="45.01597" lon="3.02377">
        <ele>1137</ele>
        <time>2016-12-30T15:56:18.008Z</time>
      </trkpt>
      <trkpt lat="45.01596" lon="3.02388">
        <ele>1137.8594041086</ele>
        <time>2016-12-30T15:56:20.008Z</time>
      </trkpt>
      <trkpt lat="45.01595" lon="3.024">
        <ele>1138</ele>
        <time>2016-12-30T15:56:22.008Z</time>
      </trkpt>
      <trkpt lat="45.01594" lon="3.02412">
        <ele>1138</ele>
        <time>2016-12-30T15:56:24.008Z</time>
      </trkpt>
      <trkpt lat="45.01594" lon="3.02417">
        <ele>1138</ele>
        <time>2016-12-30T15:56:25.008Z</time>
      </trkpt>
      <trkpt lat="45.01594" lon="3.02423">
        <ele>1138</ele>
        <time>2016-12-30T15:56:26.008Z</time>
      </trkpt>
      <trkpt lat="45.01593" lon="3.02429">
        <ele>1138</ele>
        <time>2016-12-30T15:56:27.008Z</time>
      </trkpt>
      <trkpt lat="45.01593" lon="3.02434">
        <ele>1138</ele>
        <time>2016-12-30T15:56:28.008Z</time>
      </trkpt>
      <trkpt lat="45.01593" lon="3.0244">
        <ele>1138</ele>
        <time>2016-12-30T15:56:29.008Z</time>
      </trkpt>
      <trkpt lat="45.01593" lon="3.02446">
        <ele>1139.7359905793</ele>
        <time>2016-12-30T15:56:30.008Z</time>
      </trkpt>
      <trkpt lat="45.01594" lon="3.02457">
        <ele>1140</ele>
        <time>2016-12-30T15:56:32.008Z</time>
      </trkpt>
      <trkpt lat="45.01594" lon="3.02463">
        <ele>1140</ele>
        <time>2016-12-30T15:56:33.008Z</time>
      </trkpt>
      <trkpt lat="45.01594" lon="3.02474">
        <ele>1140</ele>
        <time>2016-12-30T15:56:35.008Z</time>
      </trkpt>
      <trkpt lat="45.01595" lon="3.02485">
        <ele>1140</ele>
        <time>2016-12-30T15:56:37.008Z</time>
      </trkpt>
      <trkpt lat="45.01597" lon="3.02496">
        <ele>1140</ele>
        <time>2016-12-30T15:56:39.008Z</time>
      </trkpt>
      <trkpt lat="45.01599" lon="3.02508">
        <ele>1140</ele>
        <time>2016-12-30T15:56:41.008Z</time>
      </trkpt>
      <trkpt lat="45.016" lon="3.02519">
        <ele>1140</ele>
        <time>2016-12-30T15:56:43.008Z</time>
      </trkpt>
      <trkpt lat="45.01602" lon="3.02524">
        <ele>1140</ele>
        <time>2016-12-30T15:56:44.008Z</time>
      </trkpt>
      <trkpt lat="45.01603" lon="3.0253">
        <ele>1140</ele>
        <time>2016-12-30T15:56:45.008Z</time>
      </trkpt>
      <trkpt lat="45.01604" lon="3.02535">
        <ele>1140</ele>
        <time>2016-12-30T15:56:46.008Z</time>
      </trkpt>
      <trkpt lat="45.01605" lon="3.0254">
        <ele>1140</ele>
        <time>2016-12-30T15:56:47.008Z</time>
      </trkpt>
      <trkpt lat="45.01608" lon="3.02551">
        <ele>1140</ele>
        <time>2016-12-30T15:56:49.008Z</time>
      </trkpt>
      <trkpt lat="45.01612" lon="3.02562">
        <ele>1142</ele>
        <time>2016-12-30T15:56:51.008Z</time>
      </trkpt>
      <trkpt lat="45.01614" lon="3.02573">
        <ele>1142</ele>
        <time>2016-12-30T15:56:53.008Z</time>
      </trkpt>
      <trkpt lat="45.01617" lon="3.02584">
        <ele>1142</ele>
        <time>2016-12-30T15:56:55.008Z</time>
      </trkpt>
      <trkpt lat="45.01618" lon="3.02597">
        <ele>1142</ele>
        <time>2016-12-30T15:56:57.008Z</time>
      </trkpt>
      <trkpt lat="45.01618" lon="3.02609">
        <ele>1142</ele>
        <time>2016-12-30T15:56:59.008Z</time>
      </trkpt>
      <trkpt lat="45.01617" lon="3.02622">
        <ele>1142</ele>
        <time>2016-12-30T15:57:01.008Z</time>
      </trkpt>
      <trkpt lat="45.01614" lon="3.02634">
        <ele>1142</ele>
        <time>2016-12-30T15:57:03.008Z</time>
      </trkpt>
      <trkpt lat="45.01611" lon="3.02646">
        <ele>1142</ele>
        <time>2016-12-30T15:57:05.008Z</time>
      </trkpt>
      <trkpt lat="45.01608" lon="3.02658">
        <ele>1142</ele>
        <time>2016-12-30T15:57:07.008Z</time>
      </trkpt>
      <trkpt lat="45.01605" lon="3.0267">
        <ele>1142</ele>
        <time>2016-12-30T15:57:09.008Z</time>
      </trkpt>
      <trkpt lat="45.01602" lon="3.02682">
        <ele>1143</ele>
        <time>2016-12-30T15:57:11.008Z</time>
      </trkpt>
      <trkpt lat="45.01598" lon="3.02695">
        <ele>1143</ele>
        <time>2016-12-30T15:57:13.008Z</time>
      </trkpt>
      <trkpt lat="45.01594" lon="3.02707">
        <ele>1143</ele>
        <time>2016-12-30T15:57:15.008Z</time>
      </trkpt>
      <trkpt lat="45.01591" lon="3.0272">
        <ele>1143</ele>
        <time>2016-12-30T15:57:17.008Z</time>
      </trkpt>
      <trkpt lat="45.01588" lon="3.02734">
        <ele>1143</ele>
        <time>2016-12-30T15:57:19.008Z</time>
      </trkpt>
      <trkpt lat="45.01585" lon="3.02747">
        <ele>1144</ele>
        <time>2016-12-30T15:57:21.008Z</time>
      </trkpt>
      <trkpt lat="45.01582" lon="3.0276">
        <ele>1144</ele>
        <time>2016-12-30T15:57:23.008Z</time>
      </trkpt>
      <trkpt lat="45.01579" lon="3.02774">
        <ele>1144</ele>
        <time>2016-12-30T15:57:25.008Z</time>
      </trkpt>
      <trkpt lat="45.01576" lon="3.02787">
        <ele>1144</ele>
        <time>2016-12-30T15:57:27.008Z</time>
      </trkpt>
      <trkpt lat="45.01574" lon="3.02799">
        <ele>1144</ele>
        <time>2016-12-30T15:57:29.008Z</time>
      </trkpt>
      <trkpt lat="45.01572" lon="3.02812">
        <ele>1144</ele>
        <time>2016-12-30T15:57:31.008Z</time>
      </trkpt>
      <trkpt lat="45.01569" lon="3.02824">
        <ele>1144</ele>
        <time>2016-12-30T15:57:33.008Z</time>
      </trkpt>
      <trkpt lat="45.01566" lon="3.02837">
        <ele>1144</ele>
        <time>2016-12-30T15:57:35.008Z</time>
      </trkpt>
      <trkpt lat="45.01564" lon="3.02849">
        <ele>1144</ele>
        <time>2016-12-30T15:57:37.008Z</time>
      </trkpt>
      <trkpt lat="45.01562" lon="3.02861">
        <ele>1144</ele>
        <time>2016-12-30T15:57:39.008Z</time>
      </trkpt>
      <trkpt lat="45.01559" lon="3.02873">
        <ele>1144</ele>
        <time>2016-12-30T15:57:41.008Z</time>
      </trkpt>
      <trkpt lat="45.01557" lon="3.02886">
        <ele>1144</ele>
        <time>2016-12-30T15:57:43.008Z</time>
      </trkpt>
      <trkpt lat="45.01555" lon="3.02899">
        <ele>1144</ele>
        <time>2016-12-30T15:57:45.008Z</time>
      </trkpt>
      <trkpt lat="45.01553" lon="3.02914">
        <ele>1144</ele>
        <time>2016-12-30T15:57:47.008Z</time>
      </trkpt>
      <trkpt lat="45.01551" lon="3.02928">
        <ele>1144</ele>
        <time>2016-12-30T15:57:49.008Z</time>
      </trkpt>
      <trkpt lat="45.0155" lon="3.02942">
        <ele>1144</ele>
        <time>2016-12-30T15:57:51.008Z</time>
      </trkpt>
      <trkpt lat="45.0155" lon="3.02957">
        <ele>1144</ele>
        <time>2016-12-30T15:57:53.008Z</time>
      </trkpt>
      <trkpt lat="45.01549" lon="3.02971">
        <ele>1144</ele>
        <time>2016-12-30T15:57:55.008Z</time>
      </trkpt>
      <trkpt lat="45.01548" lon="3.02986">
        <ele>1144</ele>
        <time>2016-12-30T15:57:57.008Z</time>
      </trkpt>
      <trkpt lat="45.01547" lon="3.03">
        <ele>1144</ele>
        <time>2016-12-30T15:57:59.008Z</time>
      </trkpt>
      <trkpt lat="45.01546" lon="3.03014">
        <ele>1144</ele>
        <time>2016-12-30T15:58:01.008Z</time>
      </trkpt>
      <trkpt lat="45.01546" lon="3.03029">
        <ele>1144</ele>
        <time>2016-12-30T15:58:03.008Z</time>
      </trkpt>
      <trkpt lat="45.01544" lon="3.03044">
        <ele>1144</ele>
        <time>2016-12-30T15:58:05.008Z</time>
      </trkpt>
      <trkpt lat="45.01543" lon="3.03059">
        <ele>1144</ele>
        <time>2016-12-30T15:58:07.008Z</time>
      </trkpt>
      <trkpt lat="45.01543" lon="3.03067">
        <ele>1144</ele>
        <time>2016-12-30T15:58:08.008Z</time>
      </trkpt>
      <trkpt lat="45.01542" lon="3.03074">
        <ele>1144</ele>
        <time>2016-12-30T15:58:09.008Z</time>
      </trkpt>
      <trkpt lat="45.01542" lon="3.03082">
        <ele>1144</ele>
        <time>2016-12-30T15:58:10.008Z</time>
      </trkpt>
      <trkpt lat="45.01542" lon="3.0309">
        <ele>1144</ele>
        <time>2016-12-30T15:58:11.008Z</time>
      </trkpt>
      <trkpt lat="45.01541" lon="3.03097">
        <ele>1144</ele>
        <time>2016-12-30T15:58:12.008Z</time>
      </trkpt>
      <trkpt lat="45.01542" lon="3.03105">
        <ele>1144</ele>
        <time>2016-12-30T15:58:13.008Z</time>
      </trkpt>
      <trkpt lat="45.01542" lon="3.03112">
        <ele>1144</ele>
        <time>2016-12-30T15:58:14.008Z</time>
      </trkpt>
      <trkpt lat="45.01542" lon="3.0312">
        <ele>1144</ele>
        <time>2016-12-30T15:58:15.008Z</time>
      </trkpt>
      <trkpt lat="45.01543" lon="3.03134">
        <ele>1144</ele>
        <time>2016-12-30T15:58:17.008Z</time>
      </trkpt>
      <trkpt lat="45.01545" lon="3.03148">
        <ele>1144</ele>
        <time>2016-12-30T15:58:19.008Z</time>
      </trkpt>
      <trkpt lat="45.01545" lon="3.03155">
        <ele>1143.1405958914</ele>
        <time>2016-12-30T15:58:20.008Z</time>
      </trkpt>
      <trkpt lat="45.01547" lon="3.03167">
        <ele>1143</ele>
        <time>2016-12-30T15:58:22.008Z</time>
      </trkpt>
      <trkpt lat="45.01546" lon="3.0318">
        <ele>1143</ele>
        <time>2016-12-30T15:58:24.008Z</time>
      </trkpt>
      <trkpt lat="45.01542" lon="3.03191">
        <ele>1143</ele>
        <time>2016-12-30T15:58:26.008Z</time>
      </trkpt>
      <trkpt lat="45.0154" lon="3.03195">
        <ele>1143</ele>
        <time>2016-12-30T15:58:27.008Z</time>
      </trkpt>
      <trkpt lat="45.01537" lon="3.032">
        <ele>1143</ele>
        <time>2016-12-30T15:58:28.008Z</time>
      </trkpt>
      <trkpt lat="45.01535" lon="3.03204">
        <ele>1143</ele>
        <time>2016-12-30T15:58:29.008Z</time>
      </trkpt>
      <trkpt lat="45.01532" lon="3.03209">
        <ele>1143</ele>
        <time>2016-12-30T15:58:30.008Z</time>
      </trkpt>
      <trkpt lat="45.01527" lon="3.03218">
        <ele>1143</ele>
        <time>2016-12-30T15:58:32.008Z</time>
      </trkpt>
      <trkpt lat="45.01524" lon="3.03223">
        <ele>1143</ele>
        <time>2016-12-30T15:58:33.008Z</time>
      </trkpt>
      <trkpt lat="45.01521" lon="3.03227">
        <ele>1143</ele>
        <time>2016-12-30T15:58:34.008Z</time>
      </trkpt>
      <trkpt lat="45.01518" lon="3.03232">
        <ele>1143</ele>
        <time>2016-12-30T15:58:35.008Z</time>
      </trkpt>
      <trkpt lat="45.01515" lon="3.03237">
        <ele>1143</ele>
        <time>2016-12-30T15:58:36.008Z</time>
      </trkpt>
      <trkpt lat="45.01512" lon="3.03241">
        <ele>1143</ele>
        <time>2016-12-30T15:58:37.008Z</time>
      </trkpt>
      <trkpt lat="45.01509" lon="3.03246">
        <ele>1143</ele>
        <time>2016-12-30T15:58:38.008Z</time>
      </trkpt>
      <trkpt lat="45.01506" lon="3.03251">
        <ele>1143</ele>
        <time>2016-12-30T15:58:39.008Z</time>
      </trkpt>
      <trkpt lat="45.01503" lon="3.03256">
        <ele>1143.8679952897</ele>
        <time>2016-12-30T15:58:40.008Z</time>
      </trkpt>
      <trkpt lat="45.015" lon="3.03261">
        <ele>1144</ele>
        <time>2016-12-30T15:58:41.008Z</time>
      </trkpt>
      <trkpt lat="45.01497" lon="3.03266">
        <ele>1144</ele>
        <time>2016-12-30T15:58:42.008Z</time>
      </trkpt>
      <trkpt lat="45.01494" lon="3.03271">
        <ele>1144</ele>
        <time>2016-12-30T15:58:43.008Z</time>
      </trkpt>
      <trkpt lat="45.01491" lon="3.03276">
        <ele>1144</ele>
        <time>2016-12-30T15:58:44.008Z</time>
      </trkpt>
      <trkpt lat="45.01488" lon="3.03281">
        <ele>1144</ele>
        <time>2016-12-30T15:58:45.008Z</time>
      </trkpt>
      <trkpt lat="45.01485" lon="3.03287">
        <ele>1144</ele>
        <time>2016-12-30T15:58:46.008Z</time>
      </trkpt>
      <trkpt lat="45.01482" lon="3.03292">
        <ele>1144</ele>
        <time>2016-12-30T15:58:47.008Z</time>
      </trkpt>
      <trkpt lat="45.01479" lon="3.03297">
        <ele>1144</ele>
        <time>2016-12-30T15:58:48.008Z</time>
      </trkpt>
      <trkpt lat="45.01476" lon="3.03303">
        <ele>1144</ele>
        <time>2016-12-30T15:58:49.008Z</time>
      </trkpt>
      <trkpt lat="45.01473" lon="3.03308">
        <ele>1144</ele>
        <time>2016-12-30T15:58:50.008Z</time>
      </trkpt>
      <trkpt lat="45.0147" lon="3.03313">
        <ele>1144</ele>
        <time>2016-12-30T15:58:51.008Z</time>
      </trkpt>
      <trkpt lat="45.01467" lon="3.03319">
        <ele>1144</ele>
        <time>2016-12-30T15:58:52.008Z</time>
      </trkpt>
      <trkpt lat="45.01464" lon="3.03324">
        <ele>1144</ele>
        <time>2016-12-30T15:58:53.008Z</time>
      </trkpt>
      <trkpt lat="45.01462" lon="3.03329">
        <ele>1144</ele>
        <time>2016-12-30T15:58:54.008Z</time>
      </trkpt>
      <trkpt lat="45.01459" lon="3.03334">
        <ele>1144</ele>
        <time>2016-12-30T15:58:55.008Z</time>
      </trkpt>
      <trkpt lat="45.01456" lon="3.0334">
        <ele>1144</ele>
        <time>2016-12-30T15:58:56.008Z</time>
      </trkpt>
      <trkpt lat="45.01456" lon="3.03351">
        <ele>1144</ele>
        <time>2016-12-30T15:58:58.008Z</time>
      </trkpt>
      <trkpt lat="45.01461" lon="3.03361">
        <ele>1142.2640094207</ele>
        <time>2016-12-30T15:59:00.008Z</time>
      </trkpt>
      <trkpt lat="45.01468" lon="3.0337">
        <ele>1142</ele>
        <time>2016-12-30T15:59:02.008Z</time>
      </trkpt>
      <trkpt lat="45.01472" lon="3.03374">
        <ele>1142</ele>
        <time>2016-12-30T15:59:03.008Z</time>
      </trkpt>
      <trkpt lat="45.01475" lon="3.0338">
        <ele>1142</ele>
        <time>2016-12-30T15:59:04.008Z</time>
      </trkpt>
      <trkpt lat="45.01478" lon="3.03392">
        <ele>1142</ele>
        <time>2016-12-30T15:59:06.008Z</time>
      </trkpt>
      <trkpt lat="45.01476" lon="3.03404">
        <ele>1142</ele>
        <time>2016-12-30T15:59:08.008Z</time>
      </trkpt>
      <trkpt lat="45.01474" lon="3.03415">
        <ele>1142.8679952897</ele>
        <time>2016-12-30T15:59:10.008Z</time>
      </trkpt>
      <trkpt lat="45.01474" lon="3.03426">
        <ele>1143</ele>
        <time>2016-12-30T15:59:12.008Z</time>
      </trkpt>
      <trkpt lat="45.01476" lon="3.03438">
        <ele>1143</ele>
        <time>2016-12-30T15:59:14.008Z</time>
      </trkpt>
      <trkpt lat="45.01477" lon="3.03443">
        <ele>1143</ele>
        <time>2016-12-30T15:59:15.008Z</time>
      </trkpt>
      <trkpt lat="45.01479" lon="3.03448">
        <ele>1143</ele>
        <time>2016-12-30T15:59:16.008Z</time>
      </trkpt>
      <trkpt lat="45.01482" lon="3.03459">
        <ele>1143</ele>
        <time>2016-12-30T15:59:18.008Z</time>
      </trkpt>
      <trkpt lat="45.01485" lon="3.0347">
        <ele>1143</ele>
        <time>2016-12-30T15:59:20.008Z</time>
      </trkpt>
      <trkpt lat="45.01486" lon="3.03476">
        <ele>1143</ele>
        <time>2016-12-30T15:59:21.008Z</time>
      </trkpt>
      <trkpt lat="45.01488" lon="3.03482">
        <ele>1143</ele>
        <time>2016-12-30T15:59:22.008Z</time>
      </trkpt>
      <trkpt lat="45.01491" lon="3.03495">
        <ele>1143</ele>
        <time>2016-12-30T15:59:24.008Z</time>
      </trkpt>
      <trkpt lat="45.01493" lon="3.03508">
        <ele>1143</ele>
        <time>2016-12-30T15:59:26.008Z</time>
      </trkpt>
      <trkpt lat="45.01494" lon="3.03515">
        <ele>1143</ele>
        <time>2016-12-30T15:59:27.008Z</time>
      </trkpt>
      <trkpt lat="45.01496" lon="3.03521">
        <ele>1143</ele>
        <time>2016-12-30T15:59:28.008Z</time>
      </trkpt>
      <trkpt lat="45.01497" lon="3.03528">
        <ele>1143</ele>
        <time>2016-12-30T15:59:29.008Z</time>
      </trkpt>
      <trkpt lat="45.01498" lon="3.03535">
        <ele>1143</ele>
        <time>2016-12-30T15:59:30.008Z</time>
      </trkpt>
      <trkpt lat="45.015" lon="3.03542">
        <ele>1143</ele>
        <time>2016-12-30T15:59:31.008Z</time>
      </trkpt>
      <trkpt lat="45.01501" lon="3.03548">
        <ele>1143</ele>
        <time>2016-12-30T15:59:32.008Z</time>
      </trkpt>
      <trkpt lat="45.01503" lon="3.03555">
        <ele>1143</ele>
        <time>2016-12-30T15:59:33.008Z</time>
      </trkpt>
      <trkpt lat="45.01507" lon="3.03569">
        <ele>1143</ele>
        <time>2016-12-30T15:59:35.008Z</time>
      </trkpt>
      <trkpt lat="45.01511" lon="3.03582">
        <ele>1143</ele>
        <time>2016-12-30T15:59:37.008Z</time>
      </trkpt>
      <trkpt lat="45.01516" lon="3.03595">
        <ele>1143</ele>
        <time>2016-12-30T15:59:39.008Z</time>
      </trkpt>
      <trkpt lat="45.01522" lon="3.03608">
        <ele>1140</ele>
        <time>2016-12-30T15:59:41.008Z</time>
      </trkpt>
      <trkpt lat="45.01527" lon="3.03622">
        <ele>1140</ele>
        <time>2016-12-30T15:59:43.008Z</time>
      </trkpt>
      <trkpt lat="45.01531" lon="3.03638">
        <ele>1139.1333281616</ele>
        <time>2016-12-30T15:59:45.008Z</time>
      </trkpt>
      <trkpt lat="45.01535" lon="3.03653">
        <ele>1139</ele>
        <time>2016-12-30T15:59:47.008Z</time>
      </trkpt>
      <trkpt lat="45.01539" lon="3.03669">
        <ele>1139</ele>
        <time>2016-12-30T15:59:49.008Z</time>
      </trkpt>
      <trkpt lat="45.01545" lon="3.03682">
        <ele>1137</ele>
        <time>2016-12-30T15:59:51.008Z</time>
      </trkpt>
      <trkpt lat="45.01553" lon="3.03693">
        <ele>1137</ele>
        <time>2016-12-30T15:59:53.008Z</time>
      </trkpt>
      <trkpt lat="45.01563" lon="3.03698">
        <ele>1135.2639905791</ele>
        <time>2016-12-30T15:59:55.008Z</time>
      </trkpt>
      <trkpt lat="45.01574" lon="3.03697">
        <ele>1135</ele>
        <time>2016-12-30T15:59:57.008Z</time>
      </trkpt>
      <trkpt lat="45.01587" lon="3.03694">
        <ele>1130.6600235517</ele>
        <time>2016-12-30T16:00:00.008Z</time>
      </trkpt>
      <trkpt lat="45.01592" lon="3.03697">
        <ele>1130</ele>
        <time>2016-12-30T16:00:02.008Z</time>
      </trkpt>
      <trkpt lat="45.01591" lon="3.03706">
        <ele>1130</ele>
        <time>2016-12-30T16:00:05.008Z</time>
      </trkpt>
      <trkpt lat="45.01586" lon="3.0371">
        <ele>1130</ele>
        <time>2016-12-30T16:00:11.008Z</time>
      </trkpt>
      <trkpt lat="45.0158" lon="3.03715">
        <ele>1130</ele>
        <time>2016-12-30T16:00:13.008Z</time>
      </trkpt>
      <trkpt lat="45.01577" lon="3.03718">
        <ele>1130</ele>
        <time>2016-12-30T16:00:14.008Z</time>
      </trkpt>
      <trkpt lat="45.01573" lon="3.03722">
        <ele>1130</ele>
        <time>2016-12-30T16:00:15.008Z</time>
      </trkpt>
      <trkpt lat="45.01569" lon="3.03727">
        <ele>1130</ele>
        <time>2016-12-30T16:00:16.008Z</time>
      </trkpt>
      <trkpt lat="45.01565" lon="3.03732">
        <ele>1130</ele>
        <time>2016-12-30T16:00:17.008Z</time>
      </trkpt>
      <trkpt lat="45.01562" lon="3.03736">
        <ele>1130</ele>
        <time>2016-12-30T16:00:18.008Z</time>
      </trkpt>
      <trkpt lat="45.01557" lon="3.03739">
        <ele>1130</ele>
        <time>2016-12-30T16:00:19.008Z</time>
      </trkpt>
      <trkpt lat="45.01552" lon="3.03741">
        <ele>1127.4217876741</ele>
        <time>2016-12-30T16:00:20.008Z</time>
      </trkpt>
      <trkpt lat="45.01547" lon="3.03741">
        <ele>1127</ele>
        <time>2016-12-30T16:00:21.008Z</time>
      </trkpt>
      <trkpt lat="45.01542" lon="3.03741">
        <ele>1127</ele>
        <time>2016-12-30T16:00:22.008Z</time>
      </trkpt>
      <trkpt lat="45.01533" lon="3.0374">
        <ele>1127</ele>
        <time>2016-12-30T16:00:24.008Z</time>
      </trkpt>
      <trkpt lat="45.01527" lon="3.03743">
        <ele>1123</ele>
        <time>2016-12-30T16:00:26.008Z</time>
      </trkpt>
      <trkpt lat="45.01523" lon="3.03751">
        <ele>1123</ele>
        <time>2016-12-30T16:00:28.008Z</time>
      </trkpt>
      <trkpt lat="45.01528" lon="3.03755">
        <ele>1121.2640094207</ele>
        <time>2016-12-30T16:00:30.008Z</time>
      </trkpt>
      <trkpt lat="45.01536" lon="3.03757">
        <ele>1120.1405958914</ele>
        <time>2016-12-30T16:00:32.008Z</time>
      </trkpt>
      <trkpt lat="45.0154" lon="3.0376">
        <ele>1120</ele>
        <time>2016-12-30T16:00:33.008Z</time>
      </trkpt>
      <trkpt lat="45.01544" lon="3.03763">
        <ele>1119.1320047103</ele>
        <time>2016-12-30T16:00:34.008Z</time>
      </trkpt>
      <trkpt lat="45.01548" lon="3.03766">
        <ele>1118.1319952895</ele>
        <time>2016-12-30T16:00:35.008Z</time>
      </trkpt>
      <trkpt lat="45.01551" lon="3.03769">
        <ele>1118</ele>
        <time>2016-12-30T16:00:36.008Z</time>
      </trkpt>
      <trkpt lat="45.01555" lon="3.03772">
        <ele>1118</ele>
        <time>2016-12-30T16:00:37.008Z</time>
      </trkpt>
      <trkpt lat="45.0156" lon="3.0378">
        <ele>1117</ele>
        <time>2016-12-30T16:00:39.008Z</time>
      </trkpt>
      <trkpt lat="45.01562" lon="3.03785">
        <ele>1117</ele>
        <time>2016-12-30T16:00:40.008Z</time>
      </trkpt>
      <trkpt lat="45.01564" lon="3.0379">
        <ele>1117</ele>
        <time>2016-12-30T16:00:41.008Z</time>
      </trkpt>
      <trkpt lat="45.01567" lon="3.03798">
        <ele>1117</ele>
        <time>2016-12-30T16:00:43.008Z</time>
      </trkpt>
      <trkpt lat="45.01571" lon="3.03803">
        <ele>1115.2666563231</ele>
        <time>2016-12-30T16:00:45.008Z</time>
      </trkpt>
      <trkpt lat="45.01578" lon="3.03804">
        <ele>1115</ele>
        <time>2016-12-30T16:00:47.008Z</time>
      </trkpt>
      <trkpt lat="45.01583" lon="3.03805">
        <ele>1115</ele>
        <time>2016-12-30T16:00:48.008Z</time>
      </trkpt>
      <trkpt lat="45.01592" lon="3.03807">
        <ele>1114.1405958914</ele>
        <time>2016-12-30T16:00:50.008Z</time>
      </trkpt>
      <trkpt lat="45.01602" lon="3.0381">
        <ele>1114</ele>
        <time>2016-12-30T16:00:52.008Z</time>
      </trkpt>
      <trkpt lat="45.01607" lon="3.03812">
        <ele>1114</ele>
        <time>2016-12-30T16:00:53.008Z</time>
      </trkpt>
      <trkpt lat="45.01613" lon="3.03813">
        <ele>1114</ele>
        <time>2016-12-30T16:00:54.008Z</time>
      </trkpt>
      <trkpt lat="45.01619" lon="3.03814">
        <ele>1111.3959858686</ele>
        <time>2016-12-30T16:00:55.008Z</time>
      </trkpt>
      <trkpt lat="45.01624" lon="3.03815">
        <ele>1111</ele>
        <time>2016-12-30T16:00:56.008Z</time>
      </trkpt>
      <trkpt lat="45.0163" lon="3.03815">
        <ele>1111</ele>
        <time>2016-12-30T16:00:57.008Z</time>
      </trkpt>
      <trkpt lat="45.01636" lon="3.03815">
        <ele>1111</ele>
        <time>2016-12-30T16:00:58.008Z</time>
      </trkpt>
      <trkpt lat="45.01649" lon="3.03813">
        <ele>1108.396014131</ele>
        <time>2016-12-30T16:01:00.008Z</time>
      </trkpt>
      <trkpt lat="45.01656" lon="3.03811">
        <ele>1108</ele>
        <time>2016-12-30T16:01:01.008Z</time>
      </trkpt>
      <trkpt lat="45.01664" lon="3.03809">
        <ele>1107.1405958914</ele>
        <time>2016-12-30T16:01:02.008Z</time>
      </trkpt>
      <trkpt lat="45.01671" lon="3.03808">
        <ele>1106.1333281616</ele>
        <time>2016-12-30T16:01:03.008Z</time>
      </trkpt>
      <trkpt lat="45.01684" lon="3.03807">
        <ele>1106</ele>
        <time>2016-12-30T16:01:05.008Z</time>
      </trkpt>
      <trkpt lat="45.01696" lon="3.03806">
        <ele>1105</ele>
        <time>2016-12-30T16:01:07.008Z</time>
      </trkpt>
      <trkpt lat="45.01709" lon="3.03805">
        <ele>1103.1333281616</ele>
        <time>2016-12-30T16:01:09.008Z</time>
      </trkpt>
      <trkpt lat="45.01722" lon="3.03802">
        <ele>1103</ele>
        <time>2016-12-30T16:01:11.008Z</time>
      </trkpt>
      <trkpt lat="45.01734" lon="3.03796">
        <ele>1103</ele>
        <time>2016-12-30T16:01:13.008Z</time>
      </trkpt>
      <trkpt lat="45.0174" lon="3.03793">
        <ele>1103</ele>
        <time>2016-12-30T16:01:14.008Z</time>
      </trkpt>
      <trkpt lat="45.01746" lon="3.03789">
        <ele>1103</ele>
        <time>2016-12-30T16:01:15.008Z</time>
      </trkpt>
      <trkpt lat="45.01752" lon="3.03785">
        <ele>1103</ele>
        <time>2016-12-30T16:01:16.008Z</time>
      </trkpt>
      <trkpt lat="45.01764" lon="3.03781">
        <ele>1102.1320047103</ele>
        <time>2016-12-30T16:01:18.008Z</time>
      </trkpt>
      <trkpt lat="45.01777" lon="3.03781">
        <ele>1102.8594041086</ele>
        <time>2016-12-30T16:01:20.008Z</time>
      </trkpt>
      <trkpt lat="45.01788" lon="3.03785">
        <ele>1103</ele>
        <time>2016-12-30T16:01:22.008Z</time>
      </trkpt>
      <trkpt lat="45.01794" lon="3.03787">
        <ele>1103</ele>
        <time>2016-12-30T16:01:23.008Z</time>
      </trkpt>
      <trkpt lat="45.018" lon="3.0379">
        <ele>1103</ele>
        <time>2016-12-30T16:01:24.008Z</time>
      </trkpt>
      <trkpt lat="45.01806" lon="3.03792">
        <ele>1103</ele>
        <time>2016-12-30T16:01:25.008Z</time>
      </trkpt>
      <trkpt lat="45.01812" lon="3.03794">
        <ele>1103</ele>
        <time>2016-12-30T16:01:26.008Z</time>
      </trkpt>
      <trkpt lat="45.01817" lon="3.03796">
        <ele>1103</ele>
        <time>2016-12-30T16:01:27.008Z</time>
      </trkpt>
      <trkpt lat="45.01823" lon="3.03798">
        <ele>1103</ele>
        <time>2016-12-30T16:01:28.008Z</time>
      </trkpt>
      <trkpt lat="45.01829" lon="3.038">
        <ele>1103</ele>
        <time>2016-12-30T16:01:29.008Z</time>
      </trkpt>
      <trkpt lat="45.01841" lon="3.03802">
        <ele>1102</ele>
        <time>2016-12-30T16:01:31.008Z</time>
      </trkpt>
      <trkpt lat="45.01852" lon="3.038">
        <ele>1102</ele>
        <time>2016-12-30T16:01:33.008Z</time>
      </trkpt>
      <trkpt lat="45.01864" lon="3.03797">
        <ele>1102</ele>
        <time>2016-12-30T16:01:35.008Z</time>
      </trkpt>
      <trkpt lat="45.01876" lon="3.03795">
        <ele>1102</ele>
        <time>2016-12-30T16:01:37.008Z</time>
      </trkpt>
      <trkpt lat="45.01882" lon="3.03795">
        <ele>1102</ele>
        <time>2016-12-30T16:01:38.008Z</time>
      </trkpt>
      <trkpt lat="45.01887" lon="3.03796">
        <ele>1102</ele>
        <time>2016-12-30T16:01:39.008Z</time>
      </trkpt>
      <trkpt lat="45.01892" lon="3.03798">
        <ele>1101.1320047103</ele>
        <time>2016-12-30T16:01:40.008Z</time>
      </trkpt>
      <trkpt lat="45.01897" lon="3.03801">
        <ele>1101</ele>
        <time>2016-12-30T16:01:41.008Z</time>
      </trkpt>
      <trkpt lat="45.01905" lon="3.03809">
        <ele>1101</ele>
        <time>2016-12-30T16:01:43.008Z</time>
      </trkpt>
      <trkpt lat="45.01912" lon="3.03816">
        <ele>1101</ele>
        <time>2016-12-30T16:01:45.008Z</time>
      </trkpt>
      <trkpt lat="45.01917" lon="3.03823">
        <ele>1101</ele>
        <time>2016-12-30T16:01:47.008Z</time>
      </trkpt>
      <trkpt lat="45.01922" lon="3.0383">
        <ele>1101</ele>
        <time>2016-12-30T16:01:49.008Z</time>
      </trkpt>
      <trkpt lat="45.01925" lon="3.03836">
        <ele>1102</ele>
        <time>2016-12-30T16:01:51.008Z</time>
      </trkpt>
      <trkpt lat="45.01927" lon="3.03839">
        <ele>1102</ele>
        <time>2016-12-30T16:01:52.008Z</time>
      </trkpt>
      <trkpt lat="45.0193" lon="3.03845">
        <ele>1102</ele>
        <time>2016-12-30T16:01:54.008Z</time>
      </trkpt>
      <trkpt lat="45.01931" lon="3.0385">
        <ele>1102</ele>
        <time>2016-12-30T16:01:56.008Z</time>
      </trkpt>
      <trkpt lat="45.01931" lon="3.03855">
        <ele>1102</ele>
        <time>2016-12-30T16:01:58.008Z</time>
      </trkpt>
      <trkpt lat="45.01932" lon="3.03861">
        <ele>1102.8679952897</ele>
        <time>2016-12-30T16:02:00.008Z</time>
      </trkpt>
      <trkpt lat="45.01933" lon="3.03865">
        <ele>1103</ele>
        <time>2016-12-30T16:02:02.008Z</time>
      </trkpt>
      <trkpt lat="45.01933" lon="3.03868">
        <ele>1103</ele>
        <time>2016-12-30T16:02:04.008Z</time>
      </trkpt>
      <trkpt lat="45.01934" lon="3.03874">
        <ele>1103</ele>
        <time>2016-12-30T16:02:06.008Z</time>
      </trkpt>
      <trkpt lat="45.01936" lon="3.03878">
        <ele>1103</ele>
        <time>2016-12-30T16:02:08.008Z</time>
      </trkpt>
      <trkpt lat="45.01937" lon="3.03884">
        <ele>1104.7359905793</ele>
        <time>2016-12-30T16:02:10.008Z</time>
      </trkpt>
      <trkpt lat="45.0194" lon="3.0389">
        <ele>1105</ele>
        <time>2016-12-30T16:02:12.008Z</time>
      </trkpt>
      <trkpt lat="45.01942" lon="3.03895">
        <ele>1105</ele>
        <time>2016-12-30T16:02:14.008Z</time>
      </trkpt>
      <trkpt lat="45.01945" lon="3.039">
        <ele>1105</ele>
        <time>2016-12-30T16:02:16.008Z</time>
      </trkpt>
      <trkpt lat="45.01948" lon="3.03904">
        <ele>1105</ele>
        <time>2016-12-30T16:02:18.008Z</time>
      </trkpt>
      <trkpt lat="45.01951" lon="3.03907">
        <ele>1105.8594041086</ele>
        <time>2016-12-30T16:02:20.008Z</time>
      </trkpt>
      <trkpt lat="45.01955" lon="3.0391">
        <ele>1106</ele>
        <time>2016-12-30T16:02:22.008Z</time>
      </trkpt>
      <trkpt lat="45.01958" lon="3.03913">
        <ele>1106</ele>
        <time>2016-12-30T16:02:24.008Z</time>
      </trkpt>
      <trkpt lat="45.01962" lon="3.03915">
        <ele>1106</ele>
        <time>2016-12-30T16:02:26.008Z</time>
      </trkpt>
      <trkpt lat="45.01965" lon="3.03918">
        <ele>1106</ele>
        <time>2016-12-30T16:02:28.008Z</time>
      </trkpt>
      <trkpt lat="45.01968" lon="3.0392">
        <ele>1108.603985869</ele>
        <time>2016-12-30T16:02:30.008Z</time>
      </trkpt>
      <trkpt lat="45.01973" lon="3.03924">
        <ele>1109</ele>
        <time>2016-12-30T16:02:33.008Z</time>
      </trkpt>
      <trkpt lat="45.01977" lon="3.03928">
        <ele>1111</ele>
        <time>2016-12-30T16:02:36.008Z</time>
      </trkpt>
      <trkpt lat="45.0198" lon="3.0393">
        <ele>1111</ele>
        <time>2016-12-30T16:02:38.008Z</time>
      </trkpt>
      <trkpt lat="45.01983" lon="3.03933">
        <ele>1111.8679952897</ele>
        <time>2016-12-30T16:02:40.008Z</time>
      </trkpt>
      <trkpt lat="45.01987" lon="3.03936">
        <ele>1112</ele>
        <time>2016-12-30T16:02:42.008Z</time>
      </trkpt>
      <trkpt lat="45.0199" lon="3.03938">
        <ele>1112</ele>
        <time>2016-12-30T16:02:44.008Z</time>
      </trkpt>
      <trkpt lat="45.01993" lon="3.03941">
        <ele>1113</ele>
        <time>2016-12-30T16:02:46.008Z</time>
      </trkpt>
      <trkpt lat="45.01999" lon="3.03946">
        <ele>1113.8594041086</ele>
        <time>2016-12-30T16:02:50.008Z</time>
      </trkpt>
      <trkpt lat="45.02005" lon="3.03951">
        <ele>1114</ele>
        <time>2016-12-30T16:02:54.008Z</time>
      </trkpt>
      <trkpt lat="45.02012" lon="3.03955">
        <ele>1114</ele>
        <time>2016-12-30T16:02:58.008Z</time>
      </trkpt>
      <trkpt lat="45.02017" lon="3.03958">
        <ele>1117</ele>
        <time>2016-12-30T16:03:01.008Z</time>
      </trkpt>
      <trkpt lat="45.02022" lon="3.03961">
        <ele>1117</ele>
        <time>2016-12-30T16:03:04.008Z</time>
      </trkpt>
      <trkpt lat="45.02027" lon="3.03964">
        <ele>1117</ele>
        <time>2016-12-30T16:03:07.008Z</time>
      </trkpt>
      <trkpt lat="45.0203" lon="3.03966">
        <ele>1117</ele>
        <time>2016-12-30T16:03:09.008Z</time>
      </trkpt>
      <trkpt lat="45.02034" lon="3.03968">
        <ele>1117</ele>
        <time>2016-12-30T16:03:11.008Z</time>
      </trkpt>
      <trkpt lat="45.02037" lon="3.0397">
        <ele>1117</ele>
        <time>2016-12-30T16:03:13.008Z</time>
      </trkpt>
      <trkpt lat="45.0204" lon="3.03973">
        <ele>1117</ele>
        <time>2016-12-30T16:03:15.008Z</time>
      </trkpt>
      <trkpt lat="45.02044" lon="3.03975">
        <ele>1117</ele>
        <time>2016-12-30T16:03:17.008Z</time>
      </trkpt>
      <trkpt lat="45.02047" lon="3.03977">
        <ele>1117</ele>
        <time>2016-12-30T16:03:19.008Z</time>
      </trkpt>
      <trkpt lat="45.02052" lon="3.03981">
        <ele>1119</ele>
        <time>2016-12-30T16:03:22.008Z</time>
      </trkpt>
      <trkpt lat="45.02058" lon="3.03984">
        <ele>1119</ele>
        <time>2016-12-30T16:03:25.008Z</time>
      </trkpt>
      <trkpt lat="45.02063" lon="3.03988">
        <ele>1119</ele>
        <time>2016-12-30T16:03:28.008Z</time>
      </trkpt>
      <trkpt lat="45.02069" lon="3.03991">
        <ele>1121</ele>
        <time>2016-12-30T16:03:31.008Z</time>
      </trkpt>
      <trkpt lat="45.02072" lon="3.03994">
        <ele>1121</ele>
        <time>2016-12-30T16:03:33.008Z</time>
      </trkpt>
      <trkpt lat="45.02076" lon="3.03996">
        <ele>1121</ele>
        <time>2016-12-30T16:03:35.008Z</time>
      </trkpt>
      <trkpt lat="45.0208" lon="3.03999">
        <ele>1121</ele>
        <time>2016-12-30T16:03:37.008Z</time>
      </trkpt>
      <trkpt lat="45.02085" lon="3.04003">
        <ele>1121.8679952897</ele>
        <time>2016-12-30T16:03:40.008Z</time>
      </trkpt>
      <trkpt lat="45.0209" lon="3.04008">
        <ele>1122</ele>
        <time>2016-12-30T16:03:43.008Z</time>
      </trkpt>
      <trkpt lat="45.02096" lon="3.04013">
        <ele>1122</ele>
        <time>2016-12-30T16:03:46.008Z</time>
      </trkpt>
      <trkpt lat="45.021" lon="3.04017">
        <ele>1122</ele>
        <time>2016-12-30T16:03:48.008Z</time>
      </trkpt>
      <trkpt lat="45.02104" lon="3.0402">
        <ele>1123.7188082173</ele>
        <time>2016-12-30T16:03:50.008Z</time>
      </trkpt>
      <trkpt lat="45.02108" lon="3.04024">
        <ele>1124</ele>
        <time>2016-12-30T16:03:52.008Z</time>
      </trkpt>
      <trkpt lat="45.02112" lon="3.04027">
        <ele>1124</ele>
        <time>2016-12-30T16:03:54.008Z</time>
      </trkpt>
      <trkpt lat="45.02116" lon="3.0403">
        <ele>1124</ele>
        <time>2016-12-30T16:03:56.008Z</time>
      </trkpt>
      <trkpt lat="45.0212" lon="3.04034">
        <ele>1124</ele>
        <time>2016-12-30T16:03:58.008Z</time>
      </trkpt>
      <trkpt lat="45.02124" lon="3.04037">
        <ele>1124</ele>
        <time>2016-12-30T16:04:00.008Z</time>
      </trkpt>
      <trkpt lat="45.02129" lon="3.0404">
        <ele>1124</ele>
        <time>2016-12-30T16:04:02.008Z</time>
      </trkpt>
      <trkpt lat="45.02133" lon="3.04043">
        <ele>1124</ele>
        <time>2016-12-30T16:04:04.008Z</time>
      </trkpt>
      <trkpt lat="45.02137" lon="3.04047">
        <ele>1124</ele>
        <time>2016-12-30T16:04:06.008Z</time>
      </trkpt>
      <trkpt lat="45.02141" lon="3.0405">
        <ele>1124</ele>
        <time>2016-12-30T16:04:08.008Z</time>
      </trkpt>
      <trkpt lat="45.02145" lon="3.04054">
        <ele>1125.7359905793</ele>
        <time>2016-12-30T16:04:10.008Z</time>
      </trkpt>
      <trkpt lat="45.0215" lon="3.04058">
        <ele>1126</ele>
        <time>2016-12-30T16:04:12.008Z</time>
      </trkpt>
      <trkpt lat="45.02154" lon="3.04061">
        <ele>1126</ele>
        <time>2016-12-30T16:04:14.008Z</time>
      </trkpt>
      <trkpt lat="45.02158" lon="3.04065">
        <ele>1126</ele>
        <time>2016-12-30T16:04:16.008Z</time>
      </trkpt>
      <trkpt lat="45.02163" lon="3.04068">
        <ele>1126</ele>
        <time>2016-12-30T16:04:18.008Z</time>
      </trkpt>
      <trkpt lat="45.02167" lon="3.04071">
        <ele>1127.7188082173</ele>
        <time>2016-12-30T16:04:20.008Z</time>
      </trkpt>
      <trkpt lat="45.02171" lon="3.04073">
        <ele>1128</ele>
        <time>2016-12-30T16:04:22.008Z</time>
      </trkpt>
      <trkpt lat="45.02178" lon="3.04076">
        <ele>1128</ele>
        <time>2016-12-30T16:04:25.008Z</time>
      </trkpt>
      <trkpt lat="45.02183" lon="3.04077">
        <ele>1128</ele>
        <time>2016-12-30T16:04:27.008Z</time>
      </trkpt>
      <trkpt lat="45.0219" lon="3.04078">
        <ele>1128.8679952897</ele>
        <time>2016-12-30T16:04:30.008Z</time>
      </trkpt>
      <trkpt lat="45.02195" lon="3.04078">
        <ele>1129</ele>
        <time>2016-12-30T16:04:32.008Z</time>
      </trkpt>
      <trkpt lat="45.022" lon="3.04079">
        <ele>1129</ele>
        <time>2016-12-30T16:04:34.008Z</time>
      </trkpt>
      <trkpt lat="45.02203" lon="3.04079">
        <ele>1129</ele>
        <time>2016-12-30T16:04:35.008Z</time>
      </trkpt>
      <trkpt lat="45.02206" lon="3.04079">
        <ele>1129</ele>
        <time>2016-12-30T16:04:36.008Z</time>
      </trkpt>
      <trkpt lat="45.02209" lon="3.0408">
        <ele>1129</ele>
        <time>2016-12-30T16:04:37.008Z</time>
      </trkpt>
      <trkpt lat="45.02215" lon="3.0408">
        <ele>1129</ele>
        <time>2016-12-30T16:04:39.008Z</time>
      </trkpt>
      <trkpt lat="45.0222" lon="3.04081">
        <ele>1130</ele>
        <time>2016-12-30T16:04:41.008Z</time>
      </trkpt>
      <trkpt lat="45.02226" lon="3.04082">
        <ele>1130</ele>
        <time>2016-12-30T16:04:43.008Z</time>
      </trkpt>
      <trkpt lat="45.02232" lon="3.04082">
        <ele>1130</ele>
        <time>2016-12-30T16:04:45.008Z</time>
      </trkpt>
      <trkpt lat="45.02235" lon="3.04083">
        <ele>1130</ele>
        <time>2016-12-30T16:04:46.008Z</time>
      </trkpt>
      <trkpt lat="45.02238" lon="3.04083">
        <ele>1130</ele>
        <time>2016-12-30T16:04:47.008Z</time>
      </trkpt>
      <trkpt lat="45.02245" lon="3.04084">
        <ele>1130</ele>
        <time>2016-12-30T16:04:49.008Z</time>
      </trkpt>
      <trkpt lat="45.02248" lon="3.04085">
        <ele>1130</ele>
        <time>2016-12-30T16:04:50.008Z</time>
      </trkpt>
      <trkpt lat="45.02251" lon="3.04087">
        <ele>1130</ele>
        <time>2016-12-30T16:04:51.008Z</time>
      </trkpt>
      <trkpt lat="45.02255" lon="3.04089">
        <ele>1130</ele>
        <time>2016-12-30T16:04:52.008Z</time>
      </trkpt>
      <trkpt lat="45.02262" lon="3.04094">
        <ele>1130</ele>
        <time>2016-12-30T16:04:54.008Z</time>
      </trkpt>
      <trkpt lat="45.02268" lon="3.041">
        <ele>1130</ele>
        <time>2016-12-30T16:04:56.008Z</time>
      </trkpt>
      <trkpt lat="45.02274" lon="3.04106">
        <ele>1130</ele>
        <time>2016-12-30T16:04:58.008Z</time>
      </trkpt>
      <trkpt lat="45.02276" lon="3.0411">
        <ele>1130</ele>
        <time>2016-12-30T16:04:59.008Z</time>
      </trkpt>
      <trkpt lat="45.02279" lon="3.04114">
        <ele>1130.8679952897</ele>
        <time>2016-12-30T16:05:00.008Z</time>
      </trkpt>
      <trkpt lat="45.02281" lon="3.04117">
        <ele>1131</ele>
        <time>2016-12-30T16:05:01.008Z</time>
      </trkpt>
      <trkpt lat="45.02286" lon="3.04125">
        <ele>1131</ele>
        <time>2016-12-30T16:05:03.008Z</time>
      </trkpt>
      <trkpt lat="45.02291" lon="3.04131">
        <ele>1131</ele>
        <time>2016-12-30T16:05:05.008Z</time>
      </trkpt>
      <trkpt lat="45.02298" lon="3.04136">
        <ele>1131</ele>
        <time>2016-12-30T16:05:07.008Z</time>
      </trkpt>
      <trkpt lat="45.02301" lon="3.04139">
        <ele>1131</ele>
        <time>2016-12-30T16:05:08.008Z</time>
      </trkpt>
      <trkpt lat="45.02304" lon="3.04141">
        <ele>1131</ele>
        <time>2016-12-30T16:05:09.008Z</time>
      </trkpt>
      <trkpt lat="45.02308" lon="3.04144">
        <ele>1131</ele>
        <time>2016-12-30T16:05:10.008Z</time>
      </trkpt>
      <trkpt lat="45.02311" lon="3.04146">
        <ele>1131</ele>
        <time>2016-12-30T16:05:11.008Z</time>
      </trkpt>
      <trkpt lat="45.02314" lon="3.04149">
        <ele>1131</ele>
        <time>2016-12-30T16:05:12.008Z</time>
      </trkpt>
      <trkpt lat="45.02318" lon="3.04151">
        <ele>1131</ele>
        <time>2016-12-30T16:05:13.008Z</time>
      </trkpt>
      <trkpt lat="45.02324" lon="3.04156">
        <ele>1131</ele>
        <time>2016-12-30T16:05:15.008Z</time>
      </trkpt>
      <trkpt lat="45.02331" lon="3.0416">
        <ele>1131</ele>
        <time>2016-12-30T16:05:17.008Z</time>
      </trkpt>
      <trkpt lat="45.02337" lon="3.04164">
        <ele>1131</ele>
        <time>2016-12-30T16:05:19.008Z</time>
      </trkpt>
      <trkpt lat="45.02344" lon="3.04168">
        <ele>1131</ele>
        <time>2016-12-30T16:05:21.008Z</time>
      </trkpt>
      <trkpt lat="45.02349" lon="3.0417">
        <ele>1131</ele>
        <time>2016-12-30T16:05:23.008Z</time>
      </trkpt>
      <trkpt lat="45.02355" lon="3.04173">
        <ele>1131</ele>
        <time>2016-12-30T16:05:25.008Z</time>
      </trkpt>
      <trkpt lat="45.02362" lon="3.04175">
        <ele>1131</ele>
        <time>2016-12-30T16:05:27.008Z</time>
      </trkpt>
      <trkpt lat="45.0237" lon="3.04177">
        <ele>1131</ele>
        <time>2016-12-30T16:05:29.008Z</time>
      </trkpt>
      <trkpt lat="45.02374" lon="3.04178">
        <ele>1130.1320047103</ele>
        <time>2016-12-30T16:05:30.008Z</time>
      </trkpt>
      <trkpt lat="45.02381" lon="3.04178">
        <ele>1130</ele>
        <time>2016-12-30T16:05:32.008Z</time>
      </trkpt>
      <trkpt lat="45.02389" lon="3.04177">
        <ele>1130</ele>
        <time>2016-12-30T16:05:34.008Z</time>
      </trkpt>
      <trkpt lat="45.02398" lon="3.04176">
        <ele>1130</ele>
        <time>2016-12-30T16:05:36.008Z</time>
      </trkpt>
      <trkpt lat="45.02405" lon="3.04174">
        <ele>1130</ele>
        <time>2016-12-30T16:05:38.008Z</time>
      </trkpt>
      <trkpt lat="45.02413" lon="3.0417">
        <ele>1128.266678734</ele>
        <time>2016-12-30T16:05:40.008Z</time>
      </trkpt>
      <trkpt lat="45.02424" lon="3.04164">
        <ele>1128</ele>
        <time>2016-12-30T16:05:43.008Z</time>
      </trkpt>
      <trkpt lat="45.02432" lon="3.04159">
        <ele>1128</ele>
        <time>2016-12-30T16:05:45.008Z</time>
      </trkpt>
      <trkpt lat="45.02439" lon="3.04154">
        <ele>1128</ele>
        <time>2016-12-30T16:05:47.008Z</time>
      </trkpt>
      <trkpt lat="45.02444" lon="3.04151">
        <ele>1128</ele>
        <time>2016-12-30T16:05:49.008Z</time>
      </trkpt>
      <trkpt lat="45.02451" lon="3.04147">
        <ele>1126</ele>
        <time>2016-12-30T16:05:51.008Z</time>
      </trkpt>
      <trkpt lat="45.02457" lon="3.04144">
        <ele>1126</ele>
        <time>2016-12-30T16:05:53.008Z</time>
      </trkpt>
      <trkpt lat="45.02464" lon="3.0414">
        <ele>1126</ele>
        <time>2016-12-30T16:05:55.008Z</time>
      </trkpt>
      <trkpt lat="45.02471" lon="3.04136">
        <ele>1126</ele>
        <time>2016-12-30T16:05:57.008Z</time>
      </trkpt>
      <trkpt lat="45.02477" lon="3.04131">
        <ele>1126</ele>
        <time>2016-12-30T16:05:59.008Z</time>
      </trkpt>
      <trkpt lat="45.02483" lon="3.04126">
        <ele>1124</ele>
        <time>2016-12-30T16:06:01.008Z</time>
      </trkpt>
      <trkpt lat="45.02489" lon="3.04121">
        <ele>1124</ele>
        <time>2016-12-30T16:06:03.008Z</time>
      </trkpt>
      <trkpt lat="45.02496" lon="3.04117">
        <ele>1124</ele>
        <time>2016-12-30T16:06:05.008Z</time>
      </trkpt>
      <trkpt lat="45.02503" lon="3.04112">
        <ele>1124</ele>
        <time>2016-12-30T16:06:07.008Z</time>
      </trkpt>
      <trkpt lat="45.0251" lon="3.04107">
        <ele>1124</ele>
        <time>2016-12-30T16:06:09.008Z</time>
      </trkpt>
      <trkpt lat="45.02517" lon="3.04102">
        <ele>1124</ele>
        <time>2016-12-30T16:06:11.008Z</time>
      </trkpt>
      <trkpt lat="45.02525" lon="3.04097">
        <ele>1124</ele>
        <time>2016-12-30T16:06:13.008Z</time>
      </trkpt>
      <trkpt lat="45.02528" lon="3.04095">
        <ele>1124</ele>
        <time>2016-12-30T16:06:14.008Z</time>
      </trkpt>
      <trkpt lat="45.02532" lon="3.04093">
        <ele>1124</ele>
        <time>2016-12-30T16:06:15.008Z</time>
      </trkpt>
      <trkpt lat="45.02539" lon="3.04088">
        <ele>1124</ele>
        <time>2016-12-30T16:06:17.008Z</time>
      </trkpt>
      <trkpt lat="45.02547" lon="3.04084">
        <ele>1124</ele>
        <time>2016-12-30T16:06:19.008Z</time>
      </trkpt>
      <trkpt lat="45.02554" lon="3.0408">
        <ele>1124</ele>
        <time>2016-12-30T16:06:21.008Z</time>
      </trkpt>
      <trkpt lat="45.02562" lon="3.04075">
        <ele>1124</ele>
        <time>2016-12-30T16:06:23.008Z</time>
      </trkpt>
      <trkpt lat="45.0257" lon="3.04072">
        <ele>1124</ele>
        <time>2016-12-30T16:06:25.008Z</time>
      </trkpt>
      <trkpt lat="45.02578" lon="3.04069">
        <ele>1124</ele>
        <time>2016-12-30T16:06:27.008Z</time>
      </trkpt>
      <trkpt lat="45.02586" lon="3.04066">
        <ele>1124</ele>
        <time>2016-12-30T16:06:29.008Z</time>
      </trkpt>
      <trkpt lat="45.0259" lon="3.04065">
        <ele>1124</ele>
        <time>2016-12-30T16:06:30.008Z</time>
      </trkpt>
      <trkpt lat="45.02595" lon="3.04065">
        <ele>1124</ele>
        <time>2016-12-30T16:06:31.008Z</time>
      </trkpt>
      <trkpt lat="45.02599" lon="3.04064">
        <ele>1124</ele>
        <time>2016-12-30T16:06:32.008Z</time>
      </trkpt>
      <trkpt lat="45.02607" lon="3.04063">
        <ele>1124</ele>
        <time>2016-12-30T16:06:34.008Z</time>
      </trkpt>
      <trkpt lat="45.02616" lon="3.04061">
        <ele>1124</ele>
        <time>2016-12-30T16:06:36.008Z</time>
      </trkpt>
      <trkpt lat="45.02625" lon="3.0406">
        <ele>1124</ele>
        <time>2016-12-30T16:06:38.008Z</time>
      </trkpt>
      <trkpt lat="45.02634" lon="3.0406">
        <ele>1123.1320047103</ele>
        <time>2016-12-30T16:06:40.008Z</time>
      </trkpt>
      <trkpt lat="45.02644" lon="3.04061">
        <ele>1123</ele>
        <time>2016-12-30T16:06:42.008Z</time>
      </trkpt>
      <trkpt lat="45.02649" lon="3.04062">
        <ele>1123</ele>
        <time>2016-12-30T16:06:43.008Z</time>
      </trkpt>
      <trkpt lat="45.02657" lon="3.04064">
        <ele>1123</ele>
        <time>2016-12-30T16:06:45.008Z</time>
      </trkpt>
      <trkpt lat="45.02664" lon="3.04068">
        <ele>1123</ele>
        <time>2016-12-30T16:06:47.008Z</time>
      </trkpt>
      <trkpt lat="45.02671" lon="3.04073">
        <ele>1121.2811917827</ele>
        <time>2016-12-30T16:06:50.008Z</time>
      </trkpt>
      <trkpt lat="45.02676" lon="3.04077">
        <ele>1121</ele>
        <time>2016-12-30T16:06:52.008Z</time>
      </trkpt>
      <trkpt lat="45.02683" lon="3.04082">
        <ele>1119.2639905791</ele>
        <time>2016-12-30T16:06:55.008Z</time>
      </trkpt>
      <trkpt lat="45.02688" lon="3.04086">
        <ele>1119</ele>
        <time>2016-12-30T16:06:57.008Z</time>
      </trkpt>
      <trkpt lat="45.02697" lon="3.04091">
        <ele>1119</ele>
        <time>2016-12-30T16:06:59.008Z</time>
      </trkpt>
      <trkpt lat="45.02706" lon="3.04098">
        <ele>1116</ele>
        <time>2016-12-30T16:07:01.008Z</time>
      </trkpt>
      <trkpt lat="45.02716" lon="3.04107">
        <ele>1116</ele>
        <time>2016-12-30T16:07:03.008Z</time>
      </trkpt>
      <trkpt lat="45.02722" lon="3.04112">
        <ele>1116</ele>
        <time>2016-12-30T16:07:04.008Z</time>
      </trkpt>
      <trkpt lat="45.02728" lon="3.04117">
        <ele>1114.2639905791</ele>
        <time>2016-12-30T16:07:05.008Z</time>
      </trkpt>
      <trkpt lat="45.02733" lon="3.04123">
        <ele>1114</ele>
        <time>2016-12-30T16:07:06.008Z</time>
      </trkpt>
      <trkpt lat="45.02739" lon="3.04129">
        <ele>1114</ele>
        <time>2016-12-30T16:07:07.008Z</time>
      </trkpt>
      <trkpt lat="45.02745" lon="3.04135">
        <ele>1114</ele>
        <time>2016-12-30T16:07:08.008Z</time>
      </trkpt>
      <trkpt lat="45.02751" lon="3.04141">
        <ele>1114</ele>
        <time>2016-12-30T16:07:09.008Z</time>
      </trkpt>
      <trkpt lat="45.02757" lon="3.04148">
        <ele>1110.5280188414</ele>
        <time>2016-12-30T16:07:10.008Z</time>
      </trkpt>
      <trkpt lat="45.02767" lon="3.04159">
        <ele>1108.1320047103</ele>
        <time>2016-12-30T16:07:12.008Z</time>
      </trkpt>
      <trkpt lat="45.02778" lon="3.04162">
        <ele>1107</ele>
        <time>2016-12-30T16:07:14.008Z</time>
      </trkpt>
      <trkpt lat="45.02788" lon="3.04156">
        <ele>1107</ele>
        <time>2016-12-30T16:07:16.008Z</time>
      </trkpt>
      <trkpt lat="45.02796" lon="3.04146">
        <ele>1106.1320047103</ele>
        <time>2016-12-30T16:07:18.008Z</time>
      </trkpt>
      <trkpt lat="45.02804" lon="3.04137">
        <ele>1107</ele>
        <time>2016-12-30T16:07:20.008Z</time>
      </trkpt>
      <trkpt lat="45.02811" lon="3.04128">
        <ele>1107</ele>
        <time>2016-12-30T16:07:22.008Z</time>
      </trkpt>
      <trkpt lat="45.02819" lon="3.04119">
        <ele>1107</ele>
        <time>2016-12-30T16:07:24.008Z</time>
      </trkpt>
      <trkpt lat="45.02826" lon="3.04111">
        <ele>1107</ele>
        <time>2016-12-30T16:07:26.008Z</time>
      </trkpt>
      <trkpt lat="45.0283" lon="3.04107">
        <ele>1107</ele>
        <time>2016-12-30T16:07:27.008Z</time>
      </trkpt>
      <trkpt lat="45.02833" lon="3.04103">
        <ele>1107</ele>
        <time>2016-12-30T16:07:28.008Z</time>
      </trkpt>
      <trkpt lat="45.02839" lon="3.04096">
        <ele>1107.8679952897</ele>
        <time>2016-12-30T16:07:30.008Z</time>
      </trkpt>
      <trkpt lat="45.02842" lon="3.04092">
        <ele>1108</ele>
        <time>2016-12-30T16:07:31.008Z</time>
      </trkpt>
      <trkpt lat="45.02846" lon="3.04089">
        <ele>1108</ele>
        <time>2016-12-30T16:07:32.008Z</time>
      </trkpt>
      <trkpt lat="45.02848" lon="3.04086">
        <ele>1108</ele>
        <time>2016-12-30T16:07:33.008Z</time>
      </trkpt>
      <trkpt lat="45.02851" lon="3.04082">
        <ele>1108</ele>
        <time>2016-12-30T16:07:34.008Z</time>
      </trkpt>
      <trkpt lat="45.02854" lon="3.04078">
        <ele>1108</ele>
        <time>2016-12-30T16:07:35.008Z</time>
      </trkpt>
      <trkpt lat="45.02859" lon="3.04071">
        <ele>1108</ele>
        <time>2016-12-30T16:07:37.008Z</time>
      </trkpt>
      <trkpt lat="45.02864" lon="3.04066">
        <ele>1108</ele>
        <time>2016-12-30T16:07:39.008Z</time>
      </trkpt>
      <trkpt lat="45.0287" lon="3.04064">
        <ele>1109</ele>
        <time>2016-12-30T16:07:41.008Z</time>
      </trkpt>
      <trkpt lat="45.02876" lon="3.04066">
        <ele>1109</ele>
        <time>2016-12-30T16:07:43.008Z</time>
      </trkpt>
      <trkpt lat="45.0288" lon="3.0407">
        <ele>1109</ele>
        <time>2016-12-30T16:07:44.008Z</time>
      </trkpt>
      <trkpt lat="45.02883" lon="3.04073">
        <ele>1109</ele>
        <time>2016-12-30T16:07:45.008Z</time>
      </trkpt>
      <trkpt lat="45.02887" lon="3.04078">
        <ele>1109</ele>
        <time>2016-12-30T16:07:46.008Z</time>
      </trkpt>
      <trkpt lat="45.02891" lon="3.04082">
        <ele>1109</ele>
        <time>2016-12-30T16:07:47.008Z</time>
      </trkpt>
      <trkpt lat="45.02896" lon="3.04087">
        <ele>1109</ele>
        <time>2016-12-30T16:07:48.008Z</time>
      </trkpt>
      <trkpt lat="45.029" lon="3.04093">
        <ele>1109</ele>
        <time>2016-12-30T16:07:49.008Z</time>
      </trkpt>
      <trkpt lat="45.02905" lon="3.04098">
        <ele>1108.1405958914</ele>
        <time>2016-12-30T16:07:50.008Z</time>
      </trkpt>
      <trkpt lat="45.0291" lon="3.04104">
        <ele>1108</ele>
        <time>2016-12-30T16:07:51.008Z</time>
      </trkpt>
      <trkpt lat="45.02915" lon="3.04109">
        <ele>1108</ele>
        <time>2016-12-30T16:07:52.008Z</time>
      </trkpt>
      <trkpt lat="45.02921" lon="3.04116">
        <ele>1108</ele>
        <time>2016-12-30T16:07:53.008Z</time>
      </trkpt>
      <trkpt lat="45.02927" lon="3.04122">
        <ele>1108</ele>
        <time>2016-12-30T16:07:54.008Z</time>
      </trkpt>
      <trkpt lat="45.02932" lon="3.04129">
        <ele>1108</ele>
        <time>2016-12-30T16:07:55.008Z</time>
      </trkpt>
      <trkpt lat="45.02938" lon="3.04135">
        <ele>1108</ele>
        <time>2016-12-30T16:07:56.008Z</time>
      </trkpt>
      <trkpt lat="45.02943" lon="3.04141">
        <ele>1108</ele>
        <time>2016-12-30T16:07:57.008Z</time>
      </trkpt>
      <trkpt lat="45.02949" lon="3.04146">
        <ele>1108</ele>
        <time>2016-12-30T16:07:58.008Z</time>
      </trkpt>
      <trkpt lat="45.02959" lon="3.04152">
        <ele>1101.9240329724</ele>
        <time>2016-12-30T16:08:00.008Z</time>
      </trkpt>
      <trkpt lat="45.02964" lon="3.04153">
        <ele>1101</ele>
        <time>2016-12-30T16:08:01.008Z</time>
      </trkpt>
      <trkpt lat="45.02969" lon="3.04153">
        <ele>1101</ele>
        <time>2016-12-30T16:08:02.008Z</time>
      </trkpt>
      <trkpt lat="45.02979" lon="3.04153">
        <ele>1101</ele>
        <time>2016-12-30T16:08:04.008Z</time>
      </trkpt>
      <trkpt lat="45.02988" lon="3.04152">
        <ele>1102</ele>
        <time>2016-12-30T16:08:06.008Z</time>
      </trkpt>
      <trkpt lat="45.02998" lon="3.04151">
        <ele>1102</ele>
        <time>2016-12-30T16:08:08.008Z</time>
      </trkpt>
      <trkpt lat="45.03003" lon="3.0415">
        <ele>1102</ele>
        <time>2016-12-30T16:08:09.008Z</time>
      </trkpt>
      <trkpt lat="45.03008" lon="3.0415">
        <ele>1102</ele>
        <time>2016-12-30T16:08:10.008Z</time>
      </trkpt>
      <trkpt lat="45.03014" lon="3.04149">
        <ele>1102</ele>
        <time>2016-12-30T16:08:11.008Z</time>
      </trkpt>
      <trkpt lat="45.03019" lon="3.04149">
        <ele>1102</ele>
        <time>2016-12-30T16:08:12.008Z</time>
      </trkpt>
      <trkpt lat="45.03024" lon="3.04148">
        <ele>1102</ele>
        <time>2016-12-30T16:08:13.008Z</time>
      </trkpt>
      <trkpt lat="45.03029" lon="3.04148">
        <ele>1102</ele>
        <time>2016-12-30T16:08:14.008Z</time>
      </trkpt>
      <trkpt lat="45.03034" lon="3.04149">
        <ele>1102</ele>
        <time>2016-12-30T16:08:15.008Z</time>
      </trkpt>
      <trkpt lat="45.03038" lon="3.04149">
        <ele>1102</ele>
        <time>2016-12-30T16:08:16.008Z</time>
      </trkpt>
      <trkpt lat="45.03043" lon="3.04149">
        <ele>1102</ele>
        <time>2016-12-30T16:08:17.008Z</time>
      </trkpt>
      <trkpt lat="45.03048" lon="3.0415">
        <ele>1102</ele>
        <time>2016-12-30T16:08:18.008Z</time>
      </trkpt>
      <trkpt lat="45.03052" lon="3.0415">
        <ele>1102</ele>
        <time>2016-12-30T16:08:19.008Z</time>
      </trkpt>
      <trkpt lat="45.03061" lon="3.04151">
        <ele>1103</ele>
        <time>2016-12-30T16:08:21.008Z</time>
      </trkpt>
      <trkpt lat="45.03069" lon="3.04151">
        <ele>1103</ele>
        <time>2016-12-30T16:08:23.008Z</time>
      </trkpt>
      <trkpt lat="45.03076" lon="3.04151">
        <ele>1103</ele>
        <time>2016-12-30T16:08:25.008Z</time>
      </trkpt>
      <trkpt lat="45.03083" lon="3.04154">
        <ele>1103</ele>
        <time>2016-12-30T16:08:27.008Z</time>
      </trkpt>
      <trkpt lat="45.03085" lon="3.04158">
        <ele>1103</ele>
        <time>2016-12-30T16:08:28.008Z</time>
      </trkpt>
      <trkpt lat="45.03085" lon="3.04162">
        <ele>1103</ele>
        <time>2016-12-30T16:08:29.008Z</time>
      </trkpt>
      <trkpt lat="45.03085" lon="3.04167">
        <ele>1103</ele>
        <time>2016-12-30T16:08:30.008Z</time>
      </trkpt>
      <trkpt lat="45.03085" lon="3.04172">
        <ele>1103</ele>
        <time>2016-12-30T16:08:31.008Z</time>
      </trkpt>
      <trkpt lat="45.03085" lon="3.04179">
        <ele>1103</ele>
        <time>2016-12-30T16:08:32.008Z</time>
      </trkpt>
      <trkpt lat="45.03085" lon="3.04185">
        <ele>1103</ele>
        <time>2016-12-30T16:08:33.008Z</time>
      </trkpt>
      <trkpt lat="45.03085" lon="3.0419">
        <ele>1103</ele>
        <time>2016-12-30T16:08:34.008Z</time>
      </trkpt>
      <trkpt lat="45.03084" lon="3.04195">
        <ele>1103</ele>
        <time>2016-12-30T16:08:35.008Z</time>
      </trkpt>
      <trkpt lat="45.03081" lon="3.04201">
        <ele>1103</ele>
        <time>2016-12-30T16:08:37.008Z</time>
      </trkpt>
      <trkpt lat="45.03079" lon="3.04203">
        <ele>1102.9985983706</ele>
        <time>2016-12-30T16:08:39.008Z</time>
      </trkpt>
    </trkseg>
  </trk>
</gpx>